<?xml version='1.0' encoding='UTF-8'?><gpx version="1.1" creator="JPX - https://github.com/jenetics/jpx" xmlns="http://www.topografix.com/GPX/1/1"><trk><trkseg><trkpt lat="43.2135117" lon="2.3412268"><ele>111.0</ele><time>2026-03-22T13:57:31.65Z</time></trkpt><trkpt lat="43.2134453" lon="2.3412099"><ele>111.0</ele><time>2026-03-22T13:57:33.762Z</time></trkpt><trkpt lat="43.2133522" lon="2.3411992"><ele>111.0</ele><time>2026-03-22T13:57:35.736Z</time></trkpt><trkpt lat="43.214165" lon="2.3414817"><ele>111.0</ele><time>2026-03-22T13:57:36.675Z</time></trkpt><trkpt lat="43.2142283" lon="2.3415117"><ele>111.0</ele><time>2026-03-22T13:57:38.674Z</time></trkpt><trkpt lat="43.2143017" lon="2.3415483"><ele>111.0</ele><time>2026-03-22T13:57:41.674Z</time></trkpt><trkpt lat="43.2143833" lon="2.3414683"><ele>111.0</ele><time>2026-03-22T13:57:44.674Z</time></trkpt><trkpt lat="43.2144367" lon="2.3413283"><ele>111.0</ele><time>2026-03-22T13:57:46.675Z</time></trkpt><trkpt lat="43.2144733" lon="2.3412467"><ele>111.0</ele><time>2026-03-22T13:57:47.675Z</time></trkpt><trkpt lat="43.214505" lon="2.341145"><ele>111.0</ele><time>2026-03-22T13:57:48.676Z</time></trkpt><trkpt lat="43.2145383" lon="2.341035"><ele>111.0</ele><time>2026-03-22T13:57:49.675Z</time></trkpt><trkpt lat="43.2145733" lon="2.34092"><ele>111.0</ele><time>2026-03-22T13:57:50.673Z</time></trkpt><trkpt lat="43.214605" lon="2.3408083"><ele>111.0</ele><time>2026-03-22T13:57:51.674Z</time></trkpt><trkpt lat="43.214635" lon="2.340695"><ele>111.0</ele><time>2026-03-22T13:57:52.674Z</time></trkpt><trkpt lat="43.2146717" lon="2.3405867"><ele>111.0</ele><time>2026-03-22T13:57:53.674Z</time></trkpt><trkpt lat="43.2147083" lon="2.340475"><ele>111.0</ele><time>2026-03-22T13:57:54.674Z</time></trkpt><trkpt lat="43.2147517" lon="2.340345"><ele>111.0</ele><time>2026-03-22T13:57:55.673Z</time></trkpt><trkpt lat="43.2147967" lon="2.3402067"><ele>111.0</ele><time>2026-03-22T13:57:56.674Z</time></trkpt><trkpt lat="43.2148433" lon="2.3400767"><ele>111.0</ele><time>2026-03-22T13:57:57.674Z</time></trkpt><trkpt lat="43.21489" lon="2.3399383"><ele>111.0</ele><time>2026-03-22T13:57:58.675Z</time></trkpt><trkpt lat="43.214935" lon="2.339795"><ele>111.0</ele><time>2026-03-22T13:57:59.677Z</time></trkpt><trkpt lat="43.2149817" lon="2.33966"><ele>111.0</ele><time>2026-03-22T13:58:00.675Z</time></trkpt><trkpt lat="43.2150283" lon="2.3395233"><ele>111.0</ele><time>2026-03-22T13:58:01.674Z</time></trkpt><trkpt lat="43.215075" lon="2.339385"><ele>111.0</ele><time>2026-03-22T13:58:02.674Z</time></trkpt><trkpt lat="43.215125" lon="2.3392483"><ele>111.0</ele><time>2026-03-22T13:58:03.675Z</time></trkpt><trkpt lat="43.215175" lon="2.33911"><ele>111.0</ele><time>2026-03-22T13:58:04.673Z</time></trkpt><trkpt lat="43.2152267" lon="2.3389733"><ele>111.0</ele><time>2026-03-22T13:58:05.674Z</time></trkpt><trkpt lat="43.2152783" lon="2.3388367"><ele>111.0</ele><time>2026-03-22T13:58:06.68Z</time></trkpt><trkpt lat="43.2153483" lon="2.338685"><ele>111.0</ele><time>2026-03-22T13:58:07.674Z</time></trkpt><trkpt lat="43.2153933" lon="2.3385283"><ele>111.0</ele><time>2026-03-22T13:58:08.674Z</time></trkpt><trkpt lat="43.2154383" lon="2.3383933"><ele>111.0</ele><time>2026-03-22T13:58:09.674Z</time></trkpt><trkpt lat="43.2154867" lon="2.33826"><ele>111.0</ele><time>2026-03-22T13:58:10.674Z</time></trkpt><trkpt lat="43.2155333" lon="2.3381233"><ele>111.0</ele><time>2026-03-22T13:58:11.673Z</time></trkpt><trkpt lat="43.215585" lon="2.33799"><ele>111.0</ele><time>2026-03-22T13:58:12.674Z</time></trkpt><trkpt lat="43.21563" lon="2.3378583"><ele>110.8</ele><time>2026-03-22T13:58:13.675Z</time></trkpt><trkpt lat="43.2156717" lon="2.3377267"><ele>110.6</ele><time>2026-03-22T13:58:14.675Z</time></trkpt><trkpt lat="43.215715" lon="2.3376117"><ele>110.4</ele><time>2026-03-22T13:58:15.675Z</time></trkpt><trkpt lat="43.2157517" lon="2.337495"><ele>110.2</ele><time>2026-03-22T13:58:16.674Z</time></trkpt><trkpt lat="43.2157817" lon="2.337385"><ele>110.0</ele><time>2026-03-22T13:58:17.674Z</time></trkpt><trkpt lat="43.2158167" lon="2.3372767"><ele>109.8</ele><time>2026-03-22T13:58:18.674Z</time></trkpt><trkpt lat="43.2158483" lon="2.33716"><ele>109.6</ele><time>2026-03-22T13:58:19.674Z</time></trkpt><trkpt lat="43.2159033" lon="2.337055"><ele>109.4</ele><time>2026-03-22T13:58:20.676Z</time></trkpt><trkpt lat="43.21594" lon="2.3369117"><ele>109.2</ele><time>2026-03-22T13:58:21.675Z</time></trkpt><trkpt lat="43.2159817" lon="2.3367733"><ele>109.0</ele><time>2026-03-22T13:58:22.676Z</time></trkpt><trkpt lat="43.2160317" lon="2.336655"><ele>109.0</ele><time>2026-03-22T13:58:23.674Z</time></trkpt><trkpt lat="43.2160817" lon="2.3365167"><ele>109.0</ele><time>2026-03-22T13:58:24.675Z</time></trkpt><trkpt lat="43.2161317" lon="2.3363833"><ele>109.0</ele><time>2026-03-22T13:58:25.673Z</time></trkpt><trkpt lat="43.2161767" lon="2.336245"><ele>109.0</ele><time>2026-03-22T13:58:26.674Z</time></trkpt><trkpt lat="43.21622" lon="2.3361117"><ele>109.0</ele><time>2026-03-22T13:58:27.676Z</time></trkpt><trkpt lat="43.216265" lon="2.33597"><ele>109.0</ele><time>2026-03-22T13:58:28.673Z</time></trkpt><trkpt lat="43.2163133" lon="2.3358283"><ele>109.0</ele><time>2026-03-22T13:58:29.674Z</time></trkpt><trkpt lat="43.2163633" lon="2.335685"><ele>109.0</ele><time>2026-03-22T13:58:30.676Z</time></trkpt><trkpt lat="43.2164117" lon="2.3355433"><ele>109.0</ele><time>2026-03-22T13:58:31.674Z</time></trkpt><trkpt lat="43.2164617" lon="2.335405"><ele>109.25</ele><time>2026-03-22T13:58:32.675Z</time></trkpt><trkpt lat="43.216515" lon="2.3352617"><ele>109.5</ele><time>2026-03-22T13:58:33.676Z</time></trkpt><trkpt lat="43.216565" lon="2.33511"><ele>109.75</ele><time>2026-03-22T13:58:34.674Z</time></trkpt><trkpt lat="43.2166167" lon="2.3349633"><ele>110.0</ele><time>2026-03-22T13:58:35.674Z</time></trkpt><trkpt lat="43.21667" lon="2.3348083"><ele>109.75</ele><time>2026-03-22T13:58:36.677Z</time></trkpt><trkpt lat="43.2167233" lon="2.334655"><ele>109.5</ele><time>2026-03-22T13:58:37.675Z</time></trkpt><trkpt lat="43.2167767" lon="2.3344983"><ele>109.25</ele><time>2026-03-22T13:58:38.677Z</time></trkpt><trkpt lat="43.21683" lon="2.3343417"><ele>109.0</ele><time>2026-03-22T13:58:39.676Z</time></trkpt><trkpt lat="43.216885" lon="2.3341883"><ele>109.0</ele><time>2026-03-22T13:58:40.675Z</time></trkpt><trkpt lat="43.2169367" lon="2.33404"><ele>109.0</ele><time>2026-03-22T13:58:41.676Z</time></trkpt><trkpt lat="43.21699" lon="2.3338933"><ele>109.0</ele><time>2026-03-22T13:58:42.676Z</time></trkpt><trkpt lat="43.2170417" lon="2.3337467"><ele>109.0</ele><time>2026-03-22T13:58:43.678Z</time></trkpt><trkpt lat="43.21709" lon="2.3336"><ele>108.5</ele><time>2026-03-22T13:58:44.675Z</time></trkpt><trkpt lat="43.2171383" lon="2.3334533"><ele>108.0</ele><time>2026-03-22T13:58:45.674Z</time></trkpt><trkpt lat="43.2171867" lon="2.3333033"><ele>107.5</ele><time>2026-03-22T13:58:46.674Z</time></trkpt><trkpt lat="43.21724" lon="2.333155"><ele>107.0</ele><time>2026-03-22T13:58:47.674Z</time></trkpt><trkpt lat="43.2172917" lon="2.3330067"><ele>107.25</ele><time>2026-03-22T13:58:48.674Z</time></trkpt><trkpt lat="43.2173417" lon="2.3328567"><ele>107.5</ele><time>2026-03-22T13:58:49.673Z</time></trkpt><trkpt lat="43.217395" lon="2.3327117"><ele>107.75</ele><time>2026-03-22T13:58:50.675Z</time></trkpt><trkpt lat="43.2174467" lon="2.3325633"><ele>108.0</ele><time>2026-03-22T13:58:51.676Z</time></trkpt><trkpt lat="43.2175017" lon="2.3324117"><ele>108.0</ele><time>2026-03-22T13:58:52.673Z</time></trkpt><trkpt lat="43.2175533" lon="2.3322617"><ele>108.00000000000001</ele><time>2026-03-22T13:58:53.674Z</time></trkpt><trkpt lat="43.2176" lon="2.332125"><ele>108.00000000000001</ele><time>2026-03-22T13:58:54.674Z</time></trkpt><trkpt lat="43.217645" lon="2.3319917"><ele>108.0</ele><time>2026-03-22T13:58:55.676Z</time></trkpt><trkpt lat="43.2176883" lon="2.3318733"><ele>108.0</ele><time>2026-03-22T13:58:56.677Z</time></trkpt><trkpt lat="43.2177317" lon="2.3317683"><ele>108.0</ele><time>2026-03-22T13:58:57.674Z</time></trkpt><trkpt lat="43.21777" lon="2.3316733"><ele>108.00000000000001</ele><time>2026-03-22T13:58:58.674Z</time></trkpt><trkpt lat="43.2178033" lon="2.3315883"><ele>108.00000000000001</ele><time>2026-03-22T13:58:59.675Z</time></trkpt><trkpt lat="43.2178233" lon="2.331505"><ele>108.0</ele><time>2026-03-22T13:59:00.674Z</time></trkpt><trkpt lat="43.21783" lon="2.3313633"><ele>108.0</ele><time>2026-03-22T13:59:02.678Z</time></trkpt><trkpt lat="43.2176883" lon="2.3312433"><ele>108.0</ele><time>2026-03-22T13:59:04.675Z</time></trkpt><trkpt lat="43.2175817" lon="2.3312"><ele>108.00000000000001</ele><time>2026-03-22T13:59:05.674Z</time></trkpt><trkpt lat="43.2174933" lon="2.33114"><ele>108.00000000000001</ele><time>2026-03-22T13:59:06.676Z</time></trkpt><trkpt lat="43.2174083" lon="2.33106"><ele>108.0</ele><time>2026-03-22T13:59:07.683Z</time></trkpt><trkpt lat="43.2173217" lon="2.330985"><ele>108.0</ele><time>2026-03-22T13:59:08.674Z</time></trkpt><trkpt lat="43.2172383" lon="2.3309183"><ele>108.0</ele><time>2026-03-22T13:59:09.675Z</time></trkpt><trkpt lat="43.2171467" lon="2.3308367"><ele>108.0</ele><time>2026-03-22T13:59:10.678Z</time></trkpt><trkpt lat="43.2170517" lon="2.3307633"><ele>108.0</ele><time>2026-03-22T13:59:11.674Z</time></trkpt><trkpt lat="43.2169533" lon="2.3306833"><ele>108.0</ele><time>2026-03-22T13:59:12.676Z</time></trkpt><trkpt lat="43.216845" lon="2.3306217"><ele>108.0</ele><time>2026-03-22T13:59:13.673Z</time></trkpt><trkpt lat="43.2167367" lon="2.330585"><ele>108.0</ele><time>2026-03-22T13:59:14.676Z</time></trkpt><trkpt lat="43.216625" lon="2.3305683"><ele>108.0</ele><time>2026-03-22T13:59:15.675Z</time></trkpt><trkpt lat="43.2165133" lon="2.330555"><ele>108.0</ele><time>2026-03-22T13:59:16.674Z</time></trkpt><trkpt lat="43.216395" lon="2.3305517"><ele>108.0</ele><time>2026-03-22T13:59:17.674Z</time></trkpt><trkpt lat="43.2162683" lon="2.330565"><ele>108.0</ele><time>2026-03-22T13:59:18.674Z</time></trkpt><trkpt lat="43.2161383" lon="2.3305667"><ele>108.0</ele><time>2026-03-22T13:59:19.674Z</time></trkpt><trkpt lat="43.2160083" lon="2.3305567"><ele>108.0</ele><time>2026-03-22T13:59:20.674Z</time></trkpt><trkpt lat="43.21588" lon="2.33055"><ele>108.0</ele><time>2026-03-22T13:59:21.675Z</time></trkpt><trkpt lat="43.215755" lon="2.330545"><ele>108.00000000000001</ele><time>2026-03-22T13:59:22.675Z</time></trkpt><trkpt lat="43.2156417" lon="2.3305433"><ele>108.00000000000001</ele><time>2026-03-22T13:59:23.674Z</time></trkpt><trkpt lat="43.2155367" lon="2.3305517"><ele>108.0</ele><time>2026-03-22T13:59:24.674Z</time></trkpt><trkpt lat="43.2154317" lon="2.3305633"><ele>108.0</ele><time>2026-03-22T13:59:25.674Z</time></trkpt><trkpt lat="43.2153317" lon="2.3305733"><ele>108.2</ele><time>2026-03-22T13:59:26.674Z</time></trkpt><trkpt lat="43.2152367" lon="2.330585"><ele>108.4</ele><time>2026-03-22T13:59:27.675Z</time></trkpt><trkpt lat="43.2151517" lon="2.3305967"><ele>108.60000000000001</ele><time>2026-03-22T13:59:28.681Z</time></trkpt><trkpt lat="43.2150733" lon="2.3306033"><ele>108.80000000000001</ele><time>2026-03-22T13:59:29.673Z</time></trkpt><trkpt lat="43.2150017" lon="2.3305967"><ele>109.0</ele><time>2026-03-22T13:59:30.676Z</time></trkpt><trkpt lat="43.214915" lon="2.3304783"><ele>109.16666666666667</ele><time>2026-03-22T13:59:32.676Z</time></trkpt><trkpt lat="43.2149083" lon="2.3303867"><ele>109.33333333333334</ele><time>2026-03-22T13:59:33.673Z</time></trkpt><trkpt lat="43.2149067" lon="2.3302833"><ele>109.5</ele><time>2026-03-22T13:59:34.673Z</time></trkpt><trkpt lat="43.2149" lon="2.33017"><ele>109.66666666666666</ele><time>2026-03-22T13:59:35.673Z</time></trkpt><trkpt lat="43.2148933" lon="2.3300417"><ele>109.83333333333333</ele><time>2026-03-22T13:59:36.674Z</time></trkpt><trkpt lat="43.2148833" lon="2.32992"><ele>110.0</ele><time>2026-03-22T13:59:37.674Z</time></trkpt><trkpt lat="43.2149083" lon="2.32978"><ele>110.0</ele><time>2026-03-22T13:59:38.676Z</time></trkpt><trkpt lat="43.2149033" lon="2.3296533"><ele>110.0</ele><time>2026-03-22T13:59:39.674Z</time></trkpt><trkpt lat="43.2148833" lon="2.329505"><ele>110.0</ele><time>2026-03-22T13:59:40.674Z</time></trkpt><trkpt lat="43.2148483" lon="2.3293717"><ele>110.0</ele><time>2026-03-22T13:59:41.675Z</time></trkpt><trkpt lat="43.21481" lon="2.3292417"><ele>110.0</ele><time>2026-03-22T13:59:42.675Z</time></trkpt><trkpt lat="43.2147783" lon="2.3291067"><ele>111.6</ele><time>2026-03-22T13:59:43.677Z</time></trkpt><trkpt lat="43.2147617" lon="2.328965"><ele>113.2</ele><time>2026-03-22T13:59:44.677Z</time></trkpt><trkpt lat="43.2147533" lon="2.3288183"><ele>114.80000000000001</ele><time>2026-03-22T13:59:45.676Z</time></trkpt><trkpt lat="43.2147567" lon="2.3286633"><ele>116.4</ele><time>2026-03-22T13:59:46.675Z</time></trkpt><trkpt lat="43.2147617" lon="2.328515"><ele>118.0</ele><time>2026-03-22T13:59:47.676Z</time></trkpt><trkpt lat="43.214775" lon="2.3283683"><ele>118.2</ele><time>2026-03-22T13:59:48.675Z</time></trkpt><trkpt lat="43.2147883" lon="2.328215"><ele>118.4</ele><time>2026-03-22T13:59:49.674Z</time></trkpt><trkpt lat="43.2147983" lon="2.3280733"><ele>118.60000000000001</ele><time>2026-03-22T13:59:50.676Z</time></trkpt><trkpt lat="43.214805" lon="2.3279383"><ele>118.80000000000001</ele><time>2026-03-22T13:59:51.674Z</time></trkpt><trkpt lat="43.2148133" lon="2.3278033"><ele>119.0</ele><time>2026-03-22T13:59:52.673Z</time></trkpt><trkpt lat="43.2148217" lon="2.3276783"><ele>117.66666666666666</ele><time>2026-03-22T13:59:53.675Z</time></trkpt><trkpt lat="43.214825" lon="2.32756"><ele>116.33333333333333</ele><time>2026-03-22T13:59:54.675Z</time></trkpt><trkpt lat="43.21483" lon="2.327455"><ele>115.0</ele><time>2026-03-22T13:59:55.674Z</time></trkpt><trkpt lat="43.2148367" lon="2.32736"><ele>113.66666666666666</ele><time>2026-03-22T13:59:56.676Z</time></trkpt><trkpt lat="43.214855" lon="2.3272"><ele>112.33333333333333</ele><time>2026-03-22T13:59:58.674Z</time></trkpt><trkpt lat="43.2148533" lon="2.3270667"><ele>111.0</ele><time>2026-03-22T14:00:00.674Z</time></trkpt><trkpt lat="43.2147733" lon="2.3270083"><ele>111.0</ele><time>2026-03-22T14:00:02.675Z</time></trkpt><trkpt lat="43.214685" lon="2.3270317"><ele>111.0</ele><time>2026-03-22T14:00:03.673Z</time></trkpt><trkpt lat="43.2145817" lon="2.3270517"><ele>111.0</ele><time>2026-03-22T14:00:04.673Z</time></trkpt><trkpt lat="43.2144867" lon="2.32704"><ele>111.0</ele><time>2026-03-22T14:00:05.674Z</time></trkpt><trkpt lat="43.2143833" lon="2.3270217"><ele>111.0</ele><time>2026-03-22T14:00:06.675Z</time></trkpt><trkpt lat="43.214275" lon="2.3270067"><ele>111.0</ele><time>2026-03-22T14:00:07.673Z</time></trkpt><trkpt lat="43.2141633" lon="2.327"><ele>111.0</ele><time>2026-03-22T14:00:08.674Z</time></trkpt><trkpt lat="43.2140483" lon="2.3269867"><ele>111.0</ele><time>2026-03-22T14:00:09.674Z</time></trkpt><trkpt lat="43.2139283" lon="2.32697"><ele>111.0</ele><time>2026-03-22T14:00:10.673Z</time></trkpt><trkpt lat="43.213805" lon="2.3269517"><ele>111.25</ele><time>2026-03-22T14:00:11.676Z</time></trkpt><trkpt lat="43.2136833" lon="2.3269283"><ele>111.5</ele><time>2026-03-22T14:00:12.676Z</time></trkpt><trkpt lat="43.2135633" lon="2.32691"><ele>111.75</ele><time>2026-03-22T14:00:13.675Z</time></trkpt><trkpt lat="43.213445" lon="2.3268933"><ele>112.0</ele><time>2026-03-22T14:00:14.675Z</time></trkpt><trkpt lat="43.2133317" lon="2.3268833"><ele>112.00000000000001</ele><time>2026-03-22T14:00:15.675Z</time></trkpt><trkpt lat="43.2132283" lon="2.3268733"><ele>112.0</ele><time>2026-03-22T14:00:16.675Z</time></trkpt><trkpt lat="43.2131317" lon="2.326855"><ele>112.0</ele><time>2026-03-22T14:00:17.674Z</time></trkpt><trkpt lat="43.21305" lon="2.3268383"><ele>112.0</ele><time>2026-03-22T14:00:18.678Z</time></trkpt><trkpt lat="43.2129783" lon="2.326825"><ele>112.00000000000001</ele><time>2026-03-22T14:00:19.675Z</time></trkpt><trkpt lat="43.21291" lon="2.3268083"><ele>112.0</ele><time>2026-03-22T14:00:20.677Z</time></trkpt><trkpt lat="43.2128383" lon="2.3267867"><ele>112.16666666666667</ele><time>2026-03-22T14:00:21.674Z</time></trkpt><trkpt lat="43.2127583" lon="2.3267717"><ele>112.33333333333334</ele><time>2026-03-22T14:00:22.673Z</time></trkpt><trkpt lat="43.2126733" lon="2.3267667"><ele>112.5</ele><time>2026-03-22T14:00:23.675Z</time></trkpt><trkpt lat="43.2125917" lon="2.3267667"><ele>112.66666666666666</ele><time>2026-03-22T14:00:24.677Z</time></trkpt><trkpt lat="43.2125183" lon="2.326745"><ele>112.83333333333333</ele><time>2026-03-22T14:00:25.674Z</time></trkpt><trkpt lat="43.2124617" lon="2.3267017"><ele>113.0</ele><time>2026-03-22T14:00:26.675Z</time></trkpt><trkpt lat="43.2124083" lon="2.3265767"><ele>113.0</ele><time>2026-03-22T14:00:28.674Z</time></trkpt><trkpt lat="43.2124333" lon="2.3264383"><ele>113.0</ele><time>2026-03-22T14:00:29.674Z</time></trkpt><trkpt lat="43.2124683" lon="2.326285"><ele>113.0</ele><time>2026-03-22T14:00:30.677Z</time></trkpt><trkpt lat="43.212505" lon="2.3261217"><ele>113.0</ele><time>2026-03-22T14:00:31.675Z</time></trkpt><trkpt lat="43.2125183" lon="2.32597"><ele>112.60000000000001</ele><time>2026-03-22T14:00:32.676Z</time></trkpt><trkpt lat="43.2125033" lon="2.3258217"><ele>112.20000000000002</ele><time>2026-03-22T14:00:33.675Z</time></trkpt><trkpt lat="43.2124683" lon="2.3256817"><ele>111.8</ele><time>2026-03-22T14:00:34.673Z</time></trkpt><trkpt lat="43.21242" lon="2.3255583"><ele>111.4</ele><time>2026-03-22T14:00:35.674Z</time></trkpt><trkpt lat="43.2123817" lon="2.32544"><ele>111.0</ele><time>2026-03-22T14:00:36.673Z</time></trkpt><trkpt lat="43.21235" lon="2.3253317"><ele>111.0</ele><time>2026-03-22T14:00:37.676Z</time></trkpt><trkpt lat="43.212325" lon="2.325225"><ele>111.0</ele><time>2026-03-22T14:00:38.674Z</time></trkpt><trkpt lat="43.2123483" lon="2.3250933"><ele>111.0</ele><time>2026-03-22T14:00:39.673Z</time></trkpt><trkpt lat="43.2123983" lon="2.3249533"><ele>111.0</ele><time>2026-03-22T14:00:40.673Z</time></trkpt><trkpt lat="43.212425" lon="2.324855"><ele>111.0</ele><time>2026-03-22T14:00:41.679Z</time></trkpt><trkpt lat="43.212445" lon="2.32477"><ele>111.0</ele><time>2026-03-22T14:00:42.673Z</time></trkpt><trkpt lat="43.2124983" lon="2.3246717"><ele>111.0</ele><time>2026-03-22T14:00:44.674Z</time></trkpt><trkpt lat="43.2125317" lon="2.3247567"><ele>111.0</ele><time>2026-03-22T14:00:49.673Z</time></trkpt><trkpt lat="43.2124667" lon="2.32486"><ele>111.0</ele><time>2026-03-22T14:04:05.675Z</time></trkpt><trkpt lat="43.2125483" lon="2.3248733"><ele>111.0</ele><time>2026-03-22T14:05:34.675Z</time></trkpt><trkpt lat="43.2125767" lon="2.3249767"><ele>111.0</ele><time>2026-03-22T14:05:48.675Z</time></trkpt><trkpt lat="43.2125433" lon="2.3250517"><ele>111.0</ele><time>2026-03-22T14:05:50.678Z</time></trkpt><trkpt lat="43.212465" lon="2.3249983"><ele>111.0</ele><time>2026-03-22T14:05:53.674Z</time></trkpt><trkpt lat="43.2124583" lon="2.32486"><ele>111.0</ele><time>2026-03-22T14:05:55.674Z</time></trkpt><trkpt lat="43.212445" lon="2.3247033"><ele>111.0</ele><time>2026-03-22T14:05:57.673Z</time></trkpt><trkpt lat="43.2124" lon="2.324635"><ele>111.0</ele><time>2026-03-22T14:05:58.673Z</time></trkpt><trkpt lat="43.2123417" lon="2.3245817"><ele>111.0</ele><time>2026-03-22T14:05:59.674Z</time></trkpt><trkpt lat="43.2122667" lon="2.3245683"><ele>111.0</ele><time>2026-03-22T14:06:00.674Z</time></trkpt><trkpt lat="43.2122017" lon="2.324545"><ele>111.19999999999999</ele><time>2026-03-22T14:06:01.674Z</time></trkpt><trkpt lat="43.212085" lon="2.3245017"><ele>111.39999999999999</ele><time>2026-03-22T14:06:03.677Z</time></trkpt><trkpt lat="43.211975" lon="2.3244733"><ele>111.6</ele><time>2026-03-22T14:06:05.674Z</time></trkpt><trkpt lat="43.2118917" lon="2.3244183"><ele>111.8</ele><time>2026-03-22T14:06:07.674Z</time></trkpt><trkpt lat="43.211795" lon="2.3243767"><ele>112.0</ele><time>2026-03-22T14:06:09.674Z</time></trkpt><trkpt lat="43.2116783" lon="2.3243617"><ele>112.00000000000001</ele><time>2026-03-22T14:06:11.675Z</time></trkpt><trkpt lat="43.211615" lon="2.3243283"><ele>112.0</ele><time>2026-03-22T14:06:12.675Z</time></trkpt><trkpt lat="43.2115583" lon="2.3242667"><ele>112.0</ele><time>2026-03-22T14:06:13.673Z</time></trkpt><trkpt lat="43.21151" lon="2.32418"><ele>112.0</ele><time>2026-03-22T14:06:14.674Z</time></trkpt><trkpt lat="43.2114633" lon="2.3240783"><ele>112.00000000000001</ele><time>2026-03-22T14:06:15.673Z</time></trkpt><trkpt lat="43.2114167" lon="2.32397"><ele>112.0</ele><time>2026-03-22T14:06:16.674Z</time></trkpt><trkpt lat="43.2113833" lon="2.3238483"><ele>112.39999999999999</ele><time>2026-03-22T14:06:17.674Z</time></trkpt><trkpt lat="43.211375" lon="2.3237133"><ele>112.79999999999998</ele><time>2026-03-22T14:06:18.675Z</time></trkpt><trkpt lat="43.2113833" lon="2.3235733"><ele>113.2</ele><time>2026-03-22T14:06:19.673Z</time></trkpt><trkpt lat="43.21139" lon="2.3234333"><ele>113.6</ele><time>2026-03-22T14:06:20.673Z</time></trkpt><trkpt lat="43.2113933" lon="2.32329"><ele>114.0</ele><time>2026-03-22T14:06:21.673Z</time></trkpt><trkpt lat="43.2113917" lon="2.3231367"><ele>114.25</ele><time>2026-03-22T14:06:22.673Z</time></trkpt><trkpt lat="43.211395" lon="2.322985"><ele>114.5</ele><time>2026-03-22T14:06:23.675Z</time></trkpt><trkpt lat="43.2113917" lon="2.3228283"><ele>114.75</ele><time>2026-03-22T14:06:24.673Z</time></trkpt><trkpt lat="43.2113983" lon="2.3226717"><ele>115.0</ele><time>2026-03-22T14:06:25.674Z</time></trkpt><trkpt lat="43.211405" lon="2.3225083"><ele>115.0</ele><time>2026-03-22T14:06:26.675Z</time></trkpt><trkpt lat="43.21141" lon="2.3223433"><ele>115.0</ele><time>2026-03-22T14:06:27.676Z</time></trkpt><trkpt lat="43.21141" lon="2.3221733"><ele>115.0</ele><time>2026-03-22T14:06:28.673Z</time></trkpt><trkpt lat="43.2114117" lon="2.322005"><ele>115.0</ele><time>2026-03-22T14:06:29.673Z</time></trkpt><trkpt lat="43.2114233" lon="2.321835"><ele>115.25</ele><time>2026-03-22T14:06:30.672Z</time></trkpt><trkpt lat="43.21143" lon="2.32167"><ele>115.5</ele><time>2026-03-22T14:06:31.674Z</time></trkpt><trkpt lat="43.2114367" lon="2.3215183"><ele>115.75</ele><time>2026-03-22T14:06:32.674Z</time></trkpt><trkpt lat="43.2114433" lon="2.3213483"><ele>116.0</ele><time>2026-03-22T14:06:33.673Z</time></trkpt><trkpt lat="43.2114617" lon="2.321185"><ele>116.0</ele><time>2026-03-22T14:06:34.673Z</time></trkpt><trkpt lat="43.211485" lon="2.3210217"><ele>116.0</ele><time>2026-03-22T14:06:35.678Z</time></trkpt><trkpt lat="43.211505" lon="2.320855"><ele>116.0</ele><time>2026-03-22T14:06:36.673Z</time></trkpt><trkpt lat="43.211525" lon="2.3206867"><ele>116.0</ele><time>2026-03-22T14:06:37.674Z</time></trkpt><trkpt lat="43.2115433" lon="2.320515"><ele>116.25</ele><time>2026-03-22T14:06:38.674Z</time></trkpt><trkpt lat="43.2115717" lon="2.3203517"><ele>116.5</ele><time>2026-03-22T14:06:39.673Z</time></trkpt><trkpt lat="43.21161" lon="2.32019"><ele>116.75</ele><time>2026-03-22T14:06:40.674Z</time></trkpt><trkpt lat="43.2116667" lon="2.32004"><ele>117.0</ele><time>2026-03-22T14:06:41.677Z</time></trkpt><trkpt lat="43.21173" lon="2.3198933"><ele>116.75</ele><time>2026-03-22T14:06:42.675Z</time></trkpt><trkpt lat="43.21177" lon="2.31973"><ele>116.5</ele><time>2026-03-22T14:06:43.673Z</time></trkpt><trkpt lat="43.2117783" lon="2.3195567"><ele>116.25</ele><time>2026-03-22T14:06:44.676Z</time></trkpt><trkpt lat="43.2117567" lon="2.3193883"><ele>116.0</ele><time>2026-03-22T14:06:45.672Z</time></trkpt><trkpt lat="43.2117367" lon="2.3192017"><ele>116.0</ele><time>2026-03-22T14:06:46.673Z</time></trkpt><trkpt lat="43.2117417" lon="2.3190117"><ele>116.0</ele><time>2026-03-22T14:06:47.673Z</time></trkpt><trkpt lat="43.2117567" lon="2.3188017"><ele>116.0</ele><time>2026-03-22T14:06:48.674Z</time></trkpt><trkpt lat="43.2117817" lon="2.3185967"><ele>116.0</ele><time>2026-03-22T14:06:49.676Z</time></trkpt><trkpt lat="43.2118167" lon="2.3183917"><ele>116.66666666666666</ele><time>2026-03-22T14:06:50.674Z</time></trkpt><trkpt lat="43.2118533" lon="2.318185"><ele>117.33333333333334</ele><time>2026-03-22T14:06:51.673Z</time></trkpt><trkpt lat="43.2118883" lon="2.3179717"><ele>118.0</ele><time>2026-03-22T14:06:52.674Z</time></trkpt><trkpt lat="43.2119233" lon="2.3177533"><ele>118.66666666666667</ele><time>2026-03-22T14:06:53.678Z</time></trkpt><trkpt lat="43.2119633" lon="2.3175367"><ele>119.33333333333334</ele><time>2026-03-22T14:06:54.678Z</time></trkpt><trkpt lat="43.2119967" lon="2.3173133"><ele>120.0</ele><time>2026-03-22T14:06:55.676Z</time></trkpt><trkpt lat="43.21203" lon="2.317095"><ele>121.0</ele><time>2026-03-22T14:06:56.673Z</time></trkpt><trkpt lat="43.21206" lon="2.316875"><ele>122.0</ele><time>2026-03-22T14:06:57.675Z</time></trkpt><trkpt lat="43.212095" lon="2.31666"><ele>123.0</ele><time>2026-03-22T14:06:58.674Z</time></trkpt><trkpt lat="43.212125" lon="2.316445"><ele>122.66666666666666</ele><time>2026-03-22T14:06:59.676Z</time></trkpt><trkpt lat="43.2121517" lon="2.3162333"><ele>122.33333333333333</ele><time>2026-03-22T14:07:00.675Z</time></trkpt><trkpt lat="43.212185" lon="2.31602"><ele>122.0</ele><time>2026-03-22T14:07:01.678Z</time></trkpt><trkpt lat="43.212215" lon="2.3158083"><ele>122.0</ele><time>2026-03-22T14:07:02.676Z</time></trkpt><trkpt lat="43.2122433" lon="2.315595"><ele>122.0</ele><time>2026-03-22T14:07:03.676Z</time></trkpt><trkpt lat="43.2122667" lon="2.3153817"><ele>122.0</ele><time>2026-03-22T14:07:04.676Z</time></trkpt><trkpt lat="43.2122867" lon="2.3151617"><ele>122.0</ele><time>2026-03-22T14:07:05.676Z</time></trkpt><trkpt lat="43.2123133" lon="2.3149433"><ele>122.0</ele><time>2026-03-22T14:07:06.676Z</time></trkpt><trkpt lat="43.2123433" lon="2.3147233"><ele>122.0</ele><time>2026-03-22T14:07:07.674Z</time></trkpt><trkpt lat="43.2123817" lon="2.3145033"><ele>122.66666666666666</ele><time>2026-03-22T14:07:08.676Z</time></trkpt><trkpt lat="43.21242" lon="2.3142783"><ele>123.33333333333334</ele><time>2026-03-22T14:07:09.676Z</time></trkpt><trkpt lat="43.21246" lon="2.31405"><ele>124.0</ele><time>2026-03-22T14:07:10.678Z</time></trkpt><trkpt lat="43.2125017" lon="2.3138183"><ele>124.0</ele><time>2026-03-22T14:07:11.674Z</time></trkpt><trkpt lat="43.2125433" lon="2.3135883"><ele>124.0</ele><time>2026-03-22T14:07:12.674Z</time></trkpt><trkpt lat="43.2125833" lon="2.3133533"><ele>124.0</ele><time>2026-03-22T14:07:13.675Z</time></trkpt><trkpt lat="43.212625" lon="2.31312"><ele>124.33333333333334</ele><time>2026-03-22T14:07:14.674Z</time></trkpt><trkpt lat="43.2126533" lon="2.3128967"><ele>124.66666666666666</ele><time>2026-03-22T14:07:15.674Z</time></trkpt><trkpt lat="43.2126983" lon="2.3126583"><ele>125.0</ele><time>2026-03-22T14:07:16.674Z</time></trkpt><trkpt lat="43.21274" lon="2.3124317"><ele>125.33333333333333</ele><time>2026-03-22T14:07:17.673Z</time></trkpt><trkpt lat="43.212785" lon="2.312205"><ele>125.66666666666666</ele><time>2026-03-22T14:07:18.673Z</time></trkpt><trkpt lat="43.2128317" lon="2.3119767"><ele>126.0</ele><time>2026-03-22T14:07:19.674Z</time></trkpt><trkpt lat="43.2128733" lon="2.3117467"><ele>126.0</ele><time>2026-03-22T14:07:20.676Z</time></trkpt><trkpt lat="43.2129167" lon="2.3115167"><ele>126.0</ele><time>2026-03-22T14:07:21.674Z</time></trkpt><trkpt lat="43.212955" lon="2.3112817"><ele>126.0</ele><time>2026-03-22T14:07:22.673Z</time></trkpt><trkpt lat="43.2129917" lon="2.3110517"><ele>126.0</ele><time>2026-03-22T14:07:23.674Z</time></trkpt><trkpt lat="43.213025" lon="2.31082"><ele>126.0</ele><time>2026-03-22T14:07:24.674Z</time></trkpt><trkpt lat="43.2130567" lon="2.3105933"><ele>126.0</ele><time>2026-03-22T14:07:25.676Z</time></trkpt><trkpt lat="43.2130817" lon="2.3103667"><ele>126.0</ele><time>2026-03-22T14:07:26.675Z</time></trkpt><trkpt lat="43.213105" lon="2.3101383"><ele>126.0</ele><time>2026-03-22T14:07:27.676Z</time></trkpt><trkpt lat="43.2131217" lon="2.30991"><ele>126.0</ele><time>2026-03-22T14:07:28.674Z</time></trkpt><trkpt lat="43.2131367" lon="2.3096817"><ele>126.0</ele><time>2026-03-22T14:07:29.677Z</time></trkpt><trkpt lat="43.2131467" lon="2.3094517"><ele>126.0</ele><time>2026-03-22T14:07:30.675Z</time></trkpt><trkpt lat="43.213155" lon="2.3092267"><ele>126.0</ele><time>2026-03-22T14:07:31.674Z</time></trkpt><trkpt lat="43.2131617" lon="2.3090017"><ele>126.33333333333334</ele><time>2026-03-22T14:07:32.678Z</time></trkpt><trkpt lat="43.213165" lon="2.30878"><ele>126.66666666666667</ele><time>2026-03-22T14:07:33.676Z</time></trkpt><trkpt lat="43.2131633" lon="2.3085633"><ele>127.0</ele><time>2026-03-22T14:07:34.675Z</time></trkpt><trkpt lat="43.2131633" lon="2.3083483"><ele>127.0</ele><time>2026-03-22T14:07:35.676Z</time></trkpt><trkpt lat="43.213175" lon="2.3081333"><ele>127.0</ele><time>2026-03-22T14:07:36.675Z</time></trkpt><trkpt lat="43.213185" lon="2.3079183"><ele>127.0</ele><time>2026-03-22T14:07:37.675Z</time></trkpt><trkpt lat="43.2131817" lon="2.3076983"><ele>128.0</ele><time>2026-03-22T14:07:38.675Z</time></trkpt><trkpt lat="43.2131833" lon="2.3074783"><ele>129.0</ele><time>2026-03-22T14:07:39.677Z</time></trkpt><trkpt lat="43.2131983" lon="2.307255"><ele>130.0</ele><time>2026-03-22T14:07:40.673Z</time></trkpt><trkpt lat="43.2132167" lon="2.307025"><ele>130.0</ele><time>2026-03-22T14:07:41.673Z</time></trkpt><trkpt lat="43.213235" lon="2.3068"><ele>130.0</ele><time>2026-03-22T14:07:42.673Z</time></trkpt><trkpt lat="43.2132517" lon="2.3065683"><ele>130.0</ele><time>2026-03-22T14:07:43.673Z</time></trkpt><trkpt lat="43.2132683" lon="2.3063383"><ele>129.33333333333334</ele><time>2026-03-22T14:07:44.673Z</time></trkpt><trkpt lat="43.213285" lon="2.3061083"><ele>128.66666666666666</ele><time>2026-03-22T14:07:45.673Z</time></trkpt><trkpt lat="43.2133017" lon="2.3058767"><ele>128.0</ele><time>2026-03-22T14:07:46.673Z</time></trkpt><trkpt lat="43.213315" lon="2.3056483"><ele>128.66666666666666</ele><time>2026-03-22T14:07:47.677Z</time></trkpt><trkpt lat="43.2133267" lon="2.3054233"><ele>129.33333333333334</ele><time>2026-03-22T14:07:48.674Z</time></trkpt><trkpt lat="43.2133367" lon="2.3052083"><ele>130.0</ele><time>2026-03-22T14:07:49.673Z</time></trkpt><trkpt lat="43.2133533" lon="2.3049983"><ele>130.0</ele><time>2026-03-22T14:07:50.674Z</time></trkpt><trkpt lat="43.2133683" lon="2.3047983"><ele>130.0</ele><time>2026-03-22T14:07:51.673Z</time></trkpt><trkpt lat="43.2133817" lon="2.304605"><ele>130.0</ele><time>2026-03-22T14:07:52.672Z</time></trkpt><trkpt lat="43.2133917" lon="2.3044183"><ele>130.0</ele><time>2026-03-22T14:07:53.673Z</time></trkpt><trkpt lat="43.2134233" lon="2.3042633"><ele>130.0</ele><time>2026-03-22T14:07:54.676Z</time></trkpt><trkpt lat="43.21348" lon="2.3041267"><ele>130.0</ele><time>2026-03-22T14:07:55.675Z</time></trkpt><trkpt lat="43.213545" lon="2.3040017"><ele>130.0</ele><time>2026-03-22T14:07:56.675Z</time></trkpt><trkpt lat="43.2135817" lon="2.3038633"><ele>130.0</ele><time>2026-03-22T14:07:57.676Z</time></trkpt><trkpt lat="43.21359" lon="2.303725"><ele>130.0</ele><time>2026-03-22T14:07:58.676Z</time></trkpt><trkpt lat="43.213545" lon="2.3035933"><ele>130.0</ele><time>2026-03-22T14:07:59.676Z</time></trkpt><trkpt lat="43.21351" lon="2.3034467"><ele>130.0</ele><time>2026-03-22T14:08:00.674Z</time></trkpt><trkpt lat="43.2134967" lon="2.3032767"><ele>130.0</ele><time>2026-03-22T14:08:01.675Z</time></trkpt><trkpt lat="43.2135" lon="2.303095"><ele>130.0</ele><time>2026-03-22T14:08:02.674Z</time></trkpt><trkpt lat="43.2135067" lon="2.302905"><ele>130.0</ele><time>2026-03-22T14:08:03.675Z</time></trkpt><trkpt lat="43.213515" lon="2.3026967"><ele>130.0</ele><time>2026-03-22T14:08:04.674Z</time></trkpt><trkpt lat="43.2135267" lon="2.3024883"><ele>130.0</ele><time>2026-03-22T14:08:05.673Z</time></trkpt><trkpt lat="43.2135367" lon="2.3022733"><ele>129.66666666666669</ele><time>2026-03-22T14:08:06.674Z</time></trkpt><trkpt lat="43.2135483" lon="2.302055"><ele>129.33333333333334</ele><time>2026-03-22T14:08:07.674Z</time></trkpt><trkpt lat="43.21356" lon="2.301835"><ele>129.0</ele><time>2026-03-22T14:08:08.675Z</time></trkpt><trkpt lat="43.2135767" lon="2.3016133"><ele>129.33333333333334</ele><time>2026-03-22T14:08:09.677Z</time></trkpt><trkpt lat="43.2135933" lon="2.3013867"><ele>129.66666666666669</ele><time>2026-03-22T14:08:10.675Z</time></trkpt><trkpt lat="43.21361" lon="2.3011617"><ele>130.0</ele><time>2026-03-22T14:08:11.674Z</time></trkpt><trkpt lat="43.2136283" lon="2.3009333"><ele>130.0</ele><time>2026-03-22T14:08:12.676Z</time></trkpt><trkpt lat="43.2136533" lon="2.3007017"><ele>130.0</ele><time>2026-03-22T14:08:13.674Z</time></trkpt><trkpt lat="43.21367" lon="2.3004683"><ele>130.0</ele><time>2026-03-22T14:08:14.675Z</time></trkpt><trkpt lat="43.2136867" lon="2.30024"><ele>130.0</ele><time>2026-03-22T14:08:15.674Z</time></trkpt><trkpt lat="43.2137017" lon="2.3000083"><ele>130.0</ele><time>2026-03-22T14:08:16.672Z</time></trkpt><trkpt lat="43.2137183" lon="2.29978"><ele>130.0</ele><time>2026-03-22T14:08:17.677Z</time></trkpt><trkpt lat="43.213735" lon="2.2995483"><ele>131.0</ele><time>2026-03-22T14:08:18.674Z</time></trkpt><trkpt lat="43.21375" lon="2.29932"><ele>132.0</ele><time>2026-03-22T14:08:19.675Z</time></trkpt><trkpt lat="43.21376" lon="2.29909"><ele>133.0</ele><time>2026-03-22T14:08:20.676Z</time></trkpt><trkpt lat="43.21377" lon="2.2988617"><ele>133.33333333333334</ele><time>2026-03-22T14:08:21.675Z</time></trkpt><trkpt lat="43.2137717" lon="2.29863"><ele>133.66666666666666</ele><time>2026-03-22T14:08:22.675Z</time></trkpt><trkpt lat="43.21377" lon="2.2983983"><ele>134.0</ele><time>2026-03-22T14:08:23.673Z</time></trkpt><trkpt lat="43.213765" lon="2.2981667"><ele>134.0</ele><time>2026-03-22T14:08:24.675Z</time></trkpt><trkpt lat="43.2137567" lon="2.2979333"><ele>134.0</ele><time>2026-03-22T14:08:25.676Z</time></trkpt><trkpt lat="43.213745" lon="2.2977033"><ele>134.0</ele><time>2026-03-22T14:08:26.676Z</time></trkpt><trkpt lat="43.2137367" lon="2.2974667"><ele>134.0</ele><time>2026-03-22T14:08:27.676Z</time></trkpt><trkpt lat="43.213725" lon="2.2972333"><ele>134.0</ele><time>2026-03-22T14:08:28.675Z</time></trkpt><trkpt lat="43.2137133" lon="2.297005"><ele>134.0</ele><time>2026-03-22T14:08:29.676Z</time></trkpt><trkpt lat="43.2137033" lon="2.2967783"><ele>134.0</ele><time>2026-03-22T14:08:30.676Z</time></trkpt><trkpt lat="43.2136983" lon="2.2965533"><ele>134.0</ele><time>2026-03-22T14:08:31.676Z</time></trkpt><trkpt lat="43.2136967" lon="2.29633"><ele>134.0</ele><time>2026-03-22T14:08:32.677Z</time></trkpt><trkpt lat="43.213695" lon="2.2961033"><ele>134.33333333333331</ele><time>2026-03-22T14:08:33.675Z</time></trkpt><trkpt lat="43.2136917" lon="2.2958783"><ele>134.66666666666666</ele><time>2026-03-22T14:08:34.675Z</time></trkpt><trkpt lat="43.2136867" lon="2.2956517"><ele>135.0</ele><time>2026-03-22T14:08:35.676Z</time></trkpt><trkpt lat="43.2136833" lon="2.2954233"><ele>135.0</ele><time>2026-03-22T14:08:36.678Z</time></trkpt><trkpt lat="43.21368" lon="2.2951933"><ele>135.0</ele><time>2026-03-22T14:08:37.677Z</time></trkpt><trkpt lat="43.2136817" lon="2.2949633"><ele>135.0</ele><time>2026-03-22T14:08:38.675Z</time></trkpt><trkpt lat="43.213685" lon="2.2947333"><ele>136.0</ele><time>2026-03-22T14:08:39.676Z</time></trkpt><trkpt lat="43.2136867" lon="2.2945017"><ele>137.0</ele><time>2026-03-22T14:08:40.675Z</time></trkpt><trkpt lat="43.213685" lon="2.2942717"><ele>138.0</ele><time>2026-03-22T14:08:41.675Z</time></trkpt><trkpt lat="43.2136833" lon="2.2940433"><ele>138.33333333333334</ele><time>2026-03-22T14:08:42.676Z</time></trkpt><trkpt lat="43.2136833" lon="2.2938133"><ele>138.66666666666669</ele><time>2026-03-22T14:08:43.675Z</time></trkpt><trkpt lat="43.2136883" lon="2.2935883"><ele>139.0</ele><time>2026-03-22T14:08:44.679Z</time></trkpt><trkpt lat="43.2137" lon="2.293355"><ele>139.0</ele><time>2026-03-22T14:08:45.673Z</time></trkpt><trkpt lat="43.213705" lon="2.2931267"><ele>139.0</ele><time>2026-03-22T14:08:46.674Z</time></trkpt><trkpt lat="43.21371" lon="2.2928983"><ele>139.0</ele><time>2026-03-22T14:08:47.677Z</time></trkpt><trkpt lat="43.21372" lon="2.29267"><ele>138.66666666666669</ele><time>2026-03-22T14:08:48.675Z</time></trkpt><trkpt lat="43.2137283" lon="2.2924367"><ele>138.33333333333334</ele><time>2026-03-22T14:08:49.674Z</time></trkpt><trkpt lat="43.2137383" lon="2.29221"><ele>138.0</ele><time>2026-03-22T14:08:50.676Z</time></trkpt><trkpt lat="43.2137517" lon="2.2919933"><ele>138.0</ele><time>2026-03-22T14:08:51.676Z</time></trkpt><trkpt lat="43.2137667" lon="2.2917867"><ele>138.0</ele><time>2026-03-22T14:08:52.675Z</time></trkpt><trkpt lat="43.2137833" lon="2.29159"><ele>138.0</ele><time>2026-03-22T14:08:53.674Z</time></trkpt><trkpt lat="43.21381" lon="2.2914017"><ele>138.0</ele><time>2026-03-22T14:08:54.674Z</time></trkpt><trkpt lat="43.2138583" lon="2.29122"><ele>138.25</ele><time>2026-03-22T14:08:55.674Z</time></trkpt><trkpt lat="43.21393" lon="2.2910583"><ele>138.5</ele><time>2026-03-22T14:08:56.675Z</time></trkpt><trkpt lat="43.2140217" lon="2.2909217"><ele>138.75</ele><time>2026-03-22T14:08:57.675Z</time></trkpt><trkpt lat="43.214125" lon="2.2908017"><ele>139.0</ele><time>2026-03-22T14:08:58.673Z</time></trkpt><trkpt lat="43.2142317" lon="2.2906933"><ele>138.75</ele><time>2026-03-22T14:08:59.673Z</time></trkpt><trkpt lat="43.2143367" lon="2.2905783"><ele>138.5</ele><time>2026-03-22T14:09:00.674Z</time></trkpt><trkpt lat="43.2144433" lon="2.2904617"><ele>138.25</ele><time>2026-03-22T14:09:01.674Z</time></trkpt><trkpt lat="43.2145367" lon="2.2903417"><ele>138.0</ele><time>2026-03-22T14:09:02.674Z</time></trkpt><trkpt lat="43.214615" lon="2.2902"><ele>138.0</ele><time>2026-03-22T14:09:03.673Z</time></trkpt><trkpt lat="43.21468" lon="2.2900317"><ele>138.0</ele><time>2026-03-22T14:09:04.675Z</time></trkpt><trkpt lat="43.2147517" lon="2.2898717"><ele>138.0</ele><time>2026-03-22T14:09:05.673Z</time></trkpt><trkpt lat="43.2148183" lon="2.289685"><ele>138.0</ele><time>2026-03-22T14:09:06.675Z</time></trkpt><trkpt lat="43.2148833" lon="2.28951"><ele>136.5</ele><time>2026-03-22T14:09:07.674Z</time></trkpt><trkpt lat="43.21496" lon="2.28934"><ele>135.0</ele><time>2026-03-22T14:09:08.673Z</time></trkpt><trkpt lat="43.2150533" lon="2.2892"><ele>133.5</ele><time>2026-03-22T14:09:09.675Z</time></trkpt><trkpt lat="43.2151733" lon="2.289085"><ele>132.0</ele><time>2026-03-22T14:09:10.673Z</time></trkpt><trkpt lat="43.2152983" lon="2.288965"><ele>132.75</ele><time>2026-03-22T14:09:11.673Z</time></trkpt><trkpt lat="43.215415" lon="2.2888533"><ele>133.5</ele><time>2026-03-22T14:09:12.675Z</time></trkpt><trkpt lat="43.2155267" lon="2.28874"><ele>134.25</ele><time>2026-03-22T14:09:13.677Z</time></trkpt><trkpt lat="43.2156317" lon="2.288625"><ele>135.0</ele><time>2026-03-22T14:09:14.675Z</time></trkpt><trkpt lat="43.2157433" lon="2.2885033"><ele>132.25</ele><time>2026-03-22T14:09:15.673Z</time></trkpt><trkpt lat="43.2158567" lon="2.28838"><ele>129.5</ele><time>2026-03-22T14:09:16.674Z</time></trkpt><trkpt lat="43.2159633" lon="2.2882483"><ele>126.75</ele><time>2026-03-22T14:09:17.676Z</time></trkpt><trkpt lat="43.21607" lon="2.2881267"><ele>124.0</ele><time>2026-03-22T14:09:18.673Z</time></trkpt><trkpt lat="43.216175" lon="2.2880083"><ele>124.0</ele><time>2026-03-22T14:09:19.673Z</time></trkpt><trkpt lat="43.2162667" lon="2.2878967"><ele>124.0</ele><time>2026-03-22T14:09:20.675Z</time></trkpt><trkpt lat="43.2163583" lon="2.2877967"><ele>124.0</ele><time>2026-03-22T14:09:21.675Z</time></trkpt><trkpt lat="43.216425" lon="2.2876967"><ele>124.0</ele><time>2026-03-22T14:09:22.673Z</time></trkpt><trkpt lat="43.2164683" lon="2.28758"><ele>124.0</ele><time>2026-03-22T14:09:23.672Z</time></trkpt><trkpt lat="43.216485" lon="2.2874583"><ele>124.0</ele><time>2026-03-22T14:09:24.675Z</time></trkpt><trkpt lat="43.216485" lon="2.2873467"><ele>124.00000000000001</ele><time>2026-03-22T14:09:25.675Z</time></trkpt><trkpt lat="43.2164633" lon="2.287245"><ele>124.0</ele><time>2026-03-22T14:09:26.678Z</time></trkpt><trkpt lat="43.2164483" lon="2.287145"><ele>124.0</ele><time>2026-03-22T14:09:27.674Z</time></trkpt><trkpt lat="43.2164417" lon="2.2870483"><ele>124.00000000000001</ele><time>2026-03-22T14:09:28.675Z</time></trkpt><trkpt lat="43.2164317" lon="2.2869567"><ele>124.0</ele><time>2026-03-22T14:09:29.674Z</time></trkpt><trkpt lat="43.2164067" lon="2.2868767"><ele>124.0</ele><time>2026-03-22T14:09:30.676Z</time></trkpt><trkpt lat="43.2163683" lon="2.2868017"><ele>124.33333333333334</ele><time>2026-03-22T14:09:31.676Z</time></trkpt><trkpt lat="43.21632" lon="2.28673"><ele>124.66666666666667</ele><time>2026-03-22T14:09:32.677Z</time></trkpt><trkpt lat="43.216265" lon="2.28666"><ele>125.0</ele><time>2026-03-22T14:09:33.675Z</time></trkpt><trkpt lat="43.2162133" lon="2.2865917"><ele>125.33333333333334</ele><time>2026-03-22T14:09:34.677Z</time></trkpt><trkpt lat="43.21617" lon="2.2865217"><ele>125.66666666666667</ele><time>2026-03-22T14:09:35.677Z</time></trkpt><trkpt lat="43.216125" lon="2.28646"><ele>126.0</ele><time>2026-03-22T14:09:36.675Z</time></trkpt><trkpt lat="43.2160433" lon="2.2863583"><ele>126.19999999999999</ele><time>2026-03-22T14:09:38.676Z</time></trkpt><trkpt lat="43.21599" lon="2.28625"><ele>126.39999999999999</ele><time>2026-03-22T14:09:40.675Z</time></trkpt><trkpt lat="43.21595" lon="2.286125"><ele>126.6</ele><time>2026-03-22T14:09:42.675Z</time></trkpt><trkpt lat="43.2159267" lon="2.2859883"><ele>126.8</ele><time>2026-03-22T14:09:44.675Z</time></trkpt><trkpt lat="43.2159133" lon="2.2858633"><ele>127.0</ele><time>2026-03-22T14:09:46.675Z</time></trkpt><trkpt lat="43.2159167" lon="2.2857467"><ele>127.0</ele><time>2026-03-22T14:09:48.676Z</time></trkpt><trkpt lat="43.215935" lon="2.2856517"><ele>126.99999999999999</ele><time>2026-03-22T14:09:50.675Z</time></trkpt><trkpt lat="43.2159783" lon="2.2855583"><ele>126.99999999999999</ele><time>2026-03-22T14:09:52.676Z</time></trkpt><trkpt lat="43.2160383" lon="2.2854467"><ele>127.0</ele><time>2026-03-22T14:09:54.676Z</time></trkpt><trkpt lat="43.2160967" lon="2.2853117"><ele>127.0</ele><time>2026-03-22T14:09:56.674Z</time></trkpt><trkpt lat="43.2161867" lon="2.2851767"><ele>127.28571428571429</ele><time>2026-03-22T14:09:58.674Z</time></trkpt><trkpt lat="43.2162417" lon="2.285105"><ele>127.57142857142856</ele><time>2026-03-22T14:09:59.674Z</time></trkpt><trkpt lat="43.2163" lon="2.2850367"><ele>127.85714285714285</ele><time>2026-03-22T14:10:00.675Z</time></trkpt><trkpt lat="43.21636" lon="2.2849733"><ele>128.14285714285714</ele><time>2026-03-22T14:10:01.673Z</time></trkpt><trkpt lat="43.2164183" lon="2.2849117"><ele>128.42857142857142</ele><time>2026-03-22T14:10:02.674Z</time></trkpt><trkpt lat="43.2164783" lon="2.284855"><ele>128.7142857142857</ele><time>2026-03-22T14:10:03.678Z</time></trkpt><trkpt lat="43.21653" lon="2.2847817"><ele>129.0</ele><time>2026-03-22T14:10:04.674Z</time></trkpt><trkpt lat="43.216575" lon="2.2846933"><ele>129.5</ele><time>2026-03-22T14:10:05.674Z</time></trkpt><trkpt lat="43.2166267" lon="2.2845817"><ele>130.0</ele><time>2026-03-22T14:10:06.676Z</time></trkpt><trkpt lat="43.2166667" lon="2.2844767"><ele>130.5</ele><time>2026-03-22T14:10:07.673Z</time></trkpt><trkpt lat="43.2166933" lon="2.2843733"><ele>131.0</ele><time>2026-03-22T14:10:08.674Z</time></trkpt><trkpt lat="43.21672" lon="2.2842517"><ele>131.5</ele><time>2026-03-22T14:10:09.675Z</time></trkpt><trkpt lat="43.21675" lon="2.2841417"><ele>132.0</ele><time>2026-03-22T14:10:10.678Z</time></trkpt><trkpt lat="43.21679" lon="2.28403"><ele>133.0</ele><time>2026-03-22T14:10:11.675Z</time></trkpt><trkpt lat="43.2168333" lon="2.2839117"><ele>134.0</ele><time>2026-03-22T14:10:12.674Z</time></trkpt><trkpt lat="43.216875" lon="2.283785"><ele>135.0</ele><time>2026-03-22T14:10:13.674Z</time></trkpt><trkpt lat="43.2169167" lon="2.2836517"><ele>136.0</ele><time>2026-03-22T14:10:14.676Z</time></trkpt><trkpt lat="43.2169583" lon="2.2835167"><ele>137.0</ele><time>2026-03-22T14:10:15.675Z</time></trkpt><trkpt lat="43.217" lon="2.2833867"><ele>137.0</ele><time>2026-03-22T14:10:16.674Z</time></trkpt><trkpt lat="43.2170467" lon="2.2832667"><ele>137.0</ele><time>2026-03-22T14:10:17.674Z</time></trkpt><trkpt lat="43.2170917" lon="2.2831417"><ele>137.0</ele><time>2026-03-22T14:10:18.673Z</time></trkpt><trkpt lat="43.2171233" lon="2.2830117"><ele>137.0</ele><time>2026-03-22T14:10:19.674Z</time></trkpt><trkpt lat="43.2171517" lon="2.282885"><ele>137.0</ele><time>2026-03-22T14:10:20.675Z</time></trkpt><trkpt lat="43.2171833" lon="2.2827567"><ele>137.2</ele><time>2026-03-22T14:10:21.678Z</time></trkpt><trkpt lat="43.217215" lon="2.2826133"><ele>137.39999999999998</ele><time>2026-03-22T14:10:22.674Z</time></trkpt><trkpt lat="43.2172417" lon="2.2824717"><ele>137.60000000000002</ele><time>2026-03-22T14:10:23.674Z</time></trkpt><trkpt lat="43.2172767" lon="2.2823367"><ele>137.8</ele><time>2026-03-22T14:10:24.674Z</time></trkpt><trkpt lat="43.2173083" lon="2.2822067"><ele>138.0</ele><time>2026-03-22T14:10:25.674Z</time></trkpt><trkpt lat="43.2173367" lon="2.282075"><ele>138.20000000000002</ele><time>2026-03-22T14:10:26.674Z</time></trkpt><trkpt lat="43.2173667" lon="2.2819417"><ele>138.4</ele><time>2026-03-22T14:10:27.674Z</time></trkpt><trkpt lat="43.2174" lon="2.2818033"><ele>138.60000000000002</ele><time>2026-03-22T14:10:28.673Z</time></trkpt><trkpt lat="43.2174317" lon="2.2816633"><ele>138.8</ele><time>2026-03-22T14:10:29.674Z</time></trkpt><trkpt lat="43.21746" lon="2.2815267"><ele>139.0</ele><time>2026-03-22T14:10:30.674Z</time></trkpt><trkpt lat="43.2174817" lon="2.281405"><ele>139.0</ele><time>2026-03-22T14:10:31.674Z</time></trkpt><trkpt lat="43.2174967" lon="2.28129"><ele>139.0</ele><time>2026-03-22T14:10:32.674Z</time></trkpt><trkpt lat="43.21751" lon="2.2811933"><ele>139.0</ele><time>2026-03-22T14:10:33.675Z</time></trkpt><trkpt lat="43.2175217" lon="2.2810983"><ele>139.0</ele><time>2026-03-22T14:10:34.673Z</time></trkpt><trkpt lat="43.21753" lon="2.2809967"><ele>139.0</ele><time>2026-03-22T14:10:35.674Z</time></trkpt><trkpt lat="43.2175467" lon="2.2808783"><ele>139.0</ele><time>2026-03-22T14:10:36.674Z</time></trkpt><trkpt lat="43.217575" lon="2.280745"><ele>139.0</ele><time>2026-03-22T14:10:37.674Z</time></trkpt><trkpt lat="43.2176017" lon="2.2806017"><ele>139.0</ele><time>2026-03-22T14:10:38.674Z</time></trkpt><trkpt lat="43.217625" lon="2.2804467"><ele>139.0</ele><time>2026-03-22T14:10:39.675Z</time></trkpt><trkpt lat="43.21765" lon="2.2802833"><ele>139.0</ele><time>2026-03-22T14:10:40.674Z</time></trkpt><trkpt lat="43.2176717" lon="2.2801183"><ele>139.75</ele><time>2026-03-22T14:10:41.675Z</time></trkpt><trkpt lat="43.217695" lon="2.279955"><ele>140.5</ele><time>2026-03-22T14:10:42.673Z</time></trkpt><trkpt lat="43.217715" lon="2.27979"><ele>141.25</ele><time>2026-03-22T14:10:43.674Z</time></trkpt><trkpt lat="43.2177317" lon="2.27963"><ele>142.0</ele><time>2026-03-22T14:10:44.675Z</time></trkpt><trkpt lat="43.21775" lon="2.279475"><ele>142.2</ele><time>2026-03-22T14:10:45.674Z</time></trkpt><trkpt lat="43.217755" lon="2.2793117"><ele>142.39999999999998</ele><time>2026-03-22T14:10:46.673Z</time></trkpt><trkpt lat="43.2177583" lon="2.2791517"><ele>142.60000000000002</ele><time>2026-03-22T14:10:47.674Z</time></trkpt><trkpt lat="43.2177617" lon="2.2790083"><ele>142.8</ele><time>2026-03-22T14:10:48.673Z</time></trkpt><trkpt lat="43.2177583" lon="2.278875"><ele>143.0</ele><time>2026-03-22T14:10:49.675Z</time></trkpt><trkpt lat="43.2177517" lon="2.2787433"><ele>143.0</ele><time>2026-03-22T14:10:50.675Z</time></trkpt><trkpt lat="43.2177383" lon="2.2786067"><ele>143.0</ele><time>2026-03-22T14:10:51.675Z</time></trkpt><trkpt lat="43.2177233" lon="2.2784683"><ele>143.0</ele><time>2026-03-22T14:10:52.673Z</time></trkpt><trkpt lat="43.2176967" lon="2.278315"><ele>143.0</ele><time>2026-03-22T14:10:53.673Z</time></trkpt><trkpt lat="43.21766" lon="2.278145"><ele>143.0</ele><time>2026-03-22T14:10:54.674Z</time></trkpt><trkpt lat="43.217625" lon="2.2779833"><ele>142.75</ele><time>2026-03-22T14:10:55.676Z</time></trkpt><trkpt lat="43.2175917" lon="2.27781"><ele>142.5</ele><time>2026-03-22T14:10:56.673Z</time></trkpt><trkpt lat="43.217565" lon="2.27763"><ele>142.25</ele><time>2026-03-22T14:10:57.673Z</time></trkpt><trkpt lat="43.2175417" lon="2.2774483"><ele>142.0</ele><time>2026-03-22T14:10:58.673Z</time></trkpt><trkpt lat="43.2175217" lon="2.2772667"><ele>142.0</ele><time>2026-03-22T14:10:59.675Z</time></trkpt><trkpt lat="43.2175" lon="2.2770883"><ele>142.0</ele><time>2026-03-22T14:11:00.681Z</time></trkpt><trkpt lat="43.2174783" lon="2.27692"><ele>142.0</ele><time>2026-03-22T14:11:01.677Z</time></trkpt><trkpt lat="43.21746" lon="2.27674"><ele>142.0</ele><time>2026-03-22T14:11:02.678Z</time></trkpt><trkpt lat="43.21745" lon="2.276555"><ele>142.0</ele><time>2026-03-22T14:11:03.676Z</time></trkpt><trkpt lat="43.2174517" lon="2.2763733"><ele>142.0</ele><time>2026-03-22T14:11:04.676Z</time></trkpt><trkpt lat="43.21746" lon="2.2762017"><ele>142.0</ele><time>2026-03-22T14:11:05.675Z</time></trkpt><trkpt lat="43.2174667" lon="2.2760417"><ele>142.0</ele><time>2026-03-22T14:11:06.676Z</time></trkpt><trkpt lat="43.21747" lon="2.275885"><ele>142.0</ele><time>2026-03-22T14:11:07.676Z</time></trkpt><trkpt lat="43.2174733" lon="2.2757283"><ele>142.0</ele><time>2026-03-22T14:11:08.678Z</time></trkpt><trkpt lat="43.2174767" lon="2.27557"><ele>142.0</ele><time>2026-03-22T14:11:09.677Z</time></trkpt><trkpt lat="43.217475" lon="2.2754"><ele>142.0</ele><time>2026-03-22T14:11:10.673Z</time></trkpt><trkpt lat="43.2174717" lon="2.27523"><ele>142.25</ele><time>2026-03-22T14:11:11.675Z</time></trkpt><trkpt lat="43.217465" lon="2.27506"><ele>142.5</ele><time>2026-03-22T14:11:12.675Z</time></trkpt><trkpt lat="43.2174617" lon="2.2748917"><ele>142.75</ele><time>2026-03-22T14:11:13.675Z</time></trkpt><trkpt lat="43.217465" lon="2.27472"><ele>143.0</ele><time>2026-03-22T14:11:14.675Z</time></trkpt><trkpt lat="43.2174783" lon="2.274545"><ele>143.5</ele><time>2026-03-22T14:11:15.678Z</time></trkpt><trkpt lat="43.217495" lon="2.2743633"><ele>144.0</ele><time>2026-03-22T14:11:16.674Z</time></trkpt><trkpt lat="43.2175267" lon="2.2741883"><ele>144.5</ele><time>2026-03-22T14:11:17.675Z</time></trkpt><trkpt lat="43.2175683" lon="2.2740217"><ele>145.0</ele><time>2026-03-22T14:11:18.678Z</time></trkpt><trkpt lat="43.2176117" lon="2.2738667"><ele>145.5</ele><time>2026-03-22T14:11:19.675Z</time></trkpt><trkpt lat="43.2176517" lon="2.2737017"><ele>146.0</ele><time>2026-03-22T14:11:20.676Z</time></trkpt><trkpt lat="43.21769" lon="2.2735367"><ele>146.5</ele><time>2026-03-22T14:11:21.674Z</time></trkpt><trkpt lat="43.217725" lon="2.2733633"><ele>147.0</ele><time>2026-03-22T14:11:22.674Z</time></trkpt><trkpt lat="43.21776" lon="2.2731833"><ele>147.0</ele><time>2026-03-22T14:11:23.676Z</time></trkpt><trkpt lat="43.217795" lon="2.273"><ele>147.0</ele><time>2026-03-22T14:11:24.674Z</time></trkpt><trkpt lat="43.2178283" lon="2.2728183"><ele>147.0</ele><time>2026-03-22T14:11:25.675Z</time></trkpt><trkpt lat="43.217865" lon="2.2726467"><ele>147.0</ele><time>2026-03-22T14:11:26.674Z</time></trkpt><trkpt lat="43.2179017" lon="2.272475"><ele>147.0</ele><time>2026-03-22T14:11:27.674Z</time></trkpt><trkpt lat="43.2179383" lon="2.2723017"><ele>147.0</ele><time>2026-03-22T14:11:28.674Z</time></trkpt><trkpt lat="43.2179717" lon="2.2721317"><ele>147.0</ele><time>2026-03-22T14:11:29.676Z</time></trkpt><trkpt lat="43.2180033" lon="2.271965"><ele>147.0</ele><time>2026-03-22T14:11:30.675Z</time></trkpt><trkpt lat="43.2180333" lon="2.271815"><ele>146.79999999999998</ele><time>2026-03-22T14:11:31.675Z</time></trkpt><trkpt lat="43.2180617" lon="2.2716733"><ele>146.6</ele><time>2026-03-22T14:11:32.678Z</time></trkpt><trkpt lat="43.2180833" lon="2.2715383"><ele>146.39999999999998</ele><time>2026-03-22T14:11:33.674Z</time></trkpt><trkpt lat="43.2181233" lon="2.2714117"><ele>146.2</ele><time>2026-03-22T14:11:34.677Z</time></trkpt><trkpt lat="43.218175" lon="2.2712767"><ele>146.0</ele><time>2026-03-22T14:11:35.676Z</time></trkpt><trkpt lat="43.2182283" lon="2.2711267"><ele>146.75</ele><time>2026-03-22T14:11:36.677Z</time></trkpt><trkpt lat="43.2182767" lon="2.2709783"><ele>147.5</ele><time>2026-03-22T14:11:37.677Z</time></trkpt><trkpt lat="43.2183267" lon="2.2708283"><ele>148.25</ele><time>2026-03-22T14:11:38.677Z</time></trkpt><trkpt lat="43.2183767" lon="2.270685"><ele>149.0</ele><time>2026-03-22T14:11:39.676Z</time></trkpt><trkpt lat="43.2184167" lon="2.27055"><ele>149.0</ele><time>2026-03-22T14:11:40.675Z</time></trkpt><trkpt lat="43.21846" lon="2.270425"><ele>149.0</ele><time>2026-03-22T14:11:41.676Z</time></trkpt><trkpt lat="43.2184983" lon="2.27031"><ele>149.0</ele><time>2026-03-22T14:11:42.676Z</time></trkpt><trkpt lat="43.2185333" lon="2.2702033"><ele>149.0</ele><time>2026-03-22T14:11:43.676Z</time></trkpt><trkpt lat="43.2185617" lon="2.2701083"><ele>149.0</ele><time>2026-03-22T14:11:44.676Z</time></trkpt><trkpt lat="43.2185933" lon="2.2700117"><ele>149.0</ele><time>2026-03-22T14:11:45.676Z</time></trkpt><trkpt lat="43.2186233" lon="2.2699167"><ele>149.0</ele><time>2026-03-22T14:11:46.673Z</time></trkpt><trkpt lat="43.218655" lon="2.26982"><ele>149.0</ele><time>2026-03-22T14:11:47.674Z</time></trkpt><trkpt lat="43.2186867" lon="2.2697233"><ele>149.0</ele><time>2026-03-22T14:11:48.673Z</time></trkpt><trkpt lat="43.2187217" lon="2.2696183"><ele>149.0</ele><time>2026-03-22T14:11:49.674Z</time></trkpt><trkpt lat="43.21876" lon="2.269505"><ele>149.0</ele><time>2026-03-22T14:11:50.674Z</time></trkpt><trkpt lat="43.2188" lon="2.26938"><ele>149.0</ele><time>2026-03-22T14:11:51.676Z</time></trkpt><trkpt lat="43.2188417" lon="2.2692567"><ele>148.66666666666666</ele><time>2026-03-22T14:11:52.675Z</time></trkpt><trkpt lat="43.2188767" lon="2.2691417"><ele>148.33333333333331</ele><time>2026-03-22T14:11:53.676Z</time></trkpt><trkpt lat="43.2189067" lon="2.2690433"><ele>148.0</ele><time>2026-03-22T14:11:54.674Z</time></trkpt><trkpt lat="43.2189317" lon="2.2689583"><ele>147.66666666666666</ele><time>2026-03-22T14:11:55.674Z</time></trkpt><trkpt lat="43.2189633" lon="2.2688167"><ele>147.33333333333334</ele><time>2026-03-22T14:11:57.675Z</time></trkpt><trkpt lat="43.2189333" lon="2.2686917"><ele>147.0</ele><time>2026-03-22T14:11:59.677Z</time></trkpt><trkpt lat="43.21882" lon="2.2686"><ele>146.6</ele><time>2026-03-22T14:12:01.674Z</time></trkpt><trkpt lat="43.2187267" lon="2.2685533"><ele>146.2</ele><time>2026-03-22T14:12:02.676Z</time></trkpt><trkpt lat="43.2186333" lon="2.26849"><ele>145.8</ele><time>2026-03-22T14:12:03.675Z</time></trkpt><trkpt lat="43.21853" lon="2.2684217"><ele>145.4</ele><time>2026-03-22T14:12:04.673Z</time></trkpt><trkpt lat="43.218425" lon="2.2683533"><ele>145.0</ele><time>2026-03-22T14:12:05.676Z</time></trkpt><trkpt lat="43.21831" lon="2.26829"><ele>145.0</ele><time>2026-03-22T14:12:06.674Z</time></trkpt><trkpt lat="43.218195" lon="2.2682217"><ele>145.0</ele><time>2026-03-22T14:12:07.674Z</time></trkpt><trkpt lat="43.2180783" lon="2.2681467"><ele>145.0</ele><time>2026-03-22T14:12:08.676Z</time></trkpt><trkpt lat="43.217955" lon="2.2680667"><ele>145.0</ele><time>2026-03-22T14:12:09.673Z</time></trkpt><trkpt lat="43.2178383" lon="2.267985"><ele>144.4</ele><time>2026-03-22T14:12:10.675Z</time></trkpt><trkpt lat="43.21773" lon="2.2679067"><ele>143.8</ele><time>2026-03-22T14:12:11.673Z</time></trkpt><trkpt lat="43.2176283" lon="2.2678383"><ele>143.2</ele><time>2026-03-22T14:12:12.674Z</time></trkpt><trkpt lat="43.217535" lon="2.2677733"><ele>142.6</ele><time>2026-03-22T14:12:13.674Z</time></trkpt><trkpt lat="43.2174467" lon="2.267715"><ele>142.0</ele><time>2026-03-22T14:12:14.673Z</time></trkpt><trkpt lat="43.2173667" lon="2.2676633"><ele>142.5</ele><time>2026-03-22T14:12:15.677Z</time></trkpt><trkpt lat="43.2172933" lon="2.26761"><ele>143.0</ele><time>2026-03-22T14:12:16.674Z</time></trkpt><trkpt lat="43.2172217" lon="2.2675633"><ele>143.5</ele><time>2026-03-22T14:12:17.674Z</time></trkpt><trkpt lat="43.2171533" lon="2.2675217"><ele>144.0</ele><time>2026-03-22T14:12:18.675Z</time></trkpt><trkpt lat="43.2170917" lon="2.26749"><ele>144.5</ele><time>2026-03-22T14:12:19.677Z</time></trkpt><trkpt lat="43.217035" lon="2.2674483"><ele>145.0</ele><time>2026-03-22T14:12:20.676Z</time></trkpt><trkpt lat="43.2169333" lon="2.26737"><ele>145.0</ele><time>2026-03-22T14:12:22.673Z</time></trkpt><trkpt lat="43.2168283" lon="2.2673033"><ele>145.0</ele><time>2026-03-22T14:12:24.675Z</time></trkpt><trkpt lat="43.2167333" lon="2.2672133"><ele>145.0</ele><time>2026-03-22T14:12:26.674Z</time></trkpt><trkpt lat="43.2166817" lon="2.2670633"><ele>145.0</ele><time>2026-03-22T14:12:28.674Z</time></trkpt><trkpt lat="43.21667" lon="2.2669767"><ele>145.0</ele><time>2026-03-22T14:12:29.676Z</time></trkpt><trkpt lat="43.21663" lon="2.26683"><ele>144.83333333333334</ele><time>2026-03-22T14:12:31.675Z</time></trkpt><trkpt lat="43.2165333" lon="2.2667383"><ele>144.66666666666669</ele><time>2026-03-22T14:12:33.674Z</time></trkpt><trkpt lat="43.21647" lon="2.266705"><ele>144.5</ele><time>2026-03-22T14:12:34.675Z</time></trkpt><trkpt lat="43.216405" lon="2.2666717"><ele>144.33333333333334</ele><time>2026-03-22T14:12:35.681Z</time></trkpt><trkpt lat="43.216335" lon="2.2666333"><ele>144.16666666666666</ele><time>2026-03-22T14:12:36.674Z</time></trkpt><trkpt lat="43.2162633" lon="2.2665933"><ele>144.0</ele><time>2026-03-22T14:12:37.675Z</time></trkpt><trkpt lat="43.2161833" lon="2.2665567"><ele>144.71428571428572</ele><time>2026-03-22T14:12:38.674Z</time></trkpt><trkpt lat="43.2161133" lon="2.2665183"><ele>145.42857142857144</ele><time>2026-03-22T14:12:39.675Z</time></trkpt><trkpt lat="43.2160517" lon="2.2664717"><ele>146.14285714285714</ele><time>2026-03-22T14:12:40.674Z</time></trkpt><trkpt lat="43.2159967" lon="2.2664117"><ele>146.85714285714286</ele><time>2026-03-22T14:12:41.675Z</time></trkpt><trkpt lat="43.2159533" lon="2.2663333"><ele>147.57142857142856</ele><time>2026-03-22T14:12:42.674Z</time></trkpt><trkpt lat="43.2159333" lon="2.2662483"><ele>148.28571428571428</ele><time>2026-03-22T14:12:43.675Z</time></trkpt><trkpt lat="43.215945" lon="2.26615"><ele>149.0</ele><time>2026-03-22T14:12:44.676Z</time></trkpt><trkpt lat="43.2159683" lon="2.26605"><ele>149.0</ele><time>2026-03-22T14:12:45.674Z</time></trkpt><trkpt lat="43.216005" lon="2.2659433"><ele>149.0</ele><time>2026-03-22T14:12:46.675Z</time></trkpt><trkpt lat="43.2160467" lon="2.2658117"><ele>149.0</ele><time>2026-03-22T14:12:47.675Z</time></trkpt><trkpt lat="43.216085" lon="2.2656667"><ele>149.0</ele><time>2026-03-22T14:12:48.674Z</time></trkpt><trkpt lat="43.2161367" lon="2.26551"><ele>149.0</ele><time>2026-03-22T14:12:49.674Z</time></trkpt><trkpt lat="43.216185" lon="2.2653617"><ele>149.0</ele><time>2026-03-22T14:12:50.676Z</time></trkpt><trkpt lat="43.21623" lon="2.2652067"><ele>149.0</ele><time>2026-03-22T14:12:51.674Z</time></trkpt><trkpt lat="43.21627" lon="2.2650417"><ele>149.0</ele><time>2026-03-22T14:12:52.674Z</time></trkpt><trkpt lat="43.216315" lon="2.264865"><ele>149.0</ele><time>2026-03-22T14:12:53.675Z</time></trkpt><trkpt lat="43.21636" lon="2.26469"><ele>149.0</ele><time>2026-03-22T14:12:54.675Z</time></trkpt><trkpt lat="43.2164" lon="2.264515"><ele>149.0</ele><time>2026-03-22T14:12:55.675Z</time></trkpt><trkpt lat="43.216445" lon="2.264335"><ele>149.0</ele><time>2026-03-22T14:12:56.684Z</time></trkpt><trkpt lat="43.216495" lon="2.2641533"><ele>149.0</ele><time>2026-03-22T14:12:57.675Z</time></trkpt><trkpt lat="43.21655" lon="2.2639733"><ele>148.25</ele><time>2026-03-22T14:12:58.675Z</time></trkpt><trkpt lat="43.2166083" lon="2.2637933"><ele>147.5</ele><time>2026-03-22T14:12:59.674Z</time></trkpt><trkpt lat="43.2166633" lon="2.2636133"><ele>146.75</ele><time>2026-03-22T14:13:00.677Z</time></trkpt><trkpt lat="43.2167133" lon="2.2634367"><ele>146.0</ele><time>2026-03-22T14:13:01.675Z</time></trkpt><trkpt lat="43.2167567" lon="2.2632717"><ele>146.0</ele><time>2026-03-22T14:13:02.676Z</time></trkpt><trkpt lat="43.2167933" lon="2.2631233"><ele>146.0</ele><time>2026-03-22T14:13:03.676Z</time></trkpt><trkpt lat="43.2168283" lon="2.2629867"><ele>146.0</ele><time>2026-03-22T14:13:04.676Z</time></trkpt><trkpt lat="43.2168617" lon="2.2628517"><ele>146.0</ele><time>2026-03-22T14:13:05.675Z</time></trkpt><trkpt lat="43.2168917" lon="2.26273"><ele>146.0</ele><time>2026-03-22T14:13:06.675Z</time></trkpt><trkpt lat="43.2169167" lon="2.2626233"><ele>146.33333333333331</ele><time>2026-03-22T14:13:07.674Z</time></trkpt><trkpt lat="43.216935" lon="2.262535"><ele>146.66666666666666</ele><time>2026-03-22T14:13:08.674Z</time></trkpt><trkpt lat="43.2169583" lon="2.26241"><ele>147.0</ele><time>2026-03-22T14:13:10.674Z</time></trkpt><trkpt lat="43.2170267" lon="2.2623"><ele>147.33333333333334</ele><time>2026-03-22T14:13:12.674Z</time></trkpt><trkpt lat="43.217085" lon="2.2622433"><ele>147.66666666666669</ele><time>2026-03-22T14:13:13.675Z</time></trkpt><trkpt lat="43.21715" lon="2.2621767"><ele>148.0</ele><time>2026-03-22T14:13:14.676Z</time></trkpt><trkpt lat="43.21722" lon="2.2621017"><ele>148.75</ele><time>2026-03-22T14:13:15.675Z</time></trkpt><trkpt lat="43.2172967" lon="2.2620067"><ele>149.5</ele><time>2026-03-22T14:13:16.674Z</time></trkpt><trkpt lat="43.2173817" lon="2.2619067"><ele>150.25</ele><time>2026-03-22T14:13:17.675Z</time></trkpt><trkpt lat="43.2174683" lon="2.2618017"><ele>151.0</ele><time>2026-03-22T14:13:18.673Z</time></trkpt><trkpt lat="43.2175633" lon="2.261685"><ele>151.25</ele><time>2026-03-22T14:13:19.674Z</time></trkpt><trkpt lat="43.2176633" lon="2.26156"><ele>151.5</ele><time>2026-03-22T14:13:20.676Z</time></trkpt><trkpt lat="43.217765" lon="2.2614317"><ele>151.75</ele><time>2026-03-22T14:13:21.675Z</time></trkpt><trkpt lat="43.2178683" lon="2.2612983"><ele>152.0</ele><time>2026-03-22T14:13:22.674Z</time></trkpt><trkpt lat="43.2179783" lon="2.26116"><ele>152.33333333333331</ele><time>2026-03-22T14:13:23.675Z</time></trkpt><trkpt lat="43.218095" lon="2.2610183"><ele>152.66666666666666</ele><time>2026-03-22T14:13:24.673Z</time></trkpt><trkpt lat="43.21821" lon="2.2608733"><ele>153.0</ele><time>2026-03-22T14:13:25.674Z</time></trkpt><trkpt lat="43.2183267" lon="2.26073"><ele>153.0</ele><time>2026-03-22T14:13:26.683Z</time></trkpt><trkpt lat="43.21844" lon="2.2605917"><ele>153.0</ele><time>2026-03-22T14:13:27.674Z</time></trkpt><trkpt lat="43.218545" lon="2.2604567"><ele>153.0</ele><time>2026-03-22T14:13:28.674Z</time></trkpt><trkpt lat="43.21865" lon="2.2603283"><ele>153.0</ele><time>2026-03-22T14:13:29.677Z</time></trkpt><trkpt lat="43.218755" lon="2.260215"><ele>153.0</ele><time>2026-03-22T14:13:30.674Z</time></trkpt><trkpt lat="43.2188633" lon="2.26012"><ele>153.0</ele><time>2026-03-22T14:13:31.675Z</time></trkpt><trkpt lat="43.2189733" lon="2.2600367"><ele>153.0</ele><time>2026-03-22T14:13:32.675Z</time></trkpt><trkpt lat="43.21908" lon="2.259965"><ele>153.0</ele><time>2026-03-22T14:13:33.674Z</time></trkpt><trkpt lat="43.2191917" lon="2.259905"><ele>153.20000000000002</ele><time>2026-03-22T14:13:34.673Z</time></trkpt><trkpt lat="43.2192983" lon="2.2598567"><ele>153.4</ele><time>2026-03-22T14:13:35.674Z</time></trkpt><trkpt lat="43.219395" lon="2.2598117"><ele>153.60000000000002</ele><time>2026-03-22T14:13:36.675Z</time></trkpt><trkpt lat="43.2194883" lon="2.259775"><ele>153.8</ele><time>2026-03-22T14:13:37.674Z</time></trkpt><trkpt lat="43.2195767" lon="2.25973"><ele>154.0</ele><time>2026-03-22T14:13:38.674Z</time></trkpt><trkpt lat="43.2196683" lon="2.2596867"><ele>154.0</ele><time>2026-03-22T14:13:39.674Z</time></trkpt><trkpt lat="43.2197517" lon="2.25963"><ele>154.0</ele><time>2026-03-22T14:13:40.673Z</time></trkpt><trkpt lat="43.219835" lon="2.2595533"><ele>154.0</ele><time>2026-03-22T14:13:41.674Z</time></trkpt><trkpt lat="43.2199167" lon="2.2594667"><ele>154.0</ele><time>2026-03-22T14:13:42.674Z</time></trkpt><trkpt lat="43.22" lon="2.2593833"><ele>154.0</ele><time>2026-03-22T14:13:43.675Z</time></trkpt><trkpt lat="43.2200883" lon="2.259305"><ele>154.6</ele><time>2026-03-22T14:13:44.676Z</time></trkpt><trkpt lat="43.2201767" lon="2.2592317"><ele>155.2</ele><time>2026-03-22T14:13:45.674Z</time></trkpt><trkpt lat="43.2202683" lon="2.2591667"><ele>155.79999999999998</ele><time>2026-03-22T14:13:46.674Z</time></trkpt><trkpt lat="43.2203617" lon="2.2591067"><ele>156.4</ele><time>2026-03-22T14:13:47.673Z</time></trkpt><trkpt lat="43.2204517" lon="2.2590533"><ele>157.0</ele><time>2026-03-22T14:13:48.674Z</time></trkpt><trkpt lat="43.2205367" lon="2.2590033"><ele>157.0</ele><time>2026-03-22T14:13:49.674Z</time></trkpt><trkpt lat="43.2206233" lon="2.2589533"><ele>157.0</ele><time>2026-03-22T14:13:50.674Z</time></trkpt><trkpt lat="43.2207067" lon="2.2588983"><ele>157.0</ele><time>2026-03-22T14:13:51.676Z</time></trkpt><trkpt lat="43.2207883" lon="2.2588367"><ele>157.0</ele><time>2026-03-22T14:13:52.674Z</time></trkpt><trkpt lat="43.2208667" lon="2.25877"><ele>157.0</ele><time>2026-03-22T14:13:53.676Z</time></trkpt><trkpt lat="43.220935" lon="2.2587017"><ele>157.5</ele><time>2026-03-22T14:13:54.675Z</time></trkpt><trkpt lat="43.220995" lon="2.25863"><ele>158.0</ele><time>2026-03-22T14:13:55.677Z</time></trkpt><trkpt lat="43.2210617" lon="2.2585583"><ele>158.5</ele><time>2026-03-22T14:13:56.676Z</time></trkpt><trkpt lat="43.2211317" lon="2.258485"><ele>159.0</ele><time>2026-03-22T14:13:57.674Z</time></trkpt><trkpt lat="43.2212033" lon="2.2584067"><ele>159.5</ele><time>2026-03-22T14:13:58.673Z</time></trkpt><trkpt lat="43.2212783" lon="2.258325"><ele>160.0</ele><time>2026-03-22T14:13:59.674Z</time></trkpt><trkpt lat="43.22136" lon="2.2582367"><ele>160.0</ele><time>2026-03-22T14:14:00.674Z</time></trkpt><trkpt lat="43.221445" lon="2.2581483"><ele>160.0</ele><time>2026-03-22T14:14:01.676Z</time></trkpt><trkpt lat="43.2215333" lon="2.2580617"><ele>160.0</ele><time>2026-03-22T14:14:02.674Z</time></trkpt><trkpt lat="43.2216133" lon="2.25797"><ele>160.0</ele><time>2026-03-22T14:14:03.675Z</time></trkpt><trkpt lat="43.2216933" lon="2.257875"><ele>160.0</ele><time>2026-03-22T14:14:04.674Z</time></trkpt><trkpt lat="43.2217767" lon="2.2577817"><ele>160.2</ele><time>2026-03-22T14:14:05.675Z</time></trkpt><trkpt lat="43.221865" lon="2.2576867"><ele>160.4</ele><time>2026-03-22T14:14:06.678Z</time></trkpt><trkpt lat="43.221955" lon="2.2576017"><ele>160.60000000000002</ele><time>2026-03-22T14:14:07.674Z</time></trkpt><trkpt lat="43.2220583" lon="2.25753"><ele>160.8</ele><time>2026-03-22T14:14:08.676Z</time></trkpt><trkpt lat="43.222155" lon="2.2574617"><ele>161.0</ele><time>2026-03-22T14:14:09.673Z</time></trkpt><trkpt lat="43.2222567" lon="2.2574"><ele>160.5</ele><time>2026-03-22T14:14:10.677Z</time></trkpt><trkpt lat="43.22236" lon="2.2573433"><ele>160.0</ele><time>2026-03-22T14:14:11.676Z</time></trkpt><trkpt lat="43.2224683" lon="2.257275"><ele>159.5</ele><time>2026-03-22T14:14:12.676Z</time></trkpt><trkpt lat="43.2225733" lon="2.25721"><ele>159.0</ele><time>2026-03-22T14:14:13.677Z</time></trkpt><trkpt lat="43.2226733" lon="2.25715"><ele>158.6</ele><time>2026-03-22T14:14:14.675Z</time></trkpt><trkpt lat="43.2227783" lon="2.2570867"><ele>158.2</ele><time>2026-03-22T14:14:15.676Z</time></trkpt><trkpt lat="43.22288" lon="2.2570267"><ele>157.79999999999998</ele><time>2026-03-22T14:14:16.676Z</time></trkpt><trkpt lat="43.22298" lon="2.25697"><ele>157.4</ele><time>2026-03-22T14:14:17.674Z</time></trkpt><trkpt lat="43.22308" lon="2.2569167"><ele>157.0</ele><time>2026-03-22T14:14:18.677Z</time></trkpt><trkpt lat="43.2231733" lon="2.256865"><ele>157.0</ele><time>2026-03-22T14:14:19.674Z</time></trkpt><trkpt lat="43.223265" lon="2.256815"><ele>157.0</ele><time>2026-03-22T14:14:20.676Z</time></trkpt><trkpt lat="43.2233483" lon="2.2567617"><ele>157.0</ele><time>2026-03-22T14:14:21.674Z</time></trkpt><trkpt lat="43.2234317" lon="2.2567133"><ele>157.0</ele><time>2026-03-22T14:14:22.674Z</time></trkpt><trkpt lat="43.22352" lon="2.25667"><ele>157.0</ele><time>2026-03-22T14:14:23.673Z</time></trkpt><trkpt lat="43.2236083" lon="2.256625"><ele>157.0</ele><time>2026-03-22T14:14:24.674Z</time></trkpt><trkpt lat="43.223695" lon="2.2565867"><ele>157.0</ele><time>2026-03-22T14:14:25.678Z</time></trkpt><trkpt lat="43.22378" lon="2.256545"><ele>157.0</ele><time>2026-03-22T14:14:26.675Z</time></trkpt><trkpt lat="43.2238583" lon="2.2565117"><ele>157.0</ele><time>2026-03-22T14:14:27.674Z</time></trkpt><trkpt lat="43.223935" lon="2.256475"><ele>157.0</ele><time>2026-03-22T14:14:28.674Z</time></trkpt><trkpt lat="43.2240067" lon="2.256445"><ele>157.0</ele><time>2026-03-22T14:14:29.675Z</time></trkpt><trkpt lat="43.2240733" lon="2.2564067"><ele>156.79999999999998</ele><time>2026-03-22T14:14:30.676Z</time></trkpt><trkpt lat="43.2241783" lon="2.2563583"><ele>156.6</ele><time>2026-03-22T14:14:32.675Z</time></trkpt><trkpt lat="43.22425" lon="2.256255"><ele>156.39999999999998</ele><time>2026-03-22T14:14:34.673Z</time></trkpt><trkpt lat="43.2242883" lon="2.2561317"><ele>156.2</ele><time>2026-03-22T14:14:36.673Z</time></trkpt><trkpt lat="43.2243367" lon="2.25604"><ele>156.0</ele><time>2026-03-22T14:14:38.674Z</time></trkpt><trkpt lat="43.2243867" lon="2.2559667"><ele>156.0</ele><time>2026-03-22T14:14:40.676Z</time></trkpt><trkpt lat="43.2244483" lon="2.2559083"><ele>156.0</ele><time>2026-03-22T14:14:42.674Z</time></trkpt><trkpt lat="43.2245" lon="2.25584"><ele>156.0</ele><time>2026-03-22T14:14:45.675Z</time></trkpt><trkpt lat="43.2245517" lon="2.2557567"><ele>156.0</ele><time>2026-03-22T14:14:48.673Z</time></trkpt><trkpt lat="43.2246183" lon="2.2556667"><ele>156.0</ele><time>2026-03-22T14:15:35.676Z</time></trkpt><trkpt lat="43.2246983" lon="2.2555783"><ele>156.0</ele><time>2026-03-22T14:15:37.673Z</time></trkpt><trkpt lat="43.2247433" lon="2.2554567"><ele>155.33333333333334</ele><time>2026-03-22T14:15:39.677Z</time></trkpt><trkpt lat="43.2247567" lon="2.2553333"><ele>154.66666666666666</ele><time>2026-03-22T14:15:41.673Z</time></trkpt><trkpt lat="43.2248" lon="2.2552033"><ele>154.0</ele><time>2026-03-22T14:15:43.675Z</time></trkpt><trkpt lat="43.22484" lon="2.25509"><ele>153.33333333333331</ele><time>2026-03-22T14:15:45.674Z</time></trkpt><trkpt lat="43.2248867" lon="2.25501"><ele>152.66666666666666</ele><time>2026-03-22T14:15:47.673Z</time></trkpt><trkpt lat="43.2249483" lon="2.25496"><ele>152.0</ele><time>2026-03-22T14:15:49.675Z</time></trkpt><trkpt lat="43.2250267" lon="2.2549267"><ele>152.0</ele><time>2026-03-22T14:15:51.675Z</time></trkpt><trkpt lat="43.2250917" lon="2.25489"><ele>152.0</ele><time>2026-03-22T14:15:53.676Z</time></trkpt><trkpt lat="43.22514" lon="2.254795"><ele>152.0</ele><time>2026-03-22T14:15:55.674Z</time></trkpt><trkpt lat="43.2251633" lon="2.2546683"><ele>152.0</ele><time>2026-03-22T14:15:57.674Z</time></trkpt><trkpt lat="43.2251733" lon="2.2545667"><ele>152.0</ele><time>2026-03-22T14:15:59.674Z</time></trkpt><trkpt lat="43.2252133" lon="2.2544867"><ele>152.0</ele><time>2026-03-22T14:16:01.676Z</time></trkpt><trkpt lat="43.2252733" lon="2.2544383"><ele>150.79999999999998</ele><time>2026-03-22T14:16:04.674Z</time></trkpt><trkpt lat="43.22526" lon="2.2543283"><ele>149.6</ele><time>2026-03-22T14:16:07.675Z</time></trkpt><trkpt lat="43.2251583" lon="2.25426"><ele>148.39999999999998</ele><time>2026-03-22T14:16:09.675Z</time></trkpt><trkpt lat="43.22504" lon="2.2542167"><ele>147.2</ele><time>2026-03-22T14:16:11.678Z</time></trkpt><trkpt lat="43.2249683" lon="2.2542117"><ele>146.0</ele><time>2026-03-22T14:16:12.673Z</time></trkpt><trkpt lat="43.2248967" lon="2.254215"><ele>146.0</ele><time>2026-03-22T14:16:13.673Z</time></trkpt><trkpt lat="43.224825" lon="2.2542267"><ele>146.0</ele><time>2026-03-22T14:16:14.677Z</time></trkpt><trkpt lat="43.2247567" lon="2.2542517"><ele>146.0</ele><time>2026-03-22T14:16:15.676Z</time></trkpt><trkpt lat="43.2246483" lon="2.2543133"><ele>146.0</ele><time>2026-03-22T14:16:17.675Z</time></trkpt><trkpt lat="43.2245567" lon="2.254345"><ele>146.0</ele><time>2026-03-22T14:16:19.674Z</time></trkpt><trkpt lat="43.22444" lon="2.25431"><ele>145.4</ele><time>2026-03-22T14:16:21.675Z</time></trkpt><trkpt lat="43.22437" lon="2.2542567"><ele>144.8</ele><time>2026-03-22T14:16:22.676Z</time></trkpt><trkpt lat="43.2242933" lon="2.2541817"><ele>144.20000000000002</ele><time>2026-03-22T14:16:23.673Z</time></trkpt><trkpt lat="43.2242083" lon="2.2540983"><ele>143.6</ele><time>2026-03-22T14:16:24.673Z</time></trkpt><trkpt lat="43.224115" lon="2.2540133"><ele>143.0</ele><time>2026-03-22T14:16:25.674Z</time></trkpt><trkpt lat="43.22402" lon="2.25392"><ele>141.5</ele><time>2026-03-22T14:16:26.674Z</time></trkpt><trkpt lat="43.2239133" lon="2.2538183"><ele>140.0</ele><time>2026-03-22T14:16:27.672Z</time></trkpt><trkpt lat="43.2238167" lon="2.253715"><ele>138.5</ele><time>2026-03-22T14:16:28.673Z</time></trkpt><trkpt lat="43.223725" lon="2.2536017"><ele>137.0</ele><time>2026-03-22T14:16:29.674Z</time></trkpt><trkpt lat="43.22363" lon="2.2534883"><ele>137.0</ele><time>2026-03-22T14:16:30.672Z</time></trkpt><trkpt lat="43.2235417" lon="2.253375"><ele>137.0</ele><time>2026-03-22T14:16:31.673Z</time></trkpt><trkpt lat="43.22345" lon="2.253255"><ele>137.0</ele><time>2026-03-22T14:16:32.673Z</time></trkpt><trkpt lat="43.2233533" lon="2.2531383"><ele>137.0</ele><time>2026-03-22T14:16:33.674Z</time></trkpt><trkpt lat="43.2232533" lon="2.25303"><ele>137.25</ele><time>2026-03-22T14:16:34.674Z</time></trkpt><trkpt lat="43.2231533" lon="2.2529267"><ele>137.5</ele><time>2026-03-22T14:16:35.678Z</time></trkpt><trkpt lat="43.2230467" lon="2.2528317"><ele>137.75</ele><time>2026-03-22T14:16:36.672Z</time></trkpt><trkpt lat="43.2229417" lon="2.2527233"><ele>138.0</ele><time>2026-03-22T14:16:37.674Z</time></trkpt><trkpt lat="43.2228333" lon="2.2526167"><ele>138.0</ele><time>2026-03-22T14:16:38.675Z</time></trkpt><trkpt lat="43.2227267" lon="2.2525117"><ele>138.0</ele><time>2026-03-22T14:16:39.673Z</time></trkpt><trkpt lat="43.2226167" lon="2.25241"><ele>138.0</ele><time>2026-03-22T14:16:40.673Z</time></trkpt><trkpt lat="43.2225117" lon="2.252315"><ele>138.0</ele><time>2026-03-22T14:16:41.673Z</time></trkpt><trkpt lat="43.2224033" lon="2.2522167"><ele>139.5</ele><time>2026-03-22T14:16:42.673Z</time></trkpt><trkpt lat="43.2222967" lon="2.2521083"><ele>141.0</ele><time>2026-03-22T14:16:43.674Z</time></trkpt><trkpt lat="43.2221883" lon="2.251985"><ele>142.5</ele><time>2026-03-22T14:16:44.673Z</time></trkpt><trkpt lat="43.222085" lon="2.2518483"><ele>144.0</ele><time>2026-03-22T14:16:45.673Z</time></trkpt><trkpt lat="43.2219833" lon="2.2517083"><ele>144.0</ele><time>2026-03-22T14:16:46.672Z</time></trkpt><trkpt lat="43.2218733" lon="2.25158"><ele>144.0</ele><time>2026-03-22T14:16:47.672Z</time></trkpt><trkpt lat="43.2217533" lon="2.2514617"><ele>144.0</ele><time>2026-03-22T14:16:48.675Z</time></trkpt><trkpt lat="43.2216217" lon="2.2513483"><ele>144.0</ele><time>2026-03-22T14:16:49.674Z</time></trkpt><trkpt lat="43.2214817" lon="2.251235"><ele>144.33333333333334</ele><time>2026-03-22T14:16:50.673Z</time></trkpt><trkpt lat="43.22134" lon="2.25113"><ele>144.66666666666669</ele><time>2026-03-22T14:16:51.676Z</time></trkpt><trkpt lat="43.2212033" lon="2.2510267"><ele>145.0</ele><time>2026-03-22T14:16:52.674Z</time></trkpt><trkpt lat="43.2210683" lon="2.250935"><ele>145.0</ele><time>2026-03-22T14:16:53.674Z</time></trkpt><trkpt lat="43.2209617" lon="2.2508483"><ele>145.0</ele><time>2026-03-22T14:16:54.674Z</time></trkpt><trkpt lat="43.22087" lon="2.25075"><ele>145.0</ele><time>2026-03-22T14:16:55.673Z</time></trkpt><trkpt lat="43.2207917" lon="2.250635"><ele>145.0</ele><time>2026-03-22T14:16:56.675Z</time></trkpt><trkpt lat="43.22073" lon="2.250525"><ele>144.66666666666669</ele><time>2026-03-22T14:16:57.677Z</time></trkpt><trkpt lat="43.22067" lon="2.250415"><ele>144.33333333333334</ele><time>2026-03-22T14:16:58.674Z</time></trkpt><trkpt lat="43.220615" lon="2.2503233"><ele>144.0</ele><time>2026-03-22T14:16:59.674Z</time></trkpt><trkpt lat="43.2205667" lon="2.250235"><ele>143.66666666666666</ele><time>2026-03-22T14:17:00.673Z</time></trkpt><trkpt lat="43.2205233" lon="2.25016"><ele>143.33333333333331</ele><time>2026-03-22T14:17:01.674Z</time></trkpt><trkpt lat="43.22048" lon="2.2500883"><ele>143.0</ele><time>2026-03-22T14:17:02.674Z</time></trkpt><trkpt lat="43.22043" lon="2.2500117"><ele>144.28571428571428</ele><time>2026-03-22T14:17:03.676Z</time></trkpt><trkpt lat="43.22038" lon="2.2499383"><ele>145.57142857142856</ele><time>2026-03-22T14:17:04.674Z</time></trkpt><trkpt lat="43.2203333" lon="2.2498767"><ele>146.85714285714283</ele><time>2026-03-22T14:17:05.674Z</time></trkpt><trkpt lat="43.2202867" lon="2.2498083"><ele>148.14285714285714</ele><time>2026-03-22T14:17:06.676Z</time></trkpt><trkpt lat="43.2202383" lon="2.2497433"><ele>149.42857142857144</ele><time>2026-03-22T14:17:07.679Z</time></trkpt><trkpt lat="43.220195" lon="2.2496783"><ele>150.7142857142857</ele><time>2026-03-22T14:17:08.674Z</time></trkpt><trkpt lat="43.2201533" lon="2.2496067"><ele>152.0</ele><time>2026-03-22T14:17:09.674Z</time></trkpt><trkpt lat="43.220075" lon="2.2494767"><ele>152.0</ele><time>2026-03-22T14:17:11.672Z</time></trkpt><trkpt lat="43.2199867" lon="2.2493783"><ele>152.0</ele><time>2026-03-22T14:17:13.675Z</time></trkpt><trkpt lat="43.2198867" lon="2.2492817"><ele>152.0</ele><time>2026-03-22T14:17:15.676Z</time></trkpt><trkpt lat="43.21979" lon="2.2492083"><ele>152.0</ele><time>2026-03-22T14:17:17.673Z</time></trkpt><trkpt lat="43.21971" lon="2.249155"><ele>152.0</ele><time>2026-03-22T14:17:19.673Z</time></trkpt><trkpt lat="43.219645" lon="2.2491317"><ele>152.16666666666666</ele><time>2026-03-22T14:17:21.674Z</time></trkpt><trkpt lat="43.2196033" lon="2.2490667"><ele>152.33333333333331</ele><time>2026-03-22T14:17:32.673Z</time></trkpt><trkpt lat="43.2195683" lon="2.248975"><ele>152.5</ele><time>2026-03-22T14:17:34.673Z</time></trkpt><trkpt lat="43.21951" lon="2.2488617"><ele>152.66666666666666</ele><time>2026-03-22T14:17:36.674Z</time></trkpt><trkpt lat="43.2194833" lon="2.2487833"><ele>152.83333333333334</ele><time>2026-03-22T14:17:37.674Z</time></trkpt><trkpt lat="43.2194583" lon="2.2486883"><ele>153.0</ele><time>2026-03-22T14:17:38.674Z</time></trkpt><trkpt lat="43.21943" lon="2.2485883"><ele>153.0</ele><time>2026-03-22T14:17:39.675Z</time></trkpt><trkpt lat="43.2194033" lon="2.2485033"><ele>153.0</ele><time>2026-03-22T14:17:40.673Z</time></trkpt><trkpt lat="43.2193233" lon="2.2483967"><ele>153.0</ele><time>2026-03-22T14:17:42.674Z</time></trkpt><trkpt lat="43.2192483" lon="2.2483683"><ele>153.0</ele><time>2026-03-22T14:17:43.674Z</time></trkpt><trkpt lat="43.2191467" lon="2.2483533"><ele>153.0</ele><time>2026-03-22T14:17:44.675Z</time></trkpt><trkpt lat="43.2190217" lon="2.2483367"><ele>153.0</ele><time>2026-03-22T14:17:45.674Z</time></trkpt><trkpt lat="43.218895" lon="2.2483133"><ele>153.0</ele><time>2026-03-22T14:17:46.674Z</time></trkpt><trkpt lat="43.218765" lon="2.2482883"><ele>153.0</ele><time>2026-03-22T14:17:47.674Z</time></trkpt><trkpt lat="43.2186283" lon="2.2482617"><ele>153.0</ele><time>2026-03-22T14:17:48.677Z</time></trkpt><trkpt lat="43.2184883" lon="2.248225"><ele>153.0</ele><time>2026-03-22T14:17:49.674Z</time></trkpt><trkpt lat="43.2183417" lon="2.2481917"><ele>153.0</ele><time>2026-03-22T14:17:50.675Z</time></trkpt><trkpt lat="43.2181967" lon="2.2481617"><ele>153.0</ele><time>2026-03-22T14:17:51.673Z</time></trkpt><trkpt lat="43.21805" lon="2.2481267"><ele>153.0</ele><time>2026-03-22T14:17:52.673Z</time></trkpt><trkpt lat="43.2179017" lon="2.24809"><ele>154.33333333333334</ele><time>2026-03-22T14:17:53.674Z</time></trkpt><trkpt lat="43.21775" lon="2.2480567"><ele>155.66666666666669</ele><time>2026-03-22T14:17:54.673Z</time></trkpt><trkpt lat="43.2176" lon="2.2480217"><ele>157.0</ele><time>2026-03-22T14:17:55.676Z</time></trkpt><trkpt lat="43.217455" lon="2.2479867"><ele>158.0</ele><time>2026-03-22T14:17:56.673Z</time></trkpt><trkpt lat="43.2173133" lon="2.2479533"><ele>159.0</ele><time>2026-03-22T14:17:57.675Z</time></trkpt><trkpt lat="43.21717" lon="2.2479233"><ele>160.0</ele><time>2026-03-22T14:17:58.674Z</time></trkpt><trkpt lat="43.21703" lon="2.24788"><ele>161.0</ele><time>2026-03-22T14:17:59.673Z</time></trkpt><trkpt lat="43.2168817" lon="2.2478467"><ele>161.0</ele><time>2026-03-22T14:18:00.677Z</time></trkpt><trkpt lat="43.216745" lon="2.2478183"><ele>161.0</ele><time>2026-03-22T14:18:01.673Z</time></trkpt><trkpt lat="43.2166183" lon="2.24779"><ele>161.0</ele><time>2026-03-22T14:18:02.675Z</time></trkpt><trkpt lat="43.2165" lon="2.2477583"><ele>161.0</ele><time>2026-03-22T14:18:03.673Z</time></trkpt><trkpt lat="43.21639" lon="2.247725"><ele>161.8</ele><time>2026-03-22T14:18:04.674Z</time></trkpt><trkpt lat="43.2162867" lon="2.247695"><ele>162.60000000000002</ele><time>2026-03-22T14:18:05.673Z</time></trkpt><trkpt lat="43.2161917" lon="2.24767"><ele>163.4</ele><time>2026-03-22T14:18:06.68Z</time></trkpt><trkpt lat="43.2161" lon="2.24764"><ele>164.2</ele><time>2026-03-22T14:18:07.673Z</time></trkpt><trkpt lat="43.2160133" lon="2.2476033"><ele>165.0</ele><time>2026-03-22T14:18:08.675Z</time></trkpt><trkpt lat="43.2159333" lon="2.2475817"><ele>165.0</ele><time>2026-03-22T14:18:09.678Z</time></trkpt><trkpt lat="43.2158683" lon="2.2475617"><ele>165.0</ele><time>2026-03-22T14:18:10.673Z</time></trkpt><trkpt lat="43.2157983" lon="2.247485"><ele>165.0</ele><time>2026-03-22T14:18:12.677Z</time></trkpt><trkpt lat="43.215805" lon="2.2473067"><ele>165.0</ele><time>2026-03-22T14:18:14.674Z</time></trkpt><trkpt lat="43.2158367" lon="2.2471883"><ele>165.0</ele><time>2026-03-22T14:18:15.673Z</time></trkpt><trkpt lat="43.2158567" lon="2.247075"><ele>165.0</ele><time>2026-03-22T14:18:16.672Z</time></trkpt><trkpt lat="43.2158867" lon="2.2469517"><ele>165.0</ele><time>2026-03-22T14:18:17.674Z</time></trkpt><trkpt lat="43.215905" lon="2.24685"><ele>165.0</ele><time>2026-03-22T14:18:18.677Z</time></trkpt><trkpt lat="43.2159217" lon="2.2467533"><ele>165.0</ele><time>2026-03-22T14:18:19.675Z</time></trkpt><trkpt lat="43.215865" lon="2.2466667"><ele>165.0</ele><time>2026-03-22T14:18:21.676Z</time></trkpt><trkpt lat="43.2158" lon="2.2466633"><ele>165.0</ele><time>2026-03-22T14:18:22.677Z</time></trkpt><trkpt lat="43.2157233" lon="2.2466633"><ele>165.0</ele><time>2026-03-22T14:18:23.674Z</time></trkpt><trkpt lat="43.2156367" lon="2.2466633"><ele>165.0</ele><time>2026-03-22T14:18:24.675Z</time></trkpt><trkpt lat="43.2155217" lon="2.2466683"><ele>165.0</ele><time>2026-03-22T14:18:25.675Z</time></trkpt><trkpt lat="43.215415" lon="2.2466683"><ele>165.0</ele><time>2026-03-22T14:18:26.674Z</time></trkpt><trkpt lat="43.2153133" lon="2.2466667"><ele>165.0</ele><time>2026-03-22T14:18:27.676Z</time></trkpt><trkpt lat="43.2152167" lon="2.2466633"><ele>165.0</ele><time>2026-03-22T14:18:28.674Z</time></trkpt><trkpt lat="43.215135" lon="2.2466667"><ele>165.0</ele><time>2026-03-22T14:18:29.675Z</time></trkpt><trkpt lat="43.215065" lon="2.246665"><ele>165.0</ele><time>2026-03-22T14:18:30.675Z</time></trkpt><trkpt lat="43.215" lon="2.2466633"><ele>165.0</ele><time>2026-03-22T14:18:31.675Z</time></trkpt><trkpt lat="43.21493" lon="2.2466767"><ele>165.0</ele><time>2026-03-22T14:18:32.674Z</time></trkpt><trkpt lat="43.2150333" lon="2.2465317"><ele>165.0</ele><time>2026-03-22T14:18:49.673Z</time></trkpt><trkpt lat="43.2150883" lon="2.2464717"><ele>165.5</ele><time>2026-03-22T14:18:50.675Z</time></trkpt><trkpt lat="43.215165" lon="2.2463883"><ele>166.0</ele><time>2026-03-22T14:18:51.674Z</time></trkpt><trkpt lat="43.215255" lon="2.2463033"><ele>166.5</ele><time>2026-03-22T14:18:52.674Z</time></trkpt><trkpt lat="43.2153567" lon="2.2462217"><ele>167.0</ele><time>2026-03-22T14:18:53.674Z</time></trkpt><trkpt lat="43.215465" lon="2.2461267"><ele>167.0</ele><time>2026-03-22T14:18:54.673Z</time></trkpt><trkpt lat="43.21557" lon="2.24602"><ele>167.0</ele><time>2026-03-22T14:18:55.675Z</time></trkpt><trkpt lat="43.2156767" lon="2.2459033"><ele>167.0</ele><time>2026-03-22T14:18:56.676Z</time></trkpt><trkpt lat="43.2157783" lon="2.245785"><ele>167.0</ele><time>2026-03-22T14:18:57.674Z</time></trkpt><trkpt lat="43.2158833" lon="2.2456667"><ele>166.75</ele><time>2026-03-22T14:18:58.673Z</time></trkpt><trkpt lat="43.2159817" lon="2.2455517"><ele>166.5</ele><time>2026-03-22T14:18:59.675Z</time></trkpt><trkpt lat="43.2160783" lon="2.2454483"><ele>166.25</ele><time>2026-03-22T14:19:00.677Z</time></trkpt><trkpt lat="43.2161733" lon="2.24535"><ele>166.0</ele><time>2026-03-22T14:19:01.675Z</time></trkpt><trkpt lat="43.216265" lon="2.2452517"><ele>166.0</ele><time>2026-03-22T14:19:02.675Z</time></trkpt><trkpt lat="43.2163367" lon="2.2451483"><ele>166.0</ele><time>2026-03-22T14:19:03.675Z</time></trkpt><trkpt lat="43.2163983" lon="2.2450367"><ele>166.0</ele><time>2026-03-22T14:19:04.675Z</time></trkpt><trkpt lat="43.2164583" lon="2.24491"><ele>166.0</ele><time>2026-03-22T14:19:05.673Z</time></trkpt><trkpt lat="43.2165083" lon="2.244785"><ele>166.0</ele><time>2026-03-22T14:19:06.673Z</time></trkpt><trkpt lat="43.2165633" lon="2.2446533"><ele>166.5</ele><time>2026-03-22T14:19:07.674Z</time></trkpt><trkpt lat="43.2166167" lon="2.244515"><ele>167.0</ele><time>2026-03-22T14:19:08.674Z</time></trkpt><trkpt lat="43.21667" lon="2.2443767"><ele>167.5</ele><time>2026-03-22T14:19:09.675Z</time></trkpt><trkpt lat="43.216725" lon="2.24423"><ele>168.0</ele><time>2026-03-22T14:19:10.678Z</time></trkpt><trkpt lat="43.216785" lon="2.244085"><ele>166.75</ele><time>2026-03-22T14:19:11.677Z</time></trkpt><trkpt lat="43.2168417" lon="2.2439517"><ele>165.5</ele><time>2026-03-22T14:19:12.672Z</time></trkpt><trkpt lat="43.2168967" lon="2.2438267"><ele>164.25</ele><time>2026-03-22T14:19:13.672Z</time></trkpt><trkpt lat="43.21695" lon="2.2436867"><ele>163.0</ele><time>2026-03-22T14:19:14.675Z</time></trkpt><trkpt lat="43.2170067" lon="2.2435467"><ele>163.0</ele><time>2026-03-22T14:19:15.674Z</time></trkpt><trkpt lat="43.217065" lon="2.2434183"><ele>163.0</ele><time>2026-03-22T14:19:16.672Z</time></trkpt><trkpt lat="43.21712" lon="2.2433"><ele>163.0</ele><time>2026-03-22T14:19:17.672Z</time></trkpt><trkpt lat="43.21718" lon="2.2432017"><ele>163.0</ele><time>2026-03-22T14:19:18.673Z</time></trkpt><trkpt lat="43.2172367" lon="2.2431067"><ele>163.0</ele><time>2026-03-22T14:19:19.673Z</time></trkpt><trkpt lat="43.21729" lon="2.2430117"><ele>163.16666666666669</ele><time>2026-03-22T14:19:20.674Z</time></trkpt><trkpt lat="43.217345" lon="2.242925"><ele>163.33333333333334</ele><time>2026-03-22T14:19:21.675Z</time></trkpt><trkpt lat="43.2174" lon="2.2428467"><ele>163.5</ele><time>2026-03-22T14:19:22.673Z</time></trkpt><trkpt lat="43.2174517" lon="2.242765"><ele>163.66666666666666</ele><time>2026-03-22T14:19:23.675Z</time></trkpt><trkpt lat="43.2175017" lon="2.242685"><ele>163.83333333333331</ele><time>2026-03-22T14:19:24.673Z</time></trkpt><trkpt lat="43.2175467" lon="2.242585"><ele>164.0</ele><time>2026-03-22T14:19:25.677Z</time></trkpt><trkpt lat="43.2175933" lon="2.2424817"><ele>164.0</ele><time>2026-03-22T14:19:26.675Z</time></trkpt><trkpt lat="43.2176367" lon="2.2423733"><ele>164.0</ele><time>2026-03-22T14:19:27.673Z</time></trkpt><trkpt lat="43.2176767" lon="2.2422717"><ele>164.0</ele><time>2026-03-22T14:19:28.673Z</time></trkpt><trkpt lat="43.2177117" lon="2.2421733"><ele>164.0</ele><time>2026-03-22T14:19:29.673Z</time></trkpt><trkpt lat="43.217745" lon="2.2420967"><ele>164.0</ele><time>2026-03-22T14:19:30.673Z</time></trkpt><trkpt lat="43.217785" lon="2.241965"><ele>164.0</ele><time>2026-03-22T14:19:32.676Z</time></trkpt><trkpt lat="43.217835" lon="2.2418333"><ele>163.0</ele><time>2026-03-22T14:19:34.673Z</time></trkpt><trkpt lat="43.21791" lon="2.2416883"><ele>162.0</ele><time>2026-03-22T14:19:36.674Z</time></trkpt><trkpt lat="43.21796" lon="2.2416067"><ele>161.0</ele><time>2026-03-22T14:19:37.676Z</time></trkpt><trkpt lat="43.21802" lon="2.241525"><ele>160.0</ele><time>2026-03-22T14:19:38.674Z</time></trkpt><trkpt lat="43.2180833" lon="2.24145"><ele>159.0</ele><time>2026-03-22T14:19:39.673Z</time></trkpt><trkpt lat="43.21815" lon="2.24137"><ele>159.33333333333334</ele><time>2026-03-22T14:19:40.676Z</time></trkpt><trkpt lat="43.2182083" lon="2.24129"><ele>159.66666666666666</ele><time>2026-03-22T14:19:41.674Z</time></trkpt><trkpt lat="43.2182667" lon="2.2411917"><ele>160.0</ele><time>2026-03-22T14:19:42.68Z</time></trkpt><trkpt lat="43.218325" lon="2.2411033"><ele>160.33333333333331</ele><time>2026-03-22T14:19:43.674Z</time></trkpt><trkpt lat="43.2183783" lon="2.2410133"><ele>160.66666666666666</ele><time>2026-03-22T14:19:44.673Z</time></trkpt><trkpt lat="43.2184367" lon="2.2409"><ele>161.0</ele><time>2026-03-22T14:19:45.677Z</time></trkpt><trkpt lat="43.2185017" lon="2.2407817"><ele>161.0</ele><time>2026-03-22T14:19:46.673Z</time></trkpt><trkpt lat="43.2185683" lon="2.24065"><ele>161.0</ele><time>2026-03-22T14:19:47.675Z</time></trkpt><trkpt lat="43.2186317" lon="2.2405283"><ele>161.0</ele><time>2026-03-22T14:19:48.674Z</time></trkpt><trkpt lat="43.2186967" lon="2.24039"><ele>161.0</ele><time>2026-03-22T14:19:49.674Z</time></trkpt><trkpt lat="43.2187583" lon="2.2402517"><ele>159.4</ele><time>2026-03-22T14:19:50.675Z</time></trkpt><trkpt lat="43.2188217" lon="2.24013"><ele>157.8</ele><time>2026-03-22T14:19:51.676Z</time></trkpt><trkpt lat="43.218885" lon="2.2400067"><ele>156.20000000000002</ele><time>2026-03-22T14:19:52.674Z</time></trkpt><trkpt lat="43.2189483" lon="2.2398783"><ele>154.60000000000002</ele><time>2026-03-22T14:19:53.674Z</time></trkpt><trkpt lat="43.2190133" lon="2.23975"><ele>153.0</ele><time>2026-03-22T14:19:54.674Z</time></trkpt><trkpt lat="43.2190767" lon="2.2396283"><ele>152.20000000000002</ele><time>2026-03-22T14:19:55.676Z</time></trkpt><trkpt lat="43.219135" lon="2.23951"><ele>151.4</ele><time>2026-03-22T14:19:56.677Z</time></trkpt><trkpt lat="43.219195" lon="2.2393967"><ele>150.60000000000002</ele><time>2026-03-22T14:19:57.674Z</time></trkpt><trkpt lat="43.2192567" lon="2.2392867"><ele>149.8</ele><time>2026-03-22T14:19:58.676Z</time></trkpt><trkpt lat="43.2193083" lon="2.2391883"><ele>149.0</ele><time>2026-03-22T14:19:59.674Z</time></trkpt><trkpt lat="43.2193583" lon="2.2390967"><ele>149.0</ele><time>2026-03-22T14:20:00.676Z</time></trkpt><trkpt lat="43.2194017" lon="2.2390067"><ele>149.0</ele><time>2026-03-22T14:20:01.675Z</time></trkpt><trkpt lat="43.219435" lon="2.2389267"><ele>149.0</ele><time>2026-03-22T14:20:02.677Z</time></trkpt><trkpt lat="43.2194717" lon="2.2387983"><ele>149.0</ele><time>2026-03-22T14:20:04.675Z</time></trkpt><trkpt lat="43.2194217" lon="2.2386617"><ele>149.0</ele><time>2026-03-22T14:20:06.679Z</time></trkpt><trkpt lat="43.2193667" lon="2.238585"><ele>149.0</ele><time>2026-03-22T14:20:07.674Z</time></trkpt><trkpt lat="43.2193067" lon="2.2385"><ele>148.4</ele><time>2026-03-22T14:20:08.677Z</time></trkpt><trkpt lat="43.2192367" lon="2.238405"><ele>147.8</ele><time>2026-03-22T14:20:09.676Z</time></trkpt><trkpt lat="43.2191617" lon="2.2383"><ele>147.2</ele><time>2026-03-22T14:20:10.675Z</time></trkpt><trkpt lat="43.2190867" lon="2.23819"><ele>146.6</ele><time>2026-03-22T14:20:11.675Z</time></trkpt><trkpt lat="43.21901" lon="2.2380783"><ele>146.0</ele><time>2026-03-22T14:20:12.675Z</time></trkpt><trkpt lat="43.21893" lon="2.23796"><ele>146.0</ele><time>2026-03-22T14:20:13.676Z</time></trkpt><trkpt lat="43.2188467" lon="2.23784"><ele>146.0</ele><time>2026-03-22T14:20:14.675Z</time></trkpt><trkpt lat="43.21876" lon="2.2377167"><ele>146.0</ele><time>2026-03-22T14:20:15.673Z</time></trkpt><trkpt lat="43.2186717" lon="2.23759"><ele>146.0</ele><time>2026-03-22T14:20:16.673Z</time></trkpt><trkpt lat="43.218585" lon="2.23746"><ele>146.0</ele><time>2026-03-22T14:20:17.673Z</time></trkpt><trkpt lat="43.218505" lon="2.2373317"><ele>146.0</ele><time>2026-03-22T14:20:18.673Z</time></trkpt><trkpt lat="43.218435" lon="2.23721"><ele>146.0</ele><time>2026-03-22T14:20:19.673Z</time></trkpt><trkpt lat="43.2183767" lon="2.2370883"><ele>146.0</ele><time>2026-03-22T14:20:20.676Z</time></trkpt><trkpt lat="43.21833" lon="2.2369633"><ele>146.0</ele><time>2026-03-22T14:20:21.675Z</time></trkpt><trkpt lat="43.218285" lon="2.23681"><ele>145.25</ele><time>2026-03-22T14:20:22.673Z</time></trkpt><trkpt lat="43.2182383" lon="2.2366617"><ele>144.5</ele><time>2026-03-22T14:20:23.674Z</time></trkpt><trkpt lat="43.2181567" lon="2.23654"><ele>143.75</ele><time>2026-03-22T14:20:24.674Z</time></trkpt><trkpt lat="43.2180667" lon="2.2364367"><ele>143.0</ele><time>2026-03-22T14:20:25.673Z</time></trkpt><trkpt lat="43.2179667" lon="2.23635"><ele>143.0</ele><time>2026-03-22T14:20:26.675Z</time></trkpt><trkpt lat="43.2178617" lon="2.236265"><ele>143.0</ele><time>2026-03-22T14:20:27.673Z</time></trkpt><trkpt lat="43.2177567" lon="2.2361833"><ele>143.0</ele><time>2026-03-22T14:20:28.673Z</time></trkpt><trkpt lat="43.2176717" lon="2.2361017"><ele>143.0</ele><time>2026-03-22T14:20:29.674Z</time></trkpt><trkpt lat="43.2175967" lon="2.236015"><ele>143.0</ele><time>2026-03-22T14:20:30.675Z</time></trkpt><trkpt lat="43.217525" lon="2.2359367"><ele>143.0</ele><time>2026-03-22T14:20:31.674Z</time></trkpt><trkpt lat="43.2174417" lon="2.2358717"><ele>143.0</ele><time>2026-03-22T14:20:32.675Z</time></trkpt><trkpt lat="43.2173617" lon="2.2358167"><ele>143.0</ele><time>2026-03-22T14:20:33.673Z</time></trkpt><trkpt lat="43.2172767" lon="2.2357683"><ele>143.0</ele><time>2026-03-22T14:20:34.673Z</time></trkpt><trkpt lat="43.2171783" lon="2.2357083"><ele>143.0</ele><time>2026-03-22T14:20:35.673Z</time></trkpt><trkpt lat="43.2170733" lon="2.2356467"><ele>143.5</ele><time>2026-03-22T14:20:36.674Z</time></trkpt><trkpt lat="43.216955" lon="2.235585"><ele>144.0</ele><time>2026-03-22T14:20:37.674Z</time></trkpt><trkpt lat="43.21683" lon="2.235515"><ele>144.5</ele><time>2026-03-22T14:20:38.674Z</time></trkpt><trkpt lat="43.2167117" lon="2.235445"><ele>145.0</ele><time>2026-03-22T14:20:39.674Z</time></trkpt><trkpt lat="43.2165883" lon="2.2353783"><ele>145.25</ele><time>2026-03-22T14:20:40.673Z</time></trkpt><trkpt lat="43.216465" lon="2.235315"><ele>145.5</ele><time>2026-03-22T14:20:41.675Z</time></trkpt><trkpt lat="43.2163433" lon="2.2352533"><ele>145.75</ele><time>2026-03-22T14:20:42.677Z</time></trkpt><trkpt lat="43.2162317" lon="2.235195"><ele>146.0</ele><time>2026-03-22T14:20:43.676Z</time></trkpt><trkpt lat="43.2161367" lon="2.2351467"><ele>146.0</ele><time>2026-03-22T14:20:44.678Z</time></trkpt><trkpt lat="43.2160633" lon="2.2351117"><ele>146.0</ele><time>2026-03-22T14:20:45.676Z</time></trkpt><trkpt lat="43.2159983" lon="2.2350467"><ele>146.0</ele><time>2026-03-22T14:20:47.675Z</time></trkpt><trkpt lat="43.216075" lon="2.2349933"><ele>146.0</ele><time>2026-03-22T14:20:49.674Z</time></trkpt><trkpt lat="43.2161717" lon="2.23489"><ele>146.0</ele><time>2026-03-22T14:20:51.674Z</time></trkpt><trkpt lat="43.2161917" lon="2.2347817"><ele>146.0</ele><time>2026-03-22T14:20:52.673Z</time></trkpt><trkpt lat="43.2162133" lon="2.23465"><ele>146.0</ele><time>2026-03-22T14:20:53.674Z</time></trkpt><trkpt lat="43.2162417" lon="2.234515"><ele>146.0</ele><time>2026-03-22T14:20:54.674Z</time></trkpt><trkpt lat="43.2162717" lon="2.2343767"><ele>146.0</ele><time>2026-03-22T14:20:55.675Z</time></trkpt><trkpt lat="43.2163133" lon="2.2342433"><ele>146.0</ele><time>2026-03-22T14:20:56.675Z</time></trkpt><trkpt lat="43.2163683" lon="2.2341217"><ele>146.0</ele><time>2026-03-22T14:20:57.676Z</time></trkpt><trkpt lat="43.216435" lon="2.2339983"><ele>145.2</ele><time>2026-03-22T14:20:58.673Z</time></trkpt><trkpt lat="43.2165017" lon="2.2338767"><ele>144.39999999999998</ele><time>2026-03-22T14:20:59.674Z</time></trkpt><trkpt lat="43.216565" lon="2.2337683"><ele>143.6</ele><time>2026-03-22T14:21:00.678Z</time></trkpt><trkpt lat="43.216635" lon="2.233685"><ele>142.79999999999998</ele><time>2026-03-22T14:21:01.673Z</time></trkpt><trkpt lat="43.216685" lon="2.233595"><ele>142.0</ele><time>2026-03-22T14:21:02.675Z</time></trkpt><trkpt lat="43.216725" lon="2.2335033"><ele>142.0</ele><time>2026-03-22T14:21:03.674Z</time></trkpt><trkpt lat="43.2167383" lon="2.23341"><ele>142.0</ele><time>2026-03-22T14:21:04.676Z</time></trkpt><trkpt lat="43.216725" lon="2.2333083"><ele>142.0</ele><time>2026-03-22T14:21:05.674Z</time></trkpt><trkpt lat="43.2166783" lon="2.2331917"><ele>142.0</ele><time>2026-03-22T14:21:06.675Z</time></trkpt><trkpt lat="43.2166283" lon="2.2330633"><ele>142.0</ele><time>2026-03-22T14:21:07.676Z</time></trkpt><trkpt lat="43.2165783" lon="2.2329217"><ele>142.0</ele><time>2026-03-22T14:21:08.676Z</time></trkpt><trkpt lat="43.2165417" lon="2.2327733"><ele>142.0</ele><time>2026-03-22T14:21:09.674Z</time></trkpt><trkpt lat="43.2164967" lon="2.23262"><ele>142.0</ele><time>2026-03-22T14:21:10.673Z</time></trkpt><trkpt lat="43.2164417" lon="2.2324783"><ele>142.0</ele><time>2026-03-22T14:21:11.673Z</time></trkpt><trkpt lat="43.2163667" lon="2.2323383"><ele>142.0</ele><time>2026-03-22T14:21:12.674Z</time></trkpt><trkpt lat="43.21629" lon="2.2322117"><ele>142.0</ele><time>2026-03-22T14:21:13.675Z</time></trkpt><trkpt lat="43.2162267" lon="2.2320933"><ele>142.0</ele><time>2026-03-22T14:21:14.676Z</time></trkpt><trkpt lat="43.2161683" lon="2.2319833"><ele>142.0</ele><time>2026-03-22T14:21:15.678Z</time></trkpt><trkpt lat="43.216105" lon="2.2318833"><ele>142.0</ele><time>2026-03-22T14:21:16.683Z</time></trkpt><trkpt lat="43.2160517" lon="2.23179"><ele>142.0</ele><time>2026-03-22T14:21:17.675Z</time></trkpt><trkpt lat="43.2159983" lon="2.2317"><ele>142.0</ele><time>2026-03-22T14:21:18.675Z</time></trkpt><trkpt lat="43.2159417" lon="2.2316083"><ele>142.0</ele><time>2026-03-22T14:21:19.674Z</time></trkpt><trkpt lat="43.2158767" lon="2.23151"><ele>142.0</ele><time>2026-03-22T14:21:20.675Z</time></trkpt><trkpt lat="43.2158133" lon="2.2314033"><ele>142.0</ele><time>2026-03-22T14:21:21.674Z</time></trkpt><trkpt lat="43.2157433" lon="2.231285"><ele>141.25</ele><time>2026-03-22T14:21:22.675Z</time></trkpt><trkpt lat="43.21568" lon="2.2311667"><ele>140.5</ele><time>2026-03-22T14:21:23.673Z</time></trkpt><trkpt lat="43.2156167" lon="2.2310417"><ele>139.75</ele><time>2026-03-22T14:21:24.673Z</time></trkpt><trkpt lat="43.21555" lon="2.2309117"><ele>139.0</ele><time>2026-03-22T14:21:25.674Z</time></trkpt><trkpt lat="43.2154867" lon="2.2307683"><ele>139.0</ele><time>2026-03-22T14:21:26.674Z</time></trkpt><trkpt lat="43.2154217" lon="2.2306083"><ele>139.0</ele><time>2026-03-22T14:21:27.674Z</time></trkpt><trkpt lat="43.2153467" lon="2.2304467"><ele>139.0</ele><time>2026-03-22T14:21:28.676Z</time></trkpt><trkpt lat="43.2152683" lon="2.2302917"><ele>139.0</ele><time>2026-03-22T14:21:29.674Z</time></trkpt><trkpt lat="43.215195" lon="2.2301417"><ele>139.0</ele><time>2026-03-22T14:21:30.673Z</time></trkpt><trkpt lat="43.21513" lon="2.2299933"><ele>139.0</ele><time>2026-03-22T14:21:31.674Z</time></trkpt><trkpt lat="43.21508" lon="2.2298567"><ele>139.0</ele><time>2026-03-22T14:21:32.675Z</time></trkpt><trkpt lat="43.2150517" lon="2.2297333"><ele>139.0</ele><time>2026-03-22T14:21:33.676Z</time></trkpt><trkpt lat="43.21504" lon="2.2296183"><ele>139.0</ele><time>2026-03-22T14:21:34.674Z</time></trkpt><trkpt lat="43.215065" lon="2.2295183"><ele>139.2</ele><time>2026-03-22T14:21:35.674Z</time></trkpt><trkpt lat="43.215115" lon="2.2294267"><ele>139.4</ele><time>2026-03-22T14:21:36.676Z</time></trkpt><trkpt lat="43.2151867" lon="2.2293367"><ele>139.6</ele><time>2026-03-22T14:21:37.675Z</time></trkpt><trkpt lat="43.2152633" lon="2.2292417"><ele>139.8</ele><time>2026-03-22T14:21:38.675Z</time></trkpt><trkpt lat="43.2153533" lon="2.229175"><ele>140.0</ele><time>2026-03-22T14:21:39.677Z</time></trkpt><trkpt lat="43.21545" lon="2.22915"><ele>140.0</ele><time>2026-03-22T14:21:40.674Z</time></trkpt><trkpt lat="43.2155583" lon="2.2291867"><ele>140.0</ele><time>2026-03-22T14:21:41.673Z</time></trkpt><trkpt lat="43.2156683" lon="2.2292333"><ele>140.0</ele><time>2026-03-22T14:21:42.674Z</time></trkpt><trkpt lat="43.2157917" lon="2.229275"><ele>140.0</ele><time>2026-03-22T14:21:43.675Z</time></trkpt><trkpt lat="43.2159183" lon="2.2293083"><ele>140.0</ele><time>2026-03-22T14:21:44.676Z</time></trkpt><trkpt lat="43.2160483" lon="2.2293233"><ele>140.0</ele><time>2026-03-22T14:21:45.674Z</time></trkpt><trkpt lat="43.216185" lon="2.2293133"><ele>140.0</ele><time>2026-03-22T14:21:46.676Z</time></trkpt><trkpt lat="43.216315" lon="2.2292867"><ele>140.0</ele><time>2026-03-22T14:21:47.676Z</time></trkpt><trkpt lat="43.2164383" lon="2.22924"><ele>139.5</ele><time>2026-03-22T14:21:48.675Z</time></trkpt><trkpt lat="43.2165633" lon="2.2291767"><ele>139.0</ele><time>2026-03-22T14:21:49.674Z</time></trkpt><trkpt lat="43.2166767" lon="2.2291017"><ele>138.5</ele><time>2026-03-22T14:21:50.675Z</time></trkpt><trkpt lat="43.2167783" lon="2.2290333"><ele>138.0</ele><time>2026-03-22T14:21:51.676Z</time></trkpt><trkpt lat="43.216875" lon="2.228955"><ele>138.0</ele><time>2026-03-22T14:21:52.675Z</time></trkpt><trkpt lat="43.216965" lon="2.2288817"><ele>138.0</ele><time>2026-03-22T14:21:53.673Z</time></trkpt><trkpt lat="43.2170267" lon="2.2288167"><ele>138.0</ele><time>2026-03-22T14:21:54.673Z</time></trkpt><trkpt lat="43.217075" lon="2.2287433"><ele>138.0</ele><time>2026-03-22T14:21:55.673Z</time></trkpt><trkpt lat="43.2171067" lon="2.2286283"><ele>138.0</ele><time>2026-03-22T14:21:57.675Z</time></trkpt><trkpt lat="43.217095" lon="2.2285333"><ele>138.0</ele><time>2026-03-22T14:22:01.675Z</time></trkpt><trkpt lat="43.2170467" lon="2.2284517"><ele>138.0</ele><time>2026-03-22T14:22:03.675Z</time></trkpt><trkpt lat="43.2169333" lon="2.22838"><ele>138.0</ele><time>2026-03-22T14:22:05.675Z</time></trkpt><trkpt lat="43.216855" lon="2.22837"><ele>138.0</ele><time>2026-03-22T14:22:06.675Z</time></trkpt><trkpt lat="43.2167633" lon="2.2283767"><ele>138.0</ele><time>2026-03-22T14:22:07.675Z</time></trkpt><trkpt lat="43.2166633" lon="2.2283867"><ele>138.0</ele><time>2026-03-22T14:22:08.677Z</time></trkpt><trkpt lat="43.2165567" lon="2.228395"><ele>139.0</ele><time>2026-03-22T14:22:09.677Z</time></trkpt><trkpt lat="43.2164483" lon="2.2284083"><ele>140.0</ele><time>2026-03-22T14:22:10.675Z</time></trkpt><trkpt lat="43.2163467" lon="2.22843"><ele>141.0</ele><time>2026-03-22T14:22:11.674Z</time></trkpt><trkpt lat="43.2162533" lon="2.2284383"><ele>142.0</ele><time>2026-03-22T14:22:12.675Z</time></trkpt><trkpt lat="43.21617" lon="2.2284083"><ele>143.0</ele><time>2026-03-22T14:22:13.677Z</time></trkpt><trkpt lat="43.2160983" lon="2.2283483"><ele>143.0</ele><time>2026-03-22T14:22:14.676Z</time></trkpt><trkpt lat="43.2160683" lon="2.2282233"><ele>143.0</ele><time>2026-03-22T14:22:15.676Z</time></trkpt><trkpt lat="43.2160667" lon="2.2280783"><ele>143.0</ele><time>2026-03-22T14:22:16.674Z</time></trkpt><trkpt lat="43.2160767" lon="2.22791"><ele>143.0</ele><time>2026-03-22T14:22:17.673Z</time></trkpt><trkpt lat="43.21609" lon="2.227745"><ele>143.0</ele><time>2026-03-22T14:22:18.675Z</time></trkpt><trkpt lat="43.2161067" lon="2.2275617"><ele>143.0</ele><time>2026-03-22T14:22:19.675Z</time></trkpt><trkpt lat="43.2161333" lon="2.2273767"><ele>143.0</ele><time>2026-03-22T14:22:20.674Z</time></trkpt><trkpt lat="43.2161717" lon="2.2271883"><ele>143.0</ele><time>2026-03-22T14:22:21.676Z</time></trkpt><trkpt lat="43.2162317" lon="2.2270033"><ele>143.0</ele><time>2026-03-22T14:22:22.672Z</time></trkpt><trkpt lat="43.2163117" lon="2.2268233"><ele>143.0</ele><time>2026-03-22T14:22:23.675Z</time></trkpt><trkpt lat="43.216395" lon="2.2266367"><ele>143.0</ele><time>2026-03-22T14:22:24.674Z</time></trkpt><trkpt lat="43.216475" lon="2.22645"><ele>143.0</ele><time>2026-03-22T14:22:25.676Z</time></trkpt><trkpt lat="43.2165583" lon="2.2262617"><ele>141.33333333333331</ele><time>2026-03-22T14:22:26.674Z</time></trkpt><trkpt lat="43.216645" lon="2.2260717"><ele>139.66666666666666</ele><time>2026-03-22T14:22:27.679Z</time></trkpt><trkpt lat="43.2167267" lon="2.22588"><ele>138.0</ele><time>2026-03-22T14:22:28.676Z</time></trkpt><trkpt lat="43.2168067" lon="2.2256817"><ele>138.0</ele><time>2026-03-22T14:22:29.675Z</time></trkpt><trkpt lat="43.2168817" lon="2.22547"><ele>138.0</ele><time>2026-03-22T14:22:30.676Z</time></trkpt><trkpt lat="43.2169633" lon="2.2252583"><ele>138.0</ele><time>2026-03-22T14:22:31.675Z</time></trkpt><trkpt lat="43.217045" lon="2.2250433"><ele>138.0</ele><time>2026-03-22T14:22:32.678Z</time></trkpt><trkpt lat="43.2171217" lon="2.22484"><ele>138.0</ele><time>2026-03-22T14:22:33.677Z</time></trkpt><trkpt lat="43.217195" lon="2.2246367"><ele>138.0</ele><time>2026-03-22T14:22:34.677Z</time></trkpt><trkpt lat="43.217265" lon="2.22444"><ele>138.66666666666666</ele><time>2026-03-22T14:22:35.675Z</time></trkpt><trkpt lat="43.21734" lon="2.2242533"><ele>139.33333333333331</ele><time>2026-03-22T14:22:36.676Z</time></trkpt><trkpt lat="43.217425" lon="2.2240733"><ele>140.0</ele><time>2026-03-22T14:22:37.675Z</time></trkpt><trkpt lat="43.217515" lon="2.223895"><ele>140.0</ele><time>2026-03-22T14:22:38.675Z</time></trkpt><trkpt lat="43.21761" lon="2.22372"><ele>140.0</ele><time>2026-03-22T14:22:39.674Z</time></trkpt><trkpt lat="43.2177017" lon="2.2235417"><ele>140.0</ele><time>2026-03-22T14:22:40.677Z</time></trkpt><trkpt lat="43.2177933" lon="2.223365"><ele>140.0</ele><time>2026-03-22T14:22:41.675Z</time></trkpt><trkpt lat="43.2178817" lon="2.22319"><ele>140.0</ele><time>2026-03-22T14:22:42.677Z</time></trkpt><trkpt lat="43.21796" lon="2.2230067"><ele>140.0</ele><time>2026-03-22T14:22:43.677Z</time></trkpt><trkpt lat="43.218035" lon="2.22281"><ele>140.0</ele><time>2026-03-22T14:22:44.676Z</time></trkpt><trkpt lat="43.2181" lon="2.2226033"><ele>140.0</ele><time>2026-03-22T14:22:45.678Z</time></trkpt><trkpt lat="43.2181533" lon="2.222395"><ele>140.0</ele><time>2026-03-22T14:22:46.674Z</time></trkpt><trkpt lat="43.2182" lon="2.2221833"><ele>140.33333333333331</ele><time>2026-03-22T14:22:47.676Z</time></trkpt><trkpt lat="43.2182467" lon="2.2219717"><ele>140.66666666666666</ele><time>2026-03-22T14:22:48.675Z</time></trkpt><trkpt lat="43.218295" lon="2.22176"><ele>141.0</ele><time>2026-03-22T14:22:49.678Z</time></trkpt><trkpt lat="43.2183433" lon="2.2215533"><ele>141.0</ele><time>2026-03-22T14:22:50.675Z</time></trkpt><trkpt lat="43.2183967" lon="2.221355"><ele>141.0</ele><time>2026-03-22T14:22:51.675Z</time></trkpt><trkpt lat="43.2184483" lon="2.2211667"><ele>141.0</ele><time>2026-03-22T14:22:52.673Z</time></trkpt><trkpt lat="43.2184967" lon="2.2209767"><ele>141.0</ele><time>2026-03-22T14:22:53.676Z</time></trkpt><trkpt lat="43.21855" lon="2.2207917"><ele>140.75</ele><time>2026-03-22T14:22:54.676Z</time></trkpt><trkpt lat="43.2186017" lon="2.2206133"><ele>140.5</ele><time>2026-03-22T14:22:55.674Z</time></trkpt><trkpt lat="43.21865" lon="2.220445"><ele>140.25</ele><time>2026-03-22T14:22:56.683Z</time></trkpt><trkpt lat="43.2186983" lon="2.2202783"><ele>140.0</ele><time>2026-03-22T14:22:57.675Z</time></trkpt><trkpt lat="43.2187633" lon="2.2201233"><ele>140.0</ele><time>2026-03-22T14:22:58.676Z</time></trkpt><trkpt lat="43.21885" lon="2.22"><ele>140.0</ele><time>2026-03-22T14:22:59.674Z</time></trkpt><trkpt lat="43.2189533" lon="2.2199283"><ele>140.0</ele><time>2026-03-22T14:23:00.675Z</time></trkpt><trkpt lat="43.2190783" lon="2.2199117"><ele>140.0</ele><time>2026-03-22T14:23:01.676Z</time></trkpt><trkpt lat="43.2192033" lon="2.219955"><ele>139.25</ele><time>2026-03-22T14:23:02.674Z</time></trkpt><trkpt lat="43.21933" lon="2.2199983"><ele>138.5</ele><time>2026-03-22T14:23:03.676Z</time></trkpt><trkpt lat="43.21946" lon="2.2200233"><ele>137.75</ele><time>2026-03-22T14:23:04.673Z</time></trkpt><trkpt lat="43.2195833" lon="2.2200033"><ele>137.0</ele><time>2026-03-22T14:23:05.675Z</time></trkpt><trkpt lat="43.2197" lon="2.2199283"><ele>137.0</ele><time>2026-03-22T14:23:06.674Z</time></trkpt><trkpt lat="43.2198067" lon="2.219815"><ele>137.0</ele><time>2026-03-22T14:23:07.675Z</time></trkpt><trkpt lat="43.2199117" lon="2.219695"><ele>137.0</ele><time>2026-03-22T14:23:08.677Z</time></trkpt><trkpt lat="43.2200183" lon="2.21958"><ele>137.0</ele><time>2026-03-22T14:23:09.676Z</time></trkpt><trkpt lat="43.2201217" lon="2.2194633"><ele>137.0</ele><time>2026-03-22T14:23:10.675Z</time></trkpt><trkpt lat="43.2202183" lon="2.2193433"><ele>137.0</ele><time>2026-03-22T14:23:11.676Z</time></trkpt><trkpt lat="43.220315" lon="2.2192283"><ele>137.0</ele><time>2026-03-22T14:23:12.675Z</time></trkpt><trkpt lat="43.22041" lon="2.21912"><ele>137.0</ele><time>2026-03-22T14:23:13.676Z</time></trkpt><trkpt lat="43.2205067" lon="2.2190167"><ele>137.0</ele><time>2026-03-22T14:23:14.676Z</time></trkpt><trkpt lat="43.2206017" lon="2.2189083"><ele>137.0</ele><time>2026-03-22T14:23:15.676Z</time></trkpt><trkpt lat="43.2206917" lon="2.2188017"><ele>137.0</ele><time>2026-03-22T14:23:16.674Z</time></trkpt><trkpt lat="43.2207817" lon="2.2186917"><ele>137.0</ele><time>2026-03-22T14:23:17.676Z</time></trkpt><trkpt lat="43.2208683" lon="2.21858"><ele>137.0</ele><time>2026-03-22T14:23:18.675Z</time></trkpt><trkpt lat="43.220945" lon="2.218455"><ele>137.0</ele><time>2026-03-22T14:23:19.676Z</time></trkpt><trkpt lat="43.2210183" lon="2.218315"><ele>137.0</ele><time>2026-03-22T14:23:20.679Z</time></trkpt><trkpt lat="43.22108" lon="2.2181667"><ele>137.0</ele><time>2026-03-22T14:23:21.677Z</time></trkpt><trkpt lat="43.2211433" lon="2.21802"><ele>137.75</ele><time>2026-03-22T14:23:22.675Z</time></trkpt><trkpt lat="43.2211967" lon="2.2178667"><ele>138.5</ele><time>2026-03-22T14:23:23.675Z</time></trkpt><trkpt lat="43.2212483" lon="2.2177167"><ele>139.25</ele><time>2026-03-22T14:23:24.676Z</time></trkpt><trkpt lat="43.22129" lon="2.2175667"><ele>140.0</ele><time>2026-03-22T14:23:25.676Z</time></trkpt><trkpt lat="43.2213267" lon="2.2174133"><ele>139.2</ele><time>2026-03-22T14:23:26.675Z</time></trkpt><trkpt lat="43.2213633" lon="2.2172683"><ele>138.4</ele><time>2026-03-22T14:23:27.678Z</time></trkpt><trkpt lat="43.221405" lon="2.21713"><ele>137.6</ele><time>2026-03-22T14:23:28.674Z</time></trkpt><trkpt lat="43.22145" lon="2.217"><ele>136.8</ele><time>2026-03-22T14:23:29.677Z</time></trkpt><trkpt lat="43.2214933" lon="2.2168783"><ele>136.0</ele><time>2026-03-22T14:23:30.68Z</time></trkpt><trkpt lat="43.2215367" lon="2.2167633"><ele>135.83333333333334</ele><time>2026-03-22T14:23:31.675Z</time></trkpt><trkpt lat="43.2215783" lon="2.2166517"><ele>135.66666666666669</ele><time>2026-03-22T14:23:32.676Z</time></trkpt><trkpt lat="43.221615" lon="2.21655"><ele>135.5</ele><time>2026-03-22T14:23:33.679Z</time></trkpt><trkpt lat="43.2216517" lon="2.21646"><ele>135.33333333333334</ele><time>2026-03-22T14:23:34.676Z</time></trkpt><trkpt lat="43.2216817" lon="2.216375"><ele>135.16666666666666</ele><time>2026-03-22T14:23:35.678Z</time></trkpt><trkpt lat="43.2216967" lon="2.2162867"><ele>135.0</ele><time>2026-03-22T14:23:36.675Z</time></trkpt><trkpt lat="43.2216867" lon="2.2161933"><ele>135.0</ele><time>2026-03-22T14:23:37.678Z</time></trkpt><trkpt lat="43.22164" lon="2.2161033"><ele>135.0</ele><time>2026-03-22T14:23:38.678Z</time></trkpt><trkpt lat="43.2215767" lon="2.2160283"><ele>135.0</ele><time>2026-03-22T14:23:39.676Z</time></trkpt><trkpt lat="43.2214917" lon="2.2159567"><ele>135.0</ele><time>2026-03-22T14:23:40.675Z</time></trkpt><trkpt lat="43.2213917" lon="2.2158633"><ele>135.0</ele><time>2026-03-22T14:23:41.676Z</time></trkpt><trkpt lat="43.2212983" lon="2.2157617"><ele>134.75</ele><time>2026-03-22T14:23:42.676Z</time></trkpt><trkpt lat="43.2212" lon="2.215655"><ele>134.5</ele><time>2026-03-22T14:23:43.676Z</time></trkpt><trkpt lat="43.2210967" lon="2.2155533"><ele>134.25</ele><time>2026-03-22T14:23:44.679Z</time></trkpt><trkpt lat="43.2209917" lon="2.2154517"><ele>134.0</ele><time>2026-03-22T14:23:45.674Z</time></trkpt><trkpt lat="43.220885" lon="2.2153467"><ele>134.5</ele><time>2026-03-22T14:23:46.674Z</time></trkpt><trkpt lat="43.220775" lon="2.21524"><ele>135.0</ele><time>2026-03-22T14:23:47.676Z</time></trkpt><trkpt lat="43.2206683" lon="2.2151367"><ele>135.5</ele><time>2026-03-22T14:23:48.675Z</time></trkpt><trkpt lat="43.2205667" lon="2.2150383"><ele>136.0</ele><time>2026-03-22T14:23:49.678Z</time></trkpt><trkpt lat="43.2204717" lon="2.214945"><ele>136.2</ele><time>2026-03-22T14:23:50.678Z</time></trkpt><trkpt lat="43.220385" lon="2.2148583"><ele>136.39999999999998</ele><time>2026-03-22T14:23:51.675Z</time></trkpt><trkpt lat="43.220305" lon="2.2147783"><ele>136.6</ele><time>2026-03-22T14:23:52.677Z</time></trkpt><trkpt lat="43.2202267" lon="2.2147067"><ele>136.79999999999998</ele><time>2026-03-22T14:23:53.675Z</time></trkpt><trkpt lat="43.220155" lon="2.2146467"><ele>137.0</ele><time>2026-03-22T14:23:54.675Z</time></trkpt><trkpt lat="43.220085" lon="2.214595"><ele>137.2</ele><time>2026-03-22T14:23:55.677Z</time></trkpt><trkpt lat="43.2200217" lon="2.2145483"><ele>137.39999999999998</ele><time>2026-03-22T14:23:56.676Z</time></trkpt><trkpt lat="43.219965" lon="2.2145"><ele>137.60000000000002</ele><time>2026-03-22T14:23:57.674Z</time></trkpt><trkpt lat="43.2198933" lon="2.2143717"><ele>137.8</ele><time>2026-03-22T14:23:59.674Z</time></trkpt><trkpt lat="43.219925" lon="2.21426"><ele>138.0</ele><time>2026-03-22T14:24:01.675Z</time></trkpt><trkpt lat="43.22004" lon="2.2142217"><ele>138.0</ele><time>2026-03-22T14:24:03.677Z</time></trkpt><trkpt lat="43.2201233" lon="2.2142067"><ele>138.0</ele><time>2026-03-22T14:24:04.674Z</time></trkpt><trkpt lat="43.2202167" lon="2.2141767"><ele>138.0</ele><time>2026-03-22T14:24:05.673Z</time></trkpt><trkpt lat="43.2203083" lon="2.21414"><ele>138.0</ele><time>2026-03-22T14:24:06.676Z</time></trkpt><trkpt lat="43.220395" lon="2.21409"><ele>138.0</ele><time>2026-03-22T14:24:07.674Z</time></trkpt><trkpt lat="43.2204767" lon="2.2140317"><ele>138.0</ele><time>2026-03-22T14:24:08.677Z</time></trkpt><trkpt lat="43.22056" lon="2.2139683"><ele>138.0</ele><time>2026-03-22T14:24:09.677Z</time></trkpt><trkpt lat="43.22064" lon="2.2139083"><ele>138.0</ele><time>2026-03-22T14:24:10.676Z</time></trkpt><trkpt lat="43.2207167" lon="2.2138467"><ele>138.0</ele><time>2026-03-22T14:24:11.674Z</time></trkpt><trkpt lat="43.2207883" lon="2.21378"><ele>138.0</ele><time>2026-03-22T14:24:12.675Z</time></trkpt><trkpt lat="43.2208567" lon="2.2137217"><ele>138.0</ele><time>2026-03-22T14:24:13.675Z</time></trkpt><trkpt lat="43.220915" lon="2.2136633"><ele>138.0</ele><time>2026-03-22T14:24:14.675Z</time></trkpt><trkpt lat="43.2209667" lon="2.2136067"><ele>138.0</ele><time>2026-03-22T14:24:15.674Z</time></trkpt><trkpt lat="43.2210417" lon="2.213495"><ele>138.0</ele><time>2026-03-22T14:24:17.673Z</time></trkpt><trkpt lat="43.221075" lon="2.2134133"><ele>138.0</ele><time>2026-03-22T14:24:18.674Z</time></trkpt><trkpt lat="43.2210983" lon="2.213305"><ele>138.0</ele><time>2026-03-22T14:24:19.675Z</time></trkpt><trkpt lat="43.221115" lon="2.2131617"><ele>138.0</ele><time>2026-03-22T14:24:20.677Z</time></trkpt><trkpt lat="43.221135" lon="2.212995"><ele>138.25</ele><time>2026-03-22T14:24:21.677Z</time></trkpt><trkpt lat="43.2211567" lon="2.2128183"><ele>138.5</ele><time>2026-03-22T14:24:22.676Z</time></trkpt><trkpt lat="43.2211783" lon="2.2126317"><ele>138.75</ele><time>2026-03-22T14:24:23.676Z</time></trkpt><trkpt lat="43.2212033" lon="2.21244"><ele>139.0</ele><time>2026-03-22T14:24:24.676Z</time></trkpt><trkpt lat="43.2212267" lon="2.2122483"><ele>139.25</ele><time>2026-03-22T14:24:25.678Z</time></trkpt><trkpt lat="43.2212517" lon="2.2120517"><ele>139.5</ele><time>2026-03-22T14:24:26.676Z</time></trkpt><trkpt lat="43.2212767" lon="2.21185"><ele>139.75</ele><time>2026-03-22T14:24:27.674Z</time></trkpt><trkpt lat="43.2213" lon="2.211645"><ele>140.0</ele><time>2026-03-22T14:24:28.677Z</time></trkpt><trkpt lat="43.2213267" lon="2.2114567"><ele>140.2</ele><time>2026-03-22T14:24:29.673Z</time></trkpt><trkpt lat="43.22135" lon="2.2112783"><ele>140.4</ele><time>2026-03-22T14:24:30.676Z</time></trkpt><trkpt lat="43.2213733" lon="2.211125"><ele>140.6</ele><time>2026-03-22T14:24:31.675Z</time></trkpt><trkpt lat="43.2213933" lon="2.2109883"><ele>140.8</ele><time>2026-03-22T14:24:32.675Z</time></trkpt><trkpt lat="43.2214117" lon="2.2108817"><ele>141.0</ele><time>2026-03-22T14:24:33.673Z</time></trkpt><trkpt lat="43.2214267" lon="2.2107917"><ele>141.0</ele><time>2026-03-22T14:24:34.675Z</time></trkpt><trkpt lat="43.2214517" lon="2.21066"><ele>141.0</ele><time>2026-03-22T14:24:36.678Z</time></trkpt><trkpt lat="43.2215117" lon="2.2105833"><ele>141.0</ele><time>2026-03-22T14:24:38.677Z</time></trkpt><trkpt lat="43.2215767" lon="2.2105733"><ele>141.0</ele><time>2026-03-22T14:24:39.674Z</time></trkpt><trkpt lat="43.2216517" lon="2.21058"><ele>141.0</ele><time>2026-03-22T14:24:40.675Z</time></trkpt><trkpt lat="43.2217467" lon="2.2105933"><ele>141.0</ele><time>2026-03-22T14:24:41.675Z</time></trkpt><trkpt lat="43.2218483" lon="2.2105967"><ele>141.25</ele><time>2026-03-22T14:24:42.674Z</time></trkpt><trkpt lat="43.2219567" lon="2.2105967"><ele>141.5</ele><time>2026-03-22T14:24:43.675Z</time></trkpt><trkpt lat="43.2220733" lon="2.2106"><ele>141.75</ele><time>2026-03-22T14:24:44.673Z</time></trkpt><trkpt lat="43.2221883" lon="2.2106067"><ele>142.0</ele><time>2026-03-22T14:24:45.673Z</time></trkpt><trkpt lat="43.2223067" lon="2.2106117"><ele>140.75</ele><time>2026-03-22T14:24:46.675Z</time></trkpt><trkpt lat="43.2224267" lon="2.2106233"><ele>139.5</ele><time>2026-03-22T14:24:47.674Z</time></trkpt><trkpt lat="43.2225533" lon="2.210645"><ele>138.25</ele><time>2026-03-22T14:24:48.673Z</time></trkpt><trkpt lat="43.2226817" lon="2.2106767"><ele>137.0</ele><time>2026-03-22T14:24:49.675Z</time></trkpt><trkpt lat="43.2228133" lon="2.21072"><ele>136.75</ele><time>2026-03-22T14:24:50.676Z</time></trkpt><trkpt lat="43.2229433" lon="2.2107717"><ele>136.5</ele><time>2026-03-22T14:24:51.676Z</time></trkpt><trkpt lat="43.2230817" lon="2.2108233"><ele>136.25</ele><time>2026-03-22T14:24:52.676Z</time></trkpt><trkpt lat="43.2232233" lon="2.2108783"><ele>136.0</ele><time>2026-03-22T14:24:53.675Z</time></trkpt><trkpt lat="43.2233667" lon="2.2109367"><ele>135.5</ele><time>2026-03-22T14:24:54.674Z</time></trkpt><trkpt lat="43.2235117" lon="2.2109933"><ele>135.0</ele><time>2026-03-22T14:24:55.679Z</time></trkpt><trkpt lat="43.2236517" lon="2.211045"><ele>134.5</ele><time>2026-03-22T14:24:56.676Z</time></trkpt><trkpt lat="43.223785" lon="2.2110917"><ele>134.0</ele><time>2026-03-22T14:24:57.676Z</time></trkpt><trkpt lat="43.2239167" lon="2.2111367"><ele>133.5</ele><time>2026-03-22T14:24:58.673Z</time></trkpt><trkpt lat="43.224055" lon="2.2111717"><ele>133.0</ele><time>2026-03-22T14:24:59.676Z</time></trkpt><trkpt lat="43.2241967" lon="2.2111917"><ele>132.5</ele><time>2026-03-22T14:25:00.673Z</time></trkpt><trkpt lat="43.2243433" lon="2.211195"><ele>132.0</ele><time>2026-03-22T14:25:01.676Z</time></trkpt><trkpt lat="43.2244933" lon="2.2111867"><ele>132.0</ele><time>2026-03-22T14:25:02.675Z</time></trkpt><trkpt lat="43.22464" lon="2.2111767"><ele>132.0</ele><time>2026-03-22T14:25:03.678Z</time></trkpt><trkpt lat="43.2247833" lon="2.21116"><ele>132.0</ele><time>2026-03-22T14:25:04.674Z</time></trkpt><trkpt lat="43.224915" lon="2.21115"><ele>132.0</ele><time>2026-03-22T14:25:05.676Z</time></trkpt><trkpt lat="43.2250367" lon="2.21115"><ele>131.79999999999998</ele><time>2026-03-22T14:25:06.674Z</time></trkpt><trkpt lat="43.2251533" lon="2.21115"><ele>131.6</ele><time>2026-03-22T14:25:07.676Z</time></trkpt><trkpt lat="43.2252667" lon="2.2111517"><ele>131.39999999999998</ele><time>2026-03-22T14:25:08.673Z</time></trkpt><trkpt lat="43.2253683" lon="2.211155"><ele>131.2</ele><time>2026-03-22T14:25:09.675Z</time></trkpt><trkpt lat="43.2254617" lon="2.211165"><ele>131.0</ele><time>2026-03-22T14:25:10.674Z</time></trkpt><trkpt lat="43.2255483" lon="2.21117"><ele>131.0</ele><time>2026-03-22T14:25:11.676Z</time></trkpt><trkpt lat="43.2256233" lon="2.2111833"><ele>131.0</ele><time>2026-03-22T14:25:12.677Z</time></trkpt><trkpt lat="43.2256883" lon="2.2111967"><ele>131.0</ele><time>2026-03-22T14:25:13.674Z</time></trkpt><trkpt lat="43.2257933" lon="2.21117"><ele>131.0</ele><time>2026-03-22T14:25:15.675Z</time></trkpt><trkpt lat="43.22583" lon="2.2110383"><ele>131.0</ele><time>2026-03-22T14:25:17.675Z</time></trkpt><trkpt lat="43.2257983" lon="2.21094"><ele>131.0</ele><time>2026-03-22T14:25:18.673Z</time></trkpt><trkpt lat="43.2257533" lon="2.210825"><ele>131.0</ele><time>2026-03-22T14:25:19.675Z</time></trkpt><trkpt lat="43.2257083" lon="2.2106967"><ele>131.0</ele><time>2026-03-22T14:25:20.675Z</time></trkpt><trkpt lat="43.2256633" lon="2.210555"><ele>131.0</ele><time>2026-03-22T14:25:21.676Z</time></trkpt><trkpt lat="43.225615" lon="2.21041"><ele>131.0</ele><time>2026-03-22T14:25:22.675Z</time></trkpt><trkpt lat="43.2255683" lon="2.2102583"><ele>131.0</ele><time>2026-03-22T14:25:23.674Z</time></trkpt><trkpt lat="43.22552" lon="2.2100967"><ele>131.0</ele><time>2026-03-22T14:25:24.676Z</time></trkpt><trkpt lat="43.2254733" lon="2.2099283"><ele>131.0</ele><time>2026-03-22T14:25:25.674Z</time></trkpt><trkpt lat="43.2254317" lon="2.20976"><ele>131.0</ele><time>2026-03-22T14:25:26.676Z</time></trkpt><trkpt lat="43.22539" lon="2.209585"><ele>131.25</ele><time>2026-03-22T14:25:27.678Z</time></trkpt><trkpt lat="43.225345" lon="2.2094083"><ele>131.5</ele><time>2026-03-22T14:25:28.674Z</time></trkpt><trkpt lat="43.2252967" lon="2.20923"><ele>131.75</ele><time>2026-03-22T14:25:29.676Z</time></trkpt><trkpt lat="43.2252417" lon="2.2090467"><ele>132.0</ele><time>2026-03-22T14:25:30.673Z</time></trkpt><trkpt lat="43.2251867" lon="2.20886"><ele>132.0</ele><time>2026-03-22T14:25:31.675Z</time></trkpt><trkpt lat="43.2251317" lon="2.2086683"><ele>132.0</ele><time>2026-03-22T14:25:32.674Z</time></trkpt><trkpt lat="43.2250733" lon="2.2084783"><ele>132.0</ele><time>2026-03-22T14:25:33.674Z</time></trkpt><trkpt lat="43.225005" lon="2.20829"><ele>131.66666666666666</ele><time>2026-03-22T14:25:34.675Z</time></trkpt><trkpt lat="43.2249333" lon="2.2081083"><ele>131.33333333333331</ele><time>2026-03-22T14:25:35.675Z</time></trkpt><trkpt lat="43.224855" lon="2.2079283"><ele>131.0</ele><time>2026-03-22T14:25:36.675Z</time></trkpt><trkpt lat="43.2247733" lon="2.2077517"><ele>131.0</ele><time>2026-03-22T14:25:37.675Z</time></trkpt><trkpt lat="43.2246917" lon="2.2075733"><ele>131.0</ele><time>2026-03-22T14:25:38.676Z</time></trkpt><trkpt lat="43.22461" lon="2.207395"><ele>131.0</ele><time>2026-03-22T14:25:39.673Z</time></trkpt><trkpt lat="43.2245333" lon="2.2072283"><ele>131.0</ele><time>2026-03-22T14:25:40.674Z</time></trkpt><trkpt lat="43.224465" lon="2.2070717"><ele>131.0</ele><time>2026-03-22T14:25:41.675Z</time></trkpt><trkpt lat="43.2244033" lon="2.2069183"><ele>131.0</ele><time>2026-03-22T14:25:42.675Z</time></trkpt><trkpt lat="43.2243433" lon="2.2067683"><ele>131.0</ele><time>2026-03-22T14:25:43.674Z</time></trkpt><trkpt lat="43.2242817" lon="2.20662"><ele>130.8</ele><time>2026-03-22T14:25:44.676Z</time></trkpt><trkpt lat="43.2242217" lon="2.20648"><ele>130.6</ele><time>2026-03-22T14:25:45.675Z</time></trkpt><trkpt lat="43.2241667" lon="2.206345"><ele>130.4</ele><time>2026-03-22T14:25:46.674Z</time></trkpt><trkpt lat="43.2241117" lon="2.2062133"><ele>130.2</ele><time>2026-03-22T14:25:47.675Z</time></trkpt><trkpt lat="43.2240567" lon="2.2060867"><ele>130.0</ele><time>2026-03-22T14:25:48.676Z</time></trkpt><trkpt lat="43.2240033" lon="2.2059583"><ele>130.4</ele><time>2026-03-22T14:25:49.675Z</time></trkpt><trkpt lat="43.2239533" lon="2.2058283"><ele>130.8</ele><time>2026-03-22T14:25:50.675Z</time></trkpt><trkpt lat="43.2239033" lon="2.2057033"><ele>131.2</ele><time>2026-03-22T14:25:51.674Z</time></trkpt><trkpt lat="43.2238533" lon="2.205575"><ele>131.6</ele><time>2026-03-22T14:25:52.674Z</time></trkpt><trkpt lat="43.2238067" lon="2.2054517"><ele>132.0</ele><time>2026-03-22T14:25:53.674Z</time></trkpt><trkpt lat="43.22376" lon="2.2053267"><ele>132.0</ele><time>2026-03-22T14:25:54.676Z</time></trkpt><trkpt lat="43.2237167" lon="2.2052033"><ele>132.0</ele><time>2026-03-22T14:25:55.678Z</time></trkpt><trkpt lat="43.2236733" lon="2.20508"><ele>132.0</ele><time>2026-03-22T14:25:56.675Z</time></trkpt><trkpt lat="43.223635" lon="2.2049583"><ele>132.0</ele><time>2026-03-22T14:25:57.673Z</time></trkpt><trkpt lat="43.2235967" lon="2.204835"><ele>132.0</ele><time>2026-03-22T14:25:58.674Z</time></trkpt><trkpt lat="43.2235583" lon="2.2047083"><ele>132.2</ele><time>2026-03-22T14:25:59.673Z</time></trkpt><trkpt lat="43.2235233" lon="2.2045817"><ele>132.39999999999998</ele><time>2026-03-22T14:26:00.673Z</time></trkpt><trkpt lat="43.2234917" lon="2.2044533"><ele>132.60000000000002</ele><time>2026-03-22T14:26:01.674Z</time></trkpt><trkpt lat="43.2234583" lon="2.2043233"><ele>132.8</ele><time>2026-03-22T14:26:02.674Z</time></trkpt><trkpt lat="43.2234267" lon="2.2041883"><ele>133.0</ele><time>2026-03-22T14:26:03.675Z</time></trkpt><trkpt lat="43.223385" lon="2.20405"><ele>133.20000000000002</ele><time>2026-03-22T14:26:04.674Z</time></trkpt><trkpt lat="43.2233383" lon="2.2039133"><ele>133.4</ele><time>2026-03-22T14:26:05.674Z</time></trkpt><trkpt lat="43.2232917" lon="2.20378"><ele>133.60000000000002</ele><time>2026-03-22T14:26:06.673Z</time></trkpt><trkpt lat="43.2232383" lon="2.203655"><ele>133.8</ele><time>2026-03-22T14:26:07.675Z</time></trkpt><trkpt lat="43.2231767" lon="2.2035467"><ele>134.0</ele><time>2026-03-22T14:26:08.675Z</time></trkpt><trkpt lat="43.22311" lon="2.20345"><ele>134.0</ele><time>2026-03-22T14:26:09.675Z</time></trkpt><trkpt lat="43.2230433" lon="2.20335"><ele>134.0</ele><time>2026-03-22T14:26:10.674Z</time></trkpt><trkpt lat="43.222975" lon="2.2032483"><ele>134.0</ele><time>2026-03-22T14:26:11.674Z</time></trkpt><trkpt lat="43.2229033" lon="2.203145"><ele>134.0</ele><time>2026-03-22T14:26:12.674Z</time></trkpt><trkpt lat="43.2228367" lon="2.20303"><ele>134.0</ele><time>2026-03-22T14:26:13.674Z</time></trkpt><trkpt lat="43.2227783" lon="2.202895"><ele>134.0</ele><time>2026-03-22T14:26:14.675Z</time></trkpt><trkpt lat="43.222725" lon="2.2027483"><ele>134.0</ele><time>2026-03-22T14:26:15.674Z</time></trkpt><trkpt lat="43.2226767" lon="2.202595"><ele>134.0</ele><time>2026-03-22T14:26:16.673Z</time></trkpt><trkpt lat="43.2226333" lon="2.2024417"><ele>134.0</ele><time>2026-03-22T14:26:17.674Z</time></trkpt><trkpt lat="43.2225917" lon="2.2022767"><ele>134.25</ele><time>2026-03-22T14:26:18.675Z</time></trkpt><trkpt lat="43.2225583" lon="2.2021"><ele>134.5</ele><time>2026-03-22T14:26:19.674Z</time></trkpt><trkpt lat="43.2225317" lon="2.2019217"><ele>134.75</ele><time>2026-03-22T14:26:20.675Z</time></trkpt><trkpt lat="43.2225067" lon="2.2017417"><ele>135.0</ele><time>2026-03-22T14:26:21.675Z</time></trkpt><trkpt lat="43.2224783" lon="2.2015583"><ele>135.25</ele><time>2026-03-22T14:26:22.673Z</time></trkpt><trkpt lat="43.2224517" lon="2.201385"><ele>135.5</ele><time>2026-03-22T14:26:23.673Z</time></trkpt><trkpt lat="43.2224167" lon="2.2012067"><ele>135.75</ele><time>2026-03-22T14:26:24.674Z</time></trkpt><trkpt lat="43.222375" lon="2.201025"><ele>136.0</ele><time>2026-03-22T14:26:25.674Z</time></trkpt><trkpt lat="43.2223333" lon="2.2008333"><ele>136.25</ele><time>2026-03-22T14:26:26.675Z</time></trkpt><trkpt lat="43.2222967" lon="2.20064"><ele>136.5</ele><time>2026-03-22T14:26:27.674Z</time></trkpt><trkpt lat="43.2222683" lon="2.2004367"><ele>136.75</ele><time>2026-03-22T14:26:28.673Z</time></trkpt><trkpt lat="43.2222433" lon="2.20023"><ele>137.0</ele><time>2026-03-22T14:26:29.673Z</time></trkpt><trkpt lat="43.2222167" lon="2.20001"><ele>137.33333333333331</ele><time>2026-03-22T14:26:30.679Z</time></trkpt><trkpt lat="43.222195" lon="2.199785"><ele>137.66666666666666</ele><time>2026-03-22T14:26:31.673Z</time></trkpt><trkpt lat="43.2221783" lon="2.1995517"><ele>138.0</ele><time>2026-03-22T14:26:32.673Z</time></trkpt><trkpt lat="43.2221567" lon="2.19931"><ele>138.0</ele><time>2026-03-22T14:26:33.673Z</time></trkpt><trkpt lat="43.22213" lon="2.1990683"><ele>138.0</ele><time>2026-03-22T14:26:34.673Z</time></trkpt><trkpt lat="43.2221033" lon="2.1988333"><ele>138.0</ele><time>2026-03-22T14:26:35.673Z</time></trkpt><trkpt lat="43.2220733" lon="2.1985983"><ele>138.33333333333334</ele><time>2026-03-22T14:26:36.674Z</time></trkpt><trkpt lat="43.222045" lon="2.1983667"><ele>138.66666666666669</ele><time>2026-03-22T14:26:37.673Z</time></trkpt><trkpt lat="43.2220167" lon="2.198135"><ele>139.0</ele><time>2026-03-22T14:26:38.675Z</time></trkpt><trkpt lat="43.2219967" lon="2.1978983"><ele>139.0</ele><time>2026-03-22T14:26:39.676Z</time></trkpt><trkpt lat="43.2219917" lon="2.1976517"><ele>139.0</ele><time>2026-03-22T14:26:40.674Z</time></trkpt><trkpt lat="43.222005" lon="2.197405"><ele>139.0</ele><time>2026-03-22T14:26:41.679Z</time></trkpt><trkpt lat="43.22201" lon="2.1971517"><ele>139.0</ele><time>2026-03-22T14:26:42.675Z</time></trkpt><trkpt lat="43.2220133" lon="2.1969083"><ele>139.0</ele><time>2026-03-22T14:26:43.677Z</time></trkpt><trkpt lat="43.2220183" lon="2.196675"><ele>139.0</ele><time>2026-03-22T14:26:44.676Z</time></trkpt><trkpt lat="43.222025" lon="2.1964433"><ele>139.33333333333334</ele><time>2026-03-22T14:26:45.676Z</time></trkpt><trkpt lat="43.222035" lon="2.1962167"><ele>139.66666666666666</ele><time>2026-03-22T14:26:46.677Z</time></trkpt><trkpt lat="43.2220383" lon="2.1960083"><ele>140.0</ele><time>2026-03-22T14:26:47.676Z</time></trkpt><trkpt lat="43.222045" lon="2.1958183"><ele>140.2</ele><time>2026-03-22T14:26:48.674Z</time></trkpt><trkpt lat="43.2220533" lon="2.1956583"><ele>140.4</ele><time>2026-03-22T14:26:49.675Z</time></trkpt><trkpt lat="43.2220517" lon="2.1955183"><ele>140.6</ele><time>2026-03-22T14:26:50.676Z</time></trkpt><trkpt lat="43.2220483" lon="2.19541"><ele>140.8</ele><time>2026-03-22T14:26:51.674Z</time></trkpt><trkpt lat="43.222045" lon="2.1952617"><ele>141.0</ele><time>2026-03-22T14:26:53.674Z</time></trkpt><trkpt lat="43.2220283" lon="2.1951633"><ele>141.0</ele><time>2026-03-22T14:26:55.673Z</time></trkpt><trkpt lat="43.222115" lon="2.1952317"><ele>141.0</ele><time>2026-03-22T14:27:00.675Z</time></trkpt><trkpt lat="43.2222383" lon="2.1952217"><ele>141.0</ele><time>2026-03-22T14:27:02.674Z</time></trkpt><trkpt lat="43.2223133" lon="2.1951933"><ele>141.0</ele><time>2026-03-22T14:27:03.674Z</time></trkpt><trkpt lat="43.2223983" lon="2.19515"><ele>141.0</ele><time>2026-03-22T14:27:04.674Z</time></trkpt><trkpt lat="43.2224967" lon="2.1950867"><ele>141.0</ele><time>2026-03-22T14:27:05.675Z</time></trkpt><trkpt lat="43.2226067" lon="2.1950433"><ele>141.0</ele><time>2026-03-22T14:27:06.676Z</time></trkpt><trkpt lat="43.2227217" lon="2.1950133"><ele>141.0</ele><time>2026-03-22T14:27:07.676Z</time></trkpt><trkpt lat="43.222825" lon="2.194975"><ele>141.0</ele><time>2026-03-22T14:27:08.676Z</time></trkpt><trkpt lat="43.2229317" lon="2.1949367"><ele>141.0</ele><time>2026-03-22T14:27:09.676Z</time></trkpt><trkpt lat="43.22304" lon="2.194885"><ele>141.0</ele><time>2026-03-22T14:27:10.673Z</time></trkpt><trkpt lat="43.22314" lon="2.19485"><ele>141.0</ele><time>2026-03-22T14:27:11.673Z</time></trkpt><trkpt lat="43.2232333" lon="2.194825"><ele>141.0</ele><time>2026-03-22T14:27:12.676Z</time></trkpt><trkpt lat="43.22332" lon="2.1948017"><ele>141.0</ele><time>2026-03-22T14:27:13.674Z</time></trkpt><trkpt lat="43.2233983" lon="2.194775"><ele>141.0</ele><time>2026-03-22T14:27:14.675Z</time></trkpt><trkpt lat="43.2234717" lon="2.1947367"><ele>141.0</ele><time>2026-03-22T14:27:15.673Z</time></trkpt><trkpt lat="43.2235483" lon="2.1946883"><ele>140.6</ele><time>2026-03-22T14:27:16.674Z</time></trkpt><trkpt lat="43.22363" lon="2.1946417"><ele>140.2</ele><time>2026-03-22T14:27:17.673Z</time></trkpt><trkpt lat="43.223715" lon="2.1945933"><ele>139.8</ele><time>2026-03-22T14:27:18.674Z</time></trkpt><trkpt lat="43.2237983" lon="2.1945333"><ele>139.4</ele><time>2026-03-22T14:27:19.674Z</time></trkpt><trkpt lat="43.22388" lon="2.1944633"><ele>139.0</ele><time>2026-03-22T14:27:20.676Z</time></trkpt><trkpt lat="43.223955" lon="2.1943933"><ele>138.5</ele><time>2026-03-22T14:27:21.675Z</time></trkpt><trkpt lat="43.2240167" lon="2.1943217"><ele>138.0</ele><time>2026-03-22T14:27:22.676Z</time></trkpt><trkpt lat="43.2240567" lon="2.194245"><ele>137.5</ele><time>2026-03-22T14:27:23.676Z</time></trkpt><trkpt lat="43.224075" lon="2.1941617"><ele>137.0</ele><time>2026-03-22T14:27:24.675Z</time></trkpt><trkpt lat="43.22406" lon="2.1940617"><ele>136.5</ele><time>2026-03-22T14:27:25.674Z</time></trkpt><trkpt lat="43.2240333" lon="2.1939467"><ele>136.0</ele><time>2026-03-22T14:27:26.677Z</time></trkpt><trkpt lat="43.2239917" lon="2.1938267"><ele>136.25</ele><time>2026-03-22T14:27:27.674Z</time></trkpt><trkpt lat="43.22393" lon="2.1936817"><ele>136.5</ele><time>2026-03-22T14:27:28.675Z</time></trkpt><trkpt lat="43.2238683" lon="2.19354"><ele>136.75</ele><time>2026-03-22T14:27:29.674Z</time></trkpt><trkpt lat="43.2238083" lon="2.1934067"><ele>137.0</ele><time>2026-03-22T14:27:30.673Z</time></trkpt><trkpt lat="43.223755" lon="2.19328"><ele>136.6</ele><time>2026-03-22T14:27:31.675Z</time></trkpt><trkpt lat="43.2237083" lon="2.193165"><ele>136.2</ele><time>2026-03-22T14:27:32.675Z</time></trkpt><trkpt lat="43.2236683" lon="2.1930667"><ele>135.8</ele><time>2026-03-22T14:27:33.675Z</time></trkpt><trkpt lat="43.2236383" lon="2.192985"><ele>135.4</ele><time>2026-03-22T14:27:34.674Z</time></trkpt><trkpt lat="43.22358" lon="2.1928217"><ele>135.0</ele><time>2026-03-22T14:27:36.675Z</time></trkpt><trkpt lat="43.223545" lon="2.1927267"><ele>135.0</ele><time>2026-03-22T14:27:37.676Z</time></trkpt><trkpt lat="43.2235033" lon="2.19262"><ele>135.0</ele><time>2026-03-22T14:27:38.675Z</time></trkpt><trkpt lat="43.223465" lon="2.1925067"><ele>135.0</ele><time>2026-03-22T14:27:39.678Z</time></trkpt><trkpt lat="43.2234317" lon="2.192375"><ele>135.0</ele><time>2026-03-22T14:27:40.674Z</time></trkpt><trkpt lat="43.2234" lon="2.1922317"><ele>135.0</ele><time>2026-03-22T14:27:41.675Z</time></trkpt><trkpt lat="43.2233633" lon="2.1920917"><ele>135.2</ele><time>2026-03-22T14:27:42.673Z</time></trkpt><trkpt lat="43.2233217" lon="2.1919483"><ele>135.4</ele><time>2026-03-22T14:27:43.674Z</time></trkpt><trkpt lat="43.223275" lon="2.1918083"><ele>135.6</ele><time>2026-03-22T14:27:44.678Z</time></trkpt><trkpt lat="43.2232317" lon="2.19168"><ele>135.8</ele><time>2026-03-22T14:27:45.674Z</time></trkpt><trkpt lat="43.22319" lon="2.191555"><ele>136.0</ele><time>2026-03-22T14:27:46.676Z</time></trkpt><trkpt lat="43.22315" lon="2.1914217"><ele>137.0</ele><time>2026-03-22T14:27:47.676Z</time></trkpt><trkpt lat="43.2231033" lon="2.191285"><ele>138.0</ele><time>2026-03-22T14:27:48.673Z</time></trkpt><trkpt lat="43.2230517" lon="2.1911467"><ele>139.0</ele><time>2026-03-22T14:27:49.677Z</time></trkpt><trkpt lat="43.2229983" lon="2.19101"><ele>140.0</ele><time>2026-03-22T14:27:50.675Z</time></trkpt><trkpt lat="43.222945" lon="2.1908817"><ele>141.0</ele><time>2026-03-22T14:27:51.676Z</time></trkpt><trkpt lat="43.2228917" lon="2.1907533"><ele>140.25</ele><time>2026-03-22T14:27:52.675Z</time></trkpt><trkpt lat="43.2228383" lon="2.1906283"><ele>139.5</ele><time>2026-03-22T14:27:53.675Z</time></trkpt><trkpt lat="43.222785" lon="2.190495"><ele>138.75</ele><time>2026-03-22T14:27:54.676Z</time></trkpt><trkpt lat="43.22273" lon="2.1903567"><ele>138.0</ele><time>2026-03-22T14:27:55.676Z</time></trkpt><trkpt lat="43.2226733" lon="2.1902117"><ele>138.0</ele><time>2026-03-22T14:27:56.677Z</time></trkpt><trkpt lat="43.222615" lon="2.1900633"><ele>138.0</ele><time>2026-03-22T14:27:57.675Z</time></trkpt><trkpt lat="43.2225583" lon="2.1899133"><ele>138.0</ele><time>2026-03-22T14:27:58.677Z</time></trkpt><trkpt lat="43.222505" lon="2.1897683"><ele>138.0</ele><time>2026-03-22T14:27:59.674Z</time></trkpt><trkpt lat="43.2224617" lon="2.1896367"><ele>137.83333333333334</ele><time>2026-03-22T14:28:00.673Z</time></trkpt><trkpt lat="43.2224183" lon="2.1895183"><ele>137.66666666666666</ele><time>2026-03-22T14:28:01.674Z</time></trkpt><trkpt lat="43.22238" lon="2.1894083"><ele>137.5</ele><time>2026-03-22T14:28:02.677Z</time></trkpt><trkpt lat="43.222345" lon="2.189305"><ele>137.33333333333331</ele><time>2026-03-22T14:28:03.674Z</time></trkpt><trkpt lat="43.222315" lon="2.1892267"><ele>137.16666666666666</ele><time>2026-03-22T14:28:04.673Z</time></trkpt><trkpt lat="43.2222567" lon="2.1891367"><ele>137.0</ele><time>2026-03-22T14:28:06.677Z</time></trkpt><trkpt lat="43.222195" lon="2.1892"><ele>137.5</ele><time>2026-03-22T14:28:08.674Z</time></trkpt><trkpt lat="43.2221683" lon="2.18929"><ele>138.0</ele><time>2026-03-22T14:28:09.674Z</time></trkpt><trkpt lat="43.2221417" lon="2.1893983"><ele>138.5</ele><time>2026-03-22T14:28:10.674Z</time></trkpt><trkpt lat="43.2220983" lon="2.18951"><ele>139.0</ele><time>2026-03-22T14:28:11.674Z</time></trkpt><trkpt lat="43.22204" lon="2.1896133"><ele>139.5</ele><time>2026-03-22T14:28:12.674Z</time></trkpt><trkpt lat="43.2219683" lon="2.1897017"><ele>140.0</ele><time>2026-03-22T14:28:13.676Z</time></trkpt><trkpt lat="43.22189" lon="2.1897767"><ele>140.0</ele><time>2026-03-22T14:28:14.673Z</time></trkpt><trkpt lat="43.221815" lon="2.1898333"><ele>140.0</ele><time>2026-03-22T14:28:15.675Z</time></trkpt><trkpt lat="43.2217483" lon="2.1898717"><ele>140.0</ele><time>2026-03-22T14:28:16.675Z</time></trkpt><trkpt lat="43.2216433" lon="2.1899083"><ele>140.0</ele><time>2026-03-22T14:28:18.675Z</time></trkpt><trkpt lat="43.2215683" lon="2.18993"><ele>140.0</ele><time>2026-03-22T14:28:20.68Z</time></trkpt><trkpt lat="43.2215033" lon="2.189955"><ele>140.0</ele><time>2026-03-22T14:28:22.676Z</time></trkpt><trkpt lat="43.221435" lon="2.18994"><ele>140.33333333333331</ele><time>2026-03-22T14:28:24.677Z</time></trkpt><trkpt lat="43.2213567" lon="2.189935"><ele>140.66666666666666</ele><time>2026-03-22T14:28:26.68Z</time></trkpt><trkpt lat="43.22128" lon="2.1899483"><ele>141.0</ele><time>2026-03-22T14:28:27.677Z</time></trkpt><trkpt lat="43.2212133" lon="2.189945"><ele>141.33333333333334</ele><time>2026-03-22T14:28:28.675Z</time></trkpt><trkpt lat="43.2210983" lon="2.1899533"><ele>141.66666666666669</ele><time>2026-03-22T14:28:30.677Z</time></trkpt><trkpt lat="43.2210433" lon="2.1898217"><ele>142.0</ele><time>2026-03-22T14:28:32.676Z</time></trkpt><trkpt lat="43.221055" lon="2.1897117"><ele>142.6</ele><time>2026-03-22T14:28:33.674Z</time></trkpt><trkpt lat="43.2210583" lon="2.189585"><ele>143.2</ele><time>2026-03-22T14:28:34.675Z</time></trkpt><trkpt lat="43.2210567" lon="2.1894483"><ele>143.8</ele><time>2026-03-22T14:28:35.673Z</time></trkpt><trkpt lat="43.2210617" lon="2.1893183"><ele>144.4</ele><time>2026-03-22T14:28:36.674Z</time></trkpt><trkpt lat="43.221055" lon="2.189215"><ele>145.0</ele><time>2026-03-22T14:28:37.674Z</time></trkpt><trkpt lat="43.2209817" lon="2.189085"><ele>145.0</ele><time>2026-03-22T14:28:39.675Z</time></trkpt><trkpt lat="43.2209083" lon="2.1890667"><ele>145.0</ele><time>2026-03-22T14:28:40.674Z</time></trkpt><trkpt lat="43.220815" lon="2.189095"><ele>145.0</ele><time>2026-03-22T14:28:41.676Z</time></trkpt><trkpt lat="43.2207033" lon="2.1891533"><ele>145.0</ele><time>2026-03-22T14:28:42.673Z</time></trkpt><trkpt lat="43.22058" lon="2.189205"><ele>145.0</ele><time>2026-03-22T14:28:43.675Z</time></trkpt><trkpt lat="43.2204433" lon="2.1892483"><ele>145.0</ele><time>2026-03-22T14:28:44.675Z</time></trkpt><trkpt lat="43.2203033" lon="2.18928"><ele>145.0</ele><time>2026-03-22T14:28:45.675Z</time></trkpt><trkpt lat="43.2201583" lon="2.1893133"><ele>145.0</ele><time>2026-03-22T14:28:46.675Z</time></trkpt><trkpt lat="43.2200067" lon="2.1893517"><ele>145.0</ele><time>2026-03-22T14:28:47.675Z</time></trkpt><trkpt lat="43.2198567" lon="2.1894"><ele>145.66666666666669</ele><time>2026-03-22T14:28:48.675Z</time></trkpt><trkpt lat="43.2197067" lon="2.189455"><ele>146.33333333333334</ele><time>2026-03-22T14:28:49.676Z</time></trkpt><trkpt lat="43.219555" lon="2.1895067"><ele>147.0</ele><time>2026-03-22T14:28:50.676Z</time></trkpt><trkpt lat="43.219405" lon="2.189565"><ele>147.0</ele><time>2026-03-22T14:28:51.678Z</time></trkpt><trkpt lat="43.219255" lon="2.1896283"><ele>147.0</ele><time>2026-03-22T14:28:52.677Z</time></trkpt><trkpt lat="43.2191067" lon="2.1897"><ele>147.0</ele><time>2026-03-22T14:28:53.676Z</time></trkpt><trkpt lat="43.218955" lon="2.18978"><ele>147.33333333333334</ele><time>2026-03-22T14:28:54.676Z</time></trkpt><trkpt lat="43.2188017" lon="2.189865"><ele>147.66666666666669</ele><time>2026-03-22T14:28:55.677Z</time></trkpt><trkpt lat="43.218645" lon="2.1899583"><ele>148.0</ele><time>2026-03-22T14:28:56.677Z</time></trkpt><trkpt lat="43.2184833" lon="2.1900517"><ele>148.0</ele><time>2026-03-22T14:28:57.677Z</time></trkpt><trkpt lat="43.2183233" lon="2.1901467"><ele>148.0</ele><time>2026-03-22T14:28:58.674Z</time></trkpt><trkpt lat="43.218165" lon="2.1902417"><ele>148.0</ele><time>2026-03-22T14:28:59.673Z</time></trkpt><trkpt lat="43.2180067" lon="2.190335"><ele>148.33333333333334</ele><time>2026-03-22T14:29:00.673Z</time></trkpt><trkpt lat="43.2178483" lon="2.1904267"><ele>148.66666666666666</ele><time>2026-03-22T14:29:01.673Z</time></trkpt><trkpt lat="43.2176933" lon="2.1905167"><ele>149.0</ele><time>2026-03-22T14:29:02.676Z</time></trkpt><trkpt lat="43.2175383" lon="2.19061"><ele>149.0</ele><time>2026-03-22T14:29:03.674Z</time></trkpt><trkpt lat="43.21738" lon="2.1907183"><ele>149.0</ele><time>2026-03-22T14:29:04.675Z</time></trkpt><trkpt lat="43.2172233" lon="2.1908283"><ele>149.0</ele><time>2026-03-22T14:29:05.673Z</time></trkpt><trkpt lat="43.2170717" lon="2.1909383"><ele>149.33333333333331</ele><time>2026-03-22T14:29:06.674Z</time></trkpt><trkpt lat="43.216925" lon="2.1910467"><ele>149.66666666666666</ele><time>2026-03-22T14:29:07.673Z</time></trkpt><trkpt lat="43.2167783" lon="2.19116"><ele>150.0</ele><time>2026-03-22T14:29:08.675Z</time></trkpt><trkpt lat="43.2166383" lon="2.1912767"><ele>150.0</ele><time>2026-03-22T14:29:09.674Z</time></trkpt><trkpt lat="43.2165033" lon="2.1913883"><ele>150.0</ele><time>2026-03-22T14:29:10.674Z</time></trkpt><trkpt lat="43.2163783" lon="2.191495"><ele>150.0</ele><time>2026-03-22T14:29:11.673Z</time></trkpt><trkpt lat="43.21626" lon="2.1915933"><ele>150.0</ele><time>2026-03-22T14:29:12.675Z</time></trkpt><trkpt lat="43.21614" lon="2.1916717"><ele>151.0</ele><time>2026-03-22T14:29:13.673Z</time></trkpt><trkpt lat="43.216015" lon="2.1917233"><ele>152.0</ele><time>2026-03-22T14:29:14.673Z</time></trkpt><trkpt lat="43.2158817" lon="2.1917367"><ele>153.0</ele><time>2026-03-22T14:29:15.673Z</time></trkpt><trkpt lat="43.2157417" lon="2.19172"><ele>154.0</ele><time>2026-03-22T14:29:16.673Z</time></trkpt><trkpt lat="43.215595" lon="2.1916967"><ele>154.75</ele><time>2026-03-22T14:29:17.677Z</time></trkpt><trkpt lat="43.2154483" lon="2.191675"><ele>155.5</ele><time>2026-03-22T14:29:18.675Z</time></trkpt><trkpt lat="43.2153067" lon="2.191665"><ele>156.25</ele><time>2026-03-22T14:29:19.675Z</time></trkpt><trkpt lat="43.2151717" lon="2.1916617"><ele>157.0</ele><time>2026-03-22T14:29:20.678Z</time></trkpt><trkpt lat="43.2150483" lon="2.1916633"><ele>157.0</ele><time>2026-03-22T14:29:21.678Z</time></trkpt><trkpt lat="43.214935" lon="2.1916683"><ele>157.0</ele><time>2026-03-22T14:29:22.677Z</time></trkpt><trkpt lat="43.214835" lon="2.1916683"><ele>157.0</ele><time>2026-03-22T14:29:23.675Z</time></trkpt><trkpt lat="43.2147367" lon="2.1916683"><ele>157.0</ele><time>2026-03-22T14:29:24.673Z</time></trkpt><trkpt lat="43.2146433" lon="2.19167"><ele>157.0</ele><time>2026-03-22T14:29:25.676Z</time></trkpt><trkpt lat="43.2145417" lon="2.1916767"><ele>157.8</ele><time>2026-03-22T14:29:26.675Z</time></trkpt><trkpt lat="43.21444" lon="2.191675"><ele>158.6</ele><time>2026-03-22T14:29:27.674Z</time></trkpt><trkpt lat="43.2143433" lon="2.19167"><ele>159.4</ele><time>2026-03-22T14:29:28.673Z</time></trkpt><trkpt lat="43.2142467" lon="2.1916883"><ele>160.20000000000002</ele><time>2026-03-22T14:29:29.674Z</time></trkpt><trkpt lat="43.214155" lon="2.191735"><ele>161.0</ele><time>2026-03-22T14:29:30.674Z</time></trkpt><trkpt lat="43.21407" lon="2.1918117"><ele>160.75</ele><time>2026-03-22T14:29:31.674Z</time></trkpt><trkpt lat="43.2139883" lon="2.1919"><ele>160.5</ele><time>2026-03-22T14:29:32.675Z</time></trkpt><trkpt lat="43.2139" lon="2.191975"><ele>160.25</ele><time>2026-03-22T14:29:33.677Z</time></trkpt><trkpt lat="43.21379" lon="2.1920233"><ele>160.0</ele><time>2026-03-22T14:29:34.674Z</time></trkpt><trkpt lat="43.2136633" lon="2.1920483"><ele>160.0</ele><time>2026-03-22T14:29:35.676Z</time></trkpt><trkpt lat="43.2135217" lon="2.1920517"><ele>160.0</ele><time>2026-03-22T14:29:36.674Z</time></trkpt><trkpt lat="43.2133717" lon="2.1920533"><ele>160.0</ele><time>2026-03-22T14:29:37.677Z</time></trkpt><trkpt lat="43.2132133" lon="2.1920683"><ele>161.0</ele><time>2026-03-22T14:29:38.677Z</time></trkpt><trkpt lat="43.2130483" lon="2.1920833"><ele>162.0</ele><time>2026-03-22T14:29:39.675Z</time></trkpt><trkpt lat="43.2128767" lon="2.192095"><ele>163.0</ele><time>2026-03-22T14:29:40.673Z</time></trkpt><trkpt lat="43.2127033" lon="2.1921067"><ele>163.0</ele><time>2026-03-22T14:29:41.675Z</time></trkpt><trkpt lat="43.2125233" lon="2.1921233"><ele>163.0</ele><time>2026-03-22T14:29:42.675Z</time></trkpt><trkpt lat="43.2123383" lon="2.19214"><ele>163.0</ele><time>2026-03-22T14:29:43.673Z</time></trkpt><trkpt lat="43.2121567" lon="2.1921583"><ele>163.66666666666669</ele><time>2026-03-22T14:29:44.675Z</time></trkpt><trkpt lat="43.212" lon="2.1921667"><ele>164.33333333333334</ele><time>2026-03-22T14:29:45.675Z</time></trkpt><trkpt lat="43.2118367" lon="2.1921783"><ele>165.0</ele><time>2026-03-22T14:29:46.676Z</time></trkpt><trkpt lat="43.2116817" lon="2.192195"><ele>165.0</ele><time>2026-03-22T14:29:47.675Z</time></trkpt><trkpt lat="43.2115367" lon="2.192215"><ele>165.0</ele><time>2026-03-22T14:29:48.676Z</time></trkpt><trkpt lat="43.2114" lon="2.19223"><ele>165.0</ele><time>2026-03-22T14:29:49.674Z</time></trkpt><trkpt lat="43.2112667" lon="2.1922367"><ele>165.0</ele><time>2026-03-22T14:29:50.675Z</time></trkpt><trkpt lat="43.2111433" lon="2.1922417"><ele>165.4</ele><time>2026-03-22T14:29:51.677Z</time></trkpt><trkpt lat="43.2110317" lon="2.192245"><ele>165.8</ele><time>2026-03-22T14:29:52.676Z</time></trkpt><trkpt lat="43.2109267" lon="2.1922533"><ele>166.2</ele><time>2026-03-22T14:29:53.676Z</time></trkpt><trkpt lat="43.210835" lon="2.1922583"><ele>166.6</ele><time>2026-03-22T14:29:54.676Z</time></trkpt><trkpt lat="43.2107517" lon="2.1922667"><ele>167.0</ele><time>2026-03-22T14:29:55.676Z</time></trkpt><trkpt lat="43.21065" lon="2.192275"><ele>167.16666666666666</ele><time>2026-03-22T14:29:57.675Z</time></trkpt><trkpt lat="43.2105867" lon="2.1924"><ele>167.33333333333331</ele><time>2026-03-22T14:30:13.675Z</time></trkpt><trkpt lat="43.21061" lon="2.1924967"><ele>167.5</ele><time>2026-03-22T14:30:14.676Z</time></trkpt><trkpt lat="43.2106367" lon="2.1925883"><ele>167.66666666666666</ele><time>2026-03-22T14:30:15.676Z</time></trkpt><trkpt lat="43.2106633" lon="2.1927017"><ele>167.83333333333334</ele><time>2026-03-22T14:30:16.675Z</time></trkpt><trkpt lat="43.2106917" lon="2.1928217"><ele>168.0</ele><time>2026-03-22T14:30:17.674Z</time></trkpt><trkpt lat="43.210715" lon="2.1929233"><ele>168.0</ele><time>2026-03-22T14:30:18.676Z</time></trkpt><trkpt lat="43.2107083" lon="2.1930617"><ele>168.0</ele><time>2026-03-22T14:30:20.675Z</time></trkpt><trkpt lat="43.2106067" lon="2.1931133"><ele>168.0</ele><time>2026-03-22T14:30:22.675Z</time></trkpt><trkpt lat="43.2105267" lon="2.1931167"><ele>168.0</ele><time>2026-03-22T14:30:23.677Z</time></trkpt><trkpt lat="43.210435" lon="2.1931133"><ele>168.0</ele><time>2026-03-22T14:30:24.675Z</time></trkpt><trkpt lat="43.2103333" lon="2.19311"><ele>168.5</ele><time>2026-03-22T14:30:25.673Z</time></trkpt><trkpt lat="43.2102267" lon="2.1931117"><ele>169.0</ele><time>2026-03-22T14:30:26.674Z</time></trkpt><trkpt lat="43.2101117" lon="2.193115"><ele>169.5</ele><time>2026-03-22T14:30:27.675Z</time></trkpt><trkpt lat="43.20999" lon="2.1931183"><ele>170.0</ele><time>2026-03-22T14:30:28.676Z</time></trkpt><trkpt lat="43.2098633" lon="2.19312"><ele>170.25</ele><time>2026-03-22T14:30:29.674Z</time></trkpt><trkpt lat="43.209735" lon="2.19312"><ele>170.5</ele><time>2026-03-22T14:30:30.676Z</time></trkpt><trkpt lat="43.2096083" lon="2.19312"><ele>170.75</ele><time>2026-03-22T14:30:31.683Z</time></trkpt><trkpt lat="43.2094917" lon="2.1931267"><ele>171.0</ele><time>2026-03-22T14:30:32.675Z</time></trkpt><trkpt lat="43.209385" lon="2.1931567"><ele>170.5</ele><time>2026-03-22T14:30:33.676Z</time></trkpt><trkpt lat="43.2092883" lon="2.1932233"><ele>170.0</ele><time>2026-03-22T14:30:34.676Z</time></trkpt><trkpt lat="43.2092" lon="2.19332"><ele>169.5</ele><time>2026-03-22T14:30:35.677Z</time></trkpt><trkpt lat="43.2091167" lon="2.193445"><ele>169.0</ele><time>2026-03-22T14:30:36.675Z</time></trkpt><trkpt lat="43.2090333" lon="2.19358"><ele>169.0</ele><time>2026-03-22T14:30:37.677Z</time></trkpt><trkpt lat="43.2089483" lon="2.1937217"><ele>169.0</ele><time>2026-03-22T14:30:38.679Z</time></trkpt><trkpt lat="43.2088567" lon="2.1938683"><ele>169.0</ele><time>2026-03-22T14:30:39.675Z</time></trkpt><trkpt lat="43.208765" lon="2.1940217"><ele>169.0</ele><time>2026-03-22T14:30:40.676Z</time></trkpt><trkpt lat="43.2086783" lon="2.19417"><ele>168.75</ele><time>2026-03-22T14:30:41.675Z</time></trkpt><trkpt lat="43.2085983" lon="2.1943083"><ele>168.5</ele><time>2026-03-22T14:30:42.674Z</time></trkpt><trkpt lat="43.2085217" lon="2.1944333"><ele>168.25</ele><time>2026-03-22T14:30:43.673Z</time></trkpt><trkpt lat="43.20845" lon="2.1945467"><ele>168.0</ele><time>2026-03-22T14:30:44.676Z</time></trkpt><trkpt lat="43.208375" lon="2.1946467"><ele>168.0</ele><time>2026-03-22T14:30:45.673Z</time></trkpt><trkpt lat="43.208295" lon="2.194735"><ele>168.0</ele><time>2026-03-22T14:30:46.674Z</time></trkpt><trkpt lat="43.2082117" lon="2.19484"><ele>168.0</ele><time>2026-03-22T14:30:47.674Z</time></trkpt><trkpt lat="43.2081333" lon="2.1949567"><ele>168.0</ele><time>2026-03-22T14:30:48.674Z</time></trkpt><trkpt lat="43.20805" lon="2.1950733"><ele>168.75</ele><time>2026-03-22T14:30:49.674Z</time></trkpt><trkpt lat="43.2079633" lon="2.1951883"><ele>169.5</ele><time>2026-03-22T14:30:50.676Z</time></trkpt><trkpt lat="43.2078733" lon="2.195305"><ele>170.25</ele><time>2026-03-22T14:30:51.673Z</time></trkpt><trkpt lat="43.2077783" lon="2.1954233"><ele>171.0</ele><time>2026-03-22T14:30:52.673Z</time></trkpt><trkpt lat="43.2076783" lon="2.195545"><ele>171.0</ele><time>2026-03-22T14:30:53.673Z</time></trkpt><trkpt lat="43.2075817" lon="2.19567"><ele>171.0</ele><time>2026-03-22T14:30:54.674Z</time></trkpt><trkpt lat="43.207485" lon="2.1958017"><ele>171.0</ele><time>2026-03-22T14:30:55.676Z</time></trkpt><trkpt lat="43.2073833" lon="2.1959333"><ele>171.0</ele><time>2026-03-22T14:30:56.674Z</time></trkpt><trkpt lat="43.2072783" lon="2.1960617"><ele>171.5</ele><time>2026-03-22T14:30:57.673Z</time></trkpt><trkpt lat="43.20717" lon="2.1961883"><ele>172.0</ele><time>2026-03-22T14:30:58.674Z</time></trkpt><trkpt lat="43.207065" lon="2.1963"><ele>172.5</ele><time>2026-03-22T14:30:59.674Z</time></trkpt><trkpt lat="43.2069667" lon="2.196405"><ele>173.0</ele><time>2026-03-22T14:31:00.675Z</time></trkpt><trkpt lat="43.2068683" lon="2.196505"><ele>173.0</ele><time>2026-03-22T14:31:01.677Z</time></trkpt><trkpt lat="43.20677" lon="2.1966017"><ele>173.0</ele><time>2026-03-22T14:31:02.674Z</time></trkpt><trkpt lat="43.2066717" lon="2.1966967"><ele>173.0</ele><time>2026-03-22T14:31:03.675Z</time></trkpt><trkpt lat="43.2065683" lon="2.1967917"><ele>173.0</ele><time>2026-03-22T14:31:04.673Z</time></trkpt><trkpt lat="43.20646" lon="2.196875"><ele>173.8</ele><time>2026-03-22T14:31:05.677Z</time></trkpt><trkpt lat="43.2063567" lon="2.1969533"><ele>174.60000000000002</ele><time>2026-03-22T14:31:06.675Z</time></trkpt><trkpt lat="43.206265" lon="2.1970317"><ele>175.39999999999998</ele><time>2026-03-22T14:31:07.678Z</time></trkpt><trkpt lat="43.2061833" lon="2.197105"><ele>176.2</ele><time>2026-03-22T14:31:08.677Z</time></trkpt><trkpt lat="43.2061217" lon="2.197155"><ele>177.0</ele><time>2026-03-22T14:31:09.677Z</time></trkpt><trkpt lat="43.2060333" lon="2.1972383"><ele>177.0</ele><time>2026-03-22T14:31:11.673Z</time></trkpt><trkpt lat="43.2059567" lon="2.1971967"><ele>177.0</ele><time>2026-03-22T14:31:15.674Z</time></trkpt><trkpt lat="43.2059567" lon="2.1970383"><ele>177.0</ele><time>2026-03-22T14:31:17.675Z</time></trkpt><trkpt lat="43.2059617" lon="2.1969317"><ele>177.0</ele><time>2026-03-22T14:31:18.674Z</time></trkpt><trkpt lat="43.2059583" lon="2.1968233"><ele>177.0</ele><time>2026-03-22T14:31:19.674Z</time></trkpt><trkpt lat="43.2059083" lon="2.1966883"><ele>177.0</ele><time>2026-03-22T14:31:21.676Z</time></trkpt><trkpt lat="43.2057933" lon="2.196595"><ele>177.0</ele><time>2026-03-22T14:31:23.675Z</time></trkpt><trkpt lat="43.2057" lon="2.1965383"><ele>177.0</ele><time>2026-03-22T14:31:24.683Z</time></trkpt><trkpt lat="43.20561" lon="2.196475"><ele>177.0</ele><time>2026-03-22T14:31:25.674Z</time></trkpt><trkpt lat="43.2055117" lon="2.1964067"><ele>177.0</ele><time>2026-03-22T14:31:26.679Z</time></trkpt><trkpt lat="43.2054083" lon="2.1963333"><ele>177.6</ele><time>2026-03-22T14:31:27.678Z</time></trkpt><trkpt lat="43.2052983" lon="2.1962533"><ele>178.2</ele><time>2026-03-22T14:31:28.674Z</time></trkpt><trkpt lat="43.2052" lon="2.196175"><ele>178.8</ele><time>2026-03-22T14:31:29.675Z</time></trkpt><trkpt lat="43.2051117" lon="2.1961"><ele>179.4</ele><time>2026-03-22T14:31:30.676Z</time></trkpt><trkpt lat="43.2050367" lon="2.1960383"><ele>180.0</ele><time>2026-03-22T14:31:31.676Z</time></trkpt><trkpt lat="43.2049483" lon="2.1959717"><ele>180.0</ele><time>2026-03-22T14:31:33.68Z</time></trkpt><trkpt lat="43.2050333" lon="2.19604"><ele>180.0</ele><time>2026-03-22T14:31:50.674Z</time></trkpt><trkpt lat="43.2051133" lon="2.1960917"><ele>180.0</ele><time>2026-03-22T14:31:51.675Z</time></trkpt><trkpt lat="43.2052017" lon="2.196165"><ele>180.0</ele><time>2026-03-22T14:31:52.673Z</time></trkpt><trkpt lat="43.2052933" lon="2.1962467"><ele>180.0</ele><time>2026-03-22T14:31:53.672Z</time></trkpt><trkpt lat="43.2053983" lon="2.19633"><ele>180.0</ele><time>2026-03-22T14:31:54.676Z</time></trkpt><trkpt lat="43.205495" lon="2.1963983"><ele>180.0</ele><time>2026-03-22T14:31:55.675Z</time></trkpt><trkpt lat="43.2055783" lon="2.1964683"><ele>180.0</ele><time>2026-03-22T14:31:56.676Z</time></trkpt><trkpt lat="43.205655" lon="2.1965317"><ele>180.0</ele><time>2026-03-22T14:31:57.676Z</time></trkpt><trkpt lat="43.2057283" lon="2.1965833"><ele>180.0</ele><time>2026-03-22T14:31:58.674Z</time></trkpt><trkpt lat="43.205785" lon="2.1966267"><ele>180.0</ele><time>2026-03-22T14:31:59.674Z</time></trkpt><trkpt lat="43.2058733" lon="2.1966917"><ele>179.5</ele><time>2026-03-22T14:32:01.673Z</time></trkpt><trkpt lat="43.2059567" lon="2.1966783"><ele>179.0</ele><time>2026-03-22T14:32:04.673Z</time></trkpt><trkpt lat="43.20596" lon="2.1965217"><ele>178.5</ele><time>2026-03-22T14:32:06.673Z</time></trkpt><trkpt lat="43.2059433" lon="2.1964267"><ele>178.0</ele><time>2026-03-22T14:32:07.677Z</time></trkpt><trkpt lat="43.2059317" lon="2.1963117"><ele>177.5</ele><time>2026-03-22T14:32:08.675Z</time></trkpt><trkpt lat="43.2059267" lon="2.1961883"><ele>177.0</ele><time>2026-03-22T14:32:09.677Z</time></trkpt><trkpt lat="43.205925" lon="2.1960733"><ele>177.0</ele><time>2026-03-22T14:32:10.674Z</time></trkpt><trkpt lat="43.2059233" lon="2.1959817"><ele>177.0</ele><time>2026-03-22T14:32:11.676Z</time></trkpt><trkpt lat="43.2058967" lon="2.1958767"><ele>177.0</ele><time>2026-03-22T14:32:13.675Z</time></trkpt><trkpt lat="43.2058" lon="2.1957983"><ele>177.0</ele><time>2026-03-22T14:32:15.673Z</time></trkpt><trkpt lat="43.2057183" lon="2.1957533"><ele>177.0</ele><time>2026-03-22T14:32:16.676Z</time></trkpt><trkpt lat="43.2056367" lon="2.1957067"><ele>177.0</ele><time>2026-03-22T14:32:17.673Z</time></trkpt><trkpt lat="43.20554" lon="2.1956483"><ele>177.75</ele><time>2026-03-22T14:32:18.673Z</time></trkpt><trkpt lat="43.2054433" lon="2.1955833"><ele>178.5</ele><time>2026-03-22T14:32:19.672Z</time></trkpt><trkpt lat="43.205345" lon="2.1955117"><ele>179.25</ele><time>2026-03-22T14:32:20.674Z</time></trkpt><trkpt lat="43.2052417" lon="2.1954383"><ele>180.0</ele><time>2026-03-22T14:32:21.673Z</time></trkpt><trkpt lat="43.20514" lon="2.1953633"><ele>180.0</ele><time>2026-03-22T14:32:22.672Z</time></trkpt><trkpt lat="43.2050383" lon="2.1952917"><ele>180.0</ele><time>2026-03-22T14:32:23.673Z</time></trkpt><trkpt lat="43.2049367" lon="2.1952167"><ele>180.0</ele><time>2026-03-22T14:32:24.675Z</time></trkpt><trkpt lat="43.2048367" lon="2.19514"><ele>180.0</ele><time>2026-03-22T14:32:25.677Z</time></trkpt><trkpt lat="43.2047333" lon="2.1950583"><ele>180.6</ele><time>2026-03-22T14:32:26.673Z</time></trkpt><trkpt lat="43.20463" lon="2.1949817"><ele>181.2</ele><time>2026-03-22T14:32:27.677Z</time></trkpt><trkpt lat="43.2045367" lon="2.1949183"><ele>181.8</ele><time>2026-03-22T14:32:28.674Z</time></trkpt><trkpt lat="43.2044417" lon="2.1948767"><ele>182.4</ele><time>2026-03-22T14:32:29.672Z</time></trkpt><trkpt lat="43.20436" lon="2.1948483"><ele>183.0</ele><time>2026-03-22T14:32:30.673Z</time></trkpt><trkpt lat="43.204285" lon="2.1948183"><ele>183.33333333333334</ele><time>2026-03-22T14:32:31.674Z</time></trkpt><trkpt lat="43.2042083" lon="2.1947633"><ele>183.66666666666666</ele><time>2026-03-22T14:32:32.674Z</time></trkpt><trkpt lat="43.204135" lon="2.194685"><ele>184.0</ele><time>2026-03-22T14:32:33.673Z</time></trkpt><trkpt lat="43.20407" lon="2.1946083"><ele>184.33333333333331</ele><time>2026-03-22T14:32:34.673Z</time></trkpt><trkpt lat="43.2040117" lon="2.1945433"><ele>184.66666666666666</ele><time>2026-03-22T14:32:35.675Z</time></trkpt><trkpt lat="43.2039483" lon="2.1945033"><ele>185.0</ele><time>2026-03-22T14:32:36.674Z</time></trkpt><trkpt lat="43.20388" lon="2.1944767"><ele>185.0</ele><time>2026-03-22T14:32:37.674Z</time></trkpt><trkpt lat="43.2038117" lon="2.1944417"><ele>185.0</ele><time>2026-03-22T14:32:38.675Z</time></trkpt><trkpt lat="43.2037367" lon="2.1943783"><ele>185.0</ele><time>2026-03-22T14:32:39.675Z</time></trkpt><trkpt lat="43.203655" lon="2.1942917"><ele>185.0</ele><time>2026-03-22T14:32:40.675Z</time></trkpt><trkpt lat="43.2035617" lon="2.1941933"><ele>185.0</ele><time>2026-03-22T14:32:41.672Z</time></trkpt><trkpt lat="43.2034583" lon="2.1940933"><ele>185.0</ele><time>2026-03-22T14:32:42.673Z</time></trkpt><trkpt lat="43.2033517" lon="2.194005"><ele>185.0</ele><time>2026-03-22T14:32:43.676Z</time></trkpt><trkpt lat="43.2032433" lon="2.193925"><ele>185.0</ele><time>2026-03-22T14:32:44.674Z</time></trkpt><trkpt lat="43.2031333" lon="2.1938383"><ele>185.0</ele><time>2026-03-22T14:32:45.675Z</time></trkpt><trkpt lat="43.20302" lon="2.1937517"><ele>185.6</ele><time>2026-03-22T14:32:46.673Z</time></trkpt><trkpt lat="43.202915" lon="2.19367"><ele>186.2</ele><time>2026-03-22T14:32:47.673Z</time></trkpt><trkpt lat="43.2028217" lon="2.1935983"><ele>186.8</ele><time>2026-03-22T14:32:48.673Z</time></trkpt><trkpt lat="43.2027383" lon="2.1935317"><ele>187.4</ele><time>2026-03-22T14:32:49.674Z</time></trkpt><trkpt lat="43.2026633" lon="2.1934683"><ele>188.0</ele><time>2026-03-22T14:32:50.675Z</time></trkpt><trkpt lat="43.2026117" lon="2.1934133"><ele>188.0</ele><time>2026-03-22T14:32:51.676Z</time></trkpt><trkpt lat="43.2025517" lon="2.1933267"><ele>188.0</ele><time>2026-03-22T14:32:53.675Z</time></trkpt><trkpt lat="43.2024733" lon="2.193385"><ele>188.0</ele><time>2026-03-22T14:32:57.675Z</time></trkpt><trkpt lat="43.20246" lon="2.1935367"><ele>188.0</ele><time>2026-03-22T14:32:59.675Z</time></trkpt><trkpt lat="43.20245" lon="2.19364"><ele>188.0</ele><time>2026-03-22T14:33:00.675Z</time></trkpt><trkpt lat="43.20244" lon="2.1937533"><ele>188.0</ele><time>2026-03-22T14:33:01.677Z</time></trkpt><trkpt lat="43.202435" lon="2.1938817"><ele>188.0</ele><time>2026-03-22T14:33:02.677Z</time></trkpt><trkpt lat="43.2024283" lon="2.1940167"><ele>188.0</ele><time>2026-03-22T14:33:03.675Z</time></trkpt><trkpt lat="43.2024217" lon="2.194155"><ele>188.0</ele><time>2026-03-22T14:33:04.675Z</time></trkpt><trkpt lat="43.2024167" lon="2.1943017"><ele>188.0</ele><time>2026-03-22T14:33:05.674Z</time></trkpt><trkpt lat="43.2024083" lon="2.1944483"><ele>188.0</ele><time>2026-03-22T14:33:06.675Z</time></trkpt><trkpt lat="43.2024" lon="2.194595"><ele>188.0</ele><time>2026-03-22T14:33:07.675Z</time></trkpt><trkpt lat="43.20239" lon="2.1947433"><ele>188.0</ele><time>2026-03-22T14:33:08.677Z</time></trkpt><trkpt lat="43.2023767" lon="2.1948933"><ele>188.0</ele><time>2026-03-22T14:33:09.678Z</time></trkpt><trkpt lat="43.2023667" lon="2.19504"><ele>188.0</ele><time>2026-03-22T14:33:10.674Z</time></trkpt><trkpt lat="43.202355" lon="2.1951817"><ele>188.0</ele><time>2026-03-22T14:33:11.674Z</time></trkpt><trkpt lat="43.202345" lon="2.1953167"><ele>187.8</ele><time>2026-03-22T14:33:12.675Z</time></trkpt><trkpt lat="43.202335" lon="2.1954517"><ele>187.60000000000002</ele><time>2026-03-22T14:33:13.675Z</time></trkpt><trkpt lat="43.2023283" lon="2.1955883"><ele>187.39999999999998</ele><time>2026-03-22T14:33:14.673Z</time></trkpt><trkpt lat="43.20232" lon="2.1957267"><ele>187.2</ele><time>2026-03-22T14:33:15.674Z</time></trkpt><trkpt lat="43.2023167" lon="2.19587"><ele>187.0</ele><time>2026-03-22T14:33:16.675Z</time></trkpt><trkpt lat="43.2023167" lon="2.196015"><ele>187.0</ele><time>2026-03-22T14:33:17.674Z</time></trkpt><trkpt lat="43.20232" lon="2.1961633"><ele>187.0</ele><time>2026-03-22T14:33:18.673Z</time></trkpt><trkpt lat="43.20233" lon="2.1963133"><ele>187.0</ele><time>2026-03-22T14:33:19.673Z</time></trkpt><trkpt lat="43.2023417" lon="2.1964633"><ele>187.0</ele><time>2026-03-22T14:33:20.675Z</time></trkpt><trkpt lat="43.2023533" lon="2.196615"><ele>187.0</ele><time>2026-03-22T14:33:21.673Z</time></trkpt><trkpt lat="43.2023683" lon="2.1967683"><ele>185.5</ele><time>2026-03-22T14:33:22.674Z</time></trkpt><trkpt lat="43.2023833" lon="2.1969233"><ele>184.0</ele><time>2026-03-22T14:33:23.673Z</time></trkpt><trkpt lat="43.2023967" lon="2.1970783"><ele>182.5</ele><time>2026-03-22T14:33:24.673Z</time></trkpt><trkpt lat="43.202405" lon="2.1972333"><ele>181.0</ele><time>2026-03-22T14:33:25.674Z</time></trkpt><trkpt lat="43.2024167" lon="2.1973833"><ele>180.60000000000002</ele><time>2026-03-22T14:33:26.673Z</time></trkpt><trkpt lat="43.2024283" lon="2.19753"><ele>180.2</ele><time>2026-03-22T14:33:27.674Z</time></trkpt><trkpt lat="43.2024433" lon="2.1976783"><ele>179.8</ele><time>2026-03-22T14:33:28.676Z</time></trkpt><trkpt lat="43.2024567" lon="2.19783"><ele>179.39999999999998</ele><time>2026-03-22T14:33:29.673Z</time></trkpt><trkpt lat="43.2024683" lon="2.19798"><ele>179.0</ele><time>2026-03-22T14:33:30.673Z</time></trkpt><trkpt lat="43.2024767" lon="2.19813"><ele>178.79999999999998</ele><time>2026-03-22T14:33:31.675Z</time></trkpt><trkpt lat="43.2024817" lon="2.1982817"><ele>178.6</ele><time>2026-03-22T14:33:32.676Z</time></trkpt><trkpt lat="43.2024783" lon="2.1984317"><ele>178.4</ele><time>2026-03-22T14:33:33.675Z</time></trkpt><trkpt lat="43.2024667" lon="2.1985817"><ele>178.2</ele><time>2026-03-22T14:33:34.676Z</time></trkpt><trkpt lat="43.2024483" lon="2.198735"><ele>178.0</ele><time>2026-03-22T14:33:35.675Z</time></trkpt><trkpt lat="43.202435" lon="2.1988917"><ele>177.60000000000002</ele><time>2026-03-22T14:33:36.675Z</time></trkpt><trkpt lat="43.2024267" lon="2.19905"><ele>177.20000000000002</ele><time>2026-03-22T14:33:37.674Z</time></trkpt><trkpt lat="43.2024267" lon="2.199205"><ele>176.8</ele><time>2026-03-22T14:33:38.674Z</time></trkpt><trkpt lat="43.2024267" lon="2.19935"><ele>176.4</ele><time>2026-03-22T14:33:39.673Z</time></trkpt><trkpt lat="43.2024317" lon="2.19949"><ele>176.0</ele><time>2026-03-22T14:33:40.674Z</time></trkpt><trkpt lat="43.2024367" lon="2.1996317"><ele>176.0</ele><time>2026-03-22T14:33:41.673Z</time></trkpt><trkpt lat="43.2024333" lon="2.1997733"><ele>176.0</ele><time>2026-03-22T14:33:42.673Z</time></trkpt><trkpt lat="43.2024267" lon="2.1999167"><ele>176.0</ele><time>2026-03-22T14:33:43.672Z</time></trkpt><trkpt lat="43.2024067" lon="2.2000617"><ele>176.0</ele><time>2026-03-22T14:33:44.675Z</time></trkpt><trkpt lat="43.2023833" lon="2.2002033"><ele>176.0</ele><time>2026-03-22T14:33:45.672Z</time></trkpt><trkpt lat="43.20236" lon="2.20034"><ele>176.20000000000002</ele><time>2026-03-22T14:33:46.673Z</time></trkpt><trkpt lat="43.20233" lon="2.2004683"><ele>176.4</ele><time>2026-03-22T14:33:47.677Z</time></trkpt><trkpt lat="43.2023067" lon="2.2005967"><ele>176.6</ele><time>2026-03-22T14:33:48.674Z</time></trkpt><trkpt lat="43.202285" lon="2.2007233"><ele>176.8</ele><time>2026-03-22T14:33:49.673Z</time></trkpt><trkpt lat="43.2022667" lon="2.2008417"><ele>177.0</ele><time>2026-03-22T14:33:50.673Z</time></trkpt><trkpt lat="43.2022483" lon="2.2009583"><ele>177.0</ele><time>2026-03-22T14:33:51.674Z</time></trkpt><trkpt lat="43.2022367" lon="2.2010733"><ele>177.0</ele><time>2026-03-22T14:33:52.677Z</time></trkpt><trkpt lat="43.202235" lon="2.2011867"><ele>177.0</ele><time>2026-03-22T14:33:53.674Z</time></trkpt><trkpt lat="43.2022333" lon="2.2012933"><ele>177.0</ele><time>2026-03-22T14:33:54.677Z</time></trkpt><trkpt lat="43.2022233" lon="2.201395"><ele>177.0</ele><time>2026-03-22T14:33:55.673Z</time></trkpt><trkpt lat="43.202215" lon="2.2014933"><ele>177.0</ele><time>2026-03-22T14:33:56.674Z</time></trkpt><trkpt lat="43.20221" lon="2.20159"><ele>177.0</ele><time>2026-03-22T14:33:57.678Z</time></trkpt><trkpt lat="43.2022033" lon="2.2016833"><ele>177.0</ele><time>2026-03-22T14:33:58.673Z</time></trkpt><trkpt lat="43.2021917" lon="2.20177"><ele>177.0</ele><time>2026-03-22T14:33:59.674Z</time></trkpt><trkpt lat="43.20218" lon="2.201855"><ele>177.0</ele><time>2026-03-22T14:34:00.676Z</time></trkpt><trkpt lat="43.2021667" lon="2.20194"><ele>177.0</ele><time>2026-03-22T14:34:01.674Z</time></trkpt><trkpt lat="43.20215" lon="2.202025"><ele>177.0</ele><time>2026-03-22T14:34:02.679Z</time></trkpt><trkpt lat="43.2021367" lon="2.202115"><ele>177.0</ele><time>2026-03-22T14:34:03.672Z</time></trkpt><trkpt lat="43.2021167" lon="2.2022117"><ele>177.0</ele><time>2026-03-22T14:34:04.674Z</time></trkpt><trkpt lat="43.2020817" lon="2.20231"><ele>177.0</ele><time>2026-03-22T14:34:05.676Z</time></trkpt><trkpt lat="43.202035" lon="2.2024117"><ele>177.0</ele><time>2026-03-22T14:34:06.674Z</time></trkpt><trkpt lat="43.2019883" lon="2.20252"><ele>177.0</ele><time>2026-03-22T14:34:07.674Z</time></trkpt><trkpt lat="43.2019417" lon="2.2026317"><ele>177.0</ele><time>2026-03-22T14:34:08.676Z</time></trkpt><trkpt lat="43.2018983" lon="2.2027483"><ele>177.0</ele><time>2026-03-22T14:34:09.672Z</time></trkpt><trkpt lat="43.201855" lon="2.2028733"><ele>176.8</ele><time>2026-03-22T14:34:10.673Z</time></trkpt><trkpt lat="43.2018183" lon="2.203"><ele>176.6</ele><time>2026-03-22T14:34:11.674Z</time></trkpt><trkpt lat="43.2017917" lon="2.2031383"><ele>176.4</ele><time>2026-03-22T14:34:12.674Z</time></trkpt><trkpt lat="43.2017567" lon="2.203275"><ele>176.20000000000002</ele><time>2026-03-22T14:34:13.674Z</time></trkpt><trkpt lat="43.2017267" lon="2.2034133"><ele>176.0</ele><time>2026-03-22T14:34:14.675Z</time></trkpt><trkpt lat="43.201705" lon="2.20356"><ele>176.0</ele><time>2026-03-22T14:34:15.673Z</time></trkpt><trkpt lat="43.2016967" lon="2.2037183"><ele>176.0</ele><time>2026-03-22T14:34:16.674Z</time></trkpt><trkpt lat="43.2016817" lon="2.2038767"><ele>176.0</ele><time>2026-03-22T14:34:17.675Z</time></trkpt><trkpt lat="43.2016633" lon="2.2040383"><ele>176.0</ele><time>2026-03-22T14:34:18.674Z</time></trkpt><trkpt lat="43.2016367" lon="2.2041967"><ele>176.0</ele><time>2026-03-22T14:34:19.672Z</time></trkpt><trkpt lat="43.2016033" lon="2.2043483"><ele>176.0</ele><time>2026-03-22T14:34:20.677Z</time></trkpt><trkpt lat="43.2015583" lon="2.2044933"><ele>176.0</ele><time>2026-03-22T14:34:21.676Z</time></trkpt><trkpt lat="43.2015067" lon="2.204635"><ele>176.0</ele><time>2026-03-22T14:34:22.675Z</time></trkpt><trkpt lat="43.2014617" lon="2.2047783"><ele>177.20000000000002</ele><time>2026-03-22T14:34:23.674Z</time></trkpt><trkpt lat="43.201415" lon="2.2049117"><ele>178.4</ele><time>2026-03-22T14:34:24.675Z</time></trkpt><trkpt lat="43.2013683" lon="2.205045"><ele>179.6</ele><time>2026-03-22T14:34:25.674Z</time></trkpt><trkpt lat="43.201325" lon="2.2051783"><ele>180.8</ele><time>2026-03-22T14:34:26.675Z</time></trkpt><trkpt lat="43.2012767" lon="2.205305"><ele>182.0</ele><time>2026-03-22T14:34:27.675Z</time></trkpt><trkpt lat="43.2012333" lon="2.20543"><ele>182.0</ele><time>2026-03-22T14:34:28.674Z</time></trkpt><trkpt lat="43.201195" lon="2.20554"><ele>182.0</ele><time>2026-03-22T14:34:29.677Z</time></trkpt><trkpt lat="43.2011583" lon="2.2056483"><ele>182.0</ele><time>2026-03-22T14:34:30.676Z</time></trkpt><trkpt lat="43.201125" lon="2.20575"><ele>182.0</ele><time>2026-03-22T14:34:31.675Z</time></trkpt><trkpt lat="43.201095" lon="2.20584"><ele>182.0</ele><time>2026-03-22T14:34:32.675Z</time></trkpt><trkpt lat="43.201065" lon="2.2059217"><ele>182.0</ele><time>2026-03-22T14:34:33.674Z</time></trkpt><trkpt lat="43.2010183" lon="2.20604"><ele>182.0</ele><time>2026-03-22T14:34:35.675Z</time></trkpt><trkpt lat="43.2009883" lon="2.2061217"><ele>182.0</ele><time>2026-03-22T14:34:37.675Z</time></trkpt><trkpt lat="43.2009533" lon="2.2062283"><ele>182.0</ele><time>2026-03-22T14:34:39.674Z</time></trkpt><trkpt lat="43.200855" lon="2.2063383"><ele>182.0</ele><time>2026-03-22T14:34:41.676Z</time></trkpt><trkpt lat="43.2007967" lon="2.20641"><ele>182.0</ele><time>2026-03-22T14:34:42.674Z</time></trkpt><trkpt lat="43.2007367" lon="2.2064833"><ele>182.0</ele><time>2026-03-22T14:34:43.675Z</time></trkpt><trkpt lat="43.2006717" lon="2.2065667"><ele>182.8</ele><time>2026-03-22T14:34:44.674Z</time></trkpt><trkpt lat="43.2006033" lon="2.20666"><ele>183.6</ele><time>2026-03-22T14:34:45.672Z</time></trkpt><trkpt lat="43.2005267" lon="2.2067683"><ele>184.4</ele><time>2026-03-22T14:34:46.674Z</time></trkpt><trkpt lat="43.20045" lon="2.2068833"><ele>185.20000000000002</ele><time>2026-03-22T14:34:47.674Z</time></trkpt><trkpt lat="43.200375" lon="2.2070017"><ele>186.0</ele><time>2026-03-22T14:34:48.673Z</time></trkpt><trkpt lat="43.2003017" lon="2.2071233"><ele>186.0</ele><time>2026-03-22T14:34:49.674Z</time></trkpt><trkpt lat="43.20022" lon="2.2072383"><ele>186.0</ele><time>2026-03-22T14:34:50.673Z</time></trkpt><trkpt lat="43.20013" lon="2.2073517"><ele>186.0</ele><time>2026-03-22T14:34:51.673Z</time></trkpt><trkpt lat="43.2000467" lon="2.2074767"><ele>186.0</ele><time>2026-03-22T14:34:52.674Z</time></trkpt><trkpt lat="43.19997" lon="2.2075883"><ele>185.83333333333334</ele><time>2026-03-22T14:34:53.674Z</time></trkpt><trkpt lat="43.1998983" lon="2.207695"><ele>185.66666666666666</ele><time>2026-03-22T14:34:54.673Z</time></trkpt><trkpt lat="43.1998367" lon="2.2077883"><ele>185.5</ele><time>2026-03-22T14:34:55.674Z</time></trkpt><trkpt lat="43.1997817" lon="2.20788"><ele>185.33333333333331</ele><time>2026-03-22T14:34:56.674Z</time></trkpt><trkpt lat="43.19974" lon="2.207975"><ele>185.16666666666666</ele><time>2026-03-22T14:34:57.673Z</time></trkpt><trkpt lat="43.19971" lon="2.2080817"><ele>185.0</ele><time>2026-03-22T14:34:58.673Z</time></trkpt><trkpt lat="43.1997083" lon="2.2082083"><ele>185.0</ele><time>2026-03-22T14:34:59.673Z</time></trkpt><trkpt lat="43.1997583" lon="2.208335"><ele>185.0</ele><time>2026-03-22T14:35:00.673Z</time></trkpt><trkpt lat="43.1998033" lon="2.2084433"><ele>185.0</ele><time>2026-03-22T14:35:01.673Z</time></trkpt><trkpt lat="43.199885" lon="2.20852"><ele>185.0</ele><time>2026-03-22T14:35:02.674Z</time></trkpt><trkpt lat="43.1999667" lon="2.2085817"><ele>185.0</ele><time>2026-03-22T14:35:03.673Z</time></trkpt><trkpt lat="43.200045" lon="2.2086517"><ele>185.0</ele><time>2026-03-22T14:35:04.674Z</time></trkpt><trkpt lat="43.2001183" lon="2.208735"><ele>185.0</ele><time>2026-03-22T14:35:05.674Z</time></trkpt><trkpt lat="43.2001883" lon="2.2088183"><ele>185.0</ele><time>2026-03-22T14:35:06.676Z</time></trkpt><trkpt lat="43.2002567" lon="2.2088983"><ele>185.0</ele><time>2026-03-22T14:35:07.674Z</time></trkpt><trkpt lat="43.2003267" lon="2.2089733"><ele>185.0</ele><time>2026-03-22T14:35:08.674Z</time></trkpt><trkpt lat="43.2003867" lon="2.2090633"><ele>185.8</ele><time>2026-03-22T14:35:09.675Z</time></trkpt><trkpt lat="43.200425" lon="2.2091733"><ele>186.6</ele><time>2026-03-22T14:35:10.676Z</time></trkpt><trkpt lat="43.2004367" lon="2.2092933"><ele>187.39999999999998</ele><time>2026-03-22T14:35:11.673Z</time></trkpt><trkpt lat="43.2004383" lon="2.2094233"><ele>188.2</ele><time>2026-03-22T14:35:12.676Z</time></trkpt><trkpt lat="43.2004333" lon="2.2095483"><ele>189.0</ele><time>2026-03-22T14:35:13.674Z</time></trkpt><trkpt lat="43.2004217" lon="2.20967"><ele>189.0</ele><time>2026-03-22T14:35:14.675Z</time></trkpt><trkpt lat="43.2004067" lon="2.20979"><ele>189.0</ele><time>2026-03-22T14:35:15.677Z</time></trkpt><trkpt lat="43.200375" lon="2.2099067"><ele>189.0</ele><time>2026-03-22T14:35:16.672Z</time></trkpt><trkpt lat="43.200335" lon="2.2100167"><ele>189.0</ele><time>2026-03-22T14:35:17.673Z</time></trkpt><trkpt lat="43.2002867" lon="2.2101267"><ele>189.0</ele><time>2026-03-22T14:35:18.677Z</time></trkpt><trkpt lat="43.2002367" lon="2.21023"><ele>189.39999999999998</ele><time>2026-03-22T14:35:19.674Z</time></trkpt><trkpt lat="43.20018" lon="2.2103283"><ele>189.8</ele><time>2026-03-22T14:35:20.675Z</time></trkpt><trkpt lat="43.2001167" lon="2.2104167"><ele>190.2</ele><time>2026-03-22T14:35:21.674Z</time></trkpt><trkpt lat="43.200045" lon="2.2104933"><ele>190.60000000000002</ele><time>2026-03-22T14:35:22.677Z</time></trkpt><trkpt lat="43.19997" lon="2.210555"><ele>191.0</ele><time>2026-03-22T14:35:23.678Z</time></trkpt><trkpt lat="43.19989" lon="2.21061"><ele>191.0</ele><time>2026-03-22T14:35:24.677Z</time></trkpt><trkpt lat="43.1998117" lon="2.2106667"><ele>191.0</ele><time>2026-03-22T14:35:25.674Z</time></trkpt><trkpt lat="43.1997383" lon="2.2107233"><ele>191.0</ele><time>2026-03-22T14:35:26.674Z</time></trkpt><trkpt lat="43.1996733" lon="2.21077"><ele>191.0</ele><time>2026-03-22T14:35:27.674Z</time></trkpt><trkpt lat="43.1996133" lon="2.2108067"><ele>191.0</ele><time>2026-03-22T14:35:28.675Z</time></trkpt><trkpt lat="43.19951" lon="2.2108933"><ele>191.0</ele><time>2026-03-22T14:35:30.674Z</time></trkpt><trkpt lat="43.1994083" lon="2.2109867"><ele>191.0</ele><time>2026-03-22T14:35:32.676Z</time></trkpt><trkpt lat="43.1992883" lon="2.2110283"><ele>191.0</ele><time>2026-03-22T14:35:34.676Z</time></trkpt><trkpt lat="43.1992117" lon="2.21102"><ele>191.0</ele><time>2026-03-22T14:35:35.675Z</time></trkpt><trkpt lat="43.199145" lon="2.2110033"><ele>191.0</ele><time>2026-03-22T14:35:36.673Z</time></trkpt><trkpt lat="43.19903" lon="2.210975"><ele>191.0</ele><time>2026-03-22T14:35:38.675Z</time></trkpt><trkpt lat="43.198965" lon="2.2109667"><ele>191.33333333333331</ele><time>2026-03-22T14:35:39.673Z</time></trkpt><trkpt lat="43.198895" lon="2.2109483"><ele>191.66666666666666</ele><time>2026-03-22T14:35:40.673Z</time></trkpt><trkpt lat="43.1988283" lon="2.2108983"><ele>192.0</ele><time>2026-03-22T14:35:41.676Z</time></trkpt><trkpt lat="43.19875" lon="2.2108417"><ele>192.33333333333331</ele><time>2026-03-22T14:35:42.673Z</time></trkpt><trkpt lat="43.1986633" lon="2.210775"><ele>192.66666666666666</ele><time>2026-03-22T14:35:43.672Z</time></trkpt><trkpt lat="43.198585" lon="2.2106717"><ele>193.0</ele><time>2026-03-22T14:35:44.676Z</time></trkpt><trkpt lat="43.1985183" lon="2.2105567"><ele>193.60000000000002</ele><time>2026-03-22T14:35:45.674Z</time></trkpt><trkpt lat="43.1984533" lon="2.21044"><ele>194.20000000000002</ele><time>2026-03-22T14:35:46.673Z</time></trkpt><trkpt lat="43.1983983" lon="2.2103167"><ele>194.8</ele><time>2026-03-22T14:35:47.673Z</time></trkpt><trkpt lat="43.1983483" lon="2.21019"><ele>195.4</ele><time>2026-03-22T14:35:48.675Z</time></trkpt><trkpt lat="43.1982867" lon="2.2100517"><ele>196.0</ele><time>2026-03-22T14:35:49.675Z</time></trkpt><trkpt lat="43.1982433" lon="2.209925"><ele>196.33333333333331</ele><time>2026-03-22T14:35:50.676Z</time></trkpt><trkpt lat="43.19822" lon="2.2098"><ele>196.66666666666666</ele><time>2026-03-22T14:35:51.675Z</time></trkpt><trkpt lat="43.198195" lon="2.209685"><ele>197.0</ele><time>2026-03-22T14:35:52.677Z</time></trkpt><trkpt lat="43.19817" lon="2.2095833"><ele>197.33333333333331</ele><time>2026-03-22T14:35:53.675Z</time></trkpt><trkpt lat="43.1981283" lon="2.2094783"><ele>197.66666666666666</ele><time>2026-03-22T14:35:54.675Z</time></trkpt><trkpt lat="43.1980767" lon="2.2093783"><ele>198.0</ele><time>2026-03-22T14:35:55.674Z</time></trkpt><trkpt lat="43.19804" lon="2.2092633"><ele>198.2</ele><time>2026-03-22T14:35:56.674Z</time></trkpt><trkpt lat="43.198" lon="2.2091517"><ele>198.4</ele><time>2026-03-22T14:35:57.674Z</time></trkpt><trkpt lat="43.19798" lon="2.2090483"><ele>198.6</ele><time>2026-03-22T14:35:58.673Z</time></trkpt><trkpt lat="43.1979667" lon="2.2089633"><ele>198.79999999999998</ele><time>2026-03-22T14:35:59.676Z</time></trkpt><trkpt lat="43.1979117" lon="2.20882"><ele>199.0</ele><time>2026-03-22T14:36:01.673Z</time></trkpt><trkpt lat="43.1977717" lon="2.2087733"><ele>199.39999999999998</ele><time>2026-03-22T14:36:03.674Z</time></trkpt><trkpt lat="43.19768" lon="2.2087467"><ele>199.8</ele><time>2026-03-22T14:36:04.673Z</time></trkpt><trkpt lat="43.1975883" lon="2.208715"><ele>200.2</ele><time>2026-03-22T14:36:05.674Z</time></trkpt><trkpt lat="43.1974917" lon="2.20867"><ele>200.60000000000002</ele><time>2026-03-22T14:36:06.674Z</time></trkpt><trkpt lat="43.19739" lon="2.20863"><ele>201.0</ele><time>2026-03-22T14:36:07.675Z</time></trkpt><trkpt lat="43.19729" lon="2.208585"><ele>201.25</ele><time>2026-03-22T14:36:08.673Z</time></trkpt><trkpt lat="43.19718" lon="2.20854"><ele>201.5</ele><time>2026-03-22T14:36:09.677Z</time></trkpt><trkpt lat="43.1970633" lon="2.20849"><ele>201.75</ele><time>2026-03-22T14:36:10.673Z</time></trkpt><trkpt lat="43.196945" lon="2.2084067"><ele>202.0</ele><time>2026-03-22T14:36:11.675Z</time></trkpt><trkpt lat="43.1968217" lon="2.208295"><ele>202.0</ele><time>2026-03-22T14:36:12.674Z</time></trkpt><trkpt lat="43.1967067" lon="2.2081717"><ele>202.0</ele><time>2026-03-22T14:36:13.673Z</time></trkpt><trkpt lat="43.196595" lon="2.2080533"><ele>202.0</ele><time>2026-03-22T14:36:14.673Z</time></trkpt><trkpt lat="43.1964733" lon="2.2079417"><ele>202.0</ele><time>2026-03-22T14:36:15.676Z</time></trkpt><trkpt lat="43.1963467" lon="2.2078267"><ele>204.0</ele><time>2026-03-22T14:36:16.674Z</time></trkpt><trkpt lat="43.196215" lon="2.2077183"><ele>206.0</ele><time>2026-03-22T14:36:17.673Z</time></trkpt><trkpt lat="43.1960783" lon="2.207605"><ele>208.0</ele><time>2026-03-22T14:36:18.676Z</time></trkpt><trkpt lat="43.19594" lon="2.20749"><ele>208.0</ele><time>2026-03-22T14:36:19.674Z</time></trkpt><trkpt lat="43.1957983" lon="2.2073817"><ele>208.0</ele><time>2026-03-22T14:36:20.675Z</time></trkpt><trkpt lat="43.195655" lon="2.20727"><ele>208.0</ele><time>2026-03-22T14:36:21.676Z</time></trkpt><trkpt lat="43.1955133" lon="2.2071683"><ele>210.66666666666666</ele><time>2026-03-22T14:36:22.675Z</time></trkpt><trkpt lat="43.19537" lon="2.20707"><ele>213.33333333333331</ele><time>2026-03-22T14:36:23.676Z</time></trkpt><trkpt lat="43.1952317" lon="2.206975"><ele>216.0</ele><time>2026-03-22T14:36:24.675Z</time></trkpt><trkpt lat="43.1950917" lon="2.2068683"><ele>216.0</ele><time>2026-03-22T14:36:25.672Z</time></trkpt><trkpt lat="43.19495" lon="2.2067483"><ele>216.0</ele><time>2026-03-22T14:36:26.673Z</time></trkpt><trkpt lat="43.1948117" lon="2.20663"><ele>216.0</ele><time>2026-03-22T14:36:27.673Z</time></trkpt><trkpt lat="43.1946617" lon="2.2065183"><ele>217.66666666666669</ele><time>2026-03-22T14:36:28.673Z</time></trkpt><trkpt lat="43.1945117" lon="2.2064183"><ele>219.33333333333334</ele><time>2026-03-22T14:36:29.675Z</time></trkpt><trkpt lat="43.1943617" lon="2.206325"><ele>221.0</ele><time>2026-03-22T14:36:30.673Z</time></trkpt><trkpt lat="43.19421" lon="2.206245"><ele>221.0</ele><time>2026-03-22T14:36:31.673Z</time></trkpt><trkpt lat="43.1940583" lon="2.2061733"><ele>221.0</ele><time>2026-03-22T14:36:32.673Z</time></trkpt><trkpt lat="43.1939067" lon="2.2061"><ele>221.0</ele><time>2026-03-22T14:36:33.672Z</time></trkpt><trkpt lat="43.1937583" lon="2.2060183"><ele>222.66666666666669</ele><time>2026-03-22T14:36:34.675Z</time></trkpt><trkpt lat="43.19361" lon="2.2059383"><ele>224.33333333333331</ele><time>2026-03-22T14:36:35.674Z</time></trkpt><trkpt lat="43.1934667" lon="2.2058583"><ele>226.0</ele><time>2026-03-22T14:36:36.675Z</time></trkpt><trkpt lat="43.1933267" lon="2.205775"><ele>226.0</ele><time>2026-03-22T14:36:37.673Z</time></trkpt><trkpt lat="43.19319" lon="2.2056867"><ele>226.0</ele><time>2026-03-22T14:36:38.673Z</time></trkpt><trkpt lat="43.1930633" lon="2.2055917"><ele>226.0</ele><time>2026-03-22T14:36:39.673Z</time></trkpt><trkpt lat="43.192955" lon="2.2054867"><ele>226.0</ele><time>2026-03-22T14:36:40.673Z</time></trkpt><trkpt lat="43.1928633" lon="2.20536"><ele>227.0</ele><time>2026-03-22T14:36:41.674Z</time></trkpt><trkpt lat="43.1927867" lon="2.20521"><ele>228.0</ele><time>2026-03-22T14:36:42.675Z</time></trkpt><trkpt lat="43.1927117" lon="2.2050517"><ele>229.0</ele><time>2026-03-22T14:36:43.676Z</time></trkpt><trkpt lat="43.1926267" lon="2.2049"><ele>230.0</ele><time>2026-03-22T14:36:44.675Z</time></trkpt><trkpt lat="43.19252" lon="2.2047683"><ele>231.0</ele><time>2026-03-22T14:36:45.673Z</time></trkpt><trkpt lat="43.1924017" lon="2.2046483"><ele>232.0</ele><time>2026-03-22T14:36:46.673Z</time></trkpt><trkpt lat="43.1922883" lon="2.2045233"><ele>233.0</ele><time>2026-03-22T14:36:47.676Z</time></trkpt><trkpt lat="43.1921733" lon="2.20439"><ele>234.0</ele><time>2026-03-22T14:36:48.674Z</time></trkpt><trkpt lat="43.19206" lon="2.2042533"><ele>234.0</ele><time>2026-03-22T14:36:49.675Z</time></trkpt><trkpt lat="43.1919417" lon="2.2041183"><ele>234.0</ele><time>2026-03-22T14:36:50.675Z</time></trkpt><trkpt lat="43.1918167" lon="2.203995"><ele>234.0</ele><time>2026-03-22T14:36:51.673Z</time></trkpt><trkpt lat="43.1916817" lon="2.20388"><ele>234.0</ele><time>2026-03-22T14:36:52.675Z</time></trkpt><trkpt lat="43.1915483" lon="2.2037817"><ele>234.0</ele><time>2026-03-22T14:36:53.676Z</time></trkpt><trkpt lat="43.1914083" lon="2.203685"><ele>234.0</ele><time>2026-03-22T14:36:54.676Z</time></trkpt><trkpt lat="43.19127" lon="2.203585"><ele>235.0</ele><time>2026-03-22T14:36:55.672Z</time></trkpt><trkpt lat="43.1911383" lon="2.203475"><ele>236.0</ele><time>2026-03-22T14:36:56.675Z</time></trkpt><trkpt lat="43.191005" lon="2.2033633"><ele>237.0</ele><time>2026-03-22T14:36:57.674Z</time></trkpt><trkpt lat="43.1908717" lon="2.2032533"><ele>238.25</ele><time>2026-03-22T14:36:58.675Z</time></trkpt><trkpt lat="43.1907417" lon="2.203155"><ele>239.5</ele><time>2026-03-22T14:36:59.674Z</time></trkpt><trkpt lat="43.1906167" lon="2.203065"><ele>240.75</ele><time>2026-03-22T14:37:00.673Z</time></trkpt><trkpt lat="43.1905067" lon="2.2029833"><ele>242.0</ele><time>2026-03-22T14:37:01.677Z</time></trkpt><trkpt lat="43.190405" lon="2.20291"><ele>243.6</ele><time>2026-03-22T14:37:02.675Z</time></trkpt><trkpt lat="43.1903133" lon="2.2028417"><ele>245.2</ele><time>2026-03-22T14:37:03.672Z</time></trkpt><trkpt lat="43.19023" lon="2.2027817"><ele>246.8</ele><time>2026-03-22T14:37:04.676Z</time></trkpt><trkpt lat="43.1901617" lon="2.20273"><ele>248.4</ele><time>2026-03-22T14:37:05.678Z</time></trkpt><trkpt lat="43.1900617" lon="2.2026517"><ele>250.0</ele><time>2026-03-22T14:37:07.674Z</time></trkpt><trkpt lat="43.1899867" lon="2.20258"><ele>249.99999999999997</ele><time>2026-03-22T14:37:09.673Z</time></trkpt><trkpt lat="43.18992" lon="2.2025017"><ele>250.0</ele><time>2026-03-22T14:37:11.674Z</time></trkpt><trkpt lat="43.18986" lon="2.2024283"><ele>250.0</ele><time>2026-03-22T14:37:13.675Z</time></trkpt><trkpt lat="43.1897883" lon="2.2023517"><ele>250.0</ele><time>2026-03-22T14:37:15.673Z</time></trkpt><trkpt lat="43.1897283" lon="2.2022833"><ele>249.99999999999997</ele><time>2026-03-22T14:37:17.674Z</time></trkpt><trkpt lat="43.1896533" lon="2.2022167"><ele>250.0</ele><time>2026-03-22T14:37:19.674Z</time></trkpt><trkpt lat="43.1895567" lon="2.2021317"><ele>252.71428571428572</ele><time>2026-03-22T14:37:21.676Z</time></trkpt><trkpt lat="43.189495" lon="2.2020917"><ele>255.42857142857144</ele><time>2026-03-22T14:37:22.675Z</time></trkpt><trkpt lat="43.189435" lon="2.2020517"><ele>258.14285714285717</ele><time>2026-03-22T14:37:23.678Z</time></trkpt><trkpt lat="43.1893633" lon="2.20201"><ele>260.8571428571429</ele><time>2026-03-22T14:37:24.675Z</time></trkpt><trkpt lat="43.1893017" lon="2.2019617"><ele>263.5714285714286</ele><time>2026-03-22T14:37:25.673Z</time></trkpt><trkpt lat="43.1892367" lon="2.2019317"><ele>266.2857142857143</ele><time>2026-03-22T14:37:26.675Z</time></trkpt><trkpt lat="43.1891767" lon="2.2018983"><ele>269.0</ele><time>2026-03-22T14:37:27.673Z</time></trkpt><trkpt lat="43.18909" lon="2.2018317"><ele>270.83333333333337</ele><time>2026-03-22T14:37:29.677Z</time></trkpt><trkpt lat="43.188995" lon="2.20179"><ele>272.6666666666667</ele><time>2026-03-22T14:37:31.674Z</time></trkpt><trkpt lat="43.1889283" lon="2.2017767"><ele>274.5</ele><time>2026-03-22T14:37:32.673Z</time></trkpt><trkpt lat="43.188855" lon="2.2017533"><ele>276.3333333333333</ele><time>2026-03-22T14:37:33.676Z</time></trkpt><trkpt lat="43.188775" lon="2.2017267"><ele>278.16666666666663</ele><time>2026-03-22T14:37:34.673Z</time></trkpt><trkpt lat="43.1886967" lon="2.201695"><ele>280.0</ele><time>2026-03-22T14:37:35.676Z</time></trkpt><trkpt lat="43.188625" lon="2.2016483"><ele>280.0</ele><time>2026-03-22T14:37:36.674Z</time></trkpt><trkpt lat="43.1885533" lon="2.2015933"><ele>280.0</ele><time>2026-03-22T14:37:37.673Z</time></trkpt><trkpt lat="43.1884883" lon="2.2015333"><ele>280.0</ele><time>2026-03-22T14:37:38.674Z</time></trkpt><trkpt lat="43.18843" lon="2.2014783"><ele>280.0</ele><time>2026-03-22T14:37:39.673Z</time></trkpt><trkpt lat="43.1883783" lon="2.201425"><ele>280.0</ele><time>2026-03-22T14:37:40.678Z</time></trkpt><trkpt lat="43.1882917" lon="2.2013367"><ele>280.0</ele><time>2026-03-22T14:37:42.674Z</time></trkpt><trkpt lat="43.188225" lon="2.20126"><ele>281.66666666666663</ele><time>2026-03-22T14:37:44.676Z</time></trkpt><trkpt lat="43.1881383" lon="2.20116"><ele>283.3333333333333</ele><time>2026-03-22T14:37:46.675Z</time></trkpt><trkpt lat="43.188085" lon="2.20111"><ele>285.0</ele><time>2026-03-22T14:37:47.674Z</time></trkpt><trkpt lat="43.1880217" lon="2.201065"><ele>286.6666666666667</ele><time>2026-03-22T14:37:48.674Z</time></trkpt><trkpt lat="43.1879567" lon="2.201015"><ele>288.33333333333337</ele><time>2026-03-22T14:37:49.674Z</time></trkpt><trkpt lat="43.18789" lon="2.2009533"><ele>290.0</ele><time>2026-03-22T14:37:50.676Z</time></trkpt><trkpt lat="43.1878117" lon="2.2008917"><ele>290.0</ele><time>2026-03-22T14:37:51.674Z</time></trkpt><trkpt lat="43.1877233" lon="2.2008483"><ele>290.0</ele><time>2026-03-22T14:37:52.674Z</time></trkpt><trkpt lat="43.187645" lon="2.2008133"><ele>290.0</ele><time>2026-03-22T14:37:53.673Z</time></trkpt><trkpt lat="43.18757" lon="2.2007817"><ele>290.0</ele><time>2026-03-22T14:37:54.673Z</time></trkpt><trkpt lat="43.18751" lon="2.2007533"><ele>290.0</ele><time>2026-03-22T14:37:55.674Z</time></trkpt><trkpt lat="43.1874533" lon="2.2007117"><ele>290.0</ele><time>2026-03-22T14:37:56.674Z</time></trkpt><trkpt lat="43.1873933" lon="2.2006583"><ele>290.33333333333337</ele><time>2026-03-22T14:37:57.673Z</time></trkpt><trkpt lat="43.1873217" lon="2.2006"><ele>290.6666666666667</ele><time>2026-03-22T14:37:58.674Z</time></trkpt><trkpt lat="43.1872517" lon="2.2005333"><ele>291.0</ele><time>2026-03-22T14:37:59.672Z</time></trkpt><trkpt lat="43.1871967" lon="2.2004433"><ele>291.3333333333333</ele><time>2026-03-22T14:38:00.673Z</time></trkpt><trkpt lat="43.1871367" lon="2.2003567"><ele>291.66666666666663</ele><time>2026-03-22T14:38:01.672Z</time></trkpt><trkpt lat="43.187075" lon="2.2002667"><ele>292.0</ele><time>2026-03-22T14:38:02.674Z</time></trkpt><trkpt lat="43.18701" lon="2.200175"><ele>292.0</ele><time>2026-03-22T14:38:03.674Z</time></trkpt><trkpt lat="43.1869317" lon="2.2000867"><ele>292.0</ele><time>2026-03-22T14:38:04.674Z</time></trkpt><trkpt lat="43.18686" lon="2.19999"><ele>292.0</ele><time>2026-03-22T14:38:05.676Z</time></trkpt><trkpt lat="43.1867883" lon="2.1998967"><ele>292.0</ele><time>2026-03-22T14:38:06.673Z</time></trkpt><trkpt lat="43.186715" lon="2.19981"><ele>292.0</ele><time>2026-03-22T14:38:07.673Z</time></trkpt><trkpt lat="43.186655" lon="2.1997317"><ele>292.16666666666663</ele><time>2026-03-22T14:38:08.679Z</time></trkpt><trkpt lat="43.1866033" lon="2.1996667"><ele>292.3333333333333</ele><time>2026-03-22T14:38:09.677Z</time></trkpt><trkpt lat="43.1865517" lon="2.199605"><ele>292.5</ele><time>2026-03-22T14:38:10.673Z</time></trkpt><trkpt lat="43.1865" lon="2.1995433"><ele>292.6666666666667</ele><time>2026-03-22T14:38:11.676Z</time></trkpt><trkpt lat="43.18645" lon="2.1994833"><ele>292.83333333333337</ele><time>2026-03-22T14:38:12.675Z</time></trkpt><trkpt lat="43.186365" lon="2.1993533"><ele>293.0</ele><time>2026-03-22T14:38:14.675Z</time></trkpt><trkpt lat="43.1863183" lon="2.199285"><ele>293.33333333333337</ele><time>2026-03-22T14:38:15.675Z</time></trkpt><trkpt lat="43.1862717" lon="2.1992133"><ele>293.6666666666667</ele><time>2026-03-22T14:38:16.674Z</time></trkpt><trkpt lat="43.1862233" lon="2.19914"><ele>294.0</ele><time>2026-03-22T14:38:17.673Z</time></trkpt><trkpt lat="43.1861717" lon="2.1990617"><ele>294.3333333333333</ele><time>2026-03-22T14:38:18.674Z</time></trkpt><trkpt lat="43.1861233" lon="2.19898"><ele>294.66666666666663</ele><time>2026-03-22T14:38:19.674Z</time></trkpt><trkpt lat="43.186075" lon="2.1988967"><ele>295.0</ele><time>2026-03-22T14:38:20.677Z</time></trkpt><trkpt lat="43.1860217" lon="2.1987967"><ele>295.8333333333333</ele><time>2026-03-22T14:38:21.673Z</time></trkpt><trkpt lat="43.1859717" lon="2.1986967"><ele>296.66666666666663</ele><time>2026-03-22T14:38:22.674Z</time></trkpt><trkpt lat="43.18592" lon="2.1985867"><ele>297.5</ele><time>2026-03-22T14:38:23.674Z</time></trkpt><trkpt lat="43.185865" lon="2.1984833"><ele>298.3333333333333</ele><time>2026-03-22T14:38:24.675Z</time></trkpt><trkpt lat="43.18581" lon="2.1983933"><ele>299.1666666666667</ele><time>2026-03-22T14:38:25.673Z</time></trkpt><trkpt lat="43.18576" lon="2.1983217"><ele>300.0</ele><time>2026-03-22T14:38:26.674Z</time></trkpt><trkpt lat="43.185715" lon="2.1982567"><ele>300.5</ele><time>2026-03-22T14:38:27.674Z</time></trkpt><trkpt lat="43.18564" lon="2.1981383"><ele>301.0</ele><time>2026-03-22T14:38:29.675Z</time></trkpt><trkpt lat="43.1855883" lon="2.1980517"><ele>301.5</ele><time>2026-03-22T14:38:31.675Z</time></trkpt><trkpt lat="43.1855433" lon="2.19798"><ele>302.0</ele><time>2026-03-22T14:38:33.673Z</time></trkpt><trkpt lat="43.185465" lon="2.197875"><ele>302.5</ele><time>2026-03-22T14:38:35.674Z</time></trkpt><trkpt lat="43.18541" lon="2.1978083"><ele>303.0</ele><time>2026-03-22T14:38:36.676Z</time></trkpt><trkpt lat="43.185345" lon="2.1977267"><ele>303.0</ele><time>2026-03-22T14:38:37.676Z</time></trkpt><trkpt lat="43.1852817" lon="2.1976417"><ele>303.0</ele><time>2026-03-22T14:38:38.674Z</time></trkpt><trkpt lat="43.1852233" lon="2.19757"><ele>303.0</ele><time>2026-03-22T14:38:39.674Z</time></trkpt><trkpt lat="43.185145" lon="2.1974883"><ele>303.0</ele><time>2026-03-22T14:38:41.674Z</time></trkpt><trkpt lat="43.1850883" lon="2.197435"><ele>303.0</ele><time>2026-03-22T14:39:22.676Z</time></trkpt><trkpt lat="43.185035" lon="2.1972817"><ele>302.8</ele><time>2026-03-22T14:39:24.676Z</time></trkpt><trkpt lat="43.185005" lon="2.1971967"><ele>302.6</ele><time>2026-03-22T14:39:25.676Z</time></trkpt><trkpt lat="43.18497" lon="2.1970967"><ele>302.4</ele><time>2026-03-22T14:39:26.678Z</time></trkpt><trkpt lat="43.1849167" lon="2.1969883"><ele>302.2</ele><time>2026-03-22T14:39:27.675Z</time></trkpt><trkpt lat="43.1848483" lon="2.1968817"><ele>302.0</ele><time>2026-03-22T14:39:28.675Z</time></trkpt><trkpt lat="43.1847733" lon="2.196775"><ele>304.0</ele><time>2026-03-22T14:39:29.676Z</time></trkpt><trkpt lat="43.1846933" lon="2.1966667"><ele>306.0</ele><time>2026-03-22T14:39:30.676Z</time></trkpt><trkpt lat="43.184605" lon="2.1965617"><ele>308.0</ele><time>2026-03-22T14:39:31.675Z</time></trkpt><trkpt lat="43.1845233" lon="2.1964683"><ele>310.0</ele><time>2026-03-22T14:39:32.676Z</time></trkpt><trkpt lat="43.18445" lon="2.1963817"><ele>312.0</ele><time>2026-03-22T14:39:33.676Z</time></trkpt><trkpt lat="43.1843783" lon="2.1963017"><ele>312.3333333333333</ele><time>2026-03-22T14:39:34.674Z</time></trkpt><trkpt lat="43.184315" lon="2.1962283"><ele>312.6666666666667</ele><time>2026-03-22T14:39:35.675Z</time></trkpt><trkpt lat="43.1842517" lon="2.1961417"><ele>313.0</ele><time>2026-03-22T14:39:36.675Z</time></trkpt><trkpt lat="43.18419" lon="2.196065"><ele>313.33333333333337</ele><time>2026-03-22T14:39:37.673Z</time></trkpt><trkpt lat="43.1841333" lon="2.1959933"><ele>313.6666666666667</ele><time>2026-03-22T14:39:38.674Z</time></trkpt><trkpt lat="43.184085" lon="2.1959367"><ele>314.0</ele><time>2026-03-22T14:39:39.674Z</time></trkpt><trkpt lat="43.1840033" lon="2.1958533"><ele>316.33333333333337</ele><time>2026-03-22T14:39:41.674Z</time></trkpt><trkpt lat="43.1839283" lon="2.1958117"><ele>318.6666666666667</ele><time>2026-03-22T14:39:43.679Z</time></trkpt><trkpt lat="43.18383" lon="2.195715"><ele>321.0</ele><time>2026-03-22T14:39:45.674Z</time></trkpt><trkpt lat="43.1837783" lon="2.19565"><ele>323.3333333333333</ele><time>2026-03-22T14:39:46.675Z</time></trkpt><trkpt lat="43.1837283" lon="2.1955883"><ele>325.66666666666663</ele><time>2026-03-22T14:39:47.674Z</time></trkpt><trkpt lat="43.18368" lon="2.1955117"><ele>328.0</ele><time>2026-03-22T14:39:48.674Z</time></trkpt><trkpt lat="43.1836217" lon="2.1954217"><ele>328.59999999999997</ele><time>2026-03-22T14:39:49.673Z</time></trkpt><trkpt lat="43.18355" lon="2.1953333"><ele>329.2</ele><time>2026-03-22T14:39:50.681Z</time></trkpt><trkpt lat="43.18346" lon="2.19524"><ele>329.8</ele><time>2026-03-22T14:39:51.674Z</time></trkpt><trkpt lat="43.1833567" lon="2.195155"><ele>330.4</ele><time>2026-03-22T14:39:52.675Z</time></trkpt><trkpt lat="43.18325" lon="2.1950817"><ele>331.0</ele><time>2026-03-22T14:39:53.675Z</time></trkpt><trkpt lat="43.183135" lon="2.195005"><ele>333.5</ele><time>2026-03-22T14:39:54.676Z</time></trkpt><trkpt lat="43.183015" lon="2.1949533"><ele>336.0</ele><time>2026-03-22T14:39:55.673Z</time></trkpt><trkpt lat="43.1828917" lon="2.1949083"><ele>338.5</ele><time>2026-03-22T14:39:56.679Z</time></trkpt><trkpt lat="43.18276" lon="2.1948667"><ele>341.0</ele><time>2026-03-22T14:39:57.674Z</time></trkpt><trkpt lat="43.1826283" lon="2.1948433"><ele>341.75</ele><time>2026-03-22T14:39:58.673Z</time></trkpt><trkpt lat="43.1825" lon="2.19482"><ele>342.5</ele><time>2026-03-22T14:39:59.679Z</time></trkpt><trkpt lat="43.1823767" lon="2.194795"><ele>343.25</ele><time>2026-03-22T14:40:00.674Z</time></trkpt><trkpt lat="43.182255" lon="2.1947617"><ele>344.0</ele><time>2026-03-22T14:40:01.678Z</time></trkpt><trkpt lat="43.1821283" lon="2.19473"><ele>344.0</ele><time>2026-03-22T14:40:02.674Z</time></trkpt><trkpt lat="43.182" lon="2.1947017"><ele>344.0</ele><time>2026-03-22T14:40:03.674Z</time></trkpt><trkpt lat="43.1818817" lon="2.1946783"><ele>344.0</ele><time>2026-03-22T14:40:04.673Z</time></trkpt><trkpt lat="43.18177" lon="2.1946467"><ele>344.0</ele><time>2026-03-22T14:40:05.673Z</time></trkpt><trkpt lat="43.18165" lon="2.1945867"><ele>344.0</ele><time>2026-03-22T14:40:06.673Z</time></trkpt><trkpt lat="43.1815283" lon="2.1945033"><ele>344.0</ele><time>2026-03-22T14:40:07.673Z</time></trkpt><trkpt lat="43.1814033" lon="2.1944233"><ele>344.0</ele><time>2026-03-22T14:40:08.677Z</time></trkpt><trkpt lat="43.181275" lon="2.1943467"><ele>344.0</ele><time>2026-03-22T14:40:09.674Z</time></trkpt><trkpt lat="43.1811567" lon="2.194265"><ele>347.5</ele><time>2026-03-22T14:40:10.674Z</time></trkpt><trkpt lat="43.1810433" lon="2.1941817"><ele>351.0</ele><time>2026-03-22T14:40:11.674Z</time></trkpt><trkpt lat="43.18093" lon="2.1941"><ele>354.5</ele><time>2026-03-22T14:40:12.674Z</time></trkpt><trkpt lat="43.1808267" lon="2.1940383"><ele>358.0</ele><time>2026-03-22T14:40:13.674Z</time></trkpt><trkpt lat="43.1807167" lon="2.19399"><ele>361.0</ele><time>2026-03-22T14:40:14.675Z</time></trkpt><trkpt lat="43.1806233" lon="2.193955"><ele>364.0</ele><time>2026-03-22T14:40:15.674Z</time></trkpt><trkpt lat="43.1805417" lon="2.1939333"><ele>367.0</ele><time>2026-03-22T14:40:16.673Z</time></trkpt><trkpt lat="43.1804583" lon="2.1939283"><ele>370.0</ele><time>2026-03-22T14:40:17.673Z</time></trkpt><trkpt lat="43.1803667" lon="2.193945"><ele>373.0</ele><time>2026-03-22T14:40:18.674Z</time></trkpt><trkpt lat="43.180275" lon="2.1939583"><ele>376.0</ele><time>2026-03-22T14:40:19.675Z</time></trkpt><trkpt lat="43.18017" lon="2.1939817"><ele>375.0</ele><time>2026-03-22T14:40:20.675Z</time></trkpt><trkpt lat="43.1800583" lon="2.194015"><ele>374.0</ele><time>2026-03-22T14:40:21.675Z</time></trkpt><trkpt lat="43.1799483" lon="2.194045"><ele>373.0</ele><time>2026-03-22T14:40:22.674Z</time></trkpt><trkpt lat="43.1798467" lon="2.1940633"><ele>372.0</ele><time>2026-03-22T14:40:23.675Z</time></trkpt><trkpt lat="43.1797433" lon="2.194045"><ele>371.0</ele><time>2026-03-22T14:40:24.676Z</time></trkpt><trkpt lat="43.1796417" lon="2.1939983"><ele>373.8</ele><time>2026-03-22T14:40:25.674Z</time></trkpt><trkpt lat="43.179545" lon="2.1939117"><ele>376.6</ele><time>2026-03-22T14:40:26.676Z</time></trkpt><trkpt lat="43.1794533" lon="2.1938233"><ele>379.4</ele><time>2026-03-22T14:40:27.68Z</time></trkpt><trkpt lat="43.1793633" lon="2.1937283"><ele>382.2</ele><time>2026-03-22T14:40:28.674Z</time></trkpt><trkpt lat="43.1792733" lon="2.1936483"><ele>385.0</ele><time>2026-03-22T14:40:29.677Z</time></trkpt><trkpt lat="43.1791967" lon="2.1935883"><ele>385.00000000000006</ele><time>2026-03-22T14:40:30.673Z</time></trkpt><trkpt lat="43.1791317" lon="2.19355"><ele>385.0</ele><time>2026-03-22T14:40:31.674Z</time></trkpt><trkpt lat="43.1790433" lon="2.1934833"><ele>385.0</ele><time>2026-03-22T14:40:33.673Z</time></trkpt><trkpt lat="43.178985" lon="2.193405"><ele>385.0</ele><time>2026-03-22T14:40:35.673Z</time></trkpt><trkpt lat="43.1789533" lon="2.1933133"><ele>385.00000000000006</ele><time>2026-03-22T14:40:38.674Z</time></trkpt><trkpt lat="43.1788567" lon="2.1933717"><ele>385.0</ele><time>2026-03-22T14:40:48.674Z</time></trkpt><trkpt lat="43.1788017" lon="2.1934283"><ele>386.6</ele><time>2026-03-22T14:40:49.673Z</time></trkpt><trkpt lat="43.1787383" lon="2.1934933"><ele>388.2</ele><time>2026-03-22T14:40:50.68Z</time></trkpt><trkpt lat="43.1786683" lon="2.1935683"><ele>389.79999999999995</ele><time>2026-03-22T14:40:51.676Z</time></trkpt><trkpt lat="43.17859" lon="2.1936567"><ele>391.4</ele><time>2026-03-22T14:40:52.673Z</time></trkpt><trkpt lat="43.1785033" lon="2.19375"><ele>393.0</ele><time>2026-03-22T14:40:53.675Z</time></trkpt><trkpt lat="43.1784117" lon="2.1938517"><ele>393.0</ele><time>2026-03-22T14:40:54.675Z</time></trkpt><trkpt lat="43.1783117" lon="2.1939567"><ele>393.0</ele><time>2026-03-22T14:40:55.675Z</time></trkpt><trkpt lat="43.1782067" lon="2.19407"><ele>393.0</ele><time>2026-03-22T14:40:56.674Z</time></trkpt><trkpt lat="43.1781133" lon="2.19419"><ele>393.0</ele><time>2026-03-22T14:40:57.675Z</time></trkpt><trkpt lat="43.17802" lon="2.1943067"><ele>394.75</ele><time>2026-03-22T14:40:58.674Z</time></trkpt><trkpt lat="43.1779167" lon="2.1944083"><ele>396.5</ele><time>2026-03-22T14:40:59.673Z</time></trkpt><trkpt lat="43.1778067" lon="2.1944783"><ele>398.25</ele><time>2026-03-22T14:41:00.674Z</time></trkpt><trkpt lat="43.1776967" lon="2.1945317"><ele>400.0</ele><time>2026-03-22T14:41:01.678Z</time></trkpt><trkpt lat="43.17759" lon="2.1945917"><ele>400.0</ele><time>2026-03-22T14:41:02.674Z</time></trkpt><trkpt lat="43.1775033" lon="2.1946867"><ele>400.0</ele><time>2026-03-22T14:41:03.675Z</time></trkpt><trkpt lat="43.17744" lon="2.194825"><ele>400.0</ele><time>2026-03-22T14:41:04.676Z</time></trkpt><trkpt lat="43.1774067" lon="2.19498"><ele>400.0</ele><time>2026-03-22T14:41:05.674Z</time></trkpt><trkpt lat="43.1773933" lon="2.195145"><ele>400.25</ele><time>2026-03-22T14:41:06.675Z</time></trkpt><trkpt lat="43.1773967" lon="2.1953233"><ele>400.5</ele><time>2026-03-22T14:41:07.674Z</time></trkpt><trkpt lat="43.177365" lon="2.1954917"><ele>400.75</ele><time>2026-03-22T14:41:08.675Z</time></trkpt><trkpt lat="43.1773083" lon="2.1956517"><ele>401.0</ele><time>2026-03-22T14:41:09.674Z</time></trkpt><trkpt lat="43.1772283" lon="2.1958033"><ele>401.0</ele><time>2026-03-22T14:41:10.675Z</time></trkpt><trkpt lat="43.1771267" lon="2.1959383"><ele>401.0</ele><time>2026-03-22T14:41:11.674Z</time></trkpt><trkpt lat="43.17701" lon="2.19606"><ele>401.0</ele><time>2026-03-22T14:41:12.674Z</time></trkpt><trkpt lat="43.17689" lon="2.196195"><ele>401.0</ele><time>2026-03-22T14:41:13.675Z</time></trkpt><trkpt lat="43.176765" lon="2.196335"><ele>401.0</ele><time>2026-03-22T14:41:14.676Z</time></trkpt><trkpt lat="43.1766383" lon="2.196465"><ele>401.0</ele><time>2026-03-22T14:41:15.673Z</time></trkpt><trkpt lat="43.1765117" lon="2.1965883"><ele>401.0</ele><time>2026-03-22T14:41:16.674Z</time></trkpt><trkpt lat="43.176385" lon="2.196685"><ele>399.25</ele><time>2026-03-22T14:41:17.674Z</time></trkpt><trkpt lat="43.1762617" lon="2.196775"><ele>397.5</ele><time>2026-03-22T14:41:18.676Z</time></trkpt><trkpt lat="43.1761317" lon="2.196855"><ele>395.75</ele><time>2026-03-22T14:41:19.676Z</time></trkpt><trkpt lat="43.1760033" lon="2.1969367"><ele>394.0</ele><time>2026-03-22T14:41:20.677Z</time></trkpt><trkpt lat="43.1758883" lon="2.197"><ele>394.0</ele><time>2026-03-22T14:41:21.675Z</time></trkpt><trkpt lat="43.1757883" lon="2.1970783"><ele>394.0</ele><time>2026-03-22T14:41:22.677Z</time></trkpt><trkpt lat="43.1756917" lon="2.19714"><ele>394.0</ele><time>2026-03-22T14:41:23.676Z</time></trkpt><trkpt lat="43.1756" lon="2.1972"><ele>394.0</ele><time>2026-03-22T14:41:24.676Z</time></trkpt><trkpt lat="43.1755317" lon="2.1972633"><ele>394.0</ele><time>2026-03-22T14:41:25.676Z</time></trkpt><trkpt lat="43.1754817" lon="2.1973483"><ele>390.83333333333337</ele><time>2026-03-22T14:41:26.675Z</time></trkpt><trkpt lat="43.1754417" lon="2.1974367"><ele>387.6666666666667</ele><time>2026-03-22T14:41:27.675Z</time></trkpt><trkpt lat="43.17541" lon="2.1975283"><ele>384.5</ele><time>2026-03-22T14:41:28.674Z</time></trkpt><trkpt lat="43.1753883" lon="2.19763"><ele>381.33333333333337</ele><time>2026-03-22T14:41:29.673Z</time></trkpt><trkpt lat="43.1753633" lon="2.19773"><ele>378.1666666666667</ele><time>2026-03-22T14:41:30.674Z</time></trkpt><trkpt lat="43.17534" lon="2.19783"><ele>375.0</ele><time>2026-03-22T14:41:31.676Z</time></trkpt><trkpt lat="43.175315" lon="2.1979283"><ele>375.0</ele><time>2026-03-22T14:41:32.674Z</time></trkpt><trkpt lat="43.1752783" lon="2.1980217"><ele>375.0</ele><time>2026-03-22T14:41:33.674Z</time></trkpt><trkpt lat="43.1752283" lon="2.19811"><ele>375.0</ele><time>2026-03-22T14:41:34.676Z</time></trkpt><trkpt lat="43.1751717" lon="2.1982083"><ele>375.0</ele><time>2026-03-22T14:41:35.674Z</time></trkpt><trkpt lat="43.175125" lon="2.19832"><ele>375.0</ele><time>2026-03-22T14:41:36.674Z</time></trkpt><trkpt lat="43.1750867" lon="2.1984483"><ele>375.0</ele><time>2026-03-22T14:41:37.674Z</time></trkpt><trkpt lat="43.1750483" lon="2.1985867"><ele>375.5</ele><time>2026-03-22T14:41:38.676Z</time></trkpt><trkpt lat="43.1750067" lon="2.19873"><ele>376.0</ele><time>2026-03-22T14:41:39.676Z</time></trkpt><trkpt lat="43.174945" lon="2.1988617"><ele>376.5</ele><time>2026-03-22T14:41:40.676Z</time></trkpt><trkpt lat="43.1748633" lon="2.19898"><ele>377.0</ele><time>2026-03-22T14:41:41.673Z</time></trkpt><trkpt lat="43.174755" lon="2.1990733"><ele>376.0</ele><time>2026-03-22T14:41:42.673Z</time></trkpt><trkpt lat="43.1746283" lon="2.1991533"><ele>375.0</ele><time>2026-03-22T14:41:43.674Z</time></trkpt><trkpt lat="43.1744967" lon="2.19924"><ele>374.0</ele><time>2026-03-22T14:41:44.673Z</time></trkpt><trkpt lat="43.1743683" lon="2.1993467"><ele>373.0</ele><time>2026-03-22T14:41:45.673Z</time></trkpt><trkpt lat="43.1742517" lon="2.1994667"><ele>373.0</ele><time>2026-03-22T14:41:46.673Z</time></trkpt><trkpt lat="43.1741467" lon="2.19959"><ele>373.0</ele><time>2026-03-22T14:41:47.674Z</time></trkpt><trkpt lat="43.1740383" lon="2.19969"><ele>373.0</ele><time>2026-03-22T14:41:48.676Z</time></trkpt><trkpt lat="43.1739217" lon="2.1997367"><ele>373.0</ele><time>2026-03-22T14:41:49.682Z</time></trkpt><trkpt lat="43.1738033" lon="2.19972"><ele>372.5</ele><time>2026-03-22T14:41:50.675Z</time></trkpt><trkpt lat="43.173685" lon="2.199655"><ele>372.0</ele><time>2026-03-22T14:41:51.674Z</time></trkpt><trkpt lat="43.1735617" lon="2.199575"><ele>371.5</ele><time>2026-03-22T14:41:52.674Z</time></trkpt><trkpt lat="43.1734317" lon="2.1995"><ele>371.0</ele><time>2026-03-22T14:41:53.674Z</time></trkpt><trkpt lat="43.1732967" lon="2.1994333"><ele>371.5</ele><time>2026-03-22T14:41:54.675Z</time></trkpt><trkpt lat="43.1731617" lon="2.1993683"><ele>372.0</ele><time>2026-03-22T14:41:55.674Z</time></trkpt><trkpt lat="43.1730333" lon="2.1993067"><ele>372.5</ele><time>2026-03-22T14:41:56.673Z</time></trkpt><trkpt lat="43.1729133" lon="2.1992533"><ele>373.0</ele><time>2026-03-22T14:41:57.674Z</time></trkpt><trkpt lat="43.1727983" lon="2.199205"><ele>373.0</ele><time>2026-03-22T14:41:58.673Z</time></trkpt><trkpt lat="43.1726883" lon="2.19917"><ele>373.0</ele><time>2026-03-22T14:41:59.674Z</time></trkpt><trkpt lat="43.1725767" lon="2.1991633"><ele>373.0</ele><time>2026-03-22T14:42:00.673Z</time></trkpt><trkpt lat="43.1724667" lon="2.199195"><ele>373.0</ele><time>2026-03-22T14:42:01.676Z</time></trkpt><trkpt lat="43.172365" lon="2.1992567"><ele>373.0</ele><time>2026-03-22T14:42:02.676Z</time></trkpt><trkpt lat="43.172275" lon="2.19937"><ele>372.0</ele><time>2026-03-22T14:42:03.674Z</time></trkpt><trkpt lat="43.1722017" lon="2.1995167"><ele>371.0</ele><time>2026-03-22T14:42:04.674Z</time></trkpt><trkpt lat="43.17213" lon="2.19966"><ele>370.0</ele><time>2026-03-22T14:42:05.673Z</time></trkpt><trkpt lat="43.1720317" lon="2.1997667"><ele>369.0</ele><time>2026-03-22T14:42:06.674Z</time></trkpt><trkpt lat="43.171915" lon="2.1998467"><ele>369.0</ele><time>2026-03-22T14:42:07.673Z</time></trkpt><trkpt lat="43.1717867" lon="2.1999183"><ele>369.0</ele><time>2026-03-22T14:42:08.673Z</time></trkpt><trkpt lat="43.1716533" lon="2.1999933"><ele>369.0</ele><time>2026-03-22T14:42:09.681Z</time></trkpt><trkpt lat="43.1715217" lon="2.200075"><ele>369.0</ele><time>2026-03-22T14:42:10.675Z</time></trkpt><trkpt lat="43.1713983" lon="2.2001833"><ele>368.0</ele><time>2026-03-22T14:42:11.674Z</time></trkpt><trkpt lat="43.1712967" lon="2.2003133"><ele>367.0</ele><time>2026-03-22T14:42:12.674Z</time></trkpt><trkpt lat="43.1712067" lon="2.2004433"><ele>366.0</ele><time>2026-03-22T14:42:13.673Z</time></trkpt><trkpt lat="43.1711267" lon="2.2005683"><ele>365.0</ele><time>2026-03-22T14:42:14.674Z</time></trkpt><trkpt lat="43.1710617" lon="2.2007017"><ele>365.0</ele><time>2026-03-22T14:42:15.674Z</time></trkpt><trkpt lat="43.1710217" lon="2.2008617"><ele>365.0</ele><time>2026-03-22T14:42:16.674Z</time></trkpt><trkpt lat="43.17101" lon="2.20104"><ele>365.0</ele><time>2026-03-22T14:42:17.675Z</time></trkpt><trkpt lat="43.1710083" lon="2.2012283"><ele>365.0</ele><time>2026-03-22T14:42:18.677Z</time></trkpt><trkpt lat="43.171" lon="2.2014183"><ele>365.5</ele><time>2026-03-22T14:42:19.676Z</time></trkpt><trkpt lat="43.1709633" lon="2.20159"><ele>366.0</ele><time>2026-03-22T14:42:20.677Z</time></trkpt><trkpt lat="43.1708983" lon="2.2017517"><ele>366.5</ele><time>2026-03-22T14:42:21.673Z</time></trkpt><trkpt lat="43.17081" lon="2.2019"><ele>367.0</ele><time>2026-03-22T14:42:22.673Z</time></trkpt><trkpt lat="43.1707133" lon="2.2020283"><ele>367.75</ele><time>2026-03-22T14:42:23.675Z</time></trkpt><trkpt lat="43.1706133" lon="2.202155"><ele>368.5</ele><time>2026-03-22T14:42:24.677Z</time></trkpt><trkpt lat="43.170505" lon="2.2022533"><ele>369.25</ele><time>2026-03-22T14:42:25.677Z</time></trkpt><trkpt lat="43.1703883" lon="2.2023133"><ele>370.0</ele><time>2026-03-22T14:42:26.676Z</time></trkpt><trkpt lat="43.1702667" lon="2.2023317"><ele>370.0</ele><time>2026-03-22T14:42:27.673Z</time></trkpt><trkpt lat="43.1701533" lon="2.2023067"><ele>370.0</ele><time>2026-03-22T14:42:28.676Z</time></trkpt><trkpt lat="43.1700583" lon="2.2022417"><ele>370.0</ele><time>2026-03-22T14:42:29.678Z</time></trkpt><trkpt lat="43.1699783" lon="2.2021433"><ele>370.0</ele><time>2026-03-22T14:42:30.676Z</time></trkpt><trkpt lat="43.16991" lon="2.202015"><ele>370.0</ele><time>2026-03-22T14:42:31.674Z</time></trkpt><trkpt lat="43.1698417" lon="2.2018817"><ele>368.25</ele><time>2026-03-22T14:42:32.676Z</time></trkpt><trkpt lat="43.1697583" lon="2.2017533"><ele>366.5</ele><time>2026-03-22T14:42:33.674Z</time></trkpt><trkpt lat="43.1696633" lon="2.20164"><ele>364.75</ele><time>2026-03-22T14:42:34.676Z</time></trkpt><trkpt lat="43.169565" lon="2.20154"><ele>363.0</ele><time>2026-03-22T14:42:35.678Z</time></trkpt><trkpt lat="43.1694683" lon="2.2014867"><ele>363.0</ele><time>2026-03-22T14:42:36.676Z</time></trkpt><trkpt lat="43.1693767" lon="2.20148"><ele>363.0</ele><time>2026-03-22T14:42:37.675Z</time></trkpt><trkpt lat="43.1692917" lon="2.2015483"><ele>363.0</ele><time>2026-03-22T14:42:38.675Z</time></trkpt><trkpt lat="43.169235" lon="2.2016733"><ele>363.0</ele><time>2026-03-22T14:42:39.676Z</time></trkpt><trkpt lat="43.16919" lon="2.2018317"><ele>363.0</ele><time>2026-03-22T14:42:40.673Z</time></trkpt><trkpt lat="43.1691433" lon="2.20199"><ele>364.0</ele><time>2026-03-22T14:42:41.674Z</time></trkpt><trkpt lat="43.1690817" lon="2.20214"><ele>365.0</ele><time>2026-03-22T14:42:42.674Z</time></trkpt><trkpt lat="43.1689933" lon="2.2022767"><ele>366.0</ele><time>2026-03-22T14:42:43.674Z</time></trkpt><trkpt lat="43.1688883" lon="2.202405"><ele>367.0</ele><time>2026-03-22T14:42:44.674Z</time></trkpt><trkpt lat="43.1687717" lon="2.2025333"><ele>370.25</ele><time>2026-03-22T14:42:45.673Z</time></trkpt><trkpt lat="43.168655" lon="2.2026633"><ele>373.5</ele><time>2026-03-22T14:42:46.673Z</time></trkpt><trkpt lat="43.1685383" lon="2.2027867"><ele>376.75</ele><time>2026-03-22T14:42:47.674Z</time></trkpt><trkpt lat="43.16842" lon="2.2029033"><ele>380.0</ele><time>2026-03-22T14:42:48.676Z</time></trkpt><trkpt lat="43.1682983" lon="2.2030233"><ele>382.33333333333337</ele><time>2026-03-22T14:42:49.674Z</time></trkpt><trkpt lat="43.1681783" lon="2.2031517"><ele>384.6666666666667</ele><time>2026-03-22T14:42:50.676Z</time></trkpt><trkpt lat="43.1680567" lon="2.203275"><ele>387.0</ele><time>2026-03-22T14:42:51.675Z</time></trkpt><trkpt lat="43.1679333" lon="2.2034067"><ele>387.0</ele><time>2026-03-22T14:42:52.675Z</time></trkpt><trkpt lat="43.1678033" lon="2.2035233"><ele>387.0</ele><time>2026-03-22T14:42:53.675Z</time></trkpt><trkpt lat="43.167665" lon="2.203625"><ele>387.0</ele><time>2026-03-22T14:42:54.674Z</time></trkpt><trkpt lat="43.1675133" lon="2.20371"><ele>387.0</ele><time>2026-03-22T14:42:55.676Z</time></trkpt><trkpt lat="43.1673633" lon="2.20379"><ele>387.0</ele><time>2026-03-22T14:42:56.677Z</time></trkpt><trkpt lat="43.1672233" lon="2.2038633"><ele>387.0</ele><time>2026-03-22T14:42:57.675Z</time></trkpt><trkpt lat="43.167095" lon="2.2039567"><ele>388.5</ele><time>2026-03-22T14:42:58.675Z</time></trkpt><trkpt lat="43.1669733" lon="2.2040667"><ele>390.0</ele><time>2026-03-22T14:42:59.676Z</time></trkpt><trkpt lat="43.166845" lon="2.20418"><ele>391.5</ele><time>2026-03-22T14:43:00.674Z</time></trkpt><trkpt lat="43.1667133" lon="2.2042783"><ele>393.0</ele><time>2026-03-22T14:43:01.674Z</time></trkpt><trkpt lat="43.1665933" lon="2.20435"><ele>393.79999999999995</ele><time>2026-03-22T14:43:02.675Z</time></trkpt><trkpt lat="43.1664783" lon="2.2043983"><ele>394.6</ele><time>2026-03-22T14:43:03.675Z</time></trkpt><trkpt lat="43.1663683" lon="2.20443"><ele>395.4</ele><time>2026-03-22T14:43:04.675Z</time></trkpt><trkpt lat="43.166275" lon="2.20446"><ele>396.20000000000005</ele><time>2026-03-22T14:43:05.674Z</time></trkpt><trkpt lat="43.1662" lon="2.2044883"><ele>397.0</ele><time>2026-03-22T14:43:06.674Z</time></trkpt><trkpt lat="43.166135" lon="2.2045117"><ele>397.0</ele><time>2026-03-22T14:43:07.676Z</time></trkpt><trkpt lat="43.16604" lon="2.204525"><ele>397.0</ele><time>2026-03-22T14:43:09.674Z</time></trkpt><trkpt lat="43.1659683" lon="2.2045433"><ele>397.0</ele><time>2026-03-22T14:43:11.673Z</time></trkpt><trkpt lat="43.1658983" lon="2.20461"><ele>397.0</ele><time>2026-03-22T14:43:13.675Z</time></trkpt><trkpt lat="43.16578" lon="2.204675"><ele>397.0</ele><time>2026-03-22T14:43:15.673Z</time></trkpt><trkpt lat="43.1657" lon="2.2046833"><ele>397.2857142857143</ele><time>2026-03-22T14:43:16.673Z</time></trkpt><trkpt lat="43.165625" lon="2.2046917"><ele>397.57142857142856</ele><time>2026-03-22T14:43:17.674Z</time></trkpt><trkpt lat="43.16555" lon="2.2047117"><ele>397.8571428571429</ele><time>2026-03-22T14:43:18.673Z</time></trkpt><trkpt lat="43.1654817" lon="2.2047433"><ele>398.1428571428571</ele><time>2026-03-22T14:43:19.675Z</time></trkpt><trkpt lat="43.1654217" lon="2.2047817"><ele>398.42857142857144</ele><time>2026-03-22T14:43:20.676Z</time></trkpt><trkpt lat="43.165365" lon="2.2048283"><ele>398.7142857142857</ele><time>2026-03-22T14:43:21.675Z</time></trkpt><trkpt lat="43.1653117" lon="2.20489"><ele>399.0</ele><time>2026-03-22T14:43:22.674Z</time></trkpt><trkpt lat="43.16525" lon="2.2049583"><ele>400.5</ele><time>2026-03-22T14:43:23.675Z</time></trkpt><trkpt lat="43.165185" lon="2.2050183"><ele>402.0</ele><time>2026-03-22T14:43:24.674Z</time></trkpt><trkpt lat="43.1651083" lon="2.2050883"><ele>403.5</ele><time>2026-03-22T14:43:25.674Z</time></trkpt><trkpt lat="43.1650367" lon="2.2051533"><ele>405.0</ele><time>2026-03-22T14:43:26.677Z</time></trkpt><trkpt lat="43.1649683" lon="2.2052167"><ele>406.5</ele><time>2026-03-22T14:43:27.675Z</time></trkpt><trkpt lat="43.1649017" lon="2.205265"><ele>408.0</ele><time>2026-03-22T14:43:28.675Z</time></trkpt><trkpt lat="43.164845" lon="2.205315"><ele>408.5</ele><time>2026-03-22T14:43:29.673Z</time></trkpt><trkpt lat="43.1647683" lon="2.2053783"><ele>409.0</ele><time>2026-03-22T14:43:31.674Z</time></trkpt><trkpt lat="43.1647017" lon="2.2054133"><ele>409.5</ele><time>2026-03-22T14:43:34.677Z</time></trkpt><trkpt lat="43.16463" lon="2.20536"><ele>410.0</ele><time>2026-03-22T14:43:37.673Z</time></trkpt><trkpt lat="43.164525" lon="2.2052933"><ele>410.5</ele><time>2026-03-22T14:43:39.673Z</time></trkpt><trkpt lat="43.1644633" lon="2.2052633"><ele>411.0</ele><time>2026-03-22T14:43:40.675Z</time></trkpt><trkpt lat="43.1644" lon="2.2052283"><ele>411.0</ele><time>2026-03-22T14:43:41.674Z</time></trkpt><trkpt lat="43.1643417" lon="2.20519"><ele>411.0</ele><time>2026-03-22T14:43:42.674Z</time></trkpt><trkpt lat="43.1642467" lon="2.20509"><ele>411.0</ele><time>2026-03-22T14:43:44.675Z</time></trkpt><trkpt lat="43.1641567" lon="2.204985"><ele>411.0</ele><time>2026-03-22T14:43:46.674Z</time></trkpt><trkpt lat="43.1640983" lon="2.204895"><ele>411.0</ele><time>2026-03-22T14:43:48.674Z</time></trkpt><trkpt lat="43.1640617" lon="2.20482"><ele>411.0</ele><time>2026-03-22T14:43:50.676Z</time></trkpt><trkpt lat="43.163985" lon="2.2048483"><ele>411.0</ele><time>2026-03-22T14:43:53.672Z</time></trkpt><trkpt lat="43.1640567" lon="2.20492"><ele>411.0</ele><time>2026-03-22T14:43:55.674Z</time></trkpt><trkpt lat="43.1641067" lon="2.204975"><ele>411.0</ele><time>2026-03-22T14:43:56.674Z</time></trkpt><trkpt lat="43.1641617" lon="2.2050417"><ele>411.0</ele><time>2026-03-22T14:43:57.674Z</time></trkpt><trkpt lat="43.1642183" lon="2.205115"><ele>411.0</ele><time>2026-03-22T14:43:58.675Z</time></trkpt><trkpt lat="43.1642867" lon="2.2051817"><ele>411.0</ele><time>2026-03-22T14:43:59.674Z</time></trkpt><trkpt lat="43.1643633" lon="2.20524"><ele>411.0</ele><time>2026-03-22T14:44:00.675Z</time></trkpt><trkpt lat="43.16443" lon="2.20528"><ele>411.0</ele><time>2026-03-22T14:44:01.675Z</time></trkpt><trkpt lat="43.1645117" lon="2.2053217"><ele>411.0</ele><time>2026-03-22T14:44:03.673Z</time></trkpt><trkpt lat="43.1645167" lon="2.2054183"><ele>411.0</ele><time>2026-03-22T14:44:07.674Z</time></trkpt><trkpt lat="43.1644767" lon="2.2053283"><ele>411.0</ele><time>2026-03-22T14:44:28.673Z</time></trkpt><trkpt lat="43.1644067" lon="2.2052583"><ele>411.0</ele><time>2026-03-22T14:44:31.673Z</time></trkpt><trkpt lat="43.1643433" lon="2.2052133"><ele>411.0</ele><time>2026-03-22T14:44:32.675Z</time></trkpt><trkpt lat="43.1642667" lon="2.20515"><ele>411.0</ele><time>2026-03-22T14:44:33.673Z</time></trkpt><trkpt lat="43.1641933" lon="2.2050783"><ele>411.0</ele><time>2026-03-22T14:44:34.674Z</time></trkpt><trkpt lat="43.1641367" lon="2.2050033"><ele>411.0</ele><time>2026-03-22T14:44:35.673Z</time></trkpt><trkpt lat="43.1640817" lon="2.204935"><ele>411.0</ele><time>2026-03-22T14:44:36.676Z</time></trkpt><trkpt lat="43.164005" lon="2.2048417"><ele>409.8</ele><time>2026-03-22T14:44:38.673Z</time></trkpt><trkpt lat="43.16396" lon="2.2047767"><ele>408.6</ele><time>2026-03-22T14:44:40.673Z</time></trkpt><trkpt lat="43.1639233" lon="2.2046967"><ele>407.4</ele><time>2026-03-22T14:44:42.673Z</time></trkpt><trkpt lat="43.1638717" lon="2.204585"><ele>406.2</ele><time>2026-03-22T14:44:44.673Z</time></trkpt><trkpt lat="43.1637967" lon="2.2044217"><ele>405.0</ele><time>2026-03-22T14:44:46.673Z</time></trkpt><trkpt lat="43.16375" lon="2.20433"><ele>405.0</ele><time>2026-03-22T14:44:47.675Z</time></trkpt><trkpt lat="43.16371" lon="2.2042533"><ele>405.0</ele><time>2026-03-22T14:44:48.673Z</time></trkpt><trkpt lat="43.163645" lon="2.204125"><ele>405.0</ele><time>2026-03-22T14:44:50.673Z</time></trkpt><trkpt lat="43.16359" lon="2.20407"><ele>405.0</ele><time>2026-03-22T14:44:52.674Z</time></trkpt><trkpt lat="43.163535" lon="2.2041317"><ele>405.0</ele><time>2026-03-22T14:45:21.672Z</time></trkpt><trkpt lat="43.163575" lon="2.2042833"><ele>405.0</ele><time>2026-03-22T14:45:23.672Z</time></trkpt><trkpt lat="43.1635867" lon="2.2043867"><ele>405.0</ele><time>2026-03-22T14:45:24.672Z</time></trkpt><trkpt lat="43.1635867" lon="2.2045017"><ele>405.0</ele><time>2026-03-22T14:45:25.674Z</time></trkpt><trkpt lat="43.1635817" lon="2.20463"><ele>405.0</ele><time>2026-03-22T14:45:26.674Z</time></trkpt><trkpt lat="43.1635717" lon="2.2047633"><ele>405.0</ele><time>2026-03-22T14:45:27.674Z</time></trkpt><trkpt lat="43.16356" lon="2.2049033"><ele>405.0</ele><time>2026-03-22T14:45:28.673Z</time></trkpt><trkpt lat="43.163535" lon="2.2050483"><ele>405.75</ele><time>2026-03-22T14:45:29.673Z</time></trkpt><trkpt lat="43.1634967" lon="2.205195"><ele>406.5</ele><time>2026-03-22T14:45:30.673Z</time></trkpt><trkpt lat="43.1634417" lon="2.2053333"><ele>407.25</ele><time>2026-03-22T14:45:31.675Z</time></trkpt><trkpt lat="43.16337" lon="2.205465"><ele>408.0</ele><time>2026-03-22T14:45:32.674Z</time></trkpt><trkpt lat="43.163295" lon="2.2056017"><ele>407.75</ele><time>2026-03-22T14:45:33.677Z</time></trkpt><trkpt lat="43.1632167" lon="2.2057483"><ele>407.5</ele><time>2026-03-22T14:45:34.675Z</time></trkpt><trkpt lat="43.1631367" lon="2.2058933"><ele>407.25</ele><time>2026-03-22T14:45:35.677Z</time></trkpt><trkpt lat="43.1630633" lon="2.2060383"><ele>407.0</ele><time>2026-03-22T14:45:36.674Z</time></trkpt><trkpt lat="43.1629917" lon="2.2061833"><ele>407.0</ele><time>2026-03-22T14:45:37.676Z</time></trkpt><trkpt lat="43.1629283" lon="2.2063367"><ele>407.0</ele><time>2026-03-22T14:45:38.677Z</time></trkpt><trkpt lat="43.162875" lon="2.2065117"><ele>407.0</ele><time>2026-03-22T14:45:39.678Z</time></trkpt><trkpt lat="43.1628467" lon="2.2067033"><ele>407.0</ele><time>2026-03-22T14:45:40.674Z</time></trkpt><trkpt lat="43.1628333" lon="2.2069017"><ele>407.75</ele><time>2026-03-22T14:45:41.673Z</time></trkpt><trkpt lat="43.16283" lon="2.2070867"><ele>408.5</ele><time>2026-03-22T14:45:42.673Z</time></trkpt><trkpt lat="43.162835" lon="2.2072617"><ele>409.25</ele><time>2026-03-22T14:45:43.674Z</time></trkpt><trkpt lat="43.162855" lon="2.2074383"><ele>410.0</ele><time>2026-03-22T14:45:44.675Z</time></trkpt><trkpt lat="43.1628817" lon="2.2076233"><ele>410.0</ele><time>2026-03-22T14:45:45.673Z</time></trkpt><trkpt lat="43.1629167" lon="2.207815"><ele>410.0</ele><time>2026-03-22T14:45:46.673Z</time></trkpt><trkpt lat="43.162955" lon="2.2080017"><ele>410.0</ele><time>2026-03-22T14:45:47.674Z</time></trkpt><trkpt lat="43.16299" lon="2.20818"><ele>410.0</ele><time>2026-03-22T14:45:48.675Z</time></trkpt><trkpt lat="43.1630233" lon="2.2083433"><ele>410.2</ele><time>2026-03-22T14:45:49.674Z</time></trkpt><trkpt lat="43.163055" lon="2.20849"><ele>410.4</ele><time>2026-03-22T14:45:50.674Z</time></trkpt><trkpt lat="43.1630983" lon="2.208625"><ele>410.6</ele><time>2026-03-22T14:45:51.674Z</time></trkpt><trkpt lat="43.1631533" lon="2.2087583"><ele>410.8</ele><time>2026-03-22T14:45:52.675Z</time></trkpt><trkpt lat="43.1632067" lon="2.2088983"><ele>411.0</ele><time>2026-03-22T14:45:53.674Z</time></trkpt><trkpt lat="43.163255" lon="2.2090617"><ele>411.0</ele><time>2026-03-22T14:45:54.675Z</time></trkpt><trkpt lat="43.1632967" lon="2.2092317"><ele>411.0</ele><time>2026-03-22T14:45:55.673Z</time></trkpt><trkpt lat="43.16335" lon="2.20941"><ele>411.0</ele><time>2026-03-22T14:45:56.673Z</time></trkpt><trkpt lat="43.163405" lon="2.2095917"><ele>411.0</ele><time>2026-03-22T14:45:57.674Z</time></trkpt><trkpt lat="43.1634617" lon="2.20977"><ele>411.25</ele><time>2026-03-22T14:45:58.674Z</time></trkpt><trkpt lat="43.1635167" lon="2.2099533"><ele>411.5</ele><time>2026-03-22T14:45:59.675Z</time></trkpt><trkpt lat="43.16356" lon="2.2101317"><ele>411.75</ele><time>2026-03-22T14:46:00.674Z</time></trkpt><trkpt lat="43.163585" lon="2.210305"><ele>412.0</ele><time>2026-03-22T14:46:01.675Z</time></trkpt><trkpt lat="43.163595" lon="2.2104783"><ele>412.0</ele><time>2026-03-22T14:46:02.673Z</time></trkpt><trkpt lat="43.1635783" lon="2.210645"><ele>412.0</ele><time>2026-03-22T14:46:03.675Z</time></trkpt><trkpt lat="43.1635383" lon="2.2107967"><ele>412.0</ele><time>2026-03-22T14:46:04.672Z</time></trkpt><trkpt lat="43.1634633" lon="2.21091"><ele>412.0</ele><time>2026-03-22T14:46:05.674Z</time></trkpt><trkpt lat="43.16336" lon="2.2109667"><ele>412.5</ele><time>2026-03-22T14:46:06.675Z</time></trkpt><trkpt lat="43.1632367" lon="2.2109583"><ele>413.0</ele><time>2026-03-22T14:46:07.673Z</time></trkpt><trkpt lat="43.163105" lon="2.2109033"><ele>413.5</ele><time>2026-03-22T14:46:08.673Z</time></trkpt><trkpt lat="43.1629683" lon="2.21083"><ele>414.0</ele><time>2026-03-22T14:46:09.672Z</time></trkpt><trkpt lat="43.16283" lon="2.210755"><ele>415.33333333333337</ele><time>2026-03-22T14:46:10.674Z</time></trkpt><trkpt lat="43.1626883" lon="2.2106767"><ele>416.6666666666667</ele><time>2026-03-22T14:46:11.674Z</time></trkpt><trkpt lat="43.1625433" lon="2.2105983"><ele>418.0</ele><time>2026-03-22T14:46:12.673Z</time></trkpt><trkpt lat="43.1623933" lon="2.2105117"><ele>416.6666666666667</ele><time>2026-03-22T14:46:13.674Z</time></trkpt><trkpt lat="43.1622433" lon="2.2104267"><ele>415.33333333333337</ele><time>2026-03-22T14:46:14.674Z</time></trkpt><trkpt lat="43.16209" lon="2.2103517"><ele>414.0</ele><time>2026-03-22T14:46:15.673Z</time></trkpt><trkpt lat="43.1619483" lon="2.2102833"><ele>414.0</ele><time>2026-03-22T14:46:16.673Z</time></trkpt><trkpt lat="43.1618183" lon="2.210215"><ele>414.0</ele><time>2026-03-22T14:46:17.673Z</time></trkpt><trkpt lat="43.1617033" lon="2.21014"><ele>414.0</ele><time>2026-03-22T14:46:18.672Z</time></trkpt><trkpt lat="43.161585" lon="2.2100717"><ele>414.0</ele><time>2026-03-22T14:46:19.672Z</time></trkpt><trkpt lat="43.161465" lon="2.2100117"><ele>413.6</ele><time>2026-03-22T14:46:20.677Z</time></trkpt><trkpt lat="43.16135" lon="2.2099533"><ele>413.2</ele><time>2026-03-22T14:46:21.672Z</time></trkpt><trkpt lat="43.161245" lon="2.2099117"><ele>412.8</ele><time>2026-03-22T14:46:22.673Z</time></trkpt><trkpt lat="43.1611533" lon="2.2099017"><ele>412.40000000000003</ele><time>2026-03-22T14:46:23.674Z</time></trkpt><trkpt lat="43.161065" lon="2.2099117"><ele>412.0</ele><time>2026-03-22T14:46:24.675Z</time></trkpt><trkpt lat="43.16098" lon="2.2099267"><ele>412.00000000000006</ele><time>2026-03-22T14:46:25.677Z</time></trkpt><trkpt lat="43.1608983" lon="2.2099317"><ele>412.0</ele><time>2026-03-22T14:46:26.673Z</time></trkpt><trkpt lat="43.1608183" lon="2.2099133"><ele>412.0</ele><time>2026-03-22T14:46:27.674Z</time></trkpt><trkpt lat="43.16073" lon="2.2098833"><ele>412.0</ele><time>2026-03-22T14:46:28.674Z</time></trkpt><trkpt lat="43.16064" lon="2.2098483"><ele>412.00000000000006</ele><time>2026-03-22T14:46:29.672Z</time></trkpt><trkpt lat="43.1605533" lon="2.2098133"><ele>412.0</ele><time>2026-03-22T14:46:30.673Z</time></trkpt><trkpt lat="43.1604567" lon="2.2097967"><ele>413.5</ele><time>2026-03-22T14:46:31.673Z</time></trkpt><trkpt lat="43.160345" lon="2.2098017"><ele>415.0</ele><time>2026-03-22T14:46:32.674Z</time></trkpt><trkpt lat="43.1602267" lon="2.2098017"><ele>416.5</ele><time>2026-03-22T14:46:33.672Z</time></trkpt><trkpt lat="43.1601" lon="2.209805"><ele>418.0</ele><time>2026-03-22T14:46:34.674Z</time></trkpt><trkpt lat="43.1599783" lon="2.2098083"><ele>418.00000000000006</ele><time>2026-03-22T14:46:35.675Z</time></trkpt><trkpt lat="43.1598717" lon="2.2098067"><ele>418.0</ele><time>2026-03-22T14:46:36.675Z</time></trkpt><trkpt lat="43.1597867" lon="2.2097983"><ele>418.0</ele><time>2026-03-22T14:46:37.673Z</time></trkpt><trkpt lat="43.1597233" lon="2.2097833"><ele>418.0</ele><time>2026-03-22T14:46:38.673Z</time></trkpt><trkpt lat="43.1596333" lon="2.2097883"><ele>418.00000000000006</ele><time>2026-03-22T14:46:40.673Z</time></trkpt><trkpt lat="43.1595633" lon="2.2098533"><ele>418.0</ele><time>2026-03-22T14:46:42.676Z</time></trkpt><trkpt lat="43.159495" lon="2.2098867"><ele>417.6666666666667</ele><time>2026-03-22T14:46:44.675Z</time></trkpt><trkpt lat="43.1594117" lon="2.2099017"><ele>417.33333333333337</ele><time>2026-03-22T14:46:46.674Z</time></trkpt><trkpt lat="43.1593117" lon="2.2099383"><ele>417.0</ele><time>2026-03-22T14:46:48.674Z</time></trkpt><trkpt lat="43.1592533" lon="2.20999"><ele>416.66666666666663</ele><time>2026-03-22T14:46:49.673Z</time></trkpt><trkpt lat="43.1591933" lon="2.2100633"><ele>416.3333333333333</ele><time>2026-03-22T14:46:50.678Z</time></trkpt><trkpt lat="43.1591267" lon="2.210135"><ele>416.0</ele><time>2026-03-22T14:46:51.673Z</time></trkpt><trkpt lat="43.1590683" lon="2.2101867"><ele>415.99999999999994</ele><time>2026-03-22T14:46:52.675Z</time></trkpt><trkpt lat="43.158995" lon="2.2102183"><ele>416.0</ele><time>2026-03-22T14:46:54.673Z</time></trkpt><trkpt lat="43.1590533" lon="2.21015"><ele>416.0</ele><time>2026-03-22T14:46:57.676Z</time></trkpt><trkpt lat="43.1591467" lon="2.2101383"><ele>416.0</ele><time>2026-03-22T14:46:59.676Z</time></trkpt><trkpt lat="43.1592017" lon="2.210185"><ele>415.99999999999994</ele><time>2026-03-22T14:47:01.673Z</time></trkpt><trkpt lat="43.1592333" lon="2.2102933"><ele>416.0</ele><time>2026-03-22T14:47:04.676Z</time></trkpt><trkpt lat="43.1592417" lon="2.21041"><ele>415.99999999999994</ele><time>2026-03-22T14:47:08.676Z</time></trkpt><trkpt lat="43.15922" lon="2.210505"><ele>416.0</ele><time>2026-03-22T14:47:10.674Z</time></trkpt><trkpt lat="43.1591717" lon="2.2105633"><ele>416.0</ele><time>2026-03-22T14:47:11.676Z</time></trkpt><trkpt lat="43.159095" lon="2.2106733"><ele>416.0</ele><time>2026-03-22T14:47:13.675Z</time></trkpt><trkpt lat="43.159075" lon="2.210795"><ele>415.99999999999994</ele><time>2026-03-22T14:47:15.674Z</time></trkpt><trkpt lat="43.1591483" lon="2.210815"><ele>416.0</ele><time>2026-03-22T14:47:17.675Z</time></trkpt><trkpt lat="43.1591833" lon="2.2107333"><ele>415.99999999999994</ele><time>2026-03-22T14:47:19.675Z</time></trkpt><trkpt lat="43.1591667" lon="2.2106267"><ele>416.0</ele><time>2026-03-22T14:47:21.676Z</time></trkpt><trkpt lat="43.159175" lon="2.2105117"><ele>416.0</ele><time>2026-03-22T14:47:23.676Z</time></trkpt><trkpt lat="43.1591867" lon="2.210415"><ele>416.0</ele><time>2026-03-22T14:47:25.673Z</time></trkpt><trkpt lat="43.1592" lon="2.210295"><ele>415.99999999999994</ele><time>2026-03-22T14:47:28.674Z</time></trkpt><trkpt lat="43.1592017" lon="2.2101833"><ele>416.0</ele><time>2026-03-22T14:47:31.673Z</time></trkpt><trkpt lat="43.1590983" lon="2.210175"><ele>417.0</ele><time>2026-03-22T14:47:34.674Z</time></trkpt><trkpt lat="43.1589417" lon="2.2102167"><ele>418.0</ele><time>2026-03-22T14:47:36.674Z</time></trkpt><trkpt lat="43.1588483" lon="2.2101917"><ele>419.0</ele><time>2026-03-22T14:47:37.673Z</time></trkpt><trkpt lat="43.1587417" lon="2.2101233"><ele>420.0</ele><time>2026-03-22T14:47:38.673Z</time></trkpt><trkpt lat="43.1586333" lon="2.2100417"><ele>420.0</ele><time>2026-03-22T14:47:39.674Z</time></trkpt><trkpt lat="43.1585233" lon="2.2099583"><ele>420.0</ele><time>2026-03-22T14:47:40.674Z</time></trkpt><trkpt lat="43.158405" lon="2.2098783"><ele>420.0</ele><time>2026-03-22T14:47:41.676Z</time></trkpt><trkpt lat="43.1582733" lon="2.209795"><ele>420.0</ele><time>2026-03-22T14:47:42.673Z</time></trkpt><trkpt lat="43.1581433" lon="2.2097217"><ele>419.5</ele><time>2026-03-22T14:47:43.673Z</time></trkpt><trkpt lat="43.158005" lon="2.2096433"><ele>419.0</ele><time>2026-03-22T14:47:44.675Z</time></trkpt><trkpt lat="43.1578717" lon="2.2095617"><ele>418.5</ele><time>2026-03-22T14:47:45.673Z</time></trkpt><trkpt lat="43.1577483" lon="2.2094817"><ele>418.0</ele><time>2026-03-22T14:47:46.673Z</time></trkpt><trkpt lat="43.15765" lon="2.2094117"><ele>418.0</ele><time>2026-03-22T14:47:47.674Z</time></trkpt><trkpt lat="43.1575733" lon="2.2093467"><ele>418.0</ele><time>2026-03-22T14:47:48.673Z</time></trkpt><trkpt lat="43.1575133" lon="2.20929"><ele>418.0</ele><time>2026-03-22T14:47:49.674Z</time></trkpt><trkpt lat="43.1573767" lon="2.2092483"><ele>418.0</ele><time>2026-03-22T14:47:51.677Z</time></trkpt><trkpt lat="43.1572683" lon="2.2092283"><ele>418.0</ele><time>2026-03-22T14:47:52.674Z</time></trkpt><trkpt lat="43.157135" lon="2.2092017"><ele>417.75</ele><time>2026-03-22T14:47:53.676Z</time></trkpt><trkpt lat="43.1569933" lon="2.20917"><ele>417.5</ele><time>2026-03-22T14:47:54.673Z</time></trkpt><trkpt lat="43.156855" lon="2.209135"><ele>417.25</ele><time>2026-03-22T14:47:55.676Z</time></trkpt><trkpt lat="43.1567233" lon="2.209085"><ele>417.0</ele><time>2026-03-22T14:47:56.673Z</time></trkpt><trkpt lat="43.1566033" lon="2.209025"><ele>416.40000000000003</ele><time>2026-03-22T14:47:57.672Z</time></trkpt><trkpt lat="43.1564967" lon="2.20897"><ele>415.8</ele><time>2026-03-22T14:47:58.673Z</time></trkpt><trkpt lat="43.156405" lon="2.20892"><ele>415.2</ele><time>2026-03-22T14:47:59.672Z</time></trkpt><trkpt lat="43.1563333" lon="2.2088733"><ele>414.6</ele><time>2026-03-22T14:48:00.674Z</time></trkpt><trkpt lat="43.1562433" lon="2.2088433"><ele>414.0</ele><time>2026-03-22T14:48:02.674Z</time></trkpt><trkpt lat="43.15621" lon="2.2089383"><ele>413.0</ele><time>2026-03-22T14:48:05.672Z</time></trkpt><trkpt lat="43.1562317" lon="2.209045"><ele>412.0</ele><time>2026-03-22T14:48:09.674Z</time></trkpt><trkpt lat="43.1562983" lon="2.209115"><ele>411.0</ele><time>2026-03-22T14:48:11.673Z</time></trkpt><trkpt lat="43.156365" lon="2.2092567"><ele>410.0</ele><time>2026-03-22T14:48:13.673Z</time></trkpt><trkpt lat="43.1564" lon="2.2093583"><ele>409.0</ele><time>2026-03-22T14:48:14.675Z</time></trkpt><trkpt lat="43.1564367" lon="2.2094667"><ele>409.00000000000006</ele><time>2026-03-22T14:48:15.675Z</time></trkpt><trkpt lat="43.1564783" lon="2.2095783"><ele>409.0</ele><time>2026-03-22T14:48:16.676Z</time></trkpt><trkpt lat="43.1565233" lon="2.20968"><ele>409.0</ele><time>2026-03-22T14:48:17.674Z</time></trkpt><trkpt lat="43.1565683" lon="2.2097717"><ele>409.0</ele><time>2026-03-22T14:48:18.675Z</time></trkpt><trkpt lat="43.15662" lon="2.2098583"><ele>409.00000000000006</ele><time>2026-03-22T14:48:19.677Z</time></trkpt><trkpt lat="43.15668" lon="2.2099417"><ele>409.0</ele><time>2026-03-22T14:48:20.675Z</time></trkpt><trkpt lat="43.1567467" lon="2.2100267"><ele>412.2</ele><time>2026-03-22T14:48:21.675Z</time></trkpt><trkpt lat="43.156815" lon="2.2101183"><ele>415.4</ele><time>2026-03-22T14:48:22.677Z</time></trkpt><trkpt lat="43.1568767" lon="2.21021"><ele>418.6</ele><time>2026-03-22T14:48:23.676Z</time></trkpt><trkpt lat="43.156935" lon="2.2103"><ele>421.8</ele><time>2026-03-22T14:48:24.675Z</time></trkpt><trkpt lat="43.1569817" lon="2.2103833"><ele>425.0</ele><time>2026-03-22T14:48:25.675Z</time></trkpt><trkpt lat="43.157015" lon="2.2105267"><ele>424.99999999999994</ele><time>2026-03-22T14:48:27.674Z</time></trkpt><trkpt lat="43.1570283" lon="2.2106617"><ele>425.0</ele><time>2026-03-22T14:48:29.676Z</time></trkpt><trkpt lat="43.15709" lon="2.2106883"><ele>425.0</ele><time>2026-03-22T14:48:32.674Z</time></trkpt><trkpt lat="43.1571083" lon="2.2105983"><ele>425.0</ele><time>2026-03-22T14:48:34.673Z</time></trkpt><trkpt lat="43.1570567" lon="2.2104967"><ele>424.99999999999994</ele><time>2026-03-22T14:51:35.675Z</time></trkpt><trkpt lat="43.1571167" lon="2.210585"><ele>425.0</ele><time>2026-03-22T14:53:47.676Z</time></trkpt><trkpt lat="43.1570567" lon="2.210655"><ele>424.99999999999994</ele><time>2026-03-22T14:53:50.677Z</time></trkpt><trkpt lat="43.1570117" lon="2.2105783"><ele>425.0</ele><time>2026-03-22T14:53:53.675Z</time></trkpt><trkpt lat="43.157015" lon="2.2104917"><ele>425.0</ele><time>2026-03-22T14:53:55.674Z</time></trkpt><trkpt lat="43.1570317" lon="2.2104083"><ele>425.0</ele><time>2026-03-22T14:53:57.673Z</time></trkpt><trkpt lat="43.1570267" lon="2.2102767"><ele>424.99999999999994</ele><time>2026-03-22T14:54:00.675Z</time></trkpt><trkpt lat="43.1570067" lon="2.2101383"><ele>425.0</ele><time>2026-03-22T14:54:02.674Z</time></trkpt><trkpt lat="43.1569633" lon="2.210005"><ele>425.0</ele><time>2026-03-22T14:54:04.673Z</time></trkpt><trkpt lat="43.1568717" lon="2.2099283"><ele>425.0</ele><time>2026-03-22T14:54:06.674Z</time></trkpt><trkpt lat="43.1567767" lon="2.2098983"><ele>425.0</ele><time>2026-03-22T14:54:08.674Z</time></trkpt><trkpt lat="43.1566633" lon="2.2098867"><ele>425.0</ele><time>2026-03-22T14:54:10.674Z</time></trkpt><trkpt lat="43.1565633" lon="2.2098267"><ele>425.0</ele><time>2026-03-22T14:54:12.674Z</time></trkpt><trkpt lat="43.15649" lon="2.2096833"><ele>422.3333333333333</ele><time>2026-03-22T14:54:14.673Z</time></trkpt><trkpt lat="43.1564583" lon="2.2095983"><ele>419.66666666666663</ele><time>2026-03-22T14:54:15.676Z</time></trkpt><trkpt lat="43.15643" lon="2.2095133"><ele>417.0</ele><time>2026-03-22T14:54:16.675Z</time></trkpt><trkpt lat="43.156405" lon="2.2094283"><ele>414.33333333333337</ele><time>2026-03-22T14:54:17.674Z</time></trkpt><trkpt lat="43.156385" lon="2.209345"><ele>411.6666666666667</ele><time>2026-03-22T14:54:18.676Z</time></trkpt><trkpt lat="43.156355" lon="2.209215"><ele>409.0</ele><time>2026-03-22T14:54:20.673Z</time></trkpt><trkpt lat="43.1563283" lon="2.2091083"><ele>409.0</ele><time>2026-03-22T14:54:22.677Z</time></trkpt><trkpt lat="43.1562817" lon="2.2090483"><ele>409.0</ele><time>2026-03-22T14:54:23.674Z</time></trkpt><trkpt lat="43.156205" lon="2.2089917"><ele>409.0</ele><time>2026-03-22T14:54:24.673Z</time></trkpt><trkpt lat="43.156115" lon="2.20892"><ele>409.0</ele><time>2026-03-22T14:54:25.675Z</time></trkpt><trkpt lat="43.1560367" lon="2.208825"><ele>409.0</ele><time>2026-03-22T14:54:26.674Z</time></trkpt><trkpt lat="43.1559617" lon="2.2087117"><ele>410.25</ele><time>2026-03-22T14:54:27.676Z</time></trkpt><trkpt lat="43.155895" lon="2.2085717"><ele>411.5</ele><time>2026-03-22T14:54:28.673Z</time></trkpt><trkpt lat="43.155835" lon="2.2084133"><ele>412.75</ele><time>2026-03-22T14:54:29.673Z</time></trkpt><trkpt lat="43.155775" lon="2.208245"><ele>414.0</ele><time>2026-03-22T14:54:30.673Z</time></trkpt><trkpt lat="43.1557167" lon="2.2080667"><ele>410.75</ele><time>2026-03-22T14:54:31.674Z</time></trkpt><trkpt lat="43.1556567" lon="2.207885"><ele>407.5</ele><time>2026-03-22T14:54:32.675Z</time></trkpt><trkpt lat="43.155595" lon="2.2077017"><ele>404.25</ele><time>2026-03-22T14:54:33.676Z</time></trkpt><trkpt lat="43.1555333" lon="2.2075183"><ele>401.0</ele><time>2026-03-22T14:54:34.674Z</time></trkpt><trkpt lat="43.1554717" lon="2.2073417"><ele>402.5</ele><time>2026-03-22T14:54:35.673Z</time></trkpt><trkpt lat="43.1554083" lon="2.20717"><ele>404.0</ele><time>2026-03-22T14:54:36.675Z</time></trkpt><trkpt lat="43.1553383" lon="2.2070017"><ele>405.5</ele><time>2026-03-22T14:54:37.675Z</time></trkpt><trkpt lat="43.155255" lon="2.2068433"><ele>407.0</ele><time>2026-03-22T14:54:38.673Z</time></trkpt><trkpt lat="43.1551517" lon="2.206705"><ele>407.0</ele><time>2026-03-22T14:54:39.675Z</time></trkpt><trkpt lat="43.155035" lon="2.2065867"><ele>407.0</ele><time>2026-03-22T14:54:40.674Z</time></trkpt><trkpt lat="43.1549133" lon="2.2064867"><ele>407.0</ele><time>2026-03-22T14:54:41.673Z</time></trkpt><trkpt lat="43.154775" lon="2.206405"><ele>407.0</ele><time>2026-03-22T14:54:42.673Z</time></trkpt><trkpt lat="43.1546367" lon="2.206335"><ele>406.25</ele><time>2026-03-22T14:54:43.674Z</time></trkpt><trkpt lat="43.1545083" lon="2.2062517"><ele>405.5</ele><time>2026-03-22T14:54:44.678Z</time></trkpt><trkpt lat="43.15439" lon="2.20615"><ele>404.75</ele><time>2026-03-22T14:54:45.675Z</time></trkpt><trkpt lat="43.1542817" lon="2.206025"><ele>404.0</ele><time>2026-03-22T14:54:46.675Z</time></trkpt><trkpt lat="43.15419" lon="2.205875"><ele>404.0</ele><time>2026-03-22T14:54:47.673Z</time></trkpt><trkpt lat="43.1541117" lon="2.205705"><ele>404.0</ele><time>2026-03-22T14:54:48.673Z</time></trkpt><trkpt lat="43.1540517" lon="2.2055233"><ele>404.0</ele><time>2026-03-22T14:54:49.673Z</time></trkpt><trkpt lat="43.154015" lon="2.2053367"><ele>404.0</ele><time>2026-03-22T14:54:50.674Z</time></trkpt><trkpt lat="43.1540033" lon="2.205145"><ele>402.75</ele><time>2026-03-22T14:54:51.675Z</time></trkpt><trkpt lat="43.1540117" lon="2.204955"><ele>401.5</ele><time>2026-03-22T14:54:52.673Z</time></trkpt><trkpt lat="43.1540417" lon="2.2047683"><ele>400.25</ele><time>2026-03-22T14:54:53.676Z</time></trkpt><trkpt lat="43.154095" lon="2.2045933"><ele>399.0</ele><time>2026-03-22T14:54:54.673Z</time></trkpt><trkpt lat="43.154165" lon="2.2044333"><ele>399.0</ele><time>2026-03-22T14:54:55.676Z</time></trkpt><trkpt lat="43.1542433" lon="2.2042767"><ele>399.0</ele><time>2026-03-22T14:54:56.675Z</time></trkpt><trkpt lat="43.1543133" lon="2.2041167"><ele>399.0</ele><time>2026-03-22T14:54:57.674Z</time></trkpt><trkpt lat="43.1543517" lon="2.2039467"><ele>399.0</ele><time>2026-03-22T14:54:58.674Z</time></trkpt><trkpt lat="43.1543467" lon="2.2037667"><ele>399.5</ele><time>2026-03-22T14:54:59.673Z</time></trkpt><trkpt lat="43.1542883" lon="2.203605"><ele>400.0</ele><time>2026-03-22T14:55:00.675Z</time></trkpt><trkpt lat="43.1542" lon="2.203465"><ele>400.5</ele><time>2026-03-22T14:55:01.673Z</time></trkpt><trkpt lat="43.1540783" lon="2.2033567"><ele>401.0</ele><time>2026-03-22T14:55:02.673Z</time></trkpt><trkpt lat="43.1539483" lon="2.2032633"><ele>399.0</ele><time>2026-03-22T14:55:03.674Z</time></trkpt><trkpt lat="43.15381" lon="2.203195"><ele>397.0</ele><time>2026-03-22T14:55:04.673Z</time></trkpt><trkpt lat="43.1536733" lon="2.2031583"><ele>395.0</ele><time>2026-03-22T14:55:05.673Z</time></trkpt><trkpt lat="43.1535483" lon="2.2031233"><ele>393.0</ele><time>2026-03-22T14:55:06.674Z</time></trkpt><trkpt lat="43.1534333" lon="2.2030683"><ele>393.0</ele><time>2026-03-22T14:55:07.674Z</time></trkpt><trkpt lat="43.1533367" lon="2.2029883"><ele>393.0</ele><time>2026-03-22T14:55:08.673Z</time></trkpt><trkpt lat="43.15327" lon="2.2028667"><ele>393.0</ele><time>2026-03-22T14:55:09.674Z</time></trkpt><trkpt lat="43.15324" lon="2.2027117"><ele>393.0</ele><time>2026-03-22T14:55:10.675Z</time></trkpt><trkpt lat="43.1532567" lon="2.202535"><ele>393.0</ele><time>2026-03-22T14:55:11.673Z</time></trkpt><trkpt lat="43.1532917" lon="2.2023533"><ele>393.0</ele><time>2026-03-22T14:55:12.673Z</time></trkpt><trkpt lat="43.153335" lon="2.2021733"><ele>393.0</ele><time>2026-03-22T14:55:13.673Z</time></trkpt><trkpt lat="43.1533883" lon="2.2019883"><ele>393.0</ele><time>2026-03-22T14:55:14.674Z</time></trkpt><trkpt lat="43.1534633" lon="2.2018"><ele>391.75</ele><time>2026-03-22T14:55:15.674Z</time></trkpt><trkpt lat="43.15354" lon="2.201625"><ele>390.5</ele><time>2026-03-22T14:55:16.673Z</time></trkpt><trkpt lat="43.153605" lon="2.2014417"><ele>389.25</ele><time>2026-03-22T14:55:17.674Z</time></trkpt><trkpt lat="43.1536433" lon="2.2012467"><ele>388.0</ele><time>2026-03-22T14:55:18.675Z</time></trkpt><trkpt lat="43.1536617" lon="2.2010467"><ele>386.0</ele><time>2026-03-22T14:55:19.673Z</time></trkpt><trkpt lat="43.1536667" lon="2.2008433"><ele>384.0</ele><time>2026-03-22T14:55:20.675Z</time></trkpt><trkpt lat="43.1536633" lon="2.200635"><ele>382.0</ele><time>2026-03-22T14:55:21.676Z</time></trkpt><trkpt lat="43.1536517" lon="2.200425"><ele>380.3333333333333</ele><time>2026-03-22T14:55:22.676Z</time></trkpt><trkpt lat="43.1536383" lon="2.2002133"><ele>378.6666666666667</ele><time>2026-03-22T14:55:23.675Z</time></trkpt><trkpt lat="43.1536267" lon="2.2000033"><ele>377.0</ele><time>2026-03-22T14:55:24.677Z</time></trkpt><trkpt lat="43.1536133" lon="2.1997883"><ele>377.0</ele><time>2026-03-22T14:55:25.674Z</time></trkpt><trkpt lat="43.1536017" lon="2.1995767"><ele>377.0</ele><time>2026-03-22T14:55:26.675Z</time></trkpt><trkpt lat="43.1535933" lon="2.19937"><ele>377.0</ele><time>2026-03-22T14:55:27.675Z</time></trkpt><trkpt lat="43.15358" lon="2.1991617"><ele>376.6666666666667</ele><time>2026-03-22T14:55:28.676Z</time></trkpt><trkpt lat="43.1535717" lon="2.19895"><ele>376.3333333333333</ele><time>2026-03-22T14:55:29.675Z</time></trkpt><trkpt lat="43.15356" lon="2.1987367"><ele>376.0</ele><time>2026-03-22T14:55:30.673Z</time></trkpt><trkpt lat="43.1535517" lon="2.19852"><ele>376.0</ele><time>2026-03-22T14:55:31.674Z</time></trkpt><trkpt lat="43.1535417" lon="2.1983017"><ele>376.0</ele><time>2026-03-22T14:55:32.674Z</time></trkpt><trkpt lat="43.1535333" lon="2.1980833"><ele>376.0</ele><time>2026-03-22T14:55:33.674Z</time></trkpt><trkpt lat="43.1535283" lon="2.1978683"><ele>375.0</ele><time>2026-03-22T14:55:34.673Z</time></trkpt><trkpt lat="43.1535267" lon="2.1976517"><ele>374.0</ele><time>2026-03-22T14:55:35.675Z</time></trkpt><trkpt lat="43.1535333" lon="2.19744"><ele>373.0</ele><time>2026-03-22T14:55:36.676Z</time></trkpt><trkpt lat="43.153555" lon="2.1972367"><ele>372.25</ele><time>2026-03-22T14:55:37.674Z</time></trkpt><trkpt lat="43.153585" lon="2.1970417"><ele>371.5</ele><time>2026-03-22T14:55:38.675Z</time></trkpt><trkpt lat="43.15362" lon="2.1968533"><ele>370.75</ele><time>2026-03-22T14:55:39.675Z</time></trkpt><trkpt lat="43.1536417" lon="2.1966683"><ele>370.0</ele><time>2026-03-22T14:55:40.675Z</time></trkpt><trkpt lat="43.15364" lon="2.1964783"><ele>370.0</ele><time>2026-03-22T14:55:41.674Z</time></trkpt><trkpt lat="43.1536033" lon="2.1962917"><ele>370.0</ele><time>2026-03-22T14:55:42.675Z</time></trkpt><trkpt lat="43.1535467" lon="2.1961217"><ele>370.0</ele><time>2026-03-22T14:55:43.674Z</time></trkpt><trkpt lat="43.1534983" lon="2.1959533"><ele>370.0</ele><time>2026-03-22T14:55:44.674Z</time></trkpt><trkpt lat="43.1534633" lon="2.1957833"><ele>369.0</ele><time>2026-03-22T14:55:45.674Z</time></trkpt><trkpt lat="43.1534533" lon="2.1956083"><ele>368.0</ele><time>2026-03-22T14:55:46.674Z</time></trkpt><trkpt lat="43.1534783" lon="2.1954383"><ele>367.0</ele><time>2026-03-22T14:55:47.674Z</time></trkpt><trkpt lat="43.1535167" lon="2.1952667"><ele>366.0</ele><time>2026-03-22T14:55:48.674Z</time></trkpt><trkpt lat="43.1535567" lon="2.1950883"><ele>366.0</ele><time>2026-03-22T14:55:49.673Z</time></trkpt><trkpt lat="43.15358" lon="2.1948917"><ele>366.0</ele><time>2026-03-22T14:55:50.676Z</time></trkpt><trkpt lat="43.153595" lon="2.1946883"><ele>366.0</ele><time>2026-03-22T14:55:51.674Z</time></trkpt><trkpt lat="43.1536033" lon="2.1944783"><ele>366.0</ele><time>2026-03-22T14:55:52.675Z</time></trkpt><trkpt lat="43.1536067" lon="2.1942633"><ele>365.6666666666667</ele><time>2026-03-22T14:55:53.673Z</time></trkpt><trkpt lat="43.1536083" lon="2.1940433"><ele>365.33333333333337</ele><time>2026-03-22T14:55:54.673Z</time></trkpt><trkpt lat="43.1536067" lon="2.1938183"><ele>365.0</ele><time>2026-03-22T14:55:55.673Z</time></trkpt><trkpt lat="43.153605" lon="2.1935917"><ele>365.0</ele><time>2026-03-22T14:55:56.674Z</time></trkpt><trkpt lat="43.153605" lon="2.1933617"><ele>365.0</ele><time>2026-03-22T14:55:57.674Z</time></trkpt><trkpt lat="43.1536183" lon="2.1931367"><ele>365.0</ele><time>2026-03-22T14:55:58.673Z</time></trkpt><trkpt lat="43.1536517" lon="2.19292"><ele>367.0</ele><time>2026-03-22T14:55:59.673Z</time></trkpt><trkpt lat="43.1536967" lon="2.1927133"><ele>369.0</ele><time>2026-03-22T14:56:00.674Z</time></trkpt><trkpt lat="43.1537567" lon="2.192525"><ele>371.0</ele><time>2026-03-22T14:56:01.673Z</time></trkpt><trkpt lat="43.1538183" lon="2.1923433"><ele>370.5</ele><time>2026-03-22T14:56:02.673Z</time></trkpt><trkpt lat="43.1538517" lon="2.1921533"><ele>370.0</ele><time>2026-03-22T14:56:03.673Z</time></trkpt><trkpt lat="43.1538717" lon="2.19195"><ele>369.5</ele><time>2026-03-22T14:56:04.673Z</time></trkpt><trkpt lat="43.153875" lon="2.1917517"><ele>369.0</ele><time>2026-03-22T14:56:05.673Z</time></trkpt><trkpt lat="43.153865" lon="2.1915617"><ele>368.25</ele><time>2026-03-22T14:56:06.674Z</time></trkpt><trkpt lat="43.1538333" lon="2.1913817"><ele>367.5</ele><time>2026-03-22T14:56:07.676Z</time></trkpt><trkpt lat="43.1537967" lon="2.1912067"><ele>366.75</ele><time>2026-03-22T14:56:08.675Z</time></trkpt><trkpt lat="43.15376" lon="2.1910317"><ele>366.0</ele><time>2026-03-22T14:56:09.675Z</time></trkpt><trkpt lat="43.1536933" lon="2.1908317"><ele>366.0</ele><time>2026-03-22T14:56:10.673Z</time></trkpt><trkpt lat="43.153645" lon="2.1906817"><ele>366.0</ele><time>2026-03-22T14:56:11.673Z</time></trkpt><trkpt lat="43.1535983" lon="2.1905417"><ele>366.0</ele><time>2026-03-22T14:56:12.674Z</time></trkpt><trkpt lat="43.1535517" lon="2.1903883"><ele>366.0</ele><time>2026-03-22T14:56:13.674Z</time></trkpt><trkpt lat="43.1535083" lon="2.1902167"><ele>365.75</ele><time>2026-03-22T14:56:14.674Z</time></trkpt><trkpt lat="43.1534567" lon="2.1900467"><ele>365.5</ele><time>2026-03-22T14:56:15.675Z</time></trkpt><trkpt lat="43.1533933" lon="2.1898783"><ele>365.25</ele><time>2026-03-22T14:56:16.675Z</time></trkpt><trkpt lat="43.1533233" lon="2.189715"><ele>365.0</ele><time>2026-03-22T14:56:17.673Z</time></trkpt><trkpt lat="43.15325" lon="2.1895533"><ele>365.75</ele><time>2026-03-22T14:56:18.675Z</time></trkpt><trkpt lat="43.153185" lon="2.1893967"><ele>366.5</ele><time>2026-03-22T14:56:19.674Z</time></trkpt><trkpt lat="43.1531033" lon="2.18924"><ele>367.25</ele><time>2026-03-22T14:56:20.675Z</time></trkpt><trkpt lat="43.1530183" lon="2.189085"><ele>368.0</ele><time>2026-03-22T14:56:21.673Z</time></trkpt><trkpt lat="43.15293" lon="2.188935"><ele>368.0</ele><time>2026-03-22T14:56:22.673Z</time></trkpt><trkpt lat="43.15284" lon="2.1887967"><ele>368.0</ele><time>2026-03-22T14:56:23.674Z</time></trkpt><trkpt lat="43.1527433" lon="2.1886717"><ele>368.0</ele><time>2026-03-22T14:56:24.674Z</time></trkpt><trkpt lat="43.152635" lon="2.1885583"><ele>368.0</ele><time>2026-03-22T14:56:25.673Z</time></trkpt><trkpt lat="43.1525183" lon="2.188455"><ele>368.0</ele><time>2026-03-22T14:56:26.673Z</time></trkpt><trkpt lat="43.1523917" lon="2.18836"><ele>368.0</ele><time>2026-03-22T14:56:27.673Z</time></trkpt><trkpt lat="43.1522683" lon="2.188265"><ele>368.0</ele><time>2026-03-22T14:56:28.675Z</time></trkpt><trkpt lat="43.15214" lon="2.188165"><ele>368.0</ele><time>2026-03-22T14:56:29.674Z</time></trkpt><trkpt lat="43.1520183" lon="2.1880567"><ele>368.5</ele><time>2026-03-22T14:56:30.675Z</time></trkpt><trkpt lat="43.1518983" lon="2.18794"><ele>369.0</ele><time>2026-03-22T14:56:31.675Z</time></trkpt><trkpt lat="43.1517817" lon="2.1878133"><ele>369.5</ele><time>2026-03-22T14:56:32.675Z</time></trkpt><trkpt lat="43.1516633" lon="2.1876833"><ele>370.0</ele><time>2026-03-22T14:56:33.673Z</time></trkpt><trkpt lat="43.15155" lon="2.1875517"><ele>369.75</ele><time>2026-03-22T14:56:34.673Z</time></trkpt><trkpt lat="43.1514433" lon="2.1874167"><ele>369.5</ele><time>2026-03-22T14:56:35.679Z</time></trkpt><trkpt lat="43.1513333" lon="2.187295"><ele>369.25</ele><time>2026-03-22T14:56:36.674Z</time></trkpt><trkpt lat="43.151225" lon="2.1871833"><ele>369.0</ele><time>2026-03-22T14:56:37.673Z</time></trkpt><trkpt lat="43.15111" lon="2.1870767"><ele>369.0</ele><time>2026-03-22T14:56:38.675Z</time></trkpt><trkpt lat="43.1509883" lon="2.18697"><ele>369.0</ele><time>2026-03-22T14:56:39.673Z</time></trkpt><trkpt lat="43.150875" lon="2.1868567"><ele>369.0</ele><time>2026-03-22T14:56:40.675Z</time></trkpt><trkpt lat="43.150765" lon="2.1867367"><ele>369.0</ele><time>2026-03-22T14:56:41.674Z</time></trkpt><trkpt lat="43.1506633" lon="2.1866117"><ele>367.75</ele><time>2026-03-22T14:56:42.675Z</time></trkpt><trkpt lat="43.150575" lon="2.1864867"><ele>366.5</ele><time>2026-03-22T14:56:43.674Z</time></trkpt><trkpt lat="43.15049" lon="2.1863617"><ele>365.25</ele><time>2026-03-22T14:56:44.678Z</time></trkpt><trkpt lat="43.1504033" lon="2.18623"><ele>364.0</ele><time>2026-03-22T14:56:45.676Z</time></trkpt><trkpt lat="43.1503283" lon="2.1860833"><ele>364.0</ele><time>2026-03-22T14:56:46.675Z</time></trkpt><trkpt lat="43.1502517" lon="2.1859333"><ele>364.0</ele><time>2026-03-22T14:56:47.675Z</time></trkpt><trkpt lat="43.150185" lon="2.185775"><ele>364.0</ele><time>2026-03-22T14:56:48.676Z</time></trkpt><trkpt lat="43.1501267" lon="2.185615"><ele>364.0</ele><time>2026-03-22T14:56:49.674Z</time></trkpt><trkpt lat="43.1500883" lon="2.1854567"><ele>364.79999999999995</ele><time>2026-03-22T14:56:50.673Z</time></trkpt><trkpt lat="43.15005" lon="2.185315"><ele>365.59999999999997</ele><time>2026-03-22T14:56:51.675Z</time></trkpt><trkpt lat="43.1500283" lon="2.1851783"><ele>366.4</ele><time>2026-03-22T14:56:52.675Z</time></trkpt><trkpt lat="43.1499933" lon="2.1850383"><ele>367.2</ele><time>2026-03-22T14:56:53.674Z</time></trkpt><trkpt lat="43.14996" lon="2.1849017"><ele>368.0</ele><time>2026-03-22T14:56:54.675Z</time></trkpt><trkpt lat="43.1499367" lon="2.1847467"><ele>368.75</ele><time>2026-03-22T14:56:55.674Z</time></trkpt><trkpt lat="43.1499033" lon="2.1845767"><ele>369.5</ele><time>2026-03-22T14:56:56.675Z</time></trkpt><trkpt lat="43.14986" lon="2.184395"><ele>370.25</ele><time>2026-03-22T14:56:57.675Z</time></trkpt><trkpt lat="43.14981" lon="2.1842033"><ele>371.0</ele><time>2026-03-22T14:56:58.674Z</time></trkpt><trkpt lat="43.1497667" lon="2.184005"><ele>364.75</ele><time>2026-03-22T14:56:59.676Z</time></trkpt><trkpt lat="43.149725" lon="2.18381"><ele>358.5</ele><time>2026-03-22T14:57:00.676Z</time></trkpt><trkpt lat="43.1496867" lon="2.1836167"><ele>352.25</ele><time>2026-03-22T14:57:01.675Z</time></trkpt><trkpt lat="43.1496517" lon="2.1834267"><ele>346.0</ele><time>2026-03-22T14:57:02.675Z</time></trkpt><trkpt lat="43.1496033" lon="2.1832483"><ele>347.75</ele><time>2026-03-22T14:57:03.674Z</time></trkpt><trkpt lat="43.14954" lon="2.1830767"><ele>349.5</ele><time>2026-03-22T14:57:04.675Z</time></trkpt><trkpt lat="43.1494683" lon="2.182905"><ele>351.25</ele><time>2026-03-22T14:57:05.676Z</time></trkpt><trkpt lat="43.1493783" lon="2.182745"><ele>353.0</ele><time>2026-03-22T14:57:06.673Z</time></trkpt><trkpt lat="43.1492833" lon="2.1826083"><ele>353.0</ele><time>2026-03-22T14:57:07.674Z</time></trkpt><trkpt lat="43.149165" lon="2.1824667"><ele>353.0</ele><time>2026-03-22T14:57:08.674Z</time></trkpt><trkpt lat="43.1490433" lon="2.182355"><ele>353.0</ele><time>2026-03-22T14:57:09.674Z</time></trkpt><trkpt lat="43.14893" lon="2.1822467"><ele>353.0</ele><time>2026-03-22T14:57:10.673Z</time></trkpt><trkpt lat="43.1488233" lon="2.18214"><ele>351.25</ele><time>2026-03-22T14:57:11.674Z</time></trkpt><trkpt lat="43.1487133" lon="2.182035"><ele>349.5</ele><time>2026-03-22T14:57:12.674Z</time></trkpt><trkpt lat="43.1485967" lon="2.1819667"><ele>347.75</ele><time>2026-03-22T14:57:13.674Z</time></trkpt><trkpt lat="43.148475" lon="2.1819283"><ele>346.0</ele><time>2026-03-22T14:57:14.675Z</time></trkpt><trkpt lat="43.148355" lon="2.1819283"><ele>346.0</ele><time>2026-03-22T14:57:15.673Z</time></trkpt><trkpt lat="43.14824" lon="2.1819483"><ele>346.0</ele><time>2026-03-22T14:57:16.674Z</time></trkpt><trkpt lat="43.1481317" lon="2.1819733"><ele>346.0</ele><time>2026-03-22T14:57:17.674Z</time></trkpt><trkpt lat="43.1480367" lon="2.1819833"><ele>346.0</ele><time>2026-03-22T14:57:18.674Z</time></trkpt><trkpt lat="43.14795" lon="2.18196"><ele>346.0</ele><time>2026-03-22T14:57:19.673Z</time></trkpt><trkpt lat="43.1478717" lon="2.1818983"><ele>343.0</ele><time>2026-03-22T14:57:20.675Z</time></trkpt><trkpt lat="43.1478483" lon="2.1817717"><ele>340.0</ele><time>2026-03-22T14:57:21.674Z</time></trkpt><trkpt lat="43.1478583" lon="2.1816267"><ele>337.0</ele><time>2026-03-22T14:57:22.673Z</time></trkpt><trkpt lat="43.14789" lon="2.1814683"><ele>334.0</ele><time>2026-03-22T14:57:23.673Z</time></trkpt><trkpt lat="43.1479217" lon="2.181305"><ele>331.0</ele><time>2026-03-22T14:57:24.673Z</time></trkpt><trkpt lat="43.1479267" lon="2.181135"><ele>330.25</ele><time>2026-03-22T14:57:25.675Z</time></trkpt><trkpt lat="43.147895" lon="2.180955"><ele>329.5</ele><time>2026-03-22T14:57:26.674Z</time></trkpt><trkpt lat="43.1478267" lon="2.18078"><ele>328.75</ele><time>2026-03-22T14:57:27.674Z</time></trkpt><trkpt lat="43.14774" lon="2.1806117"><ele>328.0</ele><time>2026-03-22T14:57:28.673Z</time></trkpt><trkpt lat="43.14765" lon="2.1804533"><ele>328.0</ele><time>2026-03-22T14:57:29.673Z</time></trkpt><trkpt lat="43.147565" lon="2.1802967"><ele>328.0</ele><time>2026-03-22T14:57:30.676Z</time></trkpt><trkpt lat="43.1474833" lon="2.18015"><ele>328.0</ele><time>2026-03-22T14:57:31.674Z</time></trkpt><trkpt lat="43.1474133" lon="2.1800167"><ele>328.0</ele><time>2026-03-22T14:57:32.674Z</time></trkpt><trkpt lat="43.14735" lon="2.1799033"><ele>328.16666666666663</ele><time>2026-03-22T14:57:33.675Z</time></trkpt><trkpt lat="43.1473" lon="2.17981"><ele>328.3333333333333</ele><time>2026-03-22T14:57:34.673Z</time></trkpt><trkpt lat="43.1472533" lon="2.179735"><ele>328.5</ele><time>2026-03-22T14:57:35.759Z</time></trkpt><trkpt lat="43.147185" lon="2.1796033"><ele>328.6666666666667</ele><time>2026-03-22T14:57:37.673Z</time></trkpt><trkpt lat="43.1471367" lon="2.1795167"><ele>328.83333333333337</ele><time>2026-03-22T14:57:39.673Z</time></trkpt><trkpt lat="43.1471367" lon="2.1794083"><ele>329.0</ele><time>2026-03-22T14:57:42.674Z</time></trkpt><trkpt lat="43.1471283" lon="2.1793117"><ele>329.0</ele><time>2026-03-22T14:57:45.678Z</time></trkpt><trkpt lat="43.14712" lon="2.1791917"><ele>329.0</ele><time>2026-03-22T14:57:48.674Z</time></trkpt><trkpt lat="43.1471133" lon="2.1790767"><ele>329.0</ele><time>2026-03-22T14:57:51.673Z</time></trkpt><trkpt lat="43.1470967" lon="2.1789583"><ele>329.0</ele><time>2026-03-22T14:57:54.674Z</time></trkpt><trkpt lat="43.14707" lon="2.1788533"><ele>329.0</ele><time>2026-03-22T14:57:56.673Z</time></trkpt><trkpt lat="43.14704" lon="2.1787083"><ele>329.1666666666667</ele><time>2026-03-22T14:57:58.673Z</time></trkpt><trkpt lat="43.1470067" lon="2.1785433"><ele>329.33333333333337</ele><time>2026-03-22T14:58:00.675Z</time></trkpt><trkpt lat="43.1469833" lon="2.1784567"><ele>329.5</ele><time>2026-03-22T14:58:01.677Z</time></trkpt><trkpt lat="43.1469583" lon="2.1783583"><ele>329.6666666666667</ele><time>2026-03-22T14:58:02.674Z</time></trkpt><trkpt lat="43.1469367" lon="2.1782583"><ele>329.8333333333333</ele><time>2026-03-22T14:58:03.674Z</time></trkpt><trkpt lat="43.1469117" lon="2.1781717"><ele>330.0</ele><time>2026-03-22T14:58:04.675Z</time></trkpt><trkpt lat="43.1468533" lon="2.1780417"><ele>329.0</ele><time>2026-03-22T14:58:06.674Z</time></trkpt><trkpt lat="43.1467733" lon="2.1779083"><ele>328.0</ele><time>2026-03-22T14:58:08.677Z</time></trkpt><trkpt lat="43.14672" lon="2.1778383"><ele>327.0</ele><time>2026-03-22T14:58:09.674Z</time></trkpt><trkpt lat="43.1466633" lon="2.17777"><ele>326.0</ele><time>2026-03-22T14:58:10.674Z</time></trkpt><trkpt lat="43.146615" lon="2.1777"><ele>325.0</ele><time>2026-03-22T14:58:11.675Z</time></trkpt><trkpt lat="43.1465717" lon="2.177625"><ele>324.0</ele><time>2026-03-22T14:58:12.675Z</time></trkpt><trkpt lat="43.1465283" lon="2.177555"><ele>325.6666666666667</ele><time>2026-03-22T14:58:13.675Z</time></trkpt><trkpt lat="43.1464867" lon="2.1774833"><ele>327.3333333333333</ele><time>2026-03-22T14:58:14.676Z</time></trkpt><trkpt lat="43.1464283" lon="2.177365"><ele>329.0</ele><time>2026-03-22T14:58:16.674Z</time></trkpt><trkpt lat="43.1463733" lon="2.1772383"><ele>330.66666666666663</ele><time>2026-03-22T14:58:18.677Z</time></trkpt><trkpt lat="43.14634" lon="2.177155"><ele>332.3333333333333</ele><time>2026-03-22T14:58:19.675Z</time></trkpt><trkpt lat="43.1463133" lon="2.1770567"><ele>334.0</ele><time>2026-03-22T14:58:20.677Z</time></trkpt><trkpt lat="43.1462867" lon="2.176945"><ele>334.0</ele><time>2026-03-22T14:58:21.675Z</time></trkpt><trkpt lat="43.1462617" lon="2.1768233"><ele>334.0</ele><time>2026-03-22T14:58:22.675Z</time></trkpt><trkpt lat="43.146235" lon="2.1767117"><ele>334.0</ele><time>2026-03-22T14:58:23.674Z</time></trkpt><trkpt lat="43.1462083" lon="2.176605"><ele>334.0</ele><time>2026-03-22T14:58:24.675Z</time></trkpt><trkpt lat="43.14617" lon="2.1764967"><ele>334.0</ele><time>2026-03-22T14:58:25.675Z</time></trkpt><trkpt lat="43.1461233" lon="2.1764083"><ele>334.0</ele><time>2026-03-22T14:58:26.676Z</time></trkpt><trkpt lat="43.14607" lon="2.1763333"><ele>333.79999999999995</ele><time>2026-03-22T14:58:27.674Z</time></trkpt><trkpt lat="43.146005" lon="2.1762833"><ele>333.59999999999997</ele><time>2026-03-22T14:58:28.673Z</time></trkpt><trkpt lat="43.1459417" lon="2.1762517"><ele>333.4</ele><time>2026-03-22T14:58:29.675Z</time></trkpt><trkpt lat="43.145825" lon="2.1762067"><ele>333.2</ele><time>2026-03-22T14:58:31.674Z</time></trkpt><trkpt lat="43.1457467" lon="2.1761767"><ele>333.0</ele><time>2026-03-22T14:58:33.674Z</time></trkpt><trkpt lat="43.1455983" lon="2.1761083"><ele>333.0</ele><time>2026-03-22T14:59:33.673Z</time></trkpt><trkpt lat="43.1455633" lon="2.1760333"><ele>333.0</ele><time>2026-03-22T14:59:36.674Z</time></trkpt><trkpt lat="43.1455333" lon="2.1759367"><ele>333.0</ele><time>2026-03-22T14:59:38.675Z</time></trkpt><trkpt lat="43.1454617" lon="2.1757967"><ele>333.0</ele><time>2026-03-22T14:59:40.676Z</time></trkpt><trkpt lat="43.1454083" lon="2.1757167"><ele>333.0</ele><time>2026-03-22T14:59:41.674Z</time></trkpt><trkpt lat="43.1453483" lon="2.1756533"><ele>333.0</ele><time>2026-03-22T14:59:42.675Z</time></trkpt><trkpt lat="43.145285" lon="2.17561"><ele>333.6666666666667</ele><time>2026-03-22T14:59:43.674Z</time></trkpt><trkpt lat="43.1452017" lon="2.17561"><ele>334.3333333333333</ele><time>2026-03-22T14:59:44.674Z</time></trkpt><trkpt lat="43.1451233" lon="2.1756"><ele>335.0</ele><time>2026-03-22T14:59:45.673Z</time></trkpt><trkpt lat="43.145035" lon="2.1756083"><ele>335.66666666666663</ele><time>2026-03-22T14:59:46.675Z</time></trkpt><trkpt lat="43.144945" lon="2.1756033"><ele>336.3333333333333</ele><time>2026-03-22T14:59:47.676Z</time></trkpt><trkpt lat="43.1448567" lon="2.17558"><ele>337.0</ele><time>2026-03-22T14:59:48.675Z</time></trkpt><trkpt lat="43.144785" lon="2.1755417"><ele>337.0</ele><time>2026-03-22T14:59:49.676Z</time></trkpt><trkpt lat="43.1447317" lon="2.1754867"><ele>337.0</ele><time>2026-03-22T14:59:50.676Z</time></trkpt><trkpt lat="43.1446933" lon="2.17531"><ele>337.0</ele><time>2026-03-22T14:59:52.677Z</time></trkpt><trkpt lat="43.1446783" lon="2.1752"><ele>337.0</ele><time>2026-03-22T14:59:53.675Z</time></trkpt><trkpt lat="43.1446667" lon="2.1750967"><ele>337.0</ele><time>2026-03-22T14:59:54.676Z</time></trkpt><trkpt lat="43.1446467" lon="2.175"><ele>337.0</ele><time>2026-03-22T14:59:55.674Z</time></trkpt><trkpt lat="43.1446233" lon="2.1748983"><ele>336.3333333333333</ele><time>2026-03-22T14:59:56.675Z</time></trkpt><trkpt lat="43.1446" lon="2.1747983"><ele>335.66666666666663</ele><time>2026-03-22T14:59:57.674Z</time></trkpt><trkpt lat="43.1445967" lon="2.1747033"><ele>335.0</ele><time>2026-03-22T14:59:58.674Z</time></trkpt><trkpt lat="43.1445867" lon="2.1745983"><ele>334.3333333333333</ele><time>2026-03-22T14:59:59.676Z</time></trkpt><trkpt lat="43.1445667" lon="2.1744883"><ele>333.6666666666667</ele><time>2026-03-22T15:00:00.676Z</time></trkpt><trkpt lat="43.1445433" lon="2.1743683"><ele>333.0</ele><time>2026-03-22T15:00:01.674Z</time></trkpt><trkpt lat="43.1445233" lon="2.174245"><ele>333.0</ele><time>2026-03-22T15:00:02.675Z</time></trkpt><trkpt lat="43.144505" lon="2.174135"><ele>333.0</ele><time>2026-03-22T15:00:03.674Z</time></trkpt><trkpt lat="43.1444883" lon="2.1740417"><ele>333.0</ele><time>2026-03-22T15:00:04.674Z</time></trkpt><trkpt lat="43.1444683" lon="2.1739517"><ele>333.0</ele><time>2026-03-22T15:00:05.673Z</time></trkpt><trkpt lat="43.14445" lon="2.1738667"><ele>333.0</ele><time>2026-03-22T15:00:06.676Z</time></trkpt><trkpt lat="43.14442" lon="2.1737017"><ele>333.0</ele><time>2026-03-22T15:00:08.677Z</time></trkpt><trkpt lat="43.1443867" lon="2.173545"><ele>332.0</ele><time>2026-03-22T15:00:10.673Z</time></trkpt><trkpt lat="43.1443433" lon="2.17337"><ele>331.0</ele><time>2026-03-22T15:00:12.674Z</time></trkpt><trkpt lat="43.1443167" lon="2.1732733"><ele>330.0</ele><time>2026-03-22T15:00:13.674Z</time></trkpt><trkpt lat="43.1442883" lon="2.173175"><ele>329.0</ele><time>2026-03-22T15:00:14.674Z</time></trkpt><trkpt lat="43.144265" lon="2.1730733"><ele>328.0</ele><time>2026-03-22T15:00:15.674Z</time></trkpt><trkpt lat="43.1442383" lon="2.1729633"><ele>326.2</ele><time>2026-03-22T15:00:16.674Z</time></trkpt><trkpt lat="43.1441967" lon="2.1728483"><ele>324.4</ele><time>2026-03-22T15:00:17.675Z</time></trkpt><trkpt lat="43.1441533" lon="2.1727367"><ele>322.59999999999997</ele><time>2026-03-22T15:00:18.674Z</time></trkpt><trkpt lat="43.14411" lon="2.1726267"><ele>320.79999999999995</ele><time>2026-03-22T15:00:19.674Z</time></trkpt><trkpt lat="43.1440583" lon="2.17251"><ele>319.0</ele><time>2026-03-22T15:00:20.676Z</time></trkpt><trkpt lat="43.144005" lon="2.1724083"><ele>317.8333333333333</ele><time>2026-03-22T15:00:21.674Z</time></trkpt><trkpt lat="43.14395" lon="2.172315"><ele>316.66666666666663</ele><time>2026-03-22T15:00:22.674Z</time></trkpt><trkpt lat="43.143905" lon="2.17224"><ele>315.5</ele><time>2026-03-22T15:00:23.675Z</time></trkpt><trkpt lat="43.143835" lon="2.1721367"><ele>314.3333333333333</ele><time>2026-03-22T15:00:25.674Z</time></trkpt><trkpt lat="43.143755" lon="2.17208"><ele>313.1666666666667</ele><time>2026-03-22T15:00:28.674Z</time></trkpt><trkpt lat="43.14369" lon="2.17206"><ele>312.0</ele><time>2026-03-22T15:00:39.675Z</time></trkpt><trkpt lat="43.14357" lon="2.1720217"><ele>312.0</ele><time>2026-03-22T15:00:41.674Z</time></trkpt><trkpt lat="43.1434917" lon="2.1719867"><ele>312.0</ele><time>2026-03-22T15:00:42.675Z</time></trkpt><trkpt lat="43.1434067" lon="2.1719367"><ele>312.0</ele><time>2026-03-22T15:00:43.675Z</time></trkpt><trkpt lat="43.1433217" lon="2.1718817"><ele>312.0</ele><time>2026-03-22T15:00:44.674Z</time></trkpt><trkpt lat="43.143245" lon="2.1718283"><ele>312.0</ele><time>2026-03-22T15:00:45.674Z</time></trkpt><trkpt lat="43.14317" lon="2.1717833"><ele>312.0</ele><time>2026-03-22T15:00:46.676Z</time></trkpt><trkpt lat="43.143105" lon="2.1717367"><ele>309.1666666666667</ele><time>2026-03-22T15:00:47.674Z</time></trkpt><trkpt lat="43.14305" lon="2.1716733"><ele>306.3333333333333</ele><time>2026-03-22T15:00:48.675Z</time></trkpt><trkpt lat="43.1430117" lon="2.1715967"><ele>303.5</ele><time>2026-03-22T15:00:49.674Z</time></trkpt><trkpt lat="43.1429583" lon="2.1714633"><ele>300.66666666666663</ele><time>2026-03-22T15:00:51.675Z</time></trkpt><trkpt lat="43.1429333" lon="2.1713617"><ele>297.8333333333333</ele><time>2026-03-22T15:00:53.674Z</time></trkpt><trkpt lat="43.1428917" lon="2.1712883"><ele>295.0</ele><time>2026-03-22T15:00:56.674Z</time></trkpt><trkpt lat="43.1428217" lon="2.1712817"><ele>294.6</ele><time>2026-03-22T15:00:58.674Z</time></trkpt><trkpt lat="43.1427167" lon="2.1712367"><ele>294.2</ele><time>2026-03-22T15:01:00.678Z</time></trkpt><trkpt lat="43.1426033" lon="2.17116"><ele>293.8</ele><time>2026-03-22T15:01:02.675Z</time></trkpt><trkpt lat="43.1425383" lon="2.17112"><ele>293.4</ele><time>2026-03-22T15:01:03.675Z</time></trkpt><trkpt lat="43.1424667" lon="2.1710767"><ele>293.0</ele><time>2026-03-22T15:01:04.676Z</time></trkpt><trkpt lat="43.1423917" lon="2.171025"><ele>290.4</ele><time>2026-03-22T15:01:05.675Z</time></trkpt><trkpt lat="43.1423117" lon="2.1709583"><ele>287.8</ele><time>2026-03-22T15:01:06.676Z</time></trkpt><trkpt lat="43.14223" lon="2.1709"><ele>285.2</ele><time>2026-03-22T15:01:07.677Z</time></trkpt><trkpt lat="43.142145" lon="2.1708533"><ele>282.6</ele><time>2026-03-22T15:01:08.675Z</time></trkpt><trkpt lat="43.142055" lon="2.17081"><ele>280.0</ele><time>2026-03-22T15:01:09.676Z</time></trkpt><trkpt lat="43.1419667" lon="2.1707633"><ele>280.0</ele><time>2026-03-22T15:01:10.679Z</time></trkpt><trkpt lat="43.1418817" lon="2.17072"><ele>280.0</ele><time>2026-03-22T15:01:11.676Z</time></trkpt><trkpt lat="43.1418017" lon="2.1706733"><ele>280.0</ele><time>2026-03-22T15:01:12.674Z</time></trkpt><trkpt lat="43.1417267" lon="2.170615"><ele>280.0</ele><time>2026-03-22T15:01:13.675Z</time></trkpt><trkpt lat="43.1416483" lon="2.1705583"><ele>280.0</ele><time>2026-03-22T15:01:14.675Z</time></trkpt><trkpt lat="43.141565" lon="2.1704967"><ele>280.0</ele><time>2026-03-22T15:01:15.673Z</time></trkpt><trkpt lat="43.1414767" lon="2.1704317"><ele>278.8333333333333</ele><time>2026-03-22T15:01:16.675Z</time></trkpt><trkpt lat="43.1413917" lon="2.1703617"><ele>277.66666666666663</ele><time>2026-03-22T15:01:17.677Z</time></trkpt><trkpt lat="43.1413167" lon="2.1702883"><ele>276.5</ele><time>2026-03-22T15:01:18.675Z</time></trkpt><trkpt lat="43.1412567" lon="2.17021"><ele>275.3333333333333</ele><time>2026-03-22T15:01:19.674Z</time></trkpt><trkpt lat="43.141195" lon="2.1701433"><ele>274.1666666666667</ele><time>2026-03-22T15:01:20.675Z</time></trkpt><trkpt lat="43.1411217" lon="2.170075"><ele>273.0</ele><time>2026-03-22T15:01:21.673Z</time></trkpt><trkpt lat="43.1410333" lon="2.170015"><ele>273.0</ele><time>2026-03-22T15:01:22.674Z</time></trkpt><trkpt lat="43.1409367" lon="2.1699667"><ele>273.0</ele><time>2026-03-22T15:01:23.676Z</time></trkpt><trkpt lat="43.1408367" lon="2.16993"><ele>273.0</ele><time>2026-03-22T15:01:24.676Z</time></trkpt><trkpt lat="43.140745" lon="2.1698967"><ele>273.0</ele><time>2026-03-22T15:01:25.674Z</time></trkpt><trkpt lat="43.140665" lon="2.169855"><ele>273.0</ele><time>2026-03-22T15:01:26.675Z</time></trkpt><trkpt lat="43.1405983" lon="2.1698"><ele>272.5</ele><time>2026-03-22T15:01:27.674Z</time></trkpt><trkpt lat="43.1405333" lon="2.16974"><ele>272.0</ele><time>2026-03-22T15:01:28.676Z</time></trkpt><trkpt lat="43.140465" lon="2.1696717"><ele>271.5</ele><time>2026-03-22T15:01:29.674Z</time></trkpt><trkpt lat="43.1403983" lon="2.16959"><ele>271.0</ele><time>2026-03-22T15:01:30.677Z</time></trkpt><trkpt lat="43.1403267" lon="2.1695133"><ele>270.5</ele><time>2026-03-22T15:01:31.674Z</time></trkpt><trkpt lat="43.14025" lon="2.169445"><ele>270.0</ele><time>2026-03-22T15:01:32.674Z</time></trkpt><trkpt lat="43.1401733" lon="2.1693883"><ele>270.0</ele><time>2026-03-22T15:01:33.674Z</time></trkpt><trkpt lat="43.1401033" lon="2.1693417"><ele>270.0</ele><time>2026-03-22T15:01:34.674Z</time></trkpt><trkpt lat="43.1400433" lon="2.1692967"><ele>270.0</ele><time>2026-03-22T15:01:35.674Z</time></trkpt><trkpt lat="43.1399833" lon="2.1692483"><ele>270.0</ele><time>2026-03-22T15:01:36.679Z</time></trkpt><trkpt lat="43.1399233" lon="2.169195"><ele>270.0</ele><time>2026-03-22T15:01:37.675Z</time></trkpt><trkpt lat="43.139865" lon="2.169145"><ele>270.0</ele><time>2026-03-22T15:01:38.674Z</time></trkpt><trkpt lat="43.139805" lon="2.1690883"><ele>270.0</ele><time>2026-03-22T15:01:39.674Z</time></trkpt><trkpt lat="43.1397467" lon="2.1690317"><ele>268.1428571428571</ele><time>2026-03-22T15:01:40.675Z</time></trkpt><trkpt lat="43.13969" lon="2.1689717"><ele>266.2857142857143</ele><time>2026-03-22T15:01:41.674Z</time></trkpt><trkpt lat="43.1396317" lon="2.1689217"><ele>264.42857142857144</ele><time>2026-03-22T15:01:42.675Z</time></trkpt><trkpt lat="43.1395733" lon="2.168885"><ele>262.57142857142856</ele><time>2026-03-22T15:01:43.675Z</time></trkpt><trkpt lat="43.13952" lon="2.168835"><ele>260.7142857142857</ele><time>2026-03-22T15:01:44.675Z</time></trkpt><trkpt lat="43.1394633" lon="2.1687667"><ele>258.85714285714283</ele><time>2026-03-22T15:01:45.673Z</time></trkpt><trkpt lat="43.13941" lon="2.16867"><ele>257.0</ele><time>2026-03-22T15:01:46.674Z</time></trkpt><trkpt lat="43.1393583" lon="2.1685567"><ele>257.0</ele><time>2026-03-22T15:01:47.673Z</time></trkpt><trkpt lat="43.139295" lon="2.16842"><ele>257.0</ele><time>2026-03-22T15:01:48.674Z</time></trkpt><trkpt lat="43.1392233" lon="2.1682767"><ele>257.0</ele><time>2026-03-22T15:01:49.674Z</time></trkpt><trkpt lat="43.1391433" lon="2.1681317"><ele>257.0</ele><time>2026-03-22T15:01:50.679Z</time></trkpt><trkpt lat="43.1390667" lon="2.167995"><ele>257.0</ele><time>2026-03-22T15:01:51.674Z</time></trkpt><trkpt lat="43.1389867" lon="2.1678717"><ele>257.0</ele><time>2026-03-22T15:01:52.673Z</time></trkpt><trkpt lat="43.1388967" lon="2.1677683"><ele>257.0</ele><time>2026-03-22T15:01:53.676Z</time></trkpt><trkpt lat="43.1387917" lon="2.1676783"><ele>257.0</ele><time>2026-03-22T15:01:54.673Z</time></trkpt><trkpt lat="43.1386817" lon="2.16759"><ele>257.0</ele><time>2026-03-22T15:01:55.675Z</time></trkpt><trkpt lat="43.138575" lon="2.1674967"><ele>257.0</ele><time>2026-03-22T15:01:56.675Z</time></trkpt><trkpt lat="43.1384767" lon="2.167405"><ele>257.0</ele><time>2026-03-22T15:01:57.676Z</time></trkpt><trkpt lat="43.1383867" lon="2.167325"><ele>257.0</ele><time>2026-03-22T15:01:58.678Z</time></trkpt><trkpt lat="43.1383067" lon="2.16726"><ele>257.0</ele><time>2026-03-22T15:01:59.673Z</time></trkpt><trkpt lat="43.13823" lon="2.1672017"><ele>256.4</ele><time>2026-03-22T15:02:00.676Z</time></trkpt><trkpt lat="43.1381517" lon="2.1671517"><ele>255.79999999999998</ele><time>2026-03-22T15:02:01.675Z</time></trkpt><trkpt lat="43.1380683" lon="2.167095"><ele>255.2</ele><time>2026-03-22T15:02:02.676Z</time></trkpt><trkpt lat="43.1379867" lon="2.167035"><ele>254.6</ele><time>2026-03-22T15:02:03.676Z</time></trkpt><trkpt lat="43.1379033" lon="2.1669667"><ele>254.0</ele><time>2026-03-22T15:02:04.675Z</time></trkpt><trkpt lat="43.1378183" lon="2.166885"><ele>254.0</ele><time>2026-03-22T15:02:05.752Z</time></trkpt><trkpt lat="43.1377333" lon="2.166775"><ele>254.0</ele><time>2026-03-22T15:02:06.675Z</time></trkpt><trkpt lat="43.137645" lon="2.16664"><ele>254.0</ele><time>2026-03-22T15:02:07.676Z</time></trkpt><trkpt lat="43.13756" lon="2.1664933"><ele>254.0</ele><time>2026-03-22T15:02:08.676Z</time></trkpt><trkpt lat="43.13748" lon="2.16635"><ele>254.0</ele><time>2026-03-22T15:02:09.677Z</time></trkpt><trkpt lat="43.1374117" lon="2.1662133"><ele>253.99999999999997</ele><time>2026-03-22T15:02:10.678Z</time></trkpt><trkpt lat="43.1373517" lon="2.1660867"><ele>253.99999999999997</ele><time>2026-03-22T15:02:11.673Z</time></trkpt><trkpt lat="43.137305" lon="2.1659633"><ele>254.0</ele><time>2026-03-22T15:02:12.675Z</time></trkpt><trkpt lat="43.13727" lon="2.1658467"><ele>254.0</ele><time>2026-03-22T15:02:13.673Z</time></trkpt><trkpt lat="43.1372383" lon="2.1657383"><ele>253.16666666666669</ele><time>2026-03-22T15:02:14.675Z</time></trkpt><trkpt lat="43.1372083" lon="2.1656483"><ele>252.33333333333334</ele><time>2026-03-22T15:02:15.674Z</time></trkpt><trkpt lat="43.1371517" lon="2.1655217"><ele>251.5</ele><time>2026-03-22T15:02:17.675Z</time></trkpt><trkpt lat="43.1371117" lon="2.16545"><ele>250.66666666666669</ele><time>2026-03-22T15:02:19.674Z</time></trkpt><trkpt lat="43.1371167" lon="2.1653633"><ele>249.83333333333334</ele><time>2026-03-22T15:02:23.675Z</time></trkpt><trkpt lat="43.1371883" lon="2.1653017"><ele>249.0</ele><time>2026-03-22T15:02:25.673Z</time></trkpt><trkpt lat="43.1372617" lon="2.1651467"><ele>249.0</ele><time>2026-03-22T15:02:27.678Z</time></trkpt><trkpt lat="43.13729" lon="2.1650383"><ele>248.99999999999997</ele><time>2026-03-22T15:02:28.675Z</time></trkpt><trkpt lat="43.1373183" lon="2.164895"><ele>248.99999999999997</ele><time>2026-03-22T15:02:29.673Z</time></trkpt><trkpt lat="43.13735" lon="2.1647517"><ele>249.0</ele><time>2026-03-22T15:02:30.676Z</time></trkpt><trkpt lat="43.1373833" lon="2.1646083"><ele>249.0</ele><time>2026-03-22T15:02:31.676Z</time></trkpt><trkpt lat="43.137415" lon="2.16447"><ele>248.66666666666666</ele><time>2026-03-22T15:02:32.675Z</time></trkpt><trkpt lat="43.1374467" lon="2.1643433"><ele>248.33333333333331</ele><time>2026-03-22T15:02:33.676Z</time></trkpt><trkpt lat="43.1374733" lon="2.1642267"><ele>248.0</ele><time>2026-03-22T15:02:34.676Z</time></trkpt><trkpt lat="43.1374917" lon="2.1641167"><ele>247.66666666666666</ele><time>2026-03-22T15:02:35.677Z</time></trkpt><trkpt lat="43.1375033" lon="2.1640133"><ele>247.33333333333331</ele><time>2026-03-22T15:02:36.676Z</time></trkpt><trkpt lat="43.13751" lon="2.1639133"><ele>247.0</ele><time>2026-03-22T15:02:37.675Z</time></trkpt><trkpt lat="43.1375133" lon="2.16382"><ele>246.49999999999997</ele><time>2026-03-22T15:02:38.676Z</time></trkpt><trkpt lat="43.1374967" lon="2.1636917"><ele>246.0</ele><time>2026-03-22T15:02:40.676Z</time></trkpt><trkpt lat="43.137435" lon="2.1636467"><ele>245.5</ele><time>2026-03-22T15:02:42.675Z</time></trkpt><trkpt lat="43.1373367" lon="2.16363"><ele>245.0</ele><time>2026-03-22T15:02:44.675Z</time></trkpt><trkpt lat="43.1372417" lon="2.1636183"><ele>244.49999999999997</ele><time>2026-03-22T15:02:46.673Z</time></trkpt><trkpt lat="43.13718" lon="2.163575"><ele>244.0</ele><time>2026-03-22T15:02:48.677Z</time></trkpt><trkpt lat="43.137155" lon="2.1634583"><ele>243.99999999999997</ele><time>2026-03-22T15:02:50.676Z</time></trkpt><trkpt lat="43.1371783" lon="2.1633033"><ele>244.0</ele><time>2026-03-22T15:02:52.676Z</time></trkpt><trkpt lat="43.13719" lon="2.1632067"><ele>244.0</ele><time>2026-03-22T15:02:53.674Z</time></trkpt><trkpt lat="43.1371933" lon="2.1631"><ele>244.0</ele><time>2026-03-22T15:02:54.674Z</time></trkpt><trkpt lat="43.1372" lon="2.1629933"><ele>243.99999999999997</ele><time>2026-03-22T15:02:55.674Z</time></trkpt><trkpt lat="43.137205" lon="2.1628933"><ele>244.0</ele><time>2026-03-22T15:02:56.677Z</time></trkpt><trkpt lat="43.1372167" lon="2.1627517"><ele>243.16666666666666</ele><time>2026-03-22T15:02:58.674Z</time></trkpt><trkpt lat="43.13722" lon="2.1626567"><ele>242.33333333333331</ele><time>2026-03-22T15:03:00.676Z</time></trkpt><trkpt lat="43.1371867" lon="2.1625517"><ele>241.5</ele><time>2026-03-22T15:03:02.676Z</time></trkpt><trkpt lat="43.1371067" lon="2.1624633"><ele>240.66666666666669</ele><time>2026-03-22T15:03:04.674Z</time></trkpt><trkpt lat="43.1370483" lon="2.1624133"><ele>239.83333333333334</ele><time>2026-03-22T15:03:05.675Z</time></trkpt><trkpt lat="43.1369917" lon="2.162355"><ele>239.0</ele><time>2026-03-22T15:03:06.676Z</time></trkpt><trkpt lat="43.1369367" lon="2.1622933"><ele>238.00000000000003</ele><time>2026-03-22T15:03:07.675Z</time></trkpt><trkpt lat="43.1368817" lon="2.1622333"><ele>237.0</ele><time>2026-03-22T15:03:08.676Z</time></trkpt><trkpt lat="43.1368317" lon="2.162175"><ele>236.00000000000003</ele><time>2026-03-22T15:03:09.675Z</time></trkpt><trkpt lat="43.1367867" lon="2.1621067"><ele>235.00000000000003</ele><time>2026-03-22T15:03:10.677Z</time></trkpt><trkpt lat="43.1367583" lon="2.1619733"><ele>234.0</ele><time>2026-03-22T15:03:12.673Z</time></trkpt><trkpt lat="43.1367433" lon="2.1618733"><ele>233.00000000000003</ele><time>2026-03-22T15:03:14.676Z</time></trkpt><trkpt lat="43.1366967" lon="2.161805"><ele>232.00000000000003</ele><time>2026-03-22T15:03:17.676Z</time></trkpt><trkpt lat="43.136625" lon="2.1617617"><ele>231.39999999999998</ele><time>2026-03-22T15:03:19.675Z</time></trkpt><trkpt lat="43.1365167" lon="2.1616783"><ele>230.79999999999998</ele><time>2026-03-22T15:03:21.675Z</time></trkpt><trkpt lat="43.1364433" lon="2.1616417"><ele>230.2</ele><time>2026-03-22T15:03:22.675Z</time></trkpt><trkpt lat="43.13637" lon="2.1616233"><ele>229.6</ele><time>2026-03-22T15:03:23.673Z</time></trkpt><trkpt lat="43.1363033" lon="2.1616017"><ele>229.0</ele><time>2026-03-22T15:03:24.675Z</time></trkpt><trkpt lat="43.1362133" lon="2.1615233"><ele>228.16666666666666</ele><time>2026-03-22T15:03:26.674Z</time></trkpt><trkpt lat="43.1361933" lon="2.1614083"><ele>227.33333333333331</ele><time>2026-03-22T15:03:28.68Z</time></trkpt><trkpt lat="43.1361867" lon="2.1613083"><ele>226.5</ele><time>2026-03-22T15:03:30.674Z</time></trkpt><trkpt lat="43.1362283" lon="2.1612267"><ele>225.66666666666669</ele><time>2026-03-22T15:03:32.674Z</time></trkpt><trkpt lat="43.13632" lon="2.161195"><ele>224.83333333333334</ele><time>2026-03-22T15:03:34.674Z</time></trkpt><trkpt lat="43.13643" lon="2.161165"><ele>224.0</ele><time>2026-03-22T15:03:36.673Z</time></trkpt><trkpt lat="43.1365433" lon="2.161145"><ele>225.16666666666669</ele><time>2026-03-22T15:03:38.676Z</time></trkpt><trkpt lat="43.1366083" lon="2.1611367"><ele>226.33333333333334</ele><time>2026-03-22T15:03:39.675Z</time></trkpt><trkpt lat="43.136685" lon="2.161125"><ele>227.5</ele><time>2026-03-22T15:03:40.674Z</time></trkpt><trkpt lat="43.136765" lon="2.1611117"><ele>228.66666666666669</ele><time>2026-03-22T15:03:41.674Z</time></trkpt><trkpt lat="43.1368467" lon="2.1610983"><ele>229.83333333333334</ele><time>2026-03-22T15:03:42.677Z</time></trkpt><trkpt lat="43.13693" lon="2.161085"><ele>231.0</ele><time>2026-03-22T15:03:43.678Z</time></trkpt><trkpt lat="43.137005" lon="2.1610767"><ele>231.0</ele><time>2026-03-22T15:03:44.674Z</time></trkpt><trkpt lat="43.1371033" lon="2.16107"><ele>231.00000000000003</ele><time>2026-03-22T15:03:46.673Z</time></trkpt><trkpt lat="43.13716" lon="2.1609783"><ele>231.00000000000003</ele><time>2026-03-22T15:04:07.673Z</time></trkpt><trkpt lat="43.1371633" lon="2.1608283"><ele>231.0</ele><time>2026-03-22T15:04:09.676Z</time></trkpt><trkpt lat="43.137155" lon="2.1606633"><ele>231.0</ele><time>2026-03-22T15:04:11.676Z</time></trkpt><trkpt lat="43.1371517" lon="2.160505"><ele>231.0</ele><time>2026-03-22T15:04:13.677Z</time></trkpt><trkpt lat="43.13716" lon="2.160395"><ele>231.0</ele><time>2026-03-22T15:04:15.673Z</time></trkpt><trkpt lat="43.1372317" lon="2.1604367"><ele>231.0</ele><time>2026-03-22T15:04:25.674Z</time></trkpt><trkpt lat="43.13724" lon="2.16056"><ele>231.0</ele><time>2026-03-22T15:04:27.673Z</time></trkpt><trkpt lat="43.13726" lon="2.16072"><ele>231.0</ele><time>2026-03-22T15:04:29.672Z</time></trkpt><trkpt lat="43.13726" lon="2.1608067"><ele>231.0</ele><time>2026-03-22T15:04:30.673Z</time></trkpt><trkpt lat="43.1372417" lon="2.1608917"><ele>231.0</ele><time>2026-03-22T15:04:31.676Z</time></trkpt><trkpt lat="43.1372117" lon="2.1609683"><ele>231.0</ele><time>2026-03-22T15:04:32.673Z</time></trkpt><trkpt lat="43.137165" lon="2.16103"><ele>231.0</ele><time>2026-03-22T15:04:33.673Z</time></trkpt><trkpt lat="43.13705" lon="2.16109"><ele>231.0</ele><time>2026-03-22T15:04:35.674Z</time></trkpt><trkpt lat="43.13698" lon="2.1610933"><ele>231.0</ele><time>2026-03-22T15:04:36.673Z</time></trkpt><trkpt lat="43.136895" lon="2.1610933"><ele>231.0</ele><time>2026-03-22T15:04:37.674Z</time></trkpt><trkpt lat="43.1368067" lon="2.1611"><ele>231.0</ele><time>2026-03-22T15:04:38.674Z</time></trkpt><trkpt lat="43.1367217" lon="2.1611133"><ele>231.0</ele><time>2026-03-22T15:04:39.678Z</time></trkpt><trkpt lat="43.1366417" lon="2.1611317"><ele>231.0</ele><time>2026-03-22T15:04:40.673Z</time></trkpt><trkpt lat="43.1365683" lon="2.16115"><ele>231.0</ele><time>2026-03-22T15:04:41.673Z</time></trkpt><trkpt lat="43.1364967" lon="2.1611633"><ele>231.0</ele><time>2026-03-22T15:04:42.675Z</time></trkpt><trkpt lat="43.136425" lon="2.16118"><ele>231.0</ele><time>2026-03-22T15:04:43.672Z</time></trkpt><trkpt lat="43.1363517" lon="2.1611983"><ele>229.60000000000002</ele><time>2026-03-22T15:04:44.674Z</time></trkpt><trkpt lat="43.1362817" lon="2.1612217"><ele>228.20000000000002</ele><time>2026-03-22T15:04:45.676Z</time></trkpt><trkpt lat="43.1361767" lon="2.1612633"><ele>226.79999999999998</ele><time>2026-03-22T15:04:47.674Z</time></trkpt><trkpt lat="43.1361017" lon="2.1612983"><ele>225.39999999999998</ele><time>2026-03-22T15:04:49.674Z</time></trkpt><trkpt lat="43.13599" lon="2.161265"><ele>224.0</ele><time>2026-03-22T15:04:51.674Z</time></trkpt><trkpt lat="43.1359133" lon="2.1612183"><ele>224.0</ele><time>2026-03-22T15:04:52.675Z</time></trkpt><trkpt lat="43.1358383" lon="2.16115"><ele>223.99999999999997</ele><time>2026-03-22T15:04:53.675Z</time></trkpt><trkpt lat="43.1357667" lon="2.16106"><ele>223.99999999999997</ele><time>2026-03-22T15:04:54.675Z</time></trkpt><trkpt lat="43.1357067" lon="2.16096"><ele>224.0</ele><time>2026-03-22T15:04:55.678Z</time></trkpt><trkpt lat="43.1356483" lon="2.1608633"><ele>224.0</ele><time>2026-03-22T15:04:56.676Z</time></trkpt><trkpt lat="43.13559" lon="2.16077"><ele>222.16666666666669</ele><time>2026-03-22T15:04:57.677Z</time></trkpt><trkpt lat="43.1355317" lon="2.16068"><ele>220.33333333333334</ele><time>2026-03-22T15:04:58.674Z</time></trkpt><trkpt lat="43.1354733" lon="2.1605983"><ele>218.5</ele><time>2026-03-22T15:04:59.674Z</time></trkpt><trkpt lat="43.1354067" lon="2.160525"><ele>216.66666666666669</ele><time>2026-03-22T15:05:00.675Z</time></trkpt><trkpt lat="43.1353367" lon="2.1604467"><ele>214.83333333333334</ele><time>2026-03-22T15:05:01.673Z</time></trkpt><trkpt lat="43.13527" lon="2.1603567"><ele>213.0</ele><time>2026-03-22T15:05:02.674Z</time></trkpt><trkpt lat="43.1352117" lon="2.1602717"><ele>213.0</ele><time>2026-03-22T15:05:03.673Z</time></trkpt><trkpt lat="43.1351517" lon="2.1601833"><ele>213.0</ele><time>2026-03-22T15:05:04.677Z</time></trkpt><trkpt lat="43.135085" lon="2.16009"><ele>213.0</ele><time>2026-03-22T15:05:05.673Z</time></trkpt><trkpt lat="43.1350167" lon="2.1599933"><ele>213.0</ele><time>2026-03-22T15:05:06.673Z</time></trkpt><trkpt lat="43.1349483" lon="2.1598983"><ele>213.0</ele><time>2026-03-22T15:05:07.674Z</time></trkpt><trkpt lat="43.1348767" lon="2.15981"><ele>212.83333333333334</ele><time>2026-03-22T15:05:08.677Z</time></trkpt><trkpt lat="43.134805" lon="2.15974"><ele>212.66666666666669</ele><time>2026-03-22T15:05:09.673Z</time></trkpt><trkpt lat="43.1347333" lon="2.159695"><ele>212.5</ele><time>2026-03-22T15:05:10.673Z</time></trkpt><trkpt lat="43.1346567" lon="2.1596717"><ele>212.33333333333334</ele><time>2026-03-22T15:05:11.673Z</time></trkpt><trkpt lat="43.1345883" lon="2.159665"><ele>212.16666666666669</ele><time>2026-03-22T15:05:12.672Z</time></trkpt><trkpt lat="43.1345167" lon="2.1596767"><ele>212.0</ele><time>2026-03-22T15:05:13.672Z</time></trkpt><trkpt lat="43.134445" lon="2.1596983"><ele>212.00000000000003</ele><time>2026-03-22T15:05:14.673Z</time></trkpt><trkpt lat="43.1343717" lon="2.1597167"><ele>212.0</ele><time>2026-03-22T15:05:15.674Z</time></trkpt><trkpt lat="43.13429" lon="2.1597317"><ele>212.0</ele><time>2026-03-22T15:05:16.674Z</time></trkpt><trkpt lat="43.1342017" lon="2.1597433"><ele>212.0</ele><time>2026-03-22T15:05:17.674Z</time></trkpt><trkpt lat="43.1341117" lon="2.1597533"><ele>212.00000000000003</ele><time>2026-03-22T15:05:18.674Z</time></trkpt><trkpt lat="43.1340117" lon="2.1597667"><ele>212.0</ele><time>2026-03-22T15:05:19.674Z</time></trkpt><trkpt lat="43.133915" lon="2.1597833"><ele>212.00000000000003</ele><time>2026-03-22T15:05:20.674Z</time></trkpt><trkpt lat="43.1338233" lon="2.1598017"><ele>212.0</ele><time>2026-03-22T15:05:21.676Z</time></trkpt><trkpt lat="43.1337417" lon="2.1598217"><ele>212.0</ele><time>2026-03-22T15:05:22.673Z</time></trkpt><trkpt lat="43.1336717" lon="2.15984"><ele>212.0</ele><time>2026-03-22T15:05:23.678Z</time></trkpt><trkpt lat="43.1336067" lon="2.1598567"><ele>212.00000000000003</ele><time>2026-03-22T15:05:24.674Z</time></trkpt><trkpt lat="43.133535" lon="2.1598583"><ele>212.0</ele><time>2026-03-22T15:05:25.677Z</time></trkpt><trkpt lat="43.1334617" lon="2.159845"><ele>212.00000000000003</ele><time>2026-03-22T15:05:26.676Z</time></trkpt><trkpt lat="43.133385" lon="2.1598367"><ele>212.0</ele><time>2026-03-22T15:05:27.674Z</time></trkpt><trkpt lat="43.1333117" lon="2.1598367"><ele>212.0</ele><time>2026-03-22T15:05:28.673Z</time></trkpt><trkpt lat="43.1332417" lon="2.15983"><ele>212.0</ele><time>2026-03-22T15:05:29.673Z</time></trkpt><trkpt lat="43.13317" lon="2.1598133"><ele>212.00000000000003</ele><time>2026-03-22T15:05:30.672Z</time></trkpt><trkpt lat="43.1331017" lon="2.1597967"><ele>212.0</ele><time>2026-03-22T15:05:31.673Z</time></trkpt><trkpt lat="43.132995" lon="2.1597867"><ele>211.66666666666669</ele><time>2026-03-22T15:05:33.674Z</time></trkpt><trkpt lat="43.1329317" lon="2.1597767"><ele>211.33333333333334</ele><time>2026-03-22T15:05:35.675Z</time></trkpt><trkpt lat="43.132835" lon="2.1597217"><ele>211.0</ele><time>2026-03-22T15:05:38.674Z</time></trkpt><trkpt lat="43.1327467" lon="2.1597017"><ele>210.66666666666669</ele><time>2026-03-22T15:05:40.674Z</time></trkpt><trkpt lat="43.1326833" lon="2.1596783"><ele>210.33333333333334</ele><time>2026-03-22T15:05:43.673Z</time></trkpt><trkpt lat="43.1327083" lon="2.1595767"><ele>210.0</ele><time>2026-03-22T15:05:45.675Z</time></trkpt><trkpt lat="43.1327383" lon="2.1594"><ele>210.0</ele><time>2026-03-22T15:05:47.673Z</time></trkpt><trkpt lat="43.132755" lon="2.1592817"><ele>210.0</ele><time>2026-03-22T15:05:48.674Z</time></trkpt><trkpt lat="43.132775" lon="2.1591517"><ele>210.0</ele><time>2026-03-22T15:05:49.674Z</time></trkpt><trkpt lat="43.132795" lon="2.15901"><ele>210.0</ele><time>2026-03-22T15:05:50.674Z</time></trkpt><trkpt lat="43.1328167" lon="2.1588667"><ele>210.0</ele><time>2026-03-22T15:05:51.673Z</time></trkpt><trkpt lat="43.1328383" lon="2.158725"><ele>210.2</ele><time>2026-03-22T15:05:52.674Z</time></trkpt><trkpt lat="43.1328617" lon="2.1585867"><ele>210.4</ele><time>2026-03-22T15:05:53.674Z</time></trkpt><trkpt lat="43.1328833" lon="2.15845"><ele>210.60000000000002</ele><time>2026-03-22T15:05:54.674Z</time></trkpt><trkpt lat="43.132905" lon="2.158315"><ele>210.8</ele><time>2026-03-22T15:05:55.673Z</time></trkpt><trkpt lat="43.132925" lon="2.158185"><ele>211.0</ele><time>2026-03-22T15:05:56.675Z</time></trkpt><trkpt lat="43.1329467" lon="2.158065"><ele>211.16666666666666</ele><time>2026-03-22T15:05:57.674Z</time></trkpt><trkpt lat="43.132965" lon="2.157955"><ele>211.33333333333331</ele><time>2026-03-22T15:05:58.673Z</time></trkpt><trkpt lat="43.1329833" lon="2.1578617"><ele>211.5</ele><time>2026-03-22T15:05:59.674Z</time></trkpt><trkpt lat="43.1330017" lon="2.15773"><ele>211.66666666666669</ele><time>2026-03-22T15:06:01.673Z</time></trkpt><trkpt lat="43.133025" lon="2.1576417"><ele>211.83333333333334</ele><time>2026-03-22T15:06:03.674Z</time></trkpt><trkpt lat="43.1331017" lon="2.1576083"><ele>212.0</ele><time>2026-03-22T15:06:05.673Z</time></trkpt><trkpt lat="43.13323" lon="2.1576033"><ele>212.39999999999998</ele><time>2026-03-22T15:06:07.674Z</time></trkpt><trkpt lat="43.1333133" lon="2.1576117"><ele>212.79999999999998</ele><time>2026-03-22T15:06:08.674Z</time></trkpt><trkpt lat="43.1334033" lon="2.15762"><ele>213.2</ele><time>2026-03-22T15:06:09.673Z</time></trkpt><trkpt lat="43.1335017" lon="2.1576267"><ele>213.6</ele><time>2026-03-22T15:06:10.673Z</time></trkpt><trkpt lat="43.1336067" lon="2.1576317"><ele>214.0</ele><time>2026-03-22T15:06:11.672Z</time></trkpt><trkpt lat="43.13372" lon="2.1576383"><ele>214.0</ele><time>2026-03-22T15:06:12.673Z</time></trkpt><trkpt lat="43.1338367" lon="2.157645"><ele>214.0</ele><time>2026-03-22T15:06:13.673Z</time></trkpt><trkpt lat="43.13396" lon="2.1576517"><ele>214.0</ele><time>2026-03-22T15:06:14.672Z</time></trkpt><trkpt lat="43.1340933" lon="2.157655"><ele>214.0</ele><time>2026-03-22T15:06:15.673Z</time></trkpt><trkpt lat="43.1342267" lon="2.1576583"><ele>215.0</ele><time>2026-03-22T15:06:16.674Z</time></trkpt><trkpt lat="43.13436" lon="2.157675"><ele>216.0</ele><time>2026-03-22T15:06:17.672Z</time></trkpt><trkpt lat="43.134495" lon="2.1577"><ele>217.0</ele><time>2026-03-22T15:06:18.672Z</time></trkpt><trkpt lat="43.1346367" lon="2.15773"><ele>218.0</ele><time>2026-03-22T15:06:19.673Z</time></trkpt><trkpt lat="43.1347833" lon="2.1577667"><ele>218.5</ele><time>2026-03-22T15:06:20.673Z</time></trkpt><trkpt lat="43.13493" lon="2.1578"><ele>219.0</ele><time>2026-03-22T15:06:21.674Z</time></trkpt><trkpt lat="43.135065" lon="2.15783"><ele>219.5</ele><time>2026-03-22T15:06:22.672Z</time></trkpt><trkpt lat="43.135185" lon="2.1578617"><ele>220.0</ele><time>2026-03-22T15:06:23.672Z</time></trkpt><trkpt lat="43.1352967" lon="2.15789"><ele>220.0</ele><time>2026-03-22T15:06:24.673Z</time></trkpt><trkpt lat="43.1354017" lon="2.15791"><ele>220.0</ele><time>2026-03-22T15:06:25.672Z</time></trkpt><trkpt lat="43.13551" lon="2.15793"><ele>220.0</ele><time>2026-03-22T15:06:26.674Z</time></trkpt><trkpt lat="43.1356233" lon="2.15794"><ele>220.0</ele><time>2026-03-22T15:06:27.673Z</time></trkpt><trkpt lat="43.135745" lon="2.1579333"><ele>220.0</ele><time>2026-03-22T15:06:28.674Z</time></trkpt><trkpt lat="43.135875" lon="2.1579083"><ele>220.0</ele><time>2026-03-22T15:06:29.675Z</time></trkpt><trkpt lat="43.136005" lon="2.1578717"><ele>220.0</ele><time>2026-03-22T15:06:30.673Z</time></trkpt><trkpt lat="43.1361383" lon="2.1578217"><ele>220.0</ele><time>2026-03-22T15:06:31.672Z</time></trkpt><trkpt lat="43.136275" lon="2.1577633"><ele>220.0</ele><time>2026-03-22T15:06:32.673Z</time></trkpt><trkpt lat="43.136415" lon="2.1577033"><ele>220.0</ele><time>2026-03-22T15:06:33.672Z</time></trkpt><trkpt lat="43.1365517" lon="2.157645"><ele>220.0</ele><time>2026-03-22T15:06:34.672Z</time></trkpt><trkpt lat="43.1366833" lon="2.1575933"><ele>220.0</ele><time>2026-03-22T15:06:35.673Z</time></trkpt><trkpt lat="43.1368083" lon="2.1575517"><ele>219.6</ele><time>2026-03-22T15:06:36.672Z</time></trkpt><trkpt lat="43.1369267" lon="2.1575117"><ele>219.2</ele><time>2026-03-22T15:06:37.673Z</time></trkpt><trkpt lat="43.1370333" lon="2.1574733"><ele>218.8</ele><time>2026-03-22T15:06:38.672Z</time></trkpt><trkpt lat="43.1371333" lon="2.157455"><ele>218.4</ele><time>2026-03-22T15:06:39.672Z</time></trkpt><trkpt lat="43.1372283" lon="2.1574483"><ele>218.0</ele><time>2026-03-22T15:06:40.673Z</time></trkpt><trkpt lat="43.1373133" lon="2.15745"><ele>217.66666666666669</ele><time>2026-03-22T15:06:41.672Z</time></trkpt><trkpt lat="43.13739" lon="2.1574567"><ele>217.33333333333334</ele><time>2026-03-22T15:06:42.675Z</time></trkpt><trkpt lat="43.137465" lon="2.157475"><ele>217.0</ele><time>2026-03-22T15:06:43.673Z</time></trkpt><trkpt lat="43.1375383" lon="2.1574933"><ele>216.66666666666669</ele><time>2026-03-22T15:06:44.676Z</time></trkpt><trkpt lat="43.1376117" lon="2.1575117"><ele>216.33333333333334</ele><time>2026-03-22T15:06:45.675Z</time></trkpt><trkpt lat="43.1376867" lon="2.1575217"><ele>216.0</ele><time>2026-03-22T15:06:46.674Z</time></trkpt><trkpt lat="43.137765" lon="2.1575167"><ele>216.0</ele><time>2026-03-22T15:06:47.676Z</time></trkpt><trkpt lat="43.1378533" lon="2.157505"><ele>216.0</ele><time>2026-03-22T15:06:48.673Z</time></trkpt><trkpt lat="43.13794" lon="2.15749"><ele>216.0</ele><time>2026-03-22T15:06:49.672Z</time></trkpt><trkpt lat="43.138015" lon="2.1574817"><ele>216.0</ele><time>2026-03-22T15:06:50.675Z</time></trkpt><trkpt lat="43.1381233" lon="2.157475"><ele>216.0</ele><time>2026-03-22T15:06:52.673Z</time></trkpt><trkpt lat="43.1381767" lon="2.15739"><ele>216.0</ele><time>2026-03-22T15:06:54.673Z</time></trkpt><trkpt lat="43.13819" lon="2.1572217"><ele>217.0</ele><time>2026-03-22T15:06:56.675Z</time></trkpt><trkpt lat="43.1381933" lon="2.1571083"><ele>218.00000000000003</ele><time>2026-03-22T15:06:57.673Z</time></trkpt><trkpt lat="43.138205" lon="2.1569883"><ele>219.00000000000003</ele><time>2026-03-22T15:06:58.673Z</time></trkpt><trkpt lat="43.138235" lon="2.1568717"><ele>220.0</ele><time>2026-03-22T15:06:59.673Z</time></trkpt><trkpt lat="43.13827" lon="2.1567483"><ele>221.0</ele><time>2026-03-22T15:07:00.674Z</time></trkpt><trkpt lat="43.1383017" lon="2.1566167"><ele>222.0</ele><time>2026-03-22T15:07:01.674Z</time></trkpt><trkpt lat="43.1383267" lon="2.1564817"><ele>223.00000000000003</ele><time>2026-03-22T15:07:02.673Z</time></trkpt><trkpt lat="43.1383483" lon="2.156345"><ele>224.00000000000003</ele><time>2026-03-22T15:07:03.674Z</time></trkpt><trkpt lat="43.138365" lon="2.1562067"><ele>225.0</ele><time>2026-03-22T15:07:04.675Z</time></trkpt><trkpt lat="43.1383733" lon="2.1560567"><ele>226.0</ele><time>2026-03-22T15:07:05.675Z</time></trkpt><trkpt lat="43.1383967" lon="2.1559133"><ele>226.0</ele><time>2026-03-22T15:07:06.674Z</time></trkpt><trkpt lat="43.1384417" lon="2.1557767"><ele>226.0</ele><time>2026-03-22T15:07:07.673Z</time></trkpt><trkpt lat="43.1385" lon="2.1556367"><ele>226.0</ele><time>2026-03-22T15:07:08.675Z</time></trkpt><trkpt lat="43.1385717" lon="2.1554917"><ele>226.0</ele><time>2026-03-22T15:07:09.672Z</time></trkpt><trkpt lat="43.1386467" lon="2.1553417"><ele>227.5</ele><time>2026-03-22T15:07:10.675Z</time></trkpt><trkpt lat="43.1387233" lon="2.1551983"><ele>229.0</ele><time>2026-03-22T15:07:11.673Z</time></trkpt><trkpt lat="43.1387967" lon="2.1550583"><ele>230.5</ele><time>2026-03-22T15:07:12.673Z</time></trkpt><trkpt lat="43.1388683" lon="2.15492"><ele>232.0</ele><time>2026-03-22T15:07:13.674Z</time></trkpt><trkpt lat="43.13894" lon="2.1547783"><ele>233.0</ele><time>2026-03-22T15:07:14.673Z</time></trkpt><trkpt lat="43.1390083" lon="2.1546317"><ele>234.0</ele><time>2026-03-22T15:07:15.675Z</time></trkpt><trkpt lat="43.13907" lon="2.1544817"><ele>235.0</ele><time>2026-03-22T15:07:16.675Z</time></trkpt><trkpt lat="43.1391333" lon="2.15433"><ele>236.0</ele><time>2026-03-22T15:07:17.673Z</time></trkpt><trkpt lat="43.1391983" lon="2.154175"><ele>237.75</ele><time>2026-03-22T15:07:18.673Z</time></trkpt><trkpt lat="43.1392583" lon="2.154015"><ele>239.5</ele><time>2026-03-22T15:07:19.673Z</time></trkpt><trkpt lat="43.1393083" lon="2.1538483"><ele>241.25</ele><time>2026-03-22T15:07:20.673Z</time></trkpt><trkpt lat="43.139345" lon="2.153675"><ele>243.0</ele><time>2026-03-22T15:07:21.673Z</time></trkpt><trkpt lat="43.13938" lon="2.153515"><ele>243.0</ele><time>2026-03-22T15:07:22.674Z</time></trkpt><trkpt lat="43.139415" lon="2.15337"><ele>243.0</ele><time>2026-03-22T15:07:23.673Z</time></trkpt><trkpt lat="43.1394467" lon="2.1532267"><ele>243.0</ele><time>2026-03-22T15:07:24.679Z</time></trkpt><trkpt lat="43.1394767" lon="2.1530983"><ele>243.0</ele><time>2026-03-22T15:07:25.672Z</time></trkpt><trkpt lat="43.13951" lon="2.1529733"><ele>243.0</ele><time>2026-03-22T15:07:26.674Z</time></trkpt><trkpt lat="43.1395667" lon="2.1528517"><ele>243.5</ele><time>2026-03-22T15:07:27.672Z</time></trkpt><trkpt lat="43.1396383" lon="2.1527267"><ele>244.0</ele><time>2026-03-22T15:07:28.673Z</time></trkpt><trkpt lat="43.139715" lon="2.1525983"><ele>244.5</ele><time>2026-03-22T15:07:29.672Z</time></trkpt><trkpt lat="43.1397933" lon="2.1524617"><ele>245.0</ele><time>2026-03-22T15:07:30.673Z</time></trkpt><trkpt lat="43.13987" lon="2.152335"><ele>246.00000000000003</ele><time>2026-03-22T15:07:31.673Z</time></trkpt><trkpt lat="43.1399367" lon="2.1522283"><ele>247.0</ele><time>2026-03-22T15:07:32.674Z</time></trkpt><trkpt lat="43.139995" lon="2.1521383"><ele>248.0</ele><time>2026-03-22T15:07:33.672Z</time></trkpt><trkpt lat="43.140045" lon="2.1520567"><ele>249.0</ele><time>2026-03-22T15:07:34.673Z</time></trkpt><trkpt lat="43.1400883" lon="2.15198"><ele>250.00000000000003</ele><time>2026-03-22T15:07:35.674Z</time></trkpt><trkpt lat="43.1401283" lon="2.1519133"><ele>251.0</ele><time>2026-03-22T15:07:36.672Z</time></trkpt><trkpt lat="43.14018" lon="2.1518633"><ele>251.0</ele><time>2026-03-22T15:07:37.675Z</time></trkpt><trkpt lat="43.14025" lon="2.1518333"><ele>251.00000000000003</ele><time>2026-03-22T15:07:38.674Z</time></trkpt><trkpt lat="43.1403333" lon="2.1518183"><ele>251.00000000000003</ele><time>2026-03-22T15:07:39.672Z</time></trkpt><trkpt lat="43.140425" lon="2.1518067"><ele>251.0</ele><time>2026-03-22T15:07:40.673Z</time></trkpt><trkpt lat="43.1405233" lon="2.1517833"><ele>251.0</ele><time>2026-03-22T15:07:41.672Z</time></trkpt><trkpt lat="43.1406383" lon="2.1517467"><ele>251.25</ele><time>2026-03-22T15:07:42.673Z</time></trkpt><trkpt lat="43.140755" lon="2.1516883"><ele>251.5</ele><time>2026-03-22T15:07:43.674Z</time></trkpt><trkpt lat="43.140865" lon="2.1516133"><ele>251.75</ele><time>2026-03-22T15:07:44.673Z</time></trkpt><trkpt lat="43.1409783" lon="2.1515333"><ele>252.0</ele><time>2026-03-22T15:07:45.672Z</time></trkpt><trkpt lat="43.1411" lon="2.1514583"><ele>252.75</ele><time>2026-03-22T15:07:46.674Z</time></trkpt><trkpt lat="43.141225" lon="2.1513917"><ele>253.5</ele><time>2026-03-22T15:07:47.672Z</time></trkpt><trkpt lat="43.141355" lon="2.151335"><ele>254.25</ele><time>2026-03-22T15:07:48.673Z</time></trkpt><trkpt lat="43.1414917" lon="2.1513017"><ele>255.0</ele><time>2026-03-22T15:07:49.672Z</time></trkpt><trkpt lat="43.1416333" lon="2.1513017"><ele>255.0</ele><time>2026-03-22T15:07:50.677Z</time></trkpt><trkpt lat="43.1417783" lon="2.1513383"><ele>255.0</ele><time>2026-03-22T15:07:51.674Z</time></trkpt><trkpt lat="43.14192" lon="2.1514083"><ele>255.0</ele><time>2026-03-22T15:07:52.672Z</time></trkpt><trkpt lat="43.1420567" lon="2.151495"><ele>255.0</ele><time>2026-03-22T15:07:53.672Z</time></trkpt><trkpt lat="43.1421933" lon="2.151585"><ele>254.75</ele><time>2026-03-22T15:07:54.676Z</time></trkpt><trkpt lat="43.14232" lon="2.1516733"><ele>254.5</ele><time>2026-03-22T15:07:55.673Z</time></trkpt><trkpt lat="43.1424417" lon="2.1517433"><ele>254.25</ele><time>2026-03-22T15:07:56.673Z</time></trkpt><trkpt lat="43.1425683" lon="2.151785"><ele>254.0</ele><time>2026-03-22T15:07:57.675Z</time></trkpt><trkpt lat="43.1427" lon="2.1518"><ele>255.5</ele><time>2026-03-22T15:07:58.672Z</time></trkpt><trkpt lat="43.14283" lon="2.1517867"><ele>257.0</ele><time>2026-03-22T15:07:59.674Z</time></trkpt><trkpt lat="43.1429533" lon="2.15175"><ele>258.5</ele><time>2026-03-22T15:08:00.673Z</time></trkpt><trkpt lat="43.14307" lon="2.1517067"><ele>260.0</ele><time>2026-03-22T15:08:01.674Z</time></trkpt><trkpt lat="43.1431733" lon="2.15167"><ele>260.8</ele><time>2026-03-22T15:08:02.675Z</time></trkpt><trkpt lat="43.1432717" lon="2.1516433"><ele>261.6</ele><time>2026-03-22T15:08:03.673Z</time></trkpt><trkpt lat="43.1433683" lon="2.1516283"><ele>262.4</ele><time>2026-03-22T15:08:04.675Z</time></trkpt><trkpt lat="43.143465" lon="2.15162"><ele>263.2</ele><time>2026-03-22T15:08:05.674Z</time></trkpt><trkpt lat="43.1435583" lon="2.1516217"><ele>264.0</ele><time>2026-03-22T15:08:06.674Z</time></trkpt><trkpt lat="43.1436383" lon="2.1516283"><ele>264.0</ele><time>2026-03-22T15:08:07.675Z</time></trkpt><trkpt lat="43.1437033" lon="2.1516367"><ele>264.0</ele><time>2026-03-22T15:08:08.674Z</time></trkpt><trkpt lat="43.1438033" lon="2.15164"><ele>264.0</ele><time>2026-03-22T15:08:10.673Z</time></trkpt><trkpt lat="43.14389" lon="2.1516067"><ele>264.0</ele><time>2026-03-22T15:08:12.675Z</time></trkpt><trkpt lat="43.1439417" lon="2.151465"><ele>264.0</ele><time>2026-03-22T15:08:14.677Z</time></trkpt><trkpt lat="43.1439633" lon="2.15137"><ele>264.0</ele><time>2026-03-22T15:08:15.675Z</time></trkpt><trkpt lat="43.1439833" lon="2.1512567"><ele>263.8333333333333</ele><time>2026-03-22T15:08:16.675Z</time></trkpt><trkpt lat="43.144" lon="2.1511417"><ele>263.6666666666667</ele><time>2026-03-22T15:08:17.674Z</time></trkpt><trkpt lat="43.144015" lon="2.1510367"><ele>263.5</ele><time>2026-03-22T15:08:18.673Z</time></trkpt><trkpt lat="43.1440283" lon="2.1509417"><ele>263.33333333333337</ele><time>2026-03-22T15:08:19.674Z</time></trkpt><trkpt lat="43.14405" lon="2.15079"><ele>263.1666666666667</ele><time>2026-03-22T15:08:21.674Z</time></trkpt><trkpt lat="43.1440633" lon="2.1506883"><ele>263.0</ele><time>2026-03-22T15:08:23.673Z</time></trkpt><trkpt lat="43.1440583" lon="2.15058"><ele>263.5</ele><time>2026-03-22T15:08:35.673Z</time></trkpt><trkpt lat="43.1440383" lon="2.150495"><ele>264.0</ele><time>2026-03-22T15:08:39.672Z</time></trkpt><trkpt lat="43.1440517" lon="2.150405"><ele>264.5</ele><time>2026-03-22T15:08:42.673Z</time></trkpt><trkpt lat="43.1441167" lon="2.1503983"><ele>265.0</ele><time>2026-03-22T15:08:45.673Z</time></trkpt><trkpt lat="43.1441833" lon="2.15043"><ele>265.5</ele><time>2026-03-22T15:08:47.675Z</time></trkpt><trkpt lat="43.1442933" lon="2.1505333"><ele>266.0</ele><time>2026-03-22T15:08:49.674Z</time></trkpt><trkpt lat="43.1443517" lon="2.1505867"><ele>266.0</ele><time>2026-03-22T15:08:50.674Z</time></trkpt><trkpt lat="43.14442" lon="2.150625"><ele>266.0</ele><time>2026-03-22T15:08:51.673Z</time></trkpt><trkpt lat="43.1445" lon="2.1506517"><ele>266.0</ele><time>2026-03-22T15:08:52.674Z</time></trkpt><trkpt lat="43.1445867" lon="2.1506733"><ele>266.0</ele><time>2026-03-22T15:08:53.674Z</time></trkpt><trkpt lat="43.1446733" lon="2.1506883"><ele>266.0</ele><time>2026-03-22T15:08:54.672Z</time></trkpt><trkpt lat="43.144755" lon="2.1506933"><ele>266.0</ele><time>2026-03-22T15:08:55.673Z</time></trkpt><trkpt lat="43.144825" lon="2.1506983"><ele>267.8</ele><time>2026-03-22T15:08:56.675Z</time></trkpt><trkpt lat="43.1449333" lon="2.15075"><ele>269.6</ele><time>2026-03-22T15:08:58.673Z</time></trkpt><trkpt lat="43.1450533" lon="2.15076"><ele>271.4</ele><time>2026-03-22T15:09:00.674Z</time></trkpt><trkpt lat="43.1451267" lon="2.1506917"><ele>273.2</ele><time>2026-03-22T15:09:02.673Z</time></trkpt><trkpt lat="43.1451533" lon="2.1505483"><ele>275.0</ele><time>2026-03-22T15:09:04.673Z</time></trkpt><trkpt lat="43.145175" lon="2.1504517"><ele>276.5</ele><time>2026-03-22T15:09:05.673Z</time></trkpt><trkpt lat="43.1452033" lon="2.150345"><ele>278.0</ele><time>2026-03-22T15:09:06.673Z</time></trkpt><trkpt lat="43.1452283" lon="2.1502517"><ele>279.5</ele><time>2026-03-22T15:09:07.673Z</time></trkpt><trkpt lat="43.14525" lon="2.15011"><ele>281.0</ele><time>2026-03-22T15:09:09.676Z</time></trkpt><trkpt lat="43.1452717" lon="2.1499933"><ele>282.5</ele><time>2026-03-22T15:09:12.676Z</time></trkpt><trkpt lat="43.145285" lon="2.14987"><ele>284.0</ele><time>2026-03-22T15:09:14.674Z</time></trkpt><trkpt lat="43.1452633" lon="2.1497083"><ele>284.2</ele><time>2026-03-22T15:09:16.673Z</time></trkpt><trkpt lat="43.1452717" lon="2.1495667"><ele>284.4</ele><time>2026-03-22T15:09:18.675Z</time></trkpt><trkpt lat="43.145295" lon="2.149445"><ele>284.6</ele><time>2026-03-22T15:09:21.675Z</time></trkpt><trkpt lat="43.145335" lon="2.1493033"><ele>284.8</ele><time>2026-03-22T15:09:23.676Z</time></trkpt><trkpt lat="43.1453717" lon="2.149135"><ele>285.0</ele><time>2026-03-22T15:09:25.674Z</time></trkpt><trkpt lat="43.145365" lon="2.1490233"><ele>285.0</ele><time>2026-03-22T15:09:26.674Z</time></trkpt><trkpt lat="43.14535" lon="2.1489017"><ele>285.0</ele><time>2026-03-22T15:09:27.673Z</time></trkpt><trkpt lat="43.14533" lon="2.1487833"><ele>285.0</ele><time>2026-03-22T15:09:28.674Z</time></trkpt><trkpt lat="43.1453017" lon="2.1486617"><ele>285.0</ele><time>2026-03-22T15:09:29.675Z</time></trkpt><trkpt lat="43.1452783" lon="2.1485317"><ele>285.0</ele><time>2026-03-22T15:09:30.673Z</time></trkpt><trkpt lat="43.1452633" lon="2.1484033"><ele>285.0</ele><time>2026-03-22T15:09:31.673Z</time></trkpt><trkpt lat="43.1452483" lon="2.148285"><ele>285.0</ele><time>2026-03-22T15:09:32.676Z</time></trkpt><trkpt lat="43.1452333" lon="2.14818"><ele>285.0</ele><time>2026-03-22T15:09:33.673Z</time></trkpt><trkpt lat="43.1452183" lon="2.14808"><ele>285.0</ele><time>2026-03-22T15:09:34.673Z</time></trkpt><trkpt lat="43.145225" lon="2.147925"><ele>285.0</ele><time>2026-03-22T15:09:36.674Z</time></trkpt><trkpt lat="43.1452567" lon="2.1478233"><ele>285.0</ele><time>2026-03-22T15:09:38.676Z</time></trkpt><trkpt lat="43.1451983" lon="2.1477383"><ele>284.5</ele><time>2026-03-22T15:09:41.673Z</time></trkpt><trkpt lat="43.1451417" lon="2.147615"><ele>284.0</ele><time>2026-03-22T15:09:43.673Z</time></trkpt><trkpt lat="43.14513" lon="2.1474483"><ele>283.5</ele><time>2026-03-22T15:09:45.674Z</time></trkpt><trkpt lat="43.1451283" lon="2.1473483"><ele>283.0</ele><time>2026-03-22T15:09:46.673Z</time></trkpt><trkpt lat="43.14512" lon="2.1472533"><ele>282.5</ele><time>2026-03-22T15:09:47.672Z</time></trkpt><trkpt lat="43.1451033" lon="2.1471633"><ele>282.0</ele><time>2026-03-22T15:09:48.673Z</time></trkpt><trkpt lat="43.145075" lon="2.147"><ele>281.8</ele><time>2026-03-22T15:09:50.673Z</time></trkpt><trkpt lat="43.1450617" lon="2.14691"><ele>281.6</ele><time>2026-03-22T15:09:51.672Z</time></trkpt><trkpt lat="43.145025" lon="2.1467567"><ele>281.40000000000003</ele><time>2026-03-22T15:09:53.672Z</time></trkpt><trkpt lat="43.1449817" lon="2.1465917"><ele>281.2</ele><time>2026-03-22T15:09:55.674Z</time></trkpt><trkpt lat="43.14495" lon="2.1464933"><ele>281.0</ele><time>2026-03-22T15:09:56.673Z</time></trkpt><trkpt lat="43.144915" lon="2.1464"><ele>278.83333333333337</ele><time>2026-03-22T15:09:57.672Z</time></trkpt><trkpt lat="43.1448733" lon="2.1463167"><ele>276.6666666666667</ele><time>2026-03-22T15:09:58.674Z</time></trkpt><trkpt lat="43.1448433" lon="2.14624"><ele>274.5</ele><time>2026-03-22T15:09:59.672Z</time></trkpt><trkpt lat="43.1447683" lon="2.1461233"><ele>272.3333333333333</ele><time>2026-03-22T15:10:01.674Z</time></trkpt><trkpt lat="43.144685" lon="2.1460267"><ele>270.16666666666663</ele><time>2026-03-22T15:10:03.673Z</time></trkpt><trkpt lat="43.1446433" lon="2.145955"><ele>268.0</ele><time>2026-03-22T15:10:04.672Z</time></trkpt><trkpt lat="43.144605" lon="2.14588"><ele>268.0</ele><time>2026-03-22T15:10:05.673Z</time></trkpt><trkpt lat="43.1445633" lon="2.1458033"><ele>268.0</ele><time>2026-03-22T15:10:06.673Z</time></trkpt><trkpt lat="43.1444883" lon="2.1456683"><ele>268.0</ele><time>2026-03-22T15:10:08.674Z</time></trkpt><trkpt lat="43.14446" lon="2.14555"><ele>268.0</ele><time>2026-03-22T15:10:10.674Z</time></trkpt><trkpt lat="43.1444667" lon="2.1454217"><ele>268.0</ele><time>2026-03-22T15:10:12.672Z</time></trkpt><trkpt lat="43.1444667" lon="2.14528"><ele>268.0</ele><time>2026-03-22T15:10:14.672Z</time></trkpt><trkpt lat="43.14446" lon="2.1451633"><ele>268.0</ele><time>2026-03-22T15:10:16.675Z</time></trkpt><trkpt lat="43.1444783" lon="2.1450683"><ele>268.0</ele><time>2026-03-22T15:10:18.673Z</time></trkpt><trkpt lat="43.1444983" lon="2.144965"><ele>268.0</ele><time>2026-03-22T15:10:21.673Z</time></trkpt><trkpt lat="43.1444967" lon="2.14486"><ele>268.0</ele><time>2026-03-22T15:10:24.672Z</time></trkpt><trkpt lat="43.1444833" lon="2.1447617"><ele>268.0</ele><time>2026-03-22T15:10:27.673Z</time></trkpt><trkpt lat="43.1444883" lon="2.1446733"><ele>268.0</ele><time>2026-03-22T15:10:29.672Z</time></trkpt><trkpt lat="43.1445283" lon="2.144565"><ele>265.8333333333333</ele><time>2026-03-22T15:10:31.673Z</time></trkpt><trkpt lat="43.14458" lon="2.1444917"><ele>263.66666666666663</ele><time>2026-03-22T15:10:33.673Z</time></trkpt><trkpt lat="43.144655" lon="2.1445083"><ele>261.5</ele><time>2026-03-22T15:10:36.674Z</time></trkpt><trkpt lat="43.1447217" lon="2.1445033"><ele>259.3333333333333</ele><time>2026-03-22T15:10:39.673Z</time></trkpt><trkpt lat="43.14471" lon="2.1444183"><ele>257.1666666666667</ele><time>2026-03-22T15:10:44.674Z</time></trkpt><trkpt lat="43.1446217" lon="2.1443717"><ele>255.0</ele><time>2026-03-22T15:10:47.674Z</time></trkpt><trkpt lat="43.1445267" lon="2.14435"><ele>255.0</ele><time>2026-03-22T15:10:49.674Z</time></trkpt><trkpt lat="43.14446" lon="2.144415"><ele>255.00000000000003</ele><time>2026-03-22T15:10:51.675Z</time></trkpt><trkpt lat="43.1443833" lon="2.14444"><ele>255.0</ele><time>2026-03-22T15:10:54.672Z</time></trkpt><trkpt lat="43.1443133" lon="2.144415"><ele>255.0</ele><time>2026-03-22T15:10:56.675Z</time></trkpt><trkpt lat="43.144265" lon="2.1443383"><ele>255.00000000000003</ele><time>2026-03-22T15:10:58.674Z</time></trkpt><trkpt lat="43.1442483" lon="2.14425"><ele>255.0</ele><time>2026-03-22T15:11:00.673Z</time></trkpt><trkpt lat="43.1442617" lon="2.1441617"><ele>255.0</ele><time>2026-03-22T15:11:02.674Z</time></trkpt><trkpt lat="43.14423" lon="2.1440517"><ele>253.5</ele><time>2026-03-22T15:11:05.674Z</time></trkpt><trkpt lat="43.144195" lon="2.1439367"><ele>252.0</ele><time>2026-03-22T15:11:07.674Z</time></trkpt><trkpt lat="43.144175" lon="2.1438533"><ele>250.5</ele><time>2026-03-22T15:11:09.673Z</time></trkpt><trkpt lat="43.1441117" lon="2.1437517"><ele>249.0</ele><time>2026-03-22T15:11:12.676Z</time></trkpt><trkpt lat="43.1440833" lon="2.14367"><ele>247.5</ele><time>2026-03-22T15:11:14.675Z</time></trkpt><trkpt lat="43.1440483" lon="2.143595"><ele>246.0</ele><time>2026-03-22T15:11:16.674Z</time></trkpt><trkpt lat="43.14402" lon="2.1434833"><ele>246.0</ele><time>2026-03-22T15:11:19.677Z</time></trkpt><trkpt lat="43.1440517" lon="2.1433367"><ele>246.00000000000003</ele><time>2026-03-22T15:11:29.674Z</time></trkpt><trkpt lat="43.144095" lon="2.1432483"><ele>246.00000000000003</ele><time>2026-03-22T15:11:31.673Z</time></trkpt><trkpt lat="43.144125" lon="2.1431"><ele>246.0</ele><time>2026-03-22T15:11:33.673Z</time></trkpt><trkpt lat="43.1441667" lon="2.1429433"><ele>246.0</ele><time>2026-03-22T15:11:35.674Z</time></trkpt><trkpt lat="43.1442217" lon="2.1428"><ele>245.5</ele><time>2026-03-22T15:11:37.674Z</time></trkpt><trkpt lat="43.14427" lon="2.142655"><ele>245.0</ele><time>2026-03-22T15:11:39.672Z</time></trkpt><trkpt lat="43.14432" lon="2.1425033"><ele>244.5</ele><time>2026-03-22T15:11:41.673Z</time></trkpt><trkpt lat="43.1443483" lon="2.1424233"><ele>244.0</ele><time>2026-03-22T15:11:42.674Z</time></trkpt><trkpt lat="43.14437" lon="2.1423367"><ele>243.5</ele><time>2026-03-22T15:11:43.672Z</time></trkpt><trkpt lat="43.144395" lon="2.1422467"><ele>243.0</ele><time>2026-03-22T15:11:44.673Z</time></trkpt><trkpt lat="43.1444217" lon="2.1421567"><ele>242.85714285714283</ele><time>2026-03-22T15:11:45.673Z</time></trkpt><trkpt lat="43.144445" lon="2.142065"><ele>242.71428571428572</ele><time>2026-03-22T15:11:46.674Z</time></trkpt><trkpt lat="43.1444683" lon="2.1419733"><ele>242.57142857142856</ele><time>2026-03-22T15:11:47.674Z</time></trkpt><trkpt lat="43.1444933" lon="2.1418767"><ele>242.42857142857142</ele><time>2026-03-22T15:11:48.673Z</time></trkpt><trkpt lat="43.1445133" lon="2.14178"><ele>242.28571428571428</ele><time>2026-03-22T15:11:49.674Z</time></trkpt><trkpt lat="43.1445383" lon="2.1416917"><ele>242.14285714285714</ele><time>2026-03-22T15:11:50.675Z</time></trkpt><trkpt lat="43.1445733" lon="2.1416117"><ele>242.0</ele><time>2026-03-22T15:11:51.673Z</time></trkpt><trkpt lat="43.14462" lon="2.14154"><ele>241.85714285714283</ele><time>2026-03-22T15:11:52.673Z</time></trkpt><trkpt lat="43.1446733" lon="2.1414767"><ele>241.7142857142857</ele><time>2026-03-22T15:11:53.674Z</time></trkpt><trkpt lat="43.1447267" lon="2.1414117"><ele>241.57142857142856</ele><time>2026-03-22T15:11:54.673Z</time></trkpt><trkpt lat="43.1447767" lon="2.1413467"><ele>241.42857142857144</ele><time>2026-03-22T15:11:55.674Z</time></trkpt><trkpt lat="43.144815" lon="2.14127"><ele>241.2857142857143</ele><time>2026-03-22T15:11:56.675Z</time></trkpt><trkpt lat="43.1448533" lon="2.1411917"><ele>241.14285714285717</ele><time>2026-03-22T15:11:57.674Z</time></trkpt><trkpt lat="43.1449017" lon="2.1411217"><ele>241.0</ele><time>2026-03-22T15:11:58.677Z</time></trkpt><trkpt lat="43.1449533" lon="2.1410533"><ele>241.42857142857144</ele><time>2026-03-22T15:11:59.675Z</time></trkpt><trkpt lat="43.145015" lon="2.1409983"><ele>241.8571428571429</ele><time>2026-03-22T15:12:00.675Z</time></trkpt><trkpt lat="43.145075" lon="2.1409467"><ele>242.28571428571428</ele><time>2026-03-22T15:12:01.679Z</time></trkpt><trkpt lat="43.14513" lon="2.14089"><ele>242.71428571428572</ele><time>2026-03-22T15:12:02.677Z</time></trkpt><trkpt lat="43.14518" lon="2.1408233"><ele>243.14285714285714</ele><time>2026-03-22T15:12:03.678Z</time></trkpt><trkpt lat="43.14522" lon="2.140745"><ele>243.57142857142856</ele><time>2026-03-22T15:12:04.675Z</time></trkpt><trkpt lat="43.1452533" lon="2.1406567"><ele>243.99999999999997</ele><time>2026-03-22T15:12:05.676Z</time></trkpt><trkpt lat="43.145275" lon="2.14056"><ele>243.99999999999997</ele><time>2026-03-22T15:12:06.675Z</time></trkpt><trkpt lat="43.1452917" lon="2.1404667"><ele>244.0</ele><time>2026-03-22T15:12:07.674Z</time></trkpt><trkpt lat="43.1453083" lon="2.140375"><ele>244.0</ele><time>2026-03-22T15:12:08.674Z</time></trkpt><trkpt lat="43.1453233" lon="2.14028"><ele>244.0</ele><time>2026-03-22T15:12:09.674Z</time></trkpt><trkpt lat="43.14534" lon="2.1401783"><ele>243.99999999999997</ele><time>2026-03-22T15:12:10.675Z</time></trkpt><trkpt lat="43.14536" lon="2.14007"><ele>244.0</ele><time>2026-03-22T15:12:11.674Z</time></trkpt><trkpt lat="43.14539" lon="2.139955"><ele>243.39999999999998</ele><time>2026-03-22T15:12:12.675Z</time></trkpt><trkpt lat="43.1454233" lon="2.1398383"><ele>242.79999999999998</ele><time>2026-03-22T15:12:13.674Z</time></trkpt><trkpt lat="43.1454517" lon="2.1397133"><ele>242.20000000000002</ele><time>2026-03-22T15:12:14.675Z</time></trkpt><trkpt lat="43.1454767" lon="2.13958"><ele>241.60000000000002</ele><time>2026-03-22T15:12:15.675Z</time></trkpt><trkpt lat="43.1455067" lon="2.1394367"><ele>241.0</ele><time>2026-03-22T15:12:16.673Z</time></trkpt><trkpt lat="43.1455383" lon="2.139295"><ele>241.0</ele><time>2026-03-22T15:12:17.674Z</time></trkpt><trkpt lat="43.1455733" lon="2.1391633"><ele>241.00000000000003</ele><time>2026-03-22T15:12:18.674Z</time></trkpt><trkpt lat="43.1456117" lon="2.1390317"><ele>241.00000000000003</ele><time>2026-03-22T15:12:19.677Z</time></trkpt><trkpt lat="43.1456417" lon="2.1389"><ele>241.0</ele><time>2026-03-22T15:12:20.674Z</time></trkpt><trkpt lat="43.1456517" lon="2.13878"><ele>241.0</ele><time>2026-03-22T15:12:21.674Z</time></trkpt><trkpt lat="43.14564" lon="2.138675"><ele>241.75</ele><time>2026-03-22T15:12:22.674Z</time></trkpt><trkpt lat="43.145615" lon="2.1385283"><ele>242.5</ele><time>2026-03-22T15:12:24.674Z</time></trkpt><trkpt lat="43.145655" lon="2.13839"><ele>243.25</ele><time>2026-03-22T15:12:27.673Z</time></trkpt><trkpt lat="43.145775" lon="2.1382983"><ele>244.0</ele><time>2026-03-22T15:12:29.674Z</time></trkpt><trkpt lat="43.1458567" lon="2.1382267"><ele>244.0</ele><time>2026-03-22T15:12:30.673Z</time></trkpt><trkpt lat="43.1459233" lon="2.1381467"><ele>243.99999999999997</ele><time>2026-03-22T15:12:31.673Z</time></trkpt><trkpt lat="43.1459783" lon="2.1380783"><ele>243.99999999999997</ele><time>2026-03-22T15:12:32.675Z</time></trkpt><trkpt lat="43.146065" lon="2.1380483"><ele>244.0</ele><time>2026-03-22T15:12:34.673Z</time></trkpt><trkpt lat="43.1461683" lon="2.138145"><ele>244.0</ele><time>2026-03-22T15:12:36.674Z</time></trkpt><trkpt lat="43.1462367" lon="2.1382283"><ele>244.0</ele><time>2026-03-22T15:12:37.672Z</time></trkpt><trkpt lat="43.146315" lon="2.1383083"><ele>243.99999999999997</ele><time>2026-03-22T15:12:38.674Z</time></trkpt><trkpt lat="43.1464133" lon="2.138375"><ele>243.99999999999997</ele><time>2026-03-22T15:12:39.672Z</time></trkpt><trkpt lat="43.14652" lon="2.1384383"><ele>244.0</ele><time>2026-03-22T15:12:40.674Z</time></trkpt><trkpt lat="43.146625" lon="2.1385"><ele>244.0</ele><time>2026-03-22T15:12:41.672Z</time></trkpt><trkpt lat="43.1467233" lon="2.138545"><ele>245.83333333333331</ele><time>2026-03-22T15:12:42.67Z</time></trkpt><trkpt lat="43.1467933" lon="2.138575"><ele>247.66666666666666</ele><time>2026-03-22T15:12:43.676Z</time></trkpt><trkpt lat="43.146875" lon="2.13862"><ele>249.5</ele><time>2026-03-22T15:12:45.672Z</time></trkpt><trkpt lat="43.1468917" lon="2.1387267"><ele>251.33333333333331</ele><time>2026-03-22T15:12:47.678Z</time></trkpt><trkpt lat="43.1468583" lon="2.1388133"><ele>253.16666666666666</ele><time>2026-03-22T15:12:48.674Z</time></trkpt><trkpt lat="43.146825" lon="2.1389133"><ele>255.0</ele><time>2026-03-22T15:12:49.674Z</time></trkpt><trkpt lat="43.1467867" lon="2.139025"><ele>255.8</ele><time>2026-03-22T15:12:50.674Z</time></trkpt><trkpt lat="43.1467333" lon="2.1391233"><ele>256.6</ele><time>2026-03-22T15:12:51.674Z</time></trkpt><trkpt lat="43.1466833" lon="2.1392217"><ele>257.4</ele><time>2026-03-22T15:12:52.674Z</time></trkpt><trkpt lat="43.1466417" lon="2.1393283"><ele>258.2</ele><time>2026-03-22T15:12:53.673Z</time></trkpt><trkpt lat="43.146605" lon="2.1394267"><ele>259.0</ele><time>2026-03-22T15:12:54.673Z</time></trkpt><trkpt lat="43.1465533" lon="2.1395683"><ele>259.0</ele><time>2026-03-22T15:12:56.673Z</time></trkpt><trkpt lat="43.1464983" lon="2.13963"><ele>249.0</ele><time>2026-03-22T15:12:58.672Z</time></trkpt></trkseg><trkseg><trkpt lat="43.1464583" lon="2.1397"><ele>249.0</ele><time>2026-03-22T15:36:44.676Z</time></trkpt><trkpt lat="43.146515" lon="2.1396133"><ele>249.0</ele><time>2026-03-22T15:36:47.677Z</time></trkpt><trkpt lat="43.14657" lon="2.13947"><ele>249.0</ele><time>2026-03-22T15:36:49.675Z</time></trkpt><trkpt lat="43.146605" lon="2.1393833"><ele>249.0</ele><time>2026-03-22T15:36:50.676Z</time></trkpt><trkpt lat="43.1466417" lon="2.1392933"><ele>249.0</ele><time>2026-03-22T15:36:51.674Z</time></trkpt><trkpt lat="43.1466767" lon="2.1392067"><ele>249.0</ele><time>2026-03-22T15:36:52.675Z</time></trkpt><trkpt lat="43.14674" lon="2.1390717"><ele>250.0</ele><time>2026-03-22T15:36:54.675Z</time></trkpt><trkpt lat="43.1467917" lon="2.1389417"><ele>251.0</ele><time>2026-03-22T15:36:56.676Z</time></trkpt><trkpt lat="43.14684" lon="2.13883"><ele>252.0</ele><time>2026-03-22T15:36:58.674Z</time></trkpt><trkpt lat="43.14688" lon="2.1387417"><ele>253.0</ele><time>2026-03-22T15:37:00.675Z</time></trkpt><trkpt lat="43.146905" lon="2.1386533"><ele>254.0</ele><time>2026-03-22T15:37:02.676Z</time></trkpt><trkpt lat="43.1468517" lon="2.1385833"><ele>255.0</ele><time>2026-03-22T15:37:04.676Z</time></trkpt><trkpt lat="43.14678" lon="2.1385583"><ele>255.0</ele><time>2026-03-22T15:37:05.676Z</time></trkpt><trkpt lat="43.1467067" lon="2.1385317"><ele>255.0</ele><time>2026-03-22T15:37:06.678Z</time></trkpt><trkpt lat="43.1466317" lon="2.1384933"><ele>255.0</ele><time>2026-03-22T15:37:07.675Z</time></trkpt><trkpt lat="43.1465483" lon="2.13846"><ele>255.0</ele><time>2026-03-22T15:37:08.676Z</time></trkpt><trkpt lat="43.1464717" lon="2.138425"><ele>255.0</ele><time>2026-03-22T15:37:09.678Z</time></trkpt><trkpt lat="43.1463933" lon="2.1383817"><ele>255.0</ele><time>2026-03-22T15:37:10.675Z</time></trkpt><trkpt lat="43.1463233" lon="2.1383333"><ele>253.16666666666666</ele><time>2026-03-22T15:37:11.676Z</time></trkpt><trkpt lat="43.1462583" lon="2.1382783"><ele>251.33333333333331</ele><time>2026-03-22T15:37:12.675Z</time></trkpt><trkpt lat="43.1462017" lon="2.13822"><ele>249.5</ele><time>2026-03-22T15:37:13.675Z</time></trkpt><trkpt lat="43.14613" lon="2.1381333"><ele>247.66666666666666</ele><time>2026-03-22T15:37:15.675Z</time></trkpt><trkpt lat="43.146075" lon="2.138075"><ele>245.83333333333331</ele><time>2026-03-22T15:37:17.674Z</time></trkpt><trkpt lat="43.145995" lon="2.138095"><ele>244.0</ele><time>2026-03-22T15:37:20.675Z</time></trkpt><trkpt lat="43.1458883" lon="2.1382033"><ele>243.99999999999997</ele><time>2026-03-22T15:37:22.678Z</time></trkpt><trkpt lat="43.145825" lon="2.1382717"><ele>244.0</ele><time>2026-03-22T15:37:23.678Z</time></trkpt><trkpt lat="43.1457617" lon="2.13833"><ele>244.0</ele><time>2026-03-22T15:37:24.678Z</time></trkpt><trkpt lat="43.1457017" lon="2.138375"><ele>244.0</ele><time>2026-03-22T15:37:25.674Z</time></trkpt><trkpt lat="43.1456217" lon="2.1384517"><ele>243.99999999999997</ele><time>2026-03-22T15:37:27.675Z</time></trkpt><trkpt lat="43.14562" lon="2.1385683"><ele>244.0</ele><time>2026-03-22T15:37:29.677Z</time></trkpt><trkpt lat="43.1456383" lon="2.1386567"><ele>243.49999999999997</ele><time>2026-03-22T15:37:30.675Z</time></trkpt><trkpt lat="43.1456533" lon="2.138755"><ele>243.0</ele><time>2026-03-22T15:37:31.677Z</time></trkpt><trkpt lat="43.1456517" lon="2.1388617"><ele>242.5</ele><time>2026-03-22T15:37:32.675Z</time></trkpt><trkpt lat="43.1456367" lon="2.1389717"><ele>242.0</ele><time>2026-03-22T15:37:33.678Z</time></trkpt><trkpt lat="43.1456033" lon="2.139085"><ele>241.49999999999997</ele><time>2026-03-22T15:37:34.676Z</time></trkpt><trkpt lat="43.1455633" lon="2.1392"><ele>241.0</ele><time>2026-03-22T15:37:35.676Z</time></trkpt><trkpt lat="43.1455217" lon="2.139325"><ele>241.0</ele><time>2026-03-22T15:37:36.675Z</time></trkpt><trkpt lat="43.14549" lon="2.139465"><ele>241.0</ele><time>2026-03-22T15:37:37.675Z</time></trkpt><trkpt lat="43.1454633" lon="2.1396167"><ele>241.0</ele><time>2026-03-22T15:37:38.677Z</time></trkpt><trkpt lat="43.14543" lon="2.1397833"><ele>241.0</ele><time>2026-03-22T15:37:39.686Z</time></trkpt><trkpt lat="43.145395" lon="2.139955"><ele>241.75</ele><time>2026-03-22T15:37:40.673Z</time></trkpt><trkpt lat="43.1453517" lon="2.1401283"><ele>242.5</ele><time>2026-03-22T15:37:41.675Z</time></trkpt><trkpt lat="43.1453133" lon="2.1403"><ele>243.25</ele><time>2026-03-22T15:37:42.677Z</time></trkpt><trkpt lat="43.1452817" lon="2.1404533"><ele>244.0</ele><time>2026-03-22T15:37:43.675Z</time></trkpt><trkpt lat="43.14525" lon="2.1406033"><ele>244.39999999999998</ele><time>2026-03-22T15:37:44.675Z</time></trkpt><trkpt lat="43.1452117" lon="2.1407367"><ele>244.79999999999998</ele><time>2026-03-22T15:37:45.678Z</time></trkpt><trkpt lat="43.1451567" lon="2.14085"><ele>245.20000000000002</ele><time>2026-03-22T15:37:46.675Z</time></trkpt><trkpt lat="43.1450783" lon="2.14094"><ele>245.60000000000002</ele><time>2026-03-22T15:37:47.675Z</time></trkpt><trkpt lat="43.1449917" lon="2.1410183"><ele>246.0</ele><time>2026-03-22T15:37:48.673Z</time></trkpt><trkpt lat="43.1449133" lon="2.1410883"><ele>245.33333333333334</ele><time>2026-03-22T15:37:49.674Z</time></trkpt><trkpt lat="43.144845" lon="2.14118"><ele>244.66666666666669</ele><time>2026-03-22T15:37:50.676Z</time></trkpt><trkpt lat="43.14479" lon="2.1412833"><ele>244.0</ele><time>2026-03-22T15:37:51.675Z</time></trkpt><trkpt lat="43.144735" lon="2.1413967"><ele>243.33333333333334</ele><time>2026-03-22T15:37:52.673Z</time></trkpt><trkpt lat="43.144685" lon="2.141475"><ele>242.66666666666669</ele><time>2026-03-22T15:37:53.674Z</time></trkpt><trkpt lat="43.1446233" lon="2.1415483"><ele>242.0</ele><time>2026-03-22T15:37:54.673Z</time></trkpt><trkpt lat="43.1445717" lon="2.1416367"><ele>242.0</ele><time>2026-03-22T15:37:55.674Z</time></trkpt><trkpt lat="43.144525" lon="2.1417467"><ele>242.0</ele><time>2026-03-22T15:37:56.678Z</time></trkpt><trkpt lat="43.1444883" lon="2.1418683"><ele>242.0</ele><time>2026-03-22T15:37:57.674Z</time></trkpt><trkpt lat="43.1444517" lon="2.1420067"><ele>242.0</ele><time>2026-03-22T15:37:58.675Z</time></trkpt><trkpt lat="43.14441" lon="2.142155"><ele>242.0</ele><time>2026-03-22T15:37:59.674Z</time></trkpt><trkpt lat="43.144365" lon="2.1422983"><ele>242.2</ele><time>2026-03-22T15:38:00.678Z</time></trkpt><trkpt lat="43.1443167" lon="2.1424383"><ele>242.39999999999998</ele><time>2026-03-22T15:38:01.675Z</time></trkpt><trkpt lat="43.1442733" lon="2.14257"><ele>242.60000000000002</ele><time>2026-03-22T15:38:02.676Z</time></trkpt><trkpt lat="43.1442317" lon="2.1426967"><ele>242.8</ele><time>2026-03-22T15:38:03.676Z</time></trkpt><trkpt lat="43.1441933" lon="2.142815"><ele>243.0</ele><time>2026-03-22T15:38:04.676Z</time></trkpt><trkpt lat="43.1441617" lon="2.1429233"><ele>243.0</ele><time>2026-03-22T15:38:05.677Z</time></trkpt><trkpt lat="43.144135" lon="2.143025"><ele>243.0</ele><time>2026-03-22T15:38:06.677Z</time></trkpt><trkpt lat="43.1441117" lon="2.1431133"><ele>243.0</ele><time>2026-03-22T15:38:07.675Z</time></trkpt><trkpt lat="43.144075" lon="2.1432483"><ele>243.0</ele><time>2026-03-22T15:38:09.676Z</time></trkpt><trkpt lat="43.1440267" lon="2.1433383"><ele>243.0</ele><time>2026-03-22T15:38:12.677Z</time></trkpt><trkpt lat="43.1440083" lon="2.1434367"><ele>243.0</ele><time>2026-03-22T15:38:15.675Z</time></trkpt><trkpt lat="43.14404" lon="2.1435267"><ele>243.5</ele><time>2026-03-22T15:38:18.674Z</time></trkpt><trkpt lat="43.1440417" lon="2.1436283"><ele>244.0</ele><time>2026-03-22T15:38:20.675Z</time></trkpt><trkpt lat="43.144095" lon="2.1437333"><ele>244.5</ele><time>2026-03-22T15:38:23.674Z</time></trkpt><trkpt lat="43.1441383" lon="2.1438283"><ele>245.0</ele><time>2026-03-22T15:38:25.673Z</time></trkpt><trkpt lat="43.1441817" lon="2.143895"><ele>245.5</ele><time>2026-03-22T15:38:27.673Z</time></trkpt><trkpt lat="43.1442" lon="2.1440317"><ele>246.0</ele><time>2026-03-22T15:38:30.675Z</time></trkpt><trkpt lat="43.14421" lon="2.1441317"><ele>247.5</ele><time>2026-03-22T15:38:32.675Z</time></trkpt><trkpt lat="43.14422" lon="2.144265"><ele>249.0</ele><time>2026-03-22T15:38:35.677Z</time></trkpt><trkpt lat="43.1442567" lon="2.14437"><ele>250.5</ele><time>2026-03-22T15:38:38.676Z</time></trkpt><trkpt lat="43.14432" lon="2.1444083"><ele>252.0</ele><time>2026-03-22T15:38:40.673Z</time></trkpt><trkpt lat="43.144405" lon="2.1444117"><ele>253.5</ele><time>2026-03-22T15:38:42.673Z</time></trkpt><trkpt lat="43.1444617" lon="2.1443733"><ele>255.0</ele><time>2026-03-22T15:38:44.674Z</time></trkpt><trkpt lat="43.14453" lon="2.1443367"><ele>255.0</ele><time>2026-03-22T15:38:46.674Z</time></trkpt><trkpt lat="43.1446067" lon="2.1443483"><ele>255.00000000000003</ele><time>2026-03-22T15:38:48.674Z</time></trkpt><trkpt lat="43.144685" lon="2.1443883"><ele>255.0</ele><time>2026-03-22T15:38:50.674Z</time></trkpt><trkpt lat="43.144745" lon="2.144445"><ele>255.0</ele><time>2026-03-22T15:38:52.674Z</time></trkpt><trkpt lat="43.1447033" lon="2.1445133"><ele>255.00000000000003</ele><time>2026-03-22T15:38:55.675Z</time></trkpt><trkpt lat="43.1446433" lon="2.1444817"><ele>255.0</ele><time>2026-03-22T15:38:58.676Z</time></trkpt><trkpt lat="43.1445717" lon="2.144495"><ele>255.0</ele><time>2026-03-22T15:39:01.681Z</time></trkpt><trkpt lat="43.144525" lon="2.14456"><ele>255.0</ele><time>2026-03-22T15:39:03.674Z</time></trkpt><trkpt lat="43.14449" lon="2.14466"><ele>255.0</ele><time>2026-03-22T15:39:05.675Z</time></trkpt><trkpt lat="43.1444717" lon="2.1447817"><ele>255.0</ele><time>2026-03-22T15:39:08.679Z</time></trkpt><trkpt lat="43.144485" lon="2.1448967"><ele>255.0</ele><time>2026-03-22T15:39:11.675Z</time></trkpt><trkpt lat="43.1444883" lon="2.1450017"><ele>255.0</ele><time>2026-03-22T15:39:13.674Z</time></trkpt><trkpt lat="43.1444467" lon="2.1451267"><ele>255.0</ele><time>2026-03-22T15:39:16.673Z</time></trkpt><trkpt lat="43.14446" lon="2.1452783"><ele>257.6</ele><time>2026-03-22T15:39:18.674Z</time></trkpt><trkpt lat="43.1444783" lon="2.1454083"><ele>260.2</ele><time>2026-03-22T15:39:20.677Z</time></trkpt><trkpt lat="43.14447" lon="2.1455033"><ele>262.8</ele><time>2026-03-22T15:39:22.676Z</time></trkpt><trkpt lat="43.1444617" lon="2.1456083"><ele>265.4</ele><time>2026-03-22T15:39:24.679Z</time></trkpt><trkpt lat="43.1445133" lon="2.1457267"><ele>268.0</ele><time>2026-03-22T15:39:26.676Z</time></trkpt><trkpt lat="43.14459" lon="2.145865"><ele>268.0</ele><time>2026-03-22T15:39:28.675Z</time></trkpt><trkpt lat="43.1446333" lon="2.145935"><ele>268.0</ele><time>2026-03-22T15:39:29.675Z</time></trkpt><trkpt lat="43.14472" lon="2.146045"><ele>268.0</ele><time>2026-03-22T15:39:31.676Z</time></trkpt><trkpt lat="43.144805" lon="2.1461517"><ele>268.0</ele><time>2026-03-22T15:39:33.675Z</time></trkpt><trkpt lat="43.1448767" lon="2.1462933"><ele>268.0</ele><time>2026-03-22T15:39:35.675Z</time></trkpt><trkpt lat="43.14491" lon="2.1463717"><ele>270.16666666666663</ele><time>2026-03-22T15:39:36.676Z</time></trkpt><trkpt lat="43.144935" lon="2.1464517"><ele>272.3333333333333</ele><time>2026-03-22T15:39:37.675Z</time></trkpt><trkpt lat="43.14495" lon="2.1465367"><ele>274.5</ele><time>2026-03-22T15:39:38.678Z</time></trkpt><trkpt lat="43.144975" lon="2.14667"><ele>276.6666666666667</ele><time>2026-03-22T15:39:40.679Z</time></trkpt><trkpt lat="43.1449983" lon="2.1468033"><ele>278.83333333333337</ele><time>2026-03-22T15:39:42.677Z</time></trkpt><trkpt lat="43.1450367" lon="2.1469583"><ele>281.0</ele><time>2026-03-22T15:39:44.674Z</time></trkpt><trkpt lat="43.14506" lon="2.147115"><ele>281.0</ele><time>2026-03-22T15:39:46.675Z</time></trkpt><trkpt lat="43.14508" lon="2.14728"><ele>281.0</ele><time>2026-03-22T15:39:48.674Z</time></trkpt><trkpt lat="43.1450917" lon="2.14737"><ele>281.0</ele><time>2026-03-22T15:39:49.676Z</time></trkpt><trkpt lat="43.145115" lon="2.147525"><ele>281.0</ele><time>2026-03-22T15:39:51.674Z</time></trkpt><trkpt lat="43.145145" lon="2.1476767"><ele>281.0</ele><time>2026-03-22T15:39:53.674Z</time></trkpt><trkpt lat="43.1452067" lon="2.1477733"><ele>281.2</ele><time>2026-03-22T15:39:55.674Z</time></trkpt><trkpt lat="43.1452067" lon="2.1479067"><ele>281.40000000000003</ele><time>2026-03-22T15:39:58.674Z</time></trkpt><trkpt lat="43.1452117" lon="2.14809"><ele>281.6</ele><time>2026-03-22T15:40:00.676Z</time></trkpt><trkpt lat="43.145225" lon="2.148225"><ele>281.8</ele><time>2026-03-22T15:40:01.677Z</time></trkpt><trkpt lat="43.1452467" lon="2.14837"><ele>282.0</ele><time>2026-03-22T15:40:02.674Z</time></trkpt><trkpt lat="43.1452717" lon="2.1485167"><ele>282.6</ele><time>2026-03-22T15:40:03.675Z</time></trkpt><trkpt lat="43.145295" lon="2.1486683"><ele>283.2</ele><time>2026-03-22T15:40:04.675Z</time></trkpt><trkpt lat="43.1453167" lon="2.1488083"><ele>283.8</ele><time>2026-03-22T15:40:05.673Z</time></trkpt><trkpt lat="43.145335" lon="2.148925"><ele>284.4</ele><time>2026-03-22T15:40:06.674Z</time></trkpt><trkpt lat="43.1453517" lon="2.14902"><ele>285.0</ele><time>2026-03-22T15:40:07.674Z</time></trkpt><trkpt lat="43.145355" lon="2.1491683"><ele>285.1666666666667</ele><time>2026-03-22T15:40:09.675Z</time></trkpt><trkpt lat="43.14533" lon="2.1492867"><ele>285.3333333333333</ele><time>2026-03-22T15:40:11.675Z</time></trkpt><trkpt lat="43.1452983" lon="2.149395"><ele>285.5</ele><time>2026-03-22T15:40:13.673Z</time></trkpt><trkpt lat="43.1452833" lon="2.1495117"><ele>285.66666666666663</ele><time>2026-03-22T15:40:16.675Z</time></trkpt><trkpt lat="43.1452617" lon="2.149605"><ele>285.8333333333333</ele><time>2026-03-22T15:40:19.673Z</time></trkpt><trkpt lat="43.14526" lon="2.149725"><ele>286.0</ele><time>2026-03-22T15:40:21.674Z</time></trkpt><trkpt lat="43.1452733" lon="2.1498333"><ele>285.66666666666663</ele><time>2026-03-22T15:40:23.674Z</time></trkpt><trkpt lat="43.145275" lon="2.1499333"><ele>285.3333333333333</ele><time>2026-03-22T15:40:25.675Z</time></trkpt><trkpt lat="43.1452533" lon="2.1500167"><ele>285.0</ele><time>2026-03-22T15:40:27.673Z</time></trkpt><trkpt lat="43.14523" lon="2.15011"><ele>284.6666666666667</ele><time>2026-03-22T15:40:30.679Z</time></trkpt><trkpt lat="43.1452233" lon="2.1502067"><ele>284.33333333333337</ele><time>2026-03-22T15:40:32.68Z</time></trkpt><trkpt lat="43.1452" lon="2.1503217"><ele>284.0</ele><time>2026-03-22T15:40:34.675Z</time></trkpt><trkpt lat="43.14517" lon="2.1504517"><ele>284.0</ele><time>2026-03-22T15:40:36.674Z</time></trkpt><trkpt lat="43.1451417" lon="2.1505983"><ele>284.0</ele><time>2026-03-22T15:40:38.675Z</time></trkpt><trkpt lat="43.1451083" lon="2.1507133"><ele>284.0</ele><time>2026-03-22T15:40:40.673Z</time></trkpt><trkpt lat="43.1450417" lon="2.1507767"><ele>284.0</ele><time>2026-03-22T15:40:42.674Z</time></trkpt><trkpt lat="43.144935" lon="2.1507567"><ele>284.0</ele><time>2026-03-22T15:40:44.679Z</time></trkpt><trkpt lat="43.1448367" lon="2.1507017"><ele>280.4</ele><time>2026-03-22T15:40:46.673Z</time></trkpt><trkpt lat="43.1447183" lon="2.1506817"><ele>276.79999999999995</ele><time>2026-03-22T15:40:48.674Z</time></trkpt><trkpt lat="43.144655" lon="2.1506833"><ele>273.20000000000005</ele><time>2026-03-22T15:40:49.673Z</time></trkpt><trkpt lat="43.1445317" lon="2.1506567"><ele>269.6</ele><time>2026-03-22T15:40:51.675Z</time></trkpt><trkpt lat="43.1444117" lon="2.150625"><ele>266.0</ele><time>2026-03-22T15:40:53.676Z</time></trkpt><trkpt lat="43.14431" lon="2.15057"><ele>266.0</ele><time>2026-03-22T15:40:55.678Z</time></trkpt><trkpt lat="43.14423" lon="2.1504833"><ele>266.0</ele><time>2026-03-22T15:40:57.677Z</time></trkpt><trkpt lat="43.1441683" lon="2.15043"><ele>266.0</ele><time>2026-03-22T15:40:59.676Z</time></trkpt><trkpt lat="43.144105" lon="2.1503983"><ele>266.0</ele><time>2026-03-22T15:41:03.675Z</time></trkpt><trkpt lat="43.14408" lon="2.150495"><ele>266.0</ele><time>2026-03-22T15:41:06.674Z</time></trkpt><trkpt lat="43.1440667" lon="2.1506617"><ele>266.0</ele><time>2026-03-22T15:41:08.679Z</time></trkpt><trkpt lat="43.14405" lon="2.150775"><ele>265.5</ele><time>2026-03-22T15:41:09.675Z</time></trkpt><trkpt lat="43.14403" lon="2.1509033"><ele>265.0</ele><time>2026-03-22T15:41:10.673Z</time></trkpt><trkpt lat="43.1440117" lon="2.1510267"><ele>264.5</ele><time>2026-03-22T15:41:11.675Z</time></trkpt><trkpt lat="43.1439933" lon="2.1511417"><ele>264.0</ele><time>2026-03-22T15:41:12.675Z</time></trkpt><trkpt lat="43.1439767" lon="2.151245"><ele>263.5</ele><time>2026-03-22T15:41:13.676Z</time></trkpt><trkpt lat="43.1439567" lon="2.1513367"><ele>263.0</ele><time>2026-03-22T15:41:14.675Z</time></trkpt><trkpt lat="43.1439183" lon="2.1514867"><ele>263.1666666666667</ele><time>2026-03-22T15:41:16.674Z</time></trkpt><trkpt lat="43.1438867" lon="2.1515783"><ele>263.33333333333337</ele><time>2026-03-22T15:41:18.676Z</time></trkpt><trkpt lat="43.1438283" lon="2.15166"><ele>263.5</ele><time>2026-03-22T15:41:22.675Z</time></trkpt><trkpt lat="43.1437183" lon="2.1516417"><ele>263.6666666666667</ele><time>2026-03-22T15:41:24.673Z</time></trkpt><trkpt lat="43.1436333" lon="2.1516367"><ele>263.8333333333333</ele><time>2026-03-22T15:41:25.673Z</time></trkpt><trkpt lat="43.1435483" lon="2.151635"><ele>264.0</ele><time>2026-03-22T15:41:26.676Z</time></trkpt><trkpt lat="43.1434717" lon="2.1516317"><ele>264.0</ele><time>2026-03-22T15:41:27.675Z</time></trkpt><trkpt lat="43.1434033" lon="2.1516317"><ele>264.0</ele><time>2026-03-22T15:41:28.675Z</time></trkpt><trkpt lat="43.1432833" lon="2.151645"><ele>264.0</ele><time>2026-03-22T15:41:30.674Z</time></trkpt><trkpt lat="43.1431783" lon="2.15171"><ele>264.0</ele><time>2026-03-22T15:41:32.675Z</time></trkpt><trkpt lat="43.14313" lon="2.1517667"><ele>264.0</ele><time>2026-03-22T15:41:33.674Z</time></trkpt><trkpt lat="43.1430767" lon="2.1518367"><ele>264.0</ele><time>2026-03-22T15:41:34.675Z</time></trkpt><trkpt lat="43.143025" lon="2.151925"><ele>263.2</ele><time>2026-03-22T15:41:35.673Z</time></trkpt><trkpt lat="43.1429733" lon="2.152035"><ele>262.4</ele><time>2026-03-22T15:41:36.674Z</time></trkpt><trkpt lat="43.1429233" lon="2.1521517"><ele>261.6</ele><time>2026-03-22T15:41:37.674Z</time></trkpt><trkpt lat="43.1428767" lon="2.1522667"><ele>260.8</ele><time>2026-03-22T15:41:38.675Z</time></trkpt><trkpt lat="43.1428333" lon="2.152375"><ele>260.0</ele><time>2026-03-22T15:41:39.674Z</time></trkpt><trkpt lat="43.142795" lon="2.15248"><ele>259.6666666666667</ele><time>2026-03-22T15:41:40.673Z</time></trkpt><trkpt lat="43.1427583" lon="2.152575"><ele>259.33333333333337</ele><time>2026-03-22T15:41:41.675Z</time></trkpt><trkpt lat="43.14271" lon="2.15267"><ele>259.0</ele><time>2026-03-22T15:41:42.674Z</time></trkpt><trkpt lat="43.14267" lon="2.1527633"><ele>258.6666666666667</ele><time>2026-03-22T15:41:43.674Z</time></trkpt><trkpt lat="43.14263" lon="2.1528467"><ele>258.3333333333333</ele><time>2026-03-22T15:41:44.674Z</time></trkpt><trkpt lat="43.1425883" lon="2.1529233"><ele>258.0</ele><time>2026-03-22T15:41:45.675Z</time></trkpt><trkpt lat="43.1425433" lon="2.1529933"><ele>258.0</ele><time>2026-03-22T15:41:46.675Z</time></trkpt><trkpt lat="43.142465" lon="2.1531067"><ele>258.0</ele><time>2026-03-22T15:41:48.675Z</time></trkpt><trkpt lat="43.142405" lon="2.1531917"><ele>258.0</ele><time>2026-03-22T15:41:50.674Z</time></trkpt><trkpt lat="43.1423733" lon="2.1533383"><ele>258.0</ele><time>2026-03-22T15:41:53.676Z</time></trkpt><trkpt lat="43.14236" lon="2.1534267"><ele>258.0</ele><time>2026-03-22T15:41:54.673Z</time></trkpt><trkpt lat="43.1423433" lon="2.153515"><ele>258.0</ele><time>2026-03-22T15:41:55.674Z</time></trkpt><trkpt lat="43.1423017" lon="2.1536467"><ele>255.8</ele><time>2026-03-22T15:41:57.673Z</time></trkpt><trkpt lat="43.1422817" lon="2.1537883"><ele>253.60000000000002</ele><time>2026-03-22T15:41:59.673Z</time></trkpt><trkpt lat="43.1422567" lon="2.15392"><ele>251.39999999999998</ele><time>2026-03-22T15:42:01.673Z</time></trkpt><trkpt lat="43.1421933" lon="2.1539833"><ele>249.2</ele><time>2026-03-22T15:42:03.673Z</time></trkpt><trkpt lat="43.1420967" lon="2.1539533"><ele>247.0</ele><time>2026-03-22T15:42:05.672Z</time></trkpt><trkpt lat="43.141995" lon="2.1538883"><ele>246.99999999999997</ele><time>2026-03-22T15:42:07.676Z</time></trkpt><trkpt lat="43.1418933" lon="2.15384"><ele>247.0</ele><time>2026-03-22T15:42:09.673Z</time></trkpt><trkpt lat="43.14181" lon="2.1538117"><ele>247.0</ele><time>2026-03-22T15:42:11.675Z</time></trkpt><trkpt lat="43.14176" lon="2.1537383"><ele>247.0</ele><time>2026-03-22T15:42:13.674Z</time></trkpt><trkpt lat="43.1417617" lon="2.1536267"><ele>246.99999999999997</ele><time>2026-03-22T15:42:15.677Z</time></trkpt><trkpt lat="43.1418067" lon="2.1535317"><ele>247.0</ele><time>2026-03-22T15:42:17.675Z</time></trkpt><trkpt lat="43.141895" lon="2.153475"><ele>246.99999999999997</ele><time>2026-03-22T15:42:19.675Z</time></trkpt><trkpt lat="43.1419783" lon="2.1533883"><ele>247.0</ele><time>2026-03-22T15:42:21.674Z</time></trkpt><trkpt lat="43.142075" lon="2.1533"><ele>247.0</ele><time>2026-03-22T15:42:23.675Z</time></trkpt><trkpt lat="43.1421317" lon="2.153255"><ele>247.0</ele><time>2026-03-22T15:42:24.672Z</time></trkpt><trkpt lat="43.1421867" lon="2.1531867"><ele>246.99999999999997</ele><time>2026-03-22T15:42:25.674Z</time></trkpt><trkpt lat="43.1422433" lon="2.153095"><ele>247.0</ele><time>2026-03-22T15:42:26.677Z</time></trkpt><trkpt lat="43.1423033" lon="2.153"><ele>248.0</ele><time>2026-03-22T15:42:27.675Z</time></trkpt><trkpt lat="43.1423667" lon="2.1529033"><ele>249.0</ele><time>2026-03-22T15:42:28.675Z</time></trkpt><trkpt lat="43.1424133" lon="2.152805"><ele>250.0</ele><time>2026-03-22T15:42:29.674Z</time></trkpt><trkpt lat="43.142465" lon="2.152725"><ele>251.0</ele><time>2026-03-22T15:42:30.673Z</time></trkpt><trkpt lat="43.14252" lon="2.1526217"><ele>252.0</ele><time>2026-03-22T15:42:31.673Z</time></trkpt><trkpt lat="43.1425833" lon="2.1525167"><ele>253.2</ele><time>2026-03-22T15:42:32.674Z</time></trkpt><trkpt lat="43.142645" lon="2.152405"><ele>254.39999999999998</ele><time>2026-03-22T15:42:33.674Z</time></trkpt><trkpt lat="43.142705" lon="2.152285"><ele>255.60000000000002</ele><time>2026-03-22T15:42:34.675Z</time></trkpt><trkpt lat="43.1427567" lon="2.15216"><ele>256.8</ele><time>2026-03-22T15:42:35.676Z</time></trkpt><trkpt lat="43.1428017" lon="2.1520433"><ele>258.0</ele><time>2026-03-22T15:42:36.674Z</time></trkpt><trkpt lat="43.1428467" lon="2.1519433"><ele>258.3333333333333</ele><time>2026-03-22T15:42:37.674Z</time></trkpt><trkpt lat="43.142895" lon="2.15186"><ele>258.6666666666667</ele><time>2026-03-22T15:42:38.676Z</time></trkpt><trkpt lat="43.1429783" lon="2.1518233"><ele>259.0</ele><time>2026-03-22T15:42:40.674Z</time></trkpt><trkpt lat="43.1430117" lon="2.15193"><ele>259.33333333333337</ele><time>2026-03-22T15:42:42.674Z</time></trkpt><trkpt lat="43.143005" lon="2.1520183"><ele>259.6666666666667</ele><time>2026-03-22T15:42:43.675Z</time></trkpt><trkpt lat="43.1429683" lon="2.15213"><ele>260.0</ele><time>2026-03-22T15:42:44.674Z</time></trkpt><trkpt lat="43.1429167" lon="2.1522583"><ele>259.6</ele><time>2026-03-22T15:42:45.677Z</time></trkpt><trkpt lat="43.1428583" lon="2.1523967"><ele>259.2</ele><time>2026-03-22T15:42:46.674Z</time></trkpt><trkpt lat="43.1428033" lon="2.1525267"><ele>258.8</ele><time>2026-03-22T15:42:47.673Z</time></trkpt><trkpt lat="43.142745" lon="2.15265"><ele>258.4</ele><time>2026-03-22T15:42:48.673Z</time></trkpt><trkpt lat="43.14269" lon="2.152765"><ele>258.0</ele><time>2026-03-22T15:42:49.673Z</time></trkpt><trkpt lat="43.1426367" lon="2.1528667"><ele>258.0</ele><time>2026-03-22T15:42:50.673Z</time></trkpt><trkpt lat="43.14258" lon="2.1529533"><ele>258.0</ele><time>2026-03-22T15:42:51.673Z</time></trkpt><trkpt lat="43.1425267" lon="2.1530317"><ele>258.0</ele><time>2026-03-22T15:42:52.674Z</time></trkpt><trkpt lat="43.1424817" lon="2.153095"><ele>258.0</ele><time>2026-03-22T15:42:53.674Z</time></trkpt><trkpt lat="43.1424183" lon="2.1531883"><ele>258.0</ele><time>2026-03-22T15:42:55.676Z</time></trkpt><trkpt lat="43.14238" lon="2.15328"><ele>258.0</ele><time>2026-03-22T15:42:57.674Z</time></trkpt><trkpt lat="43.14237" lon="2.1534283"><ele>256.1666666666667</ele><time>2026-03-22T15:42:59.675Z</time></trkpt><trkpt lat="43.1423633" lon="2.1535267"><ele>254.33333333333331</ele><time>2026-03-22T15:43:00.673Z</time></trkpt><trkpt lat="43.1423383" lon="2.1536383"><ele>252.5</ele><time>2026-03-22T15:43:01.673Z</time></trkpt><trkpt lat="43.1423133" lon="2.15374"><ele>250.66666666666666</ele><time>2026-03-22T15:43:02.674Z</time></trkpt><trkpt lat="43.142295" lon="2.1538267"><ele>248.83333333333331</ele><time>2026-03-22T15:43:03.674Z</time></trkpt><trkpt lat="43.14225" lon="2.1539533"><ele>247.0</ele><time>2026-03-22T15:43:05.674Z</time></trkpt><trkpt lat="43.1421533" lon="2.1539817"><ele>247.0</ele><time>2026-03-22T15:43:07.673Z</time></trkpt><trkpt lat="43.1420883" lon="2.153955"><ele>247.0</ele><time>2026-03-22T15:43:08.673Z</time></trkpt><trkpt lat="43.14202" lon="2.1539133"><ele>247.0</ele><time>2026-03-22T15:43:09.672Z</time></trkpt><trkpt lat="43.14196" lon="2.1538733"><ele>247.0</ele><time>2026-03-22T15:43:10.672Z</time></trkpt><trkpt lat="43.1419" lon="2.1538417"><ele>247.0</ele><time>2026-03-22T15:43:11.673Z</time></trkpt><trkpt lat="43.14181" lon="2.1538167"><ele>247.0</ele><time>2026-03-22T15:43:13.674Z</time></trkpt><trkpt lat="43.14176" lon="2.1537333"><ele>247.0</ele><time>2026-03-22T15:43:15.674Z</time></trkpt><trkpt lat="43.1417567" lon="2.15361"><ele>246.99999999999997</ele><time>2026-03-22T15:43:17.673Z</time></trkpt><trkpt lat="43.1418017" lon="2.1535033"><ele>247.0</ele><time>2026-03-22T15:43:19.673Z</time></trkpt><trkpt lat="43.1418633" lon="2.15347"><ele>247.0</ele><time>2026-03-22T15:43:20.673Z</time></trkpt><trkpt lat="43.1419233" lon="2.153425"><ele>247.0</ele><time>2026-03-22T15:43:21.675Z</time></trkpt><trkpt lat="43.142025" lon="2.1533383"><ele>246.99999999999997</ele><time>2026-03-22T15:43:23.674Z</time></trkpt><trkpt lat="43.142085" lon="2.1532983"><ele>247.0</ele><time>2026-03-22T15:43:24.673Z</time></trkpt><trkpt lat="43.1421567" lon="2.1532417"><ele>248.0</ele><time>2026-03-22T15:43:25.673Z</time></trkpt><trkpt lat="43.1422333" lon="2.1531517"><ele>249.0</ele><time>2026-03-22T15:43:26.676Z</time></trkpt><trkpt lat="43.1423067" lon="2.1530217"><ele>250.0</ele><time>2026-03-22T15:43:27.672Z</time></trkpt><trkpt lat="43.1423683" lon="2.1528983"><ele>251.0</ele><time>2026-03-22T15:43:28.673Z</time></trkpt><trkpt lat="43.1424167" lon="2.1527967"><ele>252.0</ele><time>2026-03-22T15:43:29.672Z</time></trkpt><trkpt lat="43.1424667" lon="2.15271"><ele>253.2</ele><time>2026-03-22T15:43:30.672Z</time></trkpt><trkpt lat="43.1425267" lon="2.1526133"><ele>254.39999999999998</ele><time>2026-03-22T15:43:31.674Z</time></trkpt><trkpt lat="43.142595" lon="2.1525"><ele>255.60000000000002</ele><time>2026-03-22T15:43:32.673Z</time></trkpt><trkpt lat="43.1426617" lon="2.1523733"><ele>256.8</ele><time>2026-03-22T15:43:33.674Z</time></trkpt><trkpt lat="43.14272" lon="2.1522333"><ele>258.0</ele><time>2026-03-22T15:43:34.676Z</time></trkpt><trkpt lat="43.1427667" lon="2.1521067"><ele>258.2857142857143</ele><time>2026-03-22T15:43:35.681Z</time></trkpt><trkpt lat="43.1428117" lon="2.1520017"><ele>258.57142857142856</ele><time>2026-03-22T15:43:36.675Z</time></trkpt><trkpt lat="43.1428583" lon="2.1519133"><ele>258.8571428571429</ele><time>2026-03-22T15:43:37.673Z</time></trkpt><trkpt lat="43.1429017" lon="2.1518433"><ele>259.1428571428571</ele><time>2026-03-22T15:43:38.675Z</time></trkpt><trkpt lat="43.1429617" lon="2.1518033"><ele>259.42857142857144</ele><time>2026-03-22T15:43:39.674Z</time></trkpt><trkpt lat="43.1430367" lon="2.1517783"><ele>259.7142857142857</ele><time>2026-03-22T15:43:40.673Z</time></trkpt><trkpt lat="43.143105" lon="2.1517633"><ele>260.0</ele><time>2026-03-22T15:43:41.673Z</time></trkpt><trkpt lat="43.143175" lon="2.1517167"><ele>260.0</ele><time>2026-03-22T15:43:43.674Z</time></trkpt><trkpt lat="43.1431033" lon="2.1516717"><ele>260.0</ele><time>2026-03-22T15:43:54.673Z</time></trkpt><trkpt lat="43.1430133" lon="2.1517183"><ele>260.0</ele><time>2026-03-22T15:43:55.673Z</time></trkpt><trkpt lat="43.1429133" lon="2.151755"><ele>260.0</ele><time>2026-03-22T15:43:56.676Z</time></trkpt><trkpt lat="43.1427933" lon="2.151775"><ele>260.0</ele><time>2026-03-22T15:43:57.675Z</time></trkpt><trkpt lat="43.142675" lon="2.1517817"><ele>260.0</ele><time>2026-03-22T15:43:58.674Z</time></trkpt><trkpt lat="43.14255" lon="2.1517567"><ele>260.0</ele><time>2026-03-22T15:43:59.675Z</time></trkpt><trkpt lat="43.14242" lon="2.1517017"><ele>260.0</ele><time>2026-03-22T15:44:00.674Z</time></trkpt><trkpt lat="43.1422917" lon="2.151625"><ele>260.0</ele><time>2026-03-22T15:44:01.673Z</time></trkpt><trkpt lat="43.1421617" lon="2.1515367"><ele>258.75</ele><time>2026-03-22T15:44:02.676Z</time></trkpt><trkpt lat="43.1420283" lon="2.1514517"><ele>257.5</ele><time>2026-03-22T15:44:03.674Z</time></trkpt><trkpt lat="43.1418917" lon="2.1513783"><ele>256.25</ele><time>2026-03-22T15:44:04.675Z</time></trkpt><trkpt lat="43.1417583" lon="2.15132"><ele>255.0</ele><time>2026-03-22T15:44:05.675Z</time></trkpt><trkpt lat="43.141625" lon="2.15129"><ele>255.0</ele><time>2026-03-22T15:44:06.676Z</time></trkpt><trkpt lat="43.1414883" lon="2.1512967"><ele>255.0</ele><time>2026-03-22T15:44:07.674Z</time></trkpt><trkpt lat="43.14135" lon="2.151335"><ele>255.0</ele><time>2026-03-22T15:44:08.675Z</time></trkpt><trkpt lat="43.14122" lon="2.151385"><ele>255.0</ele><time>2026-03-22T15:44:09.673Z</time></trkpt><trkpt lat="43.1411017" lon="2.1514417"><ele>255.0</ele><time>2026-03-22T15:44:10.674Z</time></trkpt><trkpt lat="43.1410017" lon="2.1514983"><ele>255.0</ele><time>2026-03-22T15:44:11.677Z</time></trkpt><trkpt lat="43.1409183" lon="2.1515567"><ele>255.0</ele><time>2026-03-22T15:44:12.674Z</time></trkpt><trkpt lat="43.1408417" lon="2.1516133"><ele>255.0</ele><time>2026-03-22T15:44:13.673Z</time></trkpt><trkpt lat="43.140765" lon="2.1516633"><ele>255.0</ele><time>2026-03-22T15:44:14.673Z</time></trkpt><trkpt lat="43.1406783" lon="2.1517083"><ele>254.33333333333334</ele><time>2026-03-22T15:44:15.675Z</time></trkpt><trkpt lat="43.1405883" lon="2.15175"><ele>253.66666666666669</ele><time>2026-03-22T15:44:16.674Z</time></trkpt><trkpt lat="43.1405" lon="2.1517867"><ele>253.0</ele><time>2026-03-22T15:44:17.673Z</time></trkpt><trkpt lat="43.1404167" lon="2.1518083"><ele>252.33333333333334</ele><time>2026-03-22T15:44:18.674Z</time></trkpt><trkpt lat="43.1403367" lon="2.1518183"><ele>251.66666666666669</ele><time>2026-03-22T15:44:19.673Z</time></trkpt><trkpt lat="43.1402633" lon="2.1518267"><ele>251.0</ele><time>2026-03-22T15:44:20.674Z</time></trkpt><trkpt lat="43.1401933" lon="2.1518417"><ele>251.00000000000003</ele><time>2026-03-22T15:44:21.672Z</time></trkpt><trkpt lat="43.1401267" lon="2.1518867"><ele>251.0</ele><time>2026-03-22T15:44:22.673Z</time></trkpt><trkpt lat="43.1400617" lon="2.1519617"><ele>251.0</ele><time>2026-03-22T15:44:23.673Z</time></trkpt><trkpt lat="43.1400083" lon="2.1520533"><ele>251.0</ele><time>2026-03-22T15:44:24.673Z</time></trkpt><trkpt lat="43.1399533" lon="2.1521567"><ele>251.00000000000003</ele><time>2026-03-22T15:44:25.673Z</time></trkpt><trkpt lat="43.1398917" lon="2.15227"><ele>251.0</ele><time>2026-03-22T15:44:26.673Z</time></trkpt><trkpt lat="43.1398233" lon="2.1523867"><ele>249.8</ele><time>2026-03-22T15:44:27.675Z</time></trkpt><trkpt lat="43.1397517" lon="2.15251"><ele>248.60000000000002</ele><time>2026-03-22T15:44:28.673Z</time></trkpt><trkpt lat="43.1396833" lon="2.1526267"><ele>247.4</ele><time>2026-03-22T15:44:29.673Z</time></trkpt><trkpt lat="43.1396167" lon="2.1527367"><ele>246.2</ele><time>2026-03-22T15:44:30.673Z</time></trkpt><trkpt lat="43.1395517" lon="2.152845"><ele>245.0</ele><time>2026-03-22T15:44:31.674Z</time></trkpt><trkpt lat="43.1394967" lon="2.1529567"><ele>245.0</ele><time>2026-03-22T15:44:32.673Z</time></trkpt><trkpt lat="43.1394583" lon="2.153085"><ele>245.0</ele><time>2026-03-22T15:44:33.674Z</time></trkpt><trkpt lat="43.1394283" lon="2.153235"><ele>245.0</ele><time>2026-03-22T15:44:34.674Z</time></trkpt><trkpt lat="43.1393983" lon="2.1533883"><ele>245.0</ele><time>2026-03-22T15:44:35.673Z</time></trkpt><trkpt lat="43.1393667" lon="2.1535317"><ele>245.0</ele><time>2026-03-22T15:44:36.674Z</time></trkpt><trkpt lat="43.1393367" lon="2.1536717"><ele>244.5</ele><time>2026-03-22T15:44:37.674Z</time></trkpt><trkpt lat="43.139305" lon="2.1538167"><ele>244.0</ele><time>2026-03-22T15:44:38.673Z</time></trkpt><trkpt lat="43.1392667" lon="2.153965"><ele>243.5</ele><time>2026-03-22T15:44:39.673Z</time></trkpt><trkpt lat="43.13922" lon="2.1541117"><ele>243.0</ele><time>2026-03-22T15:44:40.674Z</time></trkpt><trkpt lat="43.1391683" lon="2.154255"><ele>241.8</ele><time>2026-03-22T15:44:41.674Z</time></trkpt><trkpt lat="43.1391133" lon="2.1543917"><ele>240.60000000000002</ele><time>2026-03-22T15:44:42.674Z</time></trkpt><trkpt lat="43.1390583" lon="2.154525"><ele>239.39999999999998</ele><time>2026-03-22T15:44:43.676Z</time></trkpt><trkpt lat="43.1390033" lon="2.1546533"><ele>238.2</ele><time>2026-03-22T15:44:44.674Z</time></trkpt><trkpt lat="43.138945" lon="2.1547833"><ele>237.0</ele><time>2026-03-22T15:44:45.674Z</time></trkpt><trkpt lat="43.1388783" lon="2.15492"><ele>235.75</ele><time>2026-03-22T15:44:46.674Z</time></trkpt><trkpt lat="43.1388067" lon="2.1550583"><ele>234.5</ele><time>2026-03-22T15:44:47.673Z</time></trkpt><trkpt lat="43.1387367" lon="2.1551917"><ele>233.25</ele><time>2026-03-22T15:44:48.672Z</time></trkpt><trkpt lat="43.1386683" lon="2.1553317"><ele>232.0</ele><time>2026-03-22T15:44:49.674Z</time></trkpt><trkpt lat="43.1386017" lon="2.1554633"><ele>232.0</ele><time>2026-03-22T15:44:50.673Z</time></trkpt><trkpt lat="43.13854" lon="2.15559"><ele>232.0</ele><time>2026-03-22T15:44:51.672Z</time></trkpt><trkpt lat="43.138485" lon="2.1557167"><ele>232.0</ele><time>2026-03-22T15:44:52.673Z</time></trkpt><trkpt lat="43.138435" lon="2.1558417"><ele>232.0</ele><time>2026-03-22T15:44:53.675Z</time></trkpt><trkpt lat="43.1383983" lon="2.1559667"><ele>232.0</ele><time>2026-03-22T15:44:54.673Z</time></trkpt><trkpt lat="43.1383733" lon="2.1560983"><ele>230.8</ele><time>2026-03-22T15:44:55.674Z</time></trkpt><trkpt lat="43.13836" lon="2.1562283"><ele>229.6</ele><time>2026-03-22T15:44:56.676Z</time></trkpt><trkpt lat="43.138345" lon="2.156355"><ele>228.40000000000003</ele><time>2026-03-22T15:44:57.676Z</time></trkpt><trkpt lat="43.1383267" lon="2.15648"><ele>227.20000000000002</ele><time>2026-03-22T15:44:58.673Z</time></trkpt><trkpt lat="43.1383033" lon="2.1566083"><ele>226.0</ele><time>2026-03-22T15:44:59.674Z</time></trkpt><trkpt lat="43.1382767" lon="2.15674"><ele>225.16666666666666</ele><time>2026-03-22T15:45:00.673Z</time></trkpt><trkpt lat="43.1382433" lon="2.1568617"><ele>224.33333333333331</ele><time>2026-03-22T15:45:01.674Z</time></trkpt><trkpt lat="43.13821" lon="2.1569717"><ele>223.5</ele><time>2026-03-22T15:45:02.673Z</time></trkpt><trkpt lat="43.1381883" lon="2.1570783"><ele>222.66666666666669</ele><time>2026-03-22T15:45:03.674Z</time></trkpt><trkpt lat="43.13818" lon="2.1571817"><ele>221.83333333333334</ele><time>2026-03-22T15:45:04.672Z</time></trkpt><trkpt lat="43.1381783" lon="2.1572717"><ele>221.0</ele><time>2026-03-22T15:45:05.674Z</time></trkpt><trkpt lat="43.1381717" lon="2.1573917"><ele>220.16666666666669</ele><time>2026-03-22T15:45:07.673Z</time></trkpt><trkpt lat="43.138105" lon="2.157475"><ele>219.33333333333334</ele><time>2026-03-22T15:45:11.672Z</time></trkpt><trkpt lat="43.137985" lon="2.1574867"><ele>218.5</ele><time>2026-03-22T15:45:13.674Z</time></trkpt><trkpt lat="43.1379133" lon="2.1574967"><ele>217.66666666666669</ele><time>2026-03-22T15:45:14.675Z</time></trkpt><trkpt lat="43.137835" lon="2.157505"><ele>216.83333333333334</ele><time>2026-03-22T15:45:15.674Z</time></trkpt><trkpt lat="43.1377533" lon="2.1575133"><ele>216.0</ele><time>2026-03-22T15:45:16.674Z</time></trkpt><trkpt lat="43.137675" lon="2.1575133"><ele>216.0</ele><time>2026-03-22T15:45:17.673Z</time></trkpt><trkpt lat="43.1376017" lon="2.157505"><ele>216.0</ele><time>2026-03-22T15:45:18.675Z</time></trkpt><trkpt lat="43.1375367" lon="2.1574867"><ele>216.0</ele><time>2026-03-22T15:45:19.674Z</time></trkpt><trkpt lat="43.13747" lon="2.157475"><ele>216.0</ele><time>2026-03-22T15:45:20.673Z</time></trkpt><trkpt lat="43.1373983" lon="2.1574617"><ele>216.0</ele><time>2026-03-22T15:45:21.672Z</time></trkpt><trkpt lat="43.13732" lon="2.15745"><ele>216.0</ele><time>2026-03-22T15:45:22.677Z</time></trkpt><trkpt lat="43.1372333" lon="2.1574433"><ele>216.0</ele><time>2026-03-22T15:45:23.674Z</time></trkpt><trkpt lat="43.1371417" lon="2.1574483"><ele>216.4</ele><time>2026-03-22T15:45:24.673Z</time></trkpt><trkpt lat="43.1370483" lon="2.1574683"><ele>216.8</ele><time>2026-03-22T15:45:25.673Z</time></trkpt><trkpt lat="43.1369467" lon="2.1574917"><ele>217.20000000000002</ele><time>2026-03-22T15:45:26.674Z</time></trkpt><trkpt lat="43.13684" lon="2.1575217"><ele>217.60000000000002</ele><time>2026-03-22T15:45:27.674Z</time></trkpt><trkpt lat="43.1367233" lon="2.1575617"><ele>218.0</ele><time>2026-03-22T15:45:28.673Z</time></trkpt><trkpt lat="43.136605" lon="2.15761"><ele>218.5</ele><time>2026-03-22T15:45:29.674Z</time></trkpt><trkpt lat="43.13649" lon="2.1576617"><ele>219.0</ele><time>2026-03-22T15:45:30.673Z</time></trkpt><trkpt lat="43.1363783" lon="2.1577117"><ele>219.5</ele><time>2026-03-22T15:45:31.675Z</time></trkpt><trkpt lat="43.1362733" lon="2.1577617"><ele>220.0</ele><time>2026-03-22T15:45:32.674Z</time></trkpt><trkpt lat="43.1361733" lon="2.15781"><ele>220.0</ele><time>2026-03-22T15:45:33.673Z</time></trkpt><trkpt lat="43.1360733" lon="2.157855"><ele>220.0</ele><time>2026-03-22T15:45:34.674Z</time></trkpt><trkpt lat="43.1359717" lon="2.15789"><ele>220.0</ele><time>2026-03-22T15:45:35.675Z</time></trkpt><trkpt lat="43.1358683" lon="2.15792"><ele>220.0</ele><time>2026-03-22T15:45:36.673Z</time></trkpt><trkpt lat="43.13576" lon="2.157935"><ele>220.0</ele><time>2026-03-22T15:45:37.674Z</time></trkpt><trkpt lat="43.1356533" lon="2.15794"><ele>220.0</ele><time>2026-03-22T15:45:38.673Z</time></trkpt><trkpt lat="43.135545" lon="2.1579333"><ele>220.0</ele><time>2026-03-22T15:45:39.68Z</time></trkpt><trkpt lat="43.1354367" lon="2.1579133"><ele>220.0</ele><time>2026-03-22T15:45:40.675Z</time></trkpt><trkpt lat="43.1353267" lon="2.1578817"><ele>220.0</ele><time>2026-03-22T15:45:41.675Z</time></trkpt><trkpt lat="43.135215" lon="2.157855"><ele>220.0</ele><time>2026-03-22T15:45:42.674Z</time></trkpt><trkpt lat="43.135105" lon="2.1578317"><ele>220.0</ele><time>2026-03-22T15:45:43.675Z</time></trkpt><trkpt lat="43.134995" lon="2.157805"><ele>220.0</ele><time>2026-03-22T15:45:44.676Z</time></trkpt><trkpt lat="43.1348817" lon="2.15778"><ele>220.0</ele><time>2026-03-22T15:45:45.68Z</time></trkpt><trkpt lat="43.1347667" lon="2.1577583"><ele>220.0</ele><time>2026-03-22T15:45:46.675Z</time></trkpt><trkpt lat="43.134645" lon="2.1577417"><ele>219.5</ele><time>2026-03-22T15:45:47.675Z</time></trkpt><trkpt lat="43.1345217" lon="2.157725"><ele>219.0</ele><time>2026-03-22T15:45:48.673Z</time></trkpt><trkpt lat="43.1344" lon="2.1576967"><ele>218.5</ele><time>2026-03-22T15:45:49.675Z</time></trkpt><trkpt lat="43.13428" lon="2.1576733"><ele>218.0</ele><time>2026-03-22T15:45:50.674Z</time></trkpt><trkpt lat="43.134155" lon="2.15766"><ele>217.0</ele><time>2026-03-22T15:45:51.672Z</time></trkpt><trkpt lat="43.1340283" lon="2.1576533"><ele>216.0</ele><time>2026-03-22T15:45:52.673Z</time></trkpt><trkpt lat="43.1338983" lon="2.15765"><ele>215.0</ele><time>2026-03-22T15:45:53.675Z</time></trkpt><trkpt lat="43.1337733" lon="2.15765"><ele>214.0</ele><time>2026-03-22T15:45:54.673Z</time></trkpt><trkpt lat="43.133655" lon="2.157645"><ele>214.0</ele><time>2026-03-22T15:45:55.673Z</time></trkpt><trkpt lat="43.1335417" lon="2.157635"><ele>213.99999999999997</ele><time>2026-03-22T15:45:56.675Z</time></trkpt><trkpt lat="43.1334367" lon="2.1576233"><ele>213.99999999999997</ele><time>2026-03-22T15:45:57.675Z</time></trkpt><trkpt lat="43.13334" lon="2.1576167"><ele>214.0</ele><time>2026-03-22T15:45:58.673Z</time></trkpt><trkpt lat="43.1332483" lon="2.1576083"><ele>214.0</ele><time>2026-03-22T15:45:59.673Z</time></trkpt><trkpt lat="43.1331667" lon="2.157605"><ele>213.66666666666666</ele><time>2026-03-22T15:46:00.673Z</time></trkpt><trkpt lat="43.133095" lon="2.1576083"><ele>213.33333333333331</ele><time>2026-03-22T15:46:01.674Z</time></trkpt><trkpt lat="43.132995" lon="2.1576667"><ele>213.0</ele><time>2026-03-22T15:46:03.672Z</time></trkpt><trkpt lat="43.13295" lon="2.1577917"><ele>212.66666666666669</ele><time>2026-03-22T15:46:05.674Z</time></trkpt><trkpt lat="43.1329483" lon="2.1578783"><ele>212.33333333333334</ele><time>2026-03-22T15:46:06.672Z</time></trkpt><trkpt lat="43.1329433" lon="2.1579767"><ele>212.0</ele><time>2026-03-22T15:46:07.676Z</time></trkpt><trkpt lat="43.13293" lon="2.1580883"><ele>211.8</ele><time>2026-03-22T15:46:08.676Z</time></trkpt><trkpt lat="43.132915" lon="2.1582133"><ele>211.6</ele><time>2026-03-22T15:46:09.672Z</time></trkpt><trkpt lat="43.1328967" lon="2.1583417"><ele>211.4</ele><time>2026-03-22T15:46:10.674Z</time></trkpt><trkpt lat="43.1328767" lon="2.1584783"><ele>211.20000000000002</ele><time>2026-03-22T15:46:11.674Z</time></trkpt><trkpt lat="43.1328583" lon="2.1586183"><ele>211.0</ele><time>2026-03-22T15:46:12.675Z</time></trkpt><trkpt lat="43.1328367" lon="2.1587633"><ele>211.0</ele><time>2026-03-22T15:46:13.673Z</time></trkpt><trkpt lat="43.1328167" lon="2.1589117"><ele>211.0</ele><time>2026-03-22T15:46:14.677Z</time></trkpt><trkpt lat="43.1327967" lon="2.1590467"><ele>211.0</ele><time>2026-03-22T15:46:15.675Z</time></trkpt><trkpt lat="43.1327783" lon="2.1591733"><ele>211.0</ele><time>2026-03-22T15:46:16.675Z</time></trkpt><trkpt lat="43.13276" lon="2.1592833"><ele>211.0</ele><time>2026-03-22T15:46:17.674Z</time></trkpt><trkpt lat="43.132745" lon="2.15938"><ele>210.83333333333331</ele><time>2026-03-22T15:46:18.675Z</time></trkpt><trkpt lat="43.1327267" lon="2.159465"><ele>210.66666666666666</ele><time>2026-03-22T15:46:19.674Z</time></trkpt><trkpt lat="43.132695" lon="2.1595967"><ele>210.5</ele><time>2026-03-22T15:46:21.673Z</time></trkpt><trkpt lat="43.1326967" lon="2.1596983"><ele>210.33333333333331</ele><time>2026-03-22T15:46:24.675Z</time></trkpt><trkpt lat="43.1327617" lon="2.15969"><ele>210.16666666666666</ele><time>2026-03-22T15:46:26.675Z</time></trkpt><trkpt lat="43.1328433" lon="2.1597283"><ele>210.0</ele><time>2026-03-22T15:46:28.674Z</time></trkpt><trkpt lat="43.1329733" lon="2.1597683"><ele>210.0</ele><time>2026-03-22T15:46:30.674Z</time></trkpt><trkpt lat="43.1330517" lon="2.159775"><ele>210.0</ele><time>2026-03-22T15:46:31.675Z</time></trkpt><trkpt lat="43.1331283" lon="2.15978"><ele>210.0</ele><time>2026-03-22T15:46:32.673Z</time></trkpt><trkpt lat="43.13321" lon="2.1597883"><ele>210.0</ele><time>2026-03-22T15:46:33.674Z</time></trkpt><trkpt lat="43.1333017" lon="2.1597933"><ele>210.0</ele><time>2026-03-22T15:46:34.676Z</time></trkpt><trkpt lat="43.1333883" lon="2.159805"><ele>210.0</ele><time>2026-03-22T15:46:35.674Z</time></trkpt><trkpt lat="43.1334717" lon="2.1598133"><ele>210.33333333333334</ele><time>2026-03-22T15:46:36.677Z</time></trkpt><trkpt lat="43.1335483" lon="2.1598233"><ele>210.66666666666669</ele><time>2026-03-22T15:46:37.673Z</time></trkpt><trkpt lat="43.1336183" lon="2.1598317"><ele>211.0</ele><time>2026-03-22T15:46:38.676Z</time></trkpt><trkpt lat="43.1336917" lon="2.1598383"><ele>211.33333333333334</ele><time>2026-03-22T15:46:39.675Z</time></trkpt><trkpt lat="43.1337683" lon="2.15983"><ele>211.66666666666669</ele><time>2026-03-22T15:46:40.675Z</time></trkpt><trkpt lat="43.13385" lon="2.1598033"><ele>212.0</ele><time>2026-03-22T15:46:41.678Z</time></trkpt><trkpt lat="43.1339467" lon="2.1597783"><ele>212.0</ele><time>2026-03-22T15:46:42.675Z</time></trkpt><trkpt lat="43.1340517" lon="2.15976"><ele>212.0</ele><time>2026-03-22T15:46:43.673Z</time></trkpt><trkpt lat="43.13416" lon="2.1597467"><ele>212.0</ele><time>2026-03-22T15:46:44.676Z</time></trkpt><trkpt lat="43.1342717" lon="2.159735"><ele>212.0</ele><time>2026-03-22T15:46:45.676Z</time></trkpt><trkpt lat="43.1343767" lon="2.1597183"><ele>212.0</ele><time>2026-03-22T15:46:46.673Z</time></trkpt><trkpt lat="43.1344717" lon="2.159695"><ele>212.00000000000003</ele><time>2026-03-22T15:46:47.674Z</time></trkpt><trkpt lat="43.1345533" lon="2.1596783"><ele>212.0</ele><time>2026-03-22T15:46:48.676Z</time></trkpt><trkpt lat="43.1346317" lon="2.1596733"><ele>212.0</ele><time>2026-03-22T15:46:49.675Z</time></trkpt><trkpt lat="43.1347167" lon="2.159685"><ele>212.0</ele><time>2026-03-22T15:46:50.677Z</time></trkpt><trkpt lat="43.1348" lon="2.1597417"><ele>212.00000000000003</ele><time>2026-03-22T15:46:51.677Z</time></trkpt><trkpt lat="43.1348767" lon="2.1598217"><ele>212.0</ele><time>2026-03-22T15:46:52.676Z</time></trkpt><trkpt lat="43.1349633" lon="2.15991"><ele>212.2</ele><time>2026-03-22T15:46:53.675Z</time></trkpt><trkpt lat="43.1350383" lon="2.160035"><ele>212.39999999999998</ele><time>2026-03-22T15:46:54.675Z</time></trkpt><trkpt lat="43.1351167" lon="2.1601417"><ele>212.60000000000002</ele><time>2026-03-22T15:46:55.677Z</time></trkpt><trkpt lat="43.1351867" lon="2.1602417"><ele>212.8</ele><time>2026-03-22T15:46:56.674Z</time></trkpt><trkpt lat="43.1352583" lon="2.1603483"><ele>213.0</ele><time>2026-03-22T15:46:57.674Z</time></trkpt><trkpt lat="43.1353217" lon="2.1604483"><ele>213.0</ele><time>2026-03-22T15:46:58.674Z</time></trkpt><trkpt lat="43.1353917" lon="2.1605383"><ele>213.0</ele><time>2026-03-22T15:46:59.674Z</time></trkpt><trkpt lat="43.1354667" lon="2.1606267"><ele>213.0</ele><time>2026-03-22T15:47:00.674Z</time></trkpt><trkpt lat="43.1355367" lon="2.160725"><ele>213.0</ele><time>2026-03-22T15:47:01.675Z</time></trkpt><trkpt lat="43.1356033" lon="2.16083"><ele>213.0</ele><time>2026-03-22T15:47:02.673Z</time></trkpt><trkpt lat="43.13567" lon="2.1609367"><ele>214.83333333333334</ele><time>2026-03-22T15:47:03.675Z</time></trkpt><trkpt lat="43.13573" lon="2.1610417"><ele>216.66666666666669</ele><time>2026-03-22T15:47:04.673Z</time></trkpt><trkpt lat="43.1357917" lon="2.1611283"><ele>218.5</ele><time>2026-03-22T15:47:05.672Z</time></trkpt><trkpt lat="43.1358583" lon="2.1611933"><ele>220.33333333333334</ele><time>2026-03-22T15:47:06.674Z</time></trkpt><trkpt lat="43.1359417" lon="2.1612417"><ele>222.16666666666669</ele><time>2026-03-22T15:47:07.674Z</time></trkpt><trkpt lat="43.1360183" lon="2.1612717"><ele>224.0</ele><time>2026-03-22T15:47:08.674Z</time></trkpt><trkpt lat="43.1360867" lon="2.1612933"><ele>224.0</ele><time>2026-03-22T15:47:09.675Z</time></trkpt><trkpt lat="43.1361883" lon="2.161385"><ele>224.0</ele><time>2026-03-22T15:47:11.673Z</time></trkpt><trkpt lat="43.1362167" lon="2.1615433"><ele>224.0</ele><time>2026-03-22T15:47:13.674Z</time></trkpt><trkpt lat="43.1362767" lon="2.16165"><ele>224.0</ele><time>2026-03-22T15:47:15.672Z</time></trkpt><trkpt lat="43.1363983" lon="2.1616667"><ele>224.83333333333334</ele><time>2026-03-22T15:47:17.675Z</time></trkpt><trkpt lat="43.1364667" lon="2.1616817"><ele>225.66666666666669</ele><time>2026-03-22T15:47:18.675Z</time></trkpt><trkpt lat="43.13654" lon="2.1617117"><ele>226.5</ele><time>2026-03-22T15:47:19.674Z</time></trkpt><trkpt lat="43.1366117" lon="2.1617533"><ele>227.33333333333331</ele><time>2026-03-22T15:47:20.675Z</time></trkpt><trkpt lat="43.136675" lon="2.1617917"><ele>228.16666666666666</ele><time>2026-03-22T15:47:21.674Z</time></trkpt><trkpt lat="43.1367567" lon="2.1618867"><ele>229.0</ele><time>2026-03-22T15:47:23.684Z</time></trkpt><trkpt lat="43.13678" lon="2.1620267"><ele>229.49999999999997</ele><time>2026-03-22T15:47:25.674Z</time></trkpt><trkpt lat="43.136835" lon="2.162185"><ele>230.0</ele><time>2026-03-22T15:47:27.672Z</time></trkpt><trkpt lat="43.1368883" lon="2.1622533"><ele>230.5</ele><time>2026-03-22T15:47:28.674Z</time></trkpt><trkpt lat="43.1369433" lon="2.1623167"><ele>231.0</ele><time>2026-03-22T15:47:29.672Z</time></trkpt><trkpt lat="43.137005" lon="2.162385"><ele>231.49999999999997</ele><time>2026-03-22T15:47:30.675Z</time></trkpt><trkpt lat="43.1370733" lon="2.1624533"><ele>232.0</ele><time>2026-03-22T15:47:31.674Z</time></trkpt><trkpt lat="43.1371317" lon="2.1625"><ele>233.16666666666666</ele><time>2026-03-22T15:47:32.674Z</time></trkpt><trkpt lat="43.1371983" lon="2.162575"><ele>234.33333333333331</ele><time>2026-03-22T15:47:34.675Z</time></trkpt><trkpt lat="43.1372217" lon="2.1627117"><ele>235.5</ele><time>2026-03-22T15:47:36.672Z</time></trkpt><trkpt lat="43.1372183" lon="2.1628"><ele>236.66666666666669</ele><time>2026-03-22T15:47:37.674Z</time></trkpt><trkpt lat="43.1372117" lon="2.1628967"><ele>237.83333333333334</ele><time>2026-03-22T15:47:38.674Z</time></trkpt><trkpt lat="43.1372" lon="2.1630117"><ele>239.0</ele><time>2026-03-22T15:47:39.672Z</time></trkpt><trkpt lat="43.1371883" lon="2.1631283"><ele>239.83333333333334</ele><time>2026-03-22T15:47:40.674Z</time></trkpt><trkpt lat="43.1371783" lon="2.1632417"><ele>240.66666666666669</ele><time>2026-03-22T15:47:41.673Z</time></trkpt><trkpt lat="43.13717" lon="2.16335"><ele>241.5</ele><time>2026-03-22T15:47:42.674Z</time></trkpt><trkpt lat="43.137165" lon="2.163445"><ele>242.33333333333331</ele><time>2026-03-22T15:47:43.672Z</time></trkpt><trkpt lat="43.1371683" lon="2.1635867"><ele>243.16666666666666</ele><time>2026-03-22T15:47:45.675Z</time></trkpt><trkpt lat="43.1372533" lon="2.1636333"><ele>244.0</ele><time>2026-03-22T15:47:47.68Z</time></trkpt><trkpt lat="43.1373233" lon="2.16364"><ele>243.79999999999998</ele><time>2026-03-22T15:47:48.674Z</time></trkpt><trkpt lat="43.1373933" lon="2.1636483"><ele>243.59999999999997</ele><time>2026-03-22T15:47:49.673Z</time></trkpt><trkpt lat="43.13749" lon="2.1637067"><ele>243.4</ele><time>2026-03-22T15:47:51.675Z</time></trkpt><trkpt lat="43.1375" lon="2.1638617"><ele>243.2</ele><time>2026-03-22T15:47:53.678Z</time></trkpt><trkpt lat="43.137485" lon="2.16397"><ele>243.0</ele><time>2026-03-22T15:47:54.673Z</time></trkpt><trkpt lat="43.1374733" lon="2.1640817"><ele>243.8</ele><time>2026-03-22T15:47:55.672Z</time></trkpt><trkpt lat="43.1374567" lon="2.1641917"><ele>244.60000000000002</ele><time>2026-03-22T15:47:56.673Z</time></trkpt><trkpt lat="43.1374283" lon="2.1643133"><ele>245.39999999999998</ele><time>2026-03-22T15:47:57.674Z</time></trkpt><trkpt lat="43.137395" lon="2.1644567"><ele>246.2</ele><time>2026-03-22T15:47:58.678Z</time></trkpt><trkpt lat="43.1373617" lon="2.1646033"><ele>247.0</ele><time>2026-03-22T15:47:59.673Z</time></trkpt><trkpt lat="43.13733" lon="2.164755"><ele>247.33333333333331</ele><time>2026-03-22T15:48:00.675Z</time></trkpt><trkpt lat="43.1372983" lon="2.1648917"><ele>247.66666666666666</ele><time>2026-03-22T15:48:01.674Z</time></trkpt><trkpt lat="43.13727" lon="2.165005"><ele>248.0</ele><time>2026-03-22T15:48:02.675Z</time></trkpt><trkpt lat="43.1372467" lon="2.1651117"><ele>248.33333333333331</ele><time>2026-03-22T15:48:03.674Z</time></trkpt><trkpt lat="43.137225" lon="2.1652133"><ele>248.66666666666666</ele><time>2026-03-22T15:48:04.672Z</time></trkpt><trkpt lat="43.1371967" lon="2.1652917"><ele>249.0</ele><time>2026-03-22T15:48:05.673Z</time></trkpt><trkpt lat="43.13713" lon="2.1653583"><ele>249.0</ele><time>2026-03-22T15:48:07.676Z</time></trkpt><trkpt lat="43.1370983" lon="2.1654583"><ele>248.99999999999997</ele><time>2026-03-22T15:48:12.675Z</time></trkpt><trkpt lat="43.137135" lon="2.165535"><ele>248.99999999999997</ele><time>2026-03-22T15:48:13.674Z</time></trkpt><trkpt lat="43.1371817" lon="2.1656383"><ele>249.0</ele><time>2026-03-22T15:48:14.675Z</time></trkpt><trkpt lat="43.1372333" lon="2.16577"><ele>249.0</ele><time>2026-03-22T15:48:15.674Z</time></trkpt><trkpt lat="43.13728" lon="2.165915"><ele>249.75</ele><time>2026-03-22T15:48:16.673Z</time></trkpt><trkpt lat="43.13733" lon="2.1660633"><ele>250.5</ele><time>2026-03-22T15:48:17.675Z</time></trkpt><trkpt lat="43.13739" lon="2.1662117"><ele>251.25</ele><time>2026-03-22T15:48:18.675Z</time></trkpt><trkpt lat="43.1374617" lon="2.1663567"><ele>252.0</ele><time>2026-03-22T15:48:19.674Z</time></trkpt><trkpt lat="43.1375367" lon="2.16649"><ele>252.39999999999998</ele><time>2026-03-22T15:48:20.675Z</time></trkpt><trkpt lat="43.1376067" lon="2.166615"><ele>252.79999999999998</ele><time>2026-03-22T15:48:21.676Z</time></trkpt><trkpt lat="43.1376783" lon="2.1667333"><ele>253.2</ele><time>2026-03-22T15:48:22.674Z</time></trkpt><trkpt lat="43.1377533" lon="2.1668417"><ele>253.6</ele><time>2026-03-22T15:48:23.676Z</time></trkpt><trkpt lat="43.13783" lon="2.1669333"><ele>254.0</ele><time>2026-03-22T15:48:24.675Z</time></trkpt><trkpt lat="43.1379033" lon="2.1670067"><ele>254.0</ele><time>2026-03-22T15:48:25.673Z</time></trkpt><trkpt lat="43.137985" lon="2.1670667"><ele>253.99999999999997</ele><time>2026-03-22T15:48:26.673Z</time></trkpt><trkpt lat="43.1380667" lon="2.1671167"><ele>253.99999999999997</ele><time>2026-03-22T15:48:27.674Z</time></trkpt><trkpt lat="43.1381567" lon="2.1671667"><ele>254.0</ele><time>2026-03-22T15:48:28.674Z</time></trkpt><trkpt lat="43.1382567" lon="2.16723"><ele>254.0</ele><time>2026-03-22T15:48:29.673Z</time></trkpt><trkpt lat="43.138355" lon="2.1673133"><ele>254.75</ele><time>2026-03-22T15:48:30.675Z</time></trkpt><trkpt lat="43.1384533" lon="2.1674033"><ele>255.5</ele><time>2026-03-22T15:48:31.673Z</time></trkpt><trkpt lat="43.1385617" lon="2.167495"><ele>256.25</ele><time>2026-03-22T15:48:32.675Z</time></trkpt><trkpt lat="43.13868" lon="2.1675867"><ele>257.0</ele><time>2026-03-22T15:48:33.673Z</time></trkpt><trkpt lat="43.1387967" lon="2.167675"><ele>257.0</ele><time>2026-03-22T15:48:34.673Z</time></trkpt><trkpt lat="43.1389" lon="2.1677717"><ele>257.0</ele><time>2026-03-22T15:48:35.674Z</time></trkpt><trkpt lat="43.1389917" lon="2.1678917"><ele>257.0</ele><time>2026-03-22T15:48:36.674Z</time></trkpt><trkpt lat="43.1390783" lon="2.1680333"><ele>257.0</ele><time>2026-03-22T15:48:37.674Z</time></trkpt><trkpt lat="43.13916" lon="2.1681783"><ele>257.0</ele><time>2026-03-22T15:48:38.674Z</time></trkpt><trkpt lat="43.13923" lon="2.1683167"><ele>257.0</ele><time>2026-03-22T15:48:39.677Z</time></trkpt><trkpt lat="43.1392883" lon="2.16845"><ele>257.0</ele><time>2026-03-22T15:48:40.673Z</time></trkpt><trkpt lat="43.1393417" lon="2.1685733"><ele>257.0</ele><time>2026-03-22T15:48:41.673Z</time></trkpt><trkpt lat="43.1393983" lon="2.1686833"><ele>257.0</ele><time>2026-03-22T15:48:42.675Z</time></trkpt><trkpt lat="43.1394617" lon="2.1687767"><ele>257.0</ele><time>2026-03-22T15:48:43.672Z</time></trkpt><trkpt lat="43.1395267" lon="2.16885"><ele>257.0</ele><time>2026-03-22T15:48:44.675Z</time></trkpt><trkpt lat="43.1396" lon="2.1689033"><ele>257.0</ele><time>2026-03-22T15:48:45.673Z</time></trkpt><trkpt lat="43.1396733" lon="2.1689533"><ele>257.0</ele><time>2026-03-22T15:48:46.673Z</time></trkpt><trkpt lat="43.1397433" lon="2.1690117"><ele>257.0</ele><time>2026-03-22T15:48:47.674Z</time></trkpt><trkpt lat="43.1398083" lon="2.1690767"><ele>257.0</ele><time>2026-03-22T15:48:48.674Z</time></trkpt><trkpt lat="43.139865" lon="2.16914"><ele>259.1666666666667</ele><time>2026-03-22T15:48:49.674Z</time></trkpt><trkpt lat="43.1399233" lon="2.169205"><ele>261.33333333333337</ele><time>2026-03-22T15:48:50.673Z</time></trkpt><trkpt lat="43.1399867" lon="2.1692667"><ele>263.5</ele><time>2026-03-22T15:48:51.673Z</time></trkpt><trkpt lat="43.1400583" lon="2.1693167"><ele>265.6666666666667</ele><time>2026-03-22T15:48:52.673Z</time></trkpt><trkpt lat="43.1401317" lon="2.1693633"><ele>267.8333333333333</ele><time>2026-03-22T15:48:53.673Z</time></trkpt><trkpt lat="43.14021" lon="2.169415"><ele>270.0</ele><time>2026-03-22T15:48:54.674Z</time></trkpt><trkpt lat="43.1402967" lon="2.1694767"><ele>270.0</ele><time>2026-03-22T15:48:55.674Z</time></trkpt><trkpt lat="43.1403833" lon="2.169555"><ele>270.0</ele><time>2026-03-22T15:48:56.675Z</time></trkpt><trkpt lat="43.14046" lon="2.16965"><ele>270.0</ele><time>2026-03-22T15:48:57.673Z</time></trkpt><trkpt lat="43.1405233" lon="2.1697333"><ele>270.0</ele><time>2026-03-22T15:48:58.674Z</time></trkpt><trkpt lat="43.1405833" lon="2.1698"><ele>270.0</ele><time>2026-03-22T15:48:59.68Z</time></trkpt><trkpt lat="43.1406467" lon="2.16986"><ele>270.0</ele><time>2026-03-22T15:49:00.674Z</time></trkpt><trkpt lat="43.1407183" lon="2.1699033"><ele>270.6</ele><time>2026-03-22T15:49:01.673Z</time></trkpt><trkpt lat="43.1407967" lon="2.1699333"><ele>271.2</ele><time>2026-03-22T15:49:02.673Z</time></trkpt><trkpt lat="43.14089" lon="2.169955"><ele>271.8</ele><time>2026-03-22T15:49:03.673Z</time></trkpt><trkpt lat="43.140985" lon="2.16999"><ele>272.4</ele><time>2026-03-22T15:49:04.674Z</time></trkpt><trkpt lat="43.1410717" lon="2.17004"><ele>273.0</ele><time>2026-03-22T15:49:05.683Z</time></trkpt><trkpt lat="43.1411483" lon="2.1700867"><ele>273.0</ele><time>2026-03-22T15:49:06.674Z</time></trkpt><trkpt lat="43.1412133" lon="2.17014"><ele>273.0</ele><time>2026-03-22T15:49:07.673Z</time></trkpt><trkpt lat="43.1412733" lon="2.170205"><ele>273.0</ele><time>2026-03-22T15:49:08.677Z</time></trkpt><trkpt lat="43.1413383" lon="2.1702783"><ele>273.0</ele><time>2026-03-22T15:49:09.674Z</time></trkpt><trkpt lat="43.1414133" lon="2.1703467"><ele>273.0</ele><time>2026-03-22T15:49:10.674Z</time></trkpt><trkpt lat="43.14149" lon="2.1704167"><ele>273.0</ele><time>2026-03-22T15:49:11.674Z</time></trkpt><trkpt lat="43.141575" lon="2.1704883"><ele>274.75</ele><time>2026-03-22T15:49:12.673Z</time></trkpt><trkpt lat="43.1416683" lon="2.1705633"><ele>276.5</ele><time>2026-03-22T15:49:13.673Z</time></trkpt><trkpt lat="43.1417683" lon="2.170635"><ele>278.25</ele><time>2026-03-22T15:49:14.674Z</time></trkpt><trkpt lat="43.141875" lon="2.1707033"><ele>280.0</ele><time>2026-03-22T15:49:15.682Z</time></trkpt><trkpt lat="43.1419833" lon="2.170765"><ele>280.0</ele><time>2026-03-22T15:49:16.673Z</time></trkpt><trkpt lat="43.1420933" lon="2.1708283"><ele>280.0</ele><time>2026-03-22T15:49:17.675Z</time></trkpt><trkpt lat="43.1422033" lon="2.1708917"><ele>280.0</ele><time>2026-03-22T15:49:18.675Z</time></trkpt><trkpt lat="43.1423117" lon="2.1709583"><ele>280.0</ele><time>2026-03-22T15:49:19.674Z</time></trkpt><trkpt lat="43.1424133" lon="2.1710283"><ele>282.16666666666663</ele><time>2026-03-22T15:49:20.678Z</time></trkpt><trkpt lat="43.1425" lon="2.1710867"><ele>284.3333333333333</ele><time>2026-03-22T15:49:21.675Z</time></trkpt><trkpt lat="43.1425733" lon="2.1711333"><ele>286.5</ele><time>2026-03-22T15:49:22.675Z</time></trkpt><trkpt lat="43.1426417" lon="2.1711817"><ele>288.6666666666667</ele><time>2026-03-22T15:49:23.673Z</time></trkpt><trkpt lat="43.1427133" lon="2.1712367"><ele>290.83333333333337</ele><time>2026-03-22T15:49:24.673Z</time></trkpt><trkpt lat="43.1427933" lon="2.17129"><ele>293.0</ele><time>2026-03-22T15:49:25.676Z</time></trkpt><trkpt lat="43.142865" lon="2.1713467"><ele>293.0</ele><time>2026-03-22T15:49:26.673Z</time></trkpt><trkpt lat="43.1429283" lon="2.1714033"><ele>293.0</ele><time>2026-03-22T15:49:27.674Z</time></trkpt><trkpt lat="43.14299" lon="2.171455"><ele>293.0</ele><time>2026-03-22T15:49:28.674Z</time></trkpt><trkpt lat="43.1430433" lon="2.1715217"><ele>293.0</ele><time>2026-03-22T15:49:29.674Z</time></trkpt><trkpt lat="43.143085" lon="2.1716083"><ele>293.0</ele><time>2026-03-22T15:49:30.675Z</time></trkpt><trkpt lat="43.1431233" lon="2.171685"><ele>293.0</ele><time>2026-03-22T15:49:31.675Z</time></trkpt><trkpt lat="43.1432117" lon="2.1717967"><ele>296.1666666666667</ele><time>2026-03-22T15:49:33.676Z</time></trkpt><trkpt lat="43.143275" lon="2.1718383"><ele>299.33333333333337</ele><time>2026-03-22T15:49:34.676Z</time></trkpt><trkpt lat="43.14335" lon="2.17188"><ele>302.5</ele><time>2026-03-22T15:49:35.673Z</time></trkpt><trkpt lat="43.1434267" lon="2.1719317"><ele>305.6666666666667</ele><time>2026-03-22T15:49:36.673Z</time></trkpt><trkpt lat="43.14351" lon="2.1719767"><ele>308.8333333333333</ele><time>2026-03-22T15:49:37.673Z</time></trkpt><trkpt lat="43.1435883" lon="2.1720267"><ele>312.0</ele><time>2026-03-22T15:49:38.674Z</time></trkpt><trkpt lat="43.1436583" lon="2.17207"><ele>312.0</ele><time>2026-03-22T15:49:39.673Z</time></trkpt><trkpt lat="43.1437783" lon="2.172115"><ele>312.0</ele><time>2026-03-22T15:49:41.673Z</time></trkpt><trkpt lat="43.1438683" lon="2.1721783"><ele>312.0</ele><time>2026-03-22T15:49:43.674Z</time></trkpt><trkpt lat="43.1439383" lon="2.17229"><ele>312.0</ele><time>2026-03-22T15:49:45.673Z</time></trkpt><trkpt lat="43.1439617" lon="2.1723717"><ele>312.0</ele><time>2026-03-22T15:49:46.673Z</time></trkpt><trkpt lat="43.1439883" lon="2.1724633"><ele>312.8333333333333</ele><time>2026-03-22T15:49:47.678Z</time></trkpt><trkpt lat="43.1440233" lon="2.172555"><ele>313.6666666666667</ele><time>2026-03-22T15:49:48.673Z</time></trkpt><trkpt lat="43.1440567" lon="2.172635"><ele>314.5</ele><time>2026-03-22T15:49:49.673Z</time></trkpt><trkpt lat="43.14409" lon="2.1727233"><ele>315.33333333333337</ele><time>2026-03-22T15:49:50.673Z</time></trkpt><trkpt lat="43.1441267" lon="2.1728283"><ele>316.1666666666667</ele><time>2026-03-22T15:49:51.673Z</time></trkpt><trkpt lat="43.1441733" lon="2.1729417"><ele>317.0</ele><time>2026-03-22T15:49:52.674Z</time></trkpt><trkpt lat="43.144205" lon="2.1730617"><ele>317.33333333333337</ele><time>2026-03-22T15:49:53.672Z</time></trkpt><trkpt lat="43.1442383" lon="2.1731817"><ele>317.6666666666667</ele><time>2026-03-22T15:49:54.673Z</time></trkpt><trkpt lat="43.1442833" lon="2.1733"><ele>318.0</ele><time>2026-03-22T15:49:55.672Z</time></trkpt><trkpt lat="43.1443267" lon="2.173405"><ele>318.3333333333333</ele><time>2026-03-22T15:49:56.673Z</time></trkpt><trkpt lat="43.1443633" lon="2.173505"><ele>318.66666666666663</ele><time>2026-03-22T15:49:57.673Z</time></trkpt><trkpt lat="43.1443917" lon="2.1735983"><ele>319.0</ele><time>2026-03-22T15:49:58.674Z</time></trkpt><trkpt lat="43.1444083" lon="2.1736833"><ele>321.25</ele><time>2026-03-22T15:49:59.674Z</time></trkpt><trkpt lat="43.14443" lon="2.1738267"><ele>323.5</ele><time>2026-03-22T15:50:01.674Z</time></trkpt><trkpt lat="43.1444667" lon="2.17397"><ele>325.75</ele><time>2026-03-22T15:50:03.673Z</time></trkpt><trkpt lat="43.1444817" lon="2.1741267"><ele>328.0</ele><time>2026-03-22T15:50:05.674Z</time></trkpt><trkpt lat="43.1445" lon="2.174285"><ele>328.8333333333333</ele><time>2026-03-22T15:50:07.673Z</time></trkpt><trkpt lat="43.14452" lon="2.1744517"><ele>329.66666666666663</ele><time>2026-03-22T15:50:09.674Z</time></trkpt><trkpt lat="43.1445317" lon="2.1745433"><ele>330.5</ele><time>2026-03-22T15:50:10.674Z</time></trkpt><trkpt lat="43.1445533" lon="2.1746433"><ele>331.3333333333333</ele><time>2026-03-22T15:50:11.673Z</time></trkpt><trkpt lat="43.14457" lon="2.1747417"><ele>332.1666666666667</ele><time>2026-03-22T15:50:12.673Z</time></trkpt><trkpt lat="43.1445967" lon="2.1748483"><ele>333.0</ele><time>2026-03-22T15:50:13.672Z</time></trkpt><trkpt lat="43.14463" lon="2.1749667"><ele>333.79999999999995</ele><time>2026-03-22T15:50:14.674Z</time></trkpt><trkpt lat="43.1446533" lon="2.1750833"><ele>334.6</ele><time>2026-03-22T15:50:15.672Z</time></trkpt><trkpt lat="43.1446767" lon="2.1751883"><ele>335.4</ele><time>2026-03-22T15:50:16.672Z</time></trkpt><trkpt lat="43.144695" lon="2.1752833"><ele>336.20000000000005</ele><time>2026-03-22T15:50:17.673Z</time></trkpt><trkpt lat="43.14473" lon="2.1754317"><ele>337.0</ele><time>2026-03-22T15:50:19.674Z</time></trkpt><trkpt lat="43.144805" lon="2.1755533"><ele>337.00000000000006</ele><time>2026-03-22T15:50:21.673Z</time></trkpt><trkpt lat="43.1448667" lon="2.175595"><ele>337.0</ele><time>2026-03-22T15:50:22.675Z</time></trkpt><trkpt lat="43.144925" lon="2.1756333"><ele>337.0</ele><time>2026-03-22T15:50:23.672Z</time></trkpt><trkpt lat="43.145" lon="2.1756367"><ele>337.0</ele><time>2026-03-22T15:50:24.673Z</time></trkpt><trkpt lat="43.1450767" lon="2.175625"><ele>337.0</ele><time>2026-03-22T15:50:25.673Z</time></trkpt><trkpt lat="43.14515" lon="2.1756217"><ele>337.00000000000006</ele><time>2026-03-22T15:50:26.673Z</time></trkpt><trkpt lat="43.145225" lon="2.1756417"><ele>337.0</ele><time>2026-03-22T15:50:27.673Z</time></trkpt><trkpt lat="43.1453" lon="2.1756867"><ele>336.3333333333333</ele><time>2026-03-22T15:50:28.675Z</time></trkpt><trkpt lat="43.145375" lon="2.1757483"><ele>335.66666666666663</ele><time>2026-03-22T15:50:29.672Z</time></trkpt><trkpt lat="43.1454417" lon="2.175805"><ele>335.0</ele><time>2026-03-22T15:50:30.672Z</time></trkpt><trkpt lat="43.145495" lon="2.1758533"><ele>334.3333333333333</ele><time>2026-03-22T15:50:31.672Z</time></trkpt><trkpt lat="43.1455467" lon="2.17593"><ele>333.6666666666667</ele><time>2026-03-22T15:50:33.673Z</time></trkpt><trkpt lat="43.14559" lon="2.1760433"><ele>333.0</ele><time>2026-03-22T15:50:36.674Z</time></trkpt><trkpt lat="43.145675" lon="2.17615"><ele>331.59999999999997</ele><time>2026-03-22T15:50:38.673Z</time></trkpt><trkpt lat="43.1457883" lon="2.1762067"><ele>330.2</ele><time>2026-03-22T15:50:40.672Z</time></trkpt><trkpt lat="43.14585" lon="2.1762267"><ele>328.8</ele><time>2026-03-22T15:50:41.674Z</time></trkpt><trkpt lat="43.1459617" lon="2.1762783"><ele>327.4</ele><time>2026-03-22T15:50:43.673Z</time></trkpt><trkpt lat="43.1460517" lon="2.17637"><ele>326.0</ele><time>2026-03-22T15:50:45.672Z</time></trkpt><trkpt lat="43.1460883" lon="2.1764433"><ele>327.6</ele><time>2026-03-22T15:50:46.672Z</time></trkpt><trkpt lat="43.1461217" lon="2.1765367"><ele>329.20000000000005</ele><time>2026-03-22T15:50:47.673Z</time></trkpt><trkpt lat="43.1461583" lon="2.17665"><ele>330.79999999999995</ele><time>2026-03-22T15:50:48.677Z</time></trkpt><trkpt lat="43.1461917" lon="2.1767817"><ele>332.4</ele><time>2026-03-22T15:50:49.674Z</time></trkpt><trkpt lat="43.1462283" lon="2.1769183"><ele>334.0</ele><time>2026-03-22T15:50:50.677Z</time></trkpt><trkpt lat="43.14626" lon="2.1770467"><ele>334.0</ele><time>2026-03-22T15:50:51.673Z</time></trkpt><trkpt lat="43.1462933" lon="2.1771617"><ele>334.0</ele><time>2026-03-22T15:50:52.675Z</time></trkpt><trkpt lat="43.1463233" lon="2.1772567"><ele>334.0</ele><time>2026-03-22T15:50:53.676Z</time></trkpt><trkpt lat="43.1463517" lon="2.1773383"><ele>334.0</ele><time>2026-03-22T15:50:54.674Z</time></trkpt><trkpt lat="43.1463867" lon="2.1774133"><ele>334.0</ele><time>2026-03-22T15:50:55.672Z</time></trkpt><trkpt lat="43.1464267" lon="2.1774817"><ele>334.0</ele><time>2026-03-22T15:50:56.674Z</time></trkpt><trkpt lat="43.1465117" lon="2.177615"><ele>332.57142857142856</ele><time>2026-03-22T15:50:58.673Z</time></trkpt><trkpt lat="43.14657" lon="2.1776933"><ele>331.14285714285717</ele><time>2026-03-22T15:50:59.672Z</time></trkpt><trkpt lat="43.1466317" lon="2.1777683"><ele>329.7142857142857</ele><time>2026-03-22T15:51:00.674Z</time></trkpt><trkpt lat="43.1466883" lon="2.1778333"><ele>328.2857142857143</ele><time>2026-03-22T15:51:01.674Z</time></trkpt><trkpt lat="43.146735" lon="2.1778917"><ele>326.85714285714283</ele><time>2026-03-22T15:51:02.676Z</time></trkpt><trkpt lat="43.1467833" lon="2.1779567"><ele>325.42857142857144</ele><time>2026-03-22T15:51:03.674Z</time></trkpt><trkpt lat="43.14683" lon="2.1780283"><ele>324.0</ele><time>2026-03-22T15:51:04.673Z</time></trkpt><trkpt lat="43.1468733" lon="2.1781067"><ele>325.2</ele><time>2026-03-22T15:51:05.676Z</time></trkpt><trkpt lat="43.1469067" lon="2.1782083"><ele>326.4</ele><time>2026-03-22T15:51:06.678Z</time></trkpt><trkpt lat="43.1469333" lon="2.178335"><ele>327.6</ele><time>2026-03-22T15:51:07.678Z</time></trkpt><trkpt lat="43.1469617" lon="2.178475"><ele>328.8</ele><time>2026-03-22T15:51:08.676Z</time></trkpt><trkpt lat="43.1469983" lon="2.1786133"><ele>330.0</ele><time>2026-03-22T15:51:09.673Z</time></trkpt><trkpt lat="43.1470317" lon="2.178745"><ele>330.0</ele><time>2026-03-22T15:51:10.673Z</time></trkpt><trkpt lat="43.1470583" lon="2.1788783"><ele>330.0</ele><time>2026-03-22T15:51:11.673Z</time></trkpt><trkpt lat="43.1470817" lon="2.1789967"><ele>330.0</ele><time>2026-03-22T15:51:12.673Z</time></trkpt><trkpt lat="43.1471" lon="2.1791033"><ele>330.0</ele><time>2026-03-22T15:51:13.673Z</time></trkpt><trkpt lat="43.147105" lon="2.1791917"><ele>330.0</ele><time>2026-03-22T15:51:14.674Z</time></trkpt><trkpt lat="43.1471" lon="2.1793183"><ele>330.0</ele><time>2026-03-22T15:51:16.673Z</time></trkpt><trkpt lat="43.1470967" lon="2.1794217"><ele>329.8333333333333</ele><time>2026-03-22T15:51:19.674Z</time></trkpt><trkpt lat="43.1470733" lon="2.1795033"><ele>329.6666666666667</ele><time>2026-03-22T15:51:22.675Z</time></trkpt><trkpt lat="43.1470267" lon="2.1795717"><ele>329.5</ele><time>2026-03-22T15:51:24.675Z</time></trkpt><trkpt lat="43.1469633" lon="2.17962"><ele>329.33333333333337</ele><time>2026-03-22T15:51:25.674Z</time></trkpt><trkpt lat="43.1468733" lon="2.1796883"><ele>329.1666666666667</ele><time>2026-03-22T15:51:26.673Z</time></trkpt><trkpt lat="43.146775" lon="2.1797867"><ele>329.0</ele><time>2026-03-22T15:51:27.675Z</time></trkpt><trkpt lat="43.1466833" lon="2.1798967"><ele>329.25</ele><time>2026-03-22T15:51:28.673Z</time></trkpt><trkpt lat="43.1465817" lon="2.1800383"><ele>329.5</ele><time>2026-03-22T15:51:29.673Z</time></trkpt><trkpt lat="43.14648" lon="2.1801867"><ele>329.75</ele><time>2026-03-22T15:51:30.676Z</time></trkpt><trkpt lat="43.146375" lon="2.1803367"><ele>330.0</ele><time>2026-03-22T15:51:31.672Z</time></trkpt><trkpt lat="43.1462683" lon="2.1804917"><ele>330.0</ele><time>2026-03-22T15:51:32.674Z</time></trkpt><trkpt lat="43.1461617" lon="2.1806517"><ele>330.0</ele><time>2026-03-22T15:51:33.674Z</time></trkpt><trkpt lat="43.1460633" lon="2.1808083"><ele>330.0</ele><time>2026-03-22T15:51:34.674Z</time></trkpt><trkpt lat="43.14597" lon="2.180955"><ele>330.0</ele><time>2026-03-22T15:51:35.672Z</time></trkpt><trkpt lat="43.1458867" lon="2.1810917"><ele>330.0</ele><time>2026-03-22T15:51:36.673Z</time></trkpt><trkpt lat="43.1458083" lon="2.1812333"><ele>330.0</ele><time>2026-03-22T15:51:37.676Z</time></trkpt><trkpt lat="43.14575" lon="2.181375"><ele>330.0</ele><time>2026-03-22T15:51:38.674Z</time></trkpt><trkpt lat="43.1457033" lon="2.1815317"><ele>330.0</ele><time>2026-03-22T15:51:39.68Z</time></trkpt><trkpt lat="43.145665" lon="2.1816833"><ele>330.0</ele><time>2026-03-22T15:51:40.673Z</time></trkpt><trkpt lat="43.14563" lon="2.18184"><ele>330.0</ele><time>2026-03-22T15:51:41.674Z</time></trkpt><trkpt lat="43.14558" lon="2.1819833"><ele>330.0</ele><time>2026-03-22T15:51:42.675Z</time></trkpt><trkpt lat="43.1455167" lon="2.182115"><ele>330.0</ele><time>2026-03-22T15:51:43.676Z</time></trkpt><trkpt lat="43.1454383" lon="2.182235"><ele>330.0</ele><time>2026-03-22T15:51:44.673Z</time></trkpt><trkpt lat="43.1453517" lon="2.1823533"><ele>330.0</ele><time>2026-03-22T15:51:45.673Z</time></trkpt><trkpt lat="43.1452533" lon="2.1824567"><ele>330.0</ele><time>2026-03-22T15:51:46.673Z</time></trkpt><trkpt lat="43.1451467" lon="2.18254"><ele>326.8</ele><time>2026-03-22T15:51:47.673Z</time></trkpt><trkpt lat="43.1450383" lon="2.182605"><ele>323.6</ele><time>2026-03-22T15:51:48.674Z</time></trkpt><trkpt lat="43.1449367" lon="2.1826583"><ele>320.4</ele><time>2026-03-22T15:51:49.676Z</time></trkpt><trkpt lat="43.144835" lon="2.18268"><ele>317.2</ele><time>2026-03-22T15:51:50.673Z</time></trkpt><trkpt lat="43.1447333" lon="2.1826783"><ele>314.0</ele><time>2026-03-22T15:51:51.679Z</time></trkpt><trkpt lat="43.1446333" lon="2.18267"><ele>314.0</ele><time>2026-03-22T15:51:52.674Z</time></trkpt><trkpt lat="43.1445367" lon="2.1826817"><ele>314.0</ele><time>2026-03-22T15:51:53.673Z</time></trkpt><trkpt lat="43.1444417" lon="2.182735"><ele>314.0</ele><time>2026-03-22T15:51:54.673Z</time></trkpt><trkpt lat="43.14435" lon="2.182815"><ele>314.0</ele><time>2026-03-22T15:51:55.676Z</time></trkpt><trkpt lat="43.1442633" lon="2.182905"><ele>314.0</ele><time>2026-03-22T15:51:56.674Z</time></trkpt><trkpt lat="43.1441817" lon="2.182985"><ele>314.0</ele><time>2026-03-22T15:51:57.673Z</time></trkpt><trkpt lat="43.1441117" lon="2.18306"><ele>314.0</ele><time>2026-03-22T15:51:58.675Z</time></trkpt><trkpt lat="43.144035" lon="2.1831217"><ele>314.0</ele><time>2026-03-22T15:51:59.676Z</time></trkpt><trkpt lat="43.1439583" lon="2.1831633"><ele>314.0</ele><time>2026-03-22T15:52:00.673Z</time></trkpt><trkpt lat="43.1438733" lon="2.1831817"><ele>314.0</ele><time>2026-03-22T15:52:01.678Z</time></trkpt><trkpt lat="43.1437867" lon="2.1831533"><ele>314.0</ele><time>2026-03-22T15:52:02.674Z</time></trkpt><trkpt lat="43.1436933" lon="2.18308"><ele>311.2</ele><time>2026-03-22T15:52:03.673Z</time></trkpt><trkpt lat="43.1436017" lon="2.183"><ele>308.4</ele><time>2026-03-22T15:52:04.672Z</time></trkpt><trkpt lat="43.1435133" lon="2.1829183"><ele>305.6</ele><time>2026-03-22T15:52:05.673Z</time></trkpt><trkpt lat="43.1434267" lon="2.1828333"><ele>302.8</ele><time>2026-03-22T15:52:06.673Z</time></trkpt><trkpt lat="43.14334" lon="2.182765"><ele>300.0</ele><time>2026-03-22T15:52:07.673Z</time></trkpt><trkpt lat="43.143245" lon="2.182705"><ele>299.4</ele><time>2026-03-22T15:52:08.673Z</time></trkpt><trkpt lat="43.14315" lon="2.18264"><ele>298.8</ele><time>2026-03-22T15:52:09.673Z</time></trkpt><trkpt lat="43.1430683" lon="2.1825783"><ele>298.2</ele><time>2026-03-22T15:52:10.673Z</time></trkpt><trkpt lat="43.1429867" lon="2.1825233"><ele>297.6</ele><time>2026-03-22T15:52:11.673Z</time></trkpt><trkpt lat="43.1428983" lon="2.1824733"><ele>297.0</ele><time>2026-03-22T15:52:12.672Z</time></trkpt><trkpt lat="43.1428167" lon="2.182425"><ele>297.0</ele><time>2026-03-22T15:52:13.76Z</time></trkpt><trkpt lat="43.14273" lon="2.1823733"><ele>297.0</ele><time>2026-03-22T15:52:14.672Z</time></trkpt><trkpt lat="43.142635" lon="2.182335"><ele>297.0</ele><time>2026-03-22T15:52:15.673Z</time></trkpt><trkpt lat="43.14254" lon="2.1823133"><ele>297.0</ele><time>2026-03-22T15:52:16.675Z</time></trkpt><trkpt lat="43.14244" lon="2.1823383"><ele>297.0</ele><time>2026-03-22T15:52:17.673Z</time></trkpt><trkpt lat="43.142345" lon="2.182365"><ele>296.1666666666667</ele><time>2026-03-22T15:52:18.672Z</time></trkpt><trkpt lat="43.142255" lon="2.1823917"><ele>295.3333333333333</ele><time>2026-03-22T15:52:19.673Z</time></trkpt><trkpt lat="43.1421717" lon="2.1824167"><ele>294.5</ele><time>2026-03-22T15:52:20.673Z</time></trkpt><trkpt lat="43.1420967" lon="2.182445"><ele>293.66666666666663</ele><time>2026-03-22T15:52:21.673Z</time></trkpt><trkpt lat="43.142035" lon="2.182465"><ele>292.8333333333333</ele><time>2026-03-22T15:52:22.674Z</time></trkpt><trkpt lat="43.1419633" lon="2.1825017"><ele>292.0</ele><time>2026-03-22T15:52:24.675Z</time></trkpt><trkpt lat="43.141985" lon="2.1826333"><ele>292.0</ele><time>2026-03-22T15:53:03.674Z</time></trkpt><trkpt lat="43.1420267" lon="2.1827817"><ele>292.0</ele><time>2026-03-22T15:53:05.673Z</time></trkpt><trkpt lat="43.1420517" lon="2.1828717"><ele>292.0</ele><time>2026-03-22T15:53:06.672Z</time></trkpt><trkpt lat="43.1420783" lon="2.182965"><ele>292.0</ele><time>2026-03-22T15:53:07.677Z</time></trkpt><trkpt lat="43.1421033" lon="2.18305"><ele>292.0</ele><time>2026-03-22T15:53:08.675Z</time></trkpt><trkpt lat="43.142135" lon="2.1831933"><ele>292.0</ele><time>2026-03-22T15:53:10.679Z</time></trkpt><trkpt lat="43.1421617" lon="2.183315"><ele>292.0</ele><time>2026-03-22T15:53:12.673Z</time></trkpt><trkpt lat="43.1422" lon="2.1834467"><ele>292.0</ele><time>2026-03-22T15:53:14.677Z</time></trkpt><trkpt lat="43.1422617" lon="2.1835733"><ele>292.0</ele><time>2026-03-22T15:53:16.677Z</time></trkpt><trkpt lat="43.1423533" lon="2.1836767"><ele>292.0</ele><time>2026-03-22T15:53:18.674Z</time></trkpt><trkpt lat="43.142405" lon="2.183735"><ele>292.0</ele><time>2026-03-22T15:53:19.673Z</time></trkpt><trkpt lat="43.14245" lon="2.1838017"><ele>292.0</ele><time>2026-03-22T15:53:20.674Z</time></trkpt><trkpt lat="43.1424883" lon="2.1838717"><ele>292.0</ele><time>2026-03-22T15:53:21.676Z</time></trkpt><trkpt lat="43.142555" lon="2.184005"><ele>292.0</ele><time>2026-03-22T15:53:23.674Z</time></trkpt><trkpt lat="43.1426117" lon="2.1841467"><ele>292.0</ele><time>2026-03-22T15:53:25.673Z</time></trkpt><trkpt lat="43.1426383" lon="2.184295"><ele>292.0</ele><time>2026-03-22T15:53:27.673Z</time></trkpt><trkpt lat="43.1426533" lon="2.1844467"><ele>292.0</ele><time>2026-03-22T15:53:29.674Z</time></trkpt><trkpt lat="43.1426567" lon="2.1846083"><ele>292.0</ele><time>2026-03-22T15:53:31.672Z</time></trkpt><trkpt lat="43.1426483" lon="2.1847217"><ele>292.0</ele><time>2026-03-22T15:53:33.673Z</time></trkpt><trkpt lat="43.142645" lon="2.18482"><ele>292.0</ele><time>2026-03-22T15:53:37.673Z</time></trkpt><trkpt lat="43.14268" lon="2.1849183"><ele>292.0</ele><time>2026-03-22T15:53:48.674Z</time></trkpt><trkpt lat="43.1427583" lon="2.1849783"><ele>292.0</ele><time>2026-03-22T15:53:50.675Z</time></trkpt><trkpt lat="43.1428467" lon="2.1850467"><ele>291.5</ele><time>2026-03-22T15:53:52.673Z</time></trkpt><trkpt lat="43.142935" lon="2.18513"><ele>291.0</ele><time>2026-03-22T15:53:54.674Z</time></trkpt><trkpt lat="43.1429833" lon="2.1851883"><ele>290.5</ele><time>2026-03-22T15:53:55.674Z</time></trkpt><trkpt lat="43.1430833" lon="2.1852933"><ele>290.0</ele><time>2026-03-22T15:53:57.673Z</time></trkpt><trkpt lat="43.1431467" lon="2.1853333"><ele>289.5</ele><time>2026-03-22T15:53:58.672Z</time></trkpt><trkpt lat="43.143215" lon="2.1853583"><ele>289.0</ele><time>2026-03-22T15:53:59.673Z</time></trkpt><trkpt lat="43.1432867" lon="2.1853767"><ele>289.0</ele><time>2026-03-22T15:54:00.674Z</time></trkpt><trkpt lat="43.143365" lon="2.1853933"><ele>289.0</ele><time>2026-03-22T15:54:01.675Z</time></trkpt><trkpt lat="43.1434367" lon="2.1854067"><ele>289.0</ele><time>2026-03-22T15:54:02.675Z</time></trkpt><trkpt lat="43.1435067" lon="2.1854133"><ele>289.0</ele><time>2026-03-22T15:54:03.674Z</time></trkpt><trkpt lat="43.143605" lon="2.1854183"><ele>289.0</ele><time>2026-03-22T15:54:05.673Z</time></trkpt><trkpt lat="43.143705" lon="2.1854067"><ele>289.0</ele><time>2026-03-22T15:54:07.672Z</time></trkpt><trkpt lat="43.1438017" lon="2.1853467"><ele>289.0</ele><time>2026-03-22T15:54:09.672Z</time></trkpt><trkpt lat="43.143905" lon="2.1852617"><ele>289.0</ele><time>2026-03-22T15:54:11.674Z</time></trkpt><trkpt lat="43.1440067" lon="2.1851517"><ele>289.0</ele><time>2026-03-22T15:54:13.68Z</time></trkpt><trkpt lat="43.14406" lon="2.1850883"><ele>289.0</ele><time>2026-03-22T15:54:14.674Z</time></trkpt><trkpt lat="43.14412" lon="2.185015"><ele>289.0</ele><time>2026-03-22T15:54:15.673Z</time></trkpt><trkpt lat="43.1441783" lon="2.1849533"><ele>289.5</ele><time>2026-03-22T15:54:16.673Z</time></trkpt><trkpt lat="43.1442433" lon="2.1848833"><ele>290.0</ele><time>2026-03-22T15:54:17.674Z</time></trkpt><trkpt lat="43.144315" lon="2.1848067"><ele>290.5</ele><time>2026-03-22T15:54:18.673Z</time></trkpt><trkpt lat="43.1443817" lon="2.1847467"><ele>291.0</ele><time>2026-03-22T15:54:19.672Z</time></trkpt><trkpt lat="43.1444467" lon="2.1846867"><ele>291.5</ele><time>2026-03-22T15:54:20.673Z</time></trkpt><trkpt lat="43.1445417" lon="2.1846083"><ele>292.0</ele><time>2026-03-22T15:54:22.673Z</time></trkpt><trkpt lat="43.1446083" lon="2.184595"><ele>292.5</ele><time>2026-03-22T15:54:27.673Z</time></trkpt><trkpt lat="43.1447133" lon="2.18461"><ele>293.0</ele><time>2026-03-22T15:54:29.673Z</time></trkpt><trkpt lat="43.1448233" lon="2.1846367"><ele>293.5</ele><time>2026-03-22T15:54:31.677Z</time></trkpt><trkpt lat="43.1448883" lon="2.1846767"><ele>294.0</ele><time>2026-03-22T15:54:33.674Z</time></trkpt><trkpt lat="43.1449517" lon="2.1847317"><ele>294.5</ele><time>2026-03-22T15:54:36.673Z</time></trkpt><trkpt lat="43.1450267" lon="2.1846983"><ele>295.0</ele><time>2026-03-22T15:54:39.674Z</time></trkpt><trkpt lat="43.1450783" lon="2.184645"><ele>295.0</ele><time>2026-03-22T15:54:41.673Z</time></trkpt><trkpt lat="43.1451617" lon="2.1846733"><ele>295.0</ele><time>2026-03-22T15:54:45.672Z</time></trkpt><trkpt lat="43.1452167" lon="2.1847533"><ele>295.0</ele><time>2026-03-22T15:54:48.672Z</time></trkpt><trkpt lat="43.1452633" lon="2.1848333"><ele>295.0</ele><time>2026-03-22T15:54:50.675Z</time></trkpt><trkpt lat="43.14534" lon="2.1849333"><ele>295.0</ele><time>2026-03-22T15:54:52.674Z</time></trkpt><trkpt lat="43.1453867" lon="2.1849917"><ele>295.0</ele><time>2026-03-22T15:54:53.673Z</time></trkpt><trkpt lat="43.145435" lon="2.18506"><ele>294.4</ele><time>2026-03-22T15:54:54.674Z</time></trkpt><trkpt lat="43.14554" lon="2.1851617"><ele>293.8</ele><time>2026-03-22T15:54:56.673Z</time></trkpt><trkpt lat="43.14564" lon="2.1852383"><ele>293.2</ele><time>2026-03-22T15:54:58.672Z</time></trkpt><trkpt lat="43.145695" lon="2.1852833"><ele>292.6</ele><time>2026-03-22T15:54:59.676Z</time></trkpt><trkpt lat="43.145795" lon="2.1853867"><ele>292.0</ele><time>2026-03-22T15:55:01.673Z</time></trkpt><trkpt lat="43.1458383" lon="2.1854583"><ele>294.8333333333333</ele><time>2026-03-22T15:55:02.673Z</time></trkpt><trkpt lat="43.145865" lon="2.1855467"><ele>297.66666666666663</ele><time>2026-03-22T15:55:03.674Z</time></trkpt><trkpt lat="43.1459067" lon="2.1856967"><ele>300.5</ele><time>2026-03-22T15:55:05.676Z</time></trkpt><trkpt lat="43.1459683" lon="2.1857983"><ele>303.3333333333333</ele><time>2026-03-22T15:55:07.674Z</time></trkpt><trkpt lat="43.1460283" lon="2.185825"><ele>306.1666666666667</ele><time>2026-03-22T15:55:10.675Z</time></trkpt><trkpt lat="43.1461" lon="2.1857817"><ele>309.0</ele><time>2026-03-22T15:55:17.674Z</time></trkpt><trkpt lat="43.1461817" lon="2.18575"><ele>309.0</ele><time>2026-03-22T15:55:19.674Z</time></trkpt><trkpt lat="43.14628" lon="2.185715"><ele>309.0</ele><time>2026-03-22T15:55:21.673Z</time></trkpt><trkpt lat="43.1463517" lon="2.1857"><ele>309.0</ele><time>2026-03-22T15:55:23.673Z</time></trkpt><trkpt lat="43.146275" lon="2.1857367"><ele>309.0</ele><time>2026-03-22T15:55:47.674Z</time></trkpt><trkpt lat="43.1461817" lon="2.185755"><ele>309.0</ele><time>2026-03-22T15:55:49.673Z</time></trkpt><trkpt lat="43.1461033" lon="2.18578"><ele>309.0</ele><time>2026-03-22T15:55:51.676Z</time></trkpt><trkpt lat="43.1460467" lon="2.18583"><ele>309.0</ele><time>2026-03-22T15:55:53.673Z</time></trkpt><trkpt lat="43.1459817" lon="2.1859133"><ele>309.0</ele><time>2026-03-22T15:55:55.674Z</time></trkpt><trkpt lat="43.14593" lon="2.18598"><ele>309.0</ele><time>2026-03-22T15:55:57.672Z</time></trkpt><trkpt lat="43.1458683" lon="2.1860517"><ele>309.0</ele><time>2026-03-22T15:55:59.673Z</time></trkpt><trkpt lat="43.14581" lon="2.1861433"><ele>309.0</ele><time>2026-03-22T15:56:01.674Z</time></trkpt><trkpt lat="43.145735" lon="2.1862283"><ele>309.0</ele><time>2026-03-22T15:56:03.673Z</time></trkpt><trkpt lat="43.1456417" lon="2.1863067"><ele>308.8333333333333</ele><time>2026-03-22T15:56:05.674Z</time></trkpt><trkpt lat="43.145585" lon="2.1863533"><ele>308.6666666666667</ele><time>2026-03-22T15:56:07.674Z</time></trkpt><trkpt lat="43.1455383" lon="2.18642"><ele>308.5</ele><time>2026-03-22T15:56:13.672Z</time></trkpt><trkpt lat="43.1455267" lon="2.1865167"><ele>308.33333333333337</ele><time>2026-03-22T15:56:16.672Z</time></trkpt><trkpt lat="43.1455917" lon="2.186625"><ele>308.1666666666667</ele><time>2026-03-22T15:56:19.673Z</time></trkpt><trkpt lat="43.1456683" lon="2.1867033"><ele>308.0</ele><time>2026-03-22T15:56:21.673Z</time></trkpt><trkpt lat="43.14572" lon="2.186775"><ele>307.2</ele><time>2026-03-22T15:56:23.679Z</time></trkpt><trkpt lat="43.1456433" lon="2.186695"><ele>306.4</ele><time>2026-03-22T15:59:28.673Z</time></trkpt><trkpt lat="43.14556" lon="2.1865933"><ele>305.59999999999997</ele><time>2026-03-22T15:59:30.674Z</time></trkpt><trkpt lat="43.1455033" lon="2.1864967"><ele>304.8</ele><time>2026-03-22T15:59:32.675Z</time></trkpt><trkpt lat="43.1455267" lon="2.1863933"><ele>304.0</ele><time>2026-03-22T15:59:35.677Z</time></trkpt><trkpt lat="43.1454167" lon="2.1864517"><ele>304.0</ele><time>2026-03-22T15:59:56.673Z</time></trkpt><trkpt lat="43.1453133" lon="2.1864883"><ele>304.0</ele><time>2026-03-22T15:59:58.674Z</time></trkpt><trkpt lat="43.1452183" lon="2.1865183"><ele>304.0</ele><time>2026-03-22T16:00:00.675Z</time></trkpt><trkpt lat="43.1451283" lon="2.1865567"><ele>304.0</ele><time>2026-03-22T16:00:02.675Z</time></trkpt><trkpt lat="43.145045" lon="2.1866133"><ele>304.0</ele><time>2026-03-22T16:00:04.674Z</time></trkpt><trkpt lat="43.1449683" lon="2.1866617"><ele>304.0</ele><time>2026-03-22T16:00:06.674Z</time></trkpt><trkpt lat="43.1449" lon="2.1867167"><ele>304.0</ele><time>2026-03-22T16:00:08.676Z</time></trkpt><trkpt lat="43.14485" lon="2.1867883"><ele>304.0</ele><time>2026-03-22T16:00:10.673Z</time></trkpt><trkpt lat="43.1447733" lon="2.1868583"><ele>304.0</ele><time>2026-03-22T16:00:13.674Z</time></trkpt><trkpt lat="43.1446917" lon="2.1868983"><ele>304.0</ele><time>2026-03-22T16:00:16.673Z</time></trkpt><trkpt lat="43.1446383" lon="2.1869617"><ele>304.0</ele><time>2026-03-22T16:00:19.675Z</time></trkpt><trkpt lat="43.144585" lon="2.1870133"><ele>303.0</ele><time>2026-03-22T16:00:23.677Z</time></trkpt><trkpt lat="43.1445333" lon="2.18708"><ele>302.0</ele><time>2026-03-22T16:00:26.674Z</time></trkpt><trkpt lat="43.1444683" lon="2.1871317"><ele>301.0</ele><time>2026-03-22T16:00:29.674Z</time></trkpt><trkpt lat="43.1444117" lon="2.1872067"><ele>300.0</ele><time>2026-03-22T16:00:32.674Z</time></trkpt><trkpt lat="43.14432" lon="2.1872617"><ele>299.0</ele><time>2026-03-22T16:00:35.675Z</time></trkpt><trkpt lat="43.1442417" lon="2.1873"><ele>298.0</ele><time>2026-03-22T16:00:37.674Z</time></trkpt><trkpt lat="43.1441717" lon="2.1873267"><ele>298.0</ele><time>2026-03-22T16:00:39.677Z</time></trkpt><trkpt lat="43.144095" lon="2.187305"><ele>298.0</ele><time>2026-03-22T16:00:41.675Z</time></trkpt><trkpt lat="43.1440083" lon="2.1872917"><ele>298.0</ele><time>2026-03-22T16:00:43.673Z</time></trkpt><trkpt lat="43.1439267" lon="2.1872833"><ele>298.0</ele><time>2026-03-22T16:00:45.673Z</time></trkpt><trkpt lat="43.1438383" lon="2.1872667"><ele>298.0</ele><time>2026-03-22T16:00:47.675Z</time></trkpt><trkpt lat="43.143735" lon="2.1872583"><ele>298.0</ele><time>2026-03-22T16:00:49.673Z</time></trkpt><trkpt lat="43.14365" lon="2.1872533"><ele>295.8333333333333</ele><time>2026-03-22T16:00:51.675Z</time></trkpt><trkpt lat="43.14358" lon="2.1872133"><ele>293.66666666666663</ele><time>2026-03-22T16:00:53.677Z</time></trkpt><trkpt lat="43.14353" lon="2.1871533"><ele>291.5</ele><time>2026-03-22T16:00:58.673Z</time></trkpt><trkpt lat="43.1435467" lon="2.186955"><ele>289.3333333333333</ele><time>2026-03-22T16:02:39.673Z</time></trkpt><trkpt lat="43.143565" lon="2.1868667"><ele>287.1666666666667</ele><time>2026-03-22T16:02:41.677Z</time></trkpt><trkpt lat="43.14359" lon="2.186765"><ele>285.0</ele><time>2026-03-22T16:02:43.674Z</time></trkpt><trkpt lat="43.1436083" lon="2.18668"><ele>285.0</ele><time>2026-03-22T16:02:45.678Z</time></trkpt><trkpt lat="43.143625" lon="2.1865933"><ele>285.0</ele><time>2026-03-22T16:02:47.673Z</time></trkpt><trkpt lat="43.143635" lon="2.1864983"><ele>285.0</ele><time>2026-03-22T16:02:49.673Z</time></trkpt><trkpt lat="43.14367" lon="2.1864017"><ele>285.0</ele><time>2026-03-22T16:02:51.674Z</time></trkpt><trkpt lat="43.1437" lon="2.186325"><ele>285.0</ele><time>2026-03-22T16:02:53.673Z</time></trkpt><trkpt lat="43.1437317" lon="2.1862383"><ele>285.0</ele><time>2026-03-22T16:02:56.675Z</time></trkpt><trkpt lat="43.1437567" lon="2.1861567"><ele>285.0</ele><time>2026-03-22T16:02:59.673Z</time></trkpt><trkpt lat="43.1437317" lon="2.186075"><ele>284.3333333333333</ele><time>2026-03-22T16:03:02.674Z</time></trkpt><trkpt lat="43.1436567" lon="2.1859683"><ele>283.6666666666667</ele><time>2026-03-22T16:03:10.674Z</time></trkpt><trkpt lat="43.143665" lon="2.1858633"><ele>283.0</ele><time>2026-03-22T16:03:15.673Z</time></trkpt><trkpt lat="43.1436817" lon="2.18578"><ele>282.33333333333337</ele><time>2026-03-22T16:03:18.673Z</time></trkpt><trkpt lat="43.1437383" lon="2.185685"><ele>281.6666666666667</ele><time>2026-03-22T16:03:21.675Z</time></trkpt><trkpt lat="43.14381" lon="2.1856183"><ele>281.0</ele><time>2026-03-22T16:03:23.675Z</time></trkpt><trkpt lat="43.1439117" lon="2.1855233"><ele>282.6</ele><time>2026-03-22T16:03:25.674Z</time></trkpt><trkpt lat="43.1440083" lon="2.1854183"><ele>284.20000000000005</ele><time>2026-03-22T16:03:27.676Z</time></trkpt><trkpt lat="43.1440867" lon="2.1853183"><ele>285.79999999999995</ele><time>2026-03-22T16:03:29.675Z</time></trkpt><trkpt lat="43.1441567" lon="2.18523"><ele>287.4</ele><time>2026-03-22T16:03:31.675Z</time></trkpt><trkpt lat="43.1442267" lon="2.185165"><ele>289.0</ele><time>2026-03-22T16:03:33.676Z</time></trkpt><trkpt lat="43.1443067" lon="2.185075"><ele>289.59999999999997</ele><time>2026-03-22T16:03:35.673Z</time></trkpt><trkpt lat="43.14439" lon="2.1849817"><ele>290.2</ele><time>2026-03-22T16:03:37.678Z</time></trkpt><trkpt lat="43.14447" lon="2.1849133"><ele>290.79999999999995</ele><time>2026-03-22T16:03:51.675Z</time></trkpt><trkpt lat="43.1445167" lon="2.184845"><ele>291.4</ele><time>2026-03-22T16:03:54.673Z</time></trkpt><trkpt lat="43.14446" lon="2.184945"><ele>292.0</ele><time>2026-03-22T16:04:04.673Z</time></trkpt><trkpt lat="43.14437" lon="2.1850033"><ele>292.0</ele><time>2026-03-22T16:04:06.675Z</time></trkpt><trkpt lat="43.1442883" lon="2.1851"><ele>292.0</ele><time>2026-03-22T16:04:08.677Z</time></trkpt><trkpt lat="43.1442317" lon="2.185185"><ele>292.0</ele><time>2026-03-22T16:04:10.675Z</time></trkpt><trkpt lat="43.1441717" lon="2.1852133"><ele>292.0</ele><time>2026-03-22T16:04:12.676Z</time></trkpt><trkpt lat="43.1441217" lon="2.18529"><ele>292.0</ele><time>2026-03-22T16:04:14.676Z</time></trkpt><trkpt lat="43.1440683" lon="2.185365"><ele>292.0</ele><time>2026-03-22T16:04:16.672Z</time></trkpt><trkpt lat="43.143985" lon="2.1854517"><ele>291.5</ele><time>2026-03-22T16:04:18.674Z</time></trkpt><trkpt lat="43.143905" lon="2.185535"><ele>291.0</ele><time>2026-03-22T16:04:20.675Z</time></trkpt><trkpt lat="43.1438267" lon="2.1856"><ele>290.5</ele><time>2026-03-22T16:04:22.675Z</time></trkpt><trkpt lat="43.1437683" lon="2.1856717"><ele>290.0</ele><time>2026-03-22T16:04:24.676Z</time></trkpt><trkpt lat="43.1437133" lon="2.1857317"><ele>289.5</ele><time>2026-03-22T16:04:27.675Z</time></trkpt><trkpt lat="43.14368" lon="2.1858167"><ele>289.0</ele><time>2026-03-22T16:04:31.673Z</time></trkpt><trkpt lat="43.1436433" lon="2.1859133"><ele>287.66666666666663</ele><time>2026-03-22T16:04:35.672Z</time></trkpt><trkpt lat="43.1435833" lon="2.18597"><ele>286.3333333333333</ele><time>2026-03-22T16:04:44.672Z</time></trkpt><trkpt lat="43.1435117" lon="2.186005"><ele>285.0</ele><time>2026-03-22T16:04:46.672Z</time></trkpt><trkpt lat="43.1434433" lon="2.186045"><ele>283.6666666666667</ele><time>2026-03-22T16:04:50.674Z</time></trkpt><trkpt lat="43.1435217" lon="2.185955"><ele>282.33333333333337</ele><time>2026-03-22T16:05:56.677Z</time></trkpt><trkpt lat="43.143595" lon="2.18589"><ele>281.0</ele><time>2026-03-22T16:05:58.673Z</time></trkpt><trkpt lat="43.14366" lon="2.1858217"><ele>281.0</ele><time>2026-03-22T16:06:01.676Z</time></trkpt><trkpt lat="43.1437183" lon="2.18573"><ele>281.0</ele><time>2026-03-22T16:06:04.675Z</time></trkpt><trkpt lat="43.1437833" lon="2.1856617"><ele>281.0</ele><time>2026-03-22T16:06:06.672Z</time></trkpt><trkpt lat="43.143865" lon="2.18559"><ele>281.0</ele><time>2026-03-22T16:06:08.673Z</time></trkpt><trkpt lat="43.1439583" lon="2.1854933"><ele>281.0</ele><time>2026-03-22T16:06:10.677Z</time></trkpt><trkpt lat="43.144045" lon="2.185395"><ele>283.2</ele><time>2026-03-22T16:06:12.675Z</time></trkpt><trkpt lat="43.144105" lon="2.1853183"><ele>285.40000000000003</ele><time>2026-03-22T16:06:14.676Z</time></trkpt><trkpt lat="43.14416" lon="2.18522"><ele>287.6</ele><time>2026-03-22T16:06:17.672Z</time></trkpt><trkpt lat="43.1442233" lon="2.18516"><ele>289.8</ele><time>2026-03-22T16:06:19.676Z</time></trkpt><trkpt lat="43.14429" lon="2.1850733"><ele>292.0</ele><time>2026-03-22T16:06:21.675Z</time></trkpt><trkpt lat="43.14438" lon="2.1849817"><ele>292.0</ele><time>2026-03-22T16:06:23.676Z</time></trkpt><trkpt lat="43.1444683" lon="2.18489"><ele>292.0</ele><time>2026-03-22T16:06:25.676Z</time></trkpt><trkpt lat="43.1445367" lon="2.1848483"><ele>292.0</ele><time>2026-03-22T16:06:27.673Z</time></trkpt><trkpt lat="43.1446167" lon="2.1848467"><ele>292.0</ele><time>2026-03-22T16:06:30.674Z</time></trkpt><trkpt lat="43.1446933" lon="2.184825"><ele>292.0</ele><time>2026-03-22T16:06:32.674Z</time></trkpt><trkpt lat="43.144785" lon="2.184815"><ele>292.0</ele><time>2026-03-22T16:06:34.675Z</time></trkpt><trkpt lat="43.14487" lon="2.1847967"><ele>292.6</ele><time>2026-03-22T16:06:36.675Z</time></trkpt><trkpt lat="43.144925" lon="2.18473"><ele>293.2</ele><time>2026-03-22T16:06:39.674Z</time></trkpt><trkpt lat="43.14487" lon="2.1846417"><ele>293.8</ele><time>2026-03-22T16:06:42.674Z</time></trkpt><trkpt lat="43.1447883" lon="2.184625"><ele>294.4</ele><time>2026-03-22T16:06:44.675Z</time></trkpt><trkpt lat="43.1446783" lon="2.1846167"><ele>295.0</ele><time>2026-03-22T16:06:46.674Z</time></trkpt><trkpt lat="43.14457" lon="2.18462"><ele>294.4</ele><time>2026-03-22T16:06:48.675Z</time></trkpt><trkpt lat="43.144475" lon="2.18467"><ele>293.8</ele><time>2026-03-22T16:06:50.673Z</time></trkpt><trkpt lat="43.1443683" lon="2.1848"><ele>293.2</ele><time>2026-03-22T16:06:52.674Z</time></trkpt><trkpt lat="43.1443083" lon="2.1848783"><ele>292.6</ele><time>2026-03-22T16:06:53.673Z</time></trkpt><trkpt lat="43.1442483" lon="2.1849433"><ele>292.0</ele><time>2026-03-22T16:06:54.674Z</time></trkpt><trkpt lat="43.1441833" lon="2.18501"><ele>292.0</ele><time>2026-03-22T16:06:55.675Z</time></trkpt><trkpt lat="43.1441117" lon="2.185075"><ele>292.0</ele><time>2026-03-22T16:06:56.675Z</time></trkpt><trkpt lat="43.1440467" lon="2.1851383"><ele>292.0</ele><time>2026-03-22T16:06:57.673Z</time></trkpt><trkpt lat="43.1439783" lon="2.1852067"><ele>292.0</ele><time>2026-03-22T16:06:58.673Z</time></trkpt><trkpt lat="43.1439183" lon="2.18526"><ele>292.0</ele><time>2026-03-22T16:06:59.675Z</time></trkpt><trkpt lat="43.1438633" lon="2.1853133"><ele>292.0</ele><time>2026-03-22T16:07:00.675Z</time></trkpt><trkpt lat="43.1438083" lon="2.18536"><ele>291.5</ele><time>2026-03-22T16:07:01.677Z</time></trkpt><trkpt lat="43.1436867" lon="2.18538"><ele>291.0</ele><time>2026-03-22T16:07:03.679Z</time></trkpt><trkpt lat="43.1436233" lon="2.185385"><ele>290.5</ele><time>2026-03-22T16:07:04.674Z</time></trkpt><trkpt lat="43.1435567" lon="2.18539"><ele>290.0</ele><time>2026-03-22T16:07:05.675Z</time></trkpt><trkpt lat="43.1434933" lon="2.18539"><ele>289.5</ele><time>2026-03-22T16:07:06.678Z</time></trkpt><trkpt lat="43.1433683" lon="2.18537"><ele>289.0</ele><time>2026-03-22T16:07:08.679Z</time></trkpt><trkpt lat="43.14325" lon="2.1853617"><ele>288.8</ele><time>2026-03-22T16:07:10.672Z</time></trkpt><trkpt lat="43.1431483" lon="2.1853483"><ele>288.59999999999997</ele><time>2026-03-22T16:07:12.674Z</time></trkpt><trkpt lat="43.1430667" lon="2.185255"><ele>288.4</ele><time>2026-03-22T16:07:14.673Z</time></trkpt><trkpt lat="43.1429867" lon="2.1851633"><ele>288.2</ele><time>2026-03-22T16:07:16.674Z</time></trkpt><trkpt lat="43.1428967" lon="2.1850667"><ele>288.0</ele><time>2026-03-22T16:07:18.674Z</time></trkpt><trkpt lat="43.1427917" lon="2.184985"><ele>288.0</ele><time>2026-03-22T16:07:20.673Z</time></trkpt><trkpt lat="43.1427067" lon="2.1849017"><ele>288.0</ele><time>2026-03-22T16:07:22.673Z</time></trkpt><trkpt lat="43.1426567" lon="2.18477"><ele>288.0</ele><time>2026-03-22T16:07:24.677Z</time></trkpt><trkpt lat="43.1426483" lon="2.1846833"><ele>288.0</ele><time>2026-03-22T16:07:25.674Z</time></trkpt><trkpt lat="43.1426483" lon="2.1845833"><ele>288.0</ele><time>2026-03-22T16:07:26.674Z</time></trkpt><trkpt lat="43.14266" lon="2.1844817"><ele>288.0</ele><time>2026-03-22T16:07:27.678Z</time></trkpt><trkpt lat="43.1426567" lon="2.1843783"><ele>288.5714285714286</ele><time>2026-03-22T16:07:28.675Z</time></trkpt><trkpt lat="43.1426467" lon="2.1842867"><ele>289.14285714285717</ele><time>2026-03-22T16:07:29.675Z</time></trkpt><trkpt lat="43.1426183" lon="2.1841883"><ele>289.7142857142857</ele><time>2026-03-22T16:07:30.678Z</time></trkpt><trkpt lat="43.142585" lon="2.1840883"><ele>290.28571428571433</ele><time>2026-03-22T16:07:31.675Z</time></trkpt><trkpt lat="43.142555" lon="2.1839933"><ele>290.8571428571429</ele><time>2026-03-22T16:07:32.673Z</time></trkpt><trkpt lat="43.1425183" lon="2.18391"><ele>291.42857142857144</ele><time>2026-03-22T16:07:33.674Z</time></trkpt><trkpt lat="43.1424767" lon="2.1838233"><ele>292.0</ele><time>2026-03-22T16:07:34.675Z</time></trkpt><trkpt lat="43.1424283" lon="2.183745"><ele>291.85714285714283</ele><time>2026-03-22T16:07:35.674Z</time></trkpt><trkpt lat="43.1423733" lon="2.1836817"><ele>291.7142857142857</ele><time>2026-03-22T16:07:36.675Z</time></trkpt><trkpt lat="43.1423183" lon="2.18362"><ele>291.57142857142856</ele><time>2026-03-22T16:07:37.674Z</time></trkpt><trkpt lat="43.142265" lon="2.1835567"><ele>291.42857142857144</ele><time>2026-03-22T16:07:38.676Z</time></trkpt><trkpt lat="43.14222" lon="2.18348"><ele>291.2857142857143</ele><time>2026-03-22T16:07:39.678Z</time></trkpt><trkpt lat="43.1421833" lon="2.18339"><ele>291.1428571428571</ele><time>2026-03-22T16:07:40.676Z</time></trkpt><trkpt lat="43.14215" lon="2.1832967"><ele>291.0</ele><time>2026-03-22T16:07:41.674Z</time></trkpt><trkpt lat="43.1421183" lon="2.1831967"><ele>291.1666666666667</ele><time>2026-03-22T16:07:42.679Z</time></trkpt><trkpt lat="43.142085" lon="2.1830933"><ele>291.3333333333333</ele><time>2026-03-22T16:07:43.675Z</time></trkpt><trkpt lat="43.142055" lon="2.1829883"><ele>291.5</ele><time>2026-03-22T16:07:44.678Z</time></trkpt><trkpt lat="43.1420317" lon="2.1828817"><ele>291.66666666666663</ele><time>2026-03-22T16:07:45.673Z</time></trkpt><trkpt lat="43.1420083" lon="2.18278"><ele>291.8333333333333</ele><time>2026-03-22T16:07:46.674Z</time></trkpt><trkpt lat="43.141985" lon="2.1826933"><ele>292.0</ele><time>2026-03-22T16:07:47.673Z</time></trkpt><trkpt lat="43.141945" lon="2.182575"><ele>292.0</ele><time>2026-03-22T16:07:49.675Z</time></trkpt><trkpt lat="43.14185" lon="2.182585"><ele>292.0</ele><time>2026-03-22T16:07:52.675Z</time></trkpt><trkpt lat="43.1417617" lon="2.1826317"><ele>292.0</ele><time>2026-03-22T16:07:54.674Z</time></trkpt><trkpt lat="43.1416717" lon="2.1825533"><ele>292.0</ele><time>2026-03-22T16:07:56.676Z</time></trkpt><trkpt lat="43.14164" lon="2.1824617"><ele>292.0</ele><time>2026-03-22T16:07:57.675Z</time></trkpt><trkpt lat="43.1416167" lon="2.1823333"><ele>291.16666666666663</ele><time>2026-03-22T16:07:58.672Z</time></trkpt><trkpt lat="43.1415867" lon="2.1822167"><ele>290.3333333333333</ele><time>2026-03-22T16:07:59.675Z</time></trkpt><trkpt lat="43.1415533" lon="2.1821133"><ele>289.5</ele><time>2026-03-22T16:08:00.674Z</time></trkpt><trkpt lat="43.14151" lon="2.1820317"><ele>288.6666666666667</ele><time>2026-03-22T16:08:01.675Z</time></trkpt><trkpt lat="43.1414467" lon="2.1819833"><ele>287.83333333333337</ele><time>2026-03-22T16:08:02.676Z</time></trkpt><trkpt lat="43.1413717" lon="2.1819583"><ele>287.0</ele><time>2026-03-22T16:08:03.674Z</time></trkpt><trkpt lat="43.141275" lon="2.1819633"><ele>287.0</ele><time>2026-03-22T16:08:04.674Z</time></trkpt><trkpt lat="43.1411667" lon="2.1819917"><ele>287.0</ele><time>2026-03-22T16:08:05.674Z</time></trkpt><trkpt lat="43.14105" lon="2.1820283"><ele>287.0</ele><time>2026-03-22T16:08:06.675Z</time></trkpt><trkpt lat="43.14093" lon="2.18207"><ele>287.0</ele><time>2026-03-22T16:08:07.675Z</time></trkpt><trkpt lat="43.140805" lon="2.1821233"><ele>283.0</ele><time>2026-03-22T16:08:08.674Z</time></trkpt><trkpt lat="43.14068" lon="2.18218"><ele>279.0</ele><time>2026-03-22T16:08:09.675Z</time></trkpt><trkpt lat="43.1405533" lon="2.18224"><ele>275.0</ele><time>2026-03-22T16:08:10.674Z</time></trkpt><trkpt lat="43.1404267" lon="2.1823017"><ele>271.0</ele><time>2026-03-22T16:08:11.675Z</time></trkpt><trkpt lat="43.1402983" lon="2.1823717"><ele>271.0</ele><time>2026-03-22T16:08:12.674Z</time></trkpt><trkpt lat="43.1401683" lon="2.1824417"><ele>271.0</ele><time>2026-03-22T16:08:13.674Z</time></trkpt><trkpt lat="43.1400367" lon="2.18252"><ele>271.0</ele><time>2026-03-22T16:08:14.674Z</time></trkpt><trkpt lat="43.13991" lon="2.1826083"><ele>271.0</ele><time>2026-03-22T16:08:15.674Z</time></trkpt><trkpt lat="43.139785" lon="2.1827183"><ele>268.0</ele><time>2026-03-22T16:08:16.674Z</time></trkpt><trkpt lat="43.139665" lon="2.1828433"><ele>265.0</ele><time>2026-03-22T16:08:17.674Z</time></trkpt><trkpt lat="43.1395467" lon="2.1829817"><ele>262.0</ele><time>2026-03-22T16:08:18.673Z</time></trkpt><trkpt lat="43.1394317" lon="2.18312"><ele>262.25</ele><time>2026-03-22T16:08:19.673Z</time></trkpt><trkpt lat="43.1393217" lon="2.183265"><ele>262.5</ele><time>2026-03-22T16:08:20.677Z</time></trkpt><trkpt lat="43.13921" lon="2.1834117"><ele>262.75</ele><time>2026-03-22T16:08:21.674Z</time></trkpt><trkpt lat="43.13911" lon="2.1835483"><ele>263.0</ele><time>2026-03-22T16:08:22.675Z</time></trkpt><trkpt lat="43.1390017" lon="2.18369"><ele>262.5</ele><time>2026-03-22T16:08:23.674Z</time></trkpt><trkpt lat="43.1388817" lon="2.183815"><ele>262.0</ele><time>2026-03-22T16:08:24.674Z</time></trkpt><trkpt lat="43.13876" lon="2.1839267"><ele>261.5</ele><time>2026-03-22T16:08:25.674Z</time></trkpt><trkpt lat="43.1386317" lon="2.1840217"><ele>261.0</ele><time>2026-03-22T16:08:26.675Z</time></trkpt><trkpt lat="43.1384983" lon="2.184105"><ele>261.0</ele><time>2026-03-22T16:08:27.674Z</time></trkpt><trkpt lat="43.1383583" lon="2.184175"><ele>261.0</ele><time>2026-03-22T16:08:28.676Z</time></trkpt><trkpt lat="43.1382167" lon="2.1842317"><ele>261.0</ele><time>2026-03-22T16:08:29.673Z</time></trkpt><trkpt lat="43.1380767" lon="2.1842933"><ele>261.0</ele><time>2026-03-22T16:08:30.676Z</time></trkpt><trkpt lat="43.1379333" lon="2.1843617"><ele>260.6666666666667</ele><time>2026-03-22T16:08:31.675Z</time></trkpt><trkpt lat="43.1377917" lon="2.1844433"><ele>260.33333333333337</ele><time>2026-03-22T16:08:32.676Z</time></trkpt><trkpt lat="43.1376583" lon="2.184535"><ele>260.0</ele><time>2026-03-22T16:08:33.675Z</time></trkpt><trkpt lat="43.1375283" lon="2.18464"><ele>260.0</ele><time>2026-03-22T16:08:34.673Z</time></trkpt><trkpt lat="43.1374033" lon="2.18476"><ele>260.0</ele><time>2026-03-22T16:08:35.676Z</time></trkpt><trkpt lat="43.1372883" lon="2.1848933"><ele>260.0</ele><time>2026-03-22T16:08:36.675Z</time></trkpt><trkpt lat="43.1371767" lon="2.185035"><ele>258.0</ele><time>2026-03-22T16:08:37.674Z</time></trkpt><trkpt lat="43.137075" lon="2.1851767"><ele>256.0</ele><time>2026-03-22T16:08:38.677Z</time></trkpt><trkpt lat="43.1369833" lon="2.1853117"><ele>254.0</ele><time>2026-03-22T16:08:39.676Z</time></trkpt><trkpt lat="43.1368967" lon="2.1854483"><ele>252.0</ele><time>2026-03-22T16:08:40.675Z</time></trkpt><trkpt lat="43.1368133" lon="2.1855767"><ele>252.0</ele><time>2026-03-22T16:08:41.678Z</time></trkpt><trkpt lat="43.1367267" lon="2.185695"><ele>252.0</ele><time>2026-03-22T16:08:42.676Z</time></trkpt><trkpt lat="43.13663" lon="2.1857917"><ele>252.0</ele><time>2026-03-22T16:08:43.675Z</time></trkpt><trkpt lat="43.1365167" lon="2.1858683"><ele>252.0</ele><time>2026-03-22T16:08:44.675Z</time></trkpt><trkpt lat="43.1363933" lon="2.18593"><ele>250.5</ele><time>2026-03-22T16:08:45.674Z</time></trkpt><trkpt lat="43.13626" lon="2.1859783"><ele>249.0</ele><time>2026-03-22T16:08:46.673Z</time></trkpt><trkpt lat="43.1361167" lon="2.18602"><ele>247.5</ele><time>2026-03-22T16:08:47.674Z</time></trkpt><trkpt lat="43.1359733" lon="2.1860683"><ele>246.0</ele><time>2026-03-22T16:08:48.673Z</time></trkpt><trkpt lat="43.1358333" lon="2.186125"><ele>245.75</ele><time>2026-03-22T16:08:49.673Z</time></trkpt><trkpt lat="43.1357" lon="2.1861817"><ele>245.5</ele><time>2026-03-22T16:08:50.674Z</time></trkpt><trkpt lat="43.13557" lon="2.1862367"><ele>245.25</ele><time>2026-03-22T16:08:51.673Z</time></trkpt><trkpt lat="43.13544" lon="2.1862983"><ele>245.0</ele><time>2026-03-22T16:08:52.676Z</time></trkpt><trkpt lat="43.1353133" lon="2.1863617"><ele>245.0</ele><time>2026-03-22T16:08:53.673Z</time></trkpt><trkpt lat="43.1351917" lon="2.1864267"><ele>245.0</ele><time>2026-03-22T16:08:54.675Z</time></trkpt><trkpt lat="43.1350767" lon="2.1864983"><ele>245.0</ele><time>2026-03-22T16:08:55.673Z</time></trkpt><trkpt lat="43.13497" lon="2.18657"><ele>245.0</ele><time>2026-03-22T16:08:56.676Z</time></trkpt><trkpt lat="43.13487" lon="2.186635"><ele>244.6</ele><time>2026-03-22T16:08:57.677Z</time></trkpt><trkpt lat="43.134775" lon="2.18669"><ele>244.2</ele><time>2026-03-22T16:08:58.674Z</time></trkpt><trkpt lat="43.1346883" lon="2.18673"><ele>243.8</ele><time>2026-03-22T16:08:59.676Z</time></trkpt><trkpt lat="43.134615" lon="2.1867583"><ele>243.4</ele><time>2026-03-22T16:09:00.675Z</time></trkpt><trkpt lat="43.1345183" lon="2.1868167"><ele>243.0</ele><time>2026-03-22T16:09:02.677Z</time></trkpt><trkpt lat="43.1344867" lon="2.1869233"><ele>243.0</ele><time>2026-03-22T16:09:04.675Z</time></trkpt><trkpt lat="43.1344867" lon="2.1871067"><ele>243.0</ele><time>2026-03-22T16:09:06.677Z</time></trkpt><trkpt lat="43.1344933" lon="2.1872383"><ele>243.0</ele><time>2026-03-22T16:09:07.675Z</time></trkpt><trkpt lat="43.1344983" lon="2.1873917"><ele>243.0</ele><time>2026-03-22T16:09:08.675Z</time></trkpt><trkpt lat="43.134505" lon="2.1875583"><ele>242.75</ele><time>2026-03-22T16:09:09.675Z</time></trkpt><trkpt lat="43.1345133" lon="2.187735"><ele>242.5</ele><time>2026-03-22T16:09:10.674Z</time></trkpt><trkpt lat="43.13452" lon="2.18792"><ele>242.25</ele><time>2026-03-22T16:09:11.675Z</time></trkpt><trkpt lat="43.1345267" lon="2.1881167"><ele>242.0</ele><time>2026-03-22T16:09:12.676Z</time></trkpt><trkpt lat="43.1345333" lon="2.1883117"><ele>241.75</ele><time>2026-03-22T16:09:13.677Z</time></trkpt><trkpt lat="43.1345383" lon="2.188495"><ele>241.5</ele><time>2026-03-22T16:09:14.676Z</time></trkpt><trkpt lat="43.1345433" lon="2.18866"><ele>241.25</ele><time>2026-03-22T16:09:15.673Z</time></trkpt><trkpt lat="43.13456" lon="2.188815"><ele>241.0</ele><time>2026-03-22T16:09:16.674Z</time></trkpt><trkpt lat="43.1345933" lon="2.188965"><ele>241.5</ele><time>2026-03-22T16:09:17.673Z</time></trkpt><trkpt lat="43.1346467" lon="2.18912"><ele>242.0</ele><time>2026-03-22T16:09:18.673Z</time></trkpt><trkpt lat="43.13471" lon="2.1892817"><ele>242.5</ele><time>2026-03-22T16:09:19.673Z</time></trkpt><trkpt lat="43.1347717" lon="2.189455"><ele>243.0</ele><time>2026-03-22T16:09:20.678Z</time></trkpt><trkpt lat="43.1348333" lon="2.189635"><ele>243.5</ele><time>2026-03-22T16:09:21.675Z</time></trkpt><trkpt lat="43.1348983" lon="2.1898167"><ele>244.0</ele><time>2026-03-22T16:09:22.673Z</time></trkpt><trkpt lat="43.134965" lon="2.1900033"><ele>244.5</ele><time>2026-03-22T16:09:23.676Z</time></trkpt><trkpt lat="43.1350333" lon="2.190185"><ele>245.0</ele><time>2026-03-22T16:09:24.676Z</time></trkpt><trkpt lat="43.1351" lon="2.190355"><ele>246.25</ele><time>2026-03-22T16:09:25.675Z</time></trkpt><trkpt lat="43.1351633" lon="2.1905117"><ele>247.5</ele><time>2026-03-22T16:09:26.674Z</time></trkpt><trkpt lat="43.1352267" lon="2.1906533"><ele>248.75</ele><time>2026-03-22T16:09:27.674Z</time></trkpt><trkpt lat="43.135285" lon="2.1907883"><ele>250.0</ele><time>2026-03-22T16:09:28.677Z</time></trkpt><trkpt lat="43.1353383" lon="2.1909083"><ele>251.33333333333331</ele><time>2026-03-22T16:09:29.675Z</time></trkpt><trkpt lat="43.1353917" lon="2.1910133"><ele>252.66666666666666</ele><time>2026-03-22T16:09:30.676Z</time></trkpt><trkpt lat="43.1354383" lon="2.1911"><ele>254.0</ele><time>2026-03-22T16:09:31.675Z</time></trkpt><trkpt lat="43.1354883" lon="2.19118"><ele>255.33333333333331</ele><time>2026-03-22T16:09:32.674Z</time></trkpt><trkpt lat="43.13554" lon="2.1912667"><ele>256.6666666666667</ele><time>2026-03-22T16:09:33.677Z</time></trkpt><trkpt lat="43.1355917" lon="2.19137"><ele>258.0</ele><time>2026-03-22T16:09:34.675Z</time></trkpt><trkpt lat="43.1356417" lon="2.19148"><ele>258.0</ele><time>2026-03-22T16:09:35.677Z</time></trkpt><trkpt lat="43.135705" lon="2.1916033"><ele>258.0</ele><time>2026-03-22T16:09:36.675Z</time></trkpt><trkpt lat="43.1357767" lon="2.1917267"><ele>258.0</ele><time>2026-03-22T16:09:37.675Z</time></trkpt><trkpt lat="43.1358533" lon="2.19184"><ele>258.0</ele><time>2026-03-22T16:09:38.675Z</time></trkpt><trkpt lat="43.1359283" lon="2.1919417"><ele>258.0</ele><time>2026-03-22T16:09:39.675Z</time></trkpt><trkpt lat="43.1360017" lon="2.1920367"><ele>258.0</ele><time>2026-03-22T16:09:40.676Z</time></trkpt><trkpt lat="43.136075" lon="2.1921317"><ele>258.0</ele><time>2026-03-22T16:09:41.674Z</time></trkpt><trkpt lat="43.13614" lon="2.1922233"><ele>258.0</ele><time>2026-03-22T16:09:42.675Z</time></trkpt><trkpt lat="43.1362017" lon="2.1923167"><ele>258.0</ele><time>2026-03-22T16:09:43.676Z</time></trkpt><trkpt lat="43.136265" lon="2.1924083"><ele>258.0</ele><time>2026-03-22T16:09:44.676Z</time></trkpt><trkpt lat="43.1363283" lon="2.1924967"><ele>257.8</ele><time>2026-03-22T16:09:45.673Z</time></trkpt><trkpt lat="43.13639" lon="2.192585"><ele>257.6</ele><time>2026-03-22T16:09:46.676Z</time></trkpt><trkpt lat="43.1364467" lon="2.1926667"><ele>257.4</ele><time>2026-03-22T16:09:47.674Z</time></trkpt><trkpt lat="43.1365033" lon="2.1927233"><ele>257.2</ele><time>2026-03-22T16:09:48.675Z</time></trkpt><trkpt lat="43.1365833" lon="2.1928267"><ele>257.0</ele><time>2026-03-22T16:09:50.674Z</time></trkpt><trkpt lat="43.1366717" lon="2.1929233"><ele>257.0</ele><time>2026-03-22T16:09:52.673Z</time></trkpt><trkpt lat="43.13672" lon="2.19299"><ele>257.0</ele><time>2026-03-22T16:09:53.674Z</time></trkpt><trkpt lat="43.13677" lon="2.19307"><ele>257.0</ele><time>2026-03-22T16:09:54.676Z</time></trkpt><trkpt lat="43.136815" lon="2.19316"><ele>257.0</ele><time>2026-03-22T16:09:55.674Z</time></trkpt><trkpt lat="43.1368583" lon="2.1932633"><ele>257.0</ele><time>2026-03-22T16:09:56.674Z</time></trkpt><trkpt lat="43.1369117" lon="2.1933733"><ele>257.0</ele><time>2026-03-22T16:09:57.674Z</time></trkpt><trkpt lat="43.136965" lon="2.1934883"><ele>255.8</ele><time>2026-03-22T16:09:58.674Z</time></trkpt><trkpt lat="43.1370217" lon="2.1936033"><ele>254.6</ele><time>2026-03-22T16:09:59.677Z</time></trkpt><trkpt lat="43.137075" lon="2.1937117"><ele>253.40000000000003</ele><time>2026-03-22T16:10:00.677Z</time></trkpt><trkpt lat="43.1371183" lon="2.1938033"><ele>252.20000000000002</ele><time>2026-03-22T16:10:01.674Z</time></trkpt><trkpt lat="43.1371633" lon="2.1938817"><ele>251.0</ele><time>2026-03-22T16:10:02.674Z</time></trkpt><trkpt lat="43.13724" lon="2.1939917"><ele>250.60000000000002</ele><time>2026-03-22T16:10:04.674Z</time></trkpt><trkpt lat="43.1372383" lon="2.194095"><ele>250.20000000000002</ele><time>2026-03-22T16:10:06.679Z</time></trkpt><trkpt lat="43.1371367" lon="2.1942367"><ele>249.79999999999998</ele><time>2026-03-22T16:10:08.675Z</time></trkpt><trkpt lat="43.1370617" lon="2.1943367"><ele>249.39999999999998</ele><time>2026-03-22T16:10:09.676Z</time></trkpt><trkpt lat="43.1369767" lon="2.1944433"><ele>249.0</ele><time>2026-03-22T16:10:10.675Z</time></trkpt><trkpt lat="43.136895" lon="2.1945633"><ele>249.0</ele><time>2026-03-22T16:10:11.674Z</time></trkpt><trkpt lat="43.13681" lon="2.1946917"><ele>249.0</ele><time>2026-03-22T16:10:12.674Z</time></trkpt><trkpt lat="43.1367117" lon="2.1948333"><ele>249.0</ele><time>2026-03-22T16:10:13.672Z</time></trkpt><trkpt lat="43.1366083" lon="2.19498"><ele>249.0</ele><time>2026-03-22T16:10:14.676Z</time></trkpt><trkpt lat="43.1365083" lon="2.1951267"><ele>248.0</ele><time>2026-03-22T16:10:15.674Z</time></trkpt><trkpt lat="43.13641" lon="2.1952683"><ele>247.0</ele><time>2026-03-22T16:10:16.675Z</time></trkpt><trkpt lat="43.1363133" lon="2.1954267"><ele>246.0</ele><time>2026-03-22T16:10:17.674Z</time></trkpt><trkpt lat="43.1362233" lon="2.1955783"><ele>245.0</ele><time>2026-03-22T16:10:18.675Z</time></trkpt><trkpt lat="43.1361367" lon="2.19572"><ele>247.6</ele><time>2026-03-22T16:10:19.674Z</time></trkpt><trkpt lat="43.1360467" lon="2.19585"><ele>250.2</ele><time>2026-03-22T16:10:20.675Z</time></trkpt><trkpt lat="43.1359683" lon="2.1959667"><ele>252.8</ele><time>2026-03-22T16:10:21.674Z</time></trkpt><trkpt lat="43.1359083" lon="2.1960667"><ele>255.4</ele><time>2026-03-22T16:10:22.675Z</time></trkpt><trkpt lat="43.1358583" lon="2.1961467"><ele>258.0</ele><time>2026-03-22T16:10:23.673Z</time></trkpt><trkpt lat="43.1358017" lon="2.1962483"><ele>258.0</ele><time>2026-03-22T16:10:25.674Z</time></trkpt><trkpt lat="43.1357383" lon="2.1963217"><ele>258.0</ele><time>2026-03-22T16:10:28.678Z</time></trkpt><trkpt lat="43.1356117" lon="2.1963767"><ele>258.0</ele><time>2026-03-22T16:10:30.675Z</time></trkpt><trkpt lat="43.1355233" lon="2.1964117"><ele>258.0</ele><time>2026-03-22T16:10:31.676Z</time></trkpt><trkpt lat="43.1354183" lon="2.196445"><ele>258.0</ele><time>2026-03-22T16:10:32.675Z</time></trkpt><trkpt lat="43.135305" lon="2.1964833"><ele>259.0</ele><time>2026-03-22T16:10:33.674Z</time></trkpt><trkpt lat="43.1351833" lon="2.1965317"><ele>260.0</ele><time>2026-03-22T16:10:34.675Z</time></trkpt><trkpt lat="43.1350567" lon="2.196595"><ele>261.0</ele><time>2026-03-22T16:10:35.674Z</time></trkpt><trkpt lat="43.1349267" lon="2.196665"><ele>262.0</ele><time>2026-03-22T16:10:36.674Z</time></trkpt><trkpt lat="43.1348017" lon="2.1967467"><ele>259.25</ele><time>2026-03-22T16:10:37.678Z</time></trkpt><trkpt lat="43.1346833" lon="2.19683"><ele>256.5</ele><time>2026-03-22T16:10:38.674Z</time></trkpt><trkpt lat="43.1345683" lon="2.196915"><ele>253.75</ele><time>2026-03-22T16:10:39.677Z</time></trkpt><trkpt lat="43.1344533" lon="2.1970083"><ele>251.0</ele><time>2026-03-22T16:10:40.676Z</time></trkpt><trkpt lat="43.1343383" lon="2.1971017"><ele>251.0</ele><time>2026-03-22T16:10:41.675Z</time></trkpt><trkpt lat="43.1342217" lon="2.197195"><ele>251.0</ele><time>2026-03-22T16:10:42.673Z</time></trkpt><trkpt lat="43.1341" lon="2.1973017"><ele>251.0</ele><time>2026-03-22T16:10:43.673Z</time></trkpt><trkpt lat="43.133975" lon="2.1974117"><ele>251.0</ele><time>2026-03-22T16:10:44.675Z</time></trkpt><trkpt lat="43.1338433" lon="2.1975117"><ele>251.5</ele><time>2026-03-22T16:10:45.675Z</time></trkpt><trkpt lat="43.1337133" lon="2.1975967"><ele>252.0</ele><time>2026-03-22T16:10:46.674Z</time></trkpt><trkpt lat="43.13359" lon="2.1976717"><ele>252.5</ele><time>2026-03-22T16:10:47.675Z</time></trkpt><trkpt lat="43.1334783" lon="2.1977483"><ele>253.0</ele><time>2026-03-22T16:10:48.676Z</time></trkpt><trkpt lat="43.1333667" lon="2.1978317"><ele>253.0</ele><time>2026-03-22T16:10:49.675Z</time></trkpt><trkpt lat="43.1332517" lon="2.1979117"><ele>253.0</ele><time>2026-03-22T16:10:50.676Z</time></trkpt><trkpt lat="43.1331417" lon="2.1979733"><ele>253.0</ele><time>2026-03-22T16:10:51.674Z</time></trkpt><trkpt lat="43.133035" lon="2.19803"><ele>253.0</ele><time>2026-03-22T16:10:52.675Z</time></trkpt><trkpt lat="43.1329383" lon="2.1980917"><ele>252.2</ele><time>2026-03-22T16:10:53.678Z</time></trkpt><trkpt lat="43.1328567" lon="2.1981717"><ele>251.4</ele><time>2026-03-22T16:10:54.675Z</time></trkpt><trkpt lat="43.1327883" lon="2.1982733"><ele>250.59999999999997</ele><time>2026-03-22T16:10:55.675Z</time></trkpt><trkpt lat="43.1327283" lon="2.1983967"><ele>249.79999999999998</ele><time>2026-03-22T16:10:56.676Z</time></trkpt><trkpt lat="43.132665" lon="2.1985267"><ele>249.0</ele><time>2026-03-22T16:10:57.676Z</time></trkpt><trkpt lat="43.1325933" lon="2.1986467"><ele>249.0</ele><time>2026-03-22T16:10:58.676Z</time></trkpt><trkpt lat="43.1325083" lon="2.198745"><ele>248.99999999999997</ele><time>2026-03-22T16:10:59.675Z</time></trkpt><trkpt lat="43.13242" lon="2.1988267"><ele>248.99999999999997</ele><time>2026-03-22T16:11:00.675Z</time></trkpt><trkpt lat="43.1323417" lon="2.1988967"><ele>249.0</ele><time>2026-03-22T16:11:01.679Z</time></trkpt><trkpt lat="43.1322733" lon="2.19896"><ele>249.0</ele><time>2026-03-22T16:11:02.677Z</time></trkpt><trkpt lat="43.13221" lon="2.1990783"><ele>250.0</ele><time>2026-03-22T16:11:04.677Z</time></trkpt><trkpt lat="43.1322433" lon="2.1992683"><ele>250.99999999999997</ele><time>2026-03-22T16:11:06.676Z</time></trkpt><trkpt lat="43.1322917" lon="2.1993883"><ele>251.99999999999997</ele><time>2026-03-22T16:11:07.676Z</time></trkpt><trkpt lat="43.132345" lon="2.199515"><ele>253.0</ele><time>2026-03-22T16:11:08.675Z</time></trkpt><trkpt lat="43.1323867" lon="2.199635"><ele>254.0</ele><time>2026-03-22T16:11:09.675Z</time></trkpt><trkpt lat="43.1324217" lon="2.1997383"><ele>254.0</ele><time>2026-03-22T16:11:10.676Z</time></trkpt><trkpt lat="43.1324533" lon="2.199825"><ele>253.99999999999997</ele><time>2026-03-22T16:11:11.681Z</time></trkpt><trkpt lat="43.1325117" lon="2.1999367"><ele>253.99999999999997</ele><time>2026-03-22T16:11:13.675Z</time></trkpt><trkpt lat="43.1325683" lon="2.2000317"><ele>254.0</ele><time>2026-03-22T16:11:15.673Z</time></trkpt><trkpt lat="43.1326517" lon="2.2001417"><ele>254.0</ele><time>2026-03-22T16:11:17.675Z</time></trkpt><trkpt lat="43.1327483" lon="2.2002583"><ele>254.00000000000003</ele><time>2026-03-22T16:11:19.675Z</time></trkpt><trkpt lat="43.1328133" lon="2.20032"><ele>254.0</ele><time>2026-03-22T16:11:20.674Z</time></trkpt><trkpt lat="43.13288" lon="2.20038"><ele>254.0</ele><time>2026-03-22T16:11:21.675Z</time></trkpt><trkpt lat="43.1329467" lon="2.20043"><ele>254.0</ele><time>2026-03-22T16:11:22.676Z</time></trkpt><trkpt lat="43.133005" lon="2.200485"><ele>254.00000000000003</ele><time>2026-03-22T16:11:23.679Z</time></trkpt><trkpt lat="43.1330533" lon="2.200545"><ele>254.0</ele><time>2026-03-22T16:11:24.676Z</time></trkpt><trkpt lat="43.13313" lon="2.2006767"><ele>253.33333333333334</ele><time>2026-03-22T16:11:26.675Z</time></trkpt><trkpt lat="43.1332017" lon="2.200785"><ele>252.66666666666669</ele><time>2026-03-22T16:11:28.675Z</time></trkpt><trkpt lat="43.1332467" lon="2.20085"><ele>252.0</ele><time>2026-03-22T16:11:29.682Z</time></trkpt><trkpt lat="43.133295" lon="2.200925"><ele>251.33333333333331</ele><time>2026-03-22T16:11:30.674Z</time></trkpt><trkpt lat="43.13334" lon="2.2009967"><ele>250.66666666666666</ele><time>2026-03-22T16:11:31.675Z</time></trkpt><trkpt lat="43.1334083" lon="2.2011317"><ele>250.0</ele><time>2026-03-22T16:11:33.675Z</time></trkpt><trkpt lat="43.1334367" lon="2.2012633"><ele>250.0</ele><time>2026-03-22T16:11:35.674Z</time></trkpt><trkpt lat="43.1334983" lon="2.2014"><ele>250.0</ele><time>2026-03-22T16:11:37.675Z</time></trkpt><trkpt lat="43.1335717" lon="2.2015233"><ele>250.0</ele><time>2026-03-22T16:11:39.675Z</time></trkpt><trkpt lat="43.1336467" lon="2.2016467"><ele>250.0</ele><time>2026-03-22T16:11:41.675Z</time></trkpt><trkpt lat="43.13368" lon="2.2017367"><ele>250.0</ele><time>2026-03-22T16:11:43.675Z</time></trkpt><trkpt lat="43.1337267" lon="2.2018233"><ele>248.83333333333331</ele><time>2026-03-22T16:11:47.674Z</time></trkpt><trkpt lat="43.1337617" lon="2.2018967"><ele>247.66666666666666</ele><time>2026-03-22T16:11:49.676Z</time></trkpt><trkpt lat="43.1338233" lon="2.2020367"><ele>246.5</ele><time>2026-03-22T16:11:51.675Z</time></trkpt><trkpt lat="43.1338483" lon="2.2021317"><ele>245.33333333333331</ele><time>2026-03-22T16:11:53.675Z</time></trkpt><trkpt lat="43.1338967" lon="2.2022283"><ele>244.16666666666666</ele><time>2026-03-22T16:11:56.676Z</time></trkpt><trkpt lat="43.1339517" lon="2.2022933"><ele>243.0</ele><time>2026-03-22T16:11:59.676Z</time></trkpt><trkpt lat="43.1340267" lon="2.202305"><ele>243.0</ele><time>2026-03-22T16:12:01.675Z</time></trkpt><trkpt lat="43.13409" lon="2.202305"><ele>243.0</ele><time>2026-03-22T16:12:03.674Z</time></trkpt><trkpt lat="43.1341617" lon="2.2023067"><ele>243.0</ele><time>2026-03-22T16:12:05.675Z</time></trkpt><trkpt lat="43.13425" lon="2.2023033"><ele>243.0</ele><time>2026-03-22T16:12:08.676Z</time></trkpt><trkpt lat="43.134315" lon="2.2022883"><ele>243.0</ele><time>2026-03-22T16:12:10.676Z</time></trkpt><trkpt lat="43.1344067" lon="2.2022617"><ele>243.0</ele><time>2026-03-22T16:12:12.674Z</time></trkpt><trkpt lat="43.1344683" lon="2.2022217"><ele>243.0</ele><time>2026-03-22T16:12:13.676Z</time></trkpt><trkpt lat="43.1345367" lon="2.2021617"><ele>243.0</ele><time>2026-03-22T16:12:14.676Z</time></trkpt><trkpt lat="43.1346167" lon="2.2021"><ele>243.0</ele><time>2026-03-22T16:12:15.675Z</time></trkpt><trkpt lat="43.1346983" lon="2.2020317"><ele>243.0</ele><time>2026-03-22T16:12:16.675Z</time></trkpt><trkpt lat="43.134765" lon="2.2019767"><ele>243.0</ele><time>2026-03-22T16:12:17.675Z</time></trkpt><trkpt lat="43.1348467" lon="2.20193"><ele>243.0</ele><time>2026-03-22T16:12:19.674Z</time></trkpt><trkpt lat="43.1349033" lon="2.202025"><ele>243.0</ele><time>2026-03-22T16:12:22.676Z</time></trkpt><trkpt lat="43.1348717" lon="2.2021183"><ele>243.0</ele><time>2026-03-22T16:12:24.675Z</time></trkpt><trkpt lat="43.1348383" lon="2.202255"><ele>243.0</ele><time>2026-03-22T16:12:26.676Z</time></trkpt><trkpt lat="43.1348133" lon="2.2023383"><ele>243.0</ele><time>2026-03-22T16:12:27.674Z</time></trkpt><trkpt lat="43.1347733" lon="2.2024217"><ele>243.0</ele><time>2026-03-22T16:12:28.675Z</time></trkpt><trkpt lat="43.1347333" lon="2.202505"><ele>243.0</ele><time>2026-03-22T16:12:29.675Z</time></trkpt><trkpt lat="43.1346967" lon="2.2025833"><ele>242.16666666666666</ele><time>2026-03-22T16:12:30.678Z</time></trkpt><trkpt lat="43.1346583" lon="2.2026533"><ele>241.33333333333331</ele><time>2026-03-22T16:12:31.676Z</time></trkpt><trkpt lat="43.13463" lon="2.2028183"><ele>240.5</ele><time>2026-03-22T16:12:33.676Z</time></trkpt><trkpt lat="43.134615" lon="2.2029033"><ele>239.66666666666666</ele><time>2026-03-22T16:12:34.676Z</time></trkpt><trkpt lat="43.1345983" lon="2.203"><ele>238.83333333333331</ele><time>2026-03-22T16:12:35.675Z</time></trkpt><trkpt lat="43.1345733" lon="2.203105"><ele>238.0</ele><time>2026-03-22T16:12:36.675Z</time></trkpt><trkpt lat="43.13454" lon="2.2032067"><ele>240.16666666666666</ele><time>2026-03-22T16:12:37.675Z</time></trkpt><trkpt lat="43.1345017" lon="2.2033083"><ele>242.33333333333331</ele><time>2026-03-22T16:12:38.676Z</time></trkpt><trkpt lat="43.13448" lon="2.203405"><ele>244.5</ele><time>2026-03-22T16:12:39.675Z</time></trkpt><trkpt lat="43.13445" lon="2.203545"><ele>246.66666666666669</ele><time>2026-03-22T16:12:41.675Z</time></trkpt><trkpt lat="43.1345033" lon="2.2036083"><ele>248.83333333333334</ele><time>2026-03-22T16:12:43.679Z</time></trkpt><trkpt lat="43.134575" lon="2.20371"><ele>251.0</ele><time>2026-03-22T16:12:45.673Z</time></trkpt><trkpt lat="43.1346233" lon="2.20379"><ele>251.0</ele><time>2026-03-22T16:12:46.675Z</time></trkpt><trkpt lat="43.134685" lon="2.2038867"><ele>251.00000000000003</ele><time>2026-03-22T16:12:47.681Z</time></trkpt><trkpt lat="43.134755" lon="2.2039917"><ele>251.00000000000003</ele><time>2026-03-22T16:12:48.676Z</time></trkpt><trkpt lat="43.1348217" lon="2.2041"><ele>251.0</ele><time>2026-03-22T16:12:49.674Z</time></trkpt><trkpt lat="43.1348883" lon="2.2041983"><ele>251.0</ele><time>2026-03-22T16:12:50.675Z</time></trkpt><trkpt lat="43.13495" lon="2.2042917"><ele>252.60000000000002</ele><time>2026-03-22T16:12:51.674Z</time></trkpt><trkpt lat="43.13501" lon="2.2043833"><ele>254.20000000000002</ele><time>2026-03-22T16:12:52.675Z</time></trkpt><trkpt lat="43.1350767" lon="2.20448"><ele>255.79999999999998</ele><time>2026-03-22T16:12:53.674Z</time></trkpt><trkpt lat="43.135145" lon="2.204575"><ele>257.4</ele><time>2026-03-22T16:12:54.675Z</time></trkpt><trkpt lat="43.135215" lon="2.2046733"><ele>259.0</ele><time>2026-03-22T16:12:55.674Z</time></trkpt><trkpt lat="43.1352867" lon="2.2047733"><ele>258.0</ele><time>2026-03-22T16:12:56.675Z</time></trkpt><trkpt lat="43.135355" lon="2.204875"><ele>257.0</ele><time>2026-03-22T16:12:57.675Z</time></trkpt><trkpt lat="43.135425" lon="2.2049767"><ele>255.99999999999997</ele><time>2026-03-22T16:12:58.673Z</time></trkpt><trkpt lat="43.1354983" lon="2.2050783"><ele>255.0</ele><time>2026-03-22T16:12:59.676Z</time></trkpt><trkpt lat="43.13558" lon="2.2051817"><ele>254.0</ele><time>2026-03-22T16:13:00.677Z</time></trkpt><trkpt lat="43.1356717" lon="2.205285"><ele>254.5</ele><time>2026-03-22T16:13:01.674Z</time></trkpt><trkpt lat="43.1357733" lon="2.2053833"><ele>255.0</ele><time>2026-03-22T16:13:02.675Z</time></trkpt><trkpt lat="43.1358767" lon="2.2054767"><ele>255.5</ele><time>2026-03-22T16:13:03.677Z</time></trkpt><trkpt lat="43.13598" lon="2.2055783"><ele>256.0</ele><time>2026-03-22T16:13:04.675Z</time></trkpt><trkpt lat="43.1360767" lon="2.2056967"><ele>256.0</ele><time>2026-03-22T16:13:05.683Z</time></trkpt><trkpt lat="43.1361717" lon="2.205825"><ele>256.0</ele><time>2026-03-22T16:13:06.675Z</time></trkpt><trkpt lat="43.13625" lon="2.2059467"><ele>256.0</ele><time>2026-03-22T16:13:07.676Z</time></trkpt><trkpt lat="43.1363283" lon="2.2060583"><ele>256.0</ele><time>2026-03-22T16:13:08.676Z</time></trkpt><trkpt lat="43.1363967" lon="2.2061617"><ele>256.0</ele><time>2026-03-22T16:13:09.675Z</time></trkpt><trkpt lat="43.13646" lon="2.2062567"><ele>256.0</ele><time>2026-03-22T16:13:10.673Z</time></trkpt><trkpt lat="43.136515" lon="2.206345"><ele>256.0</ele><time>2026-03-22T16:13:11.675Z</time></trkpt><trkpt lat="43.1365583" lon="2.2064183"><ele>256.0</ele><time>2026-03-22T16:13:12.678Z</time></trkpt><trkpt lat="43.136635" lon="2.2065333"><ele>256.0</ele><time>2026-03-22T16:13:14.675Z</time></trkpt><trkpt lat="43.1366667" lon="2.2066667"><ele>255.57142857142856</ele><time>2026-03-22T16:13:16.674Z</time></trkpt><trkpt lat="43.1366733" lon="2.20676"><ele>255.1428571428571</ele><time>2026-03-22T16:13:17.673Z</time></trkpt><trkpt lat="43.13667" lon="2.2068683"><ele>254.71428571428572</ele><time>2026-03-22T16:13:18.674Z</time></trkpt><trkpt lat="43.1366783" lon="2.206975"><ele>254.28571428571428</ele><time>2026-03-22T16:13:19.674Z</time></trkpt><trkpt lat="43.13669" lon="2.20708"><ele>253.85714285714286</ele><time>2026-03-22T16:13:20.679Z</time></trkpt><trkpt lat="43.1367017" lon="2.2071767"><ele>253.42857142857144</ele><time>2026-03-22T16:13:21.676Z</time></trkpt><trkpt lat="43.1367167" lon="2.207265"><ele>253.00000000000003</ele><time>2026-03-22T16:13:22.677Z</time></trkpt><trkpt lat="43.136745" lon="2.2073817"><ele>252.2</ele><time>2026-03-22T16:13:24.676Z</time></trkpt><trkpt lat="43.1368033" lon="2.207435"><ele>251.4</ele><time>2026-03-22T16:13:27.674Z</time></trkpt><trkpt lat="43.136895" lon="2.2074517"><ele>250.59999999999997</ele><time>2026-03-22T16:13:29.674Z</time></trkpt><trkpt lat="43.137025" lon="2.2074333"><ele>249.79999999999998</ele><time>2026-03-22T16:13:31.674Z</time></trkpt><trkpt lat="43.1371033" lon="2.207435"><ele>249.0</ele><time>2026-03-22T16:13:32.675Z</time></trkpt><trkpt lat="43.1371933" lon="2.20744"><ele>249.0</ele><time>2026-03-22T16:13:33.674Z</time></trkpt><trkpt lat="43.137285" lon="2.20743"><ele>249.0</ele><time>2026-03-22T16:13:34.674Z</time></trkpt><trkpt lat="43.13737" lon="2.2074133"><ele>249.0</ele><time>2026-03-22T16:13:35.675Z</time></trkpt><trkpt lat="43.1374567" lon="2.2074"><ele>249.0</ele><time>2026-03-22T16:13:36.674Z</time></trkpt><trkpt lat="43.13754" lon="2.20737"><ele>249.0</ele><time>2026-03-22T16:13:37.674Z</time></trkpt><trkpt lat="43.1376133" lon="2.2073517"><ele>249.0</ele><time>2026-03-22T16:13:38.674Z</time></trkpt><trkpt lat="43.13771" lon="2.2073133"><ele>249.16666666666666</ele><time>2026-03-22T16:13:40.676Z</time></trkpt><trkpt lat="43.1377067" lon="2.20741"><ele>249.33333333333331</ele><time>2026-03-22T16:13:45.674Z</time></trkpt><trkpt lat="43.1376217" lon="2.2075167"><ele>249.5</ele><time>2026-03-22T16:13:47.672Z</time></trkpt><trkpt lat="43.1375917" lon="2.2075983"><ele>249.66666666666666</ele><time>2026-03-22T16:13:48.674Z</time></trkpt><trkpt lat="43.1375583" lon="2.207675"><ele>249.83333333333331</ele><time>2026-03-22T16:13:49.674Z</time></trkpt><trkpt lat="43.1375" lon="2.20776"><ele>250.0</ele><time>2026-03-22T16:13:51.677Z</time></trkpt><trkpt lat="43.1374317" lon="2.2078183"><ele>249.8</ele><time>2026-03-22T16:13:53.674Z</time></trkpt><trkpt lat="43.1373167" lon="2.2078683"><ele>249.6</ele><time>2026-03-22T16:13:55.675Z</time></trkpt><trkpt lat="43.137195" lon="2.2079183"><ele>249.39999999999998</ele><time>2026-03-22T16:13:57.674Z</time></trkpt><trkpt lat="43.1371333" lon="2.2079683"><ele>249.2</ele><time>2026-03-22T16:13:58.675Z</time></trkpt><trkpt lat="43.1370683" lon="2.2080333"><ele>249.0</ele><time>2026-03-22T16:13:59.675Z</time></trkpt><trkpt lat="43.1369983" lon="2.2081317"><ele>249.0</ele><time>2026-03-22T16:14:00.674Z</time></trkpt><trkpt lat="43.136935" lon="2.20823"><ele>248.99999999999997</ele><time>2026-03-22T16:14:01.677Z</time></trkpt><trkpt lat="43.1368717" lon="2.2083467"><ele>248.99999999999997</ele><time>2026-03-22T16:14:02.676Z</time></trkpt><trkpt lat="43.1368117" lon="2.2084567"><ele>249.0</ele><time>2026-03-22T16:14:03.676Z</time></trkpt><trkpt lat="43.136755" lon="2.2085567"><ele>249.0</ele><time>2026-03-22T16:14:04.675Z</time></trkpt><trkpt lat="43.1366983" lon="2.2086583"><ele>249.0</ele><time>2026-03-22T16:14:05.674Z</time></trkpt><trkpt lat="43.1366417" lon="2.2087583"><ele>249.0</ele><time>2026-03-22T16:14:06.676Z</time></trkpt><trkpt lat="43.1365833" lon="2.2088383"><ele>249.0</ele><time>2026-03-22T16:14:07.675Z</time></trkpt><trkpt lat="43.136525" lon="2.20889"><ele>249.0</ele><time>2026-03-22T16:14:08.676Z</time></trkpt><trkpt lat="43.1364583" lon="2.208925"><ele>249.0</ele><time>2026-03-22T16:14:09.676Z</time></trkpt><trkpt lat="43.136395" lon="2.2089483"><ele>249.0</ele><time>2026-03-22T16:14:10.675Z</time></trkpt><trkpt lat="43.1363083" lon="2.208905"><ele>248.6</ele><time>2026-03-22T16:14:12.677Z</time></trkpt><trkpt lat="43.136215" lon="2.2088233"><ele>248.2</ele><time>2026-03-22T16:14:14.675Z</time></trkpt><trkpt lat="43.1361067" lon="2.2087533"><ele>247.79999999999998</ele><time>2026-03-22T16:14:16.674Z</time></trkpt><trkpt lat="43.135985" lon="2.208775"><ele>247.39999999999998</ele><time>2026-03-22T16:14:18.675Z</time></trkpt><trkpt lat="43.1359033" lon="2.2087933"><ele>247.0</ele><time>2026-03-22T16:14:19.673Z</time></trkpt><trkpt lat="43.1358083" lon="2.208815"><ele>246.49999999999997</ele><time>2026-03-22T16:14:20.674Z</time></trkpt><trkpt lat="43.1357133" lon="2.208845"><ele>246.0</ele><time>2026-03-22T16:14:21.674Z</time></trkpt><trkpt lat="43.135625" lon="2.2088733"><ele>245.5</ele><time>2026-03-22T16:14:22.675Z</time></trkpt><trkpt lat="43.1355533" lon="2.2088817"><ele>245.0</ele><time>2026-03-22T16:14:23.674Z</time></trkpt><trkpt lat="43.1354767" lon="2.20888"><ele>244.49999999999997</ele><time>2026-03-22T16:14:24.674Z</time></trkpt><trkpt lat="43.1354017" lon="2.208865"><ele>244.0</ele><time>2026-03-22T16:14:25.674Z</time></trkpt><trkpt lat="43.1353283" lon="2.2088483"><ele>243.99999999999997</ele><time>2026-03-22T16:14:26.674Z</time></trkpt><trkpt lat="43.1352533" lon="2.208835"><ele>244.0</ele><time>2026-03-22T16:14:27.673Z</time></trkpt><trkpt lat="43.1351817" lon="2.208825"><ele>244.0</ele><time>2026-03-22T16:14:28.674Z</time></trkpt><trkpt lat="43.1350967" lon="2.20884"><ele>244.0</ele><time>2026-03-22T16:14:29.673Z</time></trkpt><trkpt lat="43.13501" lon="2.2088717"><ele>243.99999999999997</ele><time>2026-03-22T16:14:30.674Z</time></trkpt><trkpt lat="43.134925" lon="2.2089133"><ele>244.0</ele><time>2026-03-22T16:14:31.674Z</time></trkpt><trkpt lat="43.13485" lon="2.208945"><ele>243.33333333333331</ele><time>2026-03-22T16:14:32.674Z</time></trkpt><trkpt lat="43.1347733" lon="2.2089633"><ele>242.66666666666666</ele><time>2026-03-22T16:14:33.675Z</time></trkpt><trkpt lat="43.1347017" lon="2.2089767"><ele>242.0</ele><time>2026-03-22T16:14:34.674Z</time></trkpt><trkpt lat="43.13463" lon="2.2089933"><ele>241.33333333333331</ele><time>2026-03-22T16:14:35.675Z</time></trkpt><trkpt lat="43.1345617" lon="2.2090167"><ele>240.66666666666666</ele><time>2026-03-22T16:14:36.676Z</time></trkpt><trkpt lat="43.13449" lon="2.2090717"><ele>240.0</ele><time>2026-03-22T16:14:37.674Z</time></trkpt><trkpt lat="43.1344133" lon="2.209155"><ele>241.6</ele><time>2026-03-22T16:14:38.673Z</time></trkpt><trkpt lat="43.1343417" lon="2.2092583"><ele>243.2</ele><time>2026-03-22T16:14:39.673Z</time></trkpt><trkpt lat="43.13426" lon="2.2093683"><ele>244.8</ele><time>2026-03-22T16:14:40.674Z</time></trkpt><trkpt lat="43.1341833" lon="2.2094833"><ele>246.4</ele><time>2026-03-22T16:14:41.673Z</time></trkpt><trkpt lat="43.1341183" lon="2.2096033"><ele>248.0</ele><time>2026-03-22T16:14:42.675Z</time></trkpt><trkpt lat="43.1340683" lon="2.2097267"><ele>248.60000000000002</ele><time>2026-03-22T16:14:43.674Z</time></trkpt><trkpt lat="43.134015" lon="2.2098583"><ele>249.20000000000002</ele><time>2026-03-22T16:14:44.678Z</time></trkpt><trkpt lat="43.133965" lon="2.2099917"><ele>249.8</ele><time>2026-03-22T16:14:45.674Z</time></trkpt><trkpt lat="43.1339183" lon="2.21011"><ele>250.4</ele><time>2026-03-22T16:14:46.677Z</time></trkpt><trkpt lat="43.1338767" lon="2.2102367"><ele>251.0</ele><time>2026-03-22T16:14:47.673Z</time></trkpt><trkpt lat="43.133835" lon="2.21036"><ele>251.00000000000003</ele><time>2026-03-22T16:14:48.674Z</time></trkpt><trkpt lat="43.1337917" lon="2.2104817"><ele>251.0</ele><time>2026-03-22T16:14:49.673Z</time></trkpt><trkpt lat="43.13375" lon="2.2105767"><ele>251.0</ele><time>2026-03-22T16:14:50.674Z</time></trkpt><trkpt lat="43.1337067" lon="2.2106667"><ele>251.0</ele><time>2026-03-22T16:14:51.673Z</time></trkpt><trkpt lat="43.1336533" lon="2.210745"><ele>251.00000000000003</ele><time>2026-03-22T16:14:52.673Z</time></trkpt><trkpt lat="43.1335967" lon="2.21082"><ele>251.0</ele><time>2026-03-22T16:14:53.679Z</time></trkpt><trkpt lat="43.133535" lon="2.2108733"><ele>252.0</ele><time>2026-03-22T16:14:54.677Z</time></trkpt><trkpt lat="43.133435" lon="2.2109517"><ele>253.00000000000003</ele><time>2026-03-22T16:14:56.675Z</time></trkpt><trkpt lat="43.1333583" lon="2.2110233"><ele>254.00000000000003</ele><time>2026-03-22T16:14:58.676Z</time></trkpt><trkpt lat="43.1332867" lon="2.211075"><ele>255.0</ele><time>2026-03-22T16:15:00.676Z</time></trkpt><trkpt lat="43.1332117" lon="2.2111217"><ele>256.0</ele><time>2026-03-22T16:15:02.675Z</time></trkpt><trkpt lat="43.13314" lon="2.21119"><ele>257.3333333333333</ele><time>2026-03-22T16:15:12.674Z</time></trkpt><trkpt lat="43.133045" lon="2.211305"><ele>258.66666666666663</ele><time>2026-03-22T16:15:14.673Z</time></trkpt><trkpt lat="43.132995" lon="2.2113883"><ele>260.0</ele><time>2026-03-22T16:15:15.674Z</time></trkpt><trkpt lat="43.1329517" lon="2.2114717"><ele>261.3333333333333</ele><time>2026-03-22T16:15:16.675Z</time></trkpt><trkpt lat="43.1329083" lon="2.2115567"><ele>262.6666666666667</ele><time>2026-03-22T16:15:17.673Z</time></trkpt><trkpt lat="43.1328583" lon="2.21164"><ele>264.0</ele><time>2026-03-22T16:15:18.675Z</time></trkpt><trkpt lat="43.1328133" lon="2.2117283"><ele>264.8333333333333</ele><time>2026-03-22T16:15:19.674Z</time></trkpt><trkpt lat="43.1327683" lon="2.2118267"><ele>265.6666666666667</ele><time>2026-03-22T16:15:20.675Z</time></trkpt><trkpt lat="43.1327233" lon="2.21193"><ele>266.5</ele><time>2026-03-22T16:15:21.676Z</time></trkpt><trkpt lat="43.1326767" lon="2.2120267"><ele>267.33333333333337</ele><time>2026-03-22T16:15:22.674Z</time></trkpt><trkpt lat="43.1326333" lon="2.2121183"><ele>268.1666666666667</ele><time>2026-03-22T16:15:23.677Z</time></trkpt><trkpt lat="43.1325883" lon="2.212205"><ele>269.0</ele><time>2026-03-22T16:15:24.675Z</time></trkpt><trkpt lat="43.132535" lon="2.212285"><ele>269.83333333333337</ele><time>2026-03-22T16:15:25.676Z</time></trkpt><trkpt lat="43.1324917" lon="2.2123783"><ele>270.6666666666667</ele><time>2026-03-22T16:15:26.677Z</time></trkpt><trkpt lat="43.1324467" lon="2.212465"><ele>271.5</ele><time>2026-03-22T16:15:27.675Z</time></trkpt><trkpt lat="43.1324217" lon="2.2125617"><ele>272.3333333333333</ele><time>2026-03-22T16:15:28.674Z</time></trkpt><trkpt lat="43.1324167" lon="2.21267"><ele>273.16666666666663</ele><time>2026-03-22T16:15:29.676Z</time></trkpt><trkpt lat="43.1324083" lon="2.2127817"><ele>274.0</ele><time>2026-03-22T16:15:30.675Z</time></trkpt><trkpt lat="43.132405" lon="2.2129067"><ele>274.0</ele><time>2026-03-22T16:15:31.675Z</time></trkpt><trkpt lat="43.13239" lon="2.21303"><ele>274.0</ele><time>2026-03-22T16:15:32.676Z</time></trkpt><trkpt lat="43.132375" lon="2.2131517"><ele>274.0</ele><time>2026-03-22T16:15:33.675Z</time></trkpt><trkpt lat="43.1323783" lon="2.21329"><ele>274.0</ele><time>2026-03-22T16:15:34.675Z</time></trkpt><trkpt lat="43.13237" lon="2.21342"><ele>274.0</ele><time>2026-03-22T16:15:35.675Z</time></trkpt><trkpt lat="43.1323667" lon="2.2135533"><ele>274.5</ele><time>2026-03-22T16:15:36.674Z</time></trkpt><trkpt lat="43.1323633" lon="2.2136983"><ele>275.0</ele><time>2026-03-22T16:15:37.672Z</time></trkpt><trkpt lat="43.132355" lon="2.213855"><ele>275.5</ele><time>2026-03-22T16:15:38.673Z</time></trkpt><trkpt lat="43.132345" lon="2.2140117"><ele>276.0</ele><time>2026-03-22T16:15:39.673Z</time></trkpt><trkpt lat="43.1323367" lon="2.21419"><ele>277.25</ele><time>2026-03-22T16:15:40.676Z</time></trkpt><trkpt lat="43.1323333" lon="2.2143767"><ele>278.5</ele><time>2026-03-22T16:15:41.672Z</time></trkpt><trkpt lat="43.1323267" lon="2.21458"><ele>279.75</ele><time>2026-03-22T16:15:42.674Z</time></trkpt><trkpt lat="43.1323233" lon="2.2147783"><ele>281.0</ele><time>2026-03-22T16:15:43.674Z</time></trkpt><trkpt lat="43.132315" lon="2.2149783"><ele>282.5</ele><time>2026-03-22T16:15:44.676Z</time></trkpt><trkpt lat="43.1323083" lon="2.2151633"><ele>284.0</ele><time>2026-03-22T16:15:45.672Z</time></trkpt><trkpt lat="43.1322917" lon="2.21534"><ele>285.5</ele><time>2026-03-22T16:15:46.674Z</time></trkpt><trkpt lat="43.1322717" lon="2.215525"><ele>287.0</ele><time>2026-03-22T16:15:47.673Z</time></trkpt><trkpt lat="43.13225" lon="2.21571"><ele>287.8</ele><time>2026-03-22T16:15:48.673Z</time></trkpt><trkpt lat="43.1322367" lon="2.2158817"><ele>288.6</ele><time>2026-03-22T16:15:49.674Z</time></trkpt><trkpt lat="43.13223" lon="2.2160317"><ele>289.40000000000003</ele><time>2026-03-22T16:15:50.674Z</time></trkpt><trkpt lat="43.132225" lon="2.2161617"><ele>290.2</ele><time>2026-03-22T16:15:51.674Z</time></trkpt><trkpt lat="43.1322267" lon="2.21627"><ele>291.0</ele><time>2026-03-22T16:15:52.673Z</time></trkpt><trkpt lat="43.1322317" lon="2.2164183"><ele>291.8</ele><time>2026-03-22T16:15:54.674Z</time></trkpt><trkpt lat="43.1322133" lon="2.216535"><ele>292.6</ele><time>2026-03-22T16:15:57.675Z</time></trkpt><trkpt lat="43.1321267" lon="2.216585"><ele>293.4</ele><time>2026-03-22T16:15:59.676Z</time></trkpt><trkpt lat="43.13205" lon="2.21661"><ele>294.2</ele><time>2026-03-22T16:16:00.674Z</time></trkpt><trkpt lat="43.13196" lon="2.2166383"><ele>295.0</ele><time>2026-03-22T16:16:01.675Z</time></trkpt><trkpt lat="43.131855" lon="2.216675"><ele>295.0</ele><time>2026-03-22T16:16:02.674Z</time></trkpt><trkpt lat="43.13174" lon="2.2167267"><ele>295.0</ele><time>2026-03-22T16:16:03.672Z</time></trkpt><trkpt lat="43.1316183" lon="2.2167883"><ele>295.0</ele><time>2026-03-22T16:16:04.673Z</time></trkpt><trkpt lat="43.1314933" lon="2.216855"><ele>295.0</ele><time>2026-03-22T16:16:05.673Z</time></trkpt><trkpt lat="43.1313667" lon="2.2169217"><ele>295.0</ele><time>2026-03-22T16:16:06.675Z</time></trkpt><trkpt lat="43.131235" lon="2.21698"><ele>295.0</ele><time>2026-03-22T16:16:07.673Z</time></trkpt><trkpt lat="43.1310967" lon="2.2170383"><ele>295.0</ele><time>2026-03-22T16:16:08.674Z</time></trkpt><trkpt lat="43.130955" lon="2.2171083"><ele>295.0</ele><time>2026-03-22T16:16:09.675Z</time></trkpt><trkpt lat="43.130815" lon="2.2172017"><ele>295.66666666666663</ele><time>2026-03-22T16:16:10.673Z</time></trkpt><trkpt lat="43.1306767" lon="2.2173133"><ele>296.3333333333333</ele><time>2026-03-22T16:16:11.674Z</time></trkpt><trkpt lat="43.1305417" lon="2.217425"><ele>297.0</ele><time>2026-03-22T16:16:12.675Z</time></trkpt><trkpt lat="43.1304167" lon="2.2175383"><ele>297.0</ele><time>2026-03-22T16:16:13.676Z</time></trkpt><trkpt lat="43.1302983" lon="2.2176433"><ele>297.0</ele><time>2026-03-22T16:16:14.674Z</time></trkpt><trkpt lat="43.130185" lon="2.2177583"><ele>297.0</ele><time>2026-03-22T16:16:15.674Z</time></trkpt><trkpt lat="43.1300767" lon="2.2178883"><ele>297.0</ele><time>2026-03-22T16:16:16.675Z</time></trkpt><trkpt lat="43.12997" lon="2.21801"><ele>296.25</ele><time>2026-03-22T16:16:17.674Z</time></trkpt><trkpt lat="43.1298733" lon="2.21812"><ele>295.5</ele><time>2026-03-22T16:16:18.675Z</time></trkpt><trkpt lat="43.1297833" lon="2.2182183"><ele>294.75</ele><time>2026-03-22T16:16:19.674Z</time></trkpt><trkpt lat="43.1297" lon="2.2183167"><ele>294.0</ele><time>2026-03-22T16:16:20.674Z</time></trkpt><trkpt lat="43.1296167" lon="2.2184117"><ele>294.0</ele><time>2026-03-22T16:16:21.675Z</time></trkpt><trkpt lat="43.1295333" lon="2.21851"><ele>294.0</ele><time>2026-03-22T16:16:22.675Z</time></trkpt><trkpt lat="43.1294483" lon="2.2185967"><ele>294.0</ele><time>2026-03-22T16:16:23.676Z</time></trkpt><trkpt lat="43.1293717" lon="2.2186567"><ele>294.0</ele><time>2026-03-22T16:16:24.676Z</time></trkpt><trkpt lat="43.1292933" lon="2.2187167"><ele>294.0</ele><time>2026-03-22T16:16:25.675Z</time></trkpt><trkpt lat="43.1292017" lon="2.2188033"><ele>294.0</ele><time>2026-03-22T16:16:26.677Z</time></trkpt><trkpt lat="43.1291033" lon="2.21889"><ele>294.0</ele><time>2026-03-22T16:16:27.677Z</time></trkpt><trkpt lat="43.129" lon="2.2189833"><ele>294.0</ele><time>2026-03-22T16:16:28.677Z</time></trkpt><trkpt lat="43.1288917" lon="2.2190717"><ele>294.0</ele><time>2026-03-22T16:16:29.676Z</time></trkpt><trkpt lat="43.128785" lon="2.2191483"><ele>295.0</ele><time>2026-03-22T16:16:30.677Z</time></trkpt><trkpt lat="43.1286817" lon="2.2192083"><ele>296.0</ele><time>2026-03-22T16:16:31.674Z</time></trkpt><trkpt lat="43.1285833" lon="2.2192517"><ele>297.0</ele><time>2026-03-22T16:16:32.675Z</time></trkpt><trkpt lat="43.1284883" lon="2.2192767"><ele>298.0</ele><time>2026-03-22T16:16:33.675Z</time></trkpt><trkpt lat="43.1283883" lon="2.21928"><ele>299.0</ele><time>2026-03-22T16:16:34.675Z</time></trkpt><trkpt lat="43.1282817" lon="2.2192633"><ele>299.5</ele><time>2026-03-22T16:16:35.678Z</time></trkpt><trkpt lat="43.12817" lon="2.2192367"><ele>300.0</ele><time>2026-03-22T16:16:36.677Z</time></trkpt><trkpt lat="43.1280483" lon="2.2192183"><ele>300.5</ele><time>2026-03-22T16:16:37.675Z</time></trkpt><trkpt lat="43.1279267" lon="2.2192033"><ele>301.0</ele><time>2026-03-22T16:16:38.68Z</time></trkpt><trkpt lat="43.1278" lon="2.2191933"><ele>301.0</ele><time>2026-03-22T16:16:39.674Z</time></trkpt><trkpt lat="43.1276667" lon="2.21919"><ele>301.0</ele><time>2026-03-22T16:16:40.674Z</time></trkpt><trkpt lat="43.1275283" lon="2.2192"><ele>301.0</ele><time>2026-03-22T16:16:41.675Z</time></trkpt><trkpt lat="43.1273933" lon="2.2192033"><ele>301.0</ele><time>2026-03-22T16:16:42.676Z</time></trkpt><trkpt lat="43.1272733" lon="2.2192017"><ele>299.6</ele><time>2026-03-22T16:16:43.676Z</time></trkpt><trkpt lat="43.12717" lon="2.2192133"><ele>298.20000000000005</ele><time>2026-03-22T16:16:44.675Z</time></trkpt><trkpt lat="43.1270767" lon="2.2192367"><ele>296.79999999999995</ele><time>2026-03-22T16:16:45.675Z</time></trkpt><trkpt lat="43.1269833" lon="2.2192967"><ele>295.4</ele><time>2026-03-22T16:16:46.675Z</time></trkpt><trkpt lat="43.1269" lon="2.2193917"><ele>294.0</ele><time>2026-03-22T16:16:47.677Z</time></trkpt><trkpt lat="43.1268267" lon="2.2195167"><ele>294.0</ele><time>2026-03-22T16:16:48.675Z</time></trkpt><trkpt lat="43.12676" lon="2.2196733"><ele>294.0</ele><time>2026-03-22T16:16:49.676Z</time></trkpt><trkpt lat="43.1266967" lon="2.219845"><ele>294.0</ele><time>2026-03-22T16:16:50.676Z</time></trkpt><trkpt lat="43.1266317" lon="2.22001"><ele>294.0</ele><time>2026-03-22T16:16:51.674Z</time></trkpt><trkpt lat="43.1265633" lon="2.2201617"><ele>294.5</ele><time>2026-03-22T16:16:52.676Z</time></trkpt><trkpt lat="43.126505" lon="2.2203167"><ele>295.0</ele><time>2026-03-22T16:16:53.674Z</time></trkpt><trkpt lat="43.1264617" lon="2.220485"><ele>295.5</ele><time>2026-03-22T16:16:54.675Z</time></trkpt><trkpt lat="43.126425" lon="2.2206633"><ele>296.0</ele><time>2026-03-22T16:16:55.675Z</time></trkpt><trkpt lat="43.1263917" lon="2.2208433"><ele>296.0</ele><time>2026-03-22T16:16:56.676Z</time></trkpt><trkpt lat="43.1263517" lon="2.22102"><ele>296.0</ele><time>2026-03-22T16:16:57.674Z</time></trkpt><trkpt lat="43.1262983" lon="2.22119"><ele>296.0</ele><time>2026-03-22T16:16:58.675Z</time></trkpt><trkpt lat="43.1262367" lon="2.221355"><ele>296.0</ele><time>2026-03-22T16:16:59.675Z</time></trkpt><trkpt lat="43.1261683" lon="2.2215217"><ele>296.75</ele><time>2026-03-22T16:17:00.675Z</time></trkpt><trkpt lat="43.1261017" lon="2.22169"><ele>297.5</ele><time>2026-03-22T16:17:01.676Z</time></trkpt><trkpt lat="43.126035" lon="2.2218617"><ele>298.25</ele><time>2026-03-22T16:17:02.677Z</time></trkpt><trkpt lat="43.1259667" lon="2.2220317"><ele>299.0</ele><time>2026-03-22T16:17:03.672Z</time></trkpt><trkpt lat="43.1258967" lon="2.222205"><ele>299.75</ele><time>2026-03-22T16:17:04.673Z</time></trkpt><trkpt lat="43.12583" lon="2.22237"><ele>300.5</ele><time>2026-03-22T16:17:05.681Z</time></trkpt><trkpt lat="43.125765" lon="2.222525"><ele>301.25</ele><time>2026-03-22T16:17:06.673Z</time></trkpt><trkpt lat="43.1257083" lon="2.2226633"><ele>302.0</ele><time>2026-03-22T16:17:07.673Z</time></trkpt><trkpt lat="43.12566" lon="2.2228033"><ele>301.0</ele><time>2026-03-22T16:17:08.675Z</time></trkpt><trkpt lat="43.1256317" lon="2.2229483"><ele>300.0</ele><time>2026-03-22T16:17:09.674Z</time></trkpt><trkpt lat="43.125615" lon="2.2231"><ele>299.0</ele><time>2026-03-22T16:17:10.673Z</time></trkpt><trkpt lat="43.1255983" lon="2.22326"><ele>298.0</ele><time>2026-03-22T16:17:11.674Z</time></trkpt><trkpt lat="43.1255833" lon="2.223425"><ele>298.0</ele><time>2026-03-22T16:17:12.675Z</time></trkpt><trkpt lat="43.1255667" lon="2.2235883"><ele>298.0</ele><time>2026-03-22T16:17:13.675Z</time></trkpt><trkpt lat="43.125545" lon="2.22375"><ele>298.0</ele><time>2026-03-22T16:17:14.674Z</time></trkpt><trkpt lat="43.125505" lon="2.2239017"><ele>298.0</ele><time>2026-03-22T16:17:15.674Z</time></trkpt><trkpt lat="43.1254517" lon="2.2240467"><ele>299.5</ele><time>2026-03-22T16:17:16.674Z</time></trkpt><trkpt lat="43.1253917" lon="2.2241917"><ele>301.0</ele><time>2026-03-22T16:17:17.673Z</time></trkpt><trkpt lat="43.125335" lon="2.2243383"><ele>302.5</ele><time>2026-03-22T16:17:18.675Z</time></trkpt><trkpt lat="43.12528" lon="2.224485"><ele>304.0</ele><time>2026-03-22T16:17:19.674Z</time></trkpt><trkpt lat="43.12523" lon="2.2246167"><ele>304.0</ele><time>2026-03-22T16:17:20.675Z</time></trkpt><trkpt lat="43.12518" lon="2.2247317"><ele>304.0</ele><time>2026-03-22T16:17:21.674Z</time></trkpt><trkpt lat="43.1251283" lon="2.2248417"><ele>304.0</ele><time>2026-03-22T16:17:22.674Z</time></trkpt><trkpt lat="43.1250667" lon="2.2249467"><ele>304.0</ele><time>2026-03-22T16:17:23.674Z</time></trkpt><trkpt lat="43.1249867" lon="2.2250367"><ele>304.0</ele><time>2026-03-22T16:17:24.676Z</time></trkpt><trkpt lat="43.124895" lon="2.2251083"><ele>303.75</ele><time>2026-03-22T16:17:25.678Z</time></trkpt><trkpt lat="43.124795" lon="2.22517"><ele>303.5</ele><time>2026-03-22T16:17:26.675Z</time></trkpt><trkpt lat="43.1246867" lon="2.2252317"><ele>303.25</ele><time>2026-03-22T16:17:27.675Z</time></trkpt><trkpt lat="43.1245733" lon="2.225285"><ele>303.0</ele><time>2026-03-22T16:17:28.674Z</time></trkpt><trkpt lat="43.1244533" lon="2.22534"><ele>303.0</ele><time>2026-03-22T16:17:29.677Z</time></trkpt><trkpt lat="43.12433" lon="2.2254017"><ele>303.0</ele><time>2026-03-22T16:17:30.675Z</time></trkpt><trkpt lat="43.124205" lon="2.225465"><ele>303.0</ele><time>2026-03-22T16:17:31.675Z</time></trkpt><trkpt lat="43.124075" lon="2.2255233"><ele>303.0</ele><time>2026-03-22T16:17:32.674Z</time></trkpt><trkpt lat="43.1239467" lon="2.225585"><ele>302.75</ele><time>2026-03-22T16:17:33.676Z</time></trkpt><trkpt lat="43.123825" lon="2.2256367"><ele>302.5</ele><time>2026-03-22T16:17:34.673Z</time></trkpt><trkpt lat="43.123705" lon="2.2256867"><ele>302.25</ele><time>2026-03-22T16:17:35.676Z</time></trkpt><trkpt lat="43.1236033" lon="2.225735"><ele>302.0</ele><time>2026-03-22T16:17:36.675Z</time></trkpt><trkpt lat="43.1235083" lon="2.225775"><ele>302.0</ele><time>2026-03-22T16:17:37.679Z</time></trkpt><trkpt lat="43.12342" lon="2.225815"><ele>302.0</ele><time>2026-03-22T16:17:38.677Z</time></trkpt><trkpt lat="43.123335" lon="2.2258567"><ele>302.0</ele><time>2026-03-22T16:17:39.675Z</time></trkpt><trkpt lat="43.1232617" lon="2.2258917"><ele>302.0</ele><time>2026-03-22T16:17:40.677Z</time></trkpt><trkpt lat="43.123195" lon="2.22592"><ele>302.0</ele><time>2026-03-22T16:17:41.677Z</time></trkpt><trkpt lat="43.1230967" lon="2.22596"><ele>302.0</ele><time>2026-03-22T16:17:43.676Z</time></trkpt><trkpt lat="43.1230883" lon="2.22607"><ele>302.0</ele><time>2026-03-22T16:17:47.675Z</time></trkpt><trkpt lat="43.1231383" lon="2.22618"><ele>302.0</ele><time>2026-03-22T16:17:49.674Z</time></trkpt><trkpt lat="43.123225" lon="2.226295"><ele>302.0</ele><time>2026-03-22T16:17:51.676Z</time></trkpt><trkpt lat="43.123285" lon="2.2263783"><ele>302.0</ele><time>2026-03-22T16:17:53.675Z</time></trkpt><trkpt lat="43.1233217" lon="2.2264533"><ele>302.0</ele><time>2026-03-22T16:17:55.675Z</time></trkpt><trkpt lat="43.1232867" lon="2.2265533"><ele>302.0</ele><time>2026-03-22T16:17:58.674Z</time></trkpt><trkpt lat="43.1232267" lon="2.22662"><ele>302.83333333333337</ele><time>2026-03-22T16:18:00.677Z</time></trkpt><trkpt lat="43.12314" lon="2.22668"><ele>303.6666666666667</ele><time>2026-03-22T16:18:02.677Z</time></trkpt><trkpt lat="43.1230533" lon="2.2267017"><ele>304.5</ele><time>2026-03-22T16:18:04.675Z</time></trkpt><trkpt lat="43.1229367" lon="2.2267333"><ele>305.3333333333333</ele><time>2026-03-22T16:18:06.674Z</time></trkpt><trkpt lat="43.1228767" lon="2.2267683"><ele>306.16666666666663</ele><time>2026-03-22T16:18:07.675Z</time></trkpt><trkpt lat="43.1228217" lon="2.2268217"><ele>307.0</ele><time>2026-03-22T16:18:08.676Z</time></trkpt><trkpt lat="43.122745" lon="2.2269317"><ele>307.0</ele><time>2026-03-22T16:18:10.674Z</time></trkpt><trkpt lat="43.1227117" lon="2.2270067"><ele>307.0</ele><time>2026-03-22T16:18:11.674Z</time></trkpt><trkpt lat="43.1226683" lon="2.227165"><ele>307.0</ele><time>2026-03-22T16:18:13.674Z</time></trkpt><trkpt lat="43.1226417" lon="2.2272533"><ele>307.0</ele><time>2026-03-22T16:18:14.674Z</time></trkpt><trkpt lat="43.1226183" lon="2.2273383"><ele>307.0</ele><time>2026-03-22T16:18:15.674Z</time></trkpt><trkpt lat="43.122595" lon="2.2274883"><ele>307.0</ele><time>2026-03-22T16:18:17.674Z</time></trkpt><trkpt lat="43.1226067" lon="2.227635"><ele>310.2</ele><time>2026-03-22T16:18:19.673Z</time></trkpt><trkpt lat="43.1226" lon="2.227785"><ele>313.4</ele><time>2026-03-22T16:18:21.675Z</time></trkpt><trkpt lat="43.122575" lon="2.2279167"><ele>316.59999999999997</ele><time>2026-03-22T16:18:23.673Z</time></trkpt><trkpt lat="43.1225433" lon="2.2280333"><ele>319.79999999999995</ele><time>2026-03-22T16:18:25.674Z</time></trkpt><trkpt lat="43.1225217" lon="2.228155"><ele>323.0</ele><time>2026-03-22T16:18:27.675Z</time></trkpt><trkpt lat="43.1225033" lon="2.2282733"><ele>323.83333333333337</ele><time>2026-03-22T16:18:29.672Z</time></trkpt><trkpt lat="43.1224883" lon="2.2283933"><ele>324.6666666666667</ele><time>2026-03-22T16:18:31.672Z</time></trkpt><trkpt lat="43.1224783" lon="2.2285183"><ele>325.5</ele><time>2026-03-22T16:18:33.675Z</time></trkpt><trkpt lat="43.122465" lon="2.228635"><ele>326.3333333333333</ele><time>2026-03-22T16:18:35.68Z</time></trkpt><trkpt lat="43.1224067" lon="2.22872"><ele>327.16666666666663</ele><time>2026-03-22T16:18:37.677Z</time></trkpt><trkpt lat="43.1223283" lon="2.22877"><ele>328.0</ele><time>2026-03-22T16:18:39.675Z</time></trkpt><trkpt lat="43.122255" lon="2.2288133"><ele>328.0</ele><time>2026-03-22T16:18:41.68Z</time></trkpt><trkpt lat="43.1221517" lon="2.2288367"><ele>328.0</ele><time>2026-03-22T16:18:43.674Z</time></trkpt><trkpt lat="43.1220567" lon="2.2288917"><ele>328.0</ele><time>2026-03-22T16:18:45.673Z</time></trkpt><trkpt lat="43.1219617" lon="2.2289917"><ele>328.0</ele><time>2026-03-22T16:18:47.675Z</time></trkpt><trkpt lat="43.1218983" lon="2.2290783"><ele>328.0</ele><time>2026-03-22T16:18:49.674Z</time></trkpt><trkpt lat="43.1218517" lon="2.2291783"><ele>328.16666666666663</ele><time>2026-03-22T16:18:52.673Z</time></trkpt><trkpt lat="43.1218433" lon="2.2292717"><ele>328.3333333333333</ele><time>2026-03-22T16:18:55.675Z</time></trkpt><trkpt lat="43.1218133" lon="2.2293617"><ele>328.5</ele><time>2026-03-22T16:18:58.675Z</time></trkpt><trkpt lat="43.121775" lon="2.2294617"><ele>328.6666666666667</ele><time>2026-03-22T16:19:01.676Z</time></trkpt><trkpt lat="43.1217383" lon="2.2295833"><ele>328.83333333333337</ele><time>2026-03-22T16:19:03.673Z</time></trkpt><trkpt lat="43.1216867" lon="2.2297217"><ele>329.0</ele><time>2026-03-22T16:19:05.674Z</time></trkpt><trkpt lat="43.1216067" lon="2.229855"><ele>328.33333333333337</ele><time>2026-03-22T16:19:07.674Z</time></trkpt><trkpt lat="43.1215617" lon="2.2299233"><ele>327.6666666666667</ele><time>2026-03-22T16:19:08.674Z</time></trkpt><trkpt lat="43.1215183" lon="2.2300083"><ele>327.0</ele><time>2026-03-22T16:19:09.675Z</time></trkpt><trkpt lat="43.1214767" lon="2.2301017"><ele>326.3333333333333</ele><time>2026-03-22T16:19:10.674Z</time></trkpt><trkpt lat="43.121435" lon="2.2302"><ele>325.66666666666663</ele><time>2026-03-22T16:19:11.674Z</time></trkpt><trkpt lat="43.1213917" lon="2.2302983"><ele>325.0</ele><time>2026-03-22T16:19:12.677Z</time></trkpt><trkpt lat="43.1213483" lon="2.2304017"><ele>325.0</ele><time>2026-03-22T16:19:13.674Z</time></trkpt><trkpt lat="43.12131" lon="2.2305117"><ele>325.0</ele><time>2026-03-22T16:19:14.675Z</time></trkpt><trkpt lat="43.1212767" lon="2.23063"><ele>325.0</ele><time>2026-03-22T16:19:15.675Z</time></trkpt><trkpt lat="43.1212483" lon="2.230755"><ele>325.0</ele><time>2026-03-22T16:19:16.674Z</time></trkpt><trkpt lat="43.1212283" lon="2.23088"><ele>325.0</ele><time>2026-03-22T16:19:17.673Z</time></trkpt><trkpt lat="43.121215" lon="2.2310033"><ele>326.0</ele><time>2026-03-22T16:19:18.674Z</time></trkpt><trkpt lat="43.1212083" lon="2.2311217"><ele>327.0</ele><time>2026-03-22T16:19:19.673Z</time></trkpt><trkpt lat="43.1212117" lon="2.2312383"><ele>328.0</ele><time>2026-03-22T16:19:20.675Z</time></trkpt><trkpt lat="43.121225" lon="2.2313417"><ele>329.0</ele><time>2026-03-22T16:19:21.674Z</time></trkpt><trkpt lat="43.1212567" lon="2.231435"><ele>330.0</ele><time>2026-03-22T16:19:22.674Z</time></trkpt><trkpt lat="43.1212967" lon="2.2315233"><ele>331.0</ele><time>2026-03-22T16:19:23.672Z</time></trkpt><trkpt lat="43.1213267" lon="2.2316117"><ele>332.6</ele><time>2026-03-22T16:19:24.674Z</time></trkpt><trkpt lat="43.12134" lon="2.23171"><ele>334.20000000000005</ele><time>2026-03-22T16:19:25.674Z</time></trkpt><trkpt lat="43.12134" lon="2.2318183"><ele>335.79999999999995</ele><time>2026-03-22T16:19:26.676Z</time></trkpt><trkpt lat="43.1213233" lon="2.23194"><ele>337.4</ele><time>2026-03-22T16:19:27.673Z</time></trkpt><trkpt lat="43.1212983" lon="2.232075"><ele>339.0</ele><time>2026-03-22T16:19:28.674Z</time></trkpt><trkpt lat="43.1212717" lon="2.2322167"><ele>340.4</ele><time>2026-03-22T16:19:29.674Z</time></trkpt><trkpt lat="43.1212467" lon="2.2323617"><ele>341.79999999999995</ele><time>2026-03-22T16:19:30.676Z</time></trkpt><trkpt lat="43.1212217" lon="2.23251"><ele>343.20000000000005</ele><time>2026-03-22T16:19:31.674Z</time></trkpt><trkpt lat="43.1211933" lon="2.2326533"><ele>344.6</ele><time>2026-03-22T16:19:32.678Z</time></trkpt><trkpt lat="43.1211633" lon="2.2328"><ele>346.0</ele><time>2026-03-22T16:19:33.677Z</time></trkpt><trkpt lat="43.1211317" lon="2.2329483"><ele>346.0</ele><time>2026-03-22T16:19:34.676Z</time></trkpt><trkpt lat="43.1211017" lon="2.233085"><ele>346.0</ele><time>2026-03-22T16:19:35.674Z</time></trkpt><trkpt lat="43.1210667" lon="2.2332133"><ele>346.0</ele><time>2026-03-22T16:19:36.674Z</time></trkpt><trkpt lat="43.1210283" lon="2.2333317"><ele>346.0</ele><time>2026-03-22T16:19:37.675Z</time></trkpt><trkpt lat="43.1209817" lon="2.2334367"><ele>346.0</ele><time>2026-03-22T16:19:38.674Z</time></trkpt><trkpt lat="43.12093" lon="2.2335283"><ele>346.8333333333333</ele><time>2026-03-22T16:19:39.675Z</time></trkpt><trkpt lat="43.120875" lon="2.2336167"><ele>347.66666666666663</ele><time>2026-03-22T16:19:40.676Z</time></trkpt><trkpt lat="43.1208267" lon="2.233695"><ele>348.5</ele><time>2026-03-22T16:19:41.675Z</time></trkpt><trkpt lat="43.12079" lon="2.2337717"><ele>349.3333333333333</ele><time>2026-03-22T16:19:42.674Z</time></trkpt><trkpt lat="43.120755" lon="2.23388"><ele>350.1666666666667</ele><time>2026-03-22T16:19:44.676Z</time></trkpt><trkpt lat="43.12078" lon="2.2340133"><ele>351.0</ele><time>2026-03-22T16:19:46.675Z</time></trkpt><trkpt lat="43.1208183" lon="2.2340967"><ele>352.6</ele><time>2026-03-22T16:19:47.674Z</time></trkpt><trkpt lat="43.1208567" lon="2.2341933"><ele>354.20000000000005</ele><time>2026-03-22T16:19:48.674Z</time></trkpt><trkpt lat="43.1209017" lon="2.2343183"><ele>355.79999999999995</ele><time>2026-03-22T16:19:49.674Z</time></trkpt><trkpt lat="43.12095" lon="2.2344567"><ele>357.4</ele><time>2026-03-22T16:19:50.674Z</time></trkpt><trkpt lat="43.1209883" lon="2.234595"><ele>359.0</ele><time>2026-03-22T16:19:51.673Z</time></trkpt><trkpt lat="43.12102" lon="2.2347167"><ele>359.4</ele><time>2026-03-22T16:19:52.675Z</time></trkpt><trkpt lat="43.121045" lon="2.2348283"><ele>359.79999999999995</ele><time>2026-03-22T16:19:53.673Z</time></trkpt><trkpt lat="43.12108" lon="2.2349383"><ele>360.20000000000005</ele><time>2026-03-22T16:19:54.674Z</time></trkpt><trkpt lat="43.1211283" lon="2.2350567"><ele>360.6</ele><time>2026-03-22T16:19:55.676Z</time></trkpt><trkpt lat="43.1211883" lon="2.235175"><ele>361.0</ele><time>2026-03-22T16:19:56.675Z</time></trkpt><trkpt lat="43.121255" lon="2.23529"><ele>361.0</ele><time>2026-03-22T16:19:57.674Z</time></trkpt><trkpt lat="43.1213183" lon="2.2353967"><ele>361.0</ele><time>2026-03-22T16:19:58.675Z</time></trkpt><trkpt lat="43.1213717" lon="2.2354933"><ele>361.0</ele><time>2026-03-22T16:19:59.673Z</time></trkpt><trkpt lat="43.12142" lon="2.2355617"><ele>361.0</ele><time>2026-03-22T16:20:00.675Z</time></trkpt><trkpt lat="43.1214783" lon="2.23561"><ele>361.0</ele><time>2026-03-22T16:20:01.675Z</time></trkpt><trkpt lat="43.1215467" lon="2.23562"><ele>361.0</ele><time>2026-03-22T16:20:02.676Z</time></trkpt><trkpt lat="43.1216267" lon="2.2356317"><ele>360.4</ele><time>2026-03-22T16:20:03.674Z</time></trkpt><trkpt lat="43.1217217" lon="2.235665"><ele>359.8</ele><time>2026-03-22T16:20:04.674Z</time></trkpt><trkpt lat="43.1218217" lon="2.2357317"><ele>359.2</ele><time>2026-03-22T16:20:05.675Z</time></trkpt><trkpt lat="43.12192" lon="2.2358067"><ele>358.59999999999997</ele><time>2026-03-22T16:20:06.674Z</time></trkpt><trkpt lat="43.12202" lon="2.2358833"><ele>358.0</ele><time>2026-03-22T16:20:07.674Z</time></trkpt><trkpt lat="43.1221267" lon="2.23596"><ele>358.0</ele><time>2026-03-22T16:20:08.674Z</time></trkpt><trkpt lat="43.122225" lon="2.236035"><ele>358.0</ele><time>2026-03-22T16:20:09.681Z</time></trkpt><trkpt lat="43.12233" lon="2.2361067"><ele>358.0</ele><time>2026-03-22T16:20:10.674Z</time></trkpt><trkpt lat="43.1224417" lon="2.2361583"><ele>358.0</ele><time>2026-03-22T16:20:11.673Z</time></trkpt><trkpt lat="43.1225667" lon="2.2362"><ele>356.25</ele><time>2026-03-22T16:20:12.674Z</time></trkpt><trkpt lat="43.122675" lon="2.23626"><ele>354.5</ele><time>2026-03-22T16:20:13.673Z</time></trkpt><trkpt lat="43.12279" lon="2.2363133"><ele>352.75</ele><time>2026-03-22T16:20:14.674Z</time></trkpt><trkpt lat="43.1229083" lon="2.2363533"><ele>351.0</ele><time>2026-03-22T16:20:15.673Z</time></trkpt><trkpt lat="43.1230233" lon="2.2363783"><ele>351.0</ele><time>2026-03-22T16:20:16.672Z</time></trkpt><trkpt lat="43.12313" lon="2.2363983"><ele>351.0</ele><time>2026-03-22T16:20:17.672Z</time></trkpt><trkpt lat="43.1232333" lon="2.2364333"><ele>351.0</ele><time>2026-03-22T16:20:18.672Z</time></trkpt><trkpt lat="43.1233317" lon="2.2364733"><ele>351.0</ele><time>2026-03-22T16:20:19.672Z</time></trkpt><trkpt lat="43.123425" lon="2.2365067"><ele>351.0</ele><time>2026-03-22T16:20:20.673Z</time></trkpt><trkpt lat="43.123525" lon="2.2365333"><ele>348.0</ele><time>2026-03-22T16:20:21.673Z</time></trkpt><trkpt lat="43.1236267" lon="2.2365583"><ele>345.0</ele><time>2026-03-22T16:20:22.673Z</time></trkpt><trkpt lat="43.123735" lon="2.2366067"><ele>342.0</ele><time>2026-03-22T16:20:23.672Z</time></trkpt><trkpt lat="43.1238383" lon="2.236675"><ele>339.0</ele><time>2026-03-22T16:20:24.675Z</time></trkpt><trkpt lat="43.1239367" lon="2.236765"><ele>339.0</ele><time>2026-03-22T16:20:25.676Z</time></trkpt><trkpt lat="43.124015" lon="2.236875"><ele>339.0</ele><time>2026-03-22T16:20:26.675Z</time></trkpt><trkpt lat="43.1240717" lon="2.23701"><ele>339.0</ele><time>2026-03-22T16:20:27.673Z</time></trkpt><trkpt lat="43.1241183" lon="2.2371583"><ele>339.0</ele><time>2026-03-22T16:20:28.675Z</time></trkpt><trkpt lat="43.1241733" lon="2.237315"><ele>338.4</ele><time>2026-03-22T16:20:29.672Z</time></trkpt><trkpt lat="43.1242217" lon="2.2374633"><ele>337.79999999999995</ele><time>2026-03-22T16:20:30.674Z</time></trkpt><trkpt lat="43.1242717" lon="2.2375983"><ele>337.20000000000005</ele><time>2026-03-22T16:20:31.678Z</time></trkpt><trkpt lat="43.1243133" lon="2.2377067"><ele>336.6</ele><time>2026-03-22T16:20:32.676Z</time></trkpt><trkpt lat="43.1243533" lon="2.23779"><ele>336.0</ele><time>2026-03-22T16:20:33.674Z</time></trkpt><trkpt lat="43.1244567" lon="2.2378983"><ele>336.0</ele><time>2026-03-22T16:20:35.674Z</time></trkpt><trkpt lat="43.1245333" lon="2.2379067"><ele>336.0</ele><time>2026-03-22T16:20:36.675Z</time></trkpt><trkpt lat="43.1246317" lon="2.23791"><ele>336.0</ele><time>2026-03-22T16:20:37.675Z</time></trkpt><trkpt lat="43.1247433" lon="2.237905"><ele>336.0</ele><time>2026-03-22T16:20:38.674Z</time></trkpt><trkpt lat="43.1248483" lon="2.2379"><ele>336.0</ele><time>2026-03-22T16:20:39.674Z</time></trkpt><trkpt lat="43.1249533" lon="2.2378833"><ele>336.1666666666667</ele><time>2026-03-22T16:20:40.674Z</time></trkpt><trkpt lat="43.1250483" lon="2.2378533"><ele>336.3333333333333</ele><time>2026-03-22T16:20:41.675Z</time></trkpt><trkpt lat="43.125135" lon="2.2378267"><ele>336.5</ele><time>2026-03-22T16:20:42.679Z</time></trkpt><trkpt lat="43.125225" lon="2.237805"><ele>336.66666666666663</ele><time>2026-03-22T16:20:43.674Z</time></trkpt><trkpt lat="43.12531" lon="2.2378083"><ele>336.8333333333333</ele><time>2026-03-22T16:20:44.679Z</time></trkpt><trkpt lat="43.125395" lon="2.2378283"><ele>337.0</ele><time>2026-03-22T16:20:45.675Z</time></trkpt><trkpt lat="43.125475" lon="2.2378633"><ele>337.0</ele><time>2026-03-22T16:20:46.673Z</time></trkpt><trkpt lat="43.1255533" lon="2.2379167"><ele>337.0</ele><time>2026-03-22T16:20:47.678Z</time></trkpt><trkpt lat="43.1256283" lon="2.2379733"><ele>337.0</ele><time>2026-03-22T16:20:48.673Z</time></trkpt><trkpt lat="43.12571" lon="2.2380217"><ele>337.0</ele><time>2026-03-22T16:20:49.674Z</time></trkpt><trkpt lat="43.125795" lon="2.238055"><ele>337.0</ele><time>2026-03-22T16:20:50.672Z</time></trkpt><trkpt lat="43.125875" lon="2.2381067"><ele>337.0</ele><time>2026-03-22T16:20:51.673Z</time></trkpt><trkpt lat="43.125955" lon="2.23817"><ele>332.40000000000003</ele><time>2026-03-22T16:20:52.673Z</time></trkpt><trkpt lat="43.1260383" lon="2.2382317"><ele>327.8</ele><time>2026-03-22T16:20:53.672Z</time></trkpt><trkpt lat="43.1261317" lon="2.2383083"><ele>323.2</ele><time>2026-03-22T16:20:54.673Z</time></trkpt><trkpt lat="43.1262283" lon="2.2383783"><ele>318.6</ele><time>2026-03-22T16:20:55.674Z</time></trkpt><trkpt lat="43.1263267" lon="2.2384483"><ele>314.0</ele><time>2026-03-22T16:20:56.674Z</time></trkpt><trkpt lat="43.1264233" lon="2.2385167"><ele>314.0</ele><time>2026-03-22T16:20:57.674Z</time></trkpt><trkpt lat="43.126505" lon="2.2385883"><ele>314.0</ele><time>2026-03-22T16:20:58.673Z</time></trkpt><trkpt lat="43.1265817" lon="2.238675"><ele>314.0</ele><time>2026-03-22T16:20:59.674Z</time></trkpt><trkpt lat="43.1266617" lon="2.238775"><ele>314.0</ele><time>2026-03-22T16:21:00.675Z</time></trkpt><trkpt lat="43.1267233" lon="2.2388817"><ele>314.0</ele><time>2026-03-22T16:21:01.677Z</time></trkpt><trkpt lat="43.1267817" lon="2.2389983"><ele>310.59999999999997</ele><time>2026-03-22T16:21:02.675Z</time></trkpt><trkpt lat="43.1268417" lon="2.239115"><ele>307.2</ele><time>2026-03-22T16:21:03.675Z</time></trkpt><trkpt lat="43.1269017" lon="2.23923"><ele>303.79999999999995</ele><time>2026-03-22T16:21:04.675Z</time></trkpt><trkpt lat="43.1269567" lon="2.239345"><ele>300.4</ele><time>2026-03-22T16:21:05.675Z</time></trkpt><trkpt lat="43.1270117" lon="2.2394583"><ele>297.0</ele><time>2026-03-22T16:21:06.674Z</time></trkpt><trkpt lat="43.12707" lon="2.239565"><ele>297.0</ele><time>2026-03-22T16:21:07.675Z</time></trkpt><trkpt lat="43.127135" lon="2.23966"><ele>297.0</ele><time>2026-03-22T16:21:08.673Z</time></trkpt><trkpt lat="43.12721" lon="2.2397383"><ele>297.0</ele><time>2026-03-22T16:21:09.673Z</time></trkpt><trkpt lat="43.1272983" lon="2.23981"><ele>297.0</ele><time>2026-03-22T16:21:10.675Z</time></trkpt><trkpt lat="43.1273917" lon="2.2398783"><ele>297.0</ele><time>2026-03-22T16:21:11.673Z</time></trkpt><trkpt lat="43.1274833" lon="2.239955"><ele>293.8</ele><time>2026-03-22T16:21:12.673Z</time></trkpt><trkpt lat="43.1275717" lon="2.2400333"><ele>290.6</ele><time>2026-03-22T16:21:13.68Z</time></trkpt><trkpt lat="43.1276567" lon="2.2401"><ele>287.40000000000003</ele><time>2026-03-22T16:21:14.674Z</time></trkpt><trkpt lat="43.1277367" lon="2.2401617"><ele>284.2</ele><time>2026-03-22T16:21:15.673Z</time></trkpt><trkpt lat="43.127815" lon="2.2402167"><ele>281.0</ele><time>2026-03-22T16:21:16.674Z</time></trkpt><trkpt lat="43.1278967" lon="2.2402933"><ele>281.0</ele><time>2026-03-22T16:21:17.672Z</time></trkpt><trkpt lat="43.12797" lon="2.2404033"><ele>281.0</ele><time>2026-03-22T16:21:18.673Z</time></trkpt><trkpt lat="43.1280483" lon="2.240515"><ele>281.0</ele><time>2026-03-22T16:21:19.673Z</time></trkpt><trkpt lat="43.1281233" lon="2.2406267"><ele>281.0</ele><time>2026-03-22T16:21:20.673Z</time></trkpt><trkpt lat="43.1282" lon="2.2407417"><ele>281.0</ele><time>2026-03-22T16:21:21.674Z</time></trkpt><trkpt lat="43.128265" lon="2.24085"><ele>278.6</ele><time>2026-03-22T16:21:22.672Z</time></trkpt><trkpt lat="43.12833" lon="2.2409633"><ele>276.20000000000005</ele><time>2026-03-22T16:21:23.673Z</time></trkpt><trkpt lat="43.1283917" lon="2.2410833"><ele>273.79999999999995</ele><time>2026-03-22T16:21:24.673Z</time></trkpt><trkpt lat="43.12845" lon="2.24119"><ele>271.4</ele><time>2026-03-22T16:21:25.674Z</time></trkpt><trkpt lat="43.1285067" lon="2.2413"><ele>269.0</ele><time>2026-03-22T16:21:26.673Z</time></trkpt><trkpt lat="43.128555" lon="2.24138"><ele>269.0</ele><time>2026-03-22T16:21:27.672Z</time></trkpt><trkpt lat="43.12861" lon="2.2414483"><ele>269.0</ele><time>2026-03-22T16:21:28.673Z</time></trkpt><trkpt lat="43.1286633" lon="2.2415017"><ele>269.0</ele><time>2026-03-22T16:21:29.673Z</time></trkpt><trkpt lat="43.1287667" lon="2.2415983"><ele>269.0</ele><time>2026-03-22T16:21:31.673Z</time></trkpt><trkpt lat="43.1288417" lon="2.2417"><ele>269.0</ele><time>2026-03-22T16:21:33.674Z</time></trkpt><trkpt lat="43.1288433" lon="2.2418"><ele>269.0</ele><time>2026-03-22T16:21:34.672Z</time></trkpt><trkpt lat="43.12883" lon="2.2419083"><ele>267.2</ele><time>2026-03-22T16:21:35.674Z</time></trkpt><trkpt lat="43.1288033" lon="2.2420267"><ele>265.4</ele><time>2026-03-22T16:21:36.676Z</time></trkpt><trkpt lat="43.128785" lon="2.2421667"><ele>263.6</ele><time>2026-03-22T16:21:37.674Z</time></trkpt><trkpt lat="43.12876" lon="2.2423067"><ele>261.8</ele><time>2026-03-22T16:21:38.673Z</time></trkpt><trkpt lat="43.12873" lon="2.2424383"><ele>260.0</ele><time>2026-03-22T16:21:39.675Z</time></trkpt><trkpt lat="43.1286983" lon="2.2425633"><ele>257.8</ele><time>2026-03-22T16:21:40.673Z</time></trkpt><trkpt lat="43.1286667" lon="2.2426833"><ele>255.6</ele><time>2026-03-22T16:21:41.675Z</time></trkpt><trkpt lat="43.128635" lon="2.2428117"><ele>253.39999999999998</ele><time>2026-03-22T16:21:42.675Z</time></trkpt><trkpt lat="43.128605" lon="2.2429383"><ele>251.2</ele><time>2026-03-22T16:21:43.674Z</time></trkpt><trkpt lat="43.1285783" lon="2.2430717"><ele>249.0</ele><time>2026-03-22T16:21:44.676Z</time></trkpt><trkpt lat="43.1285517" lon="2.2431967"><ele>247.57142857142856</ele><time>2026-03-22T16:21:45.674Z</time></trkpt><trkpt lat="43.128525" lon="2.2433"><ele>246.1428571428571</ele><time>2026-03-22T16:21:46.673Z</time></trkpt><trkpt lat="43.1285117" lon="2.2433983"><ele>244.71428571428572</ele><time>2026-03-22T16:21:47.672Z</time></trkpt><trkpt lat="43.1285133" lon="2.2435033"><ele>243.28571428571428</ele><time>2026-03-22T16:21:48.673Z</time></trkpt><trkpt lat="43.128535" lon="2.243595"><ele>241.85714285714286</ele><time>2026-03-22T16:21:49.675Z</time></trkpt><trkpt lat="43.1285867" lon="2.2436633"><ele>240.42857142857144</ele><time>2026-03-22T16:21:50.674Z</time></trkpt><trkpt lat="43.1286483" lon="2.243725"><ele>239.00000000000003</ele><time>2026-03-22T16:21:51.673Z</time></trkpt><trkpt lat="43.1287183" lon="2.243765"><ele>239.00000000000003</ele><time>2026-03-22T16:21:52.672Z</time></trkpt><trkpt lat="43.1287933" lon="2.2437633"><ele>239.0</ele><time>2026-03-22T16:21:53.672Z</time></trkpt><trkpt lat="43.1288683" lon="2.2437333"><ele>239.0</ele><time>2026-03-22T16:21:54.673Z</time></trkpt><trkpt lat="43.1289467" lon="2.243685"><ele>239.0</ele><time>2026-03-22T16:21:55.676Z</time></trkpt><trkpt lat="43.129025" lon="2.2436133"><ele>239.00000000000003</ele><time>2026-03-22T16:21:56.675Z</time></trkpt><trkpt lat="43.1291" lon="2.2435367"><ele>239.0</ele><time>2026-03-22T16:21:57.673Z</time></trkpt><trkpt lat="43.1291833" lon="2.2434217"><ele>239.6</ele><time>2026-03-22T16:21:58.674Z</time></trkpt><trkpt lat="43.1292617" lon="2.2433067"><ele>240.2</ele><time>2026-03-22T16:21:59.674Z</time></trkpt><trkpt lat="43.1293417" lon="2.24319"><ele>240.79999999999998</ele><time>2026-03-22T16:22:00.674Z</time></trkpt><trkpt lat="43.1294083" lon="2.2430767"><ele>241.39999999999998</ele><time>2026-03-22T16:22:01.673Z</time></trkpt><trkpt lat="43.12947" lon="2.2429633"><ele>242.0</ele><time>2026-03-22T16:22:02.674Z</time></trkpt><trkpt lat="43.129525" lon="2.2428533"><ele>242.00000000000003</ele><time>2026-03-22T16:22:03.676Z</time></trkpt><trkpt lat="43.1295667" lon="2.242735"><ele>242.0</ele><time>2026-03-22T16:22:04.673Z</time></trkpt><trkpt lat="43.1295983" lon="2.2426133"><ele>242.0</ele><time>2026-03-22T16:22:05.675Z</time></trkpt><trkpt lat="43.1296183" lon="2.2424967"><ele>242.0</ele><time>2026-03-22T16:22:06.675Z</time></trkpt><trkpt lat="43.1296217" lon="2.2423867"><ele>242.00000000000003</ele><time>2026-03-22T16:22:07.673Z</time></trkpt><trkpt lat="43.129625" lon="2.2422867"><ele>242.0</ele><time>2026-03-22T16:22:08.675Z</time></trkpt><trkpt lat="43.1296483" lon="2.24214"><ele>242.00000000000003</ele><time>2026-03-22T16:22:10.674Z</time></trkpt><trkpt lat="43.1296883" lon="2.2420583"><ele>242.0</ele><time>2026-03-22T16:22:12.675Z</time></trkpt><trkpt lat="43.129745" lon="2.2421417"><ele>242.0</ele><time>2026-03-22T16:22:14.673Z</time></trkpt><trkpt lat="43.1297483" lon="2.2422517"><ele>242.0</ele><time>2026-03-22T16:22:15.673Z</time></trkpt><trkpt lat="43.1297317" lon="2.242375"><ele>242.00000000000003</ele><time>2026-03-22T16:22:16.672Z</time></trkpt><trkpt lat="43.1297183" lon="2.2425117"><ele>242.0</ele><time>2026-03-22T16:22:17.674Z</time></trkpt><trkpt lat="43.1297167" lon="2.2426733"><ele>242.0</ele><time>2026-03-22T16:22:18.673Z</time></trkpt><trkpt lat="43.1297183" lon="2.24284"><ele>242.0</ele><time>2026-03-22T16:22:19.675Z</time></trkpt><trkpt lat="43.129715" lon="2.243015"><ele>242.0</ele><time>2026-03-22T16:22:20.673Z</time></trkpt><trkpt lat="43.1297067" lon="2.2431933"><ele>242.0</ele><time>2026-03-22T16:22:21.676Z</time></trkpt><trkpt lat="43.1296883" lon="2.243375"><ele>240.25</ele><time>2026-03-22T16:22:22.674Z</time></trkpt><trkpt lat="43.1296633" lon="2.2435567"><ele>238.5</ele><time>2026-03-22T16:22:23.673Z</time></trkpt><trkpt lat="43.1296433" lon="2.2437283"><ele>236.75</ele><time>2026-03-22T16:22:24.674Z</time></trkpt><trkpt lat="43.1296367" lon="2.2438983"><ele>235.0</ele><time>2026-03-22T16:22:25.673Z</time></trkpt><trkpt lat="43.1296183" lon="2.244065"><ele>233.4</ele><time>2026-03-22T16:22:26.675Z</time></trkpt><trkpt lat="43.1295967" lon="2.24423"><ele>231.8</ele><time>2026-03-22T16:22:27.675Z</time></trkpt><trkpt lat="43.1295833" lon="2.2443883"><ele>230.2</ele><time>2026-03-22T16:22:28.674Z</time></trkpt><trkpt lat="43.1295767" lon="2.24454"><ele>228.6</ele><time>2026-03-22T16:22:29.673Z</time></trkpt><trkpt lat="43.12958" lon="2.2446717"><ele>227.0</ele><time>2026-03-22T16:22:30.675Z</time></trkpt><trkpt lat="43.1295933" lon="2.2447833"><ele>225.50000000000003</ele><time>2026-03-22T16:22:31.675Z</time></trkpt><trkpt lat="43.1296167" lon="2.2448867"><ele>224.0</ele><time>2026-03-22T16:22:32.674Z</time></trkpt><trkpt lat="43.12965" lon="2.2449783"><ele>222.5</ele><time>2026-03-22T16:22:33.674Z</time></trkpt><trkpt lat="43.1296983" lon="2.2450533"><ele>221.0</ele><time>2026-03-22T16:22:34.674Z</time></trkpt><trkpt lat="43.129825" lon="2.24507"><ele>219.50000000000003</ele><time>2026-03-22T16:22:36.673Z</time></trkpt><trkpt lat="43.1299033" lon="2.2450133"><ele>218.0</ele><time>2026-03-22T16:22:37.672Z</time></trkpt><trkpt lat="43.1299767" lon="2.2449583"><ele>215.2</ele><time>2026-03-22T16:22:38.677Z</time></trkpt><trkpt lat="43.13005" lon="2.2448667"><ele>212.4</ele><time>2026-03-22T16:22:39.673Z</time></trkpt><trkpt lat="43.1301217" lon="2.2447683"><ele>209.6</ele><time>2026-03-22T16:22:40.675Z</time></trkpt><trkpt lat="43.130165" lon="2.2446217"><ele>206.79999999999998</ele><time>2026-03-22T16:22:41.673Z</time></trkpt><trkpt lat="43.1301883" lon="2.2445"><ele>204.0</ele><time>2026-03-22T16:22:42.673Z</time></trkpt><trkpt lat="43.1301933" lon="2.2443683"><ele>204.0</ele><time>2026-03-22T16:22:43.673Z</time></trkpt><trkpt lat="43.13019" lon="2.2442467"><ele>204.0</ele><time>2026-03-22T16:22:44.673Z</time></trkpt><trkpt lat="43.1301983" lon="2.2441383"><ele>204.0</ele><time>2026-03-22T16:22:45.674Z</time></trkpt><trkpt lat="43.1302133" lon="2.2440467"><ele>204.0</ele><time>2026-03-22T16:22:46.673Z</time></trkpt><trkpt lat="43.1302567" lon="2.243945"><ele>204.0</ele><time>2026-03-22T16:22:48.673Z</time></trkpt><trkpt lat="43.13033" lon="2.2440417"><ele>204.0</ele><time>2026-03-22T16:22:50.678Z</time></trkpt><trkpt lat="43.1303633" lon="2.244135"><ele>204.0</ele><time>2026-03-22T16:22:51.673Z</time></trkpt><trkpt lat="43.130395" lon="2.2442417"><ele>204.0</ele><time>2026-03-22T16:22:52.673Z</time></trkpt><trkpt lat="43.13043" lon="2.24436"><ele>204.0</ele><time>2026-03-22T16:22:53.674Z</time></trkpt><trkpt lat="43.1304667" lon="2.2444867"><ele>204.0</ele><time>2026-03-22T16:22:54.675Z</time></trkpt><trkpt lat="43.1305017" lon="2.2446067"><ele>204.0</ele><time>2026-03-22T16:22:55.675Z</time></trkpt><trkpt lat="43.1305417" lon="2.2447183"><ele>203.83333333333334</ele><time>2026-03-22T16:22:56.674Z</time></trkpt><trkpt lat="43.1305867" lon="2.2448217"><ele>203.66666666666669</ele><time>2026-03-22T16:22:57.677Z</time></trkpt><trkpt lat="43.1306383" lon="2.2449133"><ele>203.5</ele><time>2026-03-22T16:22:58.674Z</time></trkpt><trkpt lat="43.1306817" lon="2.2449917"><ele>203.33333333333334</ele><time>2026-03-22T16:22:59.674Z</time></trkpt><trkpt lat="43.1307183" lon="2.245065"><ele>203.16666666666669</ele><time>2026-03-22T16:23:00.675Z</time></trkpt><trkpt lat="43.1307367" lon="2.2452367"><ele>203.0</ele><time>2026-03-22T16:23:02.674Z</time></trkpt><trkpt lat="43.1307133" lon="2.245325"><ele>202.50000000000003</ele><time>2026-03-22T16:23:03.674Z</time></trkpt><trkpt lat="43.1306783" lon="2.2454167"><ele>202.0</ele><time>2026-03-22T16:23:04.674Z</time></trkpt><trkpt lat="43.1306533" lon="2.245525"><ele>201.5</ele><time>2026-03-22T16:23:05.678Z</time></trkpt><trkpt lat="43.1306433" lon="2.2456417"><ele>201.0</ele><time>2026-03-22T16:23:06.676Z</time></trkpt><trkpt lat="43.1306433" lon="2.2457583"><ele>200.50000000000003</ele><time>2026-03-22T16:23:07.674Z</time></trkpt><trkpt lat="43.1306533" lon="2.245875"><ele>200.0</ele><time>2026-03-22T16:23:08.679Z</time></trkpt><trkpt lat="43.1306633" lon="2.24598"><ele>199.33333333333334</ele><time>2026-03-22T16:23:09.675Z</time></trkpt><trkpt lat="43.1306883" lon="2.246065"><ele>198.66666666666669</ele><time>2026-03-22T16:23:10.677Z</time></trkpt><trkpt lat="43.130785" lon="2.246155"><ele>198.0</ele><time>2026-03-22T16:23:12.674Z</time></trkpt><trkpt lat="43.1308483" lon="2.246115"><ele>197.33333333333331</ele><time>2026-03-22T16:23:13.674Z</time></trkpt><trkpt lat="43.1309" lon="2.2460583"><ele>196.66666666666666</ele><time>2026-03-22T16:23:14.674Z</time></trkpt><trkpt lat="43.1309367" lon="2.24596"><ele>196.0</ele><time>2026-03-22T16:23:15.675Z</time></trkpt><trkpt lat="43.1309783" lon="2.2458583"><ele>197.16666666666666</ele><time>2026-03-22T16:23:16.675Z</time></trkpt><trkpt lat="43.1310317" lon="2.2457633"><ele>198.33333333333331</ele><time>2026-03-22T16:23:17.674Z</time></trkpt><trkpt lat="43.1310983" lon="2.24568"><ele>199.5</ele><time>2026-03-22T16:23:18.675Z</time></trkpt><trkpt lat="43.1311767" lon="2.2456217"><ele>200.66666666666669</ele><time>2026-03-22T16:23:19.676Z</time></trkpt><trkpt lat="43.131255" lon="2.2455767"><ele>201.83333333333334</ele><time>2026-03-22T16:23:20.677Z</time></trkpt><trkpt lat="43.1313483" lon="2.2455733"><ele>203.0</ele><time>2026-03-22T16:23:21.675Z</time></trkpt><trkpt lat="43.1314467" lon="2.2455967"><ele>204.0</ele><time>2026-03-22T16:23:22.675Z</time></trkpt><trkpt lat="43.1315433" lon="2.24565"><ele>205.0</ele><time>2026-03-22T16:23:23.676Z</time></trkpt><trkpt lat="43.1316367" lon="2.2457133"><ele>206.0</ele><time>2026-03-22T16:23:24.675Z</time></trkpt><trkpt lat="43.1317333" lon="2.245755"><ele>207.0</ele><time>2026-03-22T16:23:25.675Z</time></trkpt><trkpt lat="43.1318283" lon="2.245765"><ele>208.0</ele><time>2026-03-22T16:23:26.675Z</time></trkpt><trkpt lat="43.1319217" lon="2.2457667"><ele>210.49999999999997</ele><time>2026-03-22T16:23:27.676Z</time></trkpt><trkpt lat="43.132005" lon="2.2457717"><ele>213.0</ele><time>2026-03-22T16:23:28.675Z</time></trkpt><trkpt lat="43.1320783" lon="2.24579"><ele>215.5</ele><time>2026-03-22T16:23:29.677Z</time></trkpt><trkpt lat="43.1321433" lon="2.2458317"><ele>218.0</ele><time>2026-03-22T16:23:30.676Z</time></trkpt><trkpt lat="43.1321967" lon="2.2459"><ele>220.49999999999997</ele><time>2026-03-22T16:23:31.677Z</time></trkpt><trkpt lat="43.1322517" lon="2.2459833"><ele>223.0</ele><time>2026-03-22T16:23:32.677Z</time></trkpt><trkpt lat="43.1323167" lon="2.246055"><ele>222.99999999999997</ele><time>2026-03-22T16:23:33.677Z</time></trkpt><trkpt lat="43.132385" lon="2.2461083"><ele>223.0</ele><time>2026-03-22T16:23:34.675Z</time></trkpt><trkpt lat="43.13246" lon="2.2461333"><ele>223.0</ele><time>2026-03-22T16:23:35.679Z</time></trkpt><trkpt lat="43.1325483" lon="2.246155"><ele>223.0</ele><time>2026-03-22T16:23:36.675Z</time></trkpt><trkpt lat="43.1326383" lon="2.246185"><ele>222.99999999999997</ele><time>2026-03-22T16:23:37.674Z</time></trkpt><trkpt lat="43.1327267" lon="2.24623"><ele>223.0</ele><time>2026-03-22T16:23:38.675Z</time></trkpt><trkpt lat="43.1328083" lon="2.2463033"><ele>224.4</ele><time>2026-03-22T16:23:39.676Z</time></trkpt><trkpt lat="43.1328917" lon="2.2463917"><ele>225.8</ele><time>2026-03-22T16:23:40.675Z</time></trkpt><trkpt lat="43.132975" lon="2.24649"><ele>227.2</ele><time>2026-03-22T16:23:41.678Z</time></trkpt><trkpt lat="43.133065" lon="2.2465833"><ele>228.6</ele><time>2026-03-22T16:23:42.676Z</time></trkpt><trkpt lat="43.1331617" lon="2.2466617"><ele>230.0</ele><time>2026-03-22T16:23:43.674Z</time></trkpt><trkpt lat="43.13327" lon="2.2467183"><ele>232.5</ele><time>2026-03-22T16:23:44.677Z</time></trkpt><trkpt lat="43.133385" lon="2.2467583"><ele>235.0</ele><time>2026-03-22T16:23:45.676Z</time></trkpt><trkpt lat="43.1335" lon="2.2467883"><ele>237.5</ele><time>2026-03-22T16:23:46.676Z</time></trkpt><trkpt lat="43.1336117" lon="2.2468083"><ele>240.0</ele><time>2026-03-22T16:23:47.676Z</time></trkpt><trkpt lat="43.1337217" lon="2.246825"><ele>240.0</ele><time>2026-03-22T16:23:48.68Z</time></trkpt><trkpt lat="43.1338117" lon="2.2468433"><ele>240.0</ele><time>2026-03-22T16:23:49.676Z</time></trkpt><trkpt lat="43.1338917" lon="2.246875"><ele>240.0</ele><time>2026-03-22T16:23:50.676Z</time></trkpt><trkpt lat="43.1339583" lon="2.2469167"><ele>240.0</ele><time>2026-03-22T16:23:51.674Z</time></trkpt><trkpt lat="43.1340167" lon="2.2469733"><ele>240.0</ele><time>2026-03-22T16:23:52.675Z</time></trkpt><trkpt lat="43.1340717" lon="2.247035"><ele>240.0</ele><time>2026-03-22T16:23:53.675Z</time></trkpt><trkpt lat="43.1341233" lon="2.24711"><ele>242.0</ele><time>2026-03-22T16:23:54.677Z</time></trkpt><trkpt lat="43.1341617" lon="2.2472"><ele>244.0</ele><time>2026-03-22T16:23:55.675Z</time></trkpt><trkpt lat="43.1341917" lon="2.24732"><ele>246.0</ele><time>2026-03-22T16:23:56.676Z</time></trkpt><trkpt lat="43.1342083" lon="2.2474417"><ele>248.0</ele><time>2026-03-22T16:23:57.673Z</time></trkpt><trkpt lat="43.134215" lon="2.2475517"><ele>250.0</ele><time>2026-03-22T16:23:58.674Z</time></trkpt><trkpt lat="43.134215" lon="2.2476517"><ele>252.0</ele><time>2026-03-22T16:23:59.676Z</time></trkpt><trkpt lat="43.1342" lon="2.247795"><ele>252.5</ele><time>2026-03-22T16:24:01.674Z</time></trkpt><trkpt lat="43.1342233" lon="2.2478967"><ele>253.0</ele><time>2026-03-22T16:24:04.674Z</time></trkpt><trkpt lat="43.1342967" lon="2.247785"><ele>253.5</ele><time>2026-03-22T16:24:07.676Z</time></trkpt><trkpt lat="43.1343133" lon="2.2476917"><ele>254.0</ele><time>2026-03-22T16:24:08.675Z</time></trkpt><trkpt lat="43.1343317" lon="2.24758"><ele>254.5</ele><time>2026-03-22T16:24:09.676Z</time></trkpt><trkpt lat="43.1343583" lon="2.2474667"><ele>255.0</ele><time>2026-03-22T16:24:10.679Z</time></trkpt><trkpt lat="43.1343867" lon="2.247355"><ele>254.5</ele><time>2026-03-22T16:24:11.677Z</time></trkpt><trkpt lat="43.1344283" lon="2.2472533"><ele>254.0</ele><time>2026-03-22T16:24:12.678Z</time></trkpt><trkpt lat="43.1344833" lon="2.2471683"><ele>253.5</ele><time>2026-03-22T16:24:13.676Z</time></trkpt><trkpt lat="43.1345533" lon="2.247105"><ele>253.0</ele><time>2026-03-22T16:24:14.676Z</time></trkpt><trkpt lat="43.1346333" lon="2.2470567"><ele>252.5</ele><time>2026-03-22T16:24:15.673Z</time></trkpt><trkpt lat="43.13471" lon="2.2470017"><ele>252.0</ele><time>2026-03-22T16:24:16.673Z</time></trkpt><trkpt lat="43.134805" lon="2.246965"><ele>254.0</ele><time>2026-03-22T16:24:17.676Z</time></trkpt><trkpt lat="43.1349033" lon="2.2469383"><ele>256.0</ele><time>2026-03-22T16:24:18.679Z</time></trkpt><trkpt lat="43.135005" lon="2.2469133"><ele>258.0</ele><time>2026-03-22T16:24:19.676Z</time></trkpt><trkpt lat="43.1351083" lon="2.2469017"><ele>260.0</ele><time>2026-03-22T16:24:20.674Z</time></trkpt><trkpt lat="43.1352133" lon="2.2468967"><ele>262.0</ele><time>2026-03-22T16:24:21.675Z</time></trkpt><trkpt lat="43.13532" lon="2.2468933"><ele>262.0</ele><time>2026-03-22T16:24:22.675Z</time></trkpt><trkpt lat="43.1354283" lon="2.2468967"><ele>262.0</ele><time>2026-03-22T16:24:23.676Z</time></trkpt><trkpt lat="43.1355367" lon="2.2469133"><ele>262.0</ele><time>2026-03-22T16:24:24.674Z</time></trkpt><trkpt lat="43.1356367" lon="2.2469633"><ele>262.0</ele><time>2026-03-22T16:24:25.675Z</time></trkpt><trkpt lat="43.1357167" lon="2.247065"><ele>262.0</ele><time>2026-03-22T16:24:26.676Z</time></trkpt><trkpt lat="43.1357983" lon="2.247165"><ele>261.75</ele><time>2026-03-22T16:24:27.674Z</time></trkpt><trkpt lat="43.13589" lon="2.24726"><ele>261.5</ele><time>2026-03-22T16:24:28.674Z</time></trkpt><trkpt lat="43.1359917" lon="2.2473483"><ele>261.25</ele><time>2026-03-22T16:24:29.677Z</time></trkpt><trkpt lat="43.1361033" lon="2.2474217"><ele>261.0</ele><time>2026-03-22T16:24:30.676Z</time></trkpt><trkpt lat="43.1362267" lon="2.247465"><ele>263.25</ele><time>2026-03-22T16:24:31.675Z</time></trkpt><trkpt lat="43.13636" lon="2.2474717"><ele>265.5</ele><time>2026-03-22T16:24:32.675Z</time></trkpt><trkpt lat="43.1365017" lon="2.24745"><ele>267.75</ele><time>2026-03-22T16:24:33.675Z</time></trkpt><trkpt lat="43.136645" lon="2.2474167"><ele>270.0</ele><time>2026-03-22T16:24:34.675Z</time></trkpt><trkpt lat="43.1367833" lon="2.2473733"><ele>270.0</ele><time>2026-03-22T16:24:35.676Z</time></trkpt><trkpt lat="43.1369183" lon="2.2473033"><ele>270.0</ele><time>2026-03-22T16:24:36.675Z</time></trkpt><trkpt lat="43.137045" lon="2.2472117"><ele>270.0</ele><time>2026-03-22T16:24:37.675Z</time></trkpt><trkpt lat="43.137165" lon="2.2471"><ele>270.0</ele><time>2026-03-22T16:24:38.676Z</time></trkpt><trkpt lat="43.1372783" lon="2.2469783"><ele>270.25</ele><time>2026-03-22T16:24:39.681Z</time></trkpt><trkpt lat="43.1373883" lon="2.2468533"><ele>270.5</ele><time>2026-03-22T16:24:40.675Z</time></trkpt><trkpt lat="43.1374967" lon="2.24673"><ele>270.75</ele><time>2026-03-22T16:24:41.675Z</time></trkpt><trkpt lat="43.13761" lon="2.2466083"><ele>271.0</ele><time>2026-03-22T16:24:42.675Z</time></trkpt><trkpt lat="43.1377267" lon="2.2464967"><ele>269.25</ele><time>2026-03-22T16:24:43.678Z</time></trkpt><trkpt lat="43.13785" lon="2.2463933"><ele>267.5</ele><time>2026-03-22T16:24:44.676Z</time></trkpt><trkpt lat="43.1379733" lon="2.246295"><ele>265.75</ele><time>2026-03-22T16:24:45.676Z</time></trkpt><trkpt lat="43.1380933" lon="2.2462017"><ele>264.0</ele><time>2026-03-22T16:24:46.675Z</time></trkpt><trkpt lat="43.1382133" lon="2.24611"><ele>265.75</ele><time>2026-03-22T16:24:47.676Z</time></trkpt><trkpt lat="43.1383417" lon="2.2460367"><ele>267.5</ele><time>2026-03-22T16:24:48.675Z</time></trkpt><trkpt lat="43.13848" lon="2.2459883"><ele>269.25</ele><time>2026-03-22T16:24:49.676Z</time></trkpt><trkpt lat="43.138625" lon="2.24597"><ele>271.0</ele><time>2026-03-22T16:24:50.675Z</time></trkpt><trkpt lat="43.138775" lon="2.2459817"><ele>271.0</ele><time>2026-03-22T16:24:51.675Z</time></trkpt><trkpt lat="43.1389233" lon="2.2460133"><ele>271.0</ele><time>2026-03-22T16:24:52.675Z</time></trkpt><trkpt lat="43.1390617" lon="2.2460633"><ele>271.0</ele><time>2026-03-22T16:24:53.676Z</time></trkpt><trkpt lat="43.1391933" lon="2.2461233"><ele>271.0</ele><time>2026-03-22T16:24:54.675Z</time></trkpt><trkpt lat="43.1393183" lon="2.2462067"><ele>270.5</ele><time>2026-03-22T16:24:55.675Z</time></trkpt><trkpt lat="43.1394333" lon="2.2463217"><ele>270.0</ele><time>2026-03-22T16:24:56.676Z</time></trkpt><trkpt lat="43.1395433" lon="2.24645"><ele>269.5</ele><time>2026-03-22T16:24:57.675Z</time></trkpt><trkpt lat="43.139655" lon="2.24657"><ele>269.0</ele><time>2026-03-22T16:24:58.679Z</time></trkpt><trkpt lat="43.1397717" lon="2.24667"><ele>270.5</ele><time>2026-03-22T16:24:59.675Z</time></trkpt><trkpt lat="43.139895" lon="2.2467317"><ele>272.0</ele><time>2026-03-22T16:25:00.676Z</time></trkpt><trkpt lat="43.1400317" lon="2.246755"><ele>273.5</ele><time>2026-03-22T16:25:01.674Z</time></trkpt><trkpt lat="43.1401733" lon="2.2467417"><ele>275.0</ele><time>2026-03-22T16:25:02.676Z</time></trkpt><trkpt lat="43.1403183" lon="2.246695"><ele>275.0</ele><time>2026-03-22T16:25:03.675Z</time></trkpt><trkpt lat="43.1404617" lon="2.2466417"><ele>275.0</ele><time>2026-03-22T16:25:04.676Z</time></trkpt><trkpt lat="43.1406083" lon="2.2465917"><ele>275.0</ele><time>2026-03-22T16:25:05.678Z</time></trkpt><trkpt lat="43.1407583" lon="2.2465517"><ele>274.6666666666667</ele><time>2026-03-22T16:25:06.679Z</time></trkpt><trkpt lat="43.1409117" lon="2.2465117"><ele>274.3333333333333</ele><time>2026-03-22T16:25:07.676Z</time></trkpt><trkpt lat="43.1410717" lon="2.2464667"><ele>274.0</ele><time>2026-03-22T16:25:08.677Z</time></trkpt><trkpt lat="43.1412283" lon="2.2464233"><ele>274.0</ele><time>2026-03-22T16:25:09.675Z</time></trkpt><trkpt lat="43.141385" lon="2.24638"><ele>274.0</ele><time>2026-03-22T16:25:10.675Z</time></trkpt><trkpt lat="43.141545" lon="2.2463333"><ele>274.0</ele><time>2026-03-22T16:25:11.675Z</time></trkpt><trkpt lat="43.1417067" lon="2.2462833"><ele>276.66666666666663</ele><time>2026-03-22T16:25:12.677Z</time></trkpt><trkpt lat="43.1418617" lon="2.24623"><ele>279.3333333333333</ele><time>2026-03-22T16:25:13.678Z</time></trkpt><trkpt lat="43.1420083" lon="2.2461767"><ele>282.0</ele><time>2026-03-22T16:25:14.677Z</time></trkpt><trkpt lat="43.1421467" lon="2.24613"><ele>282.0</ele><time>2026-03-22T16:25:15.674Z</time></trkpt><trkpt lat="43.1422733" lon="2.246095"><ele>282.0</ele><time>2026-03-22T16:25:16.674Z</time></trkpt><trkpt lat="43.142395" lon="2.2460833"><ele>282.0</ele><time>2026-03-22T16:25:17.675Z</time></trkpt><trkpt lat="43.14251" lon="2.2461"><ele>282.0</ele><time>2026-03-22T16:25:18.674Z</time></trkpt><trkpt lat="43.1426133" lon="2.2461467"><ele>283.4</ele><time>2026-03-22T16:25:19.674Z</time></trkpt><trkpt lat="43.1427" lon="2.246205"><ele>284.79999999999995</ele><time>2026-03-22T16:25:20.675Z</time></trkpt><trkpt lat="43.142785" lon="2.2462433"><ele>286.2</ele><time>2026-03-22T16:25:21.674Z</time></trkpt><trkpt lat="43.142875" lon="2.2462633"><ele>287.59999999999997</ele><time>2026-03-22T16:25:22.674Z</time></trkpt><trkpt lat="43.1429667" lon="2.2462717"><ele>289.0</ele><time>2026-03-22T16:25:23.675Z</time></trkpt><trkpt lat="43.1430633" lon="2.2462867"><ele>289.0</ele><time>2026-03-22T16:25:24.676Z</time></trkpt><trkpt lat="43.1431567" lon="2.2463233"><ele>289.0</ele><time>2026-03-22T16:25:25.673Z</time></trkpt><trkpt lat="43.1432467" lon="2.2463867"><ele>289.0</ele><time>2026-03-22T16:25:26.679Z</time></trkpt><trkpt lat="43.143335" lon="2.2464667"><ele>289.0</ele><time>2026-03-22T16:25:27.673Z</time></trkpt><trkpt lat="43.1434167" lon="2.2465583"><ele>289.0</ele><time>2026-03-22T16:25:28.673Z</time></trkpt><trkpt lat="43.1435" lon="2.24666"><ele>290.0</ele><time>2026-03-22T16:25:29.678Z</time></trkpt><trkpt lat="43.1435833" lon="2.2467617"><ele>291.0</ele><time>2026-03-22T16:25:30.674Z</time></trkpt><trkpt lat="43.1436717" lon="2.24686"><ele>292.0</ele><time>2026-03-22T16:25:31.675Z</time></trkpt><trkpt lat="43.1437583" lon="2.2469583"><ele>293.0</ele><time>2026-03-22T16:25:32.676Z</time></trkpt><trkpt lat="43.1438433" lon="2.2470467"><ele>294.0</ele><time>2026-03-22T16:25:33.675Z</time></trkpt><trkpt lat="43.1439267" lon="2.247115"><ele>294.0</ele><time>2026-03-22T16:25:34.673Z</time></trkpt><trkpt lat="43.1440133" lon="2.247155"><ele>294.0</ele><time>2026-03-22T16:25:35.676Z</time></trkpt><trkpt lat="43.1441033" lon="2.2471733"><ele>294.0</ele><time>2026-03-22T16:25:36.677Z</time></trkpt><trkpt lat="43.14419" lon="2.2471783"><ele>294.0</ele><time>2026-03-22T16:25:37.676Z</time></trkpt><trkpt lat="43.1442767" lon="2.2471767"><ele>294.0</ele><time>2026-03-22T16:25:38.675Z</time></trkpt><trkpt lat="43.1443617" lon="2.2471733"><ele>294.0</ele><time>2026-03-22T16:25:39.676Z</time></trkpt><trkpt lat="43.144455" lon="2.247175"><ele>296.3333333333333</ele><time>2026-03-22T16:25:40.676Z</time></trkpt><trkpt lat="43.144545" lon="2.2471667"><ele>298.6666666666667</ele><time>2026-03-22T16:25:41.676Z</time></trkpt><trkpt lat="43.14463" lon="2.24717"><ele>301.0</ele><time>2026-03-22T16:25:42.674Z</time></trkpt><trkpt lat="43.14471" lon="2.24718"><ele>303.33333333333337</ele><time>2026-03-22T16:25:43.678Z</time></trkpt><trkpt lat="43.1447883" lon="2.2471933"><ele>305.6666666666667</ele><time>2026-03-22T16:25:44.675Z</time></trkpt><trkpt lat="43.14487" lon="2.2472133"><ele>308.0</ele><time>2026-03-22T16:25:45.676Z</time></trkpt><trkpt lat="43.144955" lon="2.2472333"><ele>309.33333333333337</ele><time>2026-03-22T16:25:46.675Z</time></trkpt><trkpt lat="43.1450433" lon="2.2472567"><ele>310.6666666666667</ele><time>2026-03-22T16:25:47.673Z</time></trkpt><trkpt lat="43.1451267" lon="2.24728"><ele>312.0</ele><time>2026-03-22T16:25:48.675Z</time></trkpt><trkpt lat="43.1452083" lon="2.247305"><ele>313.3333333333333</ele><time>2026-03-22T16:25:49.674Z</time></trkpt><trkpt lat="43.14529" lon="2.24733"><ele>314.66666666666663</ele><time>2026-03-22T16:25:50.675Z</time></trkpt><trkpt lat="43.1453667" lon="2.2473567"><ele>316.0</ele><time>2026-03-22T16:25:51.674Z</time></trkpt><trkpt lat="43.1454417" lon="2.24737"><ele>316.0</ele><time>2026-03-22T16:25:52.676Z</time></trkpt><trkpt lat="43.1455183" lon="2.24734"><ele>316.0</ele><time>2026-03-22T16:25:53.674Z</time></trkpt><trkpt lat="43.145605" lon="2.24728"><ele>316.0</ele><time>2026-03-22T16:25:54.675Z</time></trkpt><trkpt lat="43.145685" lon="2.2471983"><ele>316.0</ele><time>2026-03-22T16:25:55.677Z</time></trkpt><trkpt lat="43.1457517" lon="2.2471183"><ele>316.0</ele><time>2026-03-22T16:25:56.676Z</time></trkpt><trkpt lat="43.1458083" lon="2.24704"><ele>316.0</ele><time>2026-03-22T16:25:57.675Z</time></trkpt><trkpt lat="43.1458583" lon="2.2469533"><ele>317.5</ele><time>2026-03-22T16:25:58.675Z</time></trkpt><trkpt lat="43.1458983" lon="2.2468567"><ele>319.0</ele><time>2026-03-22T16:25:59.676Z</time></trkpt><trkpt lat="43.1459267" lon="2.246745"><ele>320.5</ele><time>2026-03-22T16:26:00.676Z</time></trkpt><trkpt lat="43.1459533" lon="2.2466267"><ele>322.0</ele><time>2026-03-22T16:26:01.675Z</time></trkpt><trkpt lat="43.145985" lon="2.2465267"><ele>323.5</ele><time>2026-03-22T16:26:02.675Z</time></trkpt><trkpt lat="43.14603" lon="2.2464433"><ele>325.0</ele><time>2026-03-22T16:26:03.673Z</time></trkpt><trkpt lat="43.1460867" lon="2.246375"><ele>328.6</ele><time>2026-03-22T16:26:04.675Z</time></trkpt><trkpt lat="43.14616" lon="2.2463267"><ele>332.2</ele><time>2026-03-22T16:26:05.675Z</time></trkpt><trkpt lat="43.1462283" lon="2.246275"><ele>335.79999999999995</ele><time>2026-03-22T16:26:06.674Z</time></trkpt><trkpt lat="43.146315" lon="2.246245"><ele>339.4</ele><time>2026-03-22T16:26:07.674Z</time></trkpt><trkpt lat="43.1464217" lon="2.2462383"><ele>343.0</ele><time>2026-03-22T16:26:08.676Z</time></trkpt><trkpt lat="43.146535" lon="2.246245"><ele>341.3333333333333</ele><time>2026-03-22T16:26:09.673Z</time></trkpt><trkpt lat="43.1466367" lon="2.2462417"><ele>339.66666666666663</ele><time>2026-03-22T16:26:10.675Z</time></trkpt><trkpt lat="43.146735" lon="2.2462367"><ele>338.0</ele><time>2026-03-22T16:26:11.674Z</time></trkpt><trkpt lat="43.1468183" lon="2.246215"><ele>336.3333333333333</ele><time>2026-03-22T16:26:12.674Z</time></trkpt><trkpt lat="43.1468883" lon="2.24618"><ele>334.6666666666667</ele><time>2026-03-22T16:26:13.675Z</time></trkpt><trkpt lat="43.1469467" lon="2.2461217"><ele>333.0</ele><time>2026-03-22T16:26:14.676Z</time></trkpt><trkpt lat="43.1470017" lon="2.2460533"><ele>333.0</ele><time>2026-03-22T16:26:15.675Z</time></trkpt><trkpt lat="43.1470617" lon="2.2459883"><ele>333.0</ele><time>2026-03-22T16:26:16.674Z</time></trkpt><trkpt lat="43.1471233" lon="2.2459433"><ele>333.0</ele><time>2026-03-22T16:26:17.674Z</time></trkpt><trkpt lat="43.1471967" lon="2.2459133"><ele>333.0</ele><time>2026-03-22T16:26:18.673Z</time></trkpt><trkpt lat="43.1472783" lon="2.2459367"><ele>333.0</ele><time>2026-03-22T16:26:19.674Z</time></trkpt><trkpt lat="43.147365" lon="2.2459967"><ele>333.0</ele><time>2026-03-22T16:26:20.674Z</time></trkpt><trkpt lat="43.1474483" lon="2.24608"><ele>332.0</ele><time>2026-03-22T16:26:21.672Z</time></trkpt><trkpt lat="43.1475167" lon="2.246135"><ele>331.0</ele><time>2026-03-22T16:26:22.673Z</time></trkpt><trkpt lat="43.1475767" lon="2.2461683"><ele>330.0</ele><time>2026-03-22T16:26:23.674Z</time></trkpt><trkpt lat="43.1476983" lon="2.24612"><ele>329.0</ele><time>2026-03-22T16:26:25.673Z</time></trkpt><trkpt lat="43.14775" lon="2.246035"><ele>328.0</ele><time>2026-03-22T16:26:26.674Z</time></trkpt><trkpt lat="43.1478067" lon="2.24593"><ele>327.0</ele><time>2026-03-22T16:26:27.678Z</time></trkpt><trkpt lat="43.1478767" lon="2.24583"><ele>327.0</ele><time>2026-03-22T16:26:28.674Z</time></trkpt><trkpt lat="43.1479583" lon="2.24574"><ele>327.0</ele><time>2026-03-22T16:26:29.676Z</time></trkpt><trkpt lat="43.148045" lon="2.2456717"><ele>327.0</ele><time>2026-03-22T16:26:30.675Z</time></trkpt><trkpt lat="43.1481333" lon="2.2456317"><ele>327.0</ele><time>2026-03-22T16:26:31.672Z</time></trkpt><trkpt lat="43.1482233" lon="2.2456067"><ele>327.0</ele><time>2026-03-22T16:26:32.677Z</time></trkpt><trkpt lat="43.1483117" lon="2.2455967"><ele>328.40000000000003</ele><time>2026-03-22T16:26:33.674Z</time></trkpt><trkpt lat="43.1484033" lon="2.2456167"><ele>329.8</ele><time>2026-03-22T16:26:34.673Z</time></trkpt><trkpt lat="43.1485067" lon="2.2456533"><ele>331.2</ele><time>2026-03-22T16:26:35.674Z</time></trkpt><trkpt lat="43.1486083" lon="2.24569"><ele>332.6</ele><time>2026-03-22T16:26:36.675Z</time></trkpt><trkpt lat="43.1487" lon="2.24572"><ele>334.0</ele><time>2026-03-22T16:26:37.676Z</time></trkpt><trkpt lat="43.1487867" lon="2.2457383"><ele>334.0</ele><time>2026-03-22T16:26:38.674Z</time></trkpt><trkpt lat="43.1488617" lon="2.2457367"><ele>334.0</ele><time>2026-03-22T16:26:39.675Z</time></trkpt><trkpt lat="43.1489367" lon="2.24572"><ele>334.0</ele><time>2026-03-22T16:26:40.674Z</time></trkpt><trkpt lat="43.1489967" lon="2.2456633"><ele>334.0</ele><time>2026-03-22T16:26:41.673Z</time></trkpt><trkpt lat="43.1490533" lon="2.2455883"><ele>334.0</ele><time>2026-03-22T16:26:42.673Z</time></trkpt><trkpt lat="43.14909" lon="2.245485"><ele>334.0</ele><time>2026-03-22T16:26:43.675Z</time></trkpt><trkpt lat="43.1491417" lon="2.2453833"><ele>336.3333333333333</ele><time>2026-03-22T16:26:44.675Z</time></trkpt><trkpt lat="43.1492" lon="2.2453"><ele>338.66666666666663</ele><time>2026-03-22T16:26:45.674Z</time></trkpt><trkpt lat="43.1492533" lon="2.2452233"><ele>341.0</ele><time>2026-03-22T16:26:46.675Z</time></trkpt><trkpt lat="43.1493167" lon="2.2451583"><ele>343.3333333333333</ele><time>2026-03-22T16:26:47.673Z</time></trkpt><trkpt lat="43.149385" lon="2.2451067"><ele>345.6666666666667</ele><time>2026-03-22T16:26:48.675Z</time></trkpt><trkpt lat="43.14945" lon="2.2450583"><ele>348.0</ele><time>2026-03-22T16:26:49.676Z</time></trkpt><trkpt lat="43.14953" lon="2.2450467"><ele>348.0</ele><time>2026-03-22T16:26:50.674Z</time></trkpt><trkpt lat="43.1495983" lon="2.2450533"><ele>348.0</ele><time>2026-03-22T16:26:51.672Z</time></trkpt><trkpt lat="43.1496683" lon="2.2450533"><ele>348.0</ele><time>2026-03-22T16:26:52.675Z</time></trkpt><trkpt lat="43.1497483" lon="2.245005"><ele>348.0</ele><time>2026-03-22T16:26:53.676Z</time></trkpt><trkpt lat="43.14982" lon="2.2449383"><ele>348.0</ele><time>2026-03-22T16:26:54.673Z</time></trkpt><trkpt lat="43.1498833" lon="2.244855"><ele>348.0</ele><time>2026-03-22T16:26:55.676Z</time></trkpt><trkpt lat="43.1499383" lon="2.2447417"><ele>346.79999999999995</ele><time>2026-03-22T16:26:56.674Z</time></trkpt><trkpt lat="43.149995" lon="2.2446217"><ele>345.6</ele><time>2026-03-22T16:26:57.676Z</time></trkpt><trkpt lat="43.1500533" lon="2.2445067"><ele>344.4</ele><time>2026-03-22T16:26:58.674Z</time></trkpt><trkpt lat="43.15011" lon="2.244395"><ele>343.20000000000005</ele><time>2026-03-22T16:26:59.675Z</time></trkpt><trkpt lat="43.150175" lon="2.2442833"><ele>342.0</ele><time>2026-03-22T16:27:00.674Z</time></trkpt><trkpt lat="43.1502383" lon="2.2441683"><ele>342.0</ele><time>2026-03-22T16:27:01.675Z</time></trkpt><trkpt lat="43.1502967" lon="2.2440533"><ele>342.0</ele><time>2026-03-22T16:27:02.676Z</time></trkpt><trkpt lat="43.150355" lon="2.24396"><ele>342.0</ele><time>2026-03-22T16:27:03.676Z</time></trkpt><trkpt lat="43.1504167" lon="2.243875"><ele>342.0</ele><time>2026-03-22T16:27:04.676Z</time></trkpt><trkpt lat="43.150485" lon="2.2438267"><ele>342.0</ele><time>2026-03-22T16:27:05.673Z</time></trkpt><trkpt lat="43.1505533" lon="2.2438033"><ele>342.0</ele><time>2026-03-22T16:27:06.676Z</time></trkpt><trkpt lat="43.1506533" lon="2.2438417"><ele>342.40000000000003</ele><time>2026-03-22T16:27:07.675Z</time></trkpt><trkpt lat="43.1507383" lon="2.2438767"><ele>342.8</ele><time>2026-03-22T16:27:08.674Z</time></trkpt><trkpt lat="43.1508217" lon="2.2439383"><ele>343.2</ele><time>2026-03-22T16:27:09.675Z</time></trkpt><trkpt lat="43.15091" lon="2.24401"><ele>343.6</ele><time>2026-03-22T16:27:10.674Z</time></trkpt><trkpt lat="43.1510033" lon="2.2440583"><ele>344.0</ele><time>2026-03-22T16:27:11.675Z</time></trkpt><trkpt lat="43.1510933" lon="2.244075"><ele>344.0</ele><time>2026-03-22T16:27:12.676Z</time></trkpt><trkpt lat="43.1511833" lon="2.2440217"><ele>344.0</ele><time>2026-03-22T16:27:13.673Z</time></trkpt><trkpt lat="43.1512717" lon="2.243895"><ele>344.0</ele><time>2026-03-22T16:27:14.676Z</time></trkpt><trkpt lat="43.151365" lon="2.2437883"><ele>344.0</ele><time>2026-03-22T16:27:15.673Z</time></trkpt><trkpt lat="43.1514667" lon="2.2436867"><ele>345.5</ele><time>2026-03-22T16:27:16.673Z</time></trkpt><trkpt lat="43.1515767" lon="2.2435867"><ele>347.0</ele><time>2026-03-22T16:27:17.674Z</time></trkpt><trkpt lat="43.1516833" lon="2.2434767"><ele>348.5</ele><time>2026-03-22T16:27:18.675Z</time></trkpt><trkpt lat="43.1517767" lon="2.2433717"><ele>350.0</ele><time>2026-03-22T16:27:19.676Z</time></trkpt><trkpt lat="43.1518617" lon="2.2432717"><ele>350.0</ele><time>2026-03-22T16:27:20.675Z</time></trkpt><trkpt lat="43.1519417" lon="2.2431733"><ele>350.0</ele><time>2026-03-22T16:27:21.681Z</time></trkpt><trkpt lat="43.1520083" lon="2.2430633"><ele>350.0</ele><time>2026-03-22T16:27:22.674Z</time></trkpt><trkpt lat="43.1520583" lon="2.2429233"><ele>350.0</ele><time>2026-03-22T16:27:23.675Z</time></trkpt><trkpt lat="43.1521033" lon="2.2427817"><ele>350.0</ele><time>2026-03-22T16:27:24.675Z</time></trkpt><trkpt lat="43.1521467" lon="2.2426433"><ele>349.2</ele><time>2026-03-22T16:27:25.676Z</time></trkpt><trkpt lat="43.152195" lon="2.2425167"><ele>348.4</ele><time>2026-03-22T16:27:26.674Z</time></trkpt><trkpt lat="43.1522483" lon="2.2424"><ele>347.6</ele><time>2026-03-22T16:27:27.675Z</time></trkpt><trkpt lat="43.1523217" lon="2.2423183"><ele>346.8</ele><time>2026-03-22T16:27:28.675Z</time></trkpt><trkpt lat="43.1524117" lon="2.2422983"><ele>346.0</ele><time>2026-03-22T16:27:29.674Z</time></trkpt><trkpt lat="43.1524967" lon="2.24234"><ele>346.0</ele><time>2026-03-22T16:27:30.674Z</time></trkpt><trkpt lat="43.1525717" lon="2.2424133"><ele>346.0</ele><time>2026-03-22T16:27:31.675Z</time></trkpt><trkpt lat="43.152645" lon="2.2424767"><ele>346.0</ele><time>2026-03-22T16:27:32.674Z</time></trkpt><trkpt lat="43.1527283" lon="2.2425117"><ele>346.0</ele><time>2026-03-22T16:27:33.674Z</time></trkpt><trkpt lat="43.152815" lon="2.2424667"><ele>346.0</ele><time>2026-03-22T16:27:34.673Z</time></trkpt><trkpt lat="43.152895" lon="2.242425"><ele>346.0</ele><time>2026-03-22T16:27:35.676Z</time></trkpt><trkpt lat="43.152975" lon="2.2423983"><ele>346.0</ele><time>2026-03-22T16:27:36.675Z</time></trkpt><trkpt lat="43.1530567" lon="2.242445"><ele>346.0</ele><time>2026-03-22T16:27:37.673Z</time></trkpt><trkpt lat="43.1531383" lon="2.2425117"><ele>346.0</ele><time>2026-03-22T16:27:38.674Z</time></trkpt><trkpt lat="43.1531983" lon="2.2426467"><ele>346.0</ele><time>2026-03-22T16:27:39.674Z</time></trkpt><trkpt lat="43.1532567" lon="2.2427867"><ele>346.0</ele><time>2026-03-22T16:27:40.674Z</time></trkpt><trkpt lat="43.1533133" lon="2.2429417"><ele>345.5</ele><time>2026-03-22T16:27:41.674Z</time></trkpt><trkpt lat="43.1533767" lon="2.243095"><ele>345.0</ele><time>2026-03-22T16:27:42.675Z</time></trkpt><trkpt lat="43.1534333" lon="2.2432583"><ele>344.5</ele><time>2026-03-22T16:27:43.675Z</time></trkpt><trkpt lat="43.1534717" lon="2.2434367"><ele>344.0</ele><time>2026-03-22T16:27:44.673Z</time></trkpt><trkpt lat="43.1535" lon="2.243625"><ele>341.33333333333337</ele><time>2026-03-22T16:27:45.674Z</time></trkpt><trkpt lat="43.1535283" lon="2.243825"><ele>338.6666666666667</ele><time>2026-03-22T16:27:46.674Z</time></trkpt><trkpt lat="43.153555" lon="2.244035"><ele>336.0</ele><time>2026-03-22T16:27:47.674Z</time></trkpt><trkpt lat="43.1535833" lon="2.2442417"><ele>334.5</ele><time>2026-03-22T16:27:48.675Z</time></trkpt><trkpt lat="43.1536133" lon="2.24444"><ele>333.0</ele><time>2026-03-22T16:27:49.675Z</time></trkpt><trkpt lat="43.1536433" lon="2.2446383"><ele>331.5</ele><time>2026-03-22T16:27:50.675Z</time></trkpt><trkpt lat="43.1536717" lon="2.2448383"><ele>330.0</ele><time>2026-03-22T16:27:51.676Z</time></trkpt><trkpt lat="43.1537067" lon="2.2450417"><ele>329.5</ele><time>2026-03-22T16:27:52.674Z</time></trkpt><trkpt lat="43.1537483" lon="2.2452367"><ele>329.0</ele><time>2026-03-22T16:27:53.675Z</time></trkpt><trkpt lat="43.153785" lon="2.2454133"><ele>328.5</ele><time>2026-03-22T16:27:54.674Z</time></trkpt><trkpt lat="43.1538233" lon="2.2455783"><ele>328.0</ele><time>2026-03-22T16:27:55.676Z</time></trkpt><trkpt lat="43.153855" lon="2.2457367"><ele>329.25</ele><time>2026-03-22T16:27:56.676Z</time></trkpt><trkpt lat="43.1538667" lon="2.2459"><ele>330.5</ele><time>2026-03-22T16:27:57.675Z</time></trkpt><trkpt lat="43.153865" lon="2.24606"><ele>331.75</ele><time>2026-03-22T16:27:58.675Z</time></trkpt><trkpt lat="43.1538567" lon="2.2462217"><ele>333.0</ele><time>2026-03-22T16:27:59.675Z</time></trkpt><trkpt lat="43.1538467" lon="2.246385"><ele>334.0</ele><time>2026-03-22T16:28:00.675Z</time></trkpt><trkpt lat="43.15384" lon="2.246545"><ele>335.0</ele><time>2026-03-22T16:28:01.676Z</time></trkpt><trkpt lat="43.1538367" lon="2.2467033"><ele>336.0</ele><time>2026-03-22T16:28:02.677Z</time></trkpt><trkpt lat="43.1538267" lon="2.24685"><ele>337.0</ele><time>2026-03-22T16:28:03.676Z</time></trkpt><trkpt lat="43.1538233" lon="2.246985"><ele>338.0</ele><time>2026-03-22T16:28:04.677Z</time></trkpt><trkpt lat="43.1538183" lon="2.2471117"><ele>338.0</ele><time>2026-03-22T16:28:05.677Z</time></trkpt><trkpt lat="43.1538217" lon="2.24724"><ele>338.0</ele><time>2026-03-22T16:28:06.673Z</time></trkpt><trkpt lat="43.153835" lon="2.2473567"><ele>338.0</ele><time>2026-03-22T16:28:07.673Z</time></trkpt><trkpt lat="43.1538633" lon="2.247465"><ele>338.0</ele><time>2026-03-22T16:28:08.674Z</time></trkpt><trkpt lat="43.153895" lon="2.24758"><ele>338.0</ele><time>2026-03-22T16:28:09.678Z</time></trkpt><trkpt lat="43.1539433" lon="2.2476867"><ele>338.0</ele><time>2026-03-22T16:28:10.676Z</time></trkpt><trkpt lat="43.1540033" lon="2.247785"><ele>337.83333333333337</ele><time>2026-03-22T16:28:11.677Z</time></trkpt><trkpt lat="43.154065" lon="2.247875"><ele>337.6666666666667</ele><time>2026-03-22T16:28:12.674Z</time></trkpt><trkpt lat="43.1541183" lon="2.24797"><ele>337.5</ele><time>2026-03-22T16:28:13.675Z</time></trkpt><trkpt lat="43.1541617" lon="2.2480667"><ele>337.3333333333333</ele><time>2026-03-22T16:28:14.679Z</time></trkpt><trkpt lat="43.1542" lon="2.2481683"><ele>337.16666666666663</ele><time>2026-03-22T16:28:15.675Z</time></trkpt><trkpt lat="43.1542317" lon="2.248275"><ele>337.0</ele><time>2026-03-22T16:28:16.676Z</time></trkpt><trkpt lat="43.1542567" lon="2.2483933"><ele>337.8</ele><time>2026-03-22T16:28:17.674Z</time></trkpt><trkpt lat="43.15428" lon="2.24852"><ele>338.6</ele><time>2026-03-22T16:28:18.674Z</time></trkpt><trkpt lat="43.1543017" lon="2.2486517"><ele>339.40000000000003</ele><time>2026-03-22T16:28:19.675Z</time></trkpt><trkpt lat="43.154325" lon="2.2487817"><ele>340.20000000000005</ele><time>2026-03-22T16:28:20.675Z</time></trkpt><trkpt lat="43.1543383" lon="2.248895"><ele>341.0</ele><time>2026-03-22T16:28:21.674Z</time></trkpt><trkpt lat="43.1543533" lon="2.248995"><ele>341.0</ele><time>2026-03-22T16:28:22.674Z</time></trkpt><trkpt lat="43.1543483" lon="2.249085"><ele>341.0</ele><time>2026-03-22T16:28:23.674Z</time></trkpt><trkpt lat="43.1543183" lon="2.2491667"><ele>341.0</ele><time>2026-03-22T16:28:24.674Z</time></trkpt><trkpt lat="43.1542817" lon="2.2492633"><ele>341.0</ele><time>2026-03-22T16:28:25.677Z</time></trkpt><trkpt lat="43.154245" lon="2.249355"><ele>341.0</ele><time>2026-03-22T16:28:26.68Z</time></trkpt><trkpt lat="43.1542083" lon="2.2494667"><ele>341.0</ele><time>2026-03-22T16:28:27.675Z</time></trkpt><trkpt lat="43.1541667" lon="2.2495783"><ele>341.0</ele><time>2026-03-22T16:28:28.673Z</time></trkpt><trkpt lat="43.1541317" lon="2.24968"><ele>341.0</ele><time>2026-03-22T16:28:29.675Z</time></trkpt><trkpt lat="43.15409" lon="2.249795"><ele>341.0</ele><time>2026-03-22T16:28:30.678Z</time></trkpt><trkpt lat="43.1540467" lon="2.24991"><ele>341.0</ele><time>2026-03-22T16:28:31.675Z</time></trkpt><trkpt lat="43.153995" lon="2.2500233"><ele>341.0</ele><time>2026-03-22T16:28:32.676Z</time></trkpt><trkpt lat="43.1539483" lon="2.250145"><ele>342.0</ele><time>2026-03-22T16:28:33.674Z</time></trkpt><trkpt lat="43.1539033" lon="2.2502833"><ele>343.0</ele><time>2026-03-22T16:28:34.674Z</time></trkpt><trkpt lat="43.153865" lon="2.2504333"><ele>344.0</ele><time>2026-03-22T16:28:35.674Z</time></trkpt><trkpt lat="43.153835" lon="2.2505717"><ele>345.0</ele><time>2026-03-22T16:28:36.679Z</time></trkpt><trkpt lat="43.153815" lon="2.2507067"><ele>346.0</ele><time>2026-03-22T16:28:37.677Z</time></trkpt><trkpt lat="43.153805" lon="2.2508483"><ele>346.0</ele><time>2026-03-22T16:28:38.676Z</time></trkpt><trkpt lat="43.1538" lon="2.2509817"><ele>346.0</ele><time>2026-03-22T16:28:39.675Z</time></trkpt><trkpt lat="43.1537983" lon="2.2511283"><ele>346.0</ele><time>2026-03-22T16:28:40.677Z</time></trkpt><trkpt lat="43.1538017" lon="2.2512533"><ele>346.0</ele><time>2026-03-22T16:28:41.674Z</time></trkpt><trkpt lat="43.153805" lon="2.2514"><ele>346.0</ele><time>2026-03-22T16:28:42.677Z</time></trkpt><trkpt lat="43.153815" lon="2.2515217"><ele>344.4</ele><time>2026-03-22T16:28:43.675Z</time></trkpt><trkpt lat="43.15386" lon="2.2516417"><ele>342.8</ele><time>2026-03-22T16:28:44.674Z</time></trkpt><trkpt lat="43.153895" lon="2.251765"><ele>341.2</ele><time>2026-03-22T16:28:45.673Z</time></trkpt><trkpt lat="43.1539233" lon="2.251895"><ele>339.59999999999997</ele><time>2026-03-22T16:28:46.673Z</time></trkpt><trkpt lat="43.153935" lon="2.2520283"><ele>338.0</ele><time>2026-03-22T16:28:47.673Z</time></trkpt><trkpt lat="43.1539567" lon="2.25217"><ele>335.79999999999995</ele><time>2026-03-22T16:28:48.674Z</time></trkpt><trkpt lat="43.15397" lon="2.2523133"><ele>333.6</ele><time>2026-03-22T16:28:49.678Z</time></trkpt><trkpt lat="43.1539817" lon="2.2524617"><ele>331.4</ele><time>2026-03-22T16:28:50.673Z</time></trkpt><trkpt lat="43.1539933" lon="2.2526167"><ele>329.20000000000005</ele><time>2026-03-22T16:28:51.676Z</time></trkpt><trkpt lat="43.15401" lon="2.252775"><ele>327.0</ele><time>2026-03-22T16:28:52.674Z</time></trkpt><trkpt lat="43.15403" lon="2.2529217"><ele>327.5</ele><time>2026-03-22T16:28:53.679Z</time></trkpt><trkpt lat="43.1540517" lon="2.2530567"><ele>328.0</ele><time>2026-03-22T16:28:54.673Z</time></trkpt><trkpt lat="43.1540783" lon="2.253175"><ele>328.5</ele><time>2026-03-22T16:28:55.675Z</time></trkpt><trkpt lat="43.1541133" lon="2.2532783"><ele>329.0</ele><time>2026-03-22T16:28:56.678Z</time></trkpt><trkpt lat="43.154165" lon="2.253375"><ele>329.5</ele><time>2026-03-22T16:28:57.673Z</time></trkpt><trkpt lat="43.1542233" lon="2.2534617"><ele>330.0</ele><time>2026-03-22T16:28:58.674Z</time></trkpt><trkpt lat="43.154285" lon="2.25354"><ele>330.0</ele><time>2026-03-22T16:28:59.673Z</time></trkpt><trkpt lat="43.1543433" lon="2.2536217"><ele>330.0</ele><time>2026-03-22T16:29:00.673Z</time></trkpt><trkpt lat="43.1544033" lon="2.2537033"><ele>330.0</ele><time>2026-03-22T16:29:01.676Z</time></trkpt><trkpt lat="43.15446" lon="2.2537933"><ele>330.0</ele><time>2026-03-22T16:29:02.676Z</time></trkpt><trkpt lat="43.15451" lon="2.2538817"><ele>330.0</ele><time>2026-03-22T16:29:03.674Z</time></trkpt><trkpt lat="43.15455" lon="2.25397"><ele>330.0</ele><time>2026-03-22T16:29:04.673Z</time></trkpt><trkpt lat="43.15459" lon="2.25406"><ele>329.8571428571429</ele><time>2026-03-22T16:29:05.674Z</time></trkpt><trkpt lat="43.1546283" lon="2.2541433"><ele>329.7142857142857</ele><time>2026-03-22T16:29:06.676Z</time></trkpt><trkpt lat="43.15467" lon="2.2542183"><ele>329.57142857142856</ele><time>2026-03-22T16:29:07.674Z</time></trkpt><trkpt lat="43.1547233" lon="2.2542883"><ele>329.42857142857144</ele><time>2026-03-22T16:29:08.673Z</time></trkpt><trkpt lat="43.1547783" lon="2.254345"><ele>329.2857142857143</ele><time>2026-03-22T16:29:09.674Z</time></trkpt><trkpt lat="43.1548417" lon="2.2543783"><ele>329.14285714285717</ele><time>2026-03-22T16:29:10.673Z</time></trkpt><trkpt lat="43.1549167" lon="2.2544"><ele>329.0</ele><time>2026-03-22T16:29:11.673Z</time></trkpt><trkpt lat="43.1549967" lon="2.2544133"><ele>329.0</ele><time>2026-03-22T16:29:12.673Z</time></trkpt><trkpt lat="43.15508" lon="2.2544167"><ele>329.0</ele><time>2026-03-22T16:29:13.674Z</time></trkpt><trkpt lat="43.1551733" lon="2.2544167"><ele>329.0</ele><time>2026-03-22T16:29:14.675Z</time></trkpt><trkpt lat="43.1552817" lon="2.2544133"><ele>329.0</ele><time>2026-03-22T16:29:15.673Z</time></trkpt><trkpt lat="43.155395" lon="2.25441"><ele>329.0</ele><time>2026-03-22T16:29:16.673Z</time></trkpt><trkpt lat="43.1555083" lon="2.2544133"><ele>329.0</ele><time>2026-03-22T16:29:17.674Z</time></trkpt><trkpt lat="43.155615" lon="2.25442"><ele>329.0</ele><time>2026-03-22T16:29:18.677Z</time></trkpt><trkpt lat="43.15572" lon="2.2544367"><ele>329.0</ele><time>2026-03-22T16:29:19.675Z</time></trkpt><trkpt lat="43.15582" lon="2.2544517"><ele>329.0</ele><time>2026-03-22T16:29:20.675Z</time></trkpt><trkpt lat="43.1559167" lon="2.2544717"><ele>329.0</ele><time>2026-03-22T16:29:21.678Z</time></trkpt><trkpt lat="43.156015" lon="2.2544817"><ele>326.59999999999997</ele><time>2026-03-22T16:29:22.676Z</time></trkpt><trkpt lat="43.1561133" lon="2.254485"><ele>324.2</ele><time>2026-03-22T16:29:23.678Z</time></trkpt><trkpt lat="43.15621" lon="2.25448"><ele>321.79999999999995</ele><time>2026-03-22T16:29:24.675Z</time></trkpt><trkpt lat="43.1563033" lon="2.2544783"><ele>319.4</ele><time>2026-03-22T16:29:25.676Z</time></trkpt><trkpt lat="43.156395" lon="2.2544617"><ele>317.0</ele><time>2026-03-22T16:29:26.677Z</time></trkpt><trkpt lat="43.1564883" lon="2.25443"><ele>315.0</ele><time>2026-03-22T16:29:27.674Z</time></trkpt><trkpt lat="43.1565783" lon="2.2544"><ele>313.0</ele><time>2026-03-22T16:29:28.675Z</time></trkpt><trkpt lat="43.1566733" lon="2.2543767"><ele>311.0</ele><time>2026-03-22T16:29:29.674Z</time></trkpt><trkpt lat="43.1567683" lon="2.25435"><ele>309.0</ele><time>2026-03-22T16:29:30.674Z</time></trkpt><trkpt lat="43.1568633" lon="2.2543217"><ele>307.0</ele><time>2026-03-22T16:29:31.674Z</time></trkpt><trkpt lat="43.1569567" lon="2.2542833"><ele>307.0</ele><time>2026-03-22T16:29:32.675Z</time></trkpt><trkpt lat="43.157055" lon="2.2542383"><ele>307.0</ele><time>2026-03-22T16:29:33.676Z</time></trkpt><trkpt lat="43.1571583" lon="2.2541983"><ele>307.0</ele><time>2026-03-22T16:29:34.675Z</time></trkpt><trkpt lat="43.15726" lon="2.25418"><ele>307.0</ele><time>2026-03-22T16:29:35.675Z</time></trkpt><trkpt lat="43.15736" lon="2.25418"><ele>307.0</ele><time>2026-03-22T16:29:36.674Z</time></trkpt><trkpt lat="43.1574517" lon="2.2541833"><ele>305.6</ele><time>2026-03-22T16:29:37.676Z</time></trkpt><trkpt lat="43.1575383" lon="2.254195"><ele>304.2</ele><time>2026-03-22T16:29:38.678Z</time></trkpt><trkpt lat="43.157625" lon="2.2542267"><ele>302.8</ele><time>2026-03-22T16:29:39.675Z</time></trkpt><trkpt lat="43.1577133" lon="2.2542767"><ele>301.4</ele><time>2026-03-22T16:29:40.674Z</time></trkpt><trkpt lat="43.1578083" lon="2.2543417"><ele>300.0</ele><time>2026-03-22T16:29:41.68Z</time></trkpt><trkpt lat="43.1579017" lon="2.2544217"><ele>300.0</ele><time>2026-03-22T16:29:42.677Z</time></trkpt><trkpt lat="43.1579867" lon="2.25452"><ele>300.0</ele><time>2026-03-22T16:29:43.675Z</time></trkpt><trkpt lat="43.158055" lon="2.254655"><ele>300.0</ele><time>2026-03-22T16:29:44.674Z</time></trkpt><trkpt lat="43.1581017" lon="2.25482"><ele>300.0</ele><time>2026-03-22T16:29:45.674Z</time></trkpt><trkpt lat="43.1581367" lon="2.2550033"><ele>299.25</ele><time>2026-03-22T16:29:46.674Z</time></trkpt><trkpt lat="43.1581717" lon="2.2551933"><ele>298.5</ele><time>2026-03-22T16:29:47.675Z</time></trkpt><trkpt lat="43.1582083" lon="2.255385"><ele>297.75</ele><time>2026-03-22T16:29:48.676Z</time></trkpt><trkpt lat="43.1582533" lon="2.2555767"><ele>297.0</ele><time>2026-03-22T16:29:49.675Z</time></trkpt><trkpt lat="43.1583033" lon="2.2557617"><ele>298.5</ele><time>2026-03-22T16:29:50.677Z</time></trkpt><trkpt lat="43.1583633" lon="2.2559317"><ele>300.0</ele><time>2026-03-22T16:29:51.677Z</time></trkpt><trkpt lat="43.15844" lon="2.2560883"><ele>301.5</ele><time>2026-03-22T16:29:52.677Z</time></trkpt><trkpt lat="43.15853" lon="2.2562217"><ele>303.0</ele><time>2026-03-22T16:29:53.675Z</time></trkpt><trkpt lat="43.1586417" lon="2.25633"><ele>303.0</ele><time>2026-03-22T16:29:54.675Z</time></trkpt><trkpt lat="43.1587617" lon="2.2564317"><ele>303.0</ele><time>2026-03-22T16:29:55.674Z</time></trkpt><trkpt lat="43.1588867" lon="2.2565367"><ele>303.0</ele><time>2026-03-22T16:29:56.675Z</time></trkpt><trkpt lat="43.15901" lon="2.2566433"><ele>303.0</ele><time>2026-03-22T16:29:57.674Z</time></trkpt><trkpt lat="43.15913" lon="2.256745"><ele>303.75</ele><time>2026-03-22T16:29:58.675Z</time></trkpt><trkpt lat="43.15924" lon="2.2568633"><ele>304.5</ele><time>2026-03-22T16:29:59.675Z</time></trkpt><trkpt lat="43.159335" lon="2.2570083"><ele>305.25</ele><time>2026-03-22T16:30:00.675Z</time></trkpt><trkpt lat="43.15941" lon="2.2571833"><ele>306.0</ele><time>2026-03-22T16:30:01.676Z</time></trkpt><trkpt lat="43.1594667" lon="2.2573733"><ele>306.0</ele><time>2026-03-22T16:30:02.674Z</time></trkpt><trkpt lat="43.159515" lon="2.2575767"><ele>306.0</ele><time>2026-03-22T16:30:03.675Z</time></trkpt><trkpt lat="43.1595617" lon="2.2577733"><ele>306.0</ele><time>2026-03-22T16:30:04.673Z</time></trkpt><trkpt lat="43.1596067" lon="2.25796"><ele>304.0</ele><time>2026-03-22T16:30:05.676Z</time></trkpt><trkpt lat="43.159655" lon="2.2581417"><ele>302.0</ele><time>2026-03-22T16:30:06.676Z</time></trkpt><trkpt lat="43.1597033" lon="2.258315"><ele>300.0</ele><time>2026-03-22T16:30:07.676Z</time></trkpt><trkpt lat="43.159755" lon="2.25848"><ele>298.0</ele><time>2026-03-22T16:30:08.675Z</time></trkpt><trkpt lat="43.1598167" lon="2.2586317"><ele>299.2</ele><time>2026-03-22T16:30:09.676Z</time></trkpt><trkpt lat="43.1598783" lon="2.2587733"><ele>300.4</ele><time>2026-03-22T16:30:10.674Z</time></trkpt><trkpt lat="43.1599233" lon="2.2589133"><ele>301.59999999999997</ele><time>2026-03-22T16:30:11.673Z</time></trkpt><trkpt lat="43.1599433" lon="2.259055"><ele>302.8</ele><time>2026-03-22T16:30:12.676Z</time></trkpt><trkpt lat="43.15993" lon="2.2591983"><ele>304.0</ele><time>2026-03-22T16:30:13.675Z</time></trkpt><trkpt lat="43.1598833" lon="2.2593217"><ele>303.16666666666663</ele><time>2026-03-22T16:30:14.674Z</time></trkpt><trkpt lat="43.159825" lon="2.25943"><ele>302.3333333333333</ele><time>2026-03-22T16:30:15.672Z</time></trkpt><trkpt lat="43.15978" lon="2.2595367"><ele>301.5</ele><time>2026-03-22T16:30:16.68Z</time></trkpt><trkpt lat="43.1597517" lon="2.25964"><ele>300.6666666666667</ele><time>2026-03-22T16:30:17.674Z</time></trkpt><trkpt lat="43.1597633" lon="2.2597383"><ele>299.83333333333337</ele><time>2026-03-22T16:30:18.674Z</time></trkpt><trkpt lat="43.1598167" lon="2.2598233"><ele>299.0</ele><time>2026-03-22T16:30:19.675Z</time></trkpt><trkpt lat="43.159905" lon="2.259875"><ele>299.0</ele><time>2026-03-22T16:30:20.675Z</time></trkpt><trkpt lat="43.1599867" lon="2.2599267"><ele>299.0</ele><time>2026-03-22T16:30:21.674Z</time></trkpt><trkpt lat="43.1600967" lon="2.2599383"><ele>299.0</ele><time>2026-03-22T16:30:22.675Z</time></trkpt><trkpt lat="43.1601883" lon="2.2600017"><ele>299.0</ele><time>2026-03-22T16:30:23.675Z</time></trkpt><trkpt lat="43.1602533" lon="2.2601183"><ele>299.0</ele><time>2026-03-22T16:30:24.674Z</time></trkpt><trkpt lat="43.1603017" lon="2.2602717"><ele>299.0</ele><time>2026-03-22T16:30:25.675Z</time></trkpt><trkpt lat="43.160325" lon="2.2604417"><ele>299.0</ele><time>2026-03-22T16:30:26.673Z</time></trkpt><trkpt lat="43.1603267" lon="2.2606117"><ele>299.0</ele><time>2026-03-22T16:30:27.675Z</time></trkpt><trkpt lat="43.1603217" lon="2.2607767"><ele>299.0</ele><time>2026-03-22T16:30:28.675Z</time></trkpt><trkpt lat="43.1603083" lon="2.2609217"><ele>297.33333333333337</ele><time>2026-03-22T16:30:29.674Z</time></trkpt><trkpt lat="43.1602883" lon="2.2610483"><ele>295.6666666666667</ele><time>2026-03-22T16:30:30.676Z</time></trkpt><trkpt lat="43.1602717" lon="2.2611633"><ele>294.0</ele><time>2026-03-22T16:30:31.676Z</time></trkpt><trkpt lat="43.1602617" lon="2.2612683"><ele>292.3333333333333</ele><time>2026-03-22T16:30:32.675Z</time></trkpt><trkpt lat="43.160265" lon="2.2613717"><ele>290.66666666666663</ele><time>2026-03-22T16:30:33.678Z</time></trkpt><trkpt lat="43.1602817" lon="2.2614883"><ele>289.0</ele><time>2026-03-22T16:30:34.675Z</time></trkpt><trkpt lat="43.160305" lon="2.2616067"><ele>288.16666666666663</ele><time>2026-03-22T16:30:35.675Z</time></trkpt><trkpt lat="43.1603267" lon="2.2617167"><ele>287.3333333333333</ele><time>2026-03-22T16:30:36.674Z</time></trkpt><trkpt lat="43.1603617" lon="2.26181"><ele>286.5</ele><time>2026-03-22T16:30:37.676Z</time></trkpt><trkpt lat="43.1604067" lon="2.2618817"><ele>285.6666666666667</ele><time>2026-03-22T16:30:38.676Z</time></trkpt><trkpt lat="43.1604817" lon="2.2619333"><ele>284.83333333333337</ele><time>2026-03-22T16:30:39.677Z</time></trkpt><trkpt lat="43.1605667" lon="2.2619933"><ele>284.0</ele><time>2026-03-22T16:30:40.674Z</time></trkpt><trkpt lat="43.160665" lon="2.26207"><ele>284.5</ele><time>2026-03-22T16:30:41.675Z</time></trkpt><trkpt lat="43.1607633" lon="2.262155"><ele>285.0</ele><time>2026-03-22T16:30:42.673Z</time></trkpt><trkpt lat="43.1608583" lon="2.262255"><ele>285.5</ele><time>2026-03-22T16:30:43.674Z</time></trkpt><trkpt lat="43.1609467" lon="2.262365"><ele>286.0</ele><time>2026-03-22T16:30:44.673Z</time></trkpt><trkpt lat="43.1610333" lon="2.2624883"><ele>286.0</ele><time>2026-03-22T16:30:45.673Z</time></trkpt><trkpt lat="43.1611167" lon="2.2626133"><ele>286.0</ele><time>2026-03-22T16:30:46.676Z</time></trkpt><trkpt lat="43.1611883" lon="2.262735"><ele>286.0</ele><time>2026-03-22T16:30:47.674Z</time></trkpt><trkpt lat="43.1612583" lon="2.2628583"><ele>286.0</ele><time>2026-03-22T16:30:48.674Z</time></trkpt><trkpt lat="43.161325" lon="2.262985"><ele>286.0</ele><time>2026-03-22T16:30:49.673Z</time></trkpt><trkpt lat="43.1614083" lon="2.26311"><ele>286.0</ele><time>2026-03-22T16:30:50.677Z</time></trkpt><trkpt lat="43.1614933" lon="2.26323"><ele>286.0</ele><time>2026-03-22T16:30:51.672Z</time></trkpt><trkpt lat="43.1615717" lon="2.26334"><ele>286.0</ele><time>2026-03-22T16:30:52.673Z</time></trkpt><trkpt lat="43.1616683" lon="2.2634517"><ele>284.0</ele><time>2026-03-22T16:30:53.674Z</time></trkpt><trkpt lat="43.16177" lon="2.2635517"><ele>282.0</ele><time>2026-03-22T16:30:54.675Z</time></trkpt><trkpt lat="43.1618717" lon="2.263645"><ele>280.0</ele><time>2026-03-22T16:30:55.673Z</time></trkpt><trkpt lat="43.1619817" lon="2.26372"><ele>278.0</ele><time>2026-03-22T16:30:56.674Z</time></trkpt><trkpt lat="43.1620933" lon="2.26378"><ele>278.0</ele><time>2026-03-22T16:30:57.676Z</time></trkpt><trkpt lat="43.1622083" lon="2.263815"><ele>278.0</ele><time>2026-03-22T16:30:58.673Z</time></trkpt><trkpt lat="43.1623217" lon="2.263825"><ele>278.0</ele><time>2026-03-22T16:30:59.674Z</time></trkpt><trkpt lat="43.162425" lon="2.2638267"><ele>278.0</ele><time>2026-03-22T16:31:00.675Z</time></trkpt><trkpt lat="43.1625233" lon="2.2638233"><ele>278.0</ele><time>2026-03-22T16:31:01.676Z</time></trkpt><trkpt lat="43.1626167" lon="2.2638183"><ele>277.2</ele><time>2026-03-22T16:31:02.675Z</time></trkpt><trkpt lat="43.162705" lon="2.2638217"><ele>276.4</ele><time>2026-03-22T16:31:03.676Z</time></trkpt><trkpt lat="43.162795" lon="2.263865"><ele>275.59999999999997</ele><time>2026-03-22T16:31:04.675Z</time></trkpt><trkpt lat="43.162875" lon="2.2639317"><ele>274.8</ele><time>2026-03-22T16:31:05.673Z</time></trkpt><trkpt lat="43.1629483" lon="2.2640083"><ele>274.0</ele><time>2026-03-22T16:31:06.677Z</time></trkpt><trkpt lat="43.163005" lon="2.2641033"><ele>274.0</ele><time>2026-03-22T16:31:07.675Z</time></trkpt><trkpt lat="43.163055" lon="2.264205"><ele>274.0</ele><time>2026-03-22T16:31:08.675Z</time></trkpt><trkpt lat="43.1630983" lon="2.2643117"><ele>274.0</ele><time>2026-03-22T16:31:09.676Z</time></trkpt><trkpt lat="43.163155" lon="2.264415"><ele>274.0</ele><time>2026-03-22T16:31:10.675Z</time></trkpt><trkpt lat="43.1632217" lon="2.2645083"><ele>274.0</ele><time>2026-03-22T16:31:11.674Z</time></trkpt><trkpt lat="43.1632883" lon="2.2646"><ele>272.0</ele><time>2026-03-22T16:31:12.675Z</time></trkpt><trkpt lat="43.1633533" lon="2.26469"><ele>270.0</ele><time>2026-03-22T16:31:13.676Z</time></trkpt><trkpt lat="43.1634233" lon="2.26478"><ele>268.0</ele><time>2026-03-22T16:31:14.674Z</time></trkpt><trkpt lat="43.1634933" lon="2.2648683"><ele>266.0</ele><time>2026-03-22T16:31:15.676Z</time></trkpt><trkpt lat="43.1635633" lon="2.2649583"><ele>264.0</ele><time>2026-03-22T16:31:16.674Z</time></trkpt><trkpt lat="43.1636317" lon="2.26505"><ele>264.0</ele><time>2026-03-22T16:31:17.676Z</time></trkpt><trkpt lat="43.1636983" lon="2.2651483"><ele>264.0</ele><time>2026-03-22T16:31:18.675Z</time></trkpt><trkpt lat="43.16376" lon="2.2652633"><ele>264.0</ele><time>2026-03-22T16:31:19.674Z</time></trkpt><trkpt lat="43.1638183" lon="2.265395"><ele>264.0</ele><time>2026-03-22T16:31:20.674Z</time></trkpt><trkpt lat="43.1638667" lon="2.26553"><ele>264.0</ele><time>2026-03-22T16:31:21.675Z</time></trkpt><trkpt lat="43.1639233" lon="2.265665"><ele>264.59999999999997</ele><time>2026-03-22T16:31:22.673Z</time></trkpt><trkpt lat="43.16397" lon="2.2658033"><ele>265.2</ele><time>2026-03-22T16:31:23.674Z</time></trkpt><trkpt lat="43.164015" lon="2.2659417"><ele>265.79999999999995</ele><time>2026-03-22T16:31:24.675Z</time></trkpt><trkpt lat="43.1640533" lon="2.2660817"><ele>266.4</ele><time>2026-03-22T16:31:25.676Z</time></trkpt><trkpt lat="43.16408" lon="2.266215"><ele>267.0</ele><time>2026-03-22T16:31:26.676Z</time></trkpt><trkpt lat="43.1640883" lon="2.2663433"><ele>266.2</ele><time>2026-03-22T16:31:27.674Z</time></trkpt><trkpt lat="43.1640833" lon="2.2664817"><ele>265.4</ele><time>2026-03-22T16:31:28.674Z</time></trkpt><trkpt lat="43.1640633" lon="2.26663"><ele>264.6</ele><time>2026-03-22T16:31:29.679Z</time></trkpt><trkpt lat="43.1640367" lon="2.2667833"><ele>263.8</ele><time>2026-03-22T16:31:30.674Z</time></trkpt><trkpt lat="43.1640083" lon="2.26694"><ele>263.0</ele><time>2026-03-22T16:31:31.674Z</time></trkpt><trkpt lat="43.16398" lon="2.2670967"><ele>263.0</ele><time>2026-03-22T16:31:32.676Z</time></trkpt><trkpt lat="43.1639517" lon="2.26725"><ele>263.0</ele><time>2026-03-22T16:31:33.675Z</time></trkpt><trkpt lat="43.1639267" lon="2.267395"><ele>263.0</ele><time>2026-03-22T16:31:34.674Z</time></trkpt><trkpt lat="43.1639" lon="2.2675283"><ele>263.0</ele><time>2026-03-22T16:31:35.674Z</time></trkpt><trkpt lat="43.16388" lon="2.2676717"><ele>263.0</ele><time>2026-03-22T16:31:36.676Z</time></trkpt><trkpt lat="43.163875" lon="2.2678233"><ele>261.2</ele><time>2026-03-22T16:31:37.676Z</time></trkpt><trkpt lat="43.163875" lon="2.2679733"><ele>259.4</ele><time>2026-03-22T16:31:38.674Z</time></trkpt><trkpt lat="43.163875" lon="2.26812"><ele>257.59999999999997</ele><time>2026-03-22T16:31:39.676Z</time></trkpt><trkpt lat="43.1638783" lon="2.2682633"><ele>255.79999999999998</ele><time>2026-03-22T16:31:40.675Z</time></trkpt><trkpt lat="43.1638933" lon="2.2683917"><ele>254.0</ele><time>2026-03-22T16:31:41.672Z</time></trkpt><trkpt lat="43.1639117" lon="2.2685083"><ele>252.6</ele><time>2026-03-22T16:31:42.673Z</time></trkpt><trkpt lat="43.16393" lon="2.2686333"><ele>251.2</ele><time>2026-03-22T16:31:43.673Z</time></trkpt><trkpt lat="43.1639533" lon="2.2687683"><ele>249.79999999999998</ele><time>2026-03-22T16:31:44.674Z</time></trkpt><trkpt lat="43.1639833" lon="2.26891"><ele>248.39999999999998</ele><time>2026-03-22T16:31:45.673Z</time></trkpt><trkpt lat="43.16401" lon="2.2690617"><ele>247.0</ele><time>2026-03-22T16:31:46.675Z</time></trkpt><trkpt lat="43.1640283" lon="2.2692183"><ele>242.6</ele><time>2026-03-22T16:31:47.674Z</time></trkpt><trkpt lat="43.164035" lon="2.269375"><ele>238.2</ele><time>2026-03-22T16:31:48.673Z</time></trkpt><trkpt lat="43.1640483" lon="2.26953"><ele>233.8</ele><time>2026-03-22T16:31:49.672Z</time></trkpt><trkpt lat="43.164065" lon="2.2696817"><ele>229.4</ele><time>2026-03-22T16:31:50.674Z</time></trkpt><trkpt lat="43.1640833" lon="2.269825"><ele>225.0</ele><time>2026-03-22T16:31:51.674Z</time></trkpt><trkpt lat="43.1640983" lon="2.2699617"><ele>224.33333333333334</ele><time>2026-03-22T16:31:52.672Z</time></trkpt><trkpt lat="43.1641133" lon="2.27008"><ele>223.66666666666669</ele><time>2026-03-22T16:31:53.672Z</time></trkpt><trkpt lat="43.1641283" lon="2.27018"><ele>223.0</ele><time>2026-03-22T16:31:54.673Z</time></trkpt><trkpt lat="43.164165" lon="2.2703167"><ele>222.33333333333334</ele><time>2026-03-22T16:31:56.674Z</time></trkpt><trkpt lat="43.164215" lon="2.270415"><ele>221.66666666666669</ele><time>2026-03-22T16:31:58.674Z</time></trkpt><trkpt lat="43.1642617" lon="2.2704733"><ele>221.0</ele><time>2026-03-22T16:31:59.673Z</time></trkpt><trkpt lat="43.1643233" lon="2.2705317"><ele>221.0</ele><time>2026-03-22T16:32:00.674Z</time></trkpt><trkpt lat="43.1643917" lon="2.2706"><ele>221.00000000000003</ele><time>2026-03-22T16:32:01.676Z</time></trkpt><trkpt lat="43.16446" lon="2.27068"><ele>221.00000000000003</ele><time>2026-03-22T16:32:02.675Z</time></trkpt><trkpt lat="43.1645267" lon="2.27077"><ele>221.0</ele><time>2026-03-22T16:32:03.676Z</time></trkpt><trkpt lat="43.1645917" lon="2.2708667"><ele>221.0</ele><time>2026-03-22T16:32:04.675Z</time></trkpt><trkpt lat="43.1646533" lon="2.2709617"><ele>221.00000000000003</ele><time>2026-03-22T16:32:05.676Z</time></trkpt><trkpt lat="43.1647017" lon="2.2710583"><ele>221.0</ele><time>2026-03-22T16:32:06.674Z</time></trkpt><trkpt lat="43.1647283" lon="2.2711633"><ele>221.0</ele><time>2026-03-22T16:32:07.676Z</time></trkpt><trkpt lat="43.164735" lon="2.27127"><ele>221.0</ele><time>2026-03-22T16:32:08.673Z</time></trkpt><trkpt lat="43.1647233" lon="2.2713867"><ele>221.00000000000003</ele><time>2026-03-22T16:32:09.675Z</time></trkpt><trkpt lat="43.1646967" lon="2.2715083"><ele>221.0</ele><time>2026-03-22T16:32:10.673Z</time></trkpt><trkpt lat="43.1646683" lon="2.2716317"><ele>220.8</ele><time>2026-03-22T16:32:11.675Z</time></trkpt><trkpt lat="43.1646467" lon="2.2717567"><ele>220.60000000000002</ele><time>2026-03-22T16:32:12.672Z</time></trkpt><trkpt lat="43.16463" lon="2.2718883"><ele>220.4</ele><time>2026-03-22T16:32:13.675Z</time></trkpt><trkpt lat="43.1646133" lon="2.2720233"><ele>220.2</ele><time>2026-03-22T16:32:14.675Z</time></trkpt><trkpt lat="43.1646017" lon="2.2721617"><ele>220.0</ele><time>2026-03-22T16:32:15.674Z</time></trkpt><trkpt lat="43.1645933" lon="2.2722917"><ele>219.99999999999997</ele><time>2026-03-22T16:32:16.673Z</time></trkpt><trkpt lat="43.1645983" lon="2.2724117"><ele>220.0</ele><time>2026-03-22T16:32:17.672Z</time></trkpt><trkpt lat="43.1645967" lon="2.2725217"><ele>220.0</ele><time>2026-03-22T16:32:18.675Z</time></trkpt><trkpt lat="43.1645883" lon="2.2726233"><ele>220.0</ele><time>2026-03-22T16:32:19.676Z</time></trkpt><trkpt lat="43.1645717" lon="2.2727167"><ele>220.0</ele><time>2026-03-22T16:32:20.674Z</time></trkpt><trkpt lat="43.1645533" lon="2.2728033"><ele>219.99999999999997</ele><time>2026-03-22T16:32:21.673Z</time></trkpt><trkpt lat="43.164545" lon="2.27289"><ele>220.0</ele><time>2026-03-22T16:32:22.674Z</time></trkpt><trkpt lat="43.1645817" lon="2.273055"><ele>219.4</ele><time>2026-03-22T16:32:24.674Z</time></trkpt><trkpt lat="43.1646417" lon="2.273115"><ele>218.8</ele><time>2026-03-22T16:32:25.674Z</time></trkpt><trkpt lat="43.16472" lon="2.27316"><ele>218.2</ele><time>2026-03-22T16:32:26.676Z</time></trkpt><trkpt lat="43.1648067" lon="2.2732117"><ele>217.6</ele><time>2026-03-22T16:32:27.677Z</time></trkpt><trkpt lat="43.1648983" lon="2.2732717"><ele>217.0</ele><time>2026-03-22T16:32:28.674Z</time></trkpt><trkpt lat="43.16499" lon="2.2733333"><ele>218.49999999999997</ele><time>2026-03-22T16:32:29.677Z</time></trkpt><trkpt lat="43.16508" lon="2.2733917"><ele>220.0</ele><time>2026-03-22T16:32:30.674Z</time></trkpt><trkpt lat="43.1651633" lon="2.27345"><ele>221.5</ele><time>2026-03-22T16:32:31.673Z</time></trkpt><trkpt lat="43.16524" lon="2.273515"><ele>223.0</ele><time>2026-03-22T16:32:32.676Z</time></trkpt><trkpt lat="43.1653067" lon="2.273585"><ele>224.49999999999997</ele><time>2026-03-22T16:32:33.675Z</time></trkpt><trkpt lat="43.1653583" lon="2.27366"><ele>226.0</ele><time>2026-03-22T16:32:34.677Z</time></trkpt><trkpt lat="43.1653983" lon="2.2737333"><ele>225.99999999999997</ele><time>2026-03-22T16:32:35.676Z</time></trkpt><trkpt lat="43.1654333" lon="2.273815"><ele>226.0</ele><time>2026-03-22T16:32:36.675Z</time></trkpt><trkpt lat="43.165465" lon="2.27391"><ele>226.0</ele><time>2026-03-22T16:32:37.674Z</time></trkpt><trkpt lat="43.1655" lon="2.2740133"><ele>226.0</ele><time>2026-03-22T16:32:38.674Z</time></trkpt><trkpt lat="43.1655383" lon="2.27413"><ele>225.99999999999997</ele><time>2026-03-22T16:32:39.675Z</time></trkpt><trkpt lat="43.1655817" lon="2.274255"><ele>226.0</ele><time>2026-03-22T16:32:40.675Z</time></trkpt><trkpt lat="43.165635" lon="2.2743783"><ele>224.4</ele><time>2026-03-22T16:32:41.674Z</time></trkpt><trkpt lat="43.165695" lon="2.2745"><ele>222.8</ele><time>2026-03-22T16:32:42.674Z</time></trkpt><trkpt lat="43.1657567" lon="2.2746233"><ele>221.20000000000002</ele><time>2026-03-22T16:32:43.673Z</time></trkpt><trkpt lat="43.165815" lon="2.2747483"><ele>219.60000000000002</ele><time>2026-03-22T16:32:44.674Z</time></trkpt><trkpt lat="43.1658683" lon="2.27489"><ele>218.0</ele><time>2026-03-22T16:32:45.674Z</time></trkpt><trkpt lat="43.16591" lon="2.27504"><ele>218.0</ele><time>2026-03-22T16:32:46.672Z</time></trkpt><trkpt lat="43.16594" lon="2.2751967"><ele>218.0</ele><time>2026-03-22T16:32:47.673Z</time></trkpt><trkpt lat="43.1659767" lon="2.2753467"><ele>218.0</ele><time>2026-03-22T16:32:48.675Z</time></trkpt><trkpt lat="43.1660183" lon="2.2754883"><ele>218.0</ele><time>2026-03-22T16:32:49.673Z</time></trkpt><trkpt lat="43.166075" lon="2.2756233"><ele>218.5</ele><time>2026-03-22T16:32:50.674Z</time></trkpt><trkpt lat="43.1661533" lon="2.2757467"><ele>219.0</ele><time>2026-03-22T16:32:51.674Z</time></trkpt><trkpt lat="43.16625" lon="2.2758567"><ele>219.5</ele><time>2026-03-22T16:32:52.673Z</time></trkpt><trkpt lat="43.166365" lon="2.2759433"><ele>220.0</ele><time>2026-03-22T16:32:53.673Z</time></trkpt><trkpt lat="43.16649" lon="2.2759967"><ele>217.25</ele><time>2026-03-22T16:32:54.675Z</time></trkpt><trkpt lat="43.1666183" lon="2.2760083"><ele>214.5</ele><time>2026-03-22T16:32:55.674Z</time></trkpt><trkpt lat="43.166745" lon="2.2759817"><ele>211.75</ele><time>2026-03-22T16:32:56.673Z</time></trkpt><trkpt lat="43.166865" lon="2.2759167"><ele>209.0</ele><time>2026-03-22T16:32:57.673Z</time></trkpt><trkpt lat="43.166985" lon="2.27583"><ele>209.0</ele><time>2026-03-22T16:32:58.678Z</time></trkpt><trkpt lat="43.1671083" lon="2.2757367"><ele>209.0</ele><time>2026-03-22T16:32:59.674Z</time></trkpt><trkpt lat="43.1672317" lon="2.2756367"><ele>209.0</ele><time>2026-03-22T16:33:00.673Z</time></trkpt><trkpt lat="43.1673567" lon="2.2755417"><ele>209.0</ele><time>2026-03-22T16:33:01.674Z</time></trkpt><trkpt lat="43.16748" lon="2.2754433"><ele>206.75</ele><time>2026-03-22T16:33:02.673Z</time></trkpt><trkpt lat="43.1676067" lon="2.27535"><ele>204.5</ele><time>2026-03-22T16:33:03.674Z</time></trkpt><trkpt lat="43.1677317" lon="2.2752617"><ele>202.25</ele><time>2026-03-22T16:33:04.675Z</time></trkpt><trkpt lat="43.1678533" lon="2.275175"><ele>200.0</ele><time>2026-03-22T16:33:05.675Z</time></trkpt><trkpt lat="43.16797" lon="2.2750917"><ele>200.0</ele><time>2026-03-22T16:33:06.675Z</time></trkpt><trkpt lat="43.1680833" lon="2.275015"><ele>200.0</ele><time>2026-03-22T16:33:07.675Z</time></trkpt><trkpt lat="43.1681967" lon="2.274945"><ele>200.0</ele><time>2026-03-22T16:33:08.675Z</time></trkpt><trkpt lat="43.168315" lon="2.274885"><ele>200.0</ele><time>2026-03-22T16:33:09.674Z</time></trkpt><trkpt lat="43.16844" lon="2.2748433"><ele>200.25</ele><time>2026-03-22T16:33:10.673Z</time></trkpt><trkpt lat="43.1685733" lon="2.2748233"><ele>200.5</ele><time>2026-03-22T16:33:11.674Z</time></trkpt><trkpt lat="43.1687083" lon="2.2748133"><ele>200.75</ele><time>2026-03-22T16:33:12.675Z</time></trkpt><trkpt lat="43.1688417" lon="2.2748033"><ele>201.0</ele><time>2026-03-22T16:33:13.675Z</time></trkpt><trkpt lat="43.1689783" lon="2.2747983"><ele>199.5</ele><time>2026-03-22T16:33:14.673Z</time></trkpt><trkpt lat="43.1691133" lon="2.2748117"><ele>198.0</ele><time>2026-03-22T16:33:15.673Z</time></trkpt><trkpt lat="43.1692483" lon="2.27484"><ele>196.5</ele><time>2026-03-22T16:33:16.673Z</time></trkpt><trkpt lat="43.1693817" lon="2.2748667"><ele>195.0</ele><time>2026-03-22T16:33:17.675Z</time></trkpt><trkpt lat="43.1695117" lon="2.2748633"><ele>195.0</ele><time>2026-03-22T16:33:18.674Z</time></trkpt><trkpt lat="43.1696317" lon="2.274835"><ele>195.0</ele><time>2026-03-22T16:33:19.672Z</time></trkpt><trkpt lat="43.1697483" lon="2.2748"><ele>195.0</ele><time>2026-03-22T16:33:20.674Z</time></trkpt><trkpt lat="43.1698667" lon="2.274785"><ele>195.0</ele><time>2026-03-22T16:33:21.675Z</time></trkpt><trkpt lat="43.1699917" lon="2.2748133"><ele>193.5</ele><time>2026-03-22T16:33:22.673Z</time></trkpt><trkpt lat="43.1701117" lon="2.274875"><ele>192.0</ele><time>2026-03-22T16:33:23.676Z</time></trkpt><trkpt lat="43.170225" lon="2.27496"><ele>190.5</ele><time>2026-03-22T16:33:24.673Z</time></trkpt><trkpt lat="43.1703233" lon="2.2750683"><ele>189.0</ele><time>2026-03-22T16:33:25.675Z</time></trkpt><trkpt lat="43.1704083" lon="2.2751967"><ele>189.0</ele><time>2026-03-22T16:33:26.673Z</time></trkpt><trkpt lat="43.1704783" lon="2.2753333"><ele>189.0</ele><time>2026-03-22T16:33:27.674Z</time></trkpt><trkpt lat="43.1705417" lon="2.275465"><ele>189.0</ele><time>2026-03-22T16:33:28.674Z</time></trkpt><trkpt lat="43.17062" lon="2.2755767"><ele>189.0</ele><time>2026-03-22T16:33:29.675Z</time></trkpt><trkpt lat="43.1707233" lon="2.275655"><ele>187.75</ele><time>2026-03-22T16:33:30.676Z</time></trkpt><trkpt lat="43.17085" lon="2.2757067"><ele>186.5</ele><time>2026-03-22T16:33:31.676Z</time></trkpt><trkpt lat="43.1709917" lon="2.2757417"><ele>185.25</ele><time>2026-03-22T16:33:32.676Z</time></trkpt><trkpt lat="43.1711367" lon="2.275765"><ele>184.0</ele><time>2026-03-22T16:33:33.675Z</time></trkpt><trkpt lat="43.1712717" lon="2.275755"><ele>184.0</ele><time>2026-03-22T16:33:34.675Z</time></trkpt><trkpt lat="43.171395" lon="2.2757217"><ele>184.0</ele><time>2026-03-22T16:33:35.676Z</time></trkpt><trkpt lat="43.1715167" lon="2.275665"><ele>184.0</ele><time>2026-03-22T16:33:36.678Z</time></trkpt><trkpt lat="43.1716333" lon="2.275615"><ele>184.0</ele><time>2026-03-22T16:33:37.677Z</time></trkpt><trkpt lat="43.1717467" lon="2.2755883"><ele>182.79999999999998</ele><time>2026-03-22T16:33:38.675Z</time></trkpt><trkpt lat="43.17186" lon="2.275605"><ele>181.6</ele><time>2026-03-22T16:33:39.676Z</time></trkpt><trkpt lat="43.1719583" lon="2.2756583"><ele>180.4</ele><time>2026-03-22T16:33:40.673Z</time></trkpt><trkpt lat="43.1720417" lon="2.2757483"><ele>179.2</ele><time>2026-03-22T16:33:41.673Z</time></trkpt><trkpt lat="43.1721017" lon="2.2758733"><ele>178.0</ele><time>2026-03-22T16:33:42.673Z</time></trkpt><trkpt lat="43.17214" lon="2.2760317"><ele>178.0</ele><time>2026-03-22T16:33:43.673Z</time></trkpt><trkpt lat="43.1721617" lon="2.2762117"><ele>178.0</ele><time>2026-03-22T16:33:44.674Z</time></trkpt><trkpt lat="43.1721683" lon="2.2764017"><ele>178.0</ele><time>2026-03-22T16:33:45.672Z</time></trkpt><trkpt lat="43.1721683" lon="2.2766"><ele>178.0</ele><time>2026-03-22T16:33:46.673Z</time></trkpt><trkpt lat="43.1721567" lon="2.2768017"><ele>178.5</ele><time>2026-03-22T16:33:47.675Z</time></trkpt><trkpt lat="43.172135" lon="2.277005"><ele>179.0</ele><time>2026-03-22T16:33:48.673Z</time></trkpt><trkpt lat="43.1721067" lon="2.2772"><ele>179.5</ele><time>2026-03-22T16:33:49.673Z</time></trkpt><trkpt lat="43.1720783" lon="2.27739"><ele>180.0</ele><time>2026-03-22T16:33:50.675Z</time></trkpt><trkpt lat="43.1720567" lon="2.277575"><ele>179.0</ele><time>2026-03-22T16:33:51.672Z</time></trkpt><trkpt lat="43.1720433" lon="2.2777583"><ele>178.0</ele><time>2026-03-22T16:33:52.673Z</time></trkpt><trkpt lat="43.1720567" lon="2.2779383"><ele>177.0</ele><time>2026-03-22T16:33:53.672Z</time></trkpt><trkpt lat="43.172105" lon="2.27811"><ele>176.0</ele><time>2026-03-22T16:33:54.674Z</time></trkpt><trkpt lat="43.1721867" lon="2.2782633"><ele>175.66666666666666</ele><time>2026-03-22T16:33:55.675Z</time></trkpt><trkpt lat="43.172295" lon="2.2784033"><ele>175.33333333333334</ele><time>2026-03-22T16:33:56.672Z</time></trkpt><trkpt lat="43.1724133" lon="2.278535"><ele>175.0</ele><time>2026-03-22T16:33:57.674Z</time></trkpt><trkpt lat="43.1725367" lon="2.2786617"><ele>173.0</ele><time>2026-03-22T16:33:58.674Z</time></trkpt><trkpt lat="43.1726583" lon="2.2787833"><ele>171.0</ele><time>2026-03-22T16:33:59.678Z</time></trkpt><trkpt lat="43.1727783" lon="2.2788933"><ele>169.0</ele><time>2026-03-22T16:34:00.675Z</time></trkpt><trkpt lat="43.1728967" lon="2.2789933"><ele>167.0</ele><time>2026-03-22T16:34:01.675Z</time></trkpt><trkpt lat="43.1730133" lon="2.2791033"><ele>167.0</ele><time>2026-03-22T16:34:02.675Z</time></trkpt><trkpt lat="43.1731183" lon="2.2792383"><ele>167.0</ele><time>2026-03-22T16:34:03.675Z</time></trkpt><trkpt lat="43.1732" lon="2.27941"><ele>167.0</ele><time>2026-03-22T16:34:04.677Z</time></trkpt><trkpt lat="43.1732483" lon="2.2796017"><ele>167.0</ele><time>2026-03-22T16:34:05.676Z</time></trkpt><trkpt lat="43.1732833" lon="2.2798067"><ele>163.0</ele><time>2026-03-22T16:34:06.674Z</time></trkpt><trkpt lat="43.1733067" lon="2.28003"><ele>159.0</ele><time>2026-03-22T16:34:07.675Z</time></trkpt><trkpt lat="43.173325" lon="2.2802483"><ele>155.0</ele><time>2026-03-22T16:34:08.676Z</time></trkpt><trkpt lat="43.1733267" lon="2.2804717"><ele>154.33333333333331</ele><time>2026-03-22T16:34:09.674Z</time></trkpt><trkpt lat="43.1733167" lon="2.28068"><ele>153.66666666666666</ele><time>2026-03-22T16:34:10.673Z</time></trkpt><trkpt lat="43.1732967" lon="2.280885"><ele>153.0</ele><time>2026-03-22T16:34:11.674Z</time></trkpt><trkpt lat="43.173275" lon="2.2810917"><ele>153.0</ele><time>2026-03-22T16:34:12.674Z</time></trkpt><trkpt lat="43.1732533" lon="2.28129"><ele>153.0</ele><time>2026-03-22T16:34:13.672Z</time></trkpt><trkpt lat="43.1732333" lon="2.2814867"><ele>153.0</ele><time>2026-03-22T16:34:14.674Z</time></trkpt><trkpt lat="43.1732183" lon="2.2816767"><ele>153.0</ele><time>2026-03-22T16:34:15.673Z</time></trkpt><trkpt lat="43.1731983" lon="2.2818617"><ele>154.0</ele><time>2026-03-22T16:34:16.673Z</time></trkpt><trkpt lat="43.1731783" lon="2.2820433"><ele>155.0</ele><time>2026-03-22T16:34:17.674Z</time></trkpt><trkpt lat="43.1731583" lon="2.282215"><ele>156.0</ele><time>2026-03-22T16:34:18.673Z</time></trkpt><trkpt lat="43.1731433" lon="2.2823733"><ele>157.0</ele><time>2026-03-22T16:34:19.673Z</time></trkpt><trkpt lat="43.1731283" lon="2.2825183"><ele>157.0</ele><time>2026-03-22T16:34:20.676Z</time></trkpt><trkpt lat="43.1731383" lon="2.2826533"><ele>157.0</ele><time>2026-03-22T16:34:21.673Z</time></trkpt><trkpt lat="43.173165" lon="2.2827833"><ele>157.0</ele><time>2026-03-22T16:34:22.674Z</time></trkpt><trkpt lat="43.173225" lon="2.2829017"><ele>157.0</ele><time>2026-03-22T16:34:23.672Z</time></trkpt><trkpt lat="43.1733133" lon="2.28297"><ele>157.0</ele><time>2026-03-22T16:34:24.674Z</time></trkpt><trkpt lat="43.1734183" lon="2.2830117"><ele>155.4</ele><time>2026-03-22T16:34:25.679Z</time></trkpt><trkpt lat="43.17352" lon="2.2830567"><ele>153.79999999999998</ele><time>2026-03-22T16:34:26.673Z</time></trkpt><trkpt lat="43.1736033" lon="2.2831133"><ele>152.2</ele><time>2026-03-22T16:34:27.673Z</time></trkpt><trkpt lat="43.1736833" lon="2.2831917"><ele>150.6</ele><time>2026-03-22T16:34:28.675Z</time></trkpt><trkpt lat="43.17373" lon="2.2833067"><ele>149.0</ele><time>2026-03-22T16:34:29.673Z</time></trkpt><trkpt lat="43.1737483" lon="2.28345"><ele>148.75</ele><time>2026-03-22T16:34:30.675Z</time></trkpt><trkpt lat="43.1737433" lon="2.28361"><ele>148.5</ele><time>2026-03-22T16:34:31.679Z</time></trkpt><trkpt lat="43.1737517" lon="2.2837917"><ele>148.25</ele><time>2026-03-22T16:34:32.674Z</time></trkpt><trkpt lat="43.1737783" lon="2.283985"><ele>148.0</ele><time>2026-03-22T16:34:33.674Z</time></trkpt><trkpt lat="43.17381" lon="2.2841767"><ele>147.25</ele><time>2026-03-22T16:34:34.673Z</time></trkpt><trkpt lat="43.1738433" lon="2.2843733"><ele>146.5</ele><time>2026-03-22T16:34:35.674Z</time></trkpt><trkpt lat="43.17387" lon="2.2845717"><ele>145.75</ele><time>2026-03-22T16:34:36.674Z</time></trkpt><trkpt lat="43.1739" lon="2.2847683"><ele>145.0</ele><time>2026-03-22T16:34:37.673Z</time></trkpt><trkpt lat="43.1739283" lon="2.284965"><ele>145.0</ele><time>2026-03-22T16:34:38.675Z</time></trkpt><trkpt lat="43.1739633" lon="2.2851617"><ele>145.0</ele><time>2026-03-22T16:34:39.674Z</time></trkpt><trkpt lat="43.17399" lon="2.2853517"><ele>145.0</ele><time>2026-03-22T16:34:40.674Z</time></trkpt><trkpt lat="43.1740167" lon="2.2855283"><ele>145.0</ele><time>2026-03-22T16:34:41.676Z</time></trkpt><trkpt lat="43.1740483" lon="2.2856883"><ele>145.66666666666669</ele><time>2026-03-22T16:34:42.674Z</time></trkpt><trkpt lat="43.1740733" lon="2.2858283"><ele>146.33333333333334</ele><time>2026-03-22T16:34:43.675Z</time></trkpt><trkpt lat="43.1740967" lon="2.2859517"><ele>147.0</ele><time>2026-03-22T16:34:44.674Z</time></trkpt><trkpt lat="43.1741167" lon="2.2860417"><ele>147.66666666666666</ele><time>2026-03-22T16:34:45.672Z</time></trkpt><trkpt lat="43.1741467" lon="2.2861567"><ele>148.33333333333331</ele><time>2026-03-22T16:34:47.673Z</time></trkpt><trkpt lat="43.1741733" lon="2.2862367"><ele>149.0</ele><time>2026-03-22T16:34:49.673Z</time></trkpt><trkpt lat="43.1742533" lon="2.28624"><ele>149.0</ele><time>2026-03-22T16:34:59.675Z</time></trkpt><trkpt lat="43.174335" lon="2.28612"><ele>149.0</ele><time>2026-03-22T16:35:01.675Z</time></trkpt><trkpt lat="43.174375" lon="2.286015"><ele>149.0</ele><time>2026-03-22T16:35:02.675Z</time></trkpt><trkpt lat="43.1744233" lon="2.2858983"><ele>149.0</ele><time>2026-03-22T16:35:03.674Z</time></trkpt><trkpt lat="43.17448" lon="2.28577"><ele>149.0</ele><time>2026-03-22T16:35:04.675Z</time></trkpt><trkpt lat="43.1745383" lon="2.2856283"><ele>149.25</ele><time>2026-03-22T16:35:05.673Z</time></trkpt><trkpt lat="43.1745983" lon="2.2854767"><ele>149.5</ele><time>2026-03-22T16:35:06.674Z</time></trkpt><trkpt lat="43.1746617" lon="2.2853133"><ele>149.75</ele><time>2026-03-22T16:35:07.677Z</time></trkpt><trkpt lat="43.1747367" lon="2.2851533"><ele>150.0</ele><time>2026-03-22T16:35:08.676Z</time></trkpt><trkpt lat="43.1748167" lon="2.284995"><ele>150.0</ele><time>2026-03-22T16:35:09.675Z</time></trkpt><trkpt lat="43.17489" lon="2.2848233"><ele>150.0</ele><time>2026-03-22T16:35:10.676Z</time></trkpt><trkpt lat="43.1749483" lon="2.2846383"><ele>150.0</ele><time>2026-03-22T16:35:11.676Z</time></trkpt><trkpt lat="43.17499" lon="2.284415"><ele>151.0</ele><time>2026-03-22T16:35:12.677Z</time></trkpt><trkpt lat="43.175025" lon="2.2842"><ele>152.0</ele><time>2026-03-22T16:35:13.676Z</time></trkpt><trkpt lat="43.1750617" lon="2.28397"><ele>153.0</ele><time>2026-03-22T16:35:14.677Z</time></trkpt><trkpt lat="43.1751083" lon="2.2837583"><ele>153.33333333333334</ele><time>2026-03-22T16:35:15.676Z</time></trkpt><trkpt lat="43.175155" lon="2.2835433"><ele>153.66666666666669</ele><time>2026-03-22T16:35:16.672Z</time></trkpt><trkpt lat="43.1752083" lon="2.2833267"><ele>154.0</ele><time>2026-03-22T16:35:17.673Z</time></trkpt><trkpt lat="43.1752767" lon="2.2831033"><ele>155.0</ele><time>2026-03-22T16:35:18.673Z</time></trkpt><trkpt lat="43.1753517" lon="2.282875"><ele>156.0</ele><time>2026-03-22T16:35:19.674Z</time></trkpt><trkpt lat="43.1754333" lon="2.2826483"><ele>157.0</ele><time>2026-03-22T16:35:20.676Z</time></trkpt><trkpt lat="43.1755133" lon="2.28242"><ele>156.66666666666669</ele><time>2026-03-22T16:35:21.674Z</time></trkpt><trkpt lat="43.1755867" lon="2.282185"><ele>156.33333333333334</ele><time>2026-03-22T16:35:22.675Z</time></trkpt><trkpt lat="43.1756633" lon="2.281955"><ele>156.0</ele><time>2026-03-22T16:35:23.674Z</time></trkpt><trkpt lat="43.175745" lon="2.2817283"><ele>156.0</ele><time>2026-03-22T16:35:24.675Z</time></trkpt><trkpt lat="43.1758217" lon="2.2815083"><ele>156.0</ele><time>2026-03-22T16:35:25.674Z</time></trkpt><trkpt lat="43.1758917" lon="2.28129"><ele>156.0</ele><time>2026-03-22T16:35:26.675Z</time></trkpt><trkpt lat="43.1759617" lon="2.2810733"><ele>157.33333333333334</ele><time>2026-03-22T16:35:27.676Z</time></trkpt><trkpt lat="43.1760183" lon="2.280845"><ele>158.66666666666669</ele><time>2026-03-22T16:35:28.675Z</time></trkpt><trkpt lat="43.1760683" lon="2.2806067"><ele>160.0</ele><time>2026-03-22T16:35:29.675Z</time></trkpt><trkpt lat="43.1761217" lon="2.2803667"><ele>160.0</ele><time>2026-03-22T16:35:30.676Z</time></trkpt><trkpt lat="43.1761783" lon="2.2801283"><ele>160.0</ele><time>2026-03-22T16:35:31.678Z</time></trkpt><trkpt lat="43.176235" lon="2.2798917"><ele>160.0</ele><time>2026-03-22T16:35:32.678Z</time></trkpt><trkpt lat="43.17629" lon="2.2796667"><ele>159.33333333333334</ele><time>2026-03-22T16:35:33.675Z</time></trkpt><trkpt lat="43.17634" lon="2.2794383"><ele>158.66666666666666</ele><time>2026-03-22T16:35:34.673Z</time></trkpt><trkpt lat="43.1763867" lon="2.2792117"><ele>158.0</ele><time>2026-03-22T16:35:35.675Z</time></trkpt><trkpt lat="43.1764317" lon="2.2789883"><ele>157.75</ele><time>2026-03-22T16:35:36.676Z</time></trkpt><trkpt lat="43.176475" lon="2.2787783"><ele>157.5</ele><time>2026-03-22T16:35:37.675Z</time></trkpt><trkpt lat="43.1765183" lon="2.2785833"><ele>157.25</ele><time>2026-03-22T16:35:38.674Z</time></trkpt><trkpt lat="43.1765583" lon="2.2784067"><ele>157.0</ele><time>2026-03-22T16:35:39.677Z</time></trkpt><trkpt lat="43.1765967" lon="2.2782417"><ele>157.8</ele><time>2026-03-22T16:35:40.676Z</time></trkpt><trkpt lat="43.1766333" lon="2.278095"><ele>158.6</ele><time>2026-03-22T16:35:41.674Z</time></trkpt><trkpt lat="43.1766717" lon="2.2779733"><ele>159.4</ele><time>2026-03-22T16:35:42.673Z</time></trkpt><trkpt lat="43.1767033" lon="2.2778717"><ele>160.20000000000002</ele><time>2026-03-22T16:35:43.674Z</time></trkpt><trkpt lat="43.1767333" lon="2.277785"><ele>161.0</ele><time>2026-03-22T16:35:44.673Z</time></trkpt><trkpt lat="43.17683" lon="2.277695"><ele>161.0</ele><time>2026-03-22T16:35:46.672Z</time></trkpt><trkpt lat="43.1769117" lon="2.2776983"><ele>161.0</ele><time>2026-03-22T16:35:47.674Z</time></trkpt><trkpt lat="43.177005" lon="2.2777183"><ele>161.0</ele><time>2026-03-22T16:35:48.676Z</time></trkpt><trkpt lat="43.1771117" lon="2.2778133"><ele>161.0</ele><time>2026-03-22T16:35:49.675Z</time></trkpt><trkpt lat="43.1772233" lon="2.2779283"><ele>161.0</ele><time>2026-03-22T16:35:50.673Z</time></trkpt><trkpt lat="43.1773367" lon="2.2780283"><ele>160.0</ele><time>2026-03-22T16:35:51.678Z</time></trkpt><trkpt lat="43.177455" lon="2.2781183"><ele>159.0</ele><time>2026-03-22T16:35:52.675Z</time></trkpt><trkpt lat="43.1775867" lon="2.2781883"><ele>158.0</ele><time>2026-03-22T16:35:53.678Z</time></trkpt><trkpt lat="43.1777217" lon="2.27825"><ele>157.0</ele><time>2026-03-22T16:35:54.674Z</time></trkpt><trkpt lat="43.177845" lon="2.2783083"><ele>157.0</ele><time>2026-03-22T16:35:55.675Z</time></trkpt><trkpt lat="43.1779533" lon="2.2783617"><ele>157.0</ele><time>2026-03-22T16:35:56.674Z</time></trkpt><trkpt lat="43.1780467" lon="2.2784317"><ele>157.0</ele><time>2026-03-22T16:35:57.675Z</time></trkpt><trkpt lat="43.1781333" lon="2.278525"><ele>157.0</ele><time>2026-03-22T16:35:58.675Z</time></trkpt><trkpt lat="43.1782017" lon="2.27865"><ele>157.0</ele><time>2026-03-22T16:35:59.675Z</time></trkpt><trkpt lat="43.1782517" lon="2.2788017"><ele>158.25</ele><time>2026-03-22T16:36:00.673Z</time></trkpt><trkpt lat="43.1782867" lon="2.2789833"><ele>159.5</ele><time>2026-03-22T16:36:01.673Z</time></trkpt><trkpt lat="43.1783183" lon="2.27917"><ele>160.75</ele><time>2026-03-22T16:36:02.674Z</time></trkpt><trkpt lat="43.17836" lon="2.2793667"><ele>162.0</ele><time>2026-03-22T16:36:03.673Z</time></trkpt><trkpt lat="43.1784067" lon="2.2795683"><ele>162.33333333333334</ele><time>2026-03-22T16:36:04.676Z</time></trkpt><trkpt lat="43.1784583" lon="2.27977"><ele>162.66666666666669</ele><time>2026-03-22T16:36:05.674Z</time></trkpt><trkpt lat="43.1785217" lon="2.2799667"><ele>163.0</ele><time>2026-03-22T16:36:06.674Z</time></trkpt><trkpt lat="43.1785883" lon="2.28017"><ele>163.0</ele><time>2026-03-22T16:36:07.674Z</time></trkpt><trkpt lat="43.1786633" lon="2.280375"><ele>163.0</ele><time>2026-03-22T16:36:08.674Z</time></trkpt><trkpt lat="43.1787467" lon="2.2805833"><ele>163.0</ele><time>2026-03-22T16:36:09.674Z</time></trkpt><trkpt lat="43.1788267" lon="2.2807817"><ele>162.75</ele><time>2026-03-22T16:36:10.675Z</time></trkpt><trkpt lat="43.1788967" lon="2.2809667"><ele>162.5</ele><time>2026-03-22T16:36:11.682Z</time></trkpt><trkpt lat="43.178965" lon="2.2811367"><ele>162.25</ele><time>2026-03-22T16:36:12.675Z</time></trkpt><trkpt lat="43.1790483" lon="2.2813"><ele>162.0</ele><time>2026-03-22T16:36:13.675Z</time></trkpt><trkpt lat="43.1791467" lon="2.2814583"><ele>163.25</ele><time>2026-03-22T16:36:14.677Z</time></trkpt><trkpt lat="43.1792467" lon="2.2816067"><ele>164.5</ele><time>2026-03-22T16:36:15.672Z</time></trkpt><trkpt lat="43.179335" lon="2.2817417"><ele>165.75</ele><time>2026-03-22T16:36:16.672Z</time></trkpt><trkpt lat="43.1794167" lon="2.2818633"><ele>167.0</ele><time>2026-03-22T16:36:17.673Z</time></trkpt><trkpt lat="43.1794883" lon="2.281975"><ele>167.0</ele><time>2026-03-22T16:36:18.673Z</time></trkpt><trkpt lat="43.1795633" lon="2.2820783"><ele>167.0</ele><time>2026-03-22T16:36:19.68Z</time></trkpt><trkpt lat="43.1796517" lon="2.2821667"><ele>167.0</ele><time>2026-03-22T16:36:20.674Z</time></trkpt><trkpt lat="43.1797567" lon="2.2822483"><ele>167.0</ele><time>2026-03-22T16:36:21.675Z</time></trkpt><trkpt lat="43.1798633" lon="2.2823267"><ele>167.0</ele><time>2026-03-22T16:36:22.675Z</time></trkpt><trkpt lat="43.179965" lon="2.2824017"><ele>167.0</ele><time>2026-03-22T16:36:23.672Z</time></trkpt><trkpt lat="43.1800667" lon="2.2824733"><ele>167.0</ele><time>2026-03-22T16:36:24.675Z</time></trkpt><trkpt lat="43.1801567" lon="2.28254"><ele>167.0</ele><time>2026-03-22T16:36:25.675Z</time></trkpt><trkpt lat="43.1802433" lon="2.282605"><ele>167.0</ele><time>2026-03-22T16:36:26.675Z</time></trkpt><trkpt lat="43.180325" lon="2.28266"><ele>167.0</ele><time>2026-03-22T16:36:27.678Z</time></trkpt><trkpt lat="43.1804" lon="2.28271"><ele>167.0</ele><time>2026-03-22T16:36:28.675Z</time></trkpt><trkpt lat="43.1804667" lon="2.282755"><ele>167.0</ele><time>2026-03-22T16:36:29.675Z</time></trkpt><trkpt lat="43.1805217" lon="2.2827983"><ele>167.0</ele><time>2026-03-22T16:36:30.675Z</time></trkpt><trkpt lat="43.1805717" lon="2.2829133"><ele>167.0</ele><time>2026-03-22T16:36:32.673Z</time></trkpt><trkpt lat="43.1805233" lon="2.2830933"><ele>166.6</ele><time>2026-03-22T16:36:34.675Z</time></trkpt><trkpt lat="43.1805017" lon="2.283185"><ele>166.2</ele><time>2026-03-22T16:36:35.674Z</time></trkpt><trkpt lat="43.1804767" lon="2.2833333"><ele>165.8</ele><time>2026-03-22T16:36:37.674Z</time></trkpt><trkpt lat="43.18052" lon="2.28346"><ele>165.4</ele><time>2026-03-22T16:36:39.673Z</time></trkpt><trkpt lat="43.1805867" lon="2.2835567"><ele>165.0</ele><time>2026-03-22T16:36:40.674Z</time></trkpt><trkpt lat="43.1806567" lon="2.2836667"><ele>164.5</ele><time>2026-03-22T16:36:41.672Z</time></trkpt><trkpt lat="43.18075" lon="2.28378"><ele>164.0</ele><time>2026-03-22T16:36:42.674Z</time></trkpt><trkpt lat="43.180835" lon="2.283895"><ele>163.5</ele><time>2026-03-22T16:36:43.679Z</time></trkpt><trkpt lat="43.180925" lon="2.2840117"><ele>163.0</ele><time>2026-03-22T16:36:44.676Z</time></trkpt><trkpt lat="43.1810233" lon="2.2841333"><ele>162.0</ele><time>2026-03-22T16:36:45.674Z</time></trkpt><trkpt lat="43.1811217" lon="2.2842567"><ele>161.0</ele><time>2026-03-22T16:36:46.673Z</time></trkpt><trkpt lat="43.1812183" lon="2.2843867"><ele>160.0</ele><time>2026-03-22T16:36:47.675Z</time></trkpt><trkpt lat="43.1813333" lon="2.2845183"><ele>159.0</ele><time>2026-03-22T16:36:48.673Z</time></trkpt><trkpt lat="43.181445" lon="2.2846483"><ele>158.25</ele><time>2026-03-22T16:36:49.673Z</time></trkpt><trkpt lat="43.1815583" lon="2.2847783"><ele>157.5</ele><time>2026-03-22T16:36:50.677Z</time></trkpt><trkpt lat="43.181665" lon="2.2849133"><ele>156.75</ele><time>2026-03-22T16:36:51.674Z</time></trkpt><trkpt lat="43.18177" lon="2.2850383"><ele>156.0</ele><time>2026-03-22T16:36:52.677Z</time></trkpt><trkpt lat="43.181875" lon="2.2851617"><ele>156.0</ele><time>2026-03-22T16:36:53.675Z</time></trkpt><trkpt lat="43.18199" lon="2.2852867"><ele>156.0</ele><time>2026-03-22T16:36:54.675Z</time></trkpt><trkpt lat="43.1821133" lon="2.2854167"><ele>156.0</ele><time>2026-03-22T16:36:55.674Z</time></trkpt><trkpt lat="43.18225" lon="2.2855467"><ele>155.0</ele><time>2026-03-22T16:36:56.674Z</time></trkpt><trkpt lat="43.1823817" lon="2.2856817"><ele>154.0</ele><time>2026-03-22T16:36:57.681Z</time></trkpt><trkpt lat="43.1825017" lon="2.28583"><ele>153.0</ele><time>2026-03-22T16:36:58.678Z</time></trkpt><trkpt lat="43.1826133" lon="2.285975"><ele>153.0</ele><time>2026-03-22T16:36:59.675Z</time></trkpt><trkpt lat="43.182725" lon="2.2861183"><ele>153.0</ele><time>2026-03-22T16:37:00.674Z</time></trkpt><trkpt lat="43.182835" lon="2.2862567"><ele>153.0</ele><time>2026-03-22T16:37:01.675Z</time></trkpt><trkpt lat="43.18293" lon="2.2863833"><ele>153.0</ele><time>2026-03-22T16:37:02.674Z</time></trkpt><trkpt lat="43.183015" lon="2.2865017"><ele>152.75</ele><time>2026-03-22T16:37:03.673Z</time></trkpt><trkpt lat="43.18309" lon="2.2866117"><ele>152.5</ele><time>2026-03-22T16:37:04.674Z</time></trkpt><trkpt lat="43.1831633" lon="2.2867117"><ele>152.25</ele><time>2026-03-22T16:37:05.674Z</time></trkpt><trkpt lat="43.1832433" lon="2.2868167"><ele>152.0</ele><time>2026-03-22T16:37:06.675Z</time></trkpt><trkpt lat="43.1833433" lon="2.2869383"><ele>151.75</ele><time>2026-03-22T16:37:07.674Z</time></trkpt><trkpt lat="43.1834433" lon="2.2870717"><ele>151.5</ele><time>2026-03-22T16:37:08.676Z</time></trkpt><trkpt lat="43.1835483" lon="2.2872067"><ele>151.25</ele><time>2026-03-22T16:37:09.676Z</time></trkpt><trkpt lat="43.1836533" lon="2.2873383"><ele>151.0</ele><time>2026-03-22T16:37:10.674Z</time></trkpt><trkpt lat="43.18376" lon="2.2874517"><ele>151.0</ele><time>2026-03-22T16:37:11.678Z</time></trkpt><trkpt lat="43.1838633" lon="2.28755"><ele>151.0</ele><time>2026-03-22T16:37:12.675Z</time></trkpt><trkpt lat="43.18396" lon="2.287635"><ele>151.0</ele><time>2026-03-22T16:37:13.672Z</time></trkpt><trkpt lat="43.18404" lon="2.2877083"><ele>151.0</ele><time>2026-03-22T16:37:14.673Z</time></trkpt><trkpt lat="43.18411" lon="2.2877767"><ele>151.0</ele><time>2026-03-22T16:37:15.673Z</time></trkpt><trkpt lat="43.184175" lon="2.2878417"><ele>150.83333333333334</ele><time>2026-03-22T16:37:16.674Z</time></trkpt><trkpt lat="43.1842333" lon="2.28791"><ele>150.66666666666669</ele><time>2026-03-22T16:37:17.678Z</time></trkpt><trkpt lat="43.184295" lon="2.2879767"><ele>150.5</ele><time>2026-03-22T16:37:18.675Z</time></trkpt><trkpt lat="43.1843433" lon="2.2880517"><ele>150.33333333333334</ele><time>2026-03-22T16:37:19.673Z</time></trkpt><trkpt lat="43.1844033" lon="2.2881217"><ele>150.16666666666666</ele><time>2026-03-22T16:37:20.675Z</time></trkpt><trkpt lat="43.1844683" lon="2.2881817"><ele>150.0</ele><time>2026-03-22T16:37:21.677Z</time></trkpt><trkpt lat="43.184535" lon="2.2882533"><ele>149.83333333333334</ele><time>2026-03-22T16:37:22.678Z</time></trkpt><trkpt lat="43.1846067" lon="2.2883217"><ele>149.66666666666666</ele><time>2026-03-22T16:37:23.675Z</time></trkpt><trkpt lat="43.184675" lon="2.2883917"><ele>149.5</ele><time>2026-03-22T16:37:24.676Z</time></trkpt><trkpt lat="43.1847433" lon="2.2884583"><ele>149.33333333333331</ele><time>2026-03-22T16:37:25.677Z</time></trkpt><trkpt lat="43.18481" lon="2.288525"><ele>149.16666666666666</ele><time>2026-03-22T16:37:26.675Z</time></trkpt><trkpt lat="43.1848783" lon="2.288595"><ele>149.0</ele><time>2026-03-22T16:37:27.674Z</time></trkpt><trkpt lat="43.18495" lon="2.2886733"><ele>148.5</ele><time>2026-03-22T16:37:28.676Z</time></trkpt><trkpt lat="43.1850267" lon="2.2887583"><ele>148.0</ele><time>2026-03-22T16:37:29.677Z</time></trkpt><trkpt lat="43.1851167" lon="2.2888467"><ele>147.5</ele><time>2026-03-22T16:37:30.676Z</time></trkpt><trkpt lat="43.18521" lon="2.2889433"><ele>147.0</ele><time>2026-03-22T16:37:31.674Z</time></trkpt><trkpt lat="43.18531" lon="2.289045"><ele>147.0</ele><time>2026-03-22T16:37:32.674Z</time></trkpt><trkpt lat="43.185415" lon="2.28915"><ele>147.0</ele><time>2026-03-22T16:37:33.673Z</time></trkpt><trkpt lat="43.1855183" lon="2.2892667"><ele>147.0</ele><time>2026-03-22T16:37:34.673Z</time></trkpt><trkpt lat="43.1856167" lon="2.2893933"><ele>147.0</ele><time>2026-03-22T16:37:35.674Z</time></trkpt><trkpt lat="43.1857167" lon="2.289535"><ele>147.0</ele><time>2026-03-22T16:37:36.674Z</time></trkpt><trkpt lat="43.185815" lon="2.289685"><ele>147.0</ele><time>2026-03-22T16:37:37.674Z</time></trkpt><trkpt lat="43.1859133" lon="2.2898283"><ele>147.0</ele><time>2026-03-22T16:37:38.673Z</time></trkpt><trkpt lat="43.186005" lon="2.28996"><ele>147.0</ele><time>2026-03-22T16:37:39.676Z</time></trkpt><trkpt lat="43.1860917" lon="2.2900817"><ele>147.0</ele><time>2026-03-22T16:37:40.674Z</time></trkpt><trkpt lat="43.1861717" lon="2.2901983"><ele>147.0</ele><time>2026-03-22T16:37:41.675Z</time></trkpt><trkpt lat="43.1862483" lon="2.2903033"><ele>147.0</ele><time>2026-03-22T16:37:42.675Z</time></trkpt><trkpt lat="43.18633" lon="2.2903983"><ele>147.0</ele><time>2026-03-22T16:37:43.675Z</time></trkpt><trkpt lat="43.18642" lon="2.290485"><ele>147.0</ele><time>2026-03-22T16:37:44.677Z</time></trkpt><trkpt lat="43.18652" lon="2.2905517"><ele>146.75</ele><time>2026-03-22T16:37:45.674Z</time></trkpt><trkpt lat="43.1866283" lon="2.2905983"><ele>146.5</ele><time>2026-03-22T16:37:46.673Z</time></trkpt><trkpt lat="43.1867483" lon="2.29062"><ele>146.25</ele><time>2026-03-22T16:37:47.674Z</time></trkpt><trkpt lat="43.1868733" lon="2.2906233"><ele>146.0</ele><time>2026-03-22T16:37:48.676Z</time></trkpt><trkpt lat="43.1869883" lon="2.29062"><ele>146.0</ele><time>2026-03-22T16:37:49.673Z</time></trkpt><trkpt lat="43.1871" lon="2.2906217"><ele>146.0</ele><time>2026-03-22T16:37:50.676Z</time></trkpt><trkpt lat="43.1872017" lon="2.29063"><ele>146.0</ele><time>2026-03-22T16:37:51.674Z</time></trkpt><trkpt lat="43.18729" lon="2.29065"><ele>146.0</ele><time>2026-03-22T16:37:52.672Z</time></trkpt><trkpt lat="43.1873617" lon="2.2906867"><ele>146.0</ele><time>2026-03-22T16:37:53.674Z</time></trkpt><trkpt lat="43.1874167" lon="2.2907467"><ele>146.0</ele><time>2026-03-22T16:37:54.673Z</time></trkpt><trkpt lat="43.187455" lon="2.2908433"><ele>146.0</ele><time>2026-03-22T16:37:55.675Z</time></trkpt><trkpt lat="43.1874867" lon="2.2909617"><ele>146.0</ele><time>2026-03-22T16:37:56.672Z</time></trkpt><trkpt lat="43.187515" lon="2.2910967"><ele>146.0</ele><time>2026-03-22T16:37:57.673Z</time></trkpt><trkpt lat="43.1875567" lon="2.2912283"><ele>146.0</ele><time>2026-03-22T16:37:58.673Z</time></trkpt><trkpt lat="43.187615" lon="2.2913533"><ele>146.25</ele><time>2026-03-22T16:37:59.672Z</time></trkpt><trkpt lat="43.1876867" lon="2.29148"><ele>146.5</ele><time>2026-03-22T16:38:00.673Z</time></trkpt><trkpt lat="43.187765" lon="2.2916017"><ele>146.75</ele><time>2026-03-22T16:38:01.675Z</time></trkpt><trkpt lat="43.1878433" lon="2.2917217"><ele>147.0</ele><time>2026-03-22T16:38:02.673Z</time></trkpt><trkpt lat="43.1879167" lon="2.2918267"><ele>147.0</ele><time>2026-03-22T16:38:03.672Z</time></trkpt><trkpt lat="43.1879767" lon="2.2919183"><ele>147.0</ele><time>2026-03-22T16:38:04.673Z</time></trkpt><trkpt lat="43.1880233" lon="2.2919933"><ele>147.0</ele><time>2026-03-22T16:38:05.675Z</time></trkpt><trkpt lat="43.1881033" lon="2.2920817"><ele>147.0</ele><time>2026-03-22T16:38:07.674Z</time></trkpt><trkpt lat="43.1882083" lon="2.2921217"><ele>147.0</ele><time>2026-03-22T16:38:09.674Z</time></trkpt><trkpt lat="43.1883333" lon="2.2921767"><ele>147.25</ele><time>2026-03-22T16:38:11.675Z</time></trkpt><trkpt lat="43.1884117" lon="2.2922383"><ele>147.5</ele><time>2026-03-22T16:38:12.678Z</time></trkpt><trkpt lat="43.1885" lon="2.2923083"><ele>147.75</ele><time>2026-03-22T16:38:13.673Z</time></trkpt><trkpt lat="43.1886167" lon="2.2923917"><ele>148.0</ele><time>2026-03-22T16:38:14.674Z</time></trkpt><trkpt lat="43.18873" lon="2.292485"><ele>147.25</ele><time>2026-03-22T16:38:15.673Z</time></trkpt><trkpt lat="43.1888417" lon="2.2925933"><ele>146.5</ele><time>2026-03-22T16:38:16.674Z</time></trkpt><trkpt lat="43.1889517" lon="2.2926883"><ele>145.75</ele><time>2026-03-22T16:38:17.676Z</time></trkpt><trkpt lat="43.18906" lon="2.2927867"><ele>145.0</ele><time>2026-03-22T16:38:18.675Z</time></trkpt><trkpt lat="43.18916" lon="2.2928883"><ele>143.6</ele><time>2026-03-22T16:38:19.676Z</time></trkpt><trkpt lat="43.18925" lon="2.2929883"><ele>142.2</ele><time>2026-03-22T16:38:20.674Z</time></trkpt><trkpt lat="43.1893217" lon="2.29309"><ele>140.8</ele><time>2026-03-22T16:38:21.675Z</time></trkpt><trkpt lat="43.189385" lon="2.2931817"><ele>139.4</ele><time>2026-03-22T16:38:22.673Z</time></trkpt><trkpt lat="43.18944" lon="2.2932667"><ele>138.0</ele><time>2026-03-22T16:38:23.674Z</time></trkpt><trkpt lat="43.18949" lon="2.293335"><ele>137.6</ele><time>2026-03-22T16:38:24.676Z</time></trkpt><trkpt lat="43.1895733" lon="2.29342"><ele>137.20000000000002</ele><time>2026-03-22T16:38:26.674Z</time></trkpt><trkpt lat="43.1896617" lon="2.29353"><ele>136.8</ele><time>2026-03-22T16:38:28.672Z</time></trkpt><trkpt lat="43.1897167" lon="2.2936233"><ele>136.4</ele><time>2026-03-22T16:38:29.673Z</time></trkpt><trkpt lat="43.1897767" lon="2.2937383"><ele>136.0</ele><time>2026-03-22T16:38:30.674Z</time></trkpt><trkpt lat="43.1898417" lon="2.293865"><ele>135.0</ele><time>2026-03-22T16:38:31.677Z</time></trkpt><trkpt lat="43.189915" lon="2.2940017"><ele>134.0</ele><time>2026-03-22T16:38:32.678Z</time></trkpt><trkpt lat="43.1899883" lon="2.2941567"><ele>133.0</ele><time>2026-03-22T16:38:33.679Z</time></trkpt><trkpt lat="43.19007" lon="2.29432"><ele>132.0</ele><time>2026-03-22T16:38:34.674Z</time></trkpt><trkpt lat="43.19016" lon="2.2944917"><ele>132.0</ele><time>2026-03-22T16:38:35.674Z</time></trkpt><trkpt lat="43.1902517" lon="2.2946667"><ele>132.0</ele><time>2026-03-22T16:38:36.675Z</time></trkpt><trkpt lat="43.1903467" lon="2.2948483"><ele>132.0</ele><time>2026-03-22T16:38:37.674Z</time></trkpt><trkpt lat="43.1904417" lon="2.2950367"><ele>131.66666666666666</ele><time>2026-03-22T16:38:38.674Z</time></trkpt><trkpt lat="43.19054" lon="2.29523"><ele>131.33333333333331</ele><time>2026-03-22T16:38:39.674Z</time></trkpt><trkpt lat="43.1906367" lon="2.2954233"><ele>131.0</ele><time>2026-03-22T16:38:40.673Z</time></trkpt><trkpt lat="43.190735" lon="2.2956183"><ele>130.66666666666666</ele><time>2026-03-22T16:38:41.677Z</time></trkpt><trkpt lat="43.19083" lon="2.29581"><ele>130.33333333333334</ele><time>2026-03-22T16:38:42.674Z</time></trkpt><trkpt lat="43.1909317" lon="2.2960017"><ele>130.0</ele><time>2026-03-22T16:38:43.673Z</time></trkpt><trkpt lat="43.19103" lon="2.29619"><ele>130.0</ele><time>2026-03-22T16:38:44.675Z</time></trkpt><trkpt lat="43.1911267" lon="2.2963783"><ele>130.0</ele><time>2026-03-22T16:38:45.674Z</time></trkpt><trkpt lat="43.191225" lon="2.2965683"><ele>130.0</ele><time>2026-03-22T16:38:46.673Z</time></trkpt><trkpt lat="43.1913167" lon="2.2967567"><ele>130.33333333333334</ele><time>2026-03-22T16:38:47.673Z</time></trkpt><trkpt lat="43.19141" lon="2.2969433"><ele>130.66666666666666</ele><time>2026-03-22T16:38:48.673Z</time></trkpt><trkpt lat="43.1915017" lon="2.29713"><ele>131.0</ele><time>2026-03-22T16:38:49.673Z</time></trkpt><trkpt lat="43.1915933" lon="2.297315"><ele>130.0</ele><time>2026-03-22T16:38:50.674Z</time></trkpt><trkpt lat="43.1916883" lon="2.2975"><ele>129.0</ele><time>2026-03-22T16:38:51.673Z</time></trkpt><trkpt lat="43.1917833" lon="2.29768"><ele>128.0</ele><time>2026-03-22T16:38:52.674Z</time></trkpt><trkpt lat="43.191875" lon="2.297855"><ele>128.0</ele><time>2026-03-22T16:38:53.677Z</time></trkpt><trkpt lat="43.1919733" lon="2.2980233"><ele>128.0</ele><time>2026-03-22T16:38:54.673Z</time></trkpt><trkpt lat="43.19208" lon="2.29818"><ele>128.0</ele><time>2026-03-22T16:38:55.674Z</time></trkpt><trkpt lat="43.19221" lon="2.2982883"><ele>128.0</ele><time>2026-03-22T16:38:56.675Z</time></trkpt><trkpt lat="43.1923617" lon="2.2983467"><ele>128.0</ele><time>2026-03-22T16:38:57.675Z</time></trkpt><trkpt lat="43.1925183" lon="2.2983833"><ele>128.0</ele><time>2026-03-22T16:38:58.676Z</time></trkpt><trkpt lat="43.1926783" lon="2.2984167"><ele>128.0</ele><time>2026-03-22T16:38:59.674Z</time></trkpt><trkpt lat="43.1928333" lon="2.29846"><ele>128.0</ele><time>2026-03-22T16:39:00.673Z</time></trkpt><trkpt lat="43.1929833" lon="2.298525"><ele>128.0</ele><time>2026-03-22T16:39:01.674Z</time></trkpt><trkpt lat="43.1931233" lon="2.298615"><ele>127.66666666666666</ele><time>2026-03-22T16:39:02.673Z</time></trkpt><trkpt lat="43.1932533" lon="2.2987317"><ele>127.33333333333334</ele><time>2026-03-22T16:39:03.673Z</time></trkpt><trkpt lat="43.1933617" lon="2.2988817"><ele>127.0</ele><time>2026-03-22T16:39:04.675Z</time></trkpt><trkpt lat="43.1934317" lon="2.2990667"><ele>127.0</ele><time>2026-03-22T16:39:05.676Z</time></trkpt><trkpt lat="43.1934733" lon="2.29928"><ele>127.0</ele><time>2026-03-22T16:39:06.675Z</time></trkpt><trkpt lat="43.1934983" lon="2.299505"><ele>127.0</ele><time>2026-03-22T16:39:07.672Z</time></trkpt><trkpt lat="43.193515" lon="2.299735"><ele>127.0</ele><time>2026-03-22T16:39:08.673Z</time></trkpt><trkpt lat="43.1935167" lon="2.29997"><ele>127.0</ele><time>2026-03-22T16:39:09.673Z</time></trkpt><trkpt lat="43.1935133" lon="2.30021"><ele>127.0</ele><time>2026-03-22T16:39:10.673Z</time></trkpt><trkpt lat="43.1935083" lon="2.3004517"><ele>126.66666666666667</ele><time>2026-03-22T16:39:11.673Z</time></trkpt><trkpt lat="43.1934983" lon="2.300695"><ele>126.33333333333334</ele><time>2026-03-22T16:39:12.672Z</time></trkpt><trkpt lat="43.19348" lon="2.300945"><ele>126.0</ele><time>2026-03-22T16:39:13.674Z</time></trkpt><trkpt lat="43.19346" lon="2.301195"><ele>126.0</ele><time>2026-03-22T16:39:14.677Z</time></trkpt><trkpt lat="43.1934383" lon="2.3014467"><ele>126.0</ele><time>2026-03-22T16:39:15.673Z</time></trkpt><trkpt lat="43.1934183" lon="2.3016883"><ele>126.0</ele><time>2026-03-22T16:39:16.673Z</time></trkpt><trkpt lat="43.1934" lon="2.301935"><ele>126.0</ele><time>2026-03-22T16:39:17.675Z</time></trkpt><trkpt lat="43.1933833" lon="2.3021883"><ele>126.0</ele><time>2026-03-22T16:39:18.674Z</time></trkpt><trkpt lat="43.1933667" lon="2.30244"><ele>126.0</ele><time>2026-03-22T16:39:19.675Z</time></trkpt><trkpt lat="43.19335" lon="2.3026917"><ele>126.0</ele><time>2026-03-22T16:39:20.675Z</time></trkpt><trkpt lat="43.1933367" lon="2.3029467"><ele>126.0</ele><time>2026-03-22T16:39:21.673Z</time></trkpt><trkpt lat="43.1933217" lon="2.3032017"><ele>126.0</ele><time>2026-03-22T16:39:22.673Z</time></trkpt><trkpt lat="43.1933067" lon="2.3034533"><ele>126.0</ele><time>2026-03-22T16:39:23.676Z</time></trkpt><trkpt lat="43.19329" lon="2.3037067"><ele>126.0</ele><time>2026-03-22T16:39:24.674Z</time></trkpt><trkpt lat="43.19327" lon="2.3039617"><ele>126.0</ele><time>2026-03-22T16:39:25.675Z</time></trkpt><trkpt lat="43.1932517" lon="2.3042133"><ele>126.0</ele><time>2026-03-22T16:39:26.674Z</time></trkpt><trkpt lat="43.1932367" lon="2.30447"><ele>126.0</ele><time>2026-03-22T16:39:27.674Z</time></trkpt><trkpt lat="43.1932183" lon="2.3047283"><ele>126.0</ele><time>2026-03-22T16:39:28.673Z</time></trkpt><trkpt lat="43.1932" lon="2.3049867"><ele>125.33333333333334</ele><time>2026-03-22T16:39:29.673Z</time></trkpt><trkpt lat="43.1931833" lon="2.3052417"><ele>124.66666666666667</ele><time>2026-03-22T16:39:30.675Z</time></trkpt><trkpt lat="43.1931683" lon="2.3054983"><ele>124.0</ele><time>2026-03-22T16:39:31.677Z</time></trkpt><trkpt lat="43.1931533" lon="2.305755"><ele>123.66666666666667</ele><time>2026-03-22T16:39:32.676Z</time></trkpt><trkpt lat="43.1931383" lon="2.30601"><ele>123.33333333333334</ele><time>2026-03-22T16:39:33.675Z</time></trkpt><trkpt lat="43.1931233" lon="2.306265"><ele>123.0</ele><time>2026-03-22T16:39:34.676Z</time></trkpt><trkpt lat="43.1931067" lon="2.3065167"><ele>122.66666666666666</ele><time>2026-03-22T16:39:35.674Z</time></trkpt><trkpt lat="43.19309" lon="2.3067717"><ele>122.33333333333333</ele><time>2026-03-22T16:39:36.674Z</time></trkpt><trkpt lat="43.1930733" lon="2.3070267"><ele>122.0</ele><time>2026-03-22T16:39:37.675Z</time></trkpt><trkpt lat="43.1930583" lon="2.3072817"><ele>122.0</ele><time>2026-03-22T16:39:38.676Z</time></trkpt><trkpt lat="43.19304" lon="2.3075383"><ele>122.0</ele><time>2026-03-22T16:39:39.675Z</time></trkpt><trkpt lat="43.1930233" lon="2.307795"><ele>122.0</ele><time>2026-03-22T16:39:40.673Z</time></trkpt><trkpt lat="43.19301" lon="2.30804"><ele>122.0</ele><time>2026-03-22T16:39:41.676Z</time></trkpt><trkpt lat="43.192995" lon="2.30827"><ele>122.0</ele><time>2026-03-22T16:39:42.675Z</time></trkpt><trkpt lat="43.192975" lon="2.3084983"><ele>122.0</ele><time>2026-03-22T16:39:43.674Z</time></trkpt><trkpt lat="43.19295" lon="2.3087233"><ele>122.0</ele><time>2026-03-22T16:39:44.678Z</time></trkpt><trkpt lat="43.192915" lon="2.3089433"><ele>122.0</ele><time>2026-03-22T16:39:45.674Z</time></trkpt><trkpt lat="43.19286" lon="2.309155"><ele>122.0</ele><time>2026-03-22T16:39:46.674Z</time></trkpt><trkpt lat="43.1927883" lon="2.309365"><ele>122.0</ele><time>2026-03-22T16:39:47.675Z</time></trkpt><trkpt lat="43.192715" lon="2.3095717"><ele>122.0</ele><time>2026-03-22T16:39:48.675Z</time></trkpt><trkpt lat="43.1926467" lon="2.3097833"><ele>122.0</ele><time>2026-03-22T16:39:49.674Z</time></trkpt><trkpt lat="43.192595" lon="2.3099983"><ele>122.0</ele><time>2026-03-22T16:39:50.676Z</time></trkpt><trkpt lat="43.1925633" lon="2.3102133"><ele>122.0</ele><time>2026-03-22T16:39:51.68Z</time></trkpt><trkpt lat="43.1925567" lon="2.3104317"><ele>122.0</ele><time>2026-03-22T16:39:52.673Z</time></trkpt><trkpt lat="43.1925767" lon="2.31065"><ele>122.0</ele><time>2026-03-22T16:39:53.674Z</time></trkpt><trkpt lat="43.1926167" lon="2.3108667"><ele>122.0</ele><time>2026-03-22T16:39:54.676Z</time></trkpt><trkpt lat="43.1926833" lon="2.311075"><ele>122.0</ele><time>2026-03-22T16:39:55.675Z</time></trkpt><trkpt lat="43.1927717" lon="2.3112683"><ele>122.33333333333333</ele><time>2026-03-22T16:39:56.68Z</time></trkpt><trkpt lat="43.1928583" lon="2.3114767"><ele>122.66666666666666</ele><time>2026-03-22T16:39:57.676Z</time></trkpt><trkpt lat="43.1929483" lon="2.3116683"><ele>123.0</ele><time>2026-03-22T16:39:58.674Z</time></trkpt><trkpt lat="43.1930383" lon="2.31186"><ele>123.0</ele><time>2026-03-22T16:39:59.675Z</time></trkpt><trkpt lat="43.1931083" lon="2.3119967"><ele>123.00000000000001</ele><time>2026-03-22T16:40:00.676Z</time></trkpt><trkpt lat="43.193175" lon="2.312125"><ele>123.00000000000001</ele><time>2026-03-22T16:40:01.675Z</time></trkpt><trkpt lat="43.1932567" lon="2.3122217"><ele>123.0</ele><time>2026-03-22T16:40:02.675Z</time></trkpt><trkpt lat="43.193325" lon="2.3122933"><ele>123.0</ele><time>2026-03-22T16:40:03.678Z</time></trkpt><trkpt lat="43.1933667" lon="2.31236"><ele>123.83333333333333</ele><time>2026-03-22T16:40:04.673Z</time></trkpt><trkpt lat="43.1934317" lon="2.3123933"><ele>124.66666666666666</ele><time>2026-03-22T16:40:06.674Z</time></trkpt><trkpt lat="43.19343" lon="2.3122833"><ele>125.5</ele><time>2026-03-22T16:40:08.675Z</time></trkpt><trkpt lat="43.19341" lon="2.3121817"><ele>126.33333333333333</ele><time>2026-03-22T16:40:09.673Z</time></trkpt><trkpt lat="43.1933767" lon="2.31205"><ele>127.16666666666666</ele><time>2026-03-22T16:40:10.674Z</time></trkpt><trkpt lat="43.19334" lon="2.3118983"><ele>128.0</ele><time>2026-03-22T16:40:11.673Z</time></trkpt><trkpt lat="43.1933083" lon="2.3117383"><ele>128.0</ele><time>2026-03-22T16:40:12.673Z</time></trkpt><trkpt lat="43.1932867" lon="2.31158"><ele>128.0</ele><time>2026-03-22T16:40:13.674Z</time></trkpt><trkpt lat="43.193275" lon="2.31142"><ele>128.0</ele><time>2026-03-22T16:40:14.675Z</time></trkpt><trkpt lat="43.1932917" lon="2.3112533"><ele>128.0</ele><time>2026-03-22T16:40:15.674Z</time></trkpt><trkpt lat="43.1933233" lon="2.3110817"><ele>127.75</ele><time>2026-03-22T16:40:16.673Z</time></trkpt><trkpt lat="43.1933683" lon="2.310905"><ele>127.5</ele><time>2026-03-22T16:40:17.679Z</time></trkpt><trkpt lat="43.19341" lon="2.310725"><ele>127.25</ele><time>2026-03-22T16:40:18.675Z</time></trkpt><trkpt lat="43.1934533" lon="2.3105583"><ele>127.0</ele><time>2026-03-22T16:40:19.673Z</time></trkpt><trkpt lat="43.1935017" lon="2.31036"><ele>127.0</ele><time>2026-03-22T16:40:20.675Z</time></trkpt><trkpt lat="43.19355" lon="2.310165"><ele>127.0</ele><time>2026-03-22T16:40:21.675Z</time></trkpt><trkpt lat="43.193595" lon="2.3099683"><ele>127.0</ele><time>2026-03-22T16:40:22.675Z</time></trkpt><trkpt lat="43.19364" lon="2.3097683"><ele>126.66666666666667</ele><time>2026-03-22T16:40:23.673Z</time></trkpt><trkpt lat="43.1936817" lon="2.3095667"><ele>126.33333333333334</ele><time>2026-03-22T16:40:24.676Z</time></trkpt><trkpt lat="43.1937217" lon="2.3093667"><ele>126.0</ele><time>2026-03-22T16:40:25.675Z</time></trkpt><trkpt lat="43.1937633" lon="2.3091733"><ele>126.0</ele><time>2026-03-22T16:40:26.675Z</time></trkpt><trkpt lat="43.1938183" lon="2.3089783"><ele>126.0</ele><time>2026-03-22T16:40:27.673Z</time></trkpt><trkpt lat="43.1938767" lon="2.30877"><ele>126.0</ele><time>2026-03-22T16:40:28.677Z</time></trkpt><trkpt lat="43.1939317" lon="2.308565"><ele>125.66666666666666</ele><time>2026-03-22T16:40:29.674Z</time></trkpt><trkpt lat="43.1939933" lon="2.3083567"><ele>125.33333333333333</ele><time>2026-03-22T16:40:30.672Z</time></trkpt><trkpt lat="43.1940567" lon="2.3081567"><ele>125.0</ele><time>2026-03-22T16:40:31.673Z</time></trkpt><trkpt lat="43.194115" lon="2.3079733"><ele>126.0</ele><time>2026-03-22T16:40:32.674Z</time></trkpt><trkpt lat="43.194165" lon="2.3077933"><ele>127.0</ele><time>2026-03-22T16:40:33.674Z</time></trkpt><trkpt lat="43.194215" lon="2.3076217"><ele>128.0</ele><time>2026-03-22T16:40:34.672Z</time></trkpt><trkpt lat="43.1942567" lon="2.307465"><ele>129.0</ele><time>2026-03-22T16:40:35.674Z</time></trkpt><trkpt lat="43.1942917" lon="2.30733"><ele>128.6</ele><time>2026-03-22T16:40:36.672Z</time></trkpt><trkpt lat="43.194335" lon="2.3072067"><ele>128.2</ele><time>2026-03-22T16:40:37.673Z</time></trkpt><trkpt lat="43.1943967" lon="2.3071067"><ele>127.79999999999998</ele><time>2026-03-22T16:40:38.675Z</time></trkpt><trkpt lat="43.19448" lon="2.3070267"><ele>127.39999999999999</ele><time>2026-03-22T16:40:39.673Z</time></trkpt><trkpt lat="43.194575" lon="2.30696"><ele>127.0</ele><time>2026-03-22T16:40:40.674Z</time></trkpt><trkpt lat="43.1946767" lon="2.3069017"><ele>127.0</ele><time>2026-03-22T16:40:41.674Z</time></trkpt><trkpt lat="43.1947833" lon="2.3068333"><ele>127.0</ele><time>2026-03-22T16:40:42.673Z</time></trkpt><trkpt lat="43.1948983" lon="2.3067433"><ele>127.0</ele><time>2026-03-22T16:40:43.674Z</time></trkpt><trkpt lat="43.1950067" lon="2.30664"><ele>127.0</ele><time>2026-03-22T16:40:44.675Z</time></trkpt><trkpt lat="43.19512" lon="2.30652"><ele>128.0</ele><time>2026-03-22T16:40:45.675Z</time></trkpt><trkpt lat="43.1952367" lon="2.3063967"><ele>129.0</ele><time>2026-03-22T16:40:46.673Z</time></trkpt><trkpt lat="43.195345" lon="2.3062683"><ele>130.0</ele><time>2026-03-22T16:40:47.673Z</time></trkpt><trkpt lat="43.1954533" lon="2.306135"><ele>131.0</ele><time>2026-03-22T16:40:48.676Z</time></trkpt><trkpt lat="43.19556" lon="2.305995"><ele>131.0</ele><time>2026-03-22T16:40:49.676Z</time></trkpt><trkpt lat="43.1956633" lon="2.305855"><ele>131.0</ele><time>2026-03-22T16:40:50.674Z</time></trkpt><trkpt lat="43.1957567" lon="2.305725"><ele>131.0</ele><time>2026-03-22T16:40:51.676Z</time></trkpt><trkpt lat="43.1958333" lon="2.305595"><ele>131.0</ele><time>2026-03-22T16:40:52.675Z</time></trkpt><trkpt lat="43.1959033" lon="2.3054783"><ele>131.8</ele><time>2026-03-22T16:40:53.675Z</time></trkpt><trkpt lat="43.1959733" lon="2.305375"><ele>132.6</ele><time>2026-03-22T16:40:54.674Z</time></trkpt><trkpt lat="43.196045" lon="2.3052867"><ele>133.4</ele><time>2026-03-22T16:40:55.673Z</time></trkpt><trkpt lat="43.1961233" lon="2.3052233"><ele>134.2</ele><time>2026-03-22T16:40:56.677Z</time></trkpt><trkpt lat="43.1962083" lon="2.3051817"><ele>135.0</ele><time>2026-03-22T16:40:57.674Z</time></trkpt><trkpt lat="43.19631" lon="2.3051617"><ele>135.0</ele><time>2026-03-22T16:40:58.676Z</time></trkpt><trkpt lat="43.1964167" lon="2.30515"><ele>135.0</ele><time>2026-03-22T16:40:59.675Z</time></trkpt><trkpt lat="43.1965217" lon="2.305135"><ele>135.0</ele><time>2026-03-22T16:41:00.678Z</time></trkpt><trkpt lat="43.19662" lon="2.3051233"><ele>135.0</ele><time>2026-03-22T16:41:01.675Z</time></trkpt><trkpt lat="43.196705" lon="2.3051117"><ele>135.0</ele><time>2026-03-22T16:41:02.674Z</time></trkpt><trkpt lat="43.1967833" lon="2.3051117"><ele>135.0</ele><time>2026-03-22T16:41:03.673Z</time></trkpt><trkpt lat="43.1968567" lon="2.3051383"><ele>135.0</ele><time>2026-03-22T16:41:04.673Z</time></trkpt><trkpt lat="43.1969217" lon="2.3051917"><ele>135.0</ele><time>2026-03-22T16:41:05.678Z</time></trkpt><trkpt lat="43.1969833" lon="2.3052817"><ele>135.0</ele><time>2026-03-22T16:41:06.677Z</time></trkpt><trkpt lat="43.19705" lon="2.3054167"><ele>135.0</ele><time>2026-03-22T16:41:07.673Z</time></trkpt><trkpt lat="43.1971283" lon="2.305555"><ele>135.0</ele><time>2026-03-22T16:41:08.674Z</time></trkpt><trkpt lat="43.1972183" lon="2.3056933"><ele>135.0</ele><time>2026-03-22T16:41:09.673Z</time></trkpt><trkpt lat="43.19731" lon="2.3058433"><ele>135.0</ele><time>2026-03-22T16:41:10.672Z</time></trkpt><trkpt lat="43.1973967" lon="2.3060067"><ele>135.0</ele><time>2026-03-22T16:41:11.673Z</time></trkpt><trkpt lat="43.1974867" lon="2.3061767"><ele>134.66666666666666</ele><time>2026-03-22T16:41:12.674Z</time></trkpt><trkpt lat="43.1975817" lon="2.3063517"><ele>134.33333333333331</ele><time>2026-03-22T16:41:13.674Z</time></trkpt><trkpt lat="43.1976783" lon="2.3065267"><ele>134.0</ele><time>2026-03-22T16:41:14.674Z</time></trkpt><trkpt lat="43.1977733" lon="2.3067"><ele>134.66666666666666</ele><time>2026-03-22T16:41:15.677Z</time></trkpt><trkpt lat="43.19787" lon="2.306875"><ele>135.33333333333334</ele><time>2026-03-22T16:41:16.673Z</time></trkpt><trkpt lat="43.1979667" lon="2.3070517"><ele>136.0</ele><time>2026-03-22T16:41:17.675Z</time></trkpt><trkpt lat="43.1980633" lon="2.3072317"><ele>136.66666666666669</ele><time>2026-03-22T16:41:18.675Z</time></trkpt><trkpt lat="43.19816" lon="2.307415"><ele>137.33333333333334</ele><time>2026-03-22T16:41:19.676Z</time></trkpt><trkpt lat="43.19825" lon="2.3076017"><ele>138.0</ele><time>2026-03-22T16:41:20.675Z</time></trkpt><trkpt lat="43.1983433" lon="2.3077817"><ele>136.0</ele><time>2026-03-22T16:41:21.673Z</time></trkpt><trkpt lat="43.1984383" lon="2.3079517"><ele>134.0</ele><time>2026-03-22T16:41:22.674Z</time></trkpt><trkpt lat="43.1985267" lon="2.3081133"><ele>132.0</ele><time>2026-03-22T16:41:23.675Z</time></trkpt><trkpt lat="43.1986" lon="2.30827"><ele>130.0</ele><time>2026-03-22T16:41:24.677Z</time></trkpt><trkpt lat="43.1986667" lon="2.308415"><ele>130.0</ele><time>2026-03-22T16:41:25.674Z</time></trkpt><trkpt lat="43.198735" lon="2.3085467"><ele>130.0</ele><time>2026-03-22T16:41:26.674Z</time></trkpt><trkpt lat="43.1987967" lon="2.308665"><ele>130.0</ele><time>2026-03-22T16:41:27.675Z</time></trkpt><trkpt lat="43.1988433" lon="2.3087617"><ele>130.0</ele><time>2026-03-22T16:41:28.679Z</time></trkpt><trkpt lat="43.19888" lon="2.30884"><ele>130.0</ele><time>2026-03-22T16:41:29.675Z</time></trkpt><trkpt lat="43.1989283" lon="2.308925"><ele>130.4</ele><time>2026-03-22T16:41:31.672Z</time></trkpt><trkpt lat="43.1989067" lon="2.30903"><ele>130.8</ele><time>2026-03-22T16:41:34.674Z</time></trkpt><trkpt lat="43.19882" lon="2.30916"><ele>131.2</ele><time>2026-03-22T16:41:36.674Z</time></trkpt><trkpt lat="43.198765" lon="2.3092517"><ele>131.6</ele><time>2026-03-22T16:41:37.672Z</time></trkpt><trkpt lat="43.19871" lon="2.3093533"><ele>132.0</ele><time>2026-03-22T16:41:38.673Z</time></trkpt><trkpt lat="43.1986517" lon="2.30947"><ele>132.0</ele><time>2026-03-22T16:41:39.673Z</time></trkpt><trkpt lat="43.1985917" lon="2.30961"><ele>132.0</ele><time>2026-03-22T16:41:40.674Z</time></trkpt><trkpt lat="43.1985367" lon="2.309765"><ele>132.0</ele><time>2026-03-22T16:41:41.673Z</time></trkpt><trkpt lat="43.1984867" lon="2.3099317"><ele>132.0</ele><time>2026-03-22T16:41:42.673Z</time></trkpt><trkpt lat="43.1984317" lon="2.3101083"><ele>132.0</ele><time>2026-03-22T16:41:43.672Z</time></trkpt><trkpt lat="43.1983717" lon="2.3102817"><ele>132.0</ele><time>2026-03-22T16:41:44.673Z</time></trkpt><trkpt lat="43.1983117" lon="2.3104367"><ele>132.0</ele><time>2026-03-22T16:41:45.675Z</time></trkpt><trkpt lat="43.1982517" lon="2.3105817"><ele>132.0</ele><time>2026-03-22T16:41:46.674Z</time></trkpt><trkpt lat="43.1981967" lon="2.3107133"><ele>133.0</ele><time>2026-03-22T16:41:47.675Z</time></trkpt><trkpt lat="43.19815" lon="2.3108383"><ele>134.0</ele><time>2026-03-22T16:41:48.673Z</time></trkpt><trkpt lat="43.1981067" lon="2.31096"><ele>135.0</ele><time>2026-03-22T16:41:49.676Z</time></trkpt><trkpt lat="43.19806" lon="2.31109"><ele>136.0</ele><time>2026-03-22T16:41:50.675Z</time></trkpt><trkpt lat="43.1980067" lon="2.311225"><ele>137.0</ele><time>2026-03-22T16:41:51.674Z</time></trkpt><trkpt lat="43.197955" lon="2.3113633"><ele>137.25</ele><time>2026-03-22T16:41:52.675Z</time></trkpt><trkpt lat="43.1979033" lon="2.31151"><ele>137.5</ele><time>2026-03-22T16:41:53.673Z</time></trkpt><trkpt lat="43.1978483" lon="2.311665"><ele>137.75</ele><time>2026-03-22T16:41:54.673Z</time></trkpt><trkpt lat="43.1977967" lon="2.3118117"><ele>138.0</ele><time>2026-03-22T16:41:55.674Z</time></trkpt><trkpt lat="43.19776" lon="2.3119433"><ele>138.0</ele><time>2026-03-22T16:41:56.672Z</time></trkpt><trkpt lat="43.1977267" lon="2.312055"><ele>138.0</ele><time>2026-03-22T16:41:57.673Z</time></trkpt><trkpt lat="43.1976867" lon="2.3121567"><ele>138.0</ele><time>2026-03-22T16:41:58.674Z</time></trkpt><trkpt lat="43.1976483" lon="2.3122483"><ele>138.0</ele><time>2026-03-22T16:41:59.672Z</time></trkpt><trkpt lat="43.1976133" lon="2.3123367"><ele>138.0</ele><time>2026-03-22T16:42:00.673Z</time></trkpt><trkpt lat="43.1975783" lon="2.3124167"><ele>138.0</ele><time>2026-03-22T16:42:01.679Z</time></trkpt><trkpt lat="43.1975417" lon="2.3124983"><ele>137.66666666666666</ele><time>2026-03-22T16:42:02.673Z</time></trkpt><trkpt lat="43.1975083" lon="2.31258"><ele>137.33333333333334</ele><time>2026-03-22T16:42:03.676Z</time></trkpt><trkpt lat="43.1974817" lon="2.3126617"><ele>137.0</ele><time>2026-03-22T16:42:04.674Z</time></trkpt><trkpt lat="43.1974633" lon="2.312745"><ele>136.66666666666669</ele><time>2026-03-22T16:42:05.674Z</time></trkpt><trkpt lat="43.197475" lon="2.3129367"><ele>136.33333333333334</ele><time>2026-03-22T16:42:07.673Z</time></trkpt><trkpt lat="43.19751" lon="2.3130467"><ele>136.0</ele><time>2026-03-22T16:42:08.673Z</time></trkpt><trkpt lat="43.1975567" lon="2.313155"><ele>135.6</ele><time>2026-03-22T16:42:09.675Z</time></trkpt><trkpt lat="43.1976" lon="2.3132817"><ele>135.2</ele><time>2026-03-22T16:42:10.674Z</time></trkpt><trkpt lat="43.1976333" lon="2.3134217"><ele>134.8</ele><time>2026-03-22T16:42:11.675Z</time></trkpt><trkpt lat="43.1976567" lon="2.3135617"><ele>134.4</ele><time>2026-03-22T16:42:12.676Z</time></trkpt><trkpt lat="43.197665" lon="2.31371"><ele>134.0</ele><time>2026-03-22T16:42:13.672Z</time></trkpt><trkpt lat="43.1976567" lon="2.3138567"><ele>133.6</ele><time>2026-03-22T16:42:14.674Z</time></trkpt><trkpt lat="43.19765" lon="2.313995"><ele>133.2</ele><time>2026-03-22T16:42:15.675Z</time></trkpt><trkpt lat="43.1976417" lon="2.3141233"><ele>132.79999999999998</ele><time>2026-03-22T16:42:16.673Z</time></trkpt><trkpt lat="43.1976367" lon="2.3142417"><ele>132.4</ele><time>2026-03-22T16:42:17.679Z</time></trkpt><trkpt lat="43.1976317" lon="2.3143583"><ele>132.0</ele><time>2026-03-22T16:42:18.674Z</time></trkpt><trkpt lat="43.197635" lon="2.3144733"><ele>132.0</ele><time>2026-03-22T16:42:19.673Z</time></trkpt><trkpt lat="43.1976667" lon="2.3145683"><ele>132.0</ele><time>2026-03-22T16:42:20.674Z</time></trkpt><trkpt lat="43.1977017" lon="2.314645"><ele>132.0</ele><time>2026-03-22T16:42:21.672Z</time></trkpt><trkpt lat="43.1977317" lon="2.314725"><ele>132.0</ele><time>2026-03-22T16:42:22.675Z</time></trkpt><trkpt lat="43.197745" lon="2.3149117"><ele>132.0</ele><time>2026-03-22T16:42:24.674Z</time></trkpt><trkpt lat="43.1977417" lon="2.3150417"><ele>132.0</ele><time>2026-03-22T16:42:25.672Z</time></trkpt><trkpt lat="43.197735" lon="2.31518"><ele>131.5</ele><time>2026-03-22T16:42:26.675Z</time></trkpt><trkpt lat="43.19773" lon="2.3153267"><ele>131.0</ele><time>2026-03-22T16:42:27.674Z</time></trkpt><trkpt lat="43.1977283" lon="2.315485"><ele>130.5</ele><time>2026-03-22T16:42:28.674Z</time></trkpt><trkpt lat="43.197725" lon="2.3156567"><ele>130.0</ele><time>2026-03-22T16:42:29.674Z</time></trkpt><trkpt lat="43.1977217" lon="2.3158333"><ele>130.0</ele><time>2026-03-22T16:42:30.674Z</time></trkpt><trkpt lat="43.1977183" lon="2.3160017"><ele>130.0</ele><time>2026-03-22T16:42:31.673Z</time></trkpt><trkpt lat="43.1977167" lon="2.3161633"><ele>130.0</ele><time>2026-03-22T16:42:32.673Z</time></trkpt><trkpt lat="43.1977133" lon="2.3163117"><ele>130.0</ele><time>2026-03-22T16:42:33.674Z</time></trkpt><trkpt lat="43.1977133" lon="2.3164467"><ele>130.0</ele><time>2026-03-22T16:42:34.673Z</time></trkpt><trkpt lat="43.1977133" lon="2.31657"><ele>130.6</ele><time>2026-03-22T16:42:35.675Z</time></trkpt><trkpt lat="43.1977133" lon="2.3166917"><ele>131.2</ele><time>2026-03-22T16:42:36.675Z</time></trkpt><trkpt lat="43.1977033" lon="2.3168183"><ele>131.8</ele><time>2026-03-22T16:42:37.674Z</time></trkpt><trkpt lat="43.197685" lon="2.3169483"><ele>132.4</ele><time>2026-03-22T16:42:38.674Z</time></trkpt><trkpt lat="43.19766" lon="2.3170717"><ele>133.0</ele><time>2026-03-22T16:42:39.674Z</time></trkpt><trkpt lat="43.1976317" lon="2.3171833"><ele>133.0</ele><time>2026-03-22T16:42:40.674Z</time></trkpt><trkpt lat="43.1976033" lon="2.3172817"><ele>133.0</ele><time>2026-03-22T16:42:41.674Z</time></trkpt><trkpt lat="43.1975833" lon="2.3173767"><ele>133.0</ele><time>2026-03-22T16:42:42.673Z</time></trkpt><trkpt lat="43.1975633" lon="2.3174717"><ele>133.0</ele><time>2026-03-22T16:42:43.678Z</time></trkpt><trkpt lat="43.197545" lon="2.317555"><ele>133.0</ele><time>2026-03-22T16:42:44.674Z</time></trkpt><trkpt lat="43.197565" lon="2.31769"><ele>133.0</ele><time>2026-03-22T16:42:46.675Z</time></trkpt><trkpt lat="43.19762" lon="2.3177417"><ele>133.0</ele><time>2026-03-22T16:42:47.674Z</time></trkpt><trkpt lat="43.1977333" lon="2.317765"><ele>133.0</ele><time>2026-03-22T16:42:48.674Z</time></trkpt><trkpt lat="43.1978567" lon="2.31779"><ele>133.0</ele><time>2026-03-22T16:42:49.674Z</time></trkpt><trkpt lat="43.1979867" lon="2.3178117"><ele>133.0</ele><time>2026-03-22T16:42:50.673Z</time></trkpt><trkpt lat="43.1981217" lon="2.31783"><ele>130.75</ele><time>2026-03-22T16:42:51.674Z</time></trkpt><trkpt lat="43.1982567" lon="2.317855"><ele>128.5</ele><time>2026-03-22T16:42:52.674Z</time></trkpt><trkpt lat="43.1984" lon="2.3178783"><ele>126.25</ele><time>2026-03-22T16:42:53.755Z</time></trkpt><trkpt lat="43.1985483" lon="2.317905"><ele>124.0</ele><time>2026-03-22T16:42:54.672Z</time></trkpt><trkpt lat="43.1986983" lon="2.3179383"><ele>124.0</ele><time>2026-03-22T16:42:55.673Z</time></trkpt><trkpt lat="43.1988533" lon="2.3179767"><ele>124.0</ele><time>2026-03-22T16:42:56.673Z</time></trkpt><trkpt lat="43.1990117" lon="2.31801"><ele>124.0</ele><time>2026-03-22T16:42:57.673Z</time></trkpt><trkpt lat="43.1991683" lon="2.3180367"><ele>124.0</ele><time>2026-03-22T16:42:58.672Z</time></trkpt><trkpt lat="43.1993233" lon="2.318065"><ele>124.0</ele><time>2026-03-22T16:42:59.672Z</time></trkpt><trkpt lat="43.1994767" lon="2.318095"><ele>124.0</ele><time>2026-03-22T16:43:00.673Z</time></trkpt><trkpt lat="43.1996333" lon="2.3181217"><ele>124.0</ele><time>2026-03-22T16:43:01.672Z</time></trkpt><trkpt lat="43.19979" lon="2.3181533"><ele>124.0</ele><time>2026-03-22T16:43:02.674Z</time></trkpt><trkpt lat="43.1999433" lon="2.3181833"><ele>124.0</ele><time>2026-03-22T16:43:03.674Z</time></trkpt><trkpt lat="43.2000933" lon="2.3182117"><ele>124.25</ele><time>2026-03-22T16:43:04.675Z</time></trkpt><trkpt lat="43.2002317" lon="2.3182417"><ele>124.5</ele><time>2026-03-22T16:43:05.673Z</time></trkpt><trkpt lat="43.2003617" lon="2.3182683"><ele>124.75</ele><time>2026-03-22T16:43:06.673Z</time></trkpt><trkpt lat="43.2004917" lon="2.318295"><ele>125.0</ele><time>2026-03-22T16:43:07.673Z</time></trkpt><trkpt lat="43.2006233" lon="2.3183217"><ele>124.75</ele><time>2026-03-22T16:43:08.673Z</time></trkpt><trkpt lat="43.20076" lon="2.318345"><ele>124.5</ele><time>2026-03-22T16:43:09.672Z</time></trkpt><trkpt lat="43.200895" lon="2.31837"><ele>124.25</ele><time>2026-03-22T16:43:10.673Z</time></trkpt><trkpt lat="43.201025" lon="2.3183983"><ele>124.0</ele><time>2026-03-22T16:43:11.673Z</time></trkpt><trkpt lat="43.20115" lon="2.3184367"><ele>124.0</ele><time>2026-03-22T16:43:12.673Z</time></trkpt><trkpt lat="43.2012683" lon="2.318495"><ele>124.0</ele><time>2026-03-22T16:43:13.673Z</time></trkpt><trkpt lat="43.2013783" lon="2.3185733"><ele>124.0</ele><time>2026-03-22T16:43:14.677Z</time></trkpt><trkpt lat="43.2014783" lon="2.31867"><ele>124.0</ele><time>2026-03-22T16:43:15.674Z</time></trkpt><trkpt lat="43.201575" lon="2.3187767"><ele>124.0</ele><time>2026-03-22T16:43:16.674Z</time></trkpt><trkpt lat="43.2016733" lon="2.3188817"><ele>124.0</ele><time>2026-03-22T16:43:17.673Z</time></trkpt><trkpt lat="43.20178" lon="2.318965"><ele>124.0</ele><time>2026-03-22T16:43:18.675Z</time></trkpt><trkpt lat="43.2018883" lon="2.31902"><ele>124.0</ele><time>2026-03-22T16:43:19.674Z</time></trkpt><trkpt lat="43.2020033" lon="2.31904"><ele>124.0</ele><time>2026-03-22T16:43:20.673Z</time></trkpt><trkpt lat="43.2021167" lon="2.3190133"><ele>124.0</ele><time>2026-03-22T16:43:21.677Z</time></trkpt><trkpt lat="43.20222" lon="2.31894"><ele>124.0</ele><time>2026-03-22T16:43:22.672Z</time></trkpt><trkpt lat="43.2023217" lon="2.3188483"><ele>124.0</ele><time>2026-03-22T16:43:23.672Z</time></trkpt><trkpt lat="43.2024367" lon="2.3187783"><ele>123.0</ele><time>2026-03-22T16:43:24.672Z</time></trkpt><trkpt lat="43.2025617" lon="2.3187383"><ele>122.0</ele><time>2026-03-22T16:43:25.674Z</time></trkpt><trkpt lat="43.2027" lon="2.3187283"><ele>121.0</ele><time>2026-03-22T16:43:26.673Z</time></trkpt><trkpt lat="43.2028383" lon="2.3187467"><ele>120.0</ele><time>2026-03-22T16:43:27.673Z</time></trkpt><trkpt lat="43.2029783" lon="2.3187617"><ele>120.0</ele><time>2026-03-22T16:43:28.673Z</time></trkpt><trkpt lat="43.20311" lon="2.3187683"><ele>120.0</ele><time>2026-03-22T16:43:29.673Z</time></trkpt><trkpt lat="43.203235" lon="2.3187717"><ele>120.0</ele><time>2026-03-22T16:43:30.674Z</time></trkpt><trkpt lat="43.2033533" lon="2.3187767"><ele>120.0</ele><time>2026-03-22T16:43:31.677Z</time></trkpt><trkpt lat="43.203465" lon="2.3187867"><ele>119.66666666666667</ele><time>2026-03-22T16:43:32.673Z</time></trkpt><trkpt lat="43.20357" lon="2.318795"><ele>119.33333333333334</ele><time>2026-03-22T16:43:33.674Z</time></trkpt><trkpt lat="43.2036683" lon="2.318795"><ele>119.0</ele><time>2026-03-22T16:43:34.679Z</time></trkpt><trkpt lat="43.20376" lon="2.318795"><ele>118.66666666666667</ele><time>2026-03-22T16:43:35.676Z</time></trkpt><trkpt lat="43.2038417" lon="2.3187917"><ele>118.33333333333334</ele><time>2026-03-22T16:43:36.675Z</time></trkpt><trkpt lat="43.2039133" lon="2.3187917"><ele>118.0</ele><time>2026-03-22T16:43:37.674Z</time></trkpt><trkpt lat="43.20398" lon="2.31879"><ele>117.80000000000001</ele><time>2026-03-22T16:43:38.676Z</time></trkpt><trkpt lat="43.20408" lon="2.3187917"><ele>117.60000000000001</ele><time>2026-03-22T16:43:40.672Z</time></trkpt><trkpt lat="43.20417" lon="2.318855"><ele>117.39999999999999</ele><time>2026-03-22T16:43:42.675Z</time></trkpt><trkpt lat="43.204205" lon="2.3189383"><ele>117.19999999999999</ele><time>2026-03-22T16:43:43.674Z</time></trkpt><trkpt lat="43.2042283" lon="2.3190667"><ele>117.0</ele><time>2026-03-22T16:43:44.673Z</time></trkpt><trkpt lat="43.2042467" lon="2.3192133"><ele>117.0</ele><time>2026-03-22T16:43:45.679Z</time></trkpt><trkpt lat="43.2042767" lon="2.3193633"><ele>116.99999999999999</ele><time>2026-03-22T16:43:46.673Z</time></trkpt><trkpt lat="43.2043083" lon="2.3195017"><ele>116.99999999999999</ele><time>2026-03-22T16:43:47.674Z</time></trkpt><trkpt lat="43.20432" lon="2.3196333"><ele>117.0</ele><time>2026-03-22T16:43:48.672Z</time></trkpt><trkpt lat="43.2043033" lon="2.3197533"><ele>117.0</ele><time>2026-03-22T16:43:49.673Z</time></trkpt><trkpt lat="43.20428" lon="2.3198633"><ele>117.0</ele><time>2026-03-22T16:43:50.675Z</time></trkpt><trkpt lat="43.2042733" lon="2.31997"><ele>117.0</ele><time>2026-03-22T16:43:51.674Z</time></trkpt><trkpt lat="43.204295" lon="2.3200717"><ele>117.0</ele><time>2026-03-22T16:43:52.675Z</time></trkpt><trkpt lat="43.20437" lon="2.32012"><ele>117.0</ele><time>2026-03-22T16:43:53.674Z</time></trkpt><trkpt lat="43.2044617" lon="2.3201267"><ele>117.0</ele><time>2026-03-22T16:43:54.676Z</time></trkpt><trkpt lat="43.204555" lon="2.3201283"><ele>117.0</ele><time>2026-03-22T16:43:55.678Z</time></trkpt><trkpt lat="43.2046533" lon="2.32016"><ele>117.0</ele><time>2026-03-22T16:43:56.673Z</time></trkpt><trkpt lat="43.20475" lon="2.3202383"><ele>117.0</ele><time>2026-03-22T16:43:57.676Z</time></trkpt><trkpt lat="43.204845" lon="2.3203433"><ele>117.0</ele><time>2026-03-22T16:43:58.674Z</time></trkpt><trkpt lat="43.20494" lon="2.32046"><ele>117.0</ele><time>2026-03-22T16:43:59.675Z</time></trkpt><trkpt lat="43.2050433" lon="2.3205783"><ele>116.5</ele><time>2026-03-22T16:44:00.672Z</time></trkpt><trkpt lat="43.2051467" lon="2.3207017"><ele>116.0</ele><time>2026-03-22T16:44:01.673Z</time></trkpt><trkpt lat="43.205255" lon="2.3208267"><ele>115.5</ele><time>2026-03-22T16:44:02.675Z</time></trkpt><trkpt lat="43.205365" lon="2.320955"><ele>115.0</ele><time>2026-03-22T16:44:03.674Z</time></trkpt><trkpt lat="43.2054767" lon="2.3210833"><ele>115.0</ele><time>2026-03-22T16:44:04.674Z</time></trkpt><trkpt lat="43.20559" lon="2.3212117"><ele>115.0</ele><time>2026-03-22T16:44:05.675Z</time></trkpt><trkpt lat="43.205705" lon="2.32134"><ele>115.0</ele><time>2026-03-22T16:44:06.675Z</time></trkpt><trkpt lat="43.2058267" lon="2.3214717"><ele>115.0</ele><time>2026-03-22T16:44:07.673Z</time></trkpt><trkpt lat="43.2059483" lon="2.3216017"><ele>115.0</ele><time>2026-03-22T16:44:08.675Z</time></trkpt><trkpt lat="43.2060683" lon="2.3217367"><ele>115.0</ele><time>2026-03-22T16:44:09.673Z</time></trkpt><trkpt lat="43.20619" lon="2.3218733"><ele>115.0</ele><time>2026-03-22T16:44:10.674Z</time></trkpt><trkpt lat="43.2063133" lon="2.3220083"><ele>115.0</ele><time>2026-03-22T16:44:11.674Z</time></trkpt><trkpt lat="43.2064367" lon="2.3221433"><ele>115.0</ele><time>2026-03-22T16:44:12.673Z</time></trkpt><trkpt lat="43.2065567" lon="2.3222817"><ele>114.33333333333334</ele><time>2026-03-22T16:44:13.676Z</time></trkpt><trkpt lat="43.2066767" lon="2.3224217"><ele>113.66666666666666</ele><time>2026-03-22T16:44:14.675Z</time></trkpt><trkpt lat="43.2068017" lon="2.3225567"><ele>113.0</ele><time>2026-03-22T16:44:15.672Z</time></trkpt><trkpt lat="43.2069217" lon="2.3226917"><ele>113.0</ele><time>2026-03-22T16:44:16.674Z</time></trkpt><trkpt lat="43.20704" lon="2.3228233"><ele>113.0</ele><time>2026-03-22T16:44:17.675Z</time></trkpt><trkpt lat="43.2071567" lon="2.322955"><ele>113.0</ele><time>2026-03-22T16:44:18.673Z</time></trkpt><trkpt lat="43.2072767" lon="2.323085"><ele>113.33333333333333</ele><time>2026-03-22T16:44:19.679Z</time></trkpt><trkpt lat="43.207395" lon="2.323215"><ele>113.66666666666666</ele><time>2026-03-22T16:44:20.673Z</time></trkpt><trkpt lat="43.2075117" lon="2.323345"><ele>114.0</ele><time>2026-03-22T16:44:21.673Z</time></trkpt><trkpt lat="43.2076317" lon="2.3234717"><ele>114.0</ele><time>2026-03-22T16:44:22.674Z</time></trkpt><trkpt lat="43.2077483" lon="2.3236017"><ele>114.0</ele><time>2026-03-22T16:44:23.673Z</time></trkpt><trkpt lat="43.207865" lon="2.323735"><ele>114.0</ele><time>2026-03-22T16:44:24.673Z</time></trkpt><trkpt lat="43.2079833" lon="2.3238683"><ele>114.0</ele><time>2026-03-22T16:44:25.673Z</time></trkpt><trkpt lat="43.2081" lon="2.324"><ele>114.0</ele><time>2026-03-22T16:44:26.674Z</time></trkpt><trkpt lat="43.2082133" lon="2.3241283"><ele>114.0</ele><time>2026-03-22T16:44:27.677Z</time></trkpt><trkpt lat="43.2083233" lon="2.3242483"><ele>114.0</ele><time>2026-03-22T16:44:28.672Z</time></trkpt><trkpt lat="43.208425" lon="2.3243633"><ele>114.0</ele><time>2026-03-22T16:44:29.673Z</time></trkpt><trkpt lat="43.2085233" lon="2.32447"><ele>114.0</ele><time>2026-03-22T16:44:30.672Z</time></trkpt><trkpt lat="43.208615" lon="2.32457"><ele>114.0</ele><time>2026-03-22T16:44:31.674Z</time></trkpt><trkpt lat="43.2087017" lon="2.324665"><ele>114.0</ele><time>2026-03-22T16:44:32.673Z</time></trkpt><trkpt lat="43.2087833" lon="2.3247517"><ele>113.83333333333333</ele><time>2026-03-22T16:44:33.678Z</time></trkpt><trkpt lat="43.2088567" lon="2.3248317"><ele>113.66666666666666</ele><time>2026-03-22T16:44:34.673Z</time></trkpt><trkpt lat="43.2089283" lon="2.3249033"><ele>113.5</ele><time>2026-03-22T16:44:35.673Z</time></trkpt><trkpt lat="43.2090033" lon="2.324955"><ele>113.33333333333333</ele><time>2026-03-22T16:44:36.672Z</time></trkpt><trkpt lat="43.209075" lon="2.3249767"><ele>113.16666666666666</ele><time>2026-03-22T16:44:37.674Z</time></trkpt><trkpt lat="43.20915" lon="2.32496"><ele>113.0</ele><time>2026-03-22T16:44:38.676Z</time></trkpt><trkpt lat="43.20922" lon="2.3249183"><ele>113.0</ele><time>2026-03-22T16:44:39.675Z</time></trkpt><trkpt lat="43.2092767" lon="2.3248733"><ele>113.00000000000001</ele><time>2026-03-22T16:44:40.672Z</time></trkpt><trkpt lat="43.2093717" lon="2.32481"><ele>113.00000000000001</ele><time>2026-03-22T16:44:42.673Z</time></trkpt><trkpt lat="43.2094183" lon="2.3247033"><ele>113.0</ele><time>2026-03-22T16:44:44.673Z</time></trkpt><trkpt lat="43.2093833" lon="2.3245367"><ele>113.0</ele><time>2026-03-22T16:44:46.673Z</time></trkpt><trkpt lat="43.2093533" lon="2.3244583"><ele>113.0</ele><time>2026-03-22T16:44:47.675Z</time></trkpt><trkpt lat="43.209305" lon="2.324325"><ele>113.00000000000001</ele><time>2026-03-22T16:44:49.672Z</time></trkpt><trkpt lat="43.2092033" lon="2.3242667"><ele>113.00000000000001</ele><time>2026-03-22T16:44:51.675Z</time></trkpt><trkpt lat="43.2091183" lon="2.32425"><ele>113.0</ele><time>2026-03-22T16:44:53.672Z</time></trkpt><trkpt lat="43.2090517" lon="2.3241933"><ele>113.0</ele><time>2026-03-22T16:44:56.674Z</time></trkpt><trkpt lat="43.20912" lon="2.3241567"><ele>113.0</ele><time>2026-03-22T16:45:02.674Z</time></trkpt><trkpt lat="43.209135" lon="2.3242467"><ele>113.0</ele><time>2026-03-22T16:45:06.676Z</time></trkpt></trkseg></trk></gpx>